<?xml version='1.0' encoding='UTF-8'?><gpx version="1.1" creator="JPX - https://github.com/jenetics/jpx" xmlns="http://www.topografix.com/GPX/1/1"><trk><trkseg><trkpt lat="45.646432224719845" lon="11.298856164674325"><ele>280.0</ele><time>2026-05-01T10:12:43.557Z</time></trkpt><trkpt lat="45.646693372170446" lon="11.298877632516653"><ele>280.0</ele><time>2026-05-01T10:12:56.317Z</time></trkpt><trkpt lat="45.64654586641191" lon="11.29884721047349"><ele>280.0</ele><time>2026-05-01T10:13:18.393Z</time></trkpt><trkpt lat="45.64611728773047" lon="11.298900190751347"><ele>278.5</ele><time>2026-05-01T10:13:20.321Z</time></trkpt><trkpt lat="45.64614310399224" lon="11.299101859341654"><ele>277.0</ele><time>2026-05-01T10:13:30.999Z</time></trkpt><trkpt lat="45.64613558384129" lon="11.299192528480365"><ele>275.5</ele><time>2026-05-01T10:13:32.999Z</time></trkpt><trkpt lat="45.646116601077416" lon="11.299291024782763"><ele>274.0</ele><time>2026-05-01T10:13:34Z</time></trkpt><trkpt lat="45.64610886662551" lon="11.299417781792725"><ele>272.5</ele><time>2026-05-01T10:13:36Z</time></trkpt><trkpt lat="45.64610644677828" lon="11.299533448235815"><ele>271.0</ele><time>2026-05-01T10:13:38Z</time></trkpt><trkpt lat="45.646107863868316" lon="11.29967501802152"><ele>271.0</ele><time>2026-05-01T10:13:40Z</time></trkpt><trkpt lat="45.646068254992514" lon="11.299773058737838"><ele>271.0</ele><time>2026-05-01T10:13:43Z</time></trkpt><trkpt lat="45.64612964632763" lon="11.299751950834"><ele>271.0</ele><time>2026-05-01T10:13:51Z</time></trkpt><trkpt lat="45.64611442114111" lon="11.299639742406077"><ele>271.0</ele><time>2026-05-01T10:13:54Z</time></trkpt><trkpt lat="45.64611109293191" lon="11.299520062946051"><ele>271.0</ele><time>2026-05-01T10:13:56Z</time></trkpt><trkpt lat="45.64611230538092" lon="11.299410759651602"><ele>271.0</ele><time>2026-05-01T10:13:58Z</time></trkpt><trkpt lat="45.64611496099301" lon="11.299281206304272"><ele>271.0</ele><time>2026-05-01T10:14:00Z</time></trkpt><trkpt lat="45.6461116117178" lon="11.299130556624663"><ele>271.0</ele><time>2026-05-01T10:14:02Z</time></trkpt><trkpt lat="45.64610595619872" lon="11.298981337436402"><ele>271.0</ele><time>2026-05-01T10:14:04Z</time></trkpt><trkpt lat="45.64610441694043" lon="11.298832746709326"><ele>271.0</ele><time>2026-05-01T10:14:06Z</time></trkpt><trkpt lat="45.646112652595406" lon="11.29870199133885"><ele>271.0</ele><time>2026-05-01T10:14:08Z</time></trkpt><trkpt lat="45.64612124244712" lon="11.298585085802323"><ele>272.2857142857143</ele><time>2026-05-01T10:14:10Z</time></trkpt><trkpt lat="45.64619050339325" lon="11.298537768946746"><ele>273.57142857142856</ele><time>2026-05-01T10:14:12Z</time></trkpt><trkpt lat="45.646258316314096" lon="11.298505278161036"><ele>274.8571428571429</ele><time>2026-05-01T10:14:14Z</time></trkpt><trkpt lat="45.64632233294471" lon="11.29848787919529"><ele>276.1428571428571</ele><time>2026-05-01T10:14:15Z</time></trkpt><trkpt lat="45.64640399538937" lon="11.298491465178943"><ele>277.42857142857144</ele><time>2026-05-01T10:14:16Z</time></trkpt><trkpt lat="45.64647594296939" lon="11.298494873338417"><ele>278.7142857142857</ele><time>2026-05-01T10:14:17Z</time></trkpt><trkpt lat="45.64655327248201" lon="11.298514189024196"><ele>280.0</ele><time>2026-05-01T10:14:18Z</time></trkpt><trkpt lat="45.64661823789036" lon="11.298538904042877"><ele>280.0</ele><time>2026-05-01T10:14:19Z</time></trkpt><trkpt lat="45.64669432629828" lon="11.298563897098221"><ele>280.0</ele><time>2026-05-01T10:14:20Z</time></trkpt><trkpt lat="45.64680190099784" lon="11.298603640418854"><ele>280.0</ele><time>2026-05-01T10:14:22Z</time></trkpt><trkpt lat="45.64689353603629" lon="11.298633211140034"><ele>280.0</ele><time>2026-05-01T10:14:25.001Z</time></trkpt><trkpt lat="45.64695668985071" lon="11.298654274800143"><ele>280.0</ele><time>2026-05-01T10:14:26.001Z</time></trkpt><trkpt lat="45.647019749817126" lon="11.298676673832063"><ele>280.0</ele><time>2026-05-01T10:14:27.001Z</time></trkpt><trkpt lat="45.64714692637099" lon="11.298723266560579"><ele>280.3333333333333</ele><time>2026-05-01T10:14:29.001Z</time></trkpt><trkpt lat="45.64722972938483" lon="11.298784975021281"><ele>280.66666666666663</ele><time>2026-05-01T10:14:30.001Z</time></trkpt><trkpt lat="45.64729619525004" lon="11.298846925488789"><ele>281.0</ele><time>2026-05-01T10:14:31.001Z</time></trkpt><trkpt lat="45.647388857113995" lon="11.298915230020379"><ele>281.3333333333333</ele><time>2026-05-01T10:14:32.001Z</time></trkpt><trkpt lat="45.647470627189456" lon="11.298971743632848"><ele>281.6666666666667</ele><time>2026-05-01T10:14:33.001Z</time></trkpt><trkpt lat="45.64753002063082" lon="11.299048256518121"><ele>282.0</ele><time>2026-05-01T10:14:34.001Z</time></trkpt><trkpt lat="45.647602295029735" lon="11.29913087333475"><ele>280.0</ele><time>2026-05-01T10:14:36.001Z</time></trkpt><trkpt lat="45.64762429627077" lon="11.299242340371158"><ele>278.0</ele><time>2026-05-01T10:14:38.001Z</time></trkpt><trkpt lat="45.64757742589047" lon="11.299309195980662"><ele>276.0</ele><time>2026-05-01T10:14:39.001Z</time></trkpt><trkpt lat="45.64753111181228" lon="11.299471378794161"><ele>274.0</ele><time>2026-05-01T10:14:41.001Z</time></trkpt><trkpt lat="45.647497512560086" lon="11.299568243119202"><ele>272.0</ele><time>2026-05-01T10:14:42.001Z</time></trkpt><trkpt lat="45.64747929177325" lon="11.299671311291064"><ele>270.0</ele><time>2026-05-01T10:14:43.001Z</time></trkpt><trkpt lat="45.6474752933149" lon="11.299776815915477"><ele>269.3333333333333</ele><time>2026-05-01T10:14:44.001Z</time></trkpt><trkpt lat="45.647470552352864" lon="11.299873160274448"><ele>268.6666666666667</ele><time>2026-05-01T10:14:45.001Z</time></trkpt><trkpt lat="45.64747354746366" lon="11.300022986202874"><ele>268.0</ele><time>2026-05-01T10:14:47.001Z</time></trkpt><trkpt lat="45.64748744735989" lon="11.300130368872496"><ele>267.33333333333337</ele><time>2026-05-01T10:14:49.001Z</time></trkpt><trkpt lat="45.64748962852989" lon="11.300231599273053"><ele>266.6666666666667</ele><time>2026-05-01T10:14:51.001Z</time></trkpt><trkpt lat="45.647523582640225" lon="11.300350280637867"><ele>266.0</ele><time>2026-05-01T10:14:53.001Z</time></trkpt><trkpt lat="45.647567898373794" lon="11.300468968428964"><ele>266.0</ele><time>2026-05-01T10:14:55.001Z</time></trkpt><trkpt lat="45.64759872854335" lon="11.300576572036556"><ele>266.0</ele><time>2026-05-01T10:14:57.001Z</time></trkpt><trkpt lat="45.647626178069316" lon="11.300709016149561"><ele>266.0</ele><time>2026-05-01T10:14:59.001Z</time></trkpt><trkpt lat="45.647661314451575" lon="11.300846291285401"><ele>266.0</ele><time>2026-05-01T10:15:01.001Z</time></trkpt><trkpt lat="45.647692737110894" lon="11.300941420259415"><ele>266.0</ele><time>2026-05-01T10:15:03.001Z</time></trkpt><trkpt lat="45.647779403515685" lon="11.300941920013432"><ele>266.0</ele><time>2026-05-01T10:15:06.001Z</time></trkpt><trkpt lat="45.64785767895893" lon="11.300891614764126"><ele>264.5</ele><time>2026-05-01T10:15:07.001Z</time></trkpt><trkpt lat="45.64795162408051" lon="11.300829502105788"><ele>263.0</ele><time>2026-05-01T10:15:09.001Z</time></trkpt><trkpt lat="45.6480091009637" lon="11.300790374386482"><ele>261.5</ele><time>2026-05-01T10:15:11.001Z</time></trkpt><trkpt lat="45.64807400885075" lon="11.300810050231759"><ele>260.0</ele><time>2026-05-01T10:15:13.001Z</time></trkpt><trkpt lat="45.64806379521089" lon="11.300975027141488"><ele>258.5</ele><time>2026-05-01T10:15:15.001Z</time></trkpt><trkpt lat="45.648078103623625" lon="11.301063102411865"><ele>257.0</ele><time>2026-05-01T10:15:16.001Z</time></trkpt><trkpt lat="45.64807304963215" lon="11.301155124989062"><ele>257.0</ele><time>2026-05-01T10:15:18.001Z</time></trkpt><trkpt lat="45.6479818532437" lon="11.301199565293267"><ele>257.0</ele><time>2026-05-01T10:15:19.001Z</time></trkpt><trkpt lat="45.647896359582866" lon="11.301228513444912"><ele>257.0</ele><time>2026-05-01T10:15:20.001Z</time></trkpt><trkpt lat="45.64781381266615" lon="11.301260689577088"><ele>257.0</ele><time>2026-05-01T10:15:21.001Z</time></trkpt><trkpt lat="45.647740477962245" lon="11.301290792575552"><ele>257.0</ele><time>2026-05-01T10:15:22.001Z</time></trkpt><trkpt lat="45.647667242376194" lon="11.301318878046619"><ele>257.0</ele><time>2026-05-01T10:15:23.001Z</time></trkpt><trkpt lat="45.647583531341404" lon="11.301340269679235"><ele>257.6</ele><time>2026-05-01T10:15:24.001Z</time></trkpt><trkpt lat="45.64749027664252" lon="11.30138226398012"><ele>258.2</ele><time>2026-05-01T10:15:25.001Z</time></trkpt><trkpt lat="45.64739747021195" lon="11.301409718736975"><ele>258.8</ele><time>2026-05-01T10:15:26.001Z</time></trkpt><trkpt lat="45.64730317208871" lon="11.301436169303807"><ele>259.4</ele><time>2026-05-01T10:15:27.001Z</time></trkpt><trkpt lat="45.647204210634584" lon="11.301477294008071"><ele>260.0</ele><time>2026-05-01T10:15:28.001Z</time></trkpt><trkpt lat="45.64710126383534" lon="11.301517932139172"><ele>258.5</ele><time>2026-05-01T10:15:29.001Z</time></trkpt><trkpt lat="45.646997457218646" lon="11.301556742587216"><ele>257.0</ele><time>2026-05-01T10:15:30.001Z</time></trkpt><trkpt lat="45.64689106854869" lon="11.301594499761705"><ele>255.5</ele><time>2026-05-01T10:15:31.001Z</time></trkpt><trkpt lat="45.64677639545035" lon="11.301634216279846"><ele>254.0</ele><time>2026-05-01T10:15:32.002Z</time></trkpt><trkpt lat="45.64666156350398" lon="11.301677373878329"><ele>252.75</ele><time>2026-05-01T10:15:33.002Z</time></trkpt><trkpt lat="45.64654683779383" lon="11.301725043736965"><ele>251.5</ele><time>2026-05-01T10:15:34.002Z</time></trkpt><trkpt lat="45.646431915063125" lon="11.301761331004366"><ele>250.25</ele><time>2026-05-01T10:15:35.002Z</time></trkpt><trkpt lat="45.64630954304812" lon="11.301805334732919"><ele>249.0</ele><time>2026-05-01T10:15:36.002Z</time></trkpt><trkpt lat="45.64618408725304" lon="11.301849502430223"><ele>249.75</ele><time>2026-05-01T10:15:37.001Z</time></trkpt><trkpt lat="45.64606156696545" lon="11.301881948025432"><ele>250.5</ele><time>2026-05-01T10:15:38.001Z</time></trkpt><trkpt lat="45.64593802457797" lon="11.30193415721688"><ele>251.25</ele><time>2026-05-01T10:15:39.001Z</time></trkpt><trkpt lat="45.64581727515557" lon="11.301977588950724"><ele>252.0</ele><time>2026-05-01T10:15:40.001Z</time></trkpt><trkpt lat="45.64570092613074" lon="11.302026851487893"><ele>252.0</ele><time>2026-05-01T10:15:41.001Z</time></trkpt><trkpt lat="45.64558909713236" lon="11.302064525753625"><ele>252.0</ele><time>2026-05-01T10:15:42.001Z</time></trkpt><trkpt lat="45.645481065709355" lon="11.302101557162517"><ele>252.0</ele><time>2026-05-01T10:15:43.001Z</time></trkpt><trkpt lat="45.64538087401711" lon="11.30211146064657"><ele>252.0</ele><time>2026-05-01T10:15:44.001Z</time></trkpt><trkpt lat="45.64527967648963" lon="11.302161491948896"><ele>252.0</ele><time>2026-05-01T10:15:45.001Z</time></trkpt><trkpt lat="45.64518055562985" lon="11.302199649479025"><ele>252.0</ele><time>2026-05-01T10:15:46.001Z</time></trkpt><trkpt lat="45.64508780578952" lon="11.302230297707238"><ele>252.0</ele><time>2026-05-01T10:15:47.001Z</time></trkpt><trkpt lat="45.644990264154224" lon="11.302258669933616"><ele>252.0</ele><time>2026-05-01T10:15:48.001Z</time></trkpt><trkpt lat="45.64489812230309" lon="11.302288298856356"><ele>252.0</ele><time>2026-05-01T10:15:49.001Z</time></trkpt><trkpt lat="45.64483115571943" lon="11.30231071462374"><ele>252.0</ele><time>2026-05-01T10:15:50.001Z</time></trkpt><trkpt lat="45.64475951378858" lon="11.302355412019008"><ele>252.0</ele><time>2026-05-01T10:15:52.001Z</time></trkpt><trkpt lat="45.6446928402099" lon="11.30238071356987"><ele>252.0</ele><time>2026-05-01T10:15:55.001Z</time></trkpt><trkpt lat="45.6446177549345" lon="11.30241795528539"><ele>252.0</ele><time>2026-05-01T10:15:57.001Z</time></trkpt><trkpt lat="45.644504074801844" lon="11.30243927989108"><ele>252.0</ele><time>2026-05-01T10:15:59.001Z</time></trkpt><trkpt lat="45.644376624769066" lon="11.302488058629178"><ele>252.0</ele><time>2026-05-01T10:16:01.001Z</time></trkpt><trkpt lat="45.64429112144607" lon="11.302521337426835"><ele>252.0</ele><time>2026-05-01T10:16:02Z</time></trkpt><trkpt lat="45.644209075812405" lon="11.302555044986109"><ele>252.0</ele><time>2026-05-01T10:16:03Z</time></trkpt><trkpt lat="45.64412137850994" lon="11.302593602792951"><ele>252.0</ele><time>2026-05-01T10:16:04Z</time></trkpt><trkpt lat="45.64403573347269" lon="11.302634544786402"><ele>252.0</ele><time>2026-05-01T10:16:05Z</time></trkpt><trkpt lat="45.64395405445842" lon="11.302674970707347"><ele>252.0</ele><time>2026-05-01T10:16:06Z</time></trkpt><trkpt lat="45.643874387301736" lon="11.302715201894353"><ele>252.0</ele><time>2026-05-01T10:16:07Z</time></trkpt><trkpt lat="45.64380359738375" lon="11.302764199260718"><ele>252.0</ele><time>2026-05-01T10:16:08Z</time></trkpt><trkpt lat="45.64372985579055" lon="11.30279833205469"><ele>252.0</ele><time>2026-05-01T10:16:09Z</time></trkpt><trkpt lat="45.643655186590486" lon="11.302834699367162"><ele>252.0</ele><time>2026-05-01T10:16:10Z</time></trkpt><trkpt lat="45.64358434694835" lon="11.30286977538742"><ele>252.0</ele><time>2026-05-01T10:16:11Z</time></trkpt><trkpt lat="45.64351304460415" lon="11.302909783413797"><ele>252.0</ele><time>2026-05-01T10:16:12Z</time></trkpt><trkpt lat="45.6434383273522" lon="11.302953969154839"><ele>252.0</ele><time>2026-05-01T10:16:13Z</time></trkpt><trkpt lat="45.643360210751844" lon="11.30299636707179"><ele>252.0</ele><time>2026-05-01T10:16:14Z</time></trkpt><trkpt lat="45.64327595236117" lon="11.303037130888788"><ele>251.39999999999998</ele><time>2026-05-01T10:16:15Z</time></trkpt><trkpt lat="45.6431923071332" lon="11.303084634975756"><ele>250.79999999999998</ele><time>2026-05-01T10:16:16Z</time></trkpt><trkpt lat="45.64309855468868" lon="11.303132018100152"><ele>250.2</ele><time>2026-05-01T10:16:17Z</time></trkpt><trkpt lat="45.64300271329635" lon="11.303160913050956"><ele>249.6</ele><time>2026-05-01T10:16:18Z</time></trkpt><trkpt lat="45.642912294661485" lon="11.303207397809713"><ele>249.0</ele><time>2026-05-01T10:16:19Z</time></trkpt><trkpt lat="45.642824025735855" lon="11.303252789576701"><ele>249.0</ele><time>2026-05-01T10:16:20Z</time></trkpt><trkpt lat="45.642742963482576" lon="11.303294475344753"><ele>249.0</ele><time>2026-05-01T10:16:21Z</time></trkpt><trkpt lat="45.64265459922207" lon="11.303339916138357"><ele>249.0</ele><time>2026-05-01T10:16:22Z</time></trkpt><trkpt lat="45.64256695404957" lon="11.30338498714118"><ele>249.0</ele><time>2026-05-01T10:16:23Z</time></trkpt><trkpt lat="45.642485757364376" lon="11.303426742039235"><ele>249.0</ele><time>2026-05-01T10:16:24Z</time></trkpt><trkpt lat="45.642401303504045" lon="11.3034701718851"><ele>249.0</ele><time>2026-05-01T10:16:25Z</time></trkpt><trkpt lat="45.642321396649024" lon="11.303534714396221"><ele>249.0</ele><time>2026-05-01T10:16:26Z</time></trkpt><trkpt lat="45.64222851240364" lon="11.303577215822822"><ele>249.0</ele><time>2026-05-01T10:16:27Z</time></trkpt><trkpt lat="45.642134831474394" lon="11.303623821648033"><ele>249.0</ele><time>2026-05-01T10:16:28Z</time></trkpt><trkpt lat="45.64205075713917" lon="11.303674442612001"><ele>249.0</ele><time>2026-05-01T10:16:29Z</time></trkpt><trkpt lat="45.641975951549455" lon="11.303713185990059"><ele>249.0</ele><time>2026-05-01T10:16:30Z</time></trkpt><trkpt lat="45.64191002885324" lon="11.303747609252568"><ele>249.0</ele><time>2026-05-01T10:16:31Z</time></trkpt><trkpt lat="45.641810638160955" lon="11.303778255132176"><ele>248.5</ele><time>2026-05-01T10:16:33Z</time></trkpt><trkpt lat="45.64173306448431" lon="11.303791412544319"><ele>248.0</ele><time>2026-05-01T10:16:35Z</time></trkpt><trkpt lat="45.64163243333588" lon="11.303800553650834"><ele>247.5</ele><time>2026-05-01T10:16:37Z</time></trkpt><trkpt lat="45.641521301387776" lon="11.30380391623212"><ele>247.0</ele><time>2026-05-01T10:16:39Z</time></trkpt><trkpt lat="45.64147695479404" lon="11.303876553382358"><ele>246.5</ele><time>2026-05-01T10:16:40Z</time></trkpt><trkpt lat="45.641421436250184" lon="11.303942865584286"><ele>246.0</ele><time>2026-05-01T10:16:41Z</time></trkpt><trkpt lat="45.641342463165685" lon="11.30397928573351"><ele>246.0</ele><time>2026-05-01T10:16:42Z</time></trkpt><trkpt lat="45.64124776824236" lon="11.304029254007505"><ele>246.00000000000003</ele><time>2026-05-01T10:16:43Z</time></trkpt><trkpt lat="45.6411562619439" lon="11.304071920633254"><ele>246.00000000000003</ele><time>2026-05-01T10:16:44Z</time></trkpt><trkpt lat="45.641062171389954" lon="11.304107931485072"><ele>246.0</ele><time>2026-05-01T10:16:45Z</time></trkpt><trkpt lat="45.64095560540194" lon="11.304151792545628"><ele>246.0</ele><time>2026-05-01T10:16:46Z</time></trkpt><trkpt lat="45.64083821582675" lon="11.304202690625589"><ele>245.75</ele><time>2026-05-01T10:16:47Z</time></trkpt><trkpt lat="45.64072017418986" lon="11.304256256268355"><ele>245.5</ele><time>2026-05-01T10:16:48Z</time></trkpt><trkpt lat="45.64060073129231" lon="11.304310400566106"><ele>245.25</ele><time>2026-05-01T10:16:49Z</time></trkpt><trkpt lat="45.64047423036" lon="11.304366199583013"><ele>245.0</ele><time>2026-05-01T10:16:50Z</time></trkpt><trkpt lat="45.64034328932312" lon="11.304425770399776"><ele>244.5</ele><time>2026-05-01T10:16:51Z</time></trkpt><trkpt lat="45.64021073503336" lon="11.304489624995076"><ele>244.0</ele><time>2026-05-01T10:16:52Z</time></trkpt><trkpt lat="45.64007820683509" lon="11.304552558805105"><ele>243.5</ele><time>2026-05-01T10:16:53Z</time></trkpt><trkpt lat="45.63994432710399" lon="11.304612462195974"><ele>243.0</ele><time>2026-05-01T10:16:54Z</time></trkpt><trkpt lat="45.63981190613523" lon="11.304673446947188"><ele>243.0</ele><time>2026-05-01T10:16:55Z</time></trkpt><trkpt lat="45.639683608420704" lon="11.304733787253616"><ele>243.0</ele><time>2026-05-01T10:16:56Z</time></trkpt><trkpt lat="45.63955451030849" lon="11.304794930633465"><ele>243.0</ele><time>2026-05-01T10:16:57Z</time></trkpt><trkpt lat="45.639430285426634" lon="11.304854804449125"><ele>243.0</ele><time>2026-05-01T10:16:58Z</time></trkpt><trkpt lat="45.63931383158235" lon="11.304911051055115"><ele>242.75</ele><time>2026-05-01T10:16:59Z</time></trkpt><trkpt lat="45.639201656198814" lon="11.304965199725526"><ele>242.5</ele><time>2026-05-01T10:17:00Z</time></trkpt><trkpt lat="45.6390891775437" lon="11.305015621781878"><ele>242.25</ele><time>2026-05-01T10:17:01Z</time></trkpt><trkpt lat="45.63897219972311" lon="11.305070327428302"><ele>242.0</ele><time>2026-05-01T10:17:02Z</time></trkpt><trkpt lat="45.6388509594562" lon="11.305132035421419"><ele>242.0</ele><time>2026-05-01T10:17:03Z</time></trkpt><trkpt lat="45.638725214288584" lon="11.305194499119702"><ele>242.0</ele><time>2026-05-01T10:17:04Z</time></trkpt><trkpt lat="45.638595841895594" lon="11.305253169823915"><ele>242.0</ele><time>2026-05-01T10:17:05Z</time></trkpt><trkpt lat="45.638460437369616" lon="11.305316424687675"><ele>242.0</ele><time>2026-05-01T10:17:06Z</time></trkpt><trkpt lat="45.63832349884109" lon="11.305379127401906"><ele>241.75</ele><time>2026-05-01T10:17:07Z</time></trkpt><trkpt lat="45.63819112865916" lon="11.305439674783983"><ele>241.5</ele><time>2026-05-01T10:17:08Z</time></trkpt><trkpt lat="45.63806615182736" lon="11.30549820052893"><ele>241.25</ele><time>2026-05-01T10:17:09Z</time></trkpt><trkpt lat="45.63794189438505" lon="11.305560112372056"><ele>241.0</ele><time>2026-05-01T10:17:10Z</time></trkpt><trkpt lat="45.63781633270578" lon="11.305617146095456"><ele>240.5</ele><time>2026-05-01T10:17:11Z</time></trkpt><trkpt lat="45.63769369186291" lon="11.305673093731148"><ele>240.0</ele><time>2026-05-01T10:17:12Z</time></trkpt><trkpt lat="45.637574335239385" lon="11.305728011331148"><ele>239.5</ele><time>2026-05-01T10:17:13Z</time></trkpt><trkpt lat="45.63745867051965" lon="11.305783082127553"><ele>239.0</ele><time>2026-05-01T10:17:14Z</time></trkpt><trkpt lat="45.63734624164234" lon="11.305837499720393"><ele>239.0</ele><time>2026-05-01T10:17:15Z</time></trkpt><trkpt lat="45.63723593810479" lon="11.305892558426102"><ele>238.99999999999997</ele><time>2026-05-01T10:17:16Z</time></trkpt><trkpt lat="45.637130804254035" lon="11.305944590711118"><ele>238.99999999999997</ele><time>2026-05-01T10:17:17Z</time></trkpt><trkpt lat="45.63702828139127" lon="11.305993602395173"><ele>239.0</ele><time>2026-05-01T10:17:18Z</time></trkpt><trkpt lat="45.63692700384759" lon="11.306042228464136"><ele>239.0</ele><time>2026-05-01T10:17:19Z</time></trkpt><trkpt lat="45.63682944914974" lon="11.30609063525091"><ele>239.0</ele><time>2026-05-01T10:17:20Z</time></trkpt><trkpt lat="45.636731582204" lon="11.306139717960582"><ele>238.99999999999997</ele><time>2026-05-01T10:17:21Z</time></trkpt><trkpt lat="45.636630606162946" lon="11.306163117425413"><ele>238.99999999999997</ele><time>2026-05-01T10:17:22Z</time></trkpt><trkpt lat="45.63654447965545" lon="11.306224999107624"><ele>239.0</ele><time>2026-05-01T10:17:23Z</time></trkpt><trkpt lat="45.63646153044874" lon="11.306254750626142"><ele>239.0</ele><time>2026-05-01T10:17:24Z</time></trkpt><trkpt lat="45.63638315910205" lon="11.306295144546993"><ele>239.00000000000003</ele><time>2026-05-01T10:17:25Z</time></trkpt><trkpt lat="45.63630172667819" lon="11.306330802107828"><ele>239.0</ele><time>2026-05-01T10:17:26Z</time></trkpt><trkpt lat="45.63622322056632" lon="11.30636812958712"><ele>239.0</ele><time>2026-05-01T10:17:27Z</time></trkpt><trkpt lat="45.6361397647954" lon="11.30640582753532"><ele>239.0</ele><time>2026-05-01T10:17:28Z</time></trkpt><trkpt lat="45.63605171611417" lon="11.306447663015327"><ele>239.00000000000003</ele><time>2026-05-01T10:17:29Z</time></trkpt><trkpt lat="45.63595963974618" lon="11.306492486997781"><ele>239.0</ele><time>2026-05-01T10:17:30Z</time></trkpt><trkpt lat="45.63587367179995" lon="11.306529286211136"><ele>238.28571428571433</ele><time>2026-05-01T10:17:31Z</time></trkpt><trkpt lat="45.635811289596084" lon="11.306555587247306"><ele>237.57142857142858</ele><time>2026-05-01T10:17:32Z</time></trkpt><trkpt lat="45.6357506090575" lon="11.306579722546202"><ele>236.8571428571429</ele><time>2026-05-01T10:17:33Z</time></trkpt><trkpt lat="45.63568772160108" lon="11.30660400890178"><ele>236.14285714285717</ele><time>2026-05-01T10:17:34Z</time></trkpt><trkpt lat="45.635615234009634" lon="11.306594620951838"><ele>235.42857142857144</ele><time>2026-05-01T10:17:35Z</time></trkpt><trkpt lat="45.635537033854064" lon="11.306610826759439"><ele>234.71428571428572</ele><time>2026-05-01T10:17:36Z</time></trkpt><trkpt lat="45.635446346686855" lon="11.30664927220245"><ele>234.0</ele><time>2026-05-01T10:17:37Z</time></trkpt><trkpt lat="45.63534457921113" lon="11.306657572259104"><ele>233.75</ele><time>2026-05-01T10:17:38.001Z</time></trkpt><trkpt lat="45.63523226093419" lon="11.306662835443847"><ele>233.5</ele><time>2026-05-01T10:17:39.001Z</time></trkpt><trkpt lat="45.63510879031976" lon="11.306674271614405"><ele>233.25</ele><time>2026-05-01T10:17:40.001Z</time></trkpt><trkpt lat="45.634987201222266" lon="11.306681594315364"><ele>233.0</ele><time>2026-05-01T10:17:41.001Z</time></trkpt><trkpt lat="45.63485722569135" lon="11.306689778173832"><ele>233.0</ele><time>2026-05-01T10:17:42.001Z</time></trkpt><trkpt lat="45.63472726402856" lon="11.306696868886736"><ele>233.0</ele><time>2026-05-01T10:17:43.001Z</time></trkpt><trkpt lat="45.63459808126691" lon="11.30670483453217"><ele>233.0</ele><time>2026-05-01T10:17:44.001Z</time></trkpt><trkpt lat="45.63447383684231" lon="11.306714622145202"><ele>233.0</ele><time>2026-05-01T10:17:45.001Z</time></trkpt><trkpt lat="45.63435044770556" lon="11.306726085781918"><ele>233.25</ele><time>2026-05-01T10:17:46.001Z</time></trkpt><trkpt lat="45.63422545773826" lon="11.30673648686344"><ele>233.5</ele><time>2026-05-01T10:17:47.001Z</time></trkpt><trkpt lat="45.63410097343882" lon="11.306736865787531"><ele>233.75</ele><time>2026-05-01T10:17:48.001Z</time></trkpt><trkpt lat="45.63397513771861" lon="11.306741894068336"><ele>234.0</ele><time>2026-05-01T10:17:49Z</time></trkpt><trkpt lat="45.63384714166173" lon="11.306756023725573"><ele>234.0</ele><time>2026-05-01T10:17:50Z</time></trkpt><trkpt lat="45.6337194301592" lon="11.30677302326141"><ele>234.0</ele><time>2026-05-01T10:17:51Z</time></trkpt><trkpt lat="45.63358654175707" lon="11.306801554879096"><ele>234.0</ele><time>2026-05-01T10:17:52Z</time></trkpt><trkpt lat="45.633456099238494" lon="11.30683985233707"><ele>234.0</ele><time>2026-05-01T10:17:53Z</time></trkpt><trkpt lat="45.633330343392714" lon="11.306887171208947"><ele>233.5</ele><time>2026-05-01T10:17:54Z</time></trkpt><trkpt lat="45.63321181133201" lon="11.306941692224225"><ele>233.0</ele><time>2026-05-01T10:17:55Z</time></trkpt><trkpt lat="45.63310130923747" lon="11.307005005464625"><ele>232.5</ele><time>2026-05-01T10:17:56Z</time></trkpt><trkpt lat="45.63299540256524" lon="11.3070736506879"><ele>232.0</ele><time>2026-05-01T10:17:57Z</time></trkpt><trkpt lat="45.632894625447975" lon="11.307129260007025"><ele>231.8</ele><time>2026-05-01T10:17:58Z</time></trkpt><trkpt lat="45.63278864252286" lon="11.307160134910347"><ele>231.6</ele><time>2026-05-01T10:17:59Z</time></trkpt><trkpt lat="45.632684472303744" lon="11.307150114160976"><ele>231.40000000000003</ele><time>2026-05-01T10:18:00Z</time></trkpt><trkpt lat="45.632583032603655" lon="11.30711193929982"><ele>231.20000000000002</ele><time>2026-05-01T10:18:01Z</time></trkpt><trkpt lat="45.63249102362139" lon="11.30702451016769"><ele>231.0</ele><time>2026-05-01T10:18:02Z</time></trkpt><trkpt lat="45.632419478497425" lon="11.3069049676797"><ele>231.0</ele><time>2026-05-01T10:18:03Z</time></trkpt><trkpt lat="45.63236779684471" lon="11.306762696279925"><ele>231.0</ele><time>2026-05-01T10:18:04Z</time></trkpt><trkpt lat="45.63230811949607" lon="11.306623279367743"><ele>231.0</ele><time>2026-05-01T10:18:05Z</time></trkpt><trkpt lat="45.63223375726963" lon="11.30649443438434"><ele>231.0</ele><time>2026-05-01T10:18:06Z</time></trkpt><trkpt lat="45.63213906626487" lon="11.306398827705769"><ele>231.0</ele><time>2026-05-01T10:18:07Z</time></trkpt><trkpt lat="45.63203579714258" lon="11.306351765560427"><ele>231.00000000000003</ele><time>2026-05-01T10:18:08Z</time></trkpt><trkpt lat="45.631930459255436" lon="11.306352242543982"><ele>231.00000000000003</ele><time>2026-05-01T10:18:09Z</time></trkpt><trkpt lat="45.63182919335027" lon="11.306395334753311"><ele>231.0</ele><time>2026-05-01T10:18:10Z</time></trkpt><trkpt lat="45.63173774934965" lon="11.306477889557817"><ele>231.0</ele><time>2026-05-01T10:18:11Z</time></trkpt><trkpt lat="45.63166526035721" lon="11.306597046819416"><ele>230.4</ele><time>2026-05-01T10:18:12Z</time></trkpt><trkpt lat="45.6316181046896" lon="11.306734011730477"><ele>229.8</ele><time>2026-05-01T10:18:13Z</time></trkpt><trkpt lat="45.631602979498425" lon="11.306889637887746"><ele>229.20000000000002</ele><time>2026-05-01T10:18:14Z</time></trkpt><trkpt lat="45.63160982303685" lon="11.307052625142806"><ele>228.60000000000002</ele><time>2026-05-01T10:18:15Z</time></trkpt><trkpt lat="45.631616894323344" lon="11.307221210560625"><ele>228.0</ele><time>2026-05-01T10:18:16Z</time></trkpt><trkpt lat="45.63161256851314" lon="11.307391724213677"><ele>227.25</ele><time>2026-05-01T10:18:17Z</time></trkpt><trkpt lat="45.631597533327415" lon="11.307561908309903"><ele>226.5</ele><time>2026-05-01T10:18:18Z</time></trkpt><trkpt lat="45.63157951578366" lon="11.307734148207752"><ele>225.75</ele><time>2026-05-01T10:18:19Z</time></trkpt><trkpt lat="45.63158102512766" lon="11.307904139971184"><ele>225.0</ele><time>2026-05-01T10:18:20Z</time></trkpt><trkpt lat="45.631599856039884" lon="11.308076838420526"><ele>225.0</ele><time>2026-05-01T10:18:21Z</time></trkpt><trkpt lat="45.631612200212096" lon="11.30825285761141"><ele>225.0</ele><time>2026-05-01T10:18:22Z</time></trkpt><trkpt lat="45.63161645822297" lon="11.308431055703846"><ele>225.0</ele><time>2026-05-01T10:18:23Z</time></trkpt><trkpt lat="45.63160814805761" lon="11.308603602277039"><ele>225.0</ele><time>2026-05-01T10:18:24Z</time></trkpt><trkpt lat="45.63157441505416" lon="11.308767182181793"><ele>226.0</ele><time>2026-05-01T10:18:25Z</time></trkpt><trkpt lat="45.63151081376976" lon="11.308910767844916"><ele>227.0</ele><time>2026-05-01T10:18:26Z</time></trkpt><trkpt lat="45.631433734859996" lon="11.30903754016734"><ele>228.0</ele><time>2026-05-01T10:18:27Z</time></trkpt><trkpt lat="45.63133821769651" lon="11.309140232092389"><ele>229.0</ele><time>2026-05-01T10:18:28Z</time></trkpt><trkpt lat="45.63123798605891" lon="11.309234654903126"><ele>229.0</ele><time>2026-05-01T10:18:29Z</time></trkpt><trkpt lat="45.63113730126264" lon="11.309333856659428"><ele>229.0</ele><time>2026-05-01T10:18:30Z</time></trkpt><trkpt lat="45.631033702859234" lon="11.309437151547039"><ele>229.0</ele><time>2026-05-01T10:18:31Z</time></trkpt><trkpt lat="45.63092680815769" lon="11.309538691527921"><ele>229.0</ele><time>2026-05-01T10:18:32Z</time></trkpt><trkpt lat="45.630810711638304" lon="11.309629903748512"><ele>229.0</ele><time>2026-05-01T10:18:33Z</time></trkpt><trkpt lat="45.63068667425864" lon="11.3097073268195"><ele>229.0</ele><time>2026-05-01T10:18:34Z</time></trkpt><trkpt lat="45.63056058132262" lon="11.309794010245238"><ele>229.0</ele><time>2026-05-01T10:18:35Z</time></trkpt><trkpt lat="45.63043246725497" lon="11.309884921354987"><ele>229.0</ele><time>2026-05-01T10:18:36Z</time></trkpt><trkpt lat="45.63029982169977" lon="11.309971240563618"><ele>229.0</ele><time>2026-05-01T10:18:37Z</time></trkpt><trkpt lat="45.63016332727583" lon="11.31005820328074"><ele>229.0</ele><time>2026-05-01T10:18:38Z</time></trkpt><trkpt lat="45.63002482451615" lon="11.310149839698989"><ele>229.0</ele><time>2026-05-01T10:18:39Z</time></trkpt><trkpt lat="45.629881656573595" lon="11.310241456101886"><ele>229.0</ele><time>2026-05-01T10:18:40Z</time></trkpt><trkpt lat="45.6297360470199" lon="11.310330575120217"><ele>229.0</ele><time>2026-05-01T10:18:41Z</time></trkpt><trkpt lat="45.629592147934744" lon="11.31041805341306"><ele>229.0</ele><time>2026-05-01T10:18:42Z</time></trkpt><trkpt lat="45.629451263600664" lon="11.310506555382139"><ele>228.5</ele><time>2026-05-01T10:18:43Z</time></trkpt><trkpt lat="45.62931436347056" lon="11.310593087194787"><ele>228.0</ele><time>2026-05-01T10:18:44Z</time></trkpt><trkpt lat="45.62918210601106" lon="11.310676705326108"><ele>227.5</ele><time>2026-05-01T10:18:45Z</time></trkpt><trkpt lat="45.62905580785872" lon="11.310757525916681"><ele>227.0</ele><time>2026-05-01T10:18:46Z</time></trkpt><trkpt lat="45.628927302060156" lon="11.31083971337542"><ele>227.0</ele><time>2026-05-01T10:18:47Z</time></trkpt><trkpt lat="45.62879556961948" lon="11.310921429392902"><ele>227.0</ele><time>2026-05-01T10:18:48Z</time></trkpt><trkpt lat="45.62865462715415" lon="11.310987415532804"><ele>227.0</ele><time>2026-05-01T10:18:49Z</time></trkpt><trkpt lat="45.62852600610619" lon="11.31109203715604"><ele>227.0</ele><time>2026-05-01T10:18:50Z</time></trkpt><trkpt lat="45.62838609817966" lon="11.311175249955015"><ele>226.5</ele><time>2026-05-01T10:18:51Z</time></trkpt><trkpt lat="45.62825245808994" lon="11.311258280824886"><ele>226.0</ele><time>2026-05-01T10:18:52Z</time></trkpt><trkpt lat="45.628126917415116" lon="11.311343244596038"><ele>225.5</ele><time>2026-05-01T10:18:53Z</time></trkpt><trkpt lat="45.62799309236825" lon="11.311402677522903"><ele>225.0</ele><time>2026-05-01T10:18:54Z</time></trkpt><trkpt lat="45.627862201451435" lon="11.31148776526649"><ele>224.5</ele><time>2026-05-01T10:18:55Z</time></trkpt><trkpt lat="45.62773668332084" lon="11.311593628946069"><ele>224.0</ele><time>2026-05-01T10:18:56Z</time></trkpt><trkpt lat="45.62760337562035" lon="11.311682166502534"><ele>223.5</ele><time>2026-05-01T10:18:57Z</time></trkpt><trkpt lat="45.627468569226565" lon="11.311777350428827"><ele>223.0</ele><time>2026-05-01T10:18:58Z</time></trkpt><trkpt lat="45.627333610262674" lon="11.311880917593925"><ele>223.0</ele><time>2026-05-01T10:18:59Z</time></trkpt><trkpt lat="45.62719717346751" lon="11.31198964048022"><ele>223.0</ele><time>2026-05-01T10:19:00Z</time></trkpt><trkpt lat="45.62706026332552" lon="11.312104821036742"><ele>223.0</ele><time>2026-05-01T10:19:01Z</time></trkpt><trkpt lat="45.62692568818865" lon="11.312222134791634"><ele>223.0</ele><time>2026-05-01T10:19:02Z</time></trkpt><trkpt lat="45.626795099566166" lon="11.312342078501194"><ele>223.0</ele><time>2026-05-01T10:19:03Z</time></trkpt><trkpt lat="45.62666607311387" lon="11.312462017576717"><ele>223.0</ele><time>2026-05-01T10:19:04Z</time></trkpt><trkpt lat="45.62653743283301" lon="11.312583531902199"><ele>223.0</ele><time>2026-05-01T10:19:05Z</time></trkpt><trkpt lat="45.62640987893298" lon="11.312712907386928"><ele>223.0</ele><time>2026-05-01T10:19:06Z</time></trkpt><trkpt lat="45.62628078819585" lon="11.312848010932344"><ele>223.0</ele><time>2026-05-01T10:19:07Z</time></trkpt><trkpt lat="45.62614848893815" lon="11.312988130649778"><ele>221.66666666666666</ele><time>2026-05-01T10:19:08Z</time></trkpt><trkpt lat="45.62601427311565" lon="11.313132241002858"><ele>220.33333333333331</ele><time>2026-05-01T10:19:09Z</time></trkpt><trkpt lat="45.6258768450322" lon="11.313278975632139"><ele>219.0</ele><time>2026-05-01T10:19:10Z</time></trkpt><trkpt lat="45.6257361763225" lon="11.313423040750756"><ele>219.0</ele><time>2026-05-01T10:19:11Z</time></trkpt><trkpt lat="45.625594117915064" lon="11.313571861097271"><ele>219.0</ele><time>2026-05-01T10:19:12Z</time></trkpt><trkpt lat="45.625452260859205" lon="11.31372592003725"><ele>219.0</ele><time>2026-05-01T10:19:13Z</time></trkpt><trkpt lat="45.62530769242538" lon="11.31387910333662"><ele>218.0</ele><time>2026-05-01T10:19:14Z</time></trkpt><trkpt lat="45.62516383961723" lon="11.314032210701553"><ele>217.0</ele><time>2026-05-01T10:19:15Z</time></trkpt><trkpt lat="45.62501994991711" lon="11.31418942465989"><ele>216.0</ele><time>2026-05-01T10:19:16Z</time></trkpt><trkpt lat="45.62487704518263" lon="11.314348365119898"><ele>216.0</ele><time>2026-05-01T10:19:17Z</time></trkpt><trkpt lat="45.624737940450736" lon="11.314510575207844"><ele>216.0</ele><time>2026-05-01T10:19:18Z</time></trkpt><trkpt lat="45.6246028994932" lon="11.314677831532153"><ele>216.0</ele><time>2026-05-01T10:19:19Z</time></trkpt><trkpt lat="45.62447207228188" lon="11.314846422856334"><ele>217.66666666666669</ele><time>2026-05-01T10:19:20Z</time></trkpt><trkpt lat="45.62434399739311" lon="11.315016503072806"><ele>219.33333333333334</ele><time>2026-05-01T10:19:21Z</time></trkpt><trkpt lat="45.62421625043569" lon="11.315189573328645"><ele>221.0</ele><time>2026-05-01T10:19:22Z</time></trkpt><trkpt lat="45.62408903823508" lon="11.315361986231354"><ele>221.0</ele><time>2026-05-01T10:19:23Z</time></trkpt><trkpt lat="45.623961530411435" lon="11.315532949268615"><ele>221.0</ele><time>2026-05-01T10:19:24Z</time></trkpt><trkpt lat="45.62383296198133" lon="11.31570681196455"><ele>221.0</ele><time>2026-05-01T10:19:25Z</time></trkpt><trkpt lat="45.623704983447695" lon="11.315878433310537"><ele>219.66666666666669</ele><time>2026-05-01T10:19:26Z</time></trkpt><trkpt lat="45.623576783512014" lon="11.316048497299686"><ele>218.33333333333331</ele><time>2026-05-01T10:19:27Z</time></trkpt><trkpt lat="45.623451151458724" lon="11.316214936989196"><ele>217.0</ele><time>2026-05-01T10:19:28Z</time></trkpt><trkpt lat="45.623328053088485" lon="11.31637837251258"><ele>216.33333333333331</ele><time>2026-05-01T10:19:29Z</time></trkpt><trkpt lat="45.623209486114575" lon="11.316538068574"><ele>215.66666666666669</ele><time>2026-05-01T10:19:30Z</time></trkpt><trkpt lat="45.62309522333801" lon="11.316690550322432"><ele>215.0</ele><time>2026-05-01T10:19:31Z</time></trkpt><trkpt lat="45.62298600151268" lon="11.316839927500183"><ele>215.0</ele><time>2026-05-01T10:19:32Z</time></trkpt><trkpt lat="45.622882521068114" lon="11.316977532932022"><ele>215.0</ele><time>2026-05-01T10:19:33Z</time></trkpt><trkpt lat="45.62278284902597" lon="11.317093146324062"><ele>215.0</ele><time>2026-05-01T10:19:34Z</time></trkpt><trkpt lat="45.6226862817208" lon="11.317188841250196"><ele>215.0</ele><time>2026-05-01T10:19:35Z</time></trkpt><trkpt lat="45.62259431014388" lon="11.317256713610004"><ele>214.8</ele><time>2026-05-01T10:19:36Z</time></trkpt><trkpt lat="45.62250793254279" lon="11.317300104693764"><ele>214.6</ele><time>2026-05-01T10:19:37Z</time></trkpt><trkpt lat="45.62242953523319" lon="11.317357347439504"><ele>214.39999999999998</ele><time>2026-05-01T10:19:38Z</time></trkpt><trkpt lat="45.622371763836426" lon="11.317451650395007"><ele>214.2</ele><time>2026-05-01T10:19:39Z</time></trkpt><trkpt lat="45.62233464277299" lon="11.317570856433777"><ele>214.0</ele><time>2026-05-01T10:19:40Z</time></trkpt><trkpt lat="45.62229428774974" lon="11.317693797511055"><ele>213.99999999999997</ele><time>2026-05-01T10:19:41Z</time></trkpt><trkpt lat="45.62223717643619" lon="11.31780960041932"><ele>214.0</ele><time>2026-05-01T10:19:42Z</time></trkpt><trkpt lat="45.622175866888355" lon="11.31791370641645"><ele>214.0</ele><time>2026-05-01T10:19:43Z</time></trkpt><trkpt lat="45.62211049327308" lon="11.318015572119412"><ele>214.0</ele><time>2026-05-01T10:19:44Z</time></trkpt><trkpt lat="45.62206242741574" lon="11.31809449853006"><ele>213.99999999999997</ele><time>2026-05-01T10:19:45Z</time></trkpt><trkpt lat="45.62200156274005" lon="11.318146591575823"><ele>214.0</ele><time>2026-05-01T10:19:46Z</time></trkpt><trkpt lat="45.62196224396943" lon="11.318237076705516"><ele>213.83333333333331</ele><time>2026-05-01T10:19:47Z</time></trkpt><trkpt lat="45.62191003980304" lon="11.318305184226928"><ele>213.66666666666666</ele><time>2026-05-01T10:19:48Z</time></trkpt><trkpt lat="45.62185925516803" lon="11.318369641426711"><ele>213.5</ele><time>2026-05-01T10:19:49Z</time></trkpt><trkpt lat="45.62176487331424" lon="11.31846327226772"><ele>213.33333333333331</ele><time>2026-05-01T10:19:51Z</time></trkpt><trkpt lat="45.621732577375774" lon="11.318556964206767"><ele>213.16666666666666</ele><time>2026-05-01T10:19:52Z</time></trkpt><trkpt lat="45.621679884347174" lon="11.318624835408123"><ele>213.0</ele><time>2026-05-01T10:19:53Z</time></trkpt><trkpt lat="45.621628901988466" lon="11.31869021384797"><ele>212.99999999999997</ele><time>2026-05-01T10:19:54Z</time></trkpt><trkpt lat="45.62157718038027" lon="11.318752605717153"><ele>213.0</ele><time>2026-05-01T10:19:55Z</time></trkpt><trkpt lat="45.621522505841476" lon="11.318821265430547"><ele>213.0</ele><time>2026-05-01T10:19:56Z</time></trkpt><trkpt lat="45.62146474148512" lon="11.318893220238825"><ele>213.0</ele><time>2026-05-01T10:19:57Z</time></trkpt><trkpt lat="45.621412391396895" lon="11.318966897364515"><ele>213.0</ele><time>2026-05-01T10:19:58Z</time></trkpt><trkpt lat="45.621362752072606" lon="11.319034988299226"><ele>212.99999999999997</ele><time>2026-05-01T10:19:59Z</time></trkpt><trkpt lat="45.62131376008904" lon="11.319095955945091"><ele>213.0</ele><time>2026-05-01T10:20:00Z</time></trkpt><trkpt lat="45.62124682648622" lon="11.31913967962761"><ele>213.0</ele><time>2026-05-01T10:20:01Z</time></trkpt><trkpt lat="45.621196992713664" lon="11.319204117788225"><ele>213.0</ele><time>2026-05-01T10:20:02Z</time></trkpt><trkpt lat="45.62114209970649" lon="11.319275513822813"><ele>213.0</ele><time>2026-05-01T10:20:03Z</time></trkpt><trkpt lat="45.62107809572303" lon="11.319360424921541"><ele>213.0</ele><time>2026-05-01T10:20:04Z</time></trkpt><trkpt lat="45.62101009793806" lon="11.319462284899256"><ele>213.0</ele><time>2026-05-01T10:20:05Z</time></trkpt><trkpt lat="45.620928795355454" lon="11.319578668201855"><ele>213.0</ele><time>2026-05-01T10:20:06Z</time></trkpt><trkpt lat="45.62084037095774" lon="11.319692382631997"><ele>212.75</ele><time>2026-05-01T10:20:07Z</time></trkpt><trkpt lat="45.620751845887895" lon="11.31980839980877"><ele>212.5</ele><time>2026-05-01T10:20:08Z</time></trkpt><trkpt lat="45.62066153935156" lon="11.319938993431755"><ele>212.25</ele><time>2026-05-01T10:20:09Z</time></trkpt><trkpt lat="45.620565141704624" lon="11.320086413347502"><ele>212.0</ele><time>2026-05-01T10:20:10Z</time></trkpt><trkpt lat="45.620474192629246" lon="11.320237240378738"><ele>212.0</ele><time>2026-05-01T10:20:11Z</time></trkpt><trkpt lat="45.62038530803373" lon="11.320397367053951"><ele>212.0</ele><time>2026-05-01T10:20:12Z</time></trkpt><trkpt lat="45.62029721071087" lon="11.320571420160869"><ele>212.0</ele><time>2026-05-01T10:20:13Z</time></trkpt><trkpt lat="45.62020764842181" lon="11.320752960299089"><ele>212.0</ele><time>2026-05-01T10:20:14Z</time></trkpt><trkpt lat="45.62011947822205" lon="11.320936543233037"><ele>211.66666666666669</ele><time>2026-05-01T10:20:15Z</time></trkpt><trkpt lat="45.62002724687436" lon="11.321121921267302"><ele>211.33333333333331</ele><time>2026-05-01T10:20:16Z</time></trkpt><trkpt lat="45.61993106521011" lon="11.321304101316937"><ele>211.0</ele><time>2026-05-01T10:20:17Z</time></trkpt><trkpt lat="45.61983089910668" lon="11.321486781879083"><ele>211.0</ele><time>2026-05-01T10:20:18Z</time></trkpt><trkpt lat="45.61972912351145" lon="11.321673583640706"><ele>211.0</ele><time>2026-05-01T10:20:19Z</time></trkpt><trkpt lat="45.61963004865244" lon="11.321863288338971"><ele>211.0</ele><time>2026-05-01T10:20:20Z</time></trkpt><trkpt lat="45.61953676073911" lon="11.322060996793539"><ele>210.33333333333331</ele><time>2026-05-01T10:20:21Z</time></trkpt><trkpt lat="45.6194487674249" lon="11.322264502874235"><ele>209.66666666666669</ele><time>2026-05-01T10:20:22Z</time></trkpt><trkpt lat="45.619363121498" lon="11.322470985594103"><ele>209.0</ele><time>2026-05-01T10:20:23Z</time></trkpt><trkpt lat="45.61927178835339" lon="11.322677554996082"><ele>209.0</ele><time>2026-05-01T10:20:24Z</time></trkpt><trkpt lat="45.61917478030514" lon="11.322878628690402"><ele>209.0</ele><time>2026-05-01T10:20:25Z</time></trkpt><trkpt lat="45.61907365906566" lon="11.32307999942179"><ele>209.0</ele><time>2026-05-01T10:20:26Z</time></trkpt><trkpt lat="45.61897101449512" lon="11.323285926986983"><ele>208.66666666666669</ele><time>2026-05-01T10:20:27Z</time></trkpt><trkpt lat="45.61886544392507" lon="11.323498740982773"><ele>208.33333333333331</ele><time>2026-05-01T10:20:28Z</time></trkpt><trkpt lat="45.618759048396655" lon="11.32371622825124"><ele>208.0</ele><time>2026-05-01T10:20:29Z</time></trkpt><trkpt lat="45.61864875559221" lon="11.32393989558157"><ele>208.0</ele><time>2026-05-01T10:20:30Z</time></trkpt><trkpt lat="45.61853548408524" lon="11.324166098767845"><ele>208.0</ele><time>2026-05-01T10:20:31Z</time></trkpt><trkpt lat="45.61841930809396" lon="11.324393387605294"><ele>208.0</ele><time>2026-05-01T10:20:32Z</time></trkpt><trkpt lat="45.61830222395603" lon="11.324620772329158"><ele>208.33333333333331</ele><time>2026-05-01T10:20:33Z</time></trkpt><trkpt lat="45.61818617615301" lon="11.324848712807285"><ele>208.66666666666669</ele><time>2026-05-01T10:20:34Z</time></trkpt><trkpt lat="45.61807218286379" lon="11.325077238921024"><ele>209.0</ele><time>2026-05-01T10:20:35Z</time></trkpt><trkpt lat="45.61795975673264" lon="11.325305622085208"><ele>209.0</ele><time>2026-05-01T10:20:36Z</time></trkpt><trkpt lat="45.61784675178081" lon="11.325533333316404"><ele>209.0</ele><time>2026-05-01T10:20:37Z</time></trkpt><trkpt lat="45.61773485960149" lon="11.325761627265182"><ele>209.0</ele><time>2026-05-01T10:20:38Z</time></trkpt><trkpt lat="45.61762480162059" lon="11.32599018030395"><ele>208.66666666666669</ele><time>2026-05-01T10:20:39Z</time></trkpt><trkpt lat="45.61751598784334" lon="11.32621877530481"><ele>208.33333333333331</ele><time>2026-05-01T10:20:40Z</time></trkpt><trkpt lat="45.61740709761417" lon="11.326444541208959"><ele>208.0</ele><time>2026-05-01T10:20:41Z</time></trkpt><trkpt lat="45.617296907456634" lon="11.326667954580966"><ele>208.0</ele><time>2026-05-01T10:20:42Z</time></trkpt><trkpt lat="45.617186488688624" lon="11.32688825787218"><ele>208.0</ele><time>2026-05-01T10:20:43Z</time></trkpt><trkpt lat="45.61707869218163" lon="11.327108862281506"><ele>208.0</ele><time>2026-05-01T10:20:44Z</time></trkpt><trkpt lat="45.61697038281462" lon="11.32732989938716"><ele>206.33333333333331</ele><time>2026-05-01T10:20:45Z</time></trkpt><trkpt lat="45.616862213351304" lon="11.327549274892196"><ele>204.66666666666669</ele><time>2026-05-01T10:20:46Z</time></trkpt><trkpt lat="45.61675419382384" lon="11.327761359127534"><ele>203.0</ele><time>2026-05-01T10:20:47Z</time></trkpt><trkpt lat="45.61664357078155" lon="11.327964632977821"><ele>203.66666666666669</ele><time>2026-05-01T10:20:48Z</time></trkpt><trkpt lat="45.61653942547518" lon="11.328162614487944"><ele>204.33333333333331</ele><time>2026-05-01T10:20:49Z</time></trkpt><trkpt lat="45.61644258031074" lon="11.328355335491002"><ele>205.0</ele><time>2026-05-01T10:20:50Z</time></trkpt><trkpt lat="45.616350554835265" lon="11.328546542448608"><ele>205.0</ele><time>2026-05-01T10:20:51Z</time></trkpt><trkpt lat="45.616260366712396" lon="11.328729274083859"><ele>205.0</ele><time>2026-05-01T10:20:52Z</time></trkpt><trkpt lat="45.61616777714528" lon="11.328896874890539"><ele>205.0</ele><time>2026-05-01T10:20:53Z</time></trkpt><trkpt lat="45.61607184141144" lon="11.32905072671372"><ele>204.0</ele><time>2026-05-01T10:20:54Z</time></trkpt><trkpt lat="45.615968560691634" lon="11.329184911547692"><ele>203.0</ele><time>2026-05-01T10:20:55Z</time></trkpt><trkpt lat="45.61585709602912" lon="11.329295648867173"><ele>202.0</ele><time>2026-05-01T10:20:56Z</time></trkpt><trkpt lat="45.61573943275287" lon="11.329373051332345"><ele>201.0</ele><time>2026-05-01T10:20:57Z</time></trkpt><trkpt lat="45.61561853080053" lon="11.329417824689049"><ele>201.0</ele><time>2026-05-01T10:20:58Z</time></trkpt><trkpt lat="45.61549576336172" lon="11.329439196199347"><ele>201.0</ele><time>2026-05-01T10:20:59Z</time></trkpt><trkpt lat="45.615388978166756" lon="11.329524290463393"><ele>201.0</ele><time>2026-05-01T10:21:00Z</time></trkpt><trkpt lat="45.61531223678841" lon="11.32966854722339"><ele>201.0</ele><time>2026-05-01T10:21:01Z</time></trkpt><trkpt lat="45.61521466882479" lon="11.329792353180641"><ele>200.25</ele><time>2026-05-01T10:21:02Z</time></trkpt><trkpt lat="45.61509808157734" lon="11.329882658708165"><ele>199.5</ele><time>2026-05-01T10:21:03Z</time></trkpt><trkpt lat="45.61496225314598" lon="11.329952023418697"><ele>198.75</ele><time>2026-05-01T10:21:04Z</time></trkpt><trkpt lat="45.61481985516384" lon="11.330023341808827"><ele>198.0</ele><time>2026-05-01T10:21:05Z</time></trkpt><trkpt lat="45.61468486840408" lon="11.330093050743713"><ele>198.0</ele><time>2026-05-01T10:21:06Z</time></trkpt><trkpt lat="45.614553560341214" lon="11.330143519698048"><ele>198.0</ele><time>2026-05-01T10:21:07Z</time></trkpt><trkpt lat="45.61442238592161" lon="11.33014655657814"><ele>198.0</ele><time>2026-05-01T10:21:08Z</time></trkpt><trkpt lat="45.61429499038976" lon="11.330103449903493"><ele>198.0</ele><time>2026-05-01T10:21:09Z</time></trkpt><trkpt lat="45.614171201870114" lon="11.33003828941299"><ele>197.75</ele><time>2026-05-01T10:21:10Z</time></trkpt><trkpt lat="45.61405043111969" lon="11.329992573425649"><ele>197.5</ele><time>2026-05-01T10:21:11Z</time></trkpt><trkpt lat="45.61393139267655" lon="11.329966018328044"><ele>197.25</ele><time>2026-05-01T10:21:12Z</time></trkpt><trkpt lat="45.61382689160118" lon="11.330054800356285"><ele>197.0</ele><time>2026-05-01T10:21:13Z</time></trkpt><trkpt lat="45.613747202169606" lon="11.330153740232877"><ele>197.0</ele><time>2026-05-01T10:21:14Z</time></trkpt><trkpt lat="45.61369525316781" lon="11.330283524331456"><ele>197.0</ele><time>2026-05-01T10:21:15Z</time></trkpt><trkpt lat="45.61367449968975" lon="11.330435881411779"><ele>197.0</ele><time>2026-05-01T10:21:16Z</time></trkpt><trkpt lat="45.61368457114235" lon="11.330603158611346"><ele>197.0</ele><time>2026-05-01T10:21:17Z</time></trkpt><trkpt lat="45.613713110874784" lon="11.330778326884694"><ele>196.75</ele><time>2026-05-01T10:21:18Z</time></trkpt><trkpt lat="45.61373299729799" lon="11.33096467067128"><ele>196.5</ele><time>2026-05-01T10:21:19Z</time></trkpt><trkpt lat="45.613725960133216" lon="11.331170196969259"><ele>196.25</ele><time>2026-05-01T10:21:20Z</time></trkpt><trkpt lat="45.61371551197426" lon="11.331385841113846"><ele>196.0</ele><time>2026-05-01T10:21:21Z</time></trkpt><trkpt lat="45.61363776240721" lon="11.331596791450737"><ele>196.0</ele><time>2026-05-01T10:21:22Z</time></trkpt><trkpt lat="45.61357054720885" lon="11.331814641576619"><ele>196.0</ele><time>2026-05-01T10:21:23Z</time></trkpt><trkpt lat="45.61349600817235" lon="11.332041845898939"><ele>196.0</ele><time>2026-05-01T10:21:24Z</time></trkpt><trkpt lat="45.61341609030668" lon="11.332272504454638"><ele>195.33333333333331</ele><time>2026-05-01T10:21:25Z</time></trkpt><trkpt lat="45.61332765336477" lon="11.332507092470737"><ele>194.66666666666669</ele><time>2026-05-01T10:21:26Z</time></trkpt><trkpt lat="45.613232470048246" lon="11.33274092463614"><ele>194.0</ele><time>2026-05-01T10:21:27Z</time></trkpt><trkpt lat="45.61313205157556" lon="11.332976057402457"><ele>193.66666666666669</ele><time>2026-05-01T10:21:28Z</time></trkpt><trkpt lat="45.613006834937956" lon="11.333198690374783"><ele>193.33333333333331</ele><time>2026-05-01T10:21:29Z</time></trkpt><trkpt lat="45.61289006889467" lon="11.333438226848438"><ele>193.0</ele><time>2026-05-01T10:21:30Z</time></trkpt><trkpt lat="45.612773430326754" lon="11.333681715537933"><ele>194.0</ele><time>2026-05-01T10:21:31Z</time></trkpt><trkpt lat="45.612652391754544" lon="11.333934389420024"><ele>195.0</ele><time>2026-05-01T10:21:32Z</time></trkpt><trkpt lat="45.612529194449394" lon="11.334191569797623"><ele>196.0</ele><time>2026-05-01T10:21:33Z</time></trkpt><trkpt lat="45.61240562222075" lon="11.334447840792961"><ele>196.0</ele><time>2026-05-01T10:21:34Z</time></trkpt><trkpt lat="45.61229618932397" lon="11.334709372239095"><ele>196.0</ele><time>2026-05-01T10:21:35Z</time></trkpt><trkpt lat="45.612176788928856" lon="11.334950324917042"><ele>196.0</ele><time>2026-05-01T10:21:36Z</time></trkpt><trkpt lat="45.61206231801908" lon="11.335192755102772"><ele>195.0</ele><time>2026-05-01T10:21:37Z</time></trkpt><trkpt lat="45.611947274937" lon="11.335434940122413"><ele>194.0</ele><time>2026-05-01T10:21:38Z</time></trkpt><trkpt lat="45.61181673120483" lon="11.33566390601814"><ele>193.0</ele><time>2026-05-01T10:21:39Z</time></trkpt><trkpt lat="45.611713315995566" lon="11.335923503106642"><ele>193.0</ele><time>2026-05-01T10:21:40Z</time></trkpt><trkpt lat="45.611597478488385" lon="11.336168560608519"><ele>193.0</ele><time>2026-05-01T10:21:41Z</time></trkpt><trkpt lat="45.61148984955013" lon="11.33641056086059"><ele>193.0</ele><time>2026-05-01T10:21:42Z</time></trkpt><trkpt lat="45.611391309206404" lon="11.336652651643519"><ele>193.0</ele><time>2026-05-01T10:21:43Z</time></trkpt><trkpt lat="45.611300307361795" lon="11.33689228610755"><ele>193.0</ele><time>2026-05-01T10:21:44Z</time></trkpt><trkpt lat="45.611217066572394" lon="11.337134434809215"><ele>193.0</ele><time>2026-05-01T10:21:45Z</time></trkpt><trkpt lat="45.6111379085424" lon="11.337373899984229"><ele>192.0</ele><time>2026-05-01T10:21:46Z</time></trkpt><trkpt lat="45.61106148597867" lon="11.337609034107002"><ele>191.0</ele><time>2026-05-01T10:21:47Z</time></trkpt><trkpt lat="45.61097211665978" lon="11.337825304028362"><ele>190.0</ele><time>2026-05-01T10:21:48Z</time></trkpt><trkpt lat="45.61089685438123" lon="11.338049774562023"><ele>190.33333333333334</ele><time>2026-05-01T10:21:49Z</time></trkpt><trkpt lat="45.61082285271379" lon="11.338271148821217"><ele>190.66666666666666</ele><time>2026-05-01T10:21:50Z</time></trkpt><trkpt lat="45.610764593559686" lon="11.338506874474366"><ele>191.0</ele><time>2026-05-01T10:21:51Z</time></trkpt><trkpt lat="45.61068935003595" lon="11.338731064730199"><ele>191.0</ele><time>2026-05-01T10:21:52Z</time></trkpt><trkpt lat="45.61061569674211" lon="11.338962341631074"><ele>191.0</ele><time>2026-05-01T10:21:53Z</time></trkpt><trkpt lat="45.610527954923924" lon="11.339185356371491"><ele>191.0</ele><time>2026-05-01T10:21:54Z</time></trkpt><trkpt lat="45.610455924766555" lon="11.339427941469502"><ele>191.0</ele><time>2026-05-01T10:21:55Z</time></trkpt><trkpt lat="45.610403087101545" lon="11.339679190826999"><ele>191.0</ele><time>2026-05-01T10:21:56Z</time></trkpt><trkpt lat="45.61033058426618" lon="11.339926703896216"><ele>191.0</ele><time>2026-05-01T10:21:57.016Z</time></trkpt><trkpt lat="45.61025704442538" lon="11.34016597294153"><ele>180.0</ele><time>2026-05-01T10:21:58.014Z</time></trkpt><trkpt lat="45.60704736363089" lon="11.346545923356535"><ele>178.5</ele><time>2026-05-01T10:22:28Z</time></trkpt><trkpt lat="45.60688420875351" lon="11.346788422345238"><ele>177.0</ele><time>2026-05-01T10:22:29Z</time></trkpt><trkpt lat="45.6067392076341" lon="11.347061768025977"><ele>179.0</ele><time>2026-05-01T10:22:30Z</time></trkpt><trkpt lat="45.60658442884873" lon="11.347353401241302"><ele>181.0</ele><time>2026-05-01T10:22:31Z</time></trkpt><trkpt lat="45.60642939415821" lon="11.347645419295414"><ele>181.0</ele><time>2026-05-01T10:22:32Z</time></trkpt><trkpt lat="45.606277800570496" lon="11.347931299684204"><ele>181.0</ele><time>2026-05-01T10:22:33Z</time></trkpt><trkpt lat="45.60612862984878" lon="11.34821193346204"><ele>180.0</ele><time>2026-05-01T10:22:34Z</time></trkpt><trkpt lat="45.60597890535248" lon="11.348498510674576"><ele>179.0</ele><time>2026-05-01T10:22:35Z</time></trkpt><trkpt lat="45.60582838176473" lon="11.348787056467687"><ele>179.0</ele><time>2026-05-01T10:22:36Z</time></trkpt><trkpt lat="45.605675092287214" lon="11.349075340749403"><ele>179.0</ele><time>2026-05-01T10:22:37Z</time></trkpt><trkpt lat="45.605520302071234" lon="11.349364498726146"><ele>179.0</ele><time>2026-05-01T10:22:38Z</time></trkpt><trkpt lat="45.60537720578829" lon="11.349669794144969"><ele>179.0</ele><time>2026-05-01T10:22:39Z</time></trkpt><trkpt lat="45.60522168772013" lon="11.349956578007914"><ele>179.0</ele><time>2026-05-01T10:22:40Z</time></trkpt><trkpt lat="45.605065176694104" lon="11.350250216675148"><ele>179.0</ele><time>2026-05-01T10:22:41Z</time></trkpt><trkpt lat="45.60490479327901" lon="11.350544685705756"><ele>179.5</ele><time>2026-05-01T10:22:42Z</time></trkpt><trkpt lat="45.60474697887359" lon="11.350842391212856"><ele>180.0</ele><time>2026-05-01T10:22:43Z</time></trkpt><trkpt lat="45.60458757117328" lon="11.351134324947491"><ele>178.0</ele><time>2026-05-01T10:22:44Z</time></trkpt><trkpt lat="45.60443056193745" lon="11.35142870383075"><ele>176.0</ele><time>2026-05-01T10:22:45Z</time></trkpt><trkpt lat="45.60427165796729" lon="11.351726380482072"><ele>176.0</ele><time>2026-05-01T10:22:46Z</time></trkpt><trkpt lat="45.60411281248437" lon="11.352025952225576"><ele>176.0</ele><time>2026-05-01T10:22:47Z</time></trkpt><trkpt lat="45.603955203818515" lon="11.352328525106524"><ele>176.0</ele><time>2026-05-01T10:22:48Z</time></trkpt><trkpt lat="45.60378620492133" lon="11.352641939635715"><ele>176.0</ele><time>2026-05-01T10:22:49Z</time></trkpt><trkpt lat="45.603630021322616" lon="11.352942990387332"><ele>175.5</ele><time>2026-05-01T10:22:50Z</time></trkpt><trkpt lat="45.60346953629259" lon="11.353248981535387"><ele>175.0</ele><time>2026-05-01T10:22:51Z</time></trkpt><trkpt lat="45.603304819886795" lon="11.353547506747029"><ele>175.0</ele><time>2026-05-01T10:22:52Z</time></trkpt><trkpt lat="45.60313840242281" lon="11.353853870168647"><ele>175.0</ele><time>2026-05-01T10:22:53Z</time></trkpt><trkpt lat="45.60297224891905" lon="11.354143183691505"><ele>174.5</ele><time>2026-05-01T10:22:54Z</time></trkpt><trkpt lat="45.602802927992265" lon="11.35442678982398"><ele>174.0</ele><time>2026-05-01T10:22:55Z</time></trkpt><trkpt lat="45.6026310178923" lon="11.354702052428573"><ele>174.5</ele><time>2026-05-01T10:22:56Z</time></trkpt><trkpt lat="45.602453022620516" lon="11.354971314496918"><ele>175.0</ele><time>2026-05-01T10:22:57Z</time></trkpt><trkpt lat="45.60227568171879" lon="11.355244237262106"><ele>175.0</ele><time>2026-05-01T10:22:58Z</time></trkpt><trkpt lat="45.60209340835199" lon="11.355517586332011"><ele>175.0</ele><time>2026-05-01T10:22:59Z</time></trkpt><trkpt lat="45.60191548878233" lon="11.355788643246084"><ele>174.0</ele><time>2026-05-01T10:23:00Z</time></trkpt><trkpt lat="45.601738782509756" lon="11.356059695338054"><ele>173.0</ele><time>2026-05-01T10:23:01Z</time></trkpt><trkpt lat="45.6015637998064" lon="11.356321402514485"><ele>173.0</ele><time>2026-05-01T10:23:02Z</time></trkpt><trkpt lat="45.601395879304775" lon="11.35657958539984"><ele>173.0</ele><time>2026-05-01T10:23:03Z</time></trkpt><trkpt lat="45.601240586508695" lon="11.356825356936788"><ele>173.0</ele><time>2026-05-01T10:23:04Z</time></trkpt><trkpt lat="45.60107605791597" lon="11.357050969618468"><ele>173.0</ele><time>2026-05-01T10:23:05Z</time></trkpt><trkpt lat="45.600918263804665" lon="11.357289599694244"><ele>173.0</ele><time>2026-05-01T10:23:06Z</time></trkpt><trkpt lat="45.60075710955084" lon="11.357533310917116"><ele>173.0</ele><time>2026-05-01T10:23:07Z</time></trkpt><trkpt lat="45.60059273465787" lon="11.35778189303099"><ele>173.0</ele><time>2026-05-01T10:23:08Z</time></trkpt><trkpt lat="45.60043036810973" lon="11.35802743781123"><ele>173.0</ele><time>2026-05-01T10:23:09Z</time></trkpt><trkpt lat="45.600276586000795" lon="11.35826000038816"><ele>171.66666666666666</ele><time>2026-05-01T10:23:10Z</time></trkpt><trkpt lat="45.60013394695379" lon="11.358475711674439"><ele>170.33333333333334</ele><time>2026-05-01T10:23:11Z</time></trkpt><trkpt lat="45.599989324888014" lon="11.35867932431988"><ele>169.0</ele><time>2026-05-01T10:23:12Z</time></trkpt><trkpt lat="45.59983815998536" lon="11.35885640666616"><ele>169.0</ele><time>2026-05-01T10:23:13Z</time></trkpt><trkpt lat="45.599679814083196" lon="11.358993928487584"><ele>169.0</ele><time>2026-05-01T10:23:14Z</time></trkpt><trkpt lat="45.59951666555432" lon="11.359097204609956"><ele>169.0</ele><time>2026-05-01T10:23:15Z</time></trkpt><trkpt lat="45.59934869130949" lon="11.359177248316668"><ele>169.0</ele><time>2026-05-01T10:23:16Z</time></trkpt><trkpt lat="45.59918998412219" lon="11.359264409209835"><ele>169.0</ele><time>2026-05-01T10:23:17Z</time></trkpt><trkpt lat="45.599035319607076" lon="11.359303957160131"><ele>169.0</ele><time>2026-05-01T10:23:18Z</time></trkpt><trkpt lat="45.598889566674416" lon="11.359348849538188"><ele>169.0</ele><time>2026-05-01T10:23:19Z</time></trkpt><trkpt lat="45.59874236303739" lon="11.359378143673954"><ele>169.0</ele><time>2026-05-01T10:23:20Z</time></trkpt><trkpt lat="45.59859348498936" lon="11.35940146483795"><ele>169.0</ele><time>2026-05-01T10:23:21Z</time></trkpt><trkpt lat="45.598466721140326" lon="11.359434384158572"><ele>169.0</ele><time>2026-05-01T10:23:22Z</time></trkpt><trkpt lat="45.598380971883884" lon="11.359537726439855"><ele>167.75</ele><time>2026-05-01T10:23:23Z</time></trkpt><trkpt lat="45.59831295261465" lon="11.359641050445479"><ele>166.5</ele><time>2026-05-01T10:23:24Z</time></trkpt><trkpt lat="45.59826574254351" lon="11.359787563208178"><ele>165.25</ele><time>2026-05-01T10:23:25Z</time></trkpt><trkpt lat="45.59825256446522" lon="11.359960565871669"><ele>164.0</ele><time>2026-05-01T10:23:26Z</time></trkpt><trkpt lat="45.59829920484175" lon="11.360133914515425"><ele>164.0</ele><time>2026-05-01T10:23:27Z</time></trkpt><trkpt lat="45.59835409556931" lon="11.360289179752463"><ele>164.0</ele><time>2026-05-01T10:23:28Z</time></trkpt><trkpt lat="45.59845450867096" lon="11.360406096254108"><ele>164.0</ele><time>2026-05-01T10:23:29Z</time></trkpt><trkpt lat="45.59857737631685" lon="11.36049265100944"><ele>164.0</ele><time>2026-05-01T10:23:30Z</time></trkpt><trkpt lat="45.59870994585564" lon="11.360557461286811"><ele>164.75</ele><time>2026-05-01T10:23:31Z</time></trkpt><trkpt lat="45.59884349357552" lon="11.360616977609373"><ele>165.5</ele><time>2026-05-01T10:23:32Z</time></trkpt><trkpt lat="45.59897859116267" lon="11.360697609450105"><ele>166.25</ele><time>2026-05-01T10:23:33Z</time></trkpt><trkpt lat="45.599115573741365" lon="11.360798623828622"><ele>167.0</ele><time>2026-05-01T10:23:34Z</time></trkpt><trkpt lat="45.59925898755478" lon="11.360896374316797"><ele>167.0</ele><time>2026-05-01T10:23:35Z</time></trkpt><trkpt lat="45.5993994806371" lon="11.360989802360825"><ele>167.0</ele><time>2026-05-01T10:23:36Z</time></trkpt><trkpt lat="45.59953026505127" lon="11.361083849233667"><ele>167.0</ele><time>2026-05-01T10:23:37Z</time></trkpt><trkpt lat="45.59964409203872" lon="11.361193866026493"><ele>167.0</ele><time>2026-05-01T10:23:38Z</time></trkpt><trkpt lat="45.59972728277457" lon="11.361340587125502"><ele>167.25</ele><time>2026-05-01T10:23:39Z</time></trkpt><trkpt lat="45.5997874034292" lon="11.361504830649691"><ele>167.5</ele><time>2026-05-01T10:23:40Z</time></trkpt><trkpt lat="45.59983563158955" lon="11.361669316690653"><ele>167.75</ele><time>2026-05-01T10:23:41Z</time></trkpt><trkpt lat="45.599909127851056" lon="11.361803516080395"><ele>168.0</ele><time>2026-05-01T10:23:42Z</time></trkpt><trkpt lat="45.600004382402275" lon="11.361909131751665"><ele>168.0</ele><time>2026-05-01T10:23:43Z</time></trkpt><trkpt lat="45.600105762248376" lon="11.361994037461145"><ele>168.0</ele><time>2026-05-01T10:23:44Z</time></trkpt><trkpt lat="45.60018097718506" lon="11.362107719489783"><ele>168.0</ele><time>2026-05-01T10:23:45Z</time></trkpt><trkpt lat="45.600213557065516" lon="11.362257303226794"><ele>168.0</ele><time>2026-05-01T10:23:46Z</time></trkpt><trkpt lat="45.600194162511094" lon="11.36241068644118"><ele>168.0</ele><time>2026-05-01T10:23:47Z</time></trkpt><trkpt lat="45.60011281706416" lon="11.362524464462563"><ele>168.0</ele><time>2026-05-01T10:23:48Z</time></trkpt><trkpt lat="45.60005640851371" lon="11.362662166193877"><ele>168.0</ele><time>2026-05-01T10:23:49Z</time></trkpt><trkpt lat="45.600008734735994" lon="11.362822374560151"><ele>168.0</ele><time>2026-05-01T10:23:50Z</time></trkpt><trkpt lat="45.59994075072587" lon="11.362972278187629"><ele>168.0</ele><time>2026-05-01T10:23:51Z</time></trkpt><trkpt lat="45.59986885670611" lon="11.363143528379982"><ele>168.33333333333334</ele><time>2026-05-01T10:23:52Z</time></trkpt><trkpt lat="45.599795987649635" lon="11.363319533677474"><ele>168.66666666666669</ele><time>2026-05-01T10:23:53Z</time></trkpt><trkpt lat="45.59971862143128" lon="11.363512984827894"><ele>169.0</ele><time>2026-05-01T10:23:54Z</time></trkpt><trkpt lat="45.59964063256785" lon="11.363703442248712"><ele>168.5</ele><time>2026-05-01T10:23:55Z</time></trkpt><trkpt lat="45.59956350061499" lon="11.363889417963897"><ele>168.0</ele><time>2026-05-01T10:23:56Z</time></trkpt><trkpt lat="45.59949128423638" lon="11.36406977138966"><ele>167.5</ele><time>2026-05-01T10:23:57Z</time></trkpt><trkpt lat="45.59941760212289" lon="11.364231584059711"><ele>167.0</ele><time>2026-05-01T10:23:58Z</time></trkpt><trkpt lat="45.59935220876668" lon="11.364399153493803"><ele>166.5</ele><time>2026-05-01T10:23:59Z</time></trkpt><trkpt lat="45.59927946884819" lon="11.364556349285536"><ele>166.0</ele><time>2026-05-01T10:24:00Z</time></trkpt><trkpt lat="45.59920916115247" lon="11.364715333320818"><ele>165.5</ele><time>2026-05-01T10:24:01Z</time></trkpt><trkpt lat="45.59914013486033" lon="11.364875140007962"><ele>165.0</ele><time>2026-05-01T10:24:02Z</time></trkpt><trkpt lat="45.5990756322574" lon="11.36502544060195"><ele>164.8</ele><time>2026-05-01T10:24:03Z</time></trkpt><trkpt lat="45.59901581182029" lon="11.365169814525217"><ele>164.6</ele><time>2026-05-01T10:24:04Z</time></trkpt><trkpt lat="45.59895441165529" lon="11.36529768975592"><ele>164.39999999999998</ele><time>2026-05-01T10:24:05Z</time></trkpt><trkpt lat="45.59887615532737" lon="11.365394340809658"><ele>164.2</ele><time>2026-05-01T10:24:06Z</time></trkpt><trkpt lat="45.5987902440041" lon="11.36545792829599"><ele>164.0</ele><time>2026-05-01T10:24:07Z</time></trkpt><trkpt lat="45.59873219966369" lon="11.365552868625263"><ele>164.39999999999998</ele><time>2026-05-01T10:24:08Z</time></trkpt><trkpt lat="45.59870401602141" lon="11.365655764594683"><ele>164.8</ele><time>2026-05-01T10:24:09Z</time></trkpt><trkpt lat="45.59867052408298" lon="11.365759673460522"><ele>165.2</ele><time>2026-05-01T10:24:10Z</time></trkpt><trkpt lat="45.59870563818456" lon="11.365901768419105"><ele>165.60000000000002</ele><time>2026-05-01T10:24:11Z</time></trkpt><trkpt lat="45.59862031288563" lon="11.366030381878906"><ele>166.0</ele><time>2026-05-01T10:24:12Z</time></trkpt><trkpt lat="45.59855647290451" lon="11.366169893313964"><ele>166.0</ele><time>2026-05-01T10:24:13Z</time></trkpt><trkpt lat="45.59849402850028" lon="11.366323739249802"><ele>166.0</ele><time>2026-05-01T10:24:14Z</time></trkpt><trkpt lat="45.598416987248356" lon="11.366484392013017"><ele>166.0</ele><time>2026-05-01T10:24:15Z</time></trkpt><trkpt lat="45.59833589542603" lon="11.366653939843612"><ele>166.0</ele><time>2026-05-01T10:24:16Z</time></trkpt><trkpt lat="45.598249726787934" lon="11.366839517173847"><ele>166.0</ele><time>2026-05-01T10:24:17Z</time></trkpt><trkpt lat="45.59816172186171" lon="11.367031078514456"><ele>166.0</ele><time>2026-05-01T10:24:18Z</time></trkpt><trkpt lat="45.598073207314386" lon="11.367228786485224"><ele>166.0</ele><time>2026-05-01T10:24:19Z</time></trkpt><trkpt lat="45.597986424717085" lon="11.367429743992105"><ele>165.33333333333334</ele><time>2026-05-01T10:24:20Z</time></trkpt><trkpt lat="45.597895172197795" lon="11.36763258272322"><ele>164.66666666666666</ele><time>2026-05-01T10:24:21Z</time></trkpt><trkpt lat="45.59780526124591" lon="11.367831528427082"><ele>164.0</ele><time>2026-05-01T10:24:22Z</time></trkpt><trkpt lat="45.597715083609764" lon="11.368026264046927"><ele>164.33333333333331</ele><time>2026-05-01T10:24:23Z</time></trkpt><trkpt lat="45.59762678700174" lon="11.368223013607281"><ele>164.66666666666666</ele><time>2026-05-01T10:24:24Z</time></trkpt><trkpt lat="45.597537287139225" lon="11.36841988303913"><ele>165.0</ele><time>2026-05-01T10:24:25Z</time></trkpt><trkpt lat="45.597446067002835" lon="11.368615264960319"><ele>165.0</ele><time>2026-05-01T10:24:26Z</time></trkpt><trkpt lat="45.59735358789531" lon="11.368809860092533"><ele>165.0</ele><time>2026-05-01T10:24:27Z</time></trkpt><trkpt lat="45.597261903003194" lon="11.368998191962437"><ele>165.0</ele><time>2026-05-01T10:24:28Z</time></trkpt><trkpt lat="45.59717128443455" lon="11.369175030971704"><ele>164.5</ele><time>2026-05-01T10:24:29Z</time></trkpt><trkpt lat="45.59708167317821" lon="11.369341515723706"><ele>164.0</ele><time>2026-05-01T10:24:30Z</time></trkpt><trkpt lat="45.5969936376996" lon="11.36950335258612"><ele>163.5</ele><time>2026-05-01T10:24:31Z</time></trkpt><trkpt lat="45.59690360342176" lon="11.369653727832063"><ele>163.0</ele><time>2026-05-01T10:24:32Z</time></trkpt><trkpt lat="45.59681548620795" lon="11.369802224845044"><ele>162.75</ele><time>2026-05-01T10:24:33Z</time></trkpt><trkpt lat="45.59672767014947" lon="11.369944794304324"><ele>162.5</ele><time>2026-05-01T10:24:34Z</time></trkpt><trkpt lat="45.59663589624255" lon="11.370096339204167"><ele>162.25</ele><time>2026-05-01T10:24:35Z</time></trkpt><trkpt lat="45.59653999322904" lon="11.370254439473962"><ele>162.0</ele><time>2026-05-01T10:24:36Z</time></trkpt><trkpt lat="45.59643901050237" lon="11.370423570955616"><ele>161.66666666666666</ele><time>2026-05-01T10:24:37Z</time></trkpt><trkpt lat="45.596331907495916" lon="11.370600657413307"><ele>161.33333333333331</ele><time>2026-05-01T10:24:38Z</time></trkpt><trkpt lat="45.59622237124738" lon="11.370777391945614"><ele>161.0</ele><time>2026-05-01T10:24:39Z</time></trkpt><trkpt lat="45.596107722243076" lon="11.37095795262186"><ele>160.66666666666666</ele><time>2026-05-01T10:24:40Z</time></trkpt><trkpt lat="45.595987413377735" lon="11.371147143522121"><ele>160.33333333333334</ele><time>2026-05-01T10:24:41Z</time></trkpt><trkpt lat="45.595860068406495" lon="11.371339712842097"><ele>160.0</ele><time>2026-05-01T10:24:42Z</time></trkpt><trkpt lat="45.595731263388835" lon="11.371531049524032"><ele>160.0</ele><time>2026-05-01T10:24:43Z</time></trkpt><trkpt lat="45.59560333981598" lon="11.371715353432117"><ele>160.0</ele><time>2026-05-01T10:24:44Z</time></trkpt><trkpt lat="45.59547695405452" lon="11.371892690964913"><ele>160.0</ele><time>2026-05-01T10:24:45Z</time></trkpt><trkpt lat="45.5953498976484" lon="11.372072202731816"><ele>159.66666666666669</ele><time>2026-05-01T10:24:46Z</time></trkpt><trkpt lat="45.595220608062704" lon="11.372250410274674"><ele>159.33333333333334</ele><time>2026-05-01T10:24:47Z</time></trkpt><trkpt lat="45.5950887435711" lon="11.372435364445245"><ele>159.0</ele><time>2026-05-01T10:24:48Z</time></trkpt><trkpt lat="45.59495484008611" lon="11.372620214008208"><ele>159.0</ele><time>2026-05-01T10:24:49Z</time></trkpt><trkpt lat="45.59482130734079" lon="11.372799772751595"><ele>159.0</ele><time>2026-05-01T10:24:50Z</time></trkpt><trkpt lat="45.59468522975144" lon="11.372984425600013"><ele>159.0</ele><time>2026-05-01T10:24:51Z</time></trkpt><trkpt lat="45.59454673351903" lon="11.373169949682"><ele>159.0</ele><time>2026-05-01T10:24:52Z</time></trkpt><trkpt lat="45.5944059954431" lon="11.373356173335864"><ele>159.0</ele><time>2026-05-01T10:24:53Z</time></trkpt><trkpt lat="45.59426084014825" lon="11.373542896938552"><ele>159.0</ele><time>2026-05-01T10:24:54Z</time></trkpt><trkpt lat="45.594113742252276" lon="11.373731035631295"><ele>159.0</ele><time>2026-05-01T10:24:55Z</time></trkpt><trkpt lat="45.59396462455319" lon="11.373913351172154"><ele>159.0</ele><time>2026-05-01T10:24:56Z</time></trkpt><trkpt lat="45.59381619494345" lon="11.374085992704225"><ele>159.0</ele><time>2026-05-01T10:24:57Z</time></trkpt><trkpt lat="45.59367031791291" lon="11.374261123079632"><ele>159.0</ele><time>2026-05-01T10:24:58Z</time></trkpt><trkpt lat="45.593527947260284" lon="11.374436389778005"><ele>159.0</ele><time>2026-05-01T10:24:59Z</time></trkpt><trkpt lat="45.59338890008769" lon="11.37460808883635"><ele>159.0</ele><time>2026-05-01T10:25:00Z</time></trkpt><trkpt lat="45.59324104636592" lon="11.374789091697261"><ele>158.66666666666666</ele><time>2026-05-01T10:25:01Z</time></trkpt><trkpt lat="45.59309099470208" lon="11.374965129101511"><ele>158.33333333333331</ele><time>2026-05-01T10:25:02Z</time></trkpt><trkpt lat="45.59294595389938" lon="11.37513186560257"><ele>158.0</ele><time>2026-05-01T10:25:03Z</time></trkpt><trkpt lat="45.592802338688756" lon="11.37528830227377"><ele>157.0</ele><time>2026-05-01T10:25:04Z</time></trkpt><trkpt lat="45.592664551884745" lon="11.375430438901033"><ele>156.0</ele><time>2026-05-01T10:25:05Z</time></trkpt><trkpt lat="45.59253534482416" lon="11.375566053802354"><ele>155.0</ele><time>2026-05-01T10:25:06Z</time></trkpt><trkpt lat="45.59241892737933" lon="11.37568438797709"><ele>155.0</ele><time>2026-05-01T10:25:07Z</time></trkpt><trkpt lat="45.59230540648869" lon="11.375767273804819"><ele>155.0</ele><time>2026-05-01T10:25:08Z</time></trkpt><trkpt lat="45.592230034607496" lon="11.375853608267088"><ele>155.0</ele><time>2026-05-01T10:25:09Z</time></trkpt><trkpt lat="45.59216444573721" lon="11.375893378092059"><ele>155.0</ele><time>2026-05-01T10:25:10Z</time></trkpt><trkpt lat="45.59204549250671" lon="11.375925301120482"><ele>155.0</ele><time>2026-05-01T10:25:12Z</time></trkpt><trkpt lat="45.59192472516799" lon="11.375873236624955"><ele>154.83333333333331</ele><time>2026-05-01T10:25:14Z</time></trkpt><trkpt lat="45.591866200885505" lon="11.37581386752034"><ele>154.66666666666666</ele><time>2026-05-01T10:25:15Z</time></trkpt><trkpt lat="45.59180095746297" lon="11.375757386267717"><ele>154.5</ele><time>2026-05-01T10:25:16Z</time></trkpt><trkpt lat="45.59172271124879" lon="11.37572730028821"><ele>154.33333333333334</ele><time>2026-05-01T10:25:17Z</time></trkpt><trkpt lat="45.591635214271214" lon="11.375728666855256"><ele>154.16666666666669</ele><time>2026-05-01T10:25:18Z</time></trkpt><trkpt lat="45.59154978839645" lon="11.375764219382498"><ele>154.0</ele><time>2026-05-01T10:25:19Z</time></trkpt><trkpt lat="45.591481878746364" lon="11.37582713093369"><ele>154.0</ele><time>2026-05-01T10:25:20Z</time></trkpt><trkpt lat="45.59142310356982" lon="11.37591981589273"><ele>154.0</ele><time>2026-05-01T10:25:21Z</time></trkpt><trkpt lat="45.591363972472706" lon="11.376030762816121"><ele>154.0</ele><time>2026-05-01T10:25:22Z</time></trkpt><trkpt lat="45.59128759067148" lon="11.376145469988378"><ele>154.0</ele><time>2026-05-01T10:25:23Z</time></trkpt><trkpt lat="45.59120767139142" lon="11.376263044198797"><ele>154.0</ele><time>2026-05-01T10:25:24Z</time></trkpt><trkpt lat="45.591116991812044" lon="11.376379850204769"><ele>153.25</ele><time>2026-05-01T10:25:25Z</time></trkpt><trkpt lat="45.59099397797958" lon="11.376441678991442"><ele>152.5</ele><time>2026-05-01T10:25:26Z</time></trkpt><trkpt lat="45.59088928617059" lon="11.376526268662134"><ele>151.75</ele><time>2026-05-01T10:25:27Z</time></trkpt><trkpt lat="45.59078545653815" lon="11.37659592093088"><ele>151.0</ele><time>2026-05-01T10:25:28Z</time></trkpt><trkpt lat="45.59068062787641" lon="11.37664612687726"><ele>151.0</ele><time>2026-05-01T10:25:29Z</time></trkpt><trkpt lat="45.59057979915434" lon="11.376671433656043"><ele>151.0</ele><time>2026-05-01T10:25:30Z</time></trkpt><trkpt lat="45.59048214949108" lon="11.376691723516213"><ele>151.0</ele><time>2026-05-01T10:25:31Z</time></trkpt><trkpt lat="45.59039206214416" lon="11.376697695408568"><ele>151.0</ele><time>2026-05-01T10:25:32Z</time></trkpt><trkpt lat="45.59031369746945" lon="11.376703468636455"><ele>151.0</ele><time>2026-05-01T10:25:33Z</time></trkpt><trkpt lat="45.59024721968883" lon="11.376705247134254"><ele>151.0</ele><time>2026-05-01T10:25:34Z</time></trkpt><trkpt lat="45.59013960328698" lon="11.376716020094966"><ele>150.6</ele><time>2026-05-01T10:25:36Z</time></trkpt><trkpt lat="45.590064529785394" lon="11.376709459255606"><ele>150.2</ele><time>2026-05-01T10:25:38Z</time></trkpt><trkpt lat="45.58997499647238" lon="11.3766929081103"><ele>149.8</ele><time>2026-05-01T10:25:42Z</time></trkpt><trkpt lat="45.58983624237161" lon="11.376724707995864"><ele>149.4</ele><time>2026-05-01T10:25:44Z</time></trkpt><trkpt lat="45.58975536810088" lon="11.376725364114897"><ele>149.0</ele><time>2026-05-01T10:25:45Z</time></trkpt><trkpt lat="45.58968264857091" lon="11.376729748914363"><ele>149.0</ele><time>2026-05-01T10:25:46Z</time></trkpt><trkpt lat="45.5896051967834" lon="11.37673437868675"><ele>149.0</ele><time>2026-05-01T10:25:47Z</time></trkpt><trkpt lat="45.58951391124387" lon="11.376728546680319"><ele>149.0</ele><time>2026-05-01T10:25:48Z</time></trkpt><trkpt lat="45.58940871867256" lon="11.376738864135818"><ele>149.0</ele><time>2026-05-01T10:25:49Z</time></trkpt><trkpt lat="45.589288424403925" lon="11.37672276075486"><ele>149.0</ele><time>2026-05-01T10:25:50Z</time></trkpt><trkpt lat="45.589162705898424" lon="11.376666849971716"><ele>149.25</ele><time>2026-05-01T10:25:51Z</time></trkpt><trkpt lat="45.58904649552118" lon="11.376584716216312"><ele>149.5</ele><time>2026-05-01T10:25:52Z</time></trkpt><trkpt lat="45.588927466172244" lon="11.376469594091384"><ele>149.75</ele><time>2026-05-01T10:25:53Z</time></trkpt><trkpt lat="45.58880924152972" lon="11.376349910644933"><ele>150.0</ele><time>2026-05-01T10:25:54Z</time></trkpt><trkpt lat="45.58869473589336" lon="11.376231564064213"><ele>150.5</ele><time>2026-05-01T10:25:55Z</time></trkpt><trkpt lat="45.588582438724245" lon="11.376124469891867"><ele>151.0</ele><time>2026-05-01T10:25:56Z</time></trkpt><trkpt lat="45.58846013638848" lon="11.376052512364229"><ele>151.5</ele><time>2026-05-01T10:25:57Z</time></trkpt><trkpt lat="45.58833190407676" lon="11.376047807701985"><ele>152.0</ele><time>2026-05-01T10:25:58Z</time></trkpt><trkpt lat="45.58820365715407" lon="11.376088930125798"><ele>152.0</ele><time>2026-05-01T10:25:59Z</time></trkpt><trkpt lat="45.58806447504035" lon="11.376102623043888"><ele>152.0</ele><time>2026-05-01T10:26:00Z</time></trkpt><trkpt lat="45.58795883224073" lon="11.376273458236167"><ele>152.0</ele><time>2026-05-01T10:26:01Z</time></trkpt><trkpt lat="45.58784392321309" lon="11.37641667529529"><ele>150.66666666666666</ele><time>2026-05-01T10:26:02Z</time></trkpt><trkpt lat="45.587732200389496" lon="11.37657703972044"><ele>149.33333333333334</ele><time>2026-05-01T10:26:03Z</time></trkpt><trkpt lat="45.587618658192646" lon="11.37675066233723"><ele>148.0</ele><time>2026-05-01T10:26:04Z</time></trkpt><trkpt lat="45.58750477772022" lon="11.376929869837939"><ele>148.0</ele><time>2026-05-01T10:26:05Z</time></trkpt><trkpt lat="45.58739126283939" lon="11.377106827333451"><ele>148.0</ele><time>2026-05-01T10:26:06Z</time></trkpt><trkpt lat="45.587283756943215" lon="11.377281561150632"><ele>148.0</ele><time>2026-05-01T10:26:07Z</time></trkpt><trkpt lat="45.58719343714317" lon="11.37746282122632"><ele>148.0</ele><time>2026-05-01T10:26:08Z</time></trkpt><trkpt lat="45.58711423360458" lon="11.37765550618293"><ele>148.0</ele><time>2026-05-01T10:26:09Z</time></trkpt><trkpt lat="45.58705412860643" lon="11.377855537792422"><ele>148.0</ele><time>2026-05-01T10:26:10Z</time></trkpt><trkpt lat="45.58701810774172" lon="11.378052610200484"><ele>148.0</ele><time>2026-05-01T10:26:11Z</time></trkpt><trkpt lat="45.58700529174409" lon="11.378244360997694"><ele>148.0</ele><time>2026-05-01T10:26:12Z</time></trkpt><trkpt lat="45.58702065420562" lon="11.37843301663434"><ele>148.0</ele><time>2026-05-01T10:26:13Z</time></trkpt><trkpt lat="45.58706361737583" lon="11.378603348874586"><ele>148.0</ele><time>2026-05-01T10:26:14Z</time></trkpt><trkpt lat="45.587127190084836" lon="11.378759639855069"><ele>148.25</ele><time>2026-05-01T10:26:15Z</time></trkpt><trkpt lat="45.58721469679699" lon="11.378892330129617"><ele>148.5</ele><time>2026-05-01T10:26:16Z</time></trkpt><trkpt lat="45.587321221100765" lon="11.378993184146667"><ele>148.75</ele><time>2026-05-01T10:26:17Z</time></trkpt><trkpt lat="45.58744302673003" lon="11.379048172076642"><ele>149.0</ele><time>2026-05-01T10:26:18Z</time></trkpt><trkpt lat="45.58756944410537" lon="11.379051962680865"><ele>149.0</ele><time>2026-05-01T10:26:19Z</time></trkpt><trkpt lat="45.58768841438589" lon="11.37900121268378"><ele>149.0</ele><time>2026-05-01T10:26:20Z</time></trkpt><trkpt lat="45.58779544639814" lon="11.378906074148082"><ele>149.0</ele><time>2026-05-01T10:26:21Z</time></trkpt><trkpt lat="45.587887457101715" lon="11.378774072175284"><ele>149.0</ele><time>2026-05-01T10:26:22Z</time></trkpt><trkpt lat="45.587945902969885" lon="11.378594643512232"><ele>148.75</ele><time>2026-05-01T10:26:23Z</time></trkpt><trkpt lat="45.58802108272701" lon="11.378430535857758"><ele>148.5</ele><time>2026-05-01T10:26:24Z</time></trkpt><trkpt lat="45.58808468334006" lon="11.378250668329509"><ele>148.25</ele><time>2026-05-01T10:26:25Z</time></trkpt><trkpt lat="45.58817132963335" lon="11.378099104799077"><ele>148.0</ele><time>2026-05-01T10:26:26Z</time></trkpt><trkpt lat="45.58827869159707" lon="11.377962333723012"><ele>148.0</ele><time>2026-05-01T10:26:27Z</time></trkpt><trkpt lat="45.588405259199455" lon="11.377853298176545"><ele>148.0</ele><time>2026-05-01T10:26:28Z</time></trkpt><trkpt lat="45.58855227246602" lon="11.3777794771537"><ele>148.0</ele><time>2026-05-01T10:26:29Z</time></trkpt><trkpt lat="45.588714999745996" lon="11.377753539181096"><ele>148.0</ele><time>2026-05-01T10:26:30Z</time></trkpt><trkpt lat="45.588885364525225" lon="11.377760967544924"><ele>148.0</ele><time>2026-05-01T10:26:31Z</time></trkpt><trkpt lat="45.58906705177998" lon="11.377779065866719"><ele>148.0</ele><time>2026-05-01T10:26:32Z</time></trkpt><trkpt lat="45.58926007295599" lon="11.37780072237398"><ele>148.0</ele><time>2026-05-01T10:26:33Z</time></trkpt><trkpt lat="45.589458121385796" lon="11.377829983661577"><ele>148.0</ele><time>2026-05-01T10:26:34Z</time></trkpt><trkpt lat="45.58966416955328" lon="11.377870329148857"><ele>148.0</ele><time>2026-05-01T10:26:35Z</time></trkpt><trkpt lat="45.5898738814524" lon="11.37791500567626"><ele>148.0</ele><time>2026-05-01T10:26:36Z</time></trkpt><trkpt lat="45.59009238208673" lon="11.377966837445227"><ele>148.0</ele><time>2026-05-01T10:26:37Z</time></trkpt><trkpt lat="45.59031824876117" lon="11.378028294599622"><ele>150.5</ele><time>2026-05-01T10:26:38Z</time></trkpt><trkpt lat="45.59054877040618" lon="11.37809895579145"><ele>153.0</ele><time>2026-05-01T10:26:39Z</time></trkpt><trkpt lat="45.59078724383687" lon="11.378181570825406"><ele>153.0</ele><time>2026-05-01T10:26:40Z</time></trkpt><trkpt lat="45.591026044124675" lon="11.378278814581625"><ele>153.0</ele><time>2026-05-01T10:26:41Z</time></trkpt><trkpt lat="45.591259520421545" lon="11.378392884762851"><ele>153.5</ele><time>2026-05-01T10:26:42Z</time></trkpt><trkpt lat="45.59150022186532" lon="11.378510872781181"><ele>154.0</ele><time>2026-05-01T10:26:43Z</time></trkpt><trkpt lat="45.591736944832526" lon="11.378642473234969"><ele>154.0</ele><time>2026-05-01T10:26:44Z</time></trkpt><trkpt lat="45.59197993852115" lon="11.378783311947338"><ele>154.0</ele><time>2026-05-01T10:26:45Z</time></trkpt><trkpt lat="45.59222916483266" lon="11.378937017184132"><ele>153.0</ele><time>2026-05-01T10:26:46.021Z</time></trkpt><trkpt lat="45.59247327394915" lon="11.379096965671229"><ele>152.0</ele><time>2026-05-01T10:26:47.02Z</time></trkpt><trkpt lat="45.592720068794364" lon="11.37925685565638"><ele>152.5</ele><time>2026-05-01T10:26:48.02Z</time></trkpt><trkpt lat="45.592970109869306" lon="11.379416972543819"><ele>153.0</ele><time>2026-05-01T10:26:49.022Z</time></trkpt><trkpt lat="45.59489623182043" lon="11.380668338398804"><ele>151.5</ele><time>2026-05-01T10:26:56Z</time></trkpt><trkpt lat="45.595173181660336" lon="11.380840318675503"><ele>150.0</ele><time>2026-05-01T10:26:57Z</time></trkpt><trkpt lat="45.59545163057978" lon="11.381003687672589"><ele>149.5</ele><time>2026-05-01T10:26:58Z</time></trkpt><trkpt lat="45.595746128775374" lon="11.381171410464244"><ele>149.0</ele><time>2026-05-01T10:26:59Z</time></trkpt><trkpt lat="45.59603324654045" lon="11.381326751917243"><ele>149.5</ele><time>2026-05-01T10:27:00Z</time></trkpt><trkpt lat="45.59633066905262" lon="11.381493949693933"><ele>150.0</ele><time>2026-05-01T10:27:01Z</time></trkpt><trkpt lat="45.59661590435989" lon="11.381617134079956"><ele>150.0</ele><time>2026-05-01T10:27:02Z</time></trkpt><trkpt lat="45.59690173028472" lon="11.38178887530805"><ele>150.0</ele><time>2026-05-01T10:27:03Z</time></trkpt><trkpt lat="45.59720800513179" lon="11.381950144031569"><ele>151.0</ele><time>2026-05-01T10:27:04Z</time></trkpt><trkpt lat="45.59751700618381" lon="11.382133116153279"><ele>152.0</ele><time>2026-05-01T10:27:05Z</time></trkpt><trkpt lat="45.59781546409667" lon="11.3823149891479"><ele>152.5</ele><time>2026-05-01T10:27:06Z</time></trkpt><trkpt lat="45.59811935790915" lon="11.382490647405314"><ele>153.0</ele><time>2026-05-01T10:27:07Z</time></trkpt><trkpt lat="45.59842708179228" lon="11.382664186707082"><ele>151.0</ele><time>2026-05-01T10:27:08.023Z</time></trkpt><trkpt lat="45.59933905959651" lon="11.383154829974643"><ele>151.0</ele><time>2026-05-01T10:27:11Z</time></trkpt><trkpt lat="45.59964502939761" lon="11.383322963374464"><ele>151.0</ele><time>2026-05-01T10:27:12Z</time></trkpt><trkpt lat="45.59997377011457" lon="11.38350145919095"><ele>151.0</ele><time>2026-05-01T10:27:13Z</time></trkpt><trkpt lat="45.60030024324125" lon="11.383634174575231"><ele>151.0</ele><time>2026-05-01T10:27:14Z</time></trkpt><trkpt lat="45.60062626003231" lon="11.383767400501455"><ele>150.5</ele><time>2026-05-01T10:27:15Z</time></trkpt><trkpt lat="45.600957332476916" lon="11.383900383082288"><ele>150.0</ele><time>2026-05-01T10:27:16Z</time></trkpt><trkpt lat="45.6013082479843" lon="11.384015984474388"><ele>149.0</ele><time>2026-05-01T10:27:17Z</time></trkpt><trkpt lat="45.601632501860124" lon="11.384133750909985"><ele>148.0</ele><time>2026-05-01T10:27:18Z</time></trkpt><trkpt lat="45.60196087458496" lon="11.384252783844905"><ele>148.5</ele><time>2026-05-01T10:27:19Z</time></trkpt><trkpt lat="45.6023010882678" lon="11.38437586662427"><ele>149.0</ele><time>2026-05-01T10:27:20.028Z</time></trkpt><trkpt lat="45.60298054495294" lon="11.384597008223892"><ele>149.0</ele><time>2026-05-01T10:27:22.022Z</time></trkpt><trkpt lat="45.60331674181646" lon="11.384714653364357"><ele>149.0</ele><time>2026-05-01T10:27:23.025Z</time></trkpt><trkpt lat="45.605305856787304" lon="11.385235800086258"><ele>154.0</ele><time>2026-05-01T10:27:26.812Z</time></trkpt><trkpt lat="45.60628706754823" lon="11.385410590723309"><ele>155.0</ele><time>2026-05-01T10:27:27.811Z</time></trkpt><trkpt lat="45.60726597184123" lon="11.385618005761259"><ele>157.0</ele><time>2026-05-01T10:27:28.811Z</time></trkpt><trkpt lat="45.60824514335602" lon="11.385824370379995"><ele>159.0</ele><time>2026-05-01T10:27:29.811Z</time></trkpt><trkpt lat="45.60922584796622" lon="11.386023906693628"><ele>162.0</ele><time>2026-05-01T10:27:30.812Z</time></trkpt><trkpt lat="45.61020468766658" lon="11.386222424389787"><ele>170.0</ele><time>2026-05-01T10:27:31.811Z</time></trkpt><trkpt lat="45.6111840209747" lon="11.386425336645052"><ele>172.0</ele><time>2026-05-01T10:27:32.811Z</time></trkpt><trkpt lat="45.61216305380363" lon="11.386632247313342"><ele>182.0</ele><time>2026-05-01T10:27:33.811Z</time></trkpt><trkpt lat="45.61313425184463" lon="11.386901417543994"><ele>195.0</ele><time>2026-05-01T10:27:34.811Z</time></trkpt><trkpt lat="45.61408230605896" lon="11.387298554316168"><ele>214.0</ele><time>2026-05-01T10:27:35.809Z</time></trkpt><trkpt lat="45.61501809261053" lon="11.387763020647482"><ele>247.0</ele><time>2026-05-01T10:27:36.811Z</time></trkpt><trkpt lat="45.61594627571117" lon="11.388252732548915"><ele>288.0</ele><time>2026-05-01T10:27:37.811Z</time></trkpt><trkpt lat="45.61687130139352" lon="11.388753833355446"><ele>341.0</ele><time>2026-05-01T10:27:38.811Z</time></trkpt><trkpt lat="45.61779330232576" lon="11.389266495186815"><ele>442.0</ele><time>2026-05-01T10:27:39.811Z</time></trkpt><trkpt lat="45.61871393271507" lon="11.38978867019784"><ele>475.0</ele><time>2026-05-01T10:27:40.812Z</time></trkpt><trkpt lat="45.619630658952495" lon="11.390315924478234"><ele>464.0</ele><time>2026-05-01T10:27:41.811Z</time></trkpt><trkpt lat="45.62054559805307" lon="11.390856312257482"><ele>435.0</ele><time>2026-05-01T10:27:42.811Z</time></trkpt><trkpt lat="45.62143466833434" lon="11.39147249026353"><ele>424.0</ele><time>2026-05-01T10:27:43.811Z</time></trkpt><trkpt lat="45.622333050943354" lon="11.39206398609215"><ele>338.0</ele><time>2026-05-01T10:27:44.811Z</time></trkpt><trkpt lat="45.62323083973666" lon="11.39265749862612"><ele>259.0</ele><time>2026-05-01T10:27:45.811Z</time></trkpt><trkpt lat="45.624127064637214" lon="11.39325872688245"><ele>217.0</ele><time>2026-05-01T10:27:46.812Z</time></trkpt><trkpt lat="45.6250124150641" lon="11.393886371540024"><ele>187.0</ele><time>2026-05-01T10:27:47.811Z</time></trkpt><trkpt lat="45.62588860014635" lon="11.394542231198233"><ele>208.0</ele><time>2026-05-01T10:27:48.811Z</time></trkpt><trkpt lat="45.62674820522335" lon="11.395241160163339"><ele>225.0</ele><time>2026-05-01T10:27:49.811Z</time></trkpt><trkpt lat="45.62758678895261" lon="11.395990166072714"><ele>219.0</ele><time>2026-05-01T10:27:50.811Z</time></trkpt><trkpt lat="45.628415752297634" lon="11.39676064381645"><ele>251.0</ele><time>2026-05-01T10:27:51.811Z</time></trkpt><trkpt lat="45.62924012441702" lon="11.397541343364798"><ele>285.0</ele><time>2026-05-01T10:27:52.811Z</time></trkpt><trkpt lat="45.63006272791498" lon="11.398325547986856"><ele>255.0</ele><time>2026-05-01T10:27:53.811Z</time></trkpt><trkpt lat="45.630880272615244" lon="11.39912054529719"><ele>233.0</ele><time>2026-05-01T10:27:54.811Z</time></trkpt><trkpt lat="45.63167485099699" lon="11.399963732296852"><ele>253.0</ele><time>2026-05-01T10:27:55.812Z</time></trkpt><trkpt lat="45.632450121294134" lon="11.400838111005672"><ele>272.0</ele><time>2026-05-01T10:27:56.811Z</time></trkpt><trkpt lat="45.63319948481752" lon="11.401759041035245"><ele>312.0</ele><time>2026-05-01T10:27:57.811Z</time></trkpt><trkpt lat="45.633895987860036" lon="11.402760973416136"><ele>358.0</ele><time>2026-05-01T10:27:58.811Z</time></trkpt><trkpt lat="45.634575796435655" lon="11.403786148694186"><ele>351.0</ele><time>2026-05-01T10:27:59.811Z</time></trkpt><trkpt lat="45.635251578800805" lon="11.404818976539728"><ele>321.0</ele><time>2026-05-01T10:28:00.812Z</time></trkpt><trkpt lat="45.63591988617396" lon="11.405857499824883"><ele>317.0</ele><time>2026-05-01T10:28:01.811Z</time></trkpt><trkpt lat="45.6365997853735" lon="11.40688331860839"><ele>306.0</ele><time>2026-05-01T10:28:02.811Z</time></trkpt><trkpt lat="45.63728609162936" lon="11.407899074564085"><ele>264.0</ele><time>2026-05-01T10:28:03.811Z</time></trkpt><trkpt lat="45.63795280013155" lon="11.40894149472703"><ele>261.0</ele><time>2026-05-01T10:28:04.811Z</time></trkpt><trkpt lat="45.638599980621265" lon="11.41001100674301"><ele>273.0</ele><time>2026-05-01T10:28:05.812Z</time></trkpt><trkpt lat="45.639242463747436" lon="11.411082068176613"><ele>298.0</ele><time>2026-05-01T10:28:06.811Z</time></trkpt><trkpt lat="45.63989141135923" lon="11.412147284657536"><ele>259.0</ele><time>2026-05-01T10:28:07.811Z</time></trkpt><trkpt lat="45.64049934116025" lon="11.413260215562817"><ele>249.0</ele><time>2026-05-01T10:28:08.811Z</time></trkpt><trkpt lat="45.64106572551857" lon="11.414417154293842"><ele>189.0</ele><time>2026-05-01T10:28:09.811Z</time></trkpt><trkpt lat="45.6416196385475" lon="11.415588139787328"><ele>166.0</ele><time>2026-05-01T10:28:10.812Z</time></trkpt><trkpt lat="45.642140994126684" lon="11.416785327801938"><ele>151.0</ele><time>2026-05-01T10:28:11.811Z</time></trkpt><trkpt lat="45.64260029671862" lon="11.418034436870213"><ele>151.0</ele><time>2026-05-01T10:28:12.811Z</time></trkpt><trkpt lat="45.643040861158454" lon="11.419297956455397"><ele>135.0</ele><time>2026-05-01T10:28:13.811Z</time></trkpt><trkpt lat="45.643481993781144" lon="11.420561084237743"><ele>94.0</ele><time>2026-05-01T10:28:14.811Z</time></trkpt><trkpt lat="45.64392382727833" lon="11.421825314946307"><ele>89.0</ele><time>2026-05-01T10:28:15.812Z</time></trkpt><trkpt lat="45.64436509416797" lon="11.423086533820435"><ele>92.0</ele><time>2026-05-01T10:28:16.811Z</time></trkpt><trkpt lat="45.6447307" lon="11.4241315"><ele>93.0</ele><time>2026-05-01T10:28:17.812Z</time></trkpt><trkpt lat="45.64517184860553" lon="11.425393040139548"><ele>94.0</ele><time>2026-05-01T10:28:18.811Z</time></trkpt><trkpt lat="45.6456143138472" lon="11.426656614536842"><ele>94.0</ele><time>2026-05-01T10:28:19.811Z</time></trkpt><trkpt lat="45.64620215450008" lon="11.428334880630883"><ele>94.0</ele><time>2026-05-01T10:30:05.999Z</time></trkpt><trkpt lat="45.64633553392269" lon="11.42874341998402"><ele>94.0</ele><time>2026-05-01T10:30:06.999Z</time></trkpt><trkpt lat="45.6464946172418" lon="11.429181585487349"><ele>94.0</ele><time>2026-05-01T10:30:07.999Z</time></trkpt><trkpt lat="45.646606836561986" lon="11.42959359457605"><ele>94.0</ele><time>2026-05-01T10:30:08.999Z</time></trkpt><trkpt lat="45.64672698674029" lon="11.430004467095966"><ele>94.0</ele><time>2026-05-01T10:30:09.999Z</time></trkpt><trkpt lat="45.646836573944896" lon="11.43040898591273"><ele>94.0</ele><time>2026-05-01T10:30:10.999Z</time></trkpt><trkpt lat="45.646942089300374" lon="11.430820850360252"><ele>93.0</ele><time>2026-05-01T10:30:12Z</time></trkpt><trkpt lat="45.64704885467064" lon="11.431240508792726"><ele>92.0</ele><time>2026-05-01T10:30:13Z</time></trkpt><trkpt lat="45.6471451200574" lon="11.431659598859648"><ele>91.5</ele><time>2026-05-01T10:30:14Z</time></trkpt><trkpt lat="45.64724167702676" lon="11.432082735075882"><ele>91.0</ele><time>2026-05-01T10:30:15Z</time></trkpt><trkpt lat="45.647332836538816" lon="11.432513630481859"><ele>90.0</ele><time>2026-05-01T10:30:16Z</time></trkpt><trkpt lat="45.64741564212029" lon="11.43294387180804"><ele>89.0</ele><time>2026-05-01T10:30:17Z</time></trkpt><trkpt lat="45.647497852926584" lon="11.43337645269637"><ele>89.0</ele><time>2026-05-01T10:30:18Z</time></trkpt><trkpt lat="45.64757288235223" lon="11.433814500567214"><ele>89.0</ele><time>2026-05-01T10:30:19Z</time></trkpt><trkpt lat="45.647647445777935" lon="11.4342530696323"><ele>89.0</ele><time>2026-05-01T10:30:20Z</time></trkpt><trkpt lat="45.64772370492467" lon="11.43470478303374"><ele>89.0</ele><time>2026-05-01T10:30:21Z</time></trkpt><trkpt lat="45.64779829036034" lon="11.435148873708599"><ele>89.0</ele><time>2026-05-01T10:30:22Z</time></trkpt><trkpt lat="45.64787628370518" lon="11.435599316269492"><ele>89.0</ele><time>2026-05-01T10:30:23Z</time></trkpt><trkpt lat="45.64794737671453" lon="11.436055054685722"><ele>88.5</ele><time>2026-05-01T10:30:24Z</time></trkpt><trkpt lat="45.64802101742499" lon="11.4365207975313"><ele>88.0</ele><time>2026-05-01T10:30:25Z</time></trkpt><trkpt lat="45.64809320944225" lon="11.436988695333817"><ele>88.5</ele><time>2026-05-01T10:30:26Z</time></trkpt><trkpt lat="45.64816405428896" lon="11.437461840820417"><ele>89.0</ele><time>2026-05-01T10:30:27Z</time></trkpt><trkpt lat="45.64824098690523" lon="11.437923265610069"><ele>89.5</ele><time>2026-05-01T10:30:28Z</time></trkpt><trkpt lat="45.64830999669962" lon="11.438399836800372"><ele>90.0</ele><time>2026-05-01T10:30:29Z</time></trkpt><trkpt lat="45.64837625987231" lon="11.438879176630484"><ele>90.5</ele><time>2026-05-01T10:30:30Z</time></trkpt><trkpt lat="45.648443907397734" lon="11.439363269430316"><ele>91.0</ele><time>2026-05-01T10:30:31Z</time></trkpt><trkpt lat="45.648507519372096" lon="11.439842484241725"><ele>91.5</ele><time>2026-05-01T10:30:32Z</time></trkpt><trkpt lat="45.64856914530503" lon="11.440322532524199"><ele>92.0</ele><time>2026-05-01T10:30:33Z</time></trkpt><trkpt lat="45.64862065848617" lon="11.44080533408366"><ele>92.0</ele><time>2026-05-01T10:30:34Z</time></trkpt><trkpt lat="45.64866239807097" lon="11.441292384551897"><ele>92.0</ele><time>2026-05-01T10:30:35Z</time></trkpt><trkpt lat="45.648701170330874" lon="11.441778043390919"><ele>91.0</ele><time>2026-05-01T10:30:36Z</time></trkpt><trkpt lat="45.64873371391172" lon="11.442262851605475"><ele>90.0</ele><time>2026-05-01T10:30:37Z</time></trkpt><trkpt lat="45.64876570081043" lon="11.442751096916403"><ele>90.0</ele><time>2026-05-01T10:30:38Z</time></trkpt><trkpt lat="45.64879039922803" lon="11.443241886877509"><ele>90.0</ele><time>2026-05-01T10:30:39Z</time></trkpt><trkpt lat="45.64881209679183" lon="11.443728644635348"><ele>89.5</ele><time>2026-05-01T10:30:40Z</time></trkpt><trkpt lat="45.648826899222755" lon="11.444217954683642"><ele>89.0</ele><time>2026-05-01T10:30:41Z</time></trkpt><trkpt lat="45.648836524709196" lon="11.44470460476743"><ele>89.0</ele><time>2026-05-01T10:30:42Z</time></trkpt><trkpt lat="45.64884596336759" lon="11.445195106245821"><ele>89.0</ele><time>2026-05-01T10:30:43Z</time></trkpt><trkpt lat="45.64884755164974" lon="11.445684982905961"><ele>89.0</ele><time>2026-05-01T10:30:44Z</time></trkpt><trkpt lat="45.64884356946271" lon="11.446175196597228"><ele>89.0</ele><time>2026-05-01T10:30:45Z</time></trkpt><trkpt lat="45.648832010546926" lon="11.446665242235827"><ele>89.0</ele><time>2026-05-01T10:30:46Z</time></trkpt><trkpt lat="45.648818889140124" lon="11.447152338120324"><ele>89.0</ele><time>2026-05-01T10:30:47Z</time></trkpt><trkpt lat="45.64880499253982" lon="11.447643973322075"><ele>89.0</ele><time>2026-05-01T10:30:48Z</time></trkpt><trkpt lat="45.64878815504426" lon="11.44813356185603"><ele>89.0</ele><time>2026-05-01T10:30:49Z</time></trkpt><trkpt lat="45.64877182223346" lon="11.448625598033795"><ele>88.5</ele><time>2026-05-01T10:30:50Z</time></trkpt><trkpt lat="45.648758068993466" lon="11.449115334459018"><ele>88.0</ele><time>2026-05-01T10:30:51Z</time></trkpt><trkpt lat="45.648744479363245" lon="11.449602709639331"><ele>88.0</ele><time>2026-05-01T10:30:52Z</time></trkpt><trkpt lat="45.64872992877697" lon="11.450088138907423"><ele>88.0</ele><time>2026-05-01T10:30:53Z</time></trkpt><trkpt lat="45.64872292520334" lon="11.450577611889797"><ele>88.0</ele><time>2026-05-01T10:30:54Z</time></trkpt><trkpt lat="45.648723626117814" lon="11.451061339326037"><ele>88.0</ele><time>2026-05-01T10:30:55Z</time></trkpt><trkpt lat="45.648725897683384" lon="11.451544245525248"><ele>88.5</ele><time>2026-05-01T10:30:56Z</time></trkpt><trkpt lat="45.64873241182109" lon="11.452028828921415"><ele>89.0</ele><time>2026-05-01T10:30:57Z</time></trkpt><trkpt lat="45.648746599960994" lon="11.45251214083296"><ele>87.5</ele><time>2026-05-01T10:30:58Z</time></trkpt><trkpt lat="45.64877078318004" lon="11.452996717046872"><ele>86.0</ele><time>2026-05-01T10:30:59Z</time></trkpt><trkpt lat="45.64879751393249" lon="11.453480743101027"><ele>85.5</ele><time>2026-05-01T10:31:00Z</time></trkpt><trkpt lat="45.648832040732856" lon="11.453964215443873"><ele>85.0</ele><time>2026-05-01T10:31:01Z</time></trkpt><trkpt lat="45.64887416651541" lon="11.454446138187588"><ele>84.5</ele><time>2026-05-01T10:31:02Z</time></trkpt><trkpt lat="45.64892548351022" lon="11.454926517295906"><ele>84.0</ele><time>2026-05-01T10:31:03Z</time></trkpt><trkpt lat="45.6489782049329" lon="11.455401323039794"><ele>84.5</ele><time>2026-05-01T10:31:04Z</time></trkpt><trkpt lat="45.649040485464646" lon="11.455877076963878"><ele>85.0</ele><time>2026-05-01T10:31:05Z</time></trkpt><trkpt lat="45.64911017438589" lon="11.456353775911182"><ele>85.0</ele><time>2026-05-01T10:31:06Z</time></trkpt><trkpt lat="45.649177855218745" lon="11.45683551048343"><ele>85.0</ele><time>2026-05-01T10:31:07Z</time></trkpt><trkpt lat="45.64925064533656" lon="11.45731283008037"><ele>86.0</ele><time>2026-05-01T10:31:08Z</time></trkpt><trkpt lat="45.64933531046215" lon="11.45778896563831"><ele>87.0</ele><time>2026-05-01T10:31:09Z</time></trkpt><trkpt lat="45.64942580043872" lon="11.458262470712551"><ele>86.5</ele><time>2026-05-01T10:31:10Z</time></trkpt><trkpt lat="45.649529261078264" lon="11.458734019348396"><ele>86.0</ele><time>2026-05-01T10:31:11Z</time></trkpt><trkpt lat="45.649636894828724" lon="11.459204837833722"><ele>86.0</ele><time>2026-05-01T10:31:12Z</time></trkpt><trkpt lat="45.649744362729386" lon="11.459675729394297"><ele>86.0</ele><time>2026-05-01T10:31:13Z</time></trkpt><trkpt lat="45.649855413005" lon="11.46012994730401"><ele>85.0</ele><time>2026-05-01T10:31:14Z</time></trkpt><trkpt lat="45.649976195104486" lon="11.4605670141594"><ele>84.0</ele><time>2026-05-01T10:31:15Z</time></trkpt><trkpt lat="45.65010283343044" lon="11.461005769551793"><ele>84.0</ele><time>2026-05-01T10:31:16Z</time></trkpt><trkpt lat="45.650230869824455" lon="11.461450728043799"><ele>84.0</ele><time>2026-05-01T10:31:17Z</time></trkpt><trkpt lat="45.650360859347245" lon="11.461899382706525"><ele>82.5</ele><time>2026-05-01T10:31:18Z</time></trkpt><trkpt lat="45.65049698660776" lon="11.462349204037535"><ele>81.0</ele><time>2026-05-01T10:31:19Z</time></trkpt><trkpt lat="45.65063141717622" lon="11.462796235835807"><ele>79.5</ele><time>2026-05-01T10:31:20Z</time></trkpt><trkpt lat="45.65076557386301" lon="11.463239756890822"><ele>78.0</ele><time>2026-05-01T10:31:21Z</time></trkpt><trkpt lat="45.65090240804927" lon="11.463685703319644"><ele>79.5</ele><time>2026-05-01T10:31:22Z</time></trkpt><trkpt lat="45.65104694166983" lon="11.464123336913454"><ele>81.0</ele><time>2026-05-01T10:31:23Z</time></trkpt><trkpt lat="45.65118996909219" lon="11.464568789543792"><ele>81.0</ele><time>2026-05-01T10:31:24Z</time></trkpt><trkpt lat="45.65133007915208" lon="11.465016151808332"><ele>81.0</ele><time>2026-05-01T10:31:25Z</time></trkpt><trkpt lat="45.65146836635816" lon="11.465458937539234"><ele>80.5</ele><time>2026-05-01T10:31:26Z</time></trkpt><trkpt lat="45.6516080837064" lon="11.465899151283386"><ele>80.0</ele><time>2026-05-01T10:31:27Z</time></trkpt><trkpt lat="45.65175057482288" lon="11.466343161603382"><ele>81.5</ele><time>2026-05-01T10:31:28Z</time></trkpt><trkpt lat="45.6518900923376" lon="11.466785546164711"><ele>83.0</ele><time>2026-05-01T10:31:29Z</time></trkpt><trkpt lat="45.6520294730495" lon="11.467227549153453"><ele>83.0</ele><time>2026-05-01T10:31:30Z</time></trkpt><trkpt lat="45.652179587933645" lon="11.467668794185773"><ele>83.0</ele><time>2026-05-01T10:31:31Z</time></trkpt><trkpt lat="45.6523345056304" lon="11.46810849698164"><ele>82.5</ele><time>2026-05-01T10:31:32Z</time></trkpt><trkpt lat="45.652493007530616" lon="11.468544145914885"><ele>82.0</ele><time>2026-05-01T10:31:33Z</time></trkpt><trkpt lat="45.65265546922781" lon="11.46897455020602"><ele>81.5</ele><time>2026-05-01T10:31:34Z</time></trkpt><trkpt lat="45.65281890185542" lon="11.469403820379467"><ele>81.0</ele><time>2026-05-01T10:31:35Z</time></trkpt><trkpt lat="45.65298452144561" lon="11.469831997563407"><ele>81.0</ele><time>2026-05-01T10:31:36Z</time></trkpt><trkpt lat="45.65315088014401" lon="11.470256111904394"><ele>81.0</ele><time>2026-05-01T10:31:37Z</time></trkpt><trkpt lat="45.65332181688449" lon="11.47067664410132"><ele>81.0</ele><time>2026-05-01T10:31:38Z</time></trkpt><trkpt lat="45.65349666358929" lon="11.471090739687385"><ele>81.0</ele><time>2026-05-01T10:31:39Z</time></trkpt><trkpt lat="45.653681365736354" lon="11.471500208139492"><ele>81.0</ele><time>2026-05-01T10:31:40Z</time></trkpt><trkpt lat="45.653872188361035" lon="11.47190392438393"><ele>81.0</ele><time>2026-05-01T10:31:41Z</time></trkpt><trkpt lat="45.654067636484015" lon="11.472301042707816"><ele>81.0</ele><time>2026-05-01T10:31:42Z</time></trkpt><trkpt lat="45.6542601287421" lon="11.472694665357986"><ele>81.0</ele><time>2026-05-01T10:31:43Z</time></trkpt><trkpt lat="45.65445425557784" lon="11.473086844441104"><ele>81.0</ele><time>2026-05-01T10:31:44Z</time></trkpt><trkpt lat="45.65465153374448" lon="11.473485157468263"><ele>81.0</ele><time>2026-05-01T10:31:45.018Z</time></trkpt><trkpt lat="45.654847257747534" lon="11.473878594044447"><ele>81.0</ele><time>2026-05-01T10:31:46.024Z</time></trkpt><trkpt lat="45.65504188034965" lon="11.474270458119754"><ele>81.0</ele><time>2026-05-01T10:31:47.023Z</time></trkpt><trkpt lat="45.6552372930395" lon="11.474662030834589"><ele>81.0</ele><time>2026-05-01T10:31:48.022Z</time></trkpt><trkpt lat="45.65577990379711" lon="11.475366577516752"><ele>81.0</ele><time>2026-05-01T10:31:50Z</time></trkpt><trkpt lat="45.65598340415374" lon="11.475719546067719"><ele>81.0</ele><time>2026-05-01T10:31:51Z</time></trkpt><trkpt lat="45.65621550350059" lon="11.476087350139318"><ele>80.5</ele><time>2026-05-01T10:31:52Z</time></trkpt><trkpt lat="45.65644307041037" lon="11.476453764948259"><ele>80.0</ele><time>2026-05-01T10:31:53Z</time></trkpt><trkpt lat="45.65666593829237" lon="11.47682099010512"><ele>80.0</ele><time>2026-05-01T10:31:54Z</time></trkpt><trkpt lat="45.65689509559046" lon="11.477186324397605"><ele>80.0</ele><time>2026-05-01T10:31:54.999Z</time></trkpt><trkpt lat="45.657118715189235" lon="11.477554105990425"><ele>80.5</ele><time>2026-05-01T10:31:55.999Z</time></trkpt><trkpt lat="45.65734306357134" lon="11.477924934179846"><ele>81.0</ele><time>2026-05-01T10:31:56.999Z</time></trkpt><trkpt lat="45.657571114376665" lon="11.478306209830567"><ele>81.0</ele><time>2026-05-01T10:31:58.022Z</time></trkpt><trkpt lat="45.65779415856473" lon="11.478678772464539"><ele>81.0</ele><time>2026-05-01T10:31:59.021Z</time></trkpt><trkpt lat="45.65801963488466" lon="11.479047802695279"><ele>80.0</ele><time>2026-05-01T10:32:00.023Z</time></trkpt><trkpt lat="45.65823829624423" lon="11.479408637868204"><ele>79.0</ele><time>2026-05-01T10:32:00.999Z</time></trkpt><trkpt lat="45.658403881314314" lon="11.479826358539253"><ele>79.0</ele><time>2026-05-01T10:32:01.999Z</time></trkpt><trkpt lat="45.65860765836406" lon="11.480216844086081"><ele>79.0</ele><time>2026-05-01T10:32:02.999Z</time></trkpt><trkpt lat="45.658803179576594" lon="11.480610957435024"><ele>79.0</ele><time>2026-05-01T10:32:03.999Z</time></trkpt><trkpt lat="45.65899808486451" lon="11.481010953339334"><ele>79.0</ele><time>2026-05-01T10:32:04.999Z</time></trkpt><trkpt lat="45.659188516064084" lon="11.481414991701932"><ele>79.0</ele><time>2026-05-01T10:32:05.999Z</time></trkpt><trkpt lat="45.65936966055214" lon="11.48182673605131"><ele>79.0</ele><time>2026-05-01T10:32:06.999Z</time></trkpt><trkpt lat="45.659540194752715" lon="11.482242056685836"><ele>79.5</ele><time>2026-05-01T10:32:07.999Z</time></trkpt><trkpt lat="45.65971103771381" lon="11.482661344916947"><ele>80.0</ele><time>2026-05-01T10:32:08.999Z</time></trkpt><trkpt lat="45.659875174827434" lon="11.483087025442924"><ele>80.0</ele><time>2026-05-01T10:32:09.999Z</time></trkpt><trkpt lat="45.66003113031453" lon="11.483520348249401"><ele>80.0</ele><time>2026-05-01T10:32:10.999Z</time></trkpt><trkpt lat="45.660180481669066" lon="11.48395523357861"><ele>79.5</ele><time>2026-05-01T10:32:11.999Z</time></trkpt><trkpt lat="45.66032743992589" lon="11.48439539961672"><ele>79.0</ele><time>2026-05-01T10:32:12.999Z</time></trkpt><trkpt lat="45.66046570080555" lon="11.484840357783105"><ele>79.5</ele><time>2026-05-01T10:32:13.999Z</time></trkpt><trkpt lat="45.66059771860282" lon="11.485290717793042"><ele>80.0</ele><time>2026-05-01T10:32:14.999Z</time></trkpt><trkpt lat="45.6607298716624" lon="11.485745920075999"><ele>80.0</ele><time>2026-05-01T10:32:15.999Z</time></trkpt><trkpt lat="45.660856259873455" lon="11.486208392769711"><ele>80.0</ele><time>2026-05-01T10:32:16.999Z</time></trkpt><trkpt lat="45.66096832625634" lon="11.48666236504764"><ele>79.5</ele><time>2026-05-01T10:32:18Z</time></trkpt><trkpt lat="45.66107843950696" lon="11.487119467479225"><ele>79.0</ele><time>2026-05-01T10:32:19Z</time></trkpt><trkpt lat="45.66119068822857" lon="11.487582653119945"><ele>79.0</ele><time>2026-05-01T10:32:20Z</time></trkpt><trkpt lat="45.661301203224106" lon="11.4880448746078"><ele>79.0</ele><time>2026-05-01T10:32:21Z</time></trkpt><trkpt lat="45.66141075012209" lon="11.488507011987977"><ele>79.0</ele><time>2026-05-01T10:32:22Z</time></trkpt><trkpt lat="45.66151558110758" lon="11.488965890457184"><ele>79.0</ele><time>2026-05-01T10:32:23Z</time></trkpt><trkpt lat="45.661625790641274" lon="11.489426622185581"><ele>79.5</ele><time>2026-05-01T10:32:24Z</time></trkpt><trkpt lat="45.66173543205806" lon="11.489886622292289"><ele>80.0</ele><time>2026-05-01T10:32:25Z</time></trkpt><trkpt lat="45.66184685103631" lon="11.49034553147246"><ele>80.5</ele><time>2026-05-01T10:32:26Z</time></trkpt><trkpt lat="45.66195705474496" lon="11.490804877147026"><ele>81.0</ele><time>2026-05-01T10:32:27Z</time></trkpt><trkpt lat="45.66207368653994" lon="11.49127481168975"><ele>81.0</ele><time>2026-05-01T10:32:28Z</time></trkpt><trkpt lat="45.66218860589754" lon="11.491742510666265"><ele>81.0</ele><time>2026-05-01T10:32:29Z</time></trkpt><trkpt lat="45.66230685560868" lon="11.492220882528517"><ele>80.0</ele><time>2026-05-01T10:32:30.025Z</time></trkpt><trkpt lat="45.66241979325369" lon="11.492686590010896"><ele>79.0</ele><time>2026-05-01T10:32:31.023Z</time></trkpt><trkpt lat="45.66253492832888" lon="11.493149599815997"><ele>79.0</ele><time>2026-05-01T10:32:32.018Z</time></trkpt><trkpt lat="45.662653510833465" lon="11.493618293120822"><ele>79.0</ele><time>2026-05-01T10:32:33.023Z</time></trkpt><trkpt lat="45.66387799214054" lon="11.499128795108449"><ele>76.0</ele><time>2026-05-01T10:32:39.809Z</time></trkpt><trkpt lat="45.66419784962908" lon="11.50046628745233"><ele>76.0</ele><time>2026-05-01T10:32:40.81Z</time></trkpt><trkpt lat="45.663622009464596" lon="11.497746910656588"><ele>76.0</ele><time>2026-05-01T10:32:42Z</time></trkpt><trkpt lat="45.6637333067822" lon="11.498219883812856"><ele>76.0</ele><time>2026-05-01T10:32:43Z</time></trkpt><trkpt lat="45.6638279410046" lon="11.498663487877048"><ele>76.5</ele><time>2026-05-01T10:32:44Z</time></trkpt><trkpt lat="45.66393337868988" lon="11.499124113289806"><ele>77.0</ele><time>2026-05-01T10:32:45Z</time></trkpt><trkpt lat="45.664039598276" lon="11.499579518456965"><ele>77.0</ele><time>2026-05-01T10:32:46Z</time></trkpt><trkpt lat="45.66414083420876" lon="11.5000382381743"><ele>77.0</ele><time>2026-05-01T10:32:47Z</time></trkpt><trkpt lat="45.66424471717451" lon="11.500506865680801"><ele>76.5</ele><time>2026-05-01T10:32:48.024Z</time></trkpt><trkpt lat="45.66434334138965" lon="11.50096347199183"><ele>76.0</ele><time>2026-05-01T10:32:49.027Z</time></trkpt><trkpt lat="45.66444165534111" lon="11.501413729402799"><ele>76.0</ele><time>2026-05-01T10:32:50.018Z</time></trkpt><trkpt lat="45.66453534927018" lon="11.501868983375369"><ele>76.0</ele><time>2026-05-01T10:32:51.02Z</time></trkpt><trkpt lat="45.6646603655155" lon="11.502276934550668"><ele>76.5</ele><time>2026-05-01T10:32:52Z</time></trkpt><trkpt lat="45.66481176104817" lon="11.502806318339433"><ele>77.0</ele><time>2026-05-01T10:32:53Z</time></trkpt><trkpt lat="45.664920451676" lon="11.503264193637268"><ele>77.0</ele><time>2026-05-01T10:32:54Z</time></trkpt><trkpt lat="45.6650279343511" lon="11.503724913723232"><ele>77.0</ele><time>2026-05-01T10:32:55Z</time></trkpt><trkpt lat="45.66513886651113" lon="11.504184535610355"><ele>76.5</ele><time>2026-05-01T10:32:56Z</time></trkpt><trkpt lat="45.66524704046446" lon="11.504642464273102"><ele>76.0</ele><time>2026-05-01T10:32:57Z</time></trkpt><trkpt lat="45.66535496187868" lon="11.505103257819835"><ele>77.0</ele><time>2026-05-01T10:32:58Z</time></trkpt><trkpt lat="45.665462703765066" lon="11.5055619307792"><ele>78.0</ele><time>2026-05-01T10:32:59Z</time></trkpt><trkpt lat="45.66557129450653" lon="11.50602201096549"><ele>77.5</ele><time>2026-05-01T10:33:00Z</time></trkpt><trkpt lat="45.66567792639344" lon="11.506481987701585"><ele>77.0</ele><time>2026-05-01T10:33:01Z</time></trkpt><trkpt lat="45.66578464816575" lon="11.506943415192653"><ele>76.0</ele><time>2026-05-01T10:33:02Z</time></trkpt><trkpt lat="45.66589102142024" lon="11.5074066389176"><ele>75.0</ele><time>2026-05-01T10:33:03Z</time></trkpt><trkpt lat="45.66599956470707" lon="11.5078670685014"><ele>75.0</ele><time>2026-05-01T10:33:04Z</time></trkpt><trkpt lat="45.66610465418555" lon="11.508330678837252"><ele>75.0</ele><time>2026-05-01T10:33:05Z</time></trkpt><trkpt lat="45.66621173629886" lon="11.508795612307248"><ele>75.5</ele><time>2026-05-01T10:33:06Z</time></trkpt><trkpt lat="45.666319874534175" lon="11.509256939478421"><ele>76.0</ele><time>2026-05-01T10:33:07Z</time></trkpt><trkpt lat="45.66644070904621" lon="11.509712313972466"><ele>76.0</ele><time>2026-05-01T10:33:08Z</time></trkpt><trkpt lat="45.66657334867549" lon="11.510158061115305"><ele>76.0</ele><time>2026-05-01T10:33:09Z</time></trkpt><trkpt lat="45.66671751504888" lon="11.510598959202067"><ele>76.5</ele><time>2026-05-01T10:33:10Z</time></trkpt><trkpt lat="45.66687304366758" lon="11.51102371581138"><ele>77.0</ele><time>2026-05-01T10:33:11Z</time></trkpt><trkpt lat="45.667038181745994" lon="11.511452144108238"><ele>77.0</ele><time>2026-05-01T10:33:12Z</time></trkpt><trkpt lat="45.66721690197641" lon="11.511870236484121"><ele>77.0</ele><time>2026-05-01T10:33:13Z</time></trkpt><trkpt lat="45.667406009452385" lon="11.51228145275357"><ele>76.5</ele><time>2026-05-01T10:33:14Z</time></trkpt><trkpt lat="45.667602820584236" lon="11.512683001828584"><ele>76.0</ele><time>2026-05-01T10:33:15Z</time></trkpt><trkpt lat="45.667806751667044" lon="11.51307455667941"><ele>77.0</ele><time>2026-05-01T10:33:16Z</time></trkpt><trkpt lat="45.66801677636548" lon="11.51345086161984"><ele>78.0</ele><time>2026-05-01T10:33:17Z</time></trkpt><trkpt lat="45.66823864079267" lon="11.513818126109156"><ele>78.5</ele><time>2026-05-01T10:33:18Z</time></trkpt><trkpt lat="45.66847318431495" lon="11.514175852579605"><ele>79.0</ele><time>2026-05-01T10:33:19Z</time></trkpt><trkpt lat="45.66871600205315" lon="11.514518884511924"><ele>79.0</ele><time>2026-05-01T10:33:20Z</time></trkpt><trkpt lat="45.668963319595726" lon="11.514853703681728"><ele>79.0</ele><time>2026-05-01T10:33:21Z</time></trkpt><trkpt lat="45.6692172232387" lon="11.51517500037056"><ele>79.0</ele><time>2026-05-01T10:33:22Z</time></trkpt><trkpt lat="45.669478333102234" lon="11.515484652708402"><ele>79.0</ele><time>2026-05-01T10:33:23Z</time></trkpt><trkpt lat="45.66974766852374" lon="11.515781254612513"><ele>79.0</ele><time>2026-05-01T10:33:24Z</time></trkpt><trkpt lat="45.67002528330661" lon="11.51606209549269"><ele>79.0</ele><time>2026-05-01T10:33:25Z</time></trkpt><trkpt lat="45.67030599321032" lon="11.51632944840066"><ele>80.0</ele><time>2026-05-01T10:33:26Z</time></trkpt><trkpt lat="45.67059746717622" lon="11.516580260470336"><ele>81.0</ele><time>2026-05-01T10:33:27Z</time></trkpt><trkpt lat="45.670894398992424" lon="11.516817441675324"><ele>81.0</ele><time>2026-05-01T10:33:28Z</time></trkpt><trkpt lat="45.67119427602593" lon="11.517044360083709"><ele>81.0</ele><time>2026-05-01T10:33:29Z</time></trkpt><trkpt lat="45.67149319077218" lon="11.517259289248324"><ele>81.0</ele><time>2026-05-01T10:33:30Z</time></trkpt><trkpt lat="45.67180008322004" lon="11.51745846589913"><ele>81.0</ele><time>2026-05-01T10:33:31Z</time></trkpt><trkpt lat="45.672110254351466" lon="11.517644903335523"><ele>81.0</ele><time>2026-05-01T10:33:32Z</time></trkpt><trkpt lat="45.6724284694207" lon="11.517812372592354"><ele>81.0</ele><time>2026-05-01T10:33:33Z</time></trkpt><trkpt lat="45.672750298993826" lon="11.517962841143994"><ele>79.0</ele><time>2026-05-01T10:33:34Z</time></trkpt><trkpt lat="45.673077228354344" lon="11.51809929801306"><ele>77.0</ele><time>2026-05-01T10:33:35Z</time></trkpt><trkpt lat="45.673408250253175" lon="11.518215080124373"><ele>78.0</ele><time>2026-05-01T10:33:36Z</time></trkpt><trkpt lat="45.67374212914742" lon="11.518314310735215"><ele>79.0</ele><time>2026-05-01T10:33:37Z</time></trkpt><trkpt lat="45.674080520159016" lon="11.518388511543836"><ele>79.0</ele><time>2026-05-01T10:33:38Z</time></trkpt><trkpt lat="45.67441855716489" lon="11.518449402297145"><ele>79.0</ele><time>2026-05-01T10:33:39Z</time></trkpt><trkpt lat="45.674758393459356" lon="11.518507214132118"><ele>80.5</ele><time>2026-05-01T10:33:40Z</time></trkpt><trkpt lat="45.675098589837404" lon="11.518556182472803"><ele>82.0</ele><time>2026-05-01T10:33:41Z</time></trkpt><trkpt lat="45.67543982416501" lon="11.51860190905502"><ele>82.0</ele><time>2026-05-01T10:33:42Z</time></trkpt><trkpt lat="45.675780257569855" lon="11.518647164388286"><ele>82.0</ele><time>2026-05-01T10:33:43Z</time></trkpt><trkpt lat="45.676121738049346" lon="11.518690424838645"><ele>83.0</ele><time>2026-05-01T10:33:44Z</time></trkpt><trkpt lat="45.6764638655037" lon="11.518736574746633"><ele>84.0</ele><time>2026-05-01T10:33:45Z</time></trkpt><trkpt lat="45.67680384277211" lon="11.518789440190929"><ele>84.0</ele><time>2026-05-01T10:33:46Z</time></trkpt><trkpt lat="45.677144703391775" lon="11.518845058722349"><ele>84.0</ele><time>2026-05-01T10:33:47Z</time></trkpt><trkpt lat="45.67748473724939" lon="11.51890203992163"><ele>84.0</ele><time>2026-05-01T10:33:48Z</time></trkpt><trkpt lat="45.677826828751506" lon="11.518963961214178"><ele>84.0</ele><time>2026-05-01T10:33:49Z</time></trkpt><trkpt lat="45.678163758597414" lon="11.519033368278173"><ele>84.0</ele><time>2026-05-01T10:33:50Z</time></trkpt><trkpt lat="45.67849892735989" lon="11.519116079070841"><ele>84.0</ele><time>2026-05-01T10:33:51Z</time></trkpt><trkpt lat="45.678832713955224" lon="11.519215336607507"><ele>85.0</ele><time>2026-05-01T10:33:52Z</time></trkpt><trkpt lat="45.679166220418104" lon="11.519331338231828"><ele>86.0</ele><time>2026-05-01T10:33:53Z</time></trkpt><trkpt lat="45.67949734779352" lon="11.51946106955868"><ele>86.5</ele><time>2026-05-01T10:33:54Z</time></trkpt><trkpt lat="45.679822091866335" lon="11.519601732291202"><ele>87.0</ele><time>2026-05-01T10:33:55Z</time></trkpt><trkpt lat="45.68014590023439" lon="11.519754177127167"><ele>87.0</ele><time>2026-05-01T10:33:56Z</time></trkpt><trkpt lat="45.68046519302977" lon="11.519919306009314"><ele>87.0</ele><time>2026-05-01T10:33:57Z</time></trkpt><trkpt lat="45.68078029986988" lon="11.520102081095853"><ele>87.0</ele><time>2026-05-01T10:33:58Z</time></trkpt><trkpt lat="45.681089420359925" lon="11.52030375211869"><ele>87.0</ele><time>2026-05-01T10:33:59Z</time></trkpt><trkpt lat="45.6813959787101" lon="11.520517586869893"><ele>87.0</ele><time>2026-05-01T10:34:00Z</time></trkpt><trkpt lat="45.68169769127895" lon="11.520741931338188"><ele>87.0</ele><time>2026-05-01T10:34:01Z</time></trkpt><trkpt lat="45.681996466082" lon="11.520978086222879"><ele>87.0</ele><time>2026-05-01T10:34:02Z</time></trkpt><trkpt lat="45.682291965161504" lon="11.521225724591304"><ele>87.0</ele><time>2026-05-01T10:34:03Z</time></trkpt><trkpt lat="45.68258107106018" lon="11.521486522644679"><ele>88.5</ele><time>2026-05-01T10:34:04Z</time></trkpt><trkpt lat="45.682866535385806" lon="11.521759015704186"><ele>90.0</ele><time>2026-05-01T10:34:05Z</time></trkpt><trkpt lat="45.68314366516809" lon="11.522044031729132"><ele>89.5</ele><time>2026-05-01T10:34:06Z</time></trkpt><trkpt lat="45.68341614235311" lon="11.522340728994957"><ele>89.0</ele><time>2026-05-01T10:34:07Z</time></trkpt><trkpt lat="45.683678891725" lon="11.522650904469376"><ele>89.5</ele><time>2026-05-01T10:34:08Z</time></trkpt><trkpt lat="45.68393825299815" lon="11.522973297438039"><ele>90.0</ele><time>2026-05-01T10:34:09Z</time></trkpt><trkpt lat="45.68418389321556" lon="11.523309260576747"><ele>90.0</ele><time>2026-05-01T10:34:10Z</time></trkpt><trkpt lat="45.684426209205" lon="11.523653815100515"><ele>90.0</ele><time>2026-05-01T10:34:11Z</time></trkpt><trkpt lat="45.68466135474939" lon="11.52400712608267"><ele>89.5</ele><time>2026-05-01T10:34:12Z</time></trkpt><trkpt lat="45.684892018630215" lon="11.524367392539903"><ele>89.0</ele><time>2026-05-01T10:34:13Z</time></trkpt><trkpt lat="45.68511863556002" lon="11.524731715421657"><ele>91.5</ele><time>2026-05-01T10:34:14Z</time></trkpt><trkpt lat="45.68534385101966" lon="11.525098405959142"><ele>94.0</ele><time>2026-05-01T10:34:15Z</time></trkpt><trkpt lat="45.685567780085115" lon="11.525465331673423"><ele>94.0</ele><time>2026-05-01T10:34:15.999Z</time></trkpt><trkpt lat="45.68579352840802" lon="11.525832949237158"><ele>94.0</ele><time>2026-05-01T10:34:16.999Z</time></trkpt><trkpt lat="45.686020533648836" lon="11.52619917289045"><ele>94.5</ele><time>2026-05-01T10:34:17.999Z</time></trkpt><trkpt lat="45.686247204680996" lon="11.52656386250165"><ele>95.0</ele><time>2026-05-01T10:34:18.999Z</time></trkpt><trkpt lat="45.68647345755953" lon="11.526929967973913"><ele>94.0</ele><time>2026-05-01T10:34:19.999Z</time></trkpt><trkpt lat="45.68670197089268" lon="11.52730280595972"><ele>93.0</ele><time>2026-05-01T10:34:21.013Z</time></trkpt><trkpt lat="45.686926273972055" lon="11.527672219609613"><ele>93.5</ele><time>2026-05-01T10:34:22.014Z</time></trkpt><trkpt lat="45.68715070968255" lon="11.528041437995055"><ele>94.0</ele><time>2026-05-01T10:34:23.014Z</time></trkpt><trkpt lat="45.68737559211663" lon="11.528408321466888"><ele>102.0</ele><time>2026-05-01T10:34:24.013Z</time></trkpt><trkpt lat="45.69007446062349" lon="11.532760737474572"><ele>102.5</ele><time>2026-05-01T10:34:35.999Z</time></trkpt><trkpt lat="45.69035692463896" lon="11.533132733375515"><ele>103.0</ele><time>2026-05-01T10:34:36.999Z</time></trkpt><trkpt lat="45.690586619974624" lon="11.533478022590923"><ele>102.0</ele><time>2026-05-01T10:34:37.999Z</time></trkpt><trkpt lat="45.690818928901656" lon="11.53383224362867"><ele>101.0</ele><time>2026-05-01T10:34:39Z</time></trkpt><trkpt lat="45.69103946406065" lon="11.534193493569505"><ele>102.0</ele><time>2026-05-01T10:34:40Z</time></trkpt><trkpt lat="45.691260757056405" lon="11.534561203364118"><ele>103.0</ele><time>2026-05-01T10:34:41Z</time></trkpt><trkpt lat="45.691476319749" lon="11.534938070788435"><ele>103.0</ele><time>2026-05-01T10:34:42Z</time></trkpt><trkpt lat="45.69168591391886" lon="11.535322929452207"><ele>103.0</ele><time>2026-05-01T10:34:43Z</time></trkpt><trkpt lat="45.6918838590328" lon="11.535715706084734"><ele>102.5</ele><time>2026-05-01T10:34:44Z</time></trkpt><trkpt lat="45.69207269052382" lon="11.536117022688918"><ele>102.0</ele><time>2026-05-01T10:34:45Z</time></trkpt><trkpt lat="45.692257379844165" lon="11.536528004536537"><ele>102.0</ele><time>2026-05-01T10:34:46Z</time></trkpt><trkpt lat="45.69243785549531" lon="11.536942805721301"><ele>102.0</ele><time>2026-05-01T10:34:47Z</time></trkpt><trkpt lat="45.69261163797417" lon="11.537364514500991"><ele>103.0</ele><time>2026-05-01T10:34:48Z</time></trkpt><trkpt lat="45.69277819014816" lon="11.537791385973826"><ele>104.0</ele><time>2026-05-01T10:34:49Z</time></trkpt><trkpt lat="45.69293528036354" lon="11.538223674580168"><ele>104.0</ele><time>2026-05-01T10:34:50Z</time></trkpt><trkpt lat="45.69308366662318" lon="11.53866192713845"><ele>104.0</ele><time>2026-05-01T10:34:51Z</time></trkpt><trkpt lat="45.6932250915004" lon="11.539104507789453"><ele>104.0</ele><time>2026-05-01T10:34:52Z</time></trkpt><trkpt lat="45.69335998622679" lon="11.53955169644011"><ele>104.0</ele><time>2026-05-01T10:34:53Z</time></trkpt><trkpt lat="45.693491252717344" lon="11.540009014574725"><ele>104.0</ele><time>2026-05-01T10:34:54.017Z</time></trkpt><trkpt lat="45.69361364426581" lon="11.540462713781796"><ele>104.0</ele><time>2026-05-01T10:34:55.02Z</time></trkpt><trkpt lat="45.693723064956174" lon="11.540910865882918"><ele>104.5</ele><time>2026-05-01T10:34:56Z</time></trkpt><trkpt lat="45.693827353778865" lon="11.541375011008585"><ele>105.0</ele><time>2026-05-01T10:34:57Z</time></trkpt><trkpt lat="45.69392200520629" lon="11.541848158313368"><ele>104.0</ele><time>2026-05-01T10:34:58Z</time></trkpt><trkpt lat="45.69400206729258" lon="11.542317480436974"><ele>103.0</ele><time>2026-05-01T10:34:59Z</time></trkpt><trkpt lat="45.6940775593269" lon="11.54279371933328"><ele>102.5</ele><time>2026-05-01T10:35:00Z</time></trkpt><trkpt lat="45.69414726941205" lon="11.54326819973568"><ele>102.0</ele><time>2026-05-01T10:35:01Z</time></trkpt><trkpt lat="45.694211852760056" lon="11.543743849749251"><ele>102.0</ele><time>2026-05-01T10:35:02Z</time></trkpt><trkpt lat="45.69427012015349" lon="11.544220523240327"><ele>102.0</ele><time>2026-05-01T10:35:03Z</time></trkpt><trkpt lat="45.6943273386091" lon="11.544696247454176"><ele>103.0</ele><time>2026-05-01T10:35:04Z</time></trkpt><trkpt lat="45.694382470823136" lon="11.545174990989366"><ele>104.0</ele><time>2026-05-01T10:35:05Z</time></trkpt><trkpt lat="45.694434642282836" lon="11.545654248548232"><ele>103.0</ele><time>2026-05-01T10:35:06Z</time></trkpt><trkpt lat="45.694486425640726" lon="11.546133994847356"><ele>102.0</ele><time>2026-05-01T10:35:07Z</time></trkpt><trkpt lat="45.69453792476083" lon="11.5466166471586"><ele>102.5</ele><time>2026-05-01T10:35:08Z</time></trkpt><trkpt lat="45.69458976586381" lon="11.547098804633833"><ele>103.0</ele><time>2026-05-01T10:35:09Z</time></trkpt><trkpt lat="45.69464321776066" lon="11.547579824487883"><ele>102.0</ele><time>2026-05-01T10:35:10Z</time></trkpt><trkpt lat="45.69469645360671" lon="11.548062040347785"><ele>101.0</ele><time>2026-05-01T10:35:11Z</time></trkpt><trkpt lat="45.69475262437111" lon="11.548544946079856"><ele>98.0</ele><time>2026-05-01T10:35:12Z</time></trkpt><trkpt lat="45.69480788869285" lon="11.549028912321575"><ele>95.0</ele><time>2026-05-01T10:35:13Z</time></trkpt><trkpt lat="45.69485600105813" lon="11.549515098893275"><ele>95.5</ele><time>2026-05-01T10:35:14Z</time></trkpt><trkpt lat="45.694903341641606" lon="11.5499988270217"><ele>96.0</ele><time>2026-05-01T10:35:15Z</time></trkpt><trkpt lat="45.69495390040934" lon="11.55048426487864"><ele>98.0</ele><time>2026-05-01T10:35:16Z</time></trkpt><trkpt lat="45.69499906774512" lon="11.55097109317116"><ele>100.0</ele><time>2026-05-01T10:35:17Z</time></trkpt><trkpt lat="45.695046068436525" lon="11.551455456718072"><ele>100.5</ele><time>2026-05-01T10:35:18Z</time></trkpt><trkpt lat="45.69508965292037" lon="11.551941863082758"><ele>101.0</ele><time>2026-05-01T10:35:19Z</time></trkpt><trkpt lat="45.695132881321605" lon="11.552427610208058"><ele>100.5</ele><time>2026-05-01T10:35:20Z</time></trkpt><trkpt lat="45.695174462588625" lon="11.552914221460922"><ele>100.0</ele><time>2026-05-01T10:35:21Z</time></trkpt><trkpt lat="45.69521649057725" lon="11.553399485598773"><ele>100.5</ele><time>2026-05-01T10:35:22Z</time></trkpt><trkpt lat="45.69525661291525" lon="11.553882403685048"><ele>101.0</ele><time>2026-05-01T10:35:23Z</time></trkpt><trkpt lat="45.69529647016914" lon="11.554365255560503"><ele>102.5</ele><time>2026-05-01T10:35:24Z</time></trkpt><trkpt lat="45.695335564405674" lon="11.554848774954618"><ele>104.0</ele><time>2026-05-01T10:35:25Z</time></trkpt><trkpt lat="45.69537267020206" lon="11.555332197390735"><ele>104.5</ele><time>2026-05-01T10:35:26Z</time></trkpt><trkpt lat="45.69540953655492" lon="11.555817070544173"><ele>105.0</ele><time>2026-05-01T10:35:27Z</time></trkpt><trkpt lat="45.69544685698121" lon="11.556301113770992"><ele>105.0</ele><time>2026-05-01T10:35:28Z</time></trkpt><trkpt lat="45.69548092141159" lon="11.55678604996589"><ele>105.0</ele><time>2026-05-01T10:35:29Z</time></trkpt><trkpt lat="45.695512223386025" lon="11.557272344762472"><ele>104.0</ele><time>2026-05-01T10:35:30Z</time></trkpt><trkpt lat="45.6955401736093" lon="11.557758005381748"><ele>103.0</ele><time>2026-05-01T10:35:31Z</time></trkpt><trkpt lat="45.69556841432758" lon="11.558245973600366"><ele>103.0</ele><time>2026-05-01T10:35:32Z</time></trkpt><trkpt lat="45.695595876129396" lon="11.558732630106922"><ele>103.0</ele><time>2026-05-01T10:35:33Z</time></trkpt><trkpt lat="45.6956223706227" lon="11.559219553184949"><ele>102.5</ele><time>2026-05-01T10:35:34Z</time></trkpt><trkpt lat="45.69565152864689" lon="11.5597133628212"><ele>102.0</ele><time>2026-05-01T10:35:35Z</time></trkpt><trkpt lat="45.695676123375996" lon="11.560204707260443"><ele>102.0</ele><time>2026-05-01T10:35:36Z</time></trkpt><trkpt lat="45.69569457657418" lon="11.560686418717813"><ele>102.0</ele><time>2026-05-01T10:35:37Z</time></trkpt><trkpt lat="45.69571485634175" lon="11.561170819243248"><ele>101.5</ele><time>2026-05-01T10:35:38Z</time></trkpt><trkpt lat="45.69573428089336" lon="11.561655914069398"><ele>101.0</ele><time>2026-05-01T10:35:39Z</time></trkpt><trkpt lat="45.695751756644704" lon="11.562140559062108"><ele>101.0</ele><time>2026-05-01T10:35:40Z</time></trkpt><trkpt lat="45.69576756112164" lon="11.562626417938716"><ele>101.0</ele><time>2026-05-01T10:35:41Z</time></trkpt><trkpt lat="45.69578317748075" lon="11.563112112818166"><ele>101.0</ele><time>2026-05-01T10:35:42Z</time></trkpt><trkpt lat="45.69579674216817" lon="11.563599042693253"><ele>101.0</ele><time>2026-05-01T10:35:43Z</time></trkpt><trkpt lat="45.69580923691665" lon="11.564083735269799"><ele>100.5</ele><time>2026-05-01T10:35:44Z</time></trkpt><trkpt lat="45.695816796171805" lon="11.564577513726853"><ele>100.0</ele><time>2026-05-01T10:35:45Z</time></trkpt><trkpt lat="45.69583063751495" lon="11.565063317974891"><ele>98.5</ele><time>2026-05-01T10:35:46Z</time></trkpt><trkpt lat="45.69584334748427" lon="11.565551772180745"><ele>97.0</ele><time>2026-05-01T10:35:47Z</time></trkpt><trkpt lat="45.695855954844795" lon="11.566036448166107"><ele>96.5</ele><time>2026-05-01T10:35:48Z</time></trkpt><trkpt lat="45.695869923072955" lon="11.566513215147113"><ele>96.0</ele><time>2026-05-01T10:35:49Z</time></trkpt><trkpt lat="45.695883172980245" lon="11.56698694902328"><ele>96.5</ele><time>2026-05-01T10:35:50Z</time></trkpt><trkpt lat="45.69589483249011" lon="11.56745878310555"><ele>97.0</ele><time>2026-05-01T10:35:51Z</time></trkpt><trkpt lat="45.695907575564135" lon="11.567933597507514"><ele>97.0</ele><time>2026-05-01T10:35:52Z</time></trkpt><trkpt lat="45.695922706419914" lon="11.568410041166064"><ele>97.0</ele><time>2026-05-01T10:35:53Z</time></trkpt><trkpt lat="45.69593963212521" lon="11.568889956085048"><ele>96.5</ele><time>2026-05-01T10:35:54Z</time></trkpt><trkpt lat="45.69595671351109" lon="11.569376420546833"><ele>96.0</ele><time>2026-05-01T10:35:55Z</time></trkpt><trkpt lat="45.69597556191673" lon="11.569864027548274"><ele>96.0</ele><time>2026-05-01T10:35:56Z</time></trkpt><trkpt lat="45.69600164985316" lon="11.570351333637912"><ele>96.0</ele><time>2026-05-01T10:35:57Z</time></trkpt><trkpt lat="45.69603259234835" lon="11.570836779436629"><ele>96.0</ele><time>2026-05-01T10:35:58Z</time></trkpt><trkpt lat="45.69606654323012" lon="11.571328520607922"><ele>96.0</ele><time>2026-05-01T10:35:59Z</time></trkpt><trkpt lat="45.696104711584596" lon="11.571817664097251"><ele>96.0</ele><time>2026-05-01T10:36:00Z</time></trkpt><trkpt lat="45.69614906507888" lon="11.572310025657764"><ele>96.0</ele><time>2026-05-01T10:36:01Z</time></trkpt><trkpt lat="45.69619682304457" lon="11.572797398202791"><ele>95.5</ele><time>2026-05-01T10:36:02Z</time></trkpt><trkpt lat="45.69624772189388" lon="11.573281635780397"><ele>95.0</ele><time>2026-05-01T10:36:03Z</time></trkpt><trkpt lat="45.69630375019602" lon="11.573761232755965"><ele>95.0</ele><time>2026-05-01T10:36:04Z</time></trkpt><trkpt lat="45.69636318336363" lon="11.574240790523822"><ele>95.0</ele><time>2026-05-01T10:36:05Z</time></trkpt><trkpt lat="45.69642635285734" lon="11.574718089152439"><ele>95.5</ele><time>2026-05-01T10:36:06Z</time></trkpt><trkpt lat="45.69649425717102" lon="11.57519622159341"><ele>96.0</ele><time>2026-05-01T10:36:07Z</time></trkpt><trkpt lat="45.6965656119826" lon="11.575671529336839"><ele>95.0</ele><time>2026-05-01T10:36:08Z</time></trkpt><trkpt lat="45.696641215849624" lon="11.576145636997826"><ele>94.0</ele><time>2026-05-01T10:36:09Z</time></trkpt><trkpt lat="45.69671962921317" lon="11.576618653362196"><ele>92.5</ele><time>2026-05-01T10:36:10Z</time></trkpt><trkpt lat="45.696804420360316" lon="11.577089002274304"><ele>91.0</ele><time>2026-05-01T10:36:11Z</time></trkpt><trkpt lat="45.69689228304279" lon="11.577559890559527"><ele>92.5</ele><time>2026-05-01T10:36:12Z</time></trkpt><trkpt lat="45.696985568668836" lon="11.578027679511438"><ele>94.0</ele><time>2026-05-01T10:36:13Z</time></trkpt><trkpt lat="45.69708381662562" lon="11.578492503766611"><ele>94.5</ele><time>2026-05-01T10:36:14Z</time></trkpt><trkpt lat="45.69718722467478" lon="11.578953800062896"><ele>95.0</ele><time>2026-05-01T10:36:15Z</time></trkpt><trkpt lat="45.69729603991477" lon="11.579413875384484"><ele>95.0</ele><time>2026-05-01T10:36:16Z</time></trkpt><trkpt lat="45.69740883164534" lon="11.579870902716198"><ele>95.0</ele><time>2026-05-01T10:36:17Z</time></trkpt><trkpt lat="45.697517260524315" lon="11.58033600118719"><ele>94.5</ele><time>2026-05-01T10:36:18Z</time></trkpt><trkpt lat="45.6976338656992" lon="11.580791996441505"><ele>94.0</ele><time>2026-05-01T10:36:19Z</time></trkpt><trkpt lat="45.69775370534419" lon="11.581246155061622"><ele>93.5</ele><time>2026-05-01T10:36:20Z</time></trkpt><trkpt lat="45.69787664370014" lon="11.58170064805264"><ele>93.0</ele><time>2026-05-01T10:36:21Z</time></trkpt><trkpt lat="45.69800326665471" lon="11.58214954471253"><ele>92.5</ele><time>2026-05-01T10:36:22Z</time></trkpt><trkpt lat="45.698129755017085" lon="11.582600117452175"><ele>92.0</ele><time>2026-05-01T10:36:23Z</time></trkpt><trkpt lat="45.69825373083083" lon="11.583053802318119"><ele>91.5</ele><time>2026-05-01T10:36:24Z</time></trkpt><trkpt lat="45.69837865162679" lon="11.583505907745376"><ele>91.0</ele><time>2026-05-01T10:36:25Z</time></trkpt><trkpt lat="45.698514947968064" lon="11.583953584817575"><ele>91.0</ele><time>2026-05-01T10:36:26Z</time></trkpt><trkpt lat="45.6986490575919" lon="11.584398882948179"><ele>91.0</ele><time>2026-05-01T10:36:27Z</time></trkpt><trkpt lat="45.69878377348364" lon="11.584846310052924"><ele>90.5</ele><time>2026-05-01T10:36:28Z</time></trkpt><trkpt lat="45.69891780234397" lon="11.585295012250736"><ele>90.0</ele><time>2026-05-01T10:36:29Z</time></trkpt><trkpt lat="45.69904366220813" lon="11.585746692917809"><ele>90.5</ele><time>2026-05-01T10:36:30Z</time></trkpt><trkpt lat="45.699164201229486" lon="11.586202448809114"><ele>91.0</ele><time>2026-05-01T10:36:31Z</time></trkpt><trkpt lat="45.69928211000515" lon="11.586655522478372"><ele>90.5</ele><time>2026-05-01T10:36:32Z</time></trkpt><trkpt lat="45.699406181001606" lon="11.587107255022527"><ele>90.0</ele><time>2026-05-01T10:36:33Z</time></trkpt><trkpt lat="45.69953846886227" lon="11.587552840265442"><ele>89.0</ele><time>2026-05-01T10:36:34Z</time></trkpt><trkpt lat="45.69967118735744" lon="11.588002224404105"><ele>88.0</ele><time>2026-05-01T10:36:35Z</time></trkpt><trkpt lat="45.69980666501119" lon="11.588450711077408"><ele>88.0</ele><time>2026-05-01T10:36:36Z</time></trkpt><trkpt lat="45.69994285062048" lon="11.588896110923661"><ele>88.0</ele><time>2026-05-01T10:36:37Z</time></trkpt><trkpt lat="45.70007723966049" lon="11.589345025942421"><ele>87.5</ele><time>2026-05-01T10:36:38Z</time></trkpt><trkpt lat="45.70020931447911" lon="11.589794152742389"><ele>87.0</ele><time>2026-05-01T10:36:39Z</time></trkpt><trkpt lat="45.700341845916185" lon="11.590243792626742"><ele>85.5</ele><time>2026-05-01T10:36:40Z</time></trkpt><trkpt lat="45.70047828106854" lon="11.59069244907689"><ele>84.0</ele><time>2026-05-01T10:36:40.999Z</time></trkpt><trkpt lat="45.70061506989866" lon="11.591143403516709"><ele>84.0</ele><time>2026-05-01T10:36:41.999Z</time></trkpt><trkpt lat="45.70075246086955" lon="11.591593267949511"><ele>84.0</ele><time>2026-05-01T10:36:42.999Z</time></trkpt><trkpt lat="45.70088716710629" lon="11.592045543992018"><ele>85.0</ele><time>2026-05-01T10:36:43.999Z</time></trkpt><trkpt lat="45.701020416187845" lon="11.59249718390801"><ele>86.0</ele><time>2026-05-01T10:36:45Z</time></trkpt><trkpt lat="45.7011563221346" lon="11.592949061443868"><ele>84.0</ele><time>2026-05-01T10:36:46Z</time></trkpt><trkpt lat="45.701289553180445" lon="11.593399636032897"><ele>82.0</ele><time>2026-05-01T10:36:47Z</time></trkpt><trkpt lat="45.70142264526229" lon="11.593850731544338"><ele>82.0</ele><time>2026-05-01T10:36:48Z</time></trkpt><trkpt lat="45.70155345560318" lon="11.594302037849504"><ele>82.0</ele><time>2026-05-01T10:36:49Z</time></trkpt><trkpt lat="45.701685932204605" lon="11.59475517460576"><ele>82.5</ele><time>2026-05-01T10:36:50Z</time></trkpt><trkpt lat="45.701817924744475" lon="11.595207849416566"><ele>83.0</ele><time>2026-05-01T10:36:51Z</time></trkpt><trkpt lat="45.70195206529482" lon="11.595659873296604"><ele>82.0</ele><time>2026-05-01T10:36:52Z</time></trkpt><trkpt lat="45.70208633912323" lon="11.596110897912238"><ele>81.0</ele><time>2026-05-01T10:36:53Z</time></trkpt><trkpt lat="45.70222062644315" lon="11.596560384828905"><ele>80.5</ele><time>2026-05-01T10:36:54Z</time></trkpt><trkpt lat="45.70235368863226" lon="11.597009102451292"><ele>80.0</ele><time>2026-05-01T10:36:55Z</time></trkpt><trkpt lat="45.70248574456584" lon="11.597457510507372"><ele>80.5</ele><time>2026-05-01T10:36:56Z</time></trkpt><trkpt lat="45.70261569501153" lon="11.597905800047567"><ele>81.0</ele><time>2026-05-01T10:36:57Z</time></trkpt><trkpt lat="45.70274684736649" lon="11.598352841769366"><ele>79.0</ele><time>2026-05-01T10:36:58Z</time></trkpt><trkpt lat="45.70287793440666" lon="11.598797399163784"><ele>77.0</ele><time>2026-05-01T10:36:59Z</time></trkpt><trkpt lat="45.70301025773275" lon="11.59924245315897"><ele>77.5</ele><time>2026-05-01T10:37:00Z</time></trkpt><trkpt lat="45.70314607335874" lon="11.599686798538738"><ele>78.0</ele><time>2026-05-01T10:37:01Z</time></trkpt><trkpt lat="45.70328522793377" lon="11.600129310409729"><ele>77.5</ele><time>2026-05-01T10:37:02Z</time></trkpt><trkpt lat="45.70342863353916" lon="11.600569648608609"><ele>77.0</ele><time>2026-05-01T10:37:03Z</time></trkpt><trkpt lat="45.703574248141116" lon="11.601009338593201"><ele>77.0</ele><time>2026-05-01T10:37:04Z</time></trkpt><trkpt lat="45.70372345123152" lon="11.601444158163416"><ele>77.0</ele><time>2026-05-01T10:37:05Z</time></trkpt><trkpt lat="45.70387569211695" lon="11.601880179978082"><ele>76.5</ele><time>2026-05-01T10:37:06Z</time></trkpt><trkpt lat="45.704025723789144" lon="11.602313143847134"><ele>76.0</ele><time>2026-05-01T10:37:07Z</time></trkpt><trkpt lat="45.704175933510975" lon="11.602746297666497"><ele>76.0</ele><time>2026-05-01T10:37:08Z</time></trkpt><trkpt lat="45.704327097146454" lon="11.603179955388596"><ele>76.0</ele><time>2026-05-01T10:37:09Z</time></trkpt><trkpt lat="45.70447887421641" lon="11.6036138644773"><ele>77.0</ele><time>2026-05-01T10:37:10Z</time></trkpt><trkpt lat="45.70463182018057" lon="11.604048721959202"><ele>78.0</ele><time>2026-05-01T10:37:11Z</time></trkpt><trkpt lat="45.70478406381177" lon="11.604483763337239"><ele>78.0</ele><time>2026-05-01T10:37:12Z</time></trkpt><trkpt lat="45.704935594207456" lon="11.604919203005647"><ele>78.0</ele><time>2026-05-01T10:37:13Z</time></trkpt><trkpt lat="45.70508758451918" lon="11.605354721410864"><ele>77.5</ele><time>2026-05-01T10:37:14Z</time></trkpt><trkpt lat="45.70523698176682" lon="11.60578969018475"><ele>77.0</ele><time>2026-05-01T10:37:15Z</time></trkpt><trkpt lat="45.70538981062119" lon="11.606224721492636"><ele>77.0</ele><time>2026-05-01T10:37:16Z</time></trkpt><trkpt lat="45.705542869486" lon="11.606659056626102"><ele>77.0</ele><time>2026-05-01T10:37:17Z</time></trkpt><trkpt lat="45.70569421711045" lon="11.60709873049822"><ele>78.0</ele><time>2026-05-01T10:37:18Z</time></trkpt><trkpt lat="45.705839862872246" lon="11.6075418856594"><ele>79.0</ele><time>2026-05-01T10:37:19Z</time></trkpt><trkpt lat="45.70598090543508" lon="11.60798889599956"><ele>78.5</ele><time>2026-05-01T10:37:20Z</time></trkpt><trkpt lat="45.70611904541893" lon="11.608437014877584"><ele>78.0</ele><time>2026-05-01T10:37:21Z</time></trkpt><trkpt lat="45.70625923261033" lon="11.608886555652967"><ele>78.0</ele><time>2026-05-01T10:37:22Z</time></trkpt><trkpt lat="45.706395881594034" lon="11.609335089809655"><ele>78.0</ele><time>2026-05-01T10:37:23Z</time></trkpt><trkpt lat="45.70653229674839" lon="11.609784331172511"><ele>77.5</ele><time>2026-05-01T10:37:24Z</time></trkpt><trkpt lat="45.70666322677076" lon="11.610234304801832"><ele>77.0</ele><time>2026-05-01T10:37:25Z</time></trkpt><trkpt lat="45.706794204001405" lon="11.610687281789083"><ele>76.5</ele><time>2026-05-01T10:37:26Z</time></trkpt><trkpt lat="45.70691994378956" lon="11.61114252882387"><ele>76.0</ele><time>2026-05-01T10:37:27Z</time></trkpt><trkpt lat="45.70704475879689" lon="11.611597783041875"><ele>76.5</ele><time>2026-05-01T10:37:28Z</time></trkpt><trkpt lat="45.7071655622596" lon="11.61205404205071"><ele>77.0</ele><time>2026-05-01T10:37:29Z</time></trkpt><trkpt lat="45.70728511393261" lon="11.612510103047608"><ele>77.5</ele><time>2026-05-01T10:37:30Z</time></trkpt><trkpt lat="45.707403319604126" lon="11.61296767033243"><ele>78.0</ele><time>2026-05-01T10:37:31Z</time></trkpt><trkpt lat="45.70751608850935" lon="11.613428905934938"><ele>78.0</ele><time>2026-05-01T10:37:32Z</time></trkpt><trkpt lat="45.70762681447103" lon="11.613890082606625"><ele>78.0</ele><time>2026-05-01T10:37:33Z</time></trkpt><trkpt lat="45.707736018153405" lon="11.614351811789577"><ele>78.0</ele><time>2026-05-01T10:37:34Z</time></trkpt><trkpt lat="45.70784328590054" lon="11.614815526066632"><ele>78.0</ele><time>2026-05-01T10:37:35Z</time></trkpt><trkpt lat="45.7079466803296" lon="11.615278494877884"><ele>78.0</ele><time>2026-05-01T10:37:36Z</time></trkpt><trkpt lat="45.70804834932482" lon="11.615744096141588"><ele>78.0</ele><time>2026-05-01T10:37:37Z</time></trkpt><trkpt lat="45.70814769471785" lon="11.616210681330378"><ele>77.0</ele><time>2026-05-01T10:37:38Z</time></trkpt><trkpt lat="45.70824547341981" lon="11.61667945789033"><ele>76.0</ele><time>2026-05-01T10:37:39Z</time></trkpt><trkpt lat="45.7083406868723" lon="11.617147723330518"><ele>76.0</ele><time>2026-05-01T10:37:40Z</time></trkpt><trkpt lat="45.70843156282574" lon="11.61761821545902"><ele>76.0</ele><time>2026-05-01T10:37:41Z</time></trkpt><trkpt lat="45.708518556559824" lon="11.618089633056806"><ele>77.0</ele><time>2026-05-01T10:37:42Z</time></trkpt><trkpt lat="45.708603971021056" lon="11.618560658596579"><ele>78.0</ele><time>2026-05-01T10:37:43Z</time></trkpt><trkpt lat="45.70868605343219" lon="11.61903246614511"><ele>78.0</ele><time>2026-05-01T10:37:44Z</time></trkpt><trkpt lat="45.708765329343194" lon="11.619505754634465"><ele>78.0</ele><time>2026-05-01T10:37:45Z</time></trkpt><trkpt lat="45.70884333657212" lon="11.619979272386903"><ele>78.5</ele><time>2026-05-01T10:37:46Z</time></trkpt><trkpt lat="45.70891870112176" lon="11.620453602548755"><ele>79.0</ele><time>2026-05-01T10:37:47Z</time></trkpt><trkpt lat="45.70899403795296" lon="11.620927415654014"><ele>78.5</ele><time>2026-05-01T10:37:48Z</time></trkpt><trkpt lat="45.709070260019594" lon="11.621402424872162"><ele>78.0</ele><time>2026-05-01T10:37:49Z</time></trkpt><trkpt lat="45.7091475570471" lon="11.621876482706275"><ele>78.0</ele><time>2026-05-01T10:37:50Z</time></trkpt><trkpt lat="45.70922653622175" lon="11.622350149415238"><ele>78.0</ele><time>2026-05-01T10:37:51Z</time></trkpt><trkpt lat="45.709306991130624" lon="11.622822651444755"><ele>78.5</ele><time>2026-05-01T10:37:52Z</time></trkpt><trkpt lat="45.70938294191935" lon="11.623295322385841"><ele>79.0</ele><time>2026-05-01T10:37:53Z</time></trkpt><trkpt lat="45.70945854407197" lon="11.623769897173544"><ele>78.0</ele><time>2026-05-01T10:37:54Z</time></trkpt><trkpt lat="45.7095342413766" lon="11.624242594649015"><ele>77.0</ele><time>2026-05-01T10:37:55Z</time></trkpt><trkpt lat="45.709615088314294" lon="11.624712884877777"><ele>77.0</ele><time>2026-05-01T10:37:56Z</time></trkpt><trkpt lat="45.70970454954294" lon="11.625183119007449"><ele>77.0</ele><time>2026-05-01T10:37:57Z</time></trkpt><trkpt lat="45.70979865913669" lon="11.625648811577477"><ele>77.5</ele><time>2026-05-01T10:37:58Z</time></trkpt><trkpt lat="45.709902808043" lon="11.626112336360354"><ele>78.0</ele><time>2026-05-01T10:37:59Z</time></trkpt><trkpt lat="45.71001712102581" lon="11.626570181870056"><ele>78.0</ele><time>2026-05-01T10:38:00Z</time></trkpt><trkpt lat="45.71013966865153" lon="11.627025279174111"><ele>78.0</ele><time>2026-05-01T10:38:01Z</time></trkpt><trkpt lat="45.71026785741301" lon="11.627476998233703"><ele>78.5</ele><time>2026-05-01T10:38:02Z</time></trkpt><trkpt lat="45.71040209454802" lon="11.627925239751052"><ele>79.0</ele><time>2026-05-01T10:38:03Z</time></trkpt><trkpt lat="45.71054254067693" lon="11.6283707111814"><ele>78.5</ele><time>2026-05-01T10:38:04Z</time></trkpt><trkpt lat="45.710691331812896" lon="11.628809886374937"><ele>78.0</ele><time>2026-05-01T10:38:05Z</time></trkpt><trkpt lat="45.71084608062779" lon="11.629243912603405"><ele>78.5</ele><time>2026-05-01T10:38:06Z</time></trkpt><trkpt lat="45.71101062303513" lon="11.629672262003355"><ele>79.0</ele><time>2026-05-01T10:38:07Z</time></trkpt><trkpt lat="45.71118269304975" lon="11.63009459980044"><ele>77.0</ele><time>2026-05-01T10:38:08Z</time></trkpt><trkpt lat="45.711363834811536" lon="11.630510492931666"><ele>75.0</ele><time>2026-05-01T10:38:09Z</time></trkpt><trkpt lat="45.71155127718426" lon="11.630919585100605"><ele>75.0</ele><time>2026-05-01T10:38:10Z</time></trkpt><trkpt lat="45.711745506477335" lon="11.63132015620625"><ele>75.0</ele><time>2026-05-01T10:38:11Z</time></trkpt><trkpt lat="45.7119435150897" lon="11.631712999508009"><ele>75.5</ele><time>2026-05-01T10:38:12Z</time></trkpt><trkpt lat="45.71215078159262" lon="11.632101855690806"><ele>76.0</ele><time>2026-05-01T10:38:13Z</time></trkpt><trkpt lat="45.71236448378625" lon="11.632481655045106"><ele>76.5</ele><time>2026-05-01T10:38:14Z</time></trkpt><trkpt lat="45.712584465750666" lon="11.632852274600943"><ele>77.0</ele><time>2026-05-01T10:38:15Z</time></trkpt><trkpt lat="45.712808968634995" lon="11.633215409628477"><ele>77.0</ele><time>2026-05-01T10:38:16Z</time></trkpt><trkpt lat="45.7130401560735" lon="11.633570699047876"><ele>77.0</ele><time>2026-05-01T10:38:17Z</time></trkpt><trkpt lat="45.71327925391883" lon="11.633917430974563"><ele>77.0</ele><time>2026-05-01T10:38:18Z</time></trkpt><trkpt lat="45.71352393383988" lon="11.634255069741627"><ele>77.0</ele><time>2026-05-01T10:38:19Z</time></trkpt><trkpt lat="45.71377494903034" lon="11.634581139162842"><ele>78.5</ele><time>2026-05-01T10:38:20Z</time></trkpt><trkpt lat="45.71403190161303" lon="11.634897839113597"><ele>80.0</ele><time>2026-05-01T10:38:21Z</time></trkpt><trkpt lat="45.7142947039836" lon="11.635206503126685"><ele>79.5</ele><time>2026-05-01T10:38:22Z</time></trkpt><trkpt lat="45.71456345813052" lon="11.635506055881935"><ele>79.0</ele><time>2026-05-01T10:38:23Z</time></trkpt><trkpt lat="45.7148362660666" lon="11.635797750492214"><ele>79.0</ele><time>2026-05-01T10:38:24Z</time></trkpt><trkpt lat="45.7151120578413" lon="11.636080902841075"><ele>79.0</ele><time>2026-05-01T10:38:25Z</time></trkpt><trkpt lat="45.71539081195712" lon="11.63636073852017"><ele>78.5</ele><time>2026-05-01T10:38:26Z</time></trkpt><trkpt lat="45.71566833823732" lon="11.636641147329787"><ele>78.0</ele><time>2026-05-01T10:38:27Z</time></trkpt><trkpt lat="45.715946853365985" lon="11.636921573330492"><ele>79.5</ele><time>2026-05-01T10:38:28Z</time></trkpt><trkpt lat="45.71622304308692" lon="11.637207023918878"><ele>81.0</ele><time>2026-05-01T10:38:29Z</time></trkpt><trkpt lat="45.71650022581192" lon="11.637493360514426"><ele>81.0</ele><time>2026-05-01T10:38:30Z</time></trkpt><trkpt lat="45.716778458862464" lon="11.637779851020017"><ele>81.0</ele><time>2026-05-01T10:38:31Z</time></trkpt><trkpt lat="45.71705661421791" lon="11.63806511734585"><ele>81.0</ele><time>2026-05-01T10:38:32Z</time></trkpt><trkpt lat="45.71733317312878" lon="11.638350071611379"><ele>81.0</ele><time>2026-05-01T10:38:33Z</time></trkpt><trkpt lat="45.717611454911946" lon="11.638632623957529"><ele>82.0</ele><time>2026-05-01T10:38:34Z</time></trkpt><trkpt lat="45.71789040817714" lon="11.638915807741427"><ele>83.0</ele><time>2026-05-01T10:38:35Z</time></trkpt><trkpt lat="45.718167609618405" lon="11.639200689621717"><ele>82.5</ele><time>2026-05-01T10:38:36Z</time></trkpt><trkpt lat="45.71844511526888" lon="11.639486188467679"><ele>82.0</ele><time>2026-05-01T10:38:37Z</time></trkpt><trkpt lat="45.718723705462715" lon="11.639773004560208"><ele>82.0</ele><time>2026-05-01T10:38:38Z</time></trkpt><trkpt lat="45.71900093281716" lon="11.640059285515747"><ele>82.0</ele><time>2026-05-01T10:38:39Z</time></trkpt><trkpt lat="45.71927866512701" lon="11.640345762376906"><ele>81.5</ele><time>2026-05-01T10:38:40Z</time></trkpt><trkpt lat="45.71955562456005" lon="11.640633485628872"><ele>81.0</ele><time>2026-05-01T10:38:41Z</time></trkpt><trkpt lat="45.71983123871374" lon="11.640923410456093"><ele>81.0</ele><time>2026-05-01T10:38:42Z</time></trkpt><trkpt lat="45.72010789221904" lon="11.641210825417872"><ele>81.0</ele><time>2026-05-01T10:38:43Z</time></trkpt><trkpt lat="45.7203851622663" lon="11.64149495121459"><ele>81.0</ele><time>2026-05-01T10:38:44Z</time></trkpt><trkpt lat="45.720665715693606" lon="11.641776656340916"><ele>81.0</ele><time>2026-05-01T10:38:45Z</time></trkpt><trkpt lat="45.72094547276199" lon="11.6420582307"><ele>81.5</ele><time>2026-05-01T10:38:46Z</time></trkpt><trkpt lat="45.721223620622645" lon="11.642341228673859"><ele>82.0</ele><time>2026-05-01T10:38:47Z</time></trkpt><trkpt lat="45.72150157143847" lon="11.642627548755405"><ele>81.5</ele><time>2026-05-01T10:38:48Z</time></trkpt><trkpt lat="45.72178041500607" lon="11.642914659192448"><ele>81.0</ele><time>2026-05-01T10:38:49Z</time></trkpt><trkpt lat="45.72205769131858" lon="11.643201084791226"><ele>81.0</ele><time>2026-05-01T10:38:50Z</time></trkpt><trkpt lat="45.72233291049164" lon="11.64348704418111"><ele>81.0</ele><time>2026-05-01T10:38:51Z</time></trkpt><trkpt lat="45.722607477255785" lon="11.6437732730575"><ele>81.0</ele><time>2026-05-01T10:38:52Z</time></trkpt><trkpt lat="45.722881400027816" lon="11.64405973078513"><ele>81.0</ele><time>2026-05-01T10:38:53Z</time></trkpt><trkpt lat="45.72315506741251" lon="11.644348680410536"><ele>81.0</ele><time>2026-05-01T10:38:54Z</time></trkpt><trkpt lat="45.72342851488092" lon="11.644641628309486"><ele>81.0</ele><time>2026-05-01T10:38:55Z</time></trkpt><trkpt lat="45.72369714000047" lon="11.64494394912072"><ele>81.5</ele><time>2026-05-01T10:38:56Z</time></trkpt><trkpt lat="45.72396052980402" lon="11.64525557735376"><ele>82.0</ele><time>2026-05-01T10:38:57Z</time></trkpt><trkpt lat="45.7242199478291" lon="11.645575424791184"><ele>82.5</ele><time>2026-05-01T10:38:58Z</time></trkpt><trkpt lat="45.724470613619104" lon="11.645908149170387"><ele>83.0</ele><time>2026-05-01T10:38:59Z</time></trkpt><trkpt lat="45.7247105293922" lon="11.646253809451174"><ele>83.0</ele><time>2026-05-01T10:39:00Z</time></trkpt><trkpt lat="45.724937835502324" lon="11.646614479119096"><ele>83.0</ele><time>2026-05-01T10:39:01Z</time></trkpt><trkpt lat="45.72515313772705" lon="11.646989934432947"><ele>83.0</ele><time>2026-05-01T10:39:02Z</time></trkpt><trkpt lat="45.725361232033634" lon="11.647376543384736"><ele>83.0</ele><time>2026-05-01T10:39:03Z</time></trkpt><trkpt lat="45.725558655150955" lon="11.64777385970291"><ele>82.5</ele><time>2026-05-01T10:39:04Z</time></trkpt><trkpt lat="45.725747794209234" lon="11.648179320830026"><ele>82.0</ele><time>2026-05-01T10:39:05Z</time></trkpt><trkpt lat="45.72592583124878" lon="11.64859610835426"><ele>82.0</ele><time>2026-05-01T10:39:06Z</time></trkpt><trkpt lat="45.726090386907586" lon="11.649022398012793"><ele>82.0</ele><time>2026-05-01T10:39:07Z</time></trkpt><trkpt lat="45.72624294168042" lon="11.649458521464826"><ele>82.5</ele><time>2026-05-01T10:39:08Z</time></trkpt><trkpt lat="45.72638634342631" lon="11.64990160543351"><ele>83.0</ele><time>2026-05-01T10:39:09Z</time></trkpt><trkpt lat="45.72651693944617" lon="11.65035312228114"><ele>84.0</ele><time>2026-05-01T10:39:10Z</time></trkpt><trkpt lat="45.72663637869318" lon="11.65081076748216"><ele>85.0</ele><time>2026-05-01T10:39:11Z</time></trkpt><trkpt lat="45.72673971986908" lon="11.651274419695135"><ele>85.5</ele><time>2026-05-01T10:39:12Z</time></trkpt><trkpt lat="45.72683276761215" lon="11.651753679018764"><ele>86.0</ele><time>2026-05-01T10:39:13.019Z</time></trkpt><trkpt lat="45.726910327584385" lon="11.652228325833777"><ele>86.5</ele><time>2026-05-01T10:39:14.017Z</time></trkpt><trkpt lat="45.72693181506215" lon="11.652713708050818"><ele>87.0</ele><time>2026-05-01T10:39:15.018Z</time></trkpt><trkpt lat="45.72695760761381" lon="11.653198409459607"><ele>87.5</ele><time>2026-05-01T10:39:16.016Z</time></trkpt><trkpt lat="45.726982954183626" lon="11.653685898232304"><ele>88.0</ele><time>2026-05-01T10:39:17.019Z</time></trkpt><trkpt lat="45.72722287244197" lon="11.657892135761495"><ele>86.0</ele><time>2026-05-01T10:39:22.808Z</time></trkpt><trkpt lat="45.72741793472853" lon="11.658980296935567"><ele>87.0</ele><time>2026-05-01T10:39:28Z</time></trkpt><trkpt lat="45.72747800311043" lon="11.659457203363944"><ele>88.0</ele><time>2026-05-01T10:39:29Z</time></trkpt><trkpt lat="45.727523976619395" lon="11.659945746270832"><ele>88.0</ele><time>2026-05-01T10:39:30Z</time></trkpt><trkpt lat="45.727611928028345" lon="11.660418707783231"><ele>88.0</ele><time>2026-05-01T10:39:31Z</time></trkpt><trkpt lat="45.72770407490291" lon="11.660891629859682"><ele>86.5</ele><time>2026-05-01T10:39:32Z</time></trkpt><trkpt lat="45.727808233336965" lon="11.661356318793935"><ele>85.0</ele><time>2026-05-01T10:39:33Z</time></trkpt><trkpt lat="45.72792097292411" lon="11.661819959048538"><ele>86.0</ele><time>2026-05-01T10:39:34Z</time></trkpt><trkpt lat="45.72804159797971" lon="11.662275814112837"><ele>87.0</ele><time>2026-05-01T10:39:35Z</time></trkpt><trkpt lat="45.728170899126454" lon="11.66272461882707"><ele>86.5</ele><time>2026-05-01T10:39:36Z</time></trkpt><trkpt lat="45.72830357905596" lon="11.663172278092263"><ele>86.0</ele><time>2026-05-01T10:39:37Z</time></trkpt><trkpt lat="45.72844573632851" lon="11.663614451894436"><ele>86.0</ele><time>2026-05-01T10:39:38Z</time></trkpt><trkpt lat="45.72859875679526" lon="11.664047653776588"><ele>86.0</ele><time>2026-05-01T10:39:39Z</time></trkpt><trkpt lat="45.72875777206695" lon="11.664473164747115"><ele>86.0</ele><time>2026-05-01T10:39:40Z</time></trkpt><trkpt lat="45.728924045766746" lon="11.664895497474038"><ele>86.0</ele><time>2026-05-01T10:39:41Z</time></trkpt><trkpt lat="45.72909772640301" lon="11.665325749956391"><ele>86.0</ele><time>2026-05-01T10:39:42.025Z</time></trkpt><trkpt lat="45.72927391477614" lon="11.665740563385198"><ele>86.0</ele><time>2026-05-01T10:39:43.028Z</time></trkpt><trkpt lat="45.72945245643885" lon="11.666146575631952"><ele>86.0</ele><time>2026-05-01T10:39:44.022Z</time></trkpt><trkpt lat="45.72984407660154" lon="11.666925419132847"><ele>85.5</ele><time>2026-05-01T10:39:46Z</time></trkpt><trkpt lat="45.730043877545945" lon="11.667320128338904"><ele>85.0</ele><time>2026-05-01T10:39:47Z</time></trkpt><trkpt lat="45.73030183552225" lon="11.667723312961856"><ele>85.0</ele><time>2026-05-01T10:39:48Z</time></trkpt><trkpt lat="45.73052424410969" lon="11.668090656216824"><ele>85.0</ele><time>2026-05-01T10:39:49Z</time></trkpt><trkpt lat="45.73075447818633" lon="11.668452751341386"><ele>85.5</ele><time>2026-05-01T10:39:50Z</time></trkpt><trkpt lat="45.730986561617215" lon="11.668805162303943"><ele>86.0</ele><time>2026-05-01T10:39:51Z</time></trkpt><trkpt lat="45.7312249392879" lon="11.669144363681394"><ele>86.0</ele><time>2026-05-01T10:39:52Z</time></trkpt><trkpt lat="45.731472015131764" lon="11.669482607044573"><ele>86.0</ele><time>2026-05-01T10:39:53Z</time></trkpt><trkpt lat="45.73172036646111" lon="11.669809298399057"><ele>85.5</ele><time>2026-05-01T10:39:54Z</time></trkpt><trkpt lat="45.73197578288662" lon="11.67012922658329"><ele>85.0</ele><time>2026-05-01T10:39:55Z</time></trkpt><trkpt lat="45.73223349826488" lon="11.670448779641632"><ele>86.0</ele><time>2026-05-01T10:39:56Z</time></trkpt><trkpt lat="45.73248596676649" lon="11.670779064509473"><ele>87.0</ele><time>2026-05-01T10:39:57Z</time></trkpt><trkpt lat="45.73273108965151" lon="11.671108298010537"><ele>87.5</ele><time>2026-05-01T10:39:58Z</time></trkpt><trkpt lat="45.73297481418325" lon="11.6714336492085"><ele>88.0</ele><time>2026-05-01T10:39:59Z</time></trkpt><trkpt lat="45.73321475729946" lon="11.671760814712595"><ele>88.0</ele><time>2026-05-01T10:40:00Z</time></trkpt><trkpt lat="45.73346906428347" lon="11.672095673311302"><ele>88.0</ele><time>2026-05-01T10:40:01Z</time></trkpt><trkpt lat="45.733711795516825" lon="11.672450053914991"><ele>88.5</ele><time>2026-05-01T10:40:02Z</time></trkpt><trkpt lat="45.733940312228626" lon="11.672813608107196"><ele>89.0</ele><time>2026-05-01T10:40:03Z</time></trkpt><trkpt lat="45.73415791880629" lon="11.673179098609234"><ele>89.0</ele><time>2026-05-01T10:40:04Z</time></trkpt><trkpt lat="45.73436686547501" lon="11.673562754970087"><ele>89.0</ele><time>2026-05-01T10:40:05Z</time></trkpt><trkpt lat="45.73456506348009" lon="11.673955969326942"><ele>88.5</ele><time>2026-05-01T10:40:06Z</time></trkpt><trkpt lat="45.73476883984818" lon="11.674348750604793"><ele>88.0</ele><time>2026-05-01T10:40:07Z</time></trkpt><trkpt lat="45.73495556524027" lon="11.674757827318084"><ele>88.0</ele><time>2026-05-01T10:40:08Z</time></trkpt><trkpt lat="45.735131915386106" lon="11.675172519091642"><ele>88.0</ele><time>2026-05-01T10:40:09Z</time></trkpt><trkpt lat="45.73530273981132" lon="11.67559198992978"><ele>88.0</ele><time>2026-05-01T10:40:10Z</time></trkpt><trkpt lat="45.73546905352432" lon="11.676019498013764"><ele>88.0</ele><time>2026-05-01T10:40:11Z</time></trkpt><trkpt lat="45.73563144144999" lon="11.676445493061715"><ele>87.5</ele><time>2026-05-01T10:40:12Z</time></trkpt><trkpt lat="45.73579367524335" lon="11.676875702676758"><ele>87.0</ele><time>2026-05-01T10:40:13Z</time></trkpt><trkpt lat="45.735956411625196" lon="11.67730939140489"><ele>87.0</ele><time>2026-05-01T10:40:14Z</time></trkpt><trkpt lat="45.73612071118888" lon="11.677742615412443"><ele>87.0</ele><time>2026-05-01T10:40:15Z</time></trkpt><trkpt lat="45.73628398886829" lon="11.678172753139137"><ele>87.5</ele><time>2026-05-01T10:40:16Z</time></trkpt><trkpt lat="45.736446830147834" lon="11.6786045984563"><ele>88.0</ele><time>2026-05-01T10:40:17Z</time></trkpt><trkpt lat="45.7366096084717" lon="11.679033794758777"><ele>88.5</ele><time>2026-05-01T10:40:18Z</time></trkpt><trkpt lat="45.73677254379774" lon="11.679463307563266"><ele>89.0</ele><time>2026-05-01T10:40:19Z</time></trkpt><trkpt lat="45.736934729341634" lon="11.679892095273424"><ele>88.0</ele><time>2026-05-01T10:40:20Z</time></trkpt><trkpt lat="45.737098858068464" lon="11.680319966976384"><ele>87.0</ele><time>2026-05-01T10:40:21Z</time></trkpt><trkpt lat="45.73726310832271" lon="11.680749430014714"><ele>87.0</ele><time>2026-05-01T10:40:22Z</time></trkpt><trkpt lat="45.73742476752722" lon="11.68117903863563"><ele>87.0</ele><time>2026-05-01T10:40:23Z</time></trkpt><trkpt lat="45.737584935604374" lon="11.681611337582973"><ele>87.5</ele><time>2026-05-01T10:40:24Z</time></trkpt><trkpt lat="45.73774072861462" lon="11.682047606875175"><ele>88.0</ele><time>2026-05-01T10:40:25Z</time></trkpt><trkpt lat="45.73788400977452" lon="11.682491921872623"><ele>88.0</ele><time>2026-05-01T10:40:26Z</time></trkpt><trkpt lat="45.738013953506815" lon="11.682942148764731"><ele>88.0</ele><time>2026-05-01T10:40:27Z</time></trkpt><trkpt lat="45.738129416219046" lon="11.683398210561664"><ele>87.5</ele><time>2026-05-01T10:40:28Z</time></trkpt><trkpt lat="45.73823768400179" lon="11.68386255004919"><ele>87.0</ele><time>2026-05-01T10:40:29Z</time></trkpt><trkpt lat="45.73833040841638" lon="11.684334287270676"><ele>87.0</ele><time>2026-05-01T10:40:30Z</time></trkpt><trkpt lat="45.73839967665397" lon="11.684813007183806"><ele>87.0</ele><time>2026-05-01T10:40:31Z</time></trkpt><trkpt lat="45.73846202078201" lon="11.685293425889945"><ele>87.0</ele><time>2026-05-01T10:40:32Z</time></trkpt><trkpt lat="45.738510407682774" lon="11.685775327381423"><ele>87.0</ele><time>2026-05-01T10:40:33Z</time></trkpt><trkpt lat="45.73854495330109" lon="11.686259227812648"><ele>87.5</ele><time>2026-05-01T10:40:34Z</time></trkpt><trkpt lat="45.738568442306345" lon="11.686746621649263"><ele>88.0</ele><time>2026-05-01T10:40:35Z</time></trkpt><trkpt lat="45.73858602366505" lon="11.687235625959133"><ele>88.0</ele><time>2026-05-01T10:40:36Z</time></trkpt><trkpt lat="45.73859673425648" lon="11.687723543988188"><ele>88.0</ele><time>2026-05-01T10:40:37Z</time></trkpt><trkpt lat="45.73860387856758" lon="11.688207828088489"><ele>88.0</ele><time>2026-05-01T10:40:38Z</time></trkpt><trkpt lat="45.738609314871944" lon="11.68869460913565"><ele>88.0</ele><time>2026-05-01T10:40:39Z</time></trkpt><trkpt lat="45.73861531733878" lon="11.68918040781368"><ele>89.0</ele><time>2026-05-01T10:40:39.999Z</time></trkpt><trkpt lat="45.738624094217535" lon="11.689668120494614"><ele>90.0</ele><time>2026-05-01T10:40:40.999Z</time></trkpt><trkpt lat="45.73863320560269" lon="11.690155042391481"><ele>90.0</ele><time>2026-05-01T10:40:41.999Z</time></trkpt><trkpt lat="45.73864282454219" lon="11.690642754740649"><ele>90.0</ele><time>2026-05-01T10:40:42.999Z</time></trkpt><trkpt lat="45.73864805430842" lon="11.691130015385658"><ele>90.0</ele><time>2026-05-01T10:40:43.999Z</time></trkpt><trkpt lat="45.73865090707451" lon="11.691617416810889"><ele>90.0</ele><time>2026-05-01T10:40:44.999Z</time></trkpt><trkpt lat="45.738652767113514" lon="11.692102926089055"><ele>89.0</ele><time>2026-05-01T10:40:45.999Z</time></trkpt><trkpt lat="45.73865416286919" lon="11.692590001556947"><ele>88.0</ele><time>2026-05-01T10:40:46.999Z</time></trkpt><trkpt lat="45.73865288084463" lon="11.693077709183378"><ele>87.5</ele><time>2026-05-01T10:40:47.999Z</time></trkpt><trkpt lat="45.73864857262447" lon="11.693565442403413"><ele>87.0</ele><time>2026-05-01T10:40:48.999Z</time></trkpt><trkpt lat="45.73864182895795" lon="11.694051937059871"><ele>87.5</ele><time>2026-05-01T10:40:49.999Z</time></trkpt><trkpt lat="45.7386329918658" lon="11.69453920310197"><ele>88.0</ele><time>2026-05-01T10:40:50.999Z</time></trkpt><trkpt lat="45.738621334084506" lon="11.695024222747149"><ele>88.0</ele><time>2026-05-01T10:40:51.999Z</time></trkpt><trkpt lat="45.738607991351" lon="11.695513406239458"><ele>88.0</ele><time>2026-05-01T10:40:52.999Z</time></trkpt><trkpt lat="45.73859157950412" lon="11.69600279083045"><ele>87.0</ele><time>2026-05-01T10:40:53.999Z</time></trkpt><trkpt lat="45.73857435778201" lon="11.696489421746874"><ele>86.0</ele><time>2026-05-01T10:40:54.999Z</time></trkpt><trkpt lat="45.73855837385496" lon="11.696976549788184"><ele>86.0</ele><time>2026-05-01T10:40:55.999Z</time></trkpt><trkpt lat="45.738541875368476" lon="11.69746172704934"><ele>86.0</ele><time>2026-05-01T10:40:57Z</time></trkpt><trkpt lat="45.738521054290466" lon="11.697948668478315"><ele>87.0</ele><time>2026-05-01T10:40:58Z</time></trkpt><trkpt lat="45.73849671800718" lon="11.69843307023925"><ele>88.0</ele><time>2026-05-01T10:40:59Z</time></trkpt><trkpt lat="45.738469637571654" lon="11.698920435704991"><ele>89.0</ele><time>2026-05-01T10:41:00Z</time></trkpt><trkpt lat="45.738441078663065" lon="11.699408406513014"><ele>90.0</ele><time>2026-05-01T10:41:01Z</time></trkpt><trkpt lat="45.73841126730468" lon="11.699890263795204"><ele>89.0</ele><time>2026-05-01T10:41:02Z</time></trkpt><trkpt lat="45.73838205091018" lon="11.700376322872637"><ele>88.0</ele><time>2026-05-01T10:41:03Z</time></trkpt><trkpt lat="45.73835017346275" lon="11.700863784960488"><ele>88.5</ele><time>2026-05-01T10:41:04Z</time></trkpt><trkpt lat="45.738315323996424" lon="11.701352917133807"><ele>89.0</ele><time>2026-05-01T10:41:05Z</time></trkpt><trkpt lat="45.73827781303957" lon="11.701839018011352"><ele>90.0</ele><time>2026-05-01T10:41:06Z</time></trkpt><trkpt lat="45.73823957363609" lon="11.702324581976795"><ele>91.0</ele><time>2026-05-01T10:41:07Z</time></trkpt><trkpt lat="45.73820280646057" lon="11.702811561940699"><ele>91.0</ele><time>2026-05-01T10:41:08Z</time></trkpt><trkpt lat="45.7381664678046" lon="11.703296665892868"><ele>91.0</ele><time>2026-05-01T10:41:09Z</time></trkpt><trkpt lat="45.7381309313803" lon="11.703781936367028"><ele>91.0</ele><time>2026-05-01T10:41:10Z</time></trkpt><trkpt lat="45.738095761029726" lon="11.704266499209401"><ele>91.0</ele><time>2026-05-01T10:41:11Z</time></trkpt><trkpt lat="45.73805976024355" lon="11.704747730725858"><ele>90.5</ele><time>2026-05-01T10:41:12Z</time></trkpt><trkpt lat="45.73802061888562" lon="11.705231176225357"><ele>90.0</ele><time>2026-05-01T10:41:13Z</time></trkpt><trkpt lat="45.73798237579654" lon="11.705714373194171"><ele>90.5</ele><time>2026-05-01T10:41:14Z</time></trkpt><trkpt lat="45.73794565950754" lon="11.7061982069555"><ele>91.0</ele><time>2026-05-01T10:41:15Z</time></trkpt><trkpt lat="45.7379092742686" lon="11.706680620770353"><ele>91.5</ele><time>2026-05-01T10:41:16Z</time></trkpt><trkpt lat="45.73787087119062" lon="11.707163718553922"><ele>92.0</ele><time>2026-05-01T10:41:17Z</time></trkpt><trkpt lat="45.737832855700496" lon="11.707646100534054"><ele>92.0</ele><time>2026-05-01T10:41:18Z</time></trkpt><trkpt lat="45.7377952921739" lon="11.7081285424605"><ele>92.0</ele><time>2026-05-01T10:41:19Z</time></trkpt><trkpt lat="45.737759040052204" lon="11.708610222319965"><ele>92.5</ele><time>2026-05-01T10:41:20Z</time></trkpt><trkpt lat="45.73772446816269" lon="11.70909383067503"><ele>93.0</ele><time>2026-05-01T10:41:21Z</time></trkpt><trkpt lat="45.73769298955386" lon="11.709577411958268"><ele>94.0</ele><time>2026-05-01T10:41:22Z</time></trkpt><trkpt lat="45.737666197339905" lon="11.710066213996502"><ele>95.0</ele><time>2026-05-01T10:41:23Z</time></trkpt><trkpt lat="45.7376433529402" lon="11.710555490965552"><ele>95.5</ele><time>2026-05-01T10:41:24Z</time></trkpt><trkpt lat="45.7376349243948" lon="11.711045722146093"><ele>96.0</ele><time>2026-05-01T10:41:25Z</time></trkpt><trkpt lat="45.737638204481826" lon="11.711532414379812"><ele>94.5</ele><time>2026-05-01T10:41:26Z</time></trkpt><trkpt lat="45.73765247656308" lon="11.712021831740016"><ele>93.0</ele><time>2026-05-01T10:41:27Z</time></trkpt><trkpt lat="45.73767643583835" lon="11.712512199350728"><ele>93.0</ele><time>2026-05-01T10:41:28Z</time></trkpt><trkpt lat="45.73770799569635" lon="11.71299770846095"><ele>93.0</ele><time>2026-05-01T10:41:29Z</time></trkpt><trkpt lat="45.73774999420121" lon="11.713480846733779"><ele>93.0</ele><time>2026-05-01T10:41:30Z</time></trkpt><trkpt lat="45.7377948230004" lon="11.713960094114684"><ele>93.0</ele><time>2026-05-01T10:41:31Z</time></trkpt><trkpt lat="45.73784548216479" lon="11.714443925538438"><ele>93.5</ele><time>2026-05-01T10:41:32Z</time></trkpt><trkpt lat="45.737897185906775" lon="11.714925706387957"><ele>94.0</ele><time>2026-05-01T10:41:33Z</time></trkpt><trkpt lat="45.737947064829534" lon="11.715407880492"><ele>94.5</ele><time>2026-05-01T10:41:34Z</time></trkpt><trkpt lat="45.7379953290693" lon="11.715889314358357"><ele>95.0</ele><time>2026-05-01T10:41:35Z</time></trkpt><trkpt lat="45.738040250920996" lon="11.716370359306236"><ele>95.0</ele><time>2026-05-01T10:41:36Z</time></trkpt><trkpt lat="45.73808346110594" lon="11.716854526459844"><ele>95.0</ele><time>2026-05-01T10:41:37Z</time></trkpt><trkpt lat="45.7381235847339" lon="11.717338212688592"><ele>95.5</ele><time>2026-05-01T10:41:38Z</time></trkpt><trkpt lat="45.738165989731144" lon="11.717822098975113"><ele>96.0</ele><time>2026-05-01T10:41:39Z</time></trkpt><trkpt lat="45.738208678297596" lon="11.71830695742196"><ele>96.0</ele><time>2026-05-01T10:41:40Z</time></trkpt><trkpt lat="45.738252524833925" lon="11.718789887541021"><ele>96.0</ele><time>2026-05-01T10:41:41Z</time></trkpt><trkpt lat="45.73829728225796" lon="11.719273756959966"><ele>96.0</ele><time>2026-05-01T10:41:42Z</time></trkpt><trkpt lat="45.73834102566028" lon="11.71975698432299"><ele>96.0</ele><time>2026-05-01T10:41:43Z</time></trkpt><trkpt lat="45.738385958591124" lon="11.720239728191803"><ele>95.0</ele><time>2026-05-01T10:41:44Z</time></trkpt><trkpt lat="45.738431168898295" lon="11.720723462419407"><ele>94.0</ele><time>2026-05-01T10:41:45Z</time></trkpt><trkpt lat="45.738477037195906" lon="11.721205822930594"><ele>94.0</ele><time>2026-05-01T10:41:46Z</time></trkpt><trkpt lat="45.73852134067476" lon="11.721688361480416"><ele>94.0</ele><time>2026-05-01T10:41:47Z</time></trkpt><trkpt lat="45.73856660923498" lon="11.72217281662633"><ele>94.5</ele><time>2026-05-01T10:41:48Z</time></trkpt><trkpt lat="45.738610654360784" lon="11.722658875120286"><ele>95.0</ele><time>2026-05-01T10:41:49Z</time></trkpt><trkpt lat="45.7386532501644" lon="11.723146256724709"><ele>95.5</ele><time>2026-05-01T10:41:50Z</time></trkpt><trkpt lat="45.73869541927825" lon="11.723629437456395"><ele>96.0</ele><time>2026-05-01T10:41:51Z</time></trkpt><trkpt lat="45.738735834740346" lon="11.72411535537265"><ele>97.0</ele><time>2026-05-01T10:41:52Z</time></trkpt><trkpt lat="45.7387706795016" lon="11.72460176120285"><ele>98.0</ele><time>2026-05-01T10:41:53Z</time></trkpt><trkpt lat="45.73879916117816" lon="11.725090242043729"><ele>98.0</ele><time>2026-05-01T10:41:54Z</time></trkpt><trkpt lat="45.73881384037891" lon="11.725580158984439"><ele>98.0</ele><time>2026-05-01T10:41:55Z</time></trkpt><trkpt lat="45.73881851837643" lon="11.726069489563367"><ele>98.0</ele><time>2026-05-01T10:41:56Z</time></trkpt><trkpt lat="45.738811922976964" lon="11.726558386124937"><ele>98.0</ele><time>2026-05-01T10:41:57Z</time></trkpt><trkpt lat="45.73879510843872" lon="11.7270419434311"><ele>98.0</ele><time>2026-05-01T10:41:58Z</time></trkpt><trkpt lat="45.73876977157952" lon="11.727532467235061"><ele>98.0</ele><time>2026-05-01T10:41:59Z</time></trkpt><trkpt lat="45.7387364421758" lon="11.728020487017307"><ele>97.0</ele><time>2026-05-01T10:42:00Z</time></trkpt><trkpt lat="45.73869472741184" lon="11.728505879795936"><ele>96.0</ele><time>2026-05-01T10:42:01Z</time></trkpt><trkpt lat="45.738642370079695" lon="11.728989040765597"><ele>96.5</ele><time>2026-05-01T10:42:02Z</time></trkpt><trkpt lat="45.73857779287238" lon="11.729472188704337"><ele>97.0</ele><time>2026-05-01T10:42:03Z</time></trkpt><trkpt lat="45.738505541056206" lon="11.729948880035764"><ele>97.5</ele><time>2026-05-01T10:42:04Z</time></trkpt><trkpt lat="45.73842299725739" lon="11.730421141563918"><ele>98.0</ele><time>2026-05-01T10:42:05Z</time></trkpt><trkpt lat="45.738330810927984" lon="11.730887269025157"><ele>99.0</ele><time>2026-05-01T10:42:06Z</time></trkpt><trkpt lat="45.73823035589049" lon="11.731355204072162"><ele>100.0</ele><time>2026-05-01T10:42:07Z</time></trkpt><trkpt lat="45.738127980222394" lon="11.731818892159163"><ele>100.0</ele><time>2026-05-01T10:42:08Z</time></trkpt><trkpt lat="45.738020867836376" lon="11.73228573306867"><ele>100.0</ele><time>2026-05-01T10:42:09Z</time></trkpt><trkpt lat="45.737917046223814" lon="11.73275017582337"><ele>100.0</ele><time>2026-05-01T10:42:10Z</time></trkpt><trkpt lat="45.73781417185612" lon="11.733206215315754"><ele>100.0</ele><time>2026-05-01T10:42:11Z</time></trkpt><trkpt lat="45.73771062944322" lon="11.733662847510722"><ele>100.0</ele><time>2026-05-01T10:42:12Z</time></trkpt><trkpt lat="45.73760543095529" lon="11.734119268702884"><ele>100.0</ele><time>2026-05-01T10:42:13Z</time></trkpt><trkpt lat="45.73750029517919" lon="11.734579424801092"><ele>100.0</ele><time>2026-05-01T10:42:14Z</time></trkpt><trkpt lat="45.73739575399213" lon="11.735043848868623"><ele>100.0</ele><time>2026-05-01T10:42:15Z</time></trkpt><trkpt lat="45.73728973977764" lon="11.7355087926592"><ele>100.0</ele><time>2026-05-01T10:42:16Z</time></trkpt><trkpt lat="45.73718422262925" lon="11.735971740755136"><ele>100.0</ele><time>2026-05-01T10:42:17Z</time></trkpt><trkpt lat="45.73707385225238" lon="11.736434211811309"><ele>100.5</ele><time>2026-05-01T10:42:18Z</time></trkpt><trkpt lat="45.73696403787336" lon="11.736893372319038"><ele>101.0</ele><time>2026-05-01T10:42:19Z</time></trkpt><trkpt lat="45.736852120424295" lon="11.737355430515866"><ele>101.0</ele><time>2026-05-01T10:42:20Z</time></trkpt><trkpt lat="45.736742427499586" lon="11.737819085763771"><ele>101.0</ele><time>2026-05-01T10:42:21Z</time></trkpt><trkpt lat="45.73664147733693" lon="11.738286359602665"><ele>100.5</ele><time>2026-05-01T10:42:22Z</time></trkpt><trkpt lat="45.73655439276617" lon="11.738756883807774"><ele>100.0</ele><time>2026-05-01T10:42:23Z</time></trkpt><trkpt lat="45.73647619674249" lon="11.739236772220375"><ele>99.5</ele><time>2026-05-01T10:42:24Z</time></trkpt><trkpt lat="45.736413491269346" lon="11.739712563028206"><ele>99.0</ele><time>2026-05-01T10:42:25Z</time></trkpt><trkpt lat="45.73636844027563" lon="11.740194097547509"><ele>100.0</ele><time>2026-05-01T10:42:26Z</time></trkpt><trkpt lat="45.736336405055404" lon="11.740679092028774"><ele>101.0</ele><time>2026-05-01T10:42:27Z</time></trkpt><trkpt lat="45.73631405590111" lon="11.741164349599714"><ele>102.0</ele><time>2026-05-01T10:42:28Z</time></trkpt><trkpt lat="45.73629323536603" lon="11.741649457096152"><ele>103.0</ele><time>2026-05-01T10:42:29Z</time></trkpt><trkpt lat="45.73627224997494" lon="11.742136493823434"><ele>103.0</ele><time>2026-05-01T10:42:30Z</time></trkpt><trkpt lat="45.73624914334671" lon="11.742622937576973"><ele>103.0</ele><time>2026-05-01T10:42:31Z</time></trkpt><trkpt lat="45.73622106491605" lon="11.743113279800587"><ele>102.5</ele><time>2026-05-01T10:42:32Z</time></trkpt><trkpt lat="45.73618978677226" lon="11.74360685306924"><ele>102.0</ele><time>2026-05-01T10:42:33Z</time></trkpt><trkpt lat="45.736160426053694" lon="11.744092367073439"><ele>101.5</ele><time>2026-05-01T10:42:34Z</time></trkpt><trkpt lat="45.73613303068963" lon="11.744578371603062"><ele>101.0</ele><time>2026-05-01T10:42:35Z</time></trkpt><trkpt lat="45.73610537625906" lon="11.745061542424244"><ele>101.0</ele><time>2026-05-01T10:42:36Z</time></trkpt><trkpt lat="45.73607764317846" lon="11.745545455044423"><ele>101.0</ele><time>2026-05-01T10:42:37Z</time></trkpt><trkpt lat="45.736050335548946" lon="11.746029960228531"><ele>101.0</ele><time>2026-05-01T10:42:38Z</time></trkpt><trkpt lat="45.736024527097754" lon="11.746513371886323"><ele>101.0</ele><time>2026-05-01T10:42:39Z</time></trkpt><trkpt lat="45.73599570268781" lon="11.747000412111902"><ele>101.0</ele><time>2026-05-01T10:42:40Z</time></trkpt><trkpt lat="45.73596832118247" lon="11.7474848630281"><ele>101.0</ele><time>2026-05-01T10:42:41Z</time></trkpt><trkpt lat="45.73593853504842" lon="11.747969893612625"><ele>101.5</ele><time>2026-05-01T10:42:42Z</time></trkpt><trkpt lat="45.73590913497024" lon="11.748453807672165"><ele>102.0</ele><time>2026-05-01T10:42:43Z</time></trkpt><trkpt lat="45.73588339439025" lon="11.748938065774803"><ele>101.5</ele><time>2026-05-01T10:42:44Z</time></trkpt><trkpt lat="45.7358641891462" lon="11.749420744689536"><ele>101.0</ele><time>2026-05-01T10:42:45Z</time></trkpt><trkpt lat="45.735854664025204" lon="11.74990662186088"><ele>102.5</ele><time>2026-05-01T10:42:46Z</time></trkpt><trkpt lat="45.7358557351296" lon="11.750389897084794"><ele>104.0</ele><time>2026-05-01T10:42:47Z</time></trkpt><trkpt lat="45.735873942064224" lon="11.75088068562689"><ele>102.5</ele><time>2026-05-01T10:42:48Z</time></trkpt><trkpt lat="45.73589660875658" lon="11.751365490266346"><ele>101.0</ele><time>2026-05-01T10:42:49Z</time></trkpt><trkpt lat="45.735933495811786" lon="11.751845725387899"><ele>101.0</ele><time>2026-05-01T10:42:50Z</time></trkpt><trkpt lat="45.73597676177075" lon="11.752328148489728"><ele>101.0</ele><time>2026-05-01T10:42:51Z</time></trkpt><trkpt lat="45.73603025991276" lon="11.752809973945228"><ele>101.0</ele><time>2026-05-01T10:42:52Z</time></trkpt><trkpt lat="45.73609209362944" lon="11.753287385351637"><ele>101.0</ele><time>2026-05-01T10:42:53Z</time></trkpt><trkpt lat="45.73615932023463" lon="11.753764803563744"><ele>101.0</ele><time>2026-05-01T10:42:54Z</time></trkpt><trkpt lat="45.73622644737243" lon="11.75424566281187"><ele>101.0</ele><time>2026-05-01T10:42:55Z</time></trkpt><trkpt lat="45.73629227367899" lon="11.754724751965696"><ele>101.0</ele><time>2026-05-01T10:42:56Z</time></trkpt><trkpt lat="45.736354514861056" lon="11.755206048890322"><ele>101.0</ele><time>2026-05-01T10:42:57Z</time></trkpt><trkpt lat="45.73641259175768" lon="11.75568611981563"><ele>101.0</ele><time>2026-05-01T10:42:58Z</time></trkpt><trkpt lat="45.73647077886206" lon="11.75616689468899"><ele>101.0</ele><time>2026-05-01T10:42:59Z</time></trkpt><trkpt lat="45.73653192013362" lon="11.756649490796164"><ele>100.5</ele><time>2026-05-01T10:43:00Z</time></trkpt><trkpt lat="45.73659471814178" lon="11.757131389844686"><ele>100.0</ele><time>2026-05-01T10:43:01Z</time></trkpt><trkpt lat="45.73666125306882" lon="11.75761352467238"><ele>100.5</ele><time>2026-05-01T10:43:02Z</time></trkpt><trkpt lat="45.73672643181799" lon="11.758095626736845"><ele>101.0</ele><time>2026-05-01T10:43:03Z</time></trkpt><trkpt lat="45.736791764755104" lon="11.758572720133277"><ele>101.5</ele><time>2026-05-01T10:43:04Z</time></trkpt><trkpt lat="45.736856321302476" lon="11.759050392973911"><ele>102.0</ele><time>2026-05-01T10:43:05Z</time></trkpt><trkpt lat="45.736921016411685" lon="11.759528785935409"><ele>102.5</ele><time>2026-05-01T10:43:06Z</time></trkpt><trkpt lat="45.736989439459286" lon="11.76000548955078"><ele>103.0</ele><time>2026-05-01T10:43:07Z</time></trkpt><trkpt lat="45.73705950038776" lon="11.760484051687374"><ele>103.0</ele><time>2026-05-01T10:43:08Z</time></trkpt><trkpt lat="45.73712973297186" lon="11.760961842636412"><ele>103.0</ele><time>2026-05-01T10:43:09Z</time></trkpt><trkpt lat="45.737200571365356" lon="11.761438758486735"><ele>102.0</ele><time>2026-05-01T10:43:10Z</time></trkpt><trkpt lat="45.737271530137576" lon="11.761917000181919"><ele>101.0</ele><time>2026-05-01T10:43:11Z</time></trkpt><trkpt lat="45.737342900104856" lon="11.762393064851208"><ele>101.0</ele><time>2026-05-01T10:43:12Z</time></trkpt><trkpt lat="45.73741414435755" lon="11.762873897166315"><ele>101.0</ele><time>2026-05-01T10:43:13Z</time></trkpt><trkpt lat="45.73747915566069" lon="11.763350776796832"><ele>102.0</ele><time>2026-05-01T10:43:14Z</time></trkpt><trkpt lat="45.73755302259953" lon="11.763830219986646"><ele>103.0</ele><time>2026-05-01T10:43:15Z</time></trkpt><trkpt lat="45.73762621539265" lon="11.76430574302214"><ele>102.5</ele><time>2026-05-01T10:43:16Z</time></trkpt><trkpt lat="45.737700157421905" lon="11.764782070028062"><ele>102.0</ele><time>2026-05-01T10:43:17Z</time></trkpt><trkpt lat="45.73777632521935" lon="11.765259353104819"><ele>102.0</ele><time>2026-05-01T10:43:18Z</time></trkpt><trkpt lat="45.73785597764578" lon="11.765734372654306"><ele>102.0</ele><time>2026-05-01T10:43:19Z</time></trkpt><trkpt lat="45.73793723116243" lon="11.766205458863848"><ele>102.0</ele><time>2026-05-01T10:43:20Z</time></trkpt><trkpt lat="45.73802156776037" lon="11.7666744867466"><ele>102.0</ele><time>2026-05-01T10:43:21Z</time></trkpt><trkpt lat="45.73810758195006" lon="11.767144604853852"><ele>102.5</ele><time>2026-05-01T10:43:22Z</time></trkpt><trkpt lat="45.738141657965585" lon="11.767625739604153"><ele>103.0</ele><time>2026-05-01T10:43:23Z</time></trkpt><trkpt lat="45.73827983628194" lon="11.768086152165193"><ele>103.0</ele><time>2026-05-01T10:43:24Z</time></trkpt><trkpt lat="45.73836247910215" lon="11.768558582866717"><ele>103.0</ele><time>2026-05-01T10:43:25Z</time></trkpt><trkpt lat="45.73844586683583" lon="11.769033048607014"><ele>103.0</ele><time>2026-05-01T10:43:26Z</time></trkpt><trkpt lat="45.73852957371521" lon="11.769507463319723"><ele>103.0</ele><time>2026-05-01T10:43:27Z</time></trkpt><trkpt lat="45.73861257460054" lon="11.7699816920142"><ele>102.5</ele><time>2026-05-01T10:43:28Z</time></trkpt><trkpt lat="45.73869679605939" lon="11.770454266613163"><ele>102.0</ele><time>2026-05-01T10:43:29Z</time></trkpt><trkpt lat="45.73878164289664" lon="11.770927804161373"><ele>101.5</ele><time>2026-05-01T10:43:30Z</time></trkpt><trkpt lat="45.73886786175424" lon="11.771402576686723"><ele>101.0</ele><time>2026-05-01T10:43:31Z</time></trkpt><trkpt lat="45.73895378164298" lon="11.771874841701914"><ele>101.0</ele><time>2026-05-01T10:43:32Z</time></trkpt><trkpt lat="45.73903744105266" lon="11.772349230648183"><ele>101.0</ele><time>2026-05-01T10:43:33Z</time></trkpt><trkpt lat="45.73911890554248" lon="11.772823168241802"><ele>101.0</ele><time>2026-05-01T10:43:34Z</time></trkpt><trkpt lat="45.73920024107542" lon="11.773297001508025"><ele>101.0</ele><time>2026-05-01T10:43:35Z</time></trkpt><trkpt lat="45.73927930927163" lon="11.773771544307927"><ele>101.0</ele><time>2026-05-01T10:43:36Z</time></trkpt><trkpt lat="45.73935772477874" lon="11.774249077445079"><ele>101.0</ele><time>2026-05-01T10:43:37Z</time></trkpt><trkpt lat="45.73943494300165" lon="11.774725781191776"><ele>101.0</ele><time>2026-05-01T10:43:38Z</time></trkpt><trkpt lat="45.739509286222855" lon="11.775198879525787"><ele>101.0</ele><time>2026-05-01T10:43:39Z</time></trkpt><trkpt lat="45.73958342441765" lon="11.77567692910022"><ele>101.5</ele><time>2026-05-01T10:43:40Z</time></trkpt><trkpt lat="45.7396567478559" lon="11.77615268218754"><ele>102.0</ele><time>2026-05-01T10:43:41Z</time></trkpt><trkpt lat="45.73972549163176" lon="11.776629993293186"><ele>101.0</ele><time>2026-05-01T10:43:42Z</time></trkpt><trkpt lat="45.739795870241444" lon="11.77710658165952"><ele>100.0</ele><time>2026-05-01T10:43:43Z</time></trkpt><trkpt lat="45.73986619425244" lon="11.7775844825463"><ele>99.5</ele><time>2026-05-01T10:43:44Z</time></trkpt><trkpt lat="45.73993728798624" lon="11.778062968205113"><ele>99.0</ele><time>2026-05-01T10:43:45Z</time></trkpt><trkpt lat="45.74000640827633" lon="11.778542533150809"><ele>99.0</ele><time>2026-05-01T10:43:46Z</time></trkpt><trkpt lat="45.74008697230183" lon="11.779019110118954"><ele>99.0</ele><time>2026-05-01T10:43:47Z</time></trkpt><trkpt lat="45.74016139636359" lon="11.779495365707962"><ele>99.5</ele><time>2026-05-01T10:43:48Z</time></trkpt><trkpt lat="45.74023299928279" lon="11.779971359237987"><ele>100.0</ele><time>2026-05-01T10:43:49Z</time></trkpt><trkpt lat="45.74030197185624" lon="11.780447156188215"><ele>100.0</ele><time>2026-05-01T10:43:50Z</time></trkpt><trkpt lat="45.74036840184285" lon="11.780924067981289"><ele>100.0</ele><time>2026-05-01T10:43:51Z</time></trkpt><trkpt lat="45.74040652012108" lon="11.781405521346342"><ele>99.5</ele><time>2026-05-01T10:43:52Z</time></trkpt><trkpt lat="45.740460414687384" lon="11.781882288615533"><ele>99.0</ele><time>2026-05-01T10:43:53Z</time></trkpt><trkpt lat="45.74051268369936" lon="11.782372800071391"><ele>99.0</ele><time>2026-05-01T10:43:54.025Z</time></trkpt><trkpt lat="45.74056350589291" lon="11.782849734053997"><ele>99.0</ele><time>2026-05-01T10:43:55.023Z</time></trkpt><trkpt lat="45.740614262119436" lon="11.783326049178688"><ele>98.5</ele><time>2026-05-01T10:43:56.022Z</time></trkpt><trkpt lat="45.740664993588126" lon="11.783802132031509"><ele>98.0</ele><time>2026-05-01T10:43:57.023Z</time></trkpt><trkpt lat="45.74111991566209" lon="11.790673742081774"><ele>98.0</ele><time>2026-05-01T10:44:11Z</time></trkpt><trkpt lat="45.741109576435576" lon="11.79115484929876"><ele>98.0</ele><time>2026-05-01T10:44:12Z</time></trkpt><trkpt lat="45.74114241392363" lon="11.79157688507271"><ele>98.0</ele><time>2026-05-01T10:44:13Z</time></trkpt><trkpt lat="45.74113052486855" lon="11.792060672276584"><ele>98.0</ele><time>2026-05-01T10:44:14Z</time></trkpt><trkpt lat="45.74112772186665" lon="11.792540421597689"><ele>98.0</ele><time>2026-05-01T10:44:15Z</time></trkpt><trkpt lat="45.74114271881414" lon="11.793025241674057"><ele>98.0</ele><time>2026-05-01T10:44:16Z</time></trkpt><trkpt lat="45.74117452828776" lon="11.793509275818616"><ele>98.0</ele><time>2026-05-01T10:44:17Z</time></trkpt><trkpt lat="45.74122690540651" lon="11.793987791845726"><ele>98.0</ele><time>2026-05-01T10:44:18Z</time></trkpt><trkpt lat="45.74126405110289" lon="11.794466798233106"><ele>98.0</ele><time>2026-05-01T10:44:19Z</time></trkpt><trkpt lat="45.74136695774444" lon="11.794935905236223"><ele>98.0</ele><time>2026-05-01T10:44:20Z</time></trkpt><trkpt lat="45.74145452868702" lon="11.795403276504267"><ele>98.0</ele><time>2026-05-01T10:44:21Z</time></trkpt><trkpt lat="45.74154575555828" lon="11.7958758540502"><ele>98.0</ele><time>2026-05-01T10:44:22Z</time></trkpt><trkpt lat="45.741630158179866" lon="11.796320271221632"><ele>97.5</ele><time>2026-05-01T10:44:23Z</time></trkpt><trkpt lat="45.741756082082716" lon="11.796774067819513"><ele>97.0</ele><time>2026-05-01T10:44:24Z</time></trkpt><trkpt lat="45.741901228177596" lon="11.797219637881373"><ele>96.0</ele><time>2026-05-01T10:44:25Z</time></trkpt><trkpt lat="45.74205409234774" lon="11.797657662184633"><ele>95.0</ele><time>2026-05-01T10:44:26Z</time></trkpt><trkpt lat="45.7422153121248" lon="11.798090154744491"><ele>96.0</ele><time>2026-05-01T10:44:27Z</time></trkpt><trkpt lat="45.74236981240389" lon="11.79852575271626"><ele>97.0</ele><time>2026-05-01T10:44:28Z</time></trkpt><trkpt lat="45.74252692321229" lon="11.798966264073838"><ele>96.5</ele><time>2026-05-01T10:44:29Z</time></trkpt><trkpt lat="45.74267761493073" lon="11.799409738582208"><ele>96.0</ele><time>2026-05-01T10:44:30Z</time></trkpt><trkpt lat="45.742817861548986" lon="11.799856039473832"><ele>96.0</ele><time>2026-05-01T10:44:31Z</time></trkpt><trkpt lat="45.74295262724195" lon="11.80030570917699"><ele>96.0</ele><time>2026-05-01T10:44:32Z</time></trkpt><trkpt lat="45.74307864806847" lon="11.800759683419095"><ele>95.0</ele><time>2026-05-01T10:44:33Z</time></trkpt><trkpt lat="45.74319541618817" lon="11.801221003733563"><ele>94.0</ele><time>2026-05-01T10:44:34Z</time></trkpt><trkpt lat="45.74330061140236" lon="11.80168712860334"><ele>93.5</ele><time>2026-05-01T10:44:35Z</time></trkpt><trkpt lat="45.74338883903306" lon="11.802160557550154"><ele>93.0</ele><time>2026-05-01T10:44:36Z</time></trkpt><trkpt lat="45.74346531763517" lon="11.802635742133365"><ele>93.0</ele><time>2026-05-01T10:44:37Z</time></trkpt><trkpt lat="45.743527351305694" lon="11.803119093634812"><ele>93.0</ele><time>2026-05-01T10:44:38Z</time></trkpt><trkpt lat="45.7435764168461" lon="11.80360291771184"><ele>93.5</ele><time>2026-05-01T10:44:39Z</time></trkpt><trkpt lat="45.743619278017455" lon="11.80408610148149"><ele>94.0</ele><time>2026-05-01T10:44:40Z</time></trkpt><trkpt lat="45.74365079557933" lon="11.804572615366311"><ele>95.0</ele><time>2026-05-01T10:44:41Z</time></trkpt><trkpt lat="45.74367644562729" lon="11.805058198973853"><ele>96.0</ele><time>2026-05-01T10:44:42Z</time></trkpt><trkpt lat="45.74369631766445" lon="11.805546653091298"><ele>94.5</ele><time>2026-05-01T10:44:43Z</time></trkpt><trkpt lat="45.74371463275309" lon="11.806034505298118"><ele>93.0</ele><time>2026-05-01T10:44:44Z</time></trkpt><trkpt lat="45.74373480979998" lon="11.80651949063663"><ele>92.5</ele><time>2026-05-01T10:44:45Z</time></trkpt><trkpt lat="45.74375780068357" lon="11.807004028795399"><ele>92.0</ele><time>2026-05-01T10:44:46Z</time></trkpt><trkpt lat="45.74378963295447" lon="11.807485867522654"><ele>91.5</ele><time>2026-05-01T10:44:47Z</time></trkpt><trkpt lat="45.74384015253395" lon="11.807961297523997"><ele>91.0</ele><time>2026-05-01T10:44:48Z</time></trkpt><trkpt lat="45.74390821176779" lon="11.808435385020395"><ele>91.0</ele><time>2026-05-01T10:44:49Z</time></trkpt><trkpt lat="45.743994032999744" lon="11.808905709232066"><ele>91.0</ele><time>2026-05-01T10:44:50Z</time></trkpt><trkpt lat="45.74409330915669" lon="11.80937094179312"><ele>91.0</ele><time>2026-05-01T10:44:51Z</time></trkpt><trkpt lat="45.74420181823542" lon="11.809832582709173"><ele>91.0</ele><time>2026-05-01T10:44:52Z</time></trkpt><trkpt lat="45.74431371344962" lon="11.810293162228275"><ele>91.5</ele><time>2026-05-01T10:44:53Z</time></trkpt><trkpt lat="45.74442350555495" lon="11.810757450142066"><ele>92.0</ele><time>2026-05-01T10:44:54Z</time></trkpt><trkpt lat="45.74453454886289" lon="11.811221733735886"><ele>92.0</ele><time>2026-05-01T10:44:55Z</time></trkpt><trkpt lat="45.74464268434012" lon="11.811697977186874"><ele>92.0</ele><time>2026-05-01T10:44:56.021Z</time></trkpt><trkpt lat="45.74474261327486" lon="11.812164989448206"><ele>90.5</ele><time>2026-05-01T10:44:57.017Z</time></trkpt><trkpt lat="45.74484364846085" lon="11.812634766403233"><ele>89.0</ele><time>2026-05-01T10:44:58.02Z</time></trkpt><trkpt lat="45.744945338079596" lon="11.813100937378701"><ele>89.0</ele><time>2026-05-01T10:44:59.015Z</time></trkpt><trkpt lat="45.745366313537346" lon="11.814960055064237"><ele>89.0</ele><time>2026-05-01T10:45:02.999Z</time></trkpt><trkpt lat="45.74546539979522" lon="11.815426601648424"><ele>89.0</ele><time>2026-05-01T10:45:03.999Z</time></trkpt><trkpt lat="45.7455564329339" lon="11.815893066716717"><ele>89.0</ele><time>2026-05-01T10:45:04.999Z</time></trkpt><trkpt lat="45.745645592527765" lon="11.816370929840547"><ele>89.0</ele><time>2026-05-01T10:45:05.999Z</time></trkpt><trkpt lat="45.745729565392104" lon="11.816843940447521"><ele>89.0</ele><time>2026-05-01T10:45:06.999Z</time></trkpt><trkpt lat="45.74580713683815" lon="11.817314607655568"><ele>89.0</ele><time>2026-05-01T10:45:07.999Z</time></trkpt><trkpt lat="45.7458795600149" lon="11.817789999006092"><ele>88.5</ele><time>2026-05-01T10:45:09Z</time></trkpt><trkpt lat="45.745945794220745" lon="11.818266953707402"><ele>88.0</ele><time>2026-05-01T10:45:10Z</time></trkpt><trkpt lat="45.746011047433406" lon="11.818744222164684"><ele>89.0</ele><time>2026-05-01T10:45:11Z</time></trkpt><trkpt lat="45.746064738638964" lon="11.819224226098335"><ele>90.0</ele><time>2026-05-01T10:45:12Z</time></trkpt><trkpt lat="45.7461175592196" lon="11.819701122962522"><ele>89.0</ele><time>2026-05-01T10:45:13Z</time></trkpt><trkpt lat="45.74616204503218" lon="11.820185012008446"><ele>88.0</ele><time>2026-05-01T10:45:14Z</time></trkpt><trkpt lat="45.746202701528944" lon="11.820665929891623"><ele>87.5</ele><time>2026-05-01T10:45:15Z</time></trkpt><trkpt lat="45.74625043768693" lon="11.821144242076874"><ele>87.0</ele><time>2026-05-01T10:45:16Z</time></trkpt><trkpt lat="45.74628880324371" lon="11.821635057292585"><ele>87.0</ele><time>2026-05-01T10:45:17Z</time></trkpt><trkpt lat="45.74633016842398" lon="11.822115430177107"><ele>87.0</ele><time>2026-05-01T10:45:18Z</time></trkpt><trkpt lat="45.7463721737256" lon="11.822579331330367"><ele>88.0</ele><time>2026-05-01T10:45:19Z</time></trkpt><trkpt lat="45.74641205127033" lon="11.823061706585456"><ele>89.0</ele><time>2026-05-01T10:45:20Z</time></trkpt><trkpt lat="45.746446828261725" lon="11.823543346119155"><ele>89.0</ele><time>2026-05-01T10:45:21Z</time></trkpt><trkpt lat="45.746483036348806" lon="11.824027333772152"><ele>89.0</ele><time>2026-05-01T10:45:22Z</time></trkpt><trkpt lat="45.74652042010403" lon="11.82451126876119"><ele>88.0</ele><time>2026-05-01T10:45:23Z</time></trkpt><trkpt lat="45.74655529112621" lon="11.824995184519622"><ele>87.0</ele><time>2026-05-01T10:45:24Z</time></trkpt><trkpt lat="45.746588950652274" lon="11.825480102042215"><ele>87.0</ele><time>2026-05-01T10:45:25Z</time></trkpt><trkpt lat="45.746620410420256" lon="11.825965830019147"><ele>87.0</ele><time>2026-05-01T10:45:26Z</time></trkpt><trkpt lat="45.746650849708125" lon="11.826453027369483"><ele>86.0</ele><time>2026-05-01T10:45:27Z</time></trkpt><trkpt lat="45.746679725132864" lon="11.826942478013379"><ele>85.0</ele><time>2026-05-01T10:45:28Z</time></trkpt><trkpt lat="45.746709489645056" lon="11.827431097073049"><ele>85.0</ele><time>2026-05-01T10:45:29Z</time></trkpt><trkpt lat="45.746738866773086" lon="11.827918491422526"><ele>85.0</ele><time>2026-05-01T10:45:30Z</time></trkpt><trkpt lat="45.74676650676443" lon="11.828405980342794"><ele>84.5</ele><time>2026-05-01T10:45:31Z</time></trkpt><trkpt lat="45.74679187207721" lon="11.828894416366376"><ele>84.0</ele><time>2026-05-01T10:45:32Z</time></trkpt><trkpt lat="45.746815616184776" lon="11.829380018455819"><ele>84.0</ele><time>2026-05-01T10:45:33Z</time></trkpt><trkpt lat="45.7468356745001" lon="11.829866359577244"><ele>84.0</ele><time>2026-05-01T10:45:34Z</time></trkpt><trkpt lat="45.74685324996009" lon="11.830351919961016"><ele>84.0</ele><time>2026-05-01T10:45:35Z</time></trkpt><trkpt lat="45.74686673213559" lon="11.830839149213952"><ele>84.0</ele><time>2026-05-01T10:45:36Z</time></trkpt><trkpt lat="45.74687830675332" lon="11.831325417298725"><ele>84.0</ele><time>2026-05-01T10:45:37Z</time></trkpt><trkpt lat="45.746889081253315" lon="11.831812432573122"><ele>84.0</ele><time>2026-05-01T10:45:38Z</time></trkpt><trkpt lat="45.74689600490811" lon="11.832297537834455"><ele>84.5</ele><time>2026-05-01T10:45:39Z</time></trkpt><trkpt lat="45.74689972886241" lon="11.832783483655929"><ele>85.0</ele><time>2026-05-01T10:45:40Z</time></trkpt><trkpt lat="45.7469012397694" lon="11.833268360723181"><ele>84.5</ele><time>2026-05-01T10:45:41Z</time></trkpt><trkpt lat="45.74690163338939" lon="11.833755216764084"><ele>84.0</ele><time>2026-05-01T10:45:42Z</time></trkpt><trkpt lat="45.74689855787407" lon="11.834242571582577"><ele>84.0</ele><time>2026-05-01T10:45:43Z</time></trkpt><trkpt lat="45.74689228550768" lon="11.834729772981754"><ele>84.0</ele><time>2026-05-01T10:45:44Z</time></trkpt><trkpt lat="45.746883352424206" lon="11.835218689159092"><ele>83.5</ele><time>2026-05-01T10:45:45Z</time></trkpt><trkpt lat="45.74687214535039" lon="11.835708571182204"><ele>83.0</ele><time>2026-05-01T10:45:46Z</time></trkpt><trkpt lat="45.74685808885139" lon="11.83619856315829"><ele>83.0</ele><time>2026-05-01T10:45:47Z</time></trkpt><trkpt lat="45.74683956673562" lon="11.836687706633871"><ele>83.0</ele><time>2026-05-01T10:45:48Z</time></trkpt><trkpt lat="45.74681388067757" lon="11.837173819493918"><ele>83.5</ele><time>2026-05-01T10:45:49Z</time></trkpt><trkpt lat="45.74678028874482" lon="11.837661001116732"><ele>84.0</ele><time>2026-05-01T10:45:50Z</time></trkpt><trkpt lat="45.74675042696819" lon="11.838146616900769"><ele>82.5</ele><time>2026-05-01T10:45:51Z</time></trkpt><trkpt lat="45.74672183042181" lon="11.838634298747689"><ele>81.0</ele><time>2026-05-01T10:45:52Z</time></trkpt><trkpt lat="45.746693701376095" lon="11.839122295668536"><ele>81.0</ele><time>2026-05-01T10:45:53Z</time></trkpt><trkpt lat="45.746664410237614" lon="11.839610597222281"><ele>81.0</ele><time>2026-05-01T10:45:54Z</time></trkpt><trkpt lat="45.7466340160925" lon="11.840098356875512"><ele>80.5</ele><time>2026-05-01T10:45:55Z</time></trkpt><trkpt lat="45.746601717558015" lon="11.84058545027647"><ele>80.0</ele><time>2026-05-01T10:45:56Z</time></trkpt><trkpt lat="45.746573157077556" lon="11.841071903944364"><ele>80.0</ele><time>2026-05-01T10:45:57Z</time></trkpt><trkpt lat="45.74653938630861" lon="11.841558455315802"><ele>80.0</ele><time>2026-05-01T10:45:58Z</time></trkpt><trkpt lat="45.74650579496135" lon="11.842044986811931"><ele>80.5</ele><time>2026-05-01T10:45:59Z</time></trkpt><trkpt lat="45.74647107599904" lon="11.84253414026305"><ele>81.0</ele><time>2026-05-01T10:46:00Z</time></trkpt><trkpt lat="45.74643596138483" lon="11.843022887435787"><ele>79.5</ele><time>2026-05-01T10:46:01Z</time></trkpt><trkpt lat="45.74640297947349" lon="11.843508956999488"><ele>78.0</ele><time>2026-05-01T10:46:02Z</time></trkpt><trkpt lat="45.74636878876672" lon="11.843993505050094"><ele>78.5</ele><time>2026-05-01T10:46:03Z</time></trkpt><trkpt lat="45.746331530396716" lon="11.844477704367282"><ele>79.0</ele><time>2026-05-01T10:46:04Z</time></trkpt><trkpt lat="45.74629110894438" lon="11.84496115698664"><ele>79.5</ele><time>2026-05-01T10:46:05Z</time></trkpt><trkpt lat="45.74625219463619" lon="11.845443903938289"><ele>80.0</ele><time>2026-05-01T10:46:06Z</time></trkpt><trkpt lat="45.74622384027884" lon="11.845928107841125"><ele>79.5</ele><time>2026-05-01T10:46:07Z</time></trkpt><trkpt lat="45.74620702146636" lon="11.846413003314703"><ele>79.0</ele><time>2026-05-01T10:46:08Z</time></trkpt><trkpt lat="45.74620108027365" lon="11.846894298055654"><ele>79.0</ele><time>2026-05-01T10:46:09Z</time></trkpt><trkpt lat="45.74620932963945" lon="11.847379605158773"><ele>79.0</ele><time>2026-05-01T10:46:10Z</time></trkpt><trkpt lat="45.746223559694656" lon="11.847867625535665"><ele>79.0</ele><time>2026-05-01T10:46:11Z</time></trkpt><trkpt lat="45.7462438924993" lon="11.84835535138714"><ele>79.0</ele><time>2026-05-01T10:46:12Z</time></trkpt><trkpt lat="45.74626896297465" lon="11.848842512278331"><ele>78.5</ele><time>2026-05-01T10:46:13Z</time></trkpt><trkpt lat="45.74630527618586" lon="11.849329125585262"><ele>78.0</ele><time>2026-05-01T10:46:14Z</time></trkpt><trkpt lat="45.74635237914771" lon="11.849813199033068"><ele>77.5</ele><time>2026-05-01T10:46:15Z</time></trkpt><trkpt lat="45.74640444642952" lon="11.850295950704513"><ele>77.0</ele><time>2026-05-01T10:46:16Z</time></trkpt><trkpt lat="45.74646423081411" lon="11.85077756332698"><ele>77.0</ele><time>2026-05-01T10:46:17Z</time></trkpt><trkpt lat="45.746533496205046" lon="11.851256815186321"><ele>77.0</ele><time>2026-05-01T10:46:18Z</time></trkpt><trkpt lat="45.746612727497485" lon="11.851732826227385"><ele>77.0</ele><time>2026-05-01T10:46:19Z</time></trkpt><trkpt lat="45.746700024883474" lon="11.852206072593743"><ele>77.0</ele><time>2026-05-01T10:46:20Z</time></trkpt><trkpt lat="45.74679703318264" lon="11.852674888209476"><ele>77.5</ele><time>2026-05-01T10:46:21Z</time></trkpt><trkpt lat="45.74690320003532" lon="11.853139618460414"><ele>78.0</ele><time>2026-05-01T10:46:22Z</time></trkpt><trkpt lat="45.74701674376921" lon="11.853601536555422"><ele>77.5</ele><time>2026-05-01T10:46:23Z</time></trkpt><trkpt lat="45.747137794654776" lon="11.854059377649156"><ele>77.0</ele><time>2026-05-01T10:46:24Z</time></trkpt><trkpt lat="45.74726394551258" lon="11.854515149668142"><ele>77.0</ele><time>2026-05-01T10:46:25Z</time></trkpt><trkpt lat="45.74739894318302" lon="11.854965704373308"><ele>77.0</ele><time>2026-05-01T10:46:26Z</time></trkpt><trkpt lat="45.74754270327634" lon="11.855409064153271"><ele>76.5</ele><time>2026-05-01T10:46:27Z</time></trkpt><trkpt lat="45.747696184398414" lon="11.8558444626008"><ele>76.0</ele><time>2026-05-01T10:46:28Z</time></trkpt><trkpt lat="45.74785737857726" lon="11.85627268169478"><ele>76.0</ele><time>2026-05-01T10:46:29Z</time></trkpt><trkpt lat="45.74802481221384" lon="11.856698125624398"><ele>76.0</ele><time>2026-05-01T10:46:30Z</time></trkpt><trkpt lat="45.748202025358395" lon="11.857115639929537"><ele>76.0</ele><time>2026-05-01T10:46:31Z</time></trkpt><trkpt lat="45.74837828987428" lon="11.857529401605662"><ele>76.0</ele><time>2026-05-01T10:46:32Z</time></trkpt><trkpt lat="45.7485562409336" lon="11.857944954236089"><ele>75.0</ele><time>2026-05-01T10:46:33Z</time></trkpt><trkpt lat="45.748741427656704" lon="11.858370478446043"><ele>74.0</ele><time>2026-05-01T10:46:34.027Z</time></trkpt><trkpt lat="45.74891839111114" lon="11.858781033994342"><ele>74.0</ele><time>2026-05-01T10:46:35.016Z</time></trkpt><trkpt lat="45.749090402241414" lon="11.8591915744667"><ele>74.0</ele><time>2026-05-01T10:46:36Z</time></trkpt><trkpt lat="45.74926228710596" lon="11.859611674779517"><ele>74.5</ele><time>2026-05-01T10:46:37Z</time></trkpt><trkpt lat="45.74943244711522" lon="11.860036906141726"><ele>75.0</ele><time>2026-05-01T10:46:38Z</time></trkpt><trkpt lat="45.74962425713091" lon="11.86043440225242"><ele>75.5</ele><time>2026-05-01T10:46:39Z</time></trkpt><trkpt lat="45.74980495083219" lon="11.860846661738787"><ele>76.0</ele><time>2026-05-01T10:46:40Z</time></trkpt><trkpt lat="45.74998576026865" lon="11.861259956660536"><ele>75.0</ele><time>2026-05-01T10:46:41Z</time></trkpt><trkpt lat="45.75016340016677" lon="11.861674206167102"><ele>74.0</ele><time>2026-05-01T10:46:42Z</time></trkpt><trkpt lat="45.75034170626564" lon="11.862089240441243"><ele>73.5</ele><time>2026-05-01T10:46:43Z</time></trkpt><trkpt lat="45.750523613396716" lon="11.862503191447914"><ele>73.0</ele><time>2026-05-01T10:46:44Z</time></trkpt><trkpt lat="45.75070475719976" lon="11.862919910735247"><ele>72.0</ele><time>2026-05-01T10:46:45Z</time></trkpt><trkpt lat="45.75088225512576" lon="11.863336763092262"><ele>71.0</ele><time>2026-05-01T10:46:46Z</time></trkpt><trkpt lat="45.751057715259535" lon="11.863755547790493"><ele>73.0</ele><time>2026-05-01T10:46:47Z</time></trkpt><trkpt lat="45.75123318458695" lon="11.864173956025327"><ele>75.0</ele><time>2026-05-01T10:46:48Z</time></trkpt><trkpt lat="45.75141127793911" lon="11.864590988208954"><ele>75.5</ele><time>2026-05-01T10:46:49Z</time></trkpt><trkpt lat="45.75158463243021" lon="11.865010613456972"><ele>76.0</ele><time>2026-05-01T10:46:50Z</time></trkpt><trkpt lat="45.751753709639345" lon="11.865434438640822"><ele>75.5</ele><time>2026-05-01T10:46:51Z</time></trkpt><trkpt lat="45.751920607116325" lon="11.86585731138293"><ele>75.0</ele><time>2026-05-01T10:46:52Z</time></trkpt><trkpt lat="45.75208523460802" lon="11.866286912204185"><ele>74.0</ele><time>2026-05-01T10:46:53Z</time></trkpt><trkpt lat="45.752247442279234" lon="11.866720172733979"><ele>73.0</ele><time>2026-05-01T10:46:54Z</time></trkpt><trkpt lat="45.752403755725794" lon="11.867151304168392"><ele>73.0</ele><time>2026-05-01T10:46:55Z</time></trkpt><trkpt lat="45.75255746465985" lon="11.867588375787154"><ele>73.0</ele><time>2026-05-01T10:46:56Z</time></trkpt><trkpt lat="45.752704424292546" lon="11.868029361682092"><ele>73.5</ele><time>2026-05-01T10:46:57Z</time></trkpt><trkpt lat="45.75284694889446" lon="11.86847481192666"><ele>74.0</ele><time>2026-05-01T10:46:58Z</time></trkpt><trkpt lat="45.75298372055884" lon="11.868921879406553"><ele>73.5</ele><time>2026-05-01T10:46:59Z</time></trkpt><trkpt lat="45.753115066903334" lon="11.869369856788456"><ele>73.0</ele><time>2026-05-01T10:47:00Z</time></trkpt><trkpt lat="45.75324203873588" lon="11.869820063941003"><ele>72.5</ele><time>2026-05-01T10:47:01Z</time></trkpt><trkpt lat="45.753365326964435" lon="11.87027095517675"><ele>72.0</ele><time>2026-05-01T10:47:01.999Z</time></trkpt><trkpt lat="45.753481017607676" lon="11.870724531960798"><ele>72.5</ele><time>2026-05-01T10:47:02.999Z</time></trkpt><trkpt lat="45.7535951468166" lon="11.871180716915772"><ele>73.0</ele><time>2026-05-01T10:47:03.999Z</time></trkpt><trkpt lat="45.75370466380453" lon="11.87164224356207"><ele>73.0</ele><time>2026-05-01T10:47:04.999Z</time></trkpt><trkpt lat="45.753807801488584" lon="11.87210611687118"><ele>73.0</ele><time>2026-05-01T10:47:05.999Z</time></trkpt><trkpt lat="45.75390560179908" lon="11.872571010800506"><ele>73.0</ele><time>2026-05-01T10:47:06.999Z</time></trkpt><trkpt lat="45.753997976447494" lon="11.87303912558239"><ele>73.0</ele><time>2026-05-01T10:47:07.999Z</time></trkpt><trkpt lat="45.754088716973484" lon="11.873509964184217"><ele>73.0</ele><time>2026-05-01T10:47:08.999Z</time></trkpt><trkpt lat="45.75417345445409" lon="11.873979940087013"><ele>73.0</ele><time>2026-05-01T10:47:09.999Z</time></trkpt><trkpt lat="45.754251257299" lon="11.874454908344108"><ele>73.0</ele><time>2026-05-01T10:47:10.999Z</time></trkpt><trkpt lat="45.754321532768806" lon="11.874932836081934"><ele>73.0</ele><time>2026-05-01T10:47:11.999Z</time></trkpt><trkpt lat="45.75438699499185" lon="11.875412972429913"><ele>73.5</ele><time>2026-05-01T10:47:12.999Z</time></trkpt><trkpt lat="45.75445079934113" lon="11.875891303276513"><ele>74.0</ele><time>2026-05-01T10:47:13.999Z</time></trkpt><trkpt lat="45.754510807875945" lon="11.876372400989645"><ele>73.5</ele><time>2026-05-01T10:47:15Z</time></trkpt><trkpt lat="45.75456458852076" lon="11.876854015966993"><ele>73.0</ele><time>2026-05-01T10:47:16Z</time></trkpt><trkpt lat="45.75461317723586" lon="11.877336993792246"><ele>73.5</ele><time>2026-05-01T10:47:17Z</time></trkpt><trkpt lat="45.75465394348549" lon="11.877822887164838"><ele>74.0</ele><time>2026-05-01T10:47:18Z</time></trkpt><trkpt lat="45.75468973187951" lon="11.878308509745665"><ele>74.0</ele><time>2026-05-01T10:47:19Z</time></trkpt><trkpt lat="45.75472390223052" lon="11.878794112180266"><ele>74.0</ele><time>2026-05-01T10:47:20Z</time></trkpt><trkpt lat="45.75475192342775" lon="11.879282777346123"><ele>74.0</ele><time>2026-05-01T10:47:21Z</time></trkpt><trkpt lat="45.7547758030767" lon="11.879771744142605"><ele>74.0</ele><time>2026-05-01T10:47:22Z</time></trkpt><trkpt lat="45.754793516806444" lon="11.88026120506381"><ele>74.0</ele><time>2026-05-01T10:47:23Z</time></trkpt><trkpt lat="45.754806494391396" lon="11.880751411896867"><ele>74.0</ele><time>2026-05-01T10:47:24Z</time></trkpt><trkpt lat="45.7548150123585" lon="11.881241473318203"><ele>74.0</ele><time>2026-05-01T10:47:25Z</time></trkpt><trkpt lat="45.75481723290869" lon="11.881729906025434"><ele>74.0</ele><time>2026-05-01T10:47:26Z</time></trkpt><trkpt lat="45.75481397165563" lon="11.882218019625704"><ele>72.5</ele><time>2026-05-01T10:47:27Z</time></trkpt><trkpt lat="45.754804317399994" lon="11.88270617070488"><ele>71.0</ele><time>2026-05-01T10:47:28Z</time></trkpt><trkpt lat="45.754791347498426" lon="11.883192600642369"><ele>71.0</ele><time>2026-05-01T10:47:29Z</time></trkpt><trkpt lat="45.75477668905012" lon="11.883678381377287"><ele>71.0</ele><time>2026-05-01T10:47:30Z</time></trkpt><trkpt lat="45.75475967282723" lon="11.884163683998489"><ele>71.0</ele><time>2026-05-01T10:47:31Z</time></trkpt><trkpt lat="45.75473376120379" lon="11.88465225508078"><ele>71.0</ele><time>2026-05-01T10:47:32Z</time></trkpt><trkpt lat="45.75469901192006" lon="11.885138004998211"><ele>72.5</ele><time>2026-05-01T10:47:33Z</time></trkpt><trkpt lat="45.75466007529186" lon="11.885621770831712"><ele>74.0</ele><time>2026-05-01T10:47:34Z</time></trkpt><trkpt lat="45.75461621110407" lon="11.886103399304307"><ele>74.5</ele><time>2026-05-01T10:47:35Z</time></trkpt><trkpt lat="45.75456809889734" lon="11.886585038573575"><ele>75.0</ele><time>2026-05-01T10:47:36Z</time></trkpt><trkpt lat="45.75451661798847" lon="11.887065310202535"><ele>75.0</ele><time>2026-05-01T10:47:37Z</time></trkpt><trkpt lat="45.75445623338046" lon="11.88754581359421"><ele>75.0</ele><time>2026-05-01T10:47:38Z</time></trkpt><trkpt lat="45.75438751032167" lon="11.888024176572888"><ele>73.0</ele><time>2026-05-01T10:47:39Z</time></trkpt><trkpt lat="45.75431343081954" lon="11.88850065356345"><ele>71.0</ele><time>2026-05-01T10:47:40Z</time></trkpt><trkpt lat="45.754235255025115" lon="11.888977440522803"><ele>72.0</ele><time>2026-05-01T10:47:41Z</time></trkpt><trkpt lat="45.75415300559345" lon="11.889451898525444"><ele>73.0</ele><time>2026-05-01T10:47:42Z</time></trkpt><trkpt lat="45.754068161483495" lon="11.88992575684966"><ele>73.0</ele><time>2026-05-01T10:47:43Z</time></trkpt><trkpt lat="45.75397857947215" lon="11.890399329641903"><ele>73.0</ele><time>2026-05-01T10:47:44Z</time></trkpt><trkpt lat="45.75388580204946" lon="11.890867582196915"><ele>73.5</ele><time>2026-05-01T10:47:45Z</time></trkpt><trkpt lat="45.753785600490154" lon="11.891332125713534"><ele>74.0</ele><time>2026-05-01T10:47:46Z</time></trkpt><trkpt lat="45.753681274342135" lon="11.891796930531893"><ele>74.0</ele><time>2026-05-01T10:47:47Z</time></trkpt><trkpt lat="45.75357460655591" lon="11.892258854019675"><ele>74.0</ele><time>2026-05-01T10:47:48Z</time></trkpt><trkpt lat="45.75346519501707" lon="11.89272141891545"><ele>73.5</ele><time>2026-05-01T10:47:49Z</time></trkpt><trkpt lat="45.753350497323765" lon="11.893180313623871"><ele>73.0</ele><time>2026-05-01T10:47:50Z</time></trkpt><trkpt lat="45.75323456958952" lon="11.893638836529423"><ele>72.5</ele><time>2026-05-01T10:47:51Z</time></trkpt><trkpt lat="45.75311819948958" lon="11.894095571407677"><ele>72.0</ele><time>2026-05-01T10:47:52Z</time></trkpt><trkpt lat="45.75300268035319" lon="11.894556410602561"><ele>72.0</ele><time>2026-05-01T10:47:53Z</time></trkpt><trkpt lat="45.752886948610815" lon="11.895012521944768"><ele>72.0</ele><time>2026-05-01T10:47:54Z</time></trkpt><trkpt lat="45.752769454831636" lon="11.895469539947229"><ele>71.5</ele><time>2026-05-01T10:47:55Z</time></trkpt><trkpt lat="45.75265161427744" lon="11.895925437344806"><ele>71.0</ele><time>2026-05-01T10:47:56Z</time></trkpt><trkpt lat="45.752533828271844" lon="11.896381407483206"><ele>71.0</ele><time>2026-05-01T10:47:57Z</time></trkpt><trkpt lat="45.75241705089616" lon="11.896838485552236"><ele>71.0</ele><time>2026-05-01T10:47:58Z</time></trkpt><trkpt lat="45.75230121551108" lon="11.897296058440377"><ele>71.0</ele><time>2026-05-01T10:47:59Z</time></trkpt><trkpt lat="45.75218535365303" lon="11.89775539512173"><ele>71.0</ele><time>2026-05-01T10:48:00Z</time></trkpt><trkpt lat="45.752068529561576" lon="11.898216175436756"><ele>71.5</ele><time>2026-05-01T10:48:01Z</time></trkpt><trkpt lat="45.75195223168584" lon="11.898674010173947"><ele>72.0</ele><time>2026-05-01T10:48:02Z</time></trkpt><trkpt lat="45.75183399314149" lon="11.899132389701135"><ele>71.5</ele><time>2026-05-01T10:48:03Z</time></trkpt><trkpt lat="45.751715114860346" lon="11.899589849167207"><ele>71.0</ele><time>2026-05-01T10:48:04Z</time></trkpt><trkpt lat="45.751596145605774" lon="11.900048850011624"><ele>71.0</ele><time>2026-05-01T10:48:05Z</time></trkpt><trkpt lat="45.75147825534627" lon="11.90050945152313"><ele>71.0</ele><time>2026-05-01T10:48:06Z</time></trkpt><trkpt lat="45.75136342814133" lon="11.900967169642914"><ele>71.0</ele><time>2026-05-01T10:48:07Z</time></trkpt><trkpt lat="45.75124683083669" lon="11.901425503686264"><ele>71.0</ele><time>2026-05-01T10:48:08Z</time></trkpt><trkpt lat="45.75112895789546" lon="11.90188483849042"><ele>71.0</ele><time>2026-05-01T10:48:09Z</time></trkpt><trkpt lat="45.751010286905675" lon="11.902345041334028"><ele>71.0</ele><time>2026-05-01T10:48:10Z</time></trkpt><trkpt lat="45.750891322149194" lon="11.902808163732782"><ele>71.0</ele><time>2026-05-01T10:48:11Z</time></trkpt><trkpt lat="45.750772640824174" lon="11.903265247954174"><ele>71.0</ele><time>2026-05-01T10:48:12Z</time></trkpt><trkpt lat="45.75065269398293" lon="11.903725254327595"><ele>71.5</ele><time>2026-05-01T10:48:13Z</time></trkpt><trkpt lat="45.750533483056884" lon="11.904186476075292"><ele>72.0</ele><time>2026-05-01T10:48:14Z</time></trkpt><trkpt lat="45.750415723316685" lon="11.904647091428242"><ele>71.5</ele><time>2026-05-01T10:48:15Z</time></trkpt><trkpt lat="45.75029961048164" lon="11.905107499522767"><ele>71.0</ele><time>2026-05-01T10:48:16Z</time></trkpt><trkpt lat="45.75018255350102" lon="11.90556696262985"><ele>71.0</ele><time>2026-05-01T10:48:17Z</time></trkpt><trkpt lat="45.7500651312757" lon="11.906027189022154"><ele>71.0</ele><time>2026-05-01T10:48:18Z</time></trkpt><trkpt lat="45.749947621315535" lon="11.906485086757879"><ele>71.5</ele><time>2026-05-01T10:48:19Z</time></trkpt><trkpt lat="45.74983047226674" lon="11.906942642928106"><ele>72.0</ele><time>2026-05-01T10:48:20Z</time></trkpt><trkpt lat="45.74971137879492" lon="11.907399302471113"><ele>72.0</ele><time>2026-05-01T10:48:21Z</time></trkpt><trkpt lat="45.749592330729314" lon="11.907856583049382"><ele>72.0</ele><time>2026-05-01T10:48:22Z</time></trkpt><trkpt lat="45.74947310658065" lon="11.908315395275354"><ele>72.5</ele><time>2026-05-01T10:48:23Z</time></trkpt><trkpt lat="45.749352867467266" lon="11.908771606333556"><ele>73.0</ele><time>2026-05-01T10:48:24Z</time></trkpt><trkpt lat="45.74923119400434" lon="11.90922667265426"><ele>73.5</ele><time>2026-05-01T10:48:25Z</time></trkpt><trkpt lat="45.74910502552928" lon="11.909680388179728"><ele>74.0</ele><time>2026-05-01T10:48:26Z</time></trkpt><trkpt lat="45.748973964578454" lon="11.910141651617975"><ele>74.0</ele><time>2026-05-01T10:48:27.019Z</time></trkpt><trkpt lat="45.74884081719691" lon="11.910592681598645"><ele>74.0</ele><time>2026-05-01T10:48:28.021Z</time></trkpt><trkpt lat="45.7486964611632" lon="11.91103395255675"><ele>73.5</ele><time>2026-05-01T10:48:29.021Z</time></trkpt><trkpt lat="45.74856634647127" lon="11.91147147112342"><ele>73.0</ele><time>2026-05-01T10:48:30.019Z</time></trkpt><trkpt lat="45.74841887204209" lon="11.911906143633468"><ele>72.0</ele><time>2026-05-01T10:48:31.023Z</time></trkpt><trkpt lat="45.747160459911214" lon="11.914818445231687"><ele>72.0</ele><time>2026-05-01T10:48:38Z</time></trkpt><trkpt lat="45.74698934847024" lon="11.915237791919475"><ele>72.0</ele><time>2026-05-01T10:48:39Z</time></trkpt><trkpt lat="45.74802791540906" lon="11.91524829266164"><ele>72.0</ele><time>2026-05-01T10:48:40Z</time></trkpt><trkpt lat="45.74785069816061" lon="11.915708723634923"><ele>72.0</ele><time>2026-05-01T10:48:41Z</time></trkpt><trkpt lat="45.746493658324965" lon="11.916505974489557"><ele>72.0</ele><time>2026-05-01T10:48:42Z</time></trkpt><trkpt lat="45.74631609939766" lon="11.91692304368601"><ele>72.0</ele><time>2026-05-01T10:48:43Z</time></trkpt><trkpt lat="45.746138292904355" lon="11.917341486656907"><ele>72.0</ele><time>2026-05-01T10:48:44Z</time></trkpt><trkpt lat="45.74596023588602" lon="11.917756672958804"><ele>72.0</ele><time>2026-05-01T10:48:45Z</time></trkpt><trkpt lat="45.74578485209533" lon="11.918172503637555"><ele>73.0</ele><time>2026-05-01T10:48:46Z</time></trkpt><trkpt lat="45.74561262795032" lon="11.918592572336388"><ele>74.0</ele><time>2026-05-01T10:48:47Z</time></trkpt><trkpt lat="45.74545452681663" lon="11.919024235150946"><ele>74.0</ele><time>2026-05-01T10:48:48Z</time></trkpt><trkpt lat="45.74530959273341" lon="11.919464068606038"><ele>74.0</ele><time>2026-05-01T10:48:49Z</time></trkpt><trkpt lat="45.74516412066066" lon="11.91991569990416"><ele>72.5</ele><time>2026-05-01T10:48:50Z</time></trkpt><trkpt lat="45.745076306185304" lon="11.92037770680408"><ele>71.0</ele><time>2026-05-01T10:48:51Z</time></trkpt><trkpt lat="45.744968507393835" lon="11.920834127209899"><ele>72.0</ele><time>2026-05-01T10:48:52Z</time></trkpt><trkpt lat="45.744874421758375" lon="11.921301517845286"><ele>73.0</ele><time>2026-05-01T10:48:53Z</time></trkpt><trkpt lat="45.74479370725675" lon="11.9217723899907"><ele>73.0</ele><time>2026-05-01T10:48:54Z</time></trkpt><trkpt lat="45.74472160289875" lon="11.922248776017872"><ele>73.0</ele><time>2026-05-01T10:48:55Z</time></trkpt><trkpt lat="45.744636339328146" lon="11.922717865344895"><ele>73.0</ele><time>2026-05-01T10:48:56Z</time></trkpt><trkpt lat="45.74457184815097" lon="11.923194726601428"><ele>73.0</ele><time>2026-05-01T10:48:57Z</time></trkpt><trkpt lat="45.74451250901049" lon="11.923675840070242"><ele>73.5</ele><time>2026-05-01T10:48:58Z</time></trkpt><trkpt lat="45.74445081844333" lon="11.92415561243146"><ele>74.0</ele><time>2026-05-01T10:48:59Z</time></trkpt><trkpt lat="45.744388999062885" lon="11.924636411876461"><ele>73.5</ele><time>2026-05-01T10:49:00Z</time></trkpt><trkpt lat="45.744326755773194" lon="11.92511849965119"><ele>73.0</ele><time>2026-05-01T10:49:01Z</time></trkpt><trkpt lat="45.74426327686509" lon="11.925598547320856"><ele>73.0</ele><time>2026-05-01T10:49:02Z</time></trkpt><trkpt lat="45.74419763279185" lon="11.926077550924672"><ele>73.0</ele><time>2026-05-01T10:49:03Z</time></trkpt><trkpt lat="45.744133574288036" lon="11.926558385528576"><ele>73.5</ele><time>2026-05-01T10:49:04Z</time></trkpt><trkpt lat="45.74407135546087" lon="11.927037912282724"><ele>74.0</ele><time>2026-05-01T10:49:05Z</time></trkpt><trkpt lat="45.74400497900228" lon="11.927517577768398"><ele>74.5</ele><time>2026-05-01T10:49:06Z</time></trkpt><trkpt lat="45.743940842443" lon="11.927996705056492"><ele>75.0</ele><time>2026-05-01T10:49:07Z</time></trkpt><trkpt lat="45.74387481974835" lon="11.928476114680679"><ele>75.0</ele><time>2026-05-01T10:49:08Z</time></trkpt><trkpt lat="45.74380872462508" lon="11.928956522364212"><ele>75.0</ele><time>2026-05-01T10:49:09Z</time></trkpt><trkpt lat="45.74374013871134" lon="11.92943613665925"><ele>74.5</ele><time>2026-05-01T10:49:09.999Z</time></trkpt><trkpt lat="45.74366902652587" lon="11.929913295593465"><ele>74.0</ele><time>2026-05-01T10:49:10.999Z</time></trkpt><trkpt lat="45.74359924786135" lon="11.930390366869517"><ele>74.0</ele><time>2026-05-01T10:49:11.999Z</time></trkpt><trkpt lat="45.74351729378757" lon="11.93086481958652"><ele>74.0</ele><time>2026-05-01T10:49:12.999Z</time></trkpt><trkpt lat="45.74342800286096" lon="11.931337520756921"><ele>73.5</ele><time>2026-05-01T10:49:13.999Z</time></trkpt><trkpt lat="45.74333360106089" lon="11.931804654112788"><ele>73.0</ele><time>2026-05-01T10:49:14.999Z</time></trkpt><trkpt lat="45.7432282783445" lon="11.932265902630256"><ele>74.0</ele><time>2026-05-01T10:49:15.999Z</time></trkpt><trkpt lat="45.743110817717046" lon="11.93272267367896"><ele>75.0</ele><time>2026-05-01T10:49:16.999Z</time></trkpt><trkpt lat="45.742988489534845" lon="11.933180306155046"><ele>75.0</ele><time>2026-05-01T10:49:17.999Z</time></trkpt><trkpt lat="45.74286137777524" lon="11.933631950087783"><ele>75.0</ele><time>2026-05-01T10:49:18.999Z</time></trkpt><trkpt lat="45.74274128867593" lon="11.934095807934494"><ele>74.5</ele><time>2026-05-01T10:49:19.999Z</time></trkpt><trkpt lat="45.74262278319093" lon="11.9345628350673"><ele>74.0</ele><time>2026-05-01T10:49:21Z</time></trkpt><trkpt lat="45.74250503200336" lon="11.935028696687294"><ele>74.0</ele><time>2026-05-01T10:49:22Z</time></trkpt><trkpt lat="45.742385996701195" lon="11.935494112679724"><ele>74.0</ele><time>2026-05-01T10:49:23Z</time></trkpt><trkpt lat="45.7422397915921" lon="11.9359219592151"><ele>74.0</ele><time>2026-05-01T10:49:24Z</time></trkpt><trkpt lat="45.74211073337089" lon="11.936360786440842"><ele>74.0</ele><time>2026-05-01T10:49:25Z</time></trkpt><trkpt lat="45.74198342246637" lon="11.936809657741797"><ele>73.5</ele><time>2026-05-01T10:49:26Z</time></trkpt><trkpt lat="45.7418567039176" lon="11.93725551344191"><ele>73.0</ele><time>2026-05-01T10:49:27Z</time></trkpt><trkpt lat="45.74172958559725" lon="11.937710347916305"><ele>73.0</ele><time>2026-05-01T10:49:28Z</time></trkpt><trkpt lat="45.7416022790947" lon="11.938160913945282"><ele>73.0</ele><time>2026-05-01T10:49:29Z</time></trkpt><trkpt lat="45.74147480251711" lon="11.938612045718749"><ele>74.0</ele><time>2026-05-01T10:49:30Z</time></trkpt><trkpt lat="45.74134827592784" lon="11.939063237560482"><ele>75.0</ele><time>2026-05-01T10:49:31Z</time></trkpt><trkpt lat="45.74122160658146" lon="11.939519142562414"><ele>75.5</ele><time>2026-05-01T10:49:32Z</time></trkpt><trkpt lat="45.74109515322171" lon="11.939972595840258"><ele>76.0</ele><time>2026-05-01T10:49:33Z</time></trkpt><trkpt lat="45.740966900851255" lon="11.940418664694944"><ele>76.5</ele><time>2026-05-01T10:49:34Z</time></trkpt><trkpt lat="45.74084151933627" lon="11.940875394691544"><ele>77.0</ele><time>2026-05-01T10:49:35Z</time></trkpt><trkpt lat="45.74071615664941" lon="11.941329291695562"><ele>76.5</ele><time>2026-05-01T10:49:36Z</time></trkpt><trkpt lat="45.74058686034889" lon="11.94178075830647"><ele>76.0</ele><time>2026-05-01T10:49:37Z</time></trkpt><trkpt lat="45.74046235860381" lon="11.942234889949749"><ele>76.0</ele><time>2026-05-01T10:49:38Z</time></trkpt><trkpt lat="45.74033683828264" lon="11.942685572058906"><ele>76.0</ele><time>2026-05-01T10:49:39Z</time></trkpt><trkpt lat="45.740210587005194" lon="11.943140177256483"><ele>75.5</ele><time>2026-05-01T10:49:40Z</time></trkpt><trkpt lat="45.740084660799035" lon="11.943593751346764"><ele>75.0</ele><time>2026-05-01T10:49:41Z</time></trkpt><trkpt lat="45.73996281025704" lon="11.944047138934778"><ele>75.5</ele><time>2026-05-01T10:49:42Z</time></trkpt><trkpt lat="45.7398370899221" lon="11.944502232255436"><ele>76.0</ele><time>2026-05-01T10:49:43Z</time></trkpt><trkpt lat="45.73969312919413" lon="11.944944724151144"><ele>75.5</ele><time>2026-05-01T10:49:44Z</time></trkpt><trkpt lat="45.73955745045911" lon="11.945392654797173"><ele>75.0</ele><time>2026-05-01T10:49:45Z</time></trkpt><trkpt lat="45.73940677860112" lon="11.94583189129544"><ele>74.0</ele><time>2026-05-01T10:49:46Z</time></trkpt><trkpt lat="45.739248650056794" lon="11.946268775537005"><ele>73.0</ele><time>2026-05-01T10:49:47Z</time></trkpt><trkpt lat="45.739082283710424" lon="11.946698245884908"><ele>73.5</ele><time>2026-05-01T10:49:48Z</time></trkpt><trkpt lat="45.73890741630624" lon="11.947114717863522"><ele>74.0</ele><time>2026-05-01T10:49:49Z</time></trkpt><trkpt lat="45.73873346281051" lon="11.947528816725352"><ele>74.5</ele><time>2026-05-01T10:49:50Z</time></trkpt><trkpt lat="45.73853983716778" lon="11.947926703748202"><ele>75.0</ele><time>2026-05-01T10:49:51Z</time></trkpt><trkpt lat="45.738332532726865" lon="11.948321886942951"><ele>75.5</ele><time>2026-05-01T10:49:52Z</time></trkpt><trkpt lat="45.73812127418226" lon="11.948713533504156"><ele>76.0</ele><time>2026-05-01T10:49:53Z</time></trkpt><trkpt lat="45.73790260102236" lon="11.94909522066001"><ele>74.5</ele><time>2026-05-01T10:49:54Z</time></trkpt><trkpt lat="45.73767883082727" lon="11.949466764001256"><ele>73.0</ele><time>2026-05-01T10:49:55Z</time></trkpt><trkpt lat="45.73744456186511" lon="11.949828290918934"><ele>73.5</ele><time>2026-05-01T10:49:56Z</time></trkpt><trkpt lat="45.737219187028444" lon="11.950190083127294"><ele>74.0</ele><time>2026-05-01T10:49:57Z</time></trkpt><trkpt lat="45.73698897937263" lon="11.950547761400001"><ele>74.5</ele><time>2026-05-01T10:49:58Z</time></trkpt><trkpt lat="45.736760075309384" lon="11.950908017679335"><ele>75.0</ele><time>2026-05-01T10:49:59Z</time></trkpt><trkpt lat="45.73653037237" lon="11.951269349642397"><ele>75.0</ele><time>2026-05-01T10:50:00Z</time></trkpt><trkpt lat="45.73629937069798" lon="11.951632359926377"><ele>75.0</ele><time>2026-05-01T10:50:01Z</time></trkpt><trkpt lat="45.73606275010459" lon="11.951999839211805"><ele>75.0</ele><time>2026-05-01T10:50:02.018Z</time></trkpt><trkpt lat="45.73583035684068" lon="11.952361347011385"><ele>75.0</ele><time>2026-05-01T10:50:03.02Z</time></trkpt><trkpt lat="45.73560388012288" lon="11.952714900375963"><ele>75.0</ele><time>2026-05-01T10:50:04Z</time></trkpt><trkpt lat="45.735383427262946" lon="11.95307538320912"><ele>75.0</ele><time>2026-05-01T10:50:05Z</time></trkpt><trkpt lat="45.73515160545624" lon="11.953430211678663"><ele>74.0</ele><time>2026-05-01T10:50:06Z</time></trkpt><trkpt lat="45.7349164826115" lon="11.953783196127745"><ele>73.0</ele><time>2026-05-01T10:50:07Z</time></trkpt><trkpt lat="45.734681255870846" lon="11.954148988458558"><ele>73.0</ele><time>2026-05-01T10:50:08Z</time></trkpt><trkpt lat="45.734449799094726" lon="11.954502817143648"><ele>73.0</ele><time>2026-05-01T10:50:09Z</time></trkpt><trkpt lat="45.73422332710866" lon="11.954860040712028"><ele>73.0</ele><time>2026-05-01T10:50:10Z</time></trkpt><trkpt lat="45.73399987002292" lon="11.955229927606055"><ele>73.0</ele><time>2026-05-01T10:50:11Z</time></trkpt><trkpt lat="45.733787018292205" lon="11.95561219696582"><ele>73.0</ele><time>2026-05-01T10:50:12Z</time></trkpt><trkpt lat="45.733586269828905" lon="11.956011859196929"><ele>73.0</ele><time>2026-05-01T10:50:13Z</time></trkpt><trkpt lat="45.733401862214656" lon="11.956418056868726"><ele>72.5</ele><time>2026-05-01T10:50:14Z</time></trkpt><trkpt lat="45.73322774427312" lon="11.956835717078974"><ele>72.0</ele><time>2026-05-01T10:50:15Z</time></trkpt><trkpt lat="45.73305493670458" lon="11.957256367151825"><ele>71.5</ele><time>2026-05-01T10:50:16Z</time></trkpt><trkpt lat="45.73288534543586" lon="11.957679521283564"><ele>71.0</ele><time>2026-05-01T10:50:17Z</time></trkpt><trkpt lat="45.73271173401764" lon="11.958111993052581"><ele>71.5</ele><time>2026-05-01T10:50:18.023Z</time></trkpt><trkpt lat="45.73254103865512" lon="11.958532519025011"><ele>72.0</ele><time>2026-05-01T10:50:19.02Z</time></trkpt><trkpt lat="45.732369236583644" lon="11.958954582256142"><ele>72.5</ele><time>2026-05-01T10:50:20.021Z</time></trkpt><trkpt lat="45.73220358543807" lon="11.95936876902001"><ele>73.0</ele><time>2026-05-01T10:50:21Z</time></trkpt><trkpt lat="45.73223768977518" lon="11.959924067162174"><ele>72.5</ele><time>2026-05-01T10:50:22Z</time></trkpt><trkpt lat="45.73212752806422" lon="11.960378684100117"><ele>72.0</ele><time>2026-05-01T10:50:23Z</time></trkpt><trkpt lat="45.73204368291042" lon="11.960841195899883"><ele>72.0</ele><time>2026-05-01T10:50:24Z</time></trkpt><trkpt lat="45.73195563059911" lon="11.96131391352992"><ele>72.0</ele><time>2026-05-01T10:50:25Z</time></trkpt><trkpt lat="45.73186751157819" lon="11.961788795842667"><ele>72.0</ele><time>2026-05-01T10:50:26Z</time></trkpt><trkpt lat="45.73177156920286" lon="11.962258221983708"><ele>72.0</ele><time>2026-05-01T10:50:27Z</time></trkpt><trkpt lat="45.731671017056094" lon="11.962728798413488"><ele>72.0</ele><time>2026-05-01T10:50:28Z</time></trkpt><trkpt lat="45.7315715873329" lon="11.963192796607894"><ele>72.0</ele><time>2026-05-01T10:50:29Z</time></trkpt><trkpt lat="45.73146971199597" lon="11.96364559186375"><ele>71.5</ele><time>2026-05-01T10:50:30Z</time></trkpt><trkpt lat="45.73138188750885" lon="11.964120009064295"><ele>71.0</ele><time>2026-05-01T10:50:31Z</time></trkpt><trkpt lat="45.73127767046746" lon="11.964588657905201"><ele>70.0</ele><time>2026-05-01T10:50:32Z</time></trkpt><trkpt lat="45.73118412431128" lon="11.965061098099516"><ele>69.0</ele><time>2026-05-01T10:50:33Z</time></trkpt><trkpt lat="45.73109112505489" lon="11.965528785119734"><ele>70.5</ele><time>2026-05-01T10:50:34Z</time></trkpt><trkpt lat="45.73099918127955" lon="11.96599208413106"><ele>72.0</ele><time>2026-05-01T10:50:35Z</time></trkpt><trkpt lat="45.73090474761604" lon="11.966461825039982"><ele>71.5</ele><time>2026-05-01T10:50:36Z</time></trkpt><trkpt lat="45.7308102548744" lon="11.96693077078102"><ele>71.0</ele><time>2026-05-01T10:50:37Z</time></trkpt><trkpt lat="45.73071135943598" lon="11.967396244109635"><ele>71.0</ele><time>2026-05-01T10:50:38Z</time></trkpt><trkpt lat="45.730612177504355" lon="11.967866169303074"><ele>71.0</ele><time>2026-05-01T10:50:39Z</time></trkpt><trkpt lat="45.730512826448525" lon="11.968328282350956"><ele>71.0</ele><time>2026-05-01T10:50:40Z</time></trkpt><trkpt lat="45.730416144530814" lon="11.968791211922179"><ele>71.0</ele><time>2026-05-01T10:50:41Z</time></trkpt><trkpt lat="45.730348060030046" lon="11.969277201190385"><ele>72.0</ele><time>2026-05-01T10:50:42Z</time></trkpt><trkpt lat="45.730282837522594" lon="11.969753093977772"><ele>73.0</ele><time>2026-05-01T10:50:43Z</time></trkpt><trkpt lat="45.73023856644066" lon="11.970233427702356"><ele>73.0</ele><time>2026-05-01T10:50:44Z</time></trkpt><trkpt lat="45.730204081704024" lon="11.970713335036463"><ele>73.0</ele><time>2026-05-01T10:50:45Z</time></trkpt><trkpt lat="45.73019697253698" lon="11.971198578704508"><ele>72.5</ele><time>2026-05-01T10:50:46Z</time></trkpt><trkpt lat="45.73019214944101" lon="11.971685906551743"><ele>72.0</ele><time>2026-05-01T10:50:47Z</time></trkpt><trkpt lat="45.73018869385481" lon="11.972170803286689"><ele>72.0</ele><time>2026-05-01T10:50:48Z</time></trkpt><trkpt lat="45.73018098724815" lon="11.972652525625756"><ele>72.0</ele><time>2026-05-01T10:50:49Z</time></trkpt><trkpt lat="45.730176809896534" lon="11.973138423118366"><ele>72.5</ele><time>2026-05-01T10:50:50Z</time></trkpt><trkpt lat="45.73016590393774" lon="11.973623576254262"><ele>73.0</ele><time>2026-05-01T10:50:51Z</time></trkpt><trkpt lat="45.73014999725439" lon="11.974112094652765"><ele>72.5</ele><time>2026-05-01T10:50:52Z</time></trkpt><trkpt lat="45.730137174397704" lon="11.97459832964889"><ele>72.0</ele><time>2026-05-01T10:50:53Z</time></trkpt><trkpt lat="45.730123349120376" lon="11.975094177256716"><ele>72.0</ele><time>2026-05-01T10:50:54Z</time></trkpt><trkpt lat="45.730112363002654" lon="11.975581000009264"><ele>72.0</ele><time>2026-05-01T10:50:55Z</time></trkpt><trkpt lat="45.73010145470517" lon="11.97606946109733"><ele>72.0</ele><time>2026-05-01T10:50:56Z</time></trkpt><trkpt lat="45.7300914133485" lon="11.976545596042724"><ele>72.0</ele><time>2026-05-01T10:50:57Z</time></trkpt><trkpt lat="45.73008385725668" lon="11.977041005825361"><ele>74.0</ele><time>2026-05-01T10:50:58Z</time></trkpt><trkpt lat="45.73007247415571" lon="11.97753185953618"><ele>76.0</ele><time>2026-05-01T10:50:59Z</time></trkpt><trkpt lat="45.73006078213575" lon="11.97802206785921"><ele>76.5</ele><time>2026-05-01T10:50:59.999Z</time></trkpt><trkpt lat="45.730040743039034" lon="11.978510481711973"><ele>77.0</ele><time>2026-05-01T10:51:00.999Z</time></trkpt><trkpt lat="45.73001401371254" lon="11.97899950412923"><ele>75.5</ele><time>2026-05-01T10:51:01.999Z</time></trkpt><trkpt lat="45.72998776018181" lon="11.97947894774603"><ele>74.0</ele><time>2026-05-01T10:51:02.999Z</time></trkpt><trkpt lat="45.729928480376074" lon="11.979967687012442"><ele>73.5</ele><time>2026-05-01T10:51:03.999Z</time></trkpt><trkpt lat="45.72986097028683" lon="11.980447335022479"><ele>73.0</ele><time>2026-05-01T10:51:04.999Z</time></trkpt><trkpt lat="45.72978744004823" lon="11.980922919596177"><ele>73.0</ele><time>2026-05-01T10:51:05.999Z</time></trkpt><trkpt lat="45.729700116718575" lon="11.981395450254869"><ele>73.0</ele><time>2026-05-01T10:51:06.999Z</time></trkpt><trkpt lat="45.72960695992344" lon="11.981865246859272"><ele>73.0</ele><time>2026-05-01T10:51:07.999Z</time></trkpt><trkpt lat="45.72951021946956" lon="11.98233222143907"><ele>73.0</ele><time>2026-05-01T10:51:08.999Z</time></trkpt><trkpt lat="45.72941221422852" lon="11.98279799771655"><ele>72.0</ele><time>2026-05-01T10:51:09.999Z</time></trkpt><trkpt lat="45.729317133323946" lon="11.983268453718336"><ele>71.0</ele><time>2026-05-01T10:51:10.999Z</time></trkpt><trkpt lat="45.72922379024375" lon="11.98373674820997"><ele>71.0</ele><time>2026-05-01T10:51:11.999Z</time></trkpt><trkpt lat="45.72913176290308" lon="11.984202795761389"><ele>71.0</ele><time>2026-05-01T10:51:12.999Z</time></trkpt><trkpt lat="45.729040835207776" lon="11.984675392362417"><ele>71.0</ele><time>2026-05-01T10:51:13.999Z</time></trkpt><trkpt lat="45.72894985556865" lon="11.985139747832754"><ele>71.0</ele><time>2026-05-01T10:51:14.999Z</time></trkpt><trkpt lat="45.72885865153168" lon="11.985608725507062"><ele>70.5</ele><time>2026-05-01T10:51:15.999Z</time></trkpt><trkpt lat="45.728763225761966" lon="11.986078583571686"><ele>70.0</ele><time>2026-05-01T10:51:16.999Z</time></trkpt><trkpt lat="45.72866785616929" lon="11.98654681401413"><ele>70.0</ele><time>2026-05-01T10:51:17.999Z</time></trkpt><trkpt lat="45.728569643462315" lon="11.987014358330358"><ele>70.0</ele><time>2026-05-01T10:51:18.999Z</time></trkpt><trkpt lat="45.728470493315925" lon="11.987483349474784"><ele>70.0</ele><time>2026-05-01T10:51:19.999Z</time></trkpt><trkpt lat="45.728375128796706" lon="11.987951827844844"><ele>70.0</ele><time>2026-05-01T10:51:20.999Z</time></trkpt><trkpt lat="45.7282850662144" lon="11.988423887775914"><ele>70.5</ele><time>2026-05-01T10:51:21.999Z</time></trkpt><trkpt lat="45.72820689980776" lon="11.988899335820008"><ele>71.0</ele><time>2026-05-01T10:51:22.999Z</time></trkpt><trkpt lat="45.72813927503891" lon="11.989380316062439"><ele>71.0</ele><time>2026-05-01T10:51:23.999Z</time></trkpt><trkpt lat="45.728085331796215" lon="11.989859920007717"><ele>71.0</ele><time>2026-05-01T10:51:24.999Z</time></trkpt><trkpt lat="45.72804202591036" lon="11.9903444052803"><ele>71.0</ele><time>2026-05-01T10:51:25.999Z</time></trkpt><trkpt lat="45.728007932128655" lon="11.99083007261667"><ele>71.0</ele><time>2026-05-01T10:51:27Z</time></trkpt><trkpt lat="45.7279810015034" lon="11.99131960001961"><ele>72.0</ele><time>2026-05-01T10:51:28Z</time></trkpt><trkpt lat="45.72796354571506" lon="11.991809822314995"><ele>73.0</ele><time>2026-05-01T10:51:29Z</time></trkpt><trkpt lat="45.72795588652738" lon="11.992296906085075"><ele>72.5</ele><time>2026-05-01T10:51:30Z</time></trkpt><trkpt lat="45.727957773804135" lon="11.992780089467335"><ele>72.0</ele><time>2026-05-01T10:51:31Z</time></trkpt><trkpt lat="45.72796924679568" lon="11.99326556992677"><ele>71.5</ele><time>2026-05-01T10:51:32Z</time></trkpt><trkpt lat="45.727991766398596" lon="11.993752008644508"><ele>71.0</ele><time>2026-05-01T10:51:33Z</time></trkpt><trkpt lat="45.72802275540804" lon="11.99423902130264"><ele>71.0</ele><time>2026-05-01T10:51:34Z</time></trkpt><trkpt lat="45.72806483376966" lon="11.994725701478686"><ele>71.0</ele><time>2026-05-01T10:51:35Z</time></trkpt><trkpt lat="45.728117448861504" lon="11.995207454683161"><ele>71.0</ele><time>2026-05-01T10:51:36Z</time></trkpt><trkpt lat="45.72817849074258" lon="11.995688008448282"><ele>71.0</ele><time>2026-05-01T10:51:37Z</time></trkpt><trkpt lat="45.728250454325185" lon="11.996163246753458"><ele>70.5</ele><time>2026-05-01T10:51:38Z</time></trkpt><trkpt lat="45.728333192647064" lon="11.996636705652907"><ele>70.0</ele><time>2026-05-01T10:51:39Z</time></trkpt><trkpt lat="45.728424487845245" lon="11.99710807294559"><ele>70.5</ele><time>2026-05-01T10:51:40Z</time></trkpt><trkpt lat="45.72852341380361" lon="11.99757773740277"><ele>71.0</ele><time>2026-05-01T10:51:41Z</time></trkpt><trkpt lat="45.72862040950844" lon="11.998045610017188"><ele>70.0</ele><time>2026-05-01T10:51:42Z</time></trkpt><trkpt lat="45.72871466251268" lon="11.99851212684874"><ele>69.0</ele><time>2026-05-01T10:51:43Z</time></trkpt><trkpt lat="45.728801741104924" lon="11.998985404437036"><ele>70.0</ele><time>2026-05-01T10:51:44Z</time></trkpt><trkpt lat="45.728885153578425" lon="11.999456648477356"><ele>71.0</ele><time>2026-05-01T10:51:45Z</time></trkpt><trkpt lat="45.72896509932658" lon="11.999929635959424"><ele>71.0</ele><time>2026-05-01T10:51:46Z</time></trkpt><trkpt lat="45.72903884979519" lon="12.00040510698444"><ele>71.0</ele><time>2026-05-01T10:51:47Z</time></trkpt><trkpt lat="45.72910342401102" lon="12.000882983915927"><ele>71.0</ele><time>2026-05-01T10:51:48Z</time></trkpt><trkpt lat="45.72915610462094" lon="12.001362601123752"><ele>71.0</ele><time>2026-05-01T10:51:49Z</time></trkpt><trkpt lat="45.729194042414186" lon="12.00184340312058"><ele>71.0</ele><time>2026-05-01T10:51:50Z</time></trkpt><trkpt lat="45.72920873177347" lon="12.00232894158685"><ele>71.0</ele><time>2026-05-01T10:51:51Z</time></trkpt><trkpt lat="45.72922518021506" lon="12.002814530039135"><ele>71.0</ele><time>2026-05-01T10:51:52Z</time></trkpt><trkpt lat="45.729240565203675" lon="12.003300149224202"><ele>71.0</ele><time>2026-05-01T10:51:53Z</time></trkpt><trkpt lat="45.72925553361255" lon="12.003785060531968"><ele>70.5</ele><time>2026-05-01T10:51:54Z</time></trkpt><trkpt lat="45.72926930290991" lon="12.004269250549472"><ele>70.0</ele><time>2026-05-01T10:51:55Z</time></trkpt><trkpt lat="45.72928261913611" lon="12.00475585556164"><ele>70.0</ele><time>2026-05-01T10:51:56Z</time></trkpt><trkpt lat="45.729297585749364" lon="12.005243792865226"><ele>70.0</ele><time>2026-05-01T10:51:57Z</time></trkpt><trkpt lat="45.72931147016902" lon="12.005728422468874"><ele>70.0</ele><time>2026-05-01T10:51:58Z</time></trkpt><trkpt lat="45.72932599115298" lon="12.006220625329778"><ele>70.0</ele><time>2026-05-01T10:51:59Z</time></trkpt><trkpt lat="45.729342555082575" lon="12.006712319571394"><ele>70.0</ele><time>2026-05-01T10:52:00Z</time></trkpt><trkpt lat="45.729351358212966" lon="12.00719538120252"><ele>70.0</ele><time>2026-05-01T10:52:01Z</time></trkpt><trkpt lat="45.729359942869436" lon="12.007681621414115"><ele>70.0</ele><time>2026-05-01T10:52:02Z</time></trkpt><trkpt lat="45.729373826735866" lon="12.00816653999047"><ele>70.0</ele><time>2026-05-01T10:52:03Z</time></trkpt><trkpt lat="45.72938890792259" lon="12.008655828669841"><ele>70.0</ele><time>2026-05-01T10:52:04Z</time></trkpt><trkpt lat="45.72940644678118" lon="12.009142972008696"><ele>70.0</ele><time>2026-05-01T10:52:05Z</time></trkpt><trkpt lat="45.729425664493384" lon="12.009630034670717"><ele>70.5</ele><time>2026-05-01T10:52:06Z</time></trkpt><trkpt lat="45.72944314922329" lon="12.010117546907514"><ele>71.0</ele><time>2026-05-01T10:52:07Z</time></trkpt><trkpt lat="45.72945537938708" lon="12.010606972974488"><ele>71.0</ele><time>2026-05-01T10:52:08Z</time></trkpt><trkpt lat="45.72946615473343" lon="12.01109576065884"><ele>71.0</ele><time>2026-05-01T10:52:09Z</time></trkpt><trkpt lat="45.72947613417221" lon="12.011584192000868"><ele>71.0</ele><time>2026-05-01T10:52:10Z</time></trkpt><trkpt lat="45.729489058079864" lon="12.012069120969546"><ele>71.0</ele><time>2026-05-01T10:52:11Z</time></trkpt><trkpt lat="45.729502936388926" lon="12.012555204536323"><ele>71.0</ele><time>2026-05-01T10:52:12Z</time></trkpt><trkpt lat="45.72951637717734" lon="12.013042662164397"><ele>71.0</ele><time>2026-05-01T10:52:13Z</time></trkpt><trkpt lat="45.72953035146629" lon="12.01353128496069"><ele>70.5</ele><time>2026-05-01T10:52:14Z</time></trkpt><trkpt lat="45.7295424107804" lon="12.014019665926764"><ele>70.0</ele><time>2026-05-01T10:52:15Z</time></trkpt><trkpt lat="45.72955654386734" lon="12.014506726263246"><ele>70.5</ele><time>2026-05-01T10:52:16Z</time></trkpt><trkpt lat="45.729569297974365" lon="12.014993849341227"><ele>71.0</ele><time>2026-05-01T10:52:17Z</time></trkpt><trkpt lat="45.72958211080291" lon="12.015480457371252"><ele>70.5</ele><time>2026-05-01T10:52:18Z</time></trkpt><trkpt lat="45.72959443333605" lon="12.015965770911512"><ele>70.0</ele><time>2026-05-01T10:52:19Z</time></trkpt><trkpt lat="45.729605449297544" lon="12.016458045538805"><ele>70.5</ele><time>2026-05-01T10:52:20Z</time></trkpt><trkpt lat="45.729613114137884" lon="12.016948107458989"><ele>71.0</ele><time>2026-05-01T10:52:21Z</time></trkpt><trkpt lat="45.72962267595692" lon="12.017437117807173"><ele>71.0</ele><time>2026-05-01T10:52:22Z</time></trkpt><trkpt lat="45.72963339648822" lon="12.017924486491827"><ele>71.0</ele><time>2026-05-01T10:52:23Z</time></trkpt><trkpt lat="45.729643568515854" lon="12.018412316668712"><ele>71.0</ele><time>2026-05-01T10:52:24Z</time></trkpt><trkpt lat="45.729656303277615" lon="12.018899872692414"><ele>71.0</ele><time>2026-05-01T10:52:25Z</time></trkpt><trkpt lat="45.72966980541683" lon="12.019387334631427"><ele>71.0</ele><time>2026-05-01T10:52:26Z</time></trkpt><trkpt lat="45.729687408835794" lon="12.019874539576609"><ele>71.0</ele><time>2026-05-01T10:52:27Z</time></trkpt><trkpt lat="45.7297081270272" lon="12.02036152094583"><ele>70.0</ele><time>2026-05-01T10:52:28Z</time></trkpt><trkpt lat="45.72973298281113" lon="12.02084579791608"><ele>69.0</ele><time>2026-05-01T10:52:29Z</time></trkpt><trkpt lat="45.72976568735965" lon="12.02133217771735"><ele>69.5</ele><time>2026-05-01T10:52:30Z</time></trkpt><trkpt lat="45.72980431386829" lon="12.021815633326284"><ele>70.0</ele><time>2026-05-01T10:52:31Z</time></trkpt><trkpt lat="45.7298525162271" lon="12.022299508614124"><ele>70.0</ele><time>2026-05-01T10:52:32Z</time></trkpt><trkpt lat="45.72990512151958" lon="12.022782223195732"><ele>70.0</ele><time>2026-05-01T10:52:33Z</time></trkpt><trkpt lat="45.72996225493319" lon="12.023265803811572"><ele>70.0</ele><time>2026-05-01T10:52:34Z</time></trkpt><trkpt lat="45.73002275175778" lon="12.023746563966231"><ele>70.0</ele><time>2026-05-01T10:52:35Z</time></trkpt><trkpt lat="45.730088364637" lon="12.024226734765836"><ele>70.0</ele><time>2026-05-01T10:52:36Z</time></trkpt><trkpt lat="45.73016129573234" lon="12.024700383253636"><ele>70.0</ele><time>2026-05-01T10:52:37Z</time></trkpt><trkpt lat="45.730243011564575" lon="12.025175983245505"><ele>70.0</ele><time>2026-05-01T10:52:38Z</time></trkpt><trkpt lat="45.730332088908995" lon="12.025647627978762"><ele>70.0</ele><time>2026-05-01T10:52:39Z</time></trkpt><trkpt lat="45.730426126549126" lon="12.026117362107358"><ele>70.0</ele><time>2026-05-01T10:52:40Z</time></trkpt><trkpt lat="45.73052612177335" lon="12.026584593963227"><ele>70.0</ele><time>2026-05-01T10:52:41Z</time></trkpt><trkpt lat="45.73063276515282" lon="12.027047023867988"><ele>70.0</ele><time>2026-05-01T10:52:42Z</time></trkpt><trkpt lat="45.730748038369704" lon="12.02750353326057"><ele>70.0</ele><time>2026-05-01T10:52:43Z</time></trkpt><trkpt lat="45.73087026568609" lon="12.027955757573253"><ele>70.0</ele><time>2026-05-01T10:52:44Z</time></trkpt><trkpt lat="45.73099863101409" lon="12.028408139184316"><ele>70.0</ele><time>2026-05-01T10:52:45Z</time></trkpt><trkpt lat="45.73113325059578" lon="12.028854460074841"><ele>69.5</ele><time>2026-05-01T10:52:46Z</time></trkpt><trkpt lat="45.73127229783239" lon="12.02929893071876"><ele>69.0</ele><time>2026-05-01T10:52:47Z</time></trkpt><trkpt lat="45.73141555684695" lon="12.029740129368736"><ele>69.0</ele><time>2026-05-01T10:52:48Z</time></trkpt><trkpt lat="45.73156543944657" lon="12.030177021387578"><ele>69.0</ele><time>2026-05-01T10:52:49Z</time></trkpt><trkpt lat="45.73172260482164" lon="12.030606870446858"><ele>69.0</ele><time>2026-05-01T10:52:50Z</time></trkpt><trkpt lat="45.731886861958536" lon="12.0310318111053"><ele>69.0</ele><time>2026-05-01T10:52:51Z</time></trkpt><trkpt lat="45.73205818676776" lon="12.031452069548708"><ele>69.5</ele><time>2026-05-01T10:52:52Z</time></trkpt><trkpt lat="45.732235770692355" lon="12.031865736588353"><ele>70.0</ele><time>2026-05-01T10:52:53Z</time></trkpt><trkpt lat="45.73241634349414" lon="12.032275470521375"><ele>70.0</ele><time>2026-05-01T10:52:54Z</time></trkpt><trkpt lat="45.732598991842515" lon="12.032687665052393"><ele>70.0</ele><time>2026-05-01T10:52:55Z</time></trkpt><trkpt lat="45.73279199878938" lon="12.03309240543258"><ele>70.5</ele><time>2026-05-01T10:52:56Z</time></trkpt><trkpt lat="45.73298668807163" lon="12.03348960130983"><ele>71.0</ele><time>2026-05-01T10:52:57Z</time></trkpt><trkpt lat="45.733186855271654" lon="12.033883484059055"><ele>71.5</ele><time>2026-05-01T10:52:58Z</time></trkpt><trkpt lat="45.733393736972545" lon="12.034274119585431"><ele>72.0</ele><time>2026-05-01T10:52:59Z</time></trkpt><trkpt lat="45.733600721674755" lon="12.034661708749839"><ele>71.5</ele><time>2026-05-01T10:53:00Z</time></trkpt><trkpt lat="45.73380719535574" lon="12.035040009835127"><ele>71.0</ele><time>2026-05-01T10:53:01Z</time></trkpt><trkpt lat="45.734014579695696" lon="12.035426504002414"><ele>71.0</ele><time>2026-05-01T10:53:02Z</time></trkpt><trkpt lat="45.734223665778615" lon="12.035810536355907"><ele>71.0</ele><time>2026-05-01T10:53:03Z</time></trkpt><trkpt lat="45.73443095102618" lon="12.03619481302146"><ele>71.0</ele><time>2026-05-01T10:53:04Z</time></trkpt><trkpt lat="45.73463868577584" lon="12.03658068181014"><ele>71.0</ele><time>2026-05-01T10:53:05Z</time></trkpt><trkpt lat="45.73484557777504" lon="12.036965663161324"><ele>71.5</ele><time>2026-05-01T10:53:06Z</time></trkpt><trkpt lat="45.73505180807016" lon="12.037353160423333"><ele>72.0</ele><time>2026-05-01T10:53:07Z</time></trkpt><trkpt lat="45.73525767390261" lon="12.037740641085975"><ele>72.0</ele><time>2026-05-01T10:53:08Z</time></trkpt><trkpt lat="45.735463065719564" lon="12.03812888758482"><ele>72.0</ele><time>2026-05-01T10:53:09Z</time></trkpt><trkpt lat="45.73566819490854" lon="12.038516611402185"><ele>72.0</ele><time>2026-05-01T10:53:10Z</time></trkpt><trkpt lat="45.735874145525884" lon="12.038904160496916"><ele>72.0</ele><time>2026-05-01T10:53:11Z</time></trkpt><trkpt lat="45.73608094427547" lon="12.03929179133066"><ele>72.0</ele><time>2026-05-01T10:53:12Z</time></trkpt><trkpt lat="45.736287676860655" lon="12.03968026810313"><ele>72.0</ele><time>2026-05-01T10:53:13Z</time></trkpt><trkpt lat="45.736494169149346" lon="12.040069114902874"><ele>72.0</ele><time>2026-05-01T10:53:14Z</time></trkpt><trkpt lat="45.73670066104949" lon="12.040456735749805"><ele>72.0</ele><time>2026-05-01T10:53:15Z</time></trkpt><trkpt lat="45.73690788253741" lon="12.040845598811195"><ele>72.0</ele><time>2026-05-01T10:53:16Z</time></trkpt><trkpt lat="45.737115612517634" lon="12.041233916266238"><ele>72.0</ele><time>2026-05-01T10:53:17Z</time></trkpt><trkpt lat="45.73732299996544" lon="12.041621000171116"><ele>72.0</ele><time>2026-05-01T10:53:17.999Z</time></trkpt><trkpt lat="45.737530901391395" lon="12.042009057654996"><ele>72.0</ele><time>2026-05-01T10:53:18.999Z</time></trkpt><trkpt lat="45.737737633325935" lon="12.04239732778758"><ele>72.5</ele><time>2026-05-01T10:53:19.999Z</time></trkpt><trkpt lat="45.73794404557121" lon="12.042786956433874"><ele>73.0</ele><time>2026-05-01T10:53:20.999Z</time></trkpt><trkpt lat="45.73814969552612" lon="12.04317839675802"><ele>73.0</ele><time>2026-05-01T10:53:21.999Z</time></trkpt><trkpt lat="45.73834794804814" lon="12.043575792253609"><ele>73.0</ele><time>2026-05-01T10:53:22.999Z</time></trkpt><trkpt lat="45.73854076176385" lon="12.043979219785996"><ele>72.5</ele><time>2026-05-01T10:53:23.999Z</time></trkpt><trkpt lat="45.738728442007634" lon="12.044387138534546"><ele>72.0</ele><time>2026-05-01T10:53:24.999Z</time></trkpt><trkpt lat="45.73890984897546" lon="12.044801262249212"><ele>73.5</ele><time>2026-05-01T10:53:25.999Z</time></trkpt><trkpt lat="45.73908353224464" lon="12.0452218492263"><ele>75.0</ele><time>2026-05-01T10:53:26.999Z</time></trkpt><trkpt lat="45.73924996412772" lon="12.045647138845226"><ele>75.5</ele><time>2026-05-01T10:53:27.999Z</time></trkpt><trkpt lat="45.73941039992076" lon="12.046079333090661"><ele>76.0</ele><time>2026-05-01T10:53:28.999Z</time></trkpt><trkpt lat="45.73956169749038" lon="12.046514969388255"><ele>76.0</ele><time>2026-05-01T10:53:29.999Z</time></trkpt><trkpt lat="45.739707753149446" lon="12.046956814337454"><ele>76.0</ele><time>2026-05-01T10:53:30.999Z</time></trkpt><trkpt lat="45.73984077269894" lon="12.047405946522426"><ele>76.0</ele><time>2026-05-01T10:53:31.999Z</time></trkpt><trkpt lat="45.73996757727996" lon="12.047859443559753"><ele>76.0</ele><time>2026-05-01T10:53:33Z</time></trkpt><trkpt lat="45.740087326534145" lon="12.048318104274314"><ele>76.0</ele><time>2026-05-01T10:53:34Z</time></trkpt><trkpt lat="45.740202237813186" lon="12.048777866704706"><ele>76.0</ele><time>2026-05-01T10:53:35Z</time></trkpt><trkpt lat="45.74030951843204" lon="12.049242575263767"><ele>76.0</ele><time>2026-05-01T10:53:36Z</time></trkpt><trkpt lat="45.74041207322832" lon="12.049709272261493"><ele>76.0</ele><time>2026-05-01T10:53:37Z</time></trkpt><trkpt lat="45.740512093797264" lon="12.050178110723971"><ele>75.5</ele><time>2026-05-01T10:53:38Z</time></trkpt><trkpt lat="45.74061161321967" lon="12.05064659548818"><ele>75.0</ele><time>2026-05-01T10:53:39Z</time></trkpt><trkpt lat="45.740712466447135" lon="12.051112590211263"><ele>76.0</ele><time>2026-05-01T10:53:40Z</time></trkpt><trkpt lat="45.740815634292595" lon="12.051579794145656"><ele>77.0</ele><time>2026-05-01T10:53:41Z</time></trkpt><trkpt lat="45.740918419597236" lon="12.052046903500715"><ele>77.0</ele><time>2026-05-01T10:53:42Z</time></trkpt><trkpt lat="45.74102048754842" lon="12.052515584143505"><ele>77.0</ele><time>2026-05-01T10:53:43Z</time></trkpt><trkpt lat="45.74112208012512" lon="12.052984114821085"><ele>76.5</ele><time>2026-05-01T10:53:44Z</time></trkpt><trkpt lat="45.74122275665963" lon="12.053452792173335"><ele>76.0</ele><time>2026-05-01T10:53:45Z</time></trkpt><trkpt lat="45.74132388734985" lon="12.053919671469789"><ele>76.5</ele><time>2026-05-01T10:53:46Z</time></trkpt><trkpt lat="45.741426409152375" lon="12.054386887228107"><ele>77.0</ele><time>2026-05-01T10:53:47Z</time></trkpt><trkpt lat="45.74152827697324" lon="12.05485416643333"><ele>77.0</ele><time>2026-05-01T10:53:48Z</time></trkpt><trkpt lat="45.74163039835789" lon="12.055319913731562"><ele>77.0</ele><time>2026-05-01T10:53:49Z</time></trkpt><trkpt lat="45.74173291543012" lon="12.055786975751719"><ele>77.0</ele><time>2026-05-01T10:53:50Z</time></trkpt><trkpt lat="45.74183380362106" lon="12.056253656405477"><ele>77.0</ele><time>2026-05-01T10:53:51Z</time></trkpt><trkpt lat="45.741935674112504" lon="12.056718990171003"><ele>77.0</ele><time>2026-05-01T10:53:52Z</time></trkpt><trkpt lat="45.74203791460252" lon="12.057185336478343"><ele>77.0</ele><time>2026-05-01T10:53:53Z</time></trkpt><trkpt lat="45.742138458639815" lon="12.05765084460919"><ele>77.5</ele><time>2026-05-01T10:53:54Z</time></trkpt><trkpt lat="45.74224043462133" lon="12.05811458996632"><ele>78.0</ele><time>2026-05-01T10:53:55Z</time></trkpt><trkpt lat="45.74234528758494" lon="12.058579191852564"><ele>78.5</ele><time>2026-05-01T10:53:56Z</time></trkpt><trkpt lat="45.74245040736172" lon="12.059055106426639"><ele>79.0</ele><time>2026-05-01T10:53:57.022Z</time></trkpt><trkpt lat="45.74254980320422" lon="12.059522415389873"><ele>79.5</ele><time>2026-05-01T10:53:58.023Z</time></trkpt><trkpt lat="45.74264991919254" lon="12.059984867900944"><ele>80.0</ele><time>2026-05-01T10:53:59.016Z</time></trkpt><trkpt lat="45.74275501273337" lon="12.060451630073421"><ele>81.0</ele><time>2026-05-01T10:54:00.022Z</time></trkpt><trkpt lat="45.74536446951865" lon="12.066590404149206"><ele>81.0</ele><time>2026-05-01T10:54:15Z</time></trkpt><trkpt lat="45.74559605431036" lon="12.066946474047501"><ele>81.0</ele><time>2026-05-01T10:54:16Z</time></trkpt><trkpt lat="45.74587061683515" lon="12.067285261648143"><ele>81.0</ele><time>2026-05-01T10:54:17Z</time></trkpt><trkpt lat="45.74615074072025" lon="12.067608480910216"><ele>81.0</ele><time>2026-05-01T10:54:18Z</time></trkpt><trkpt lat="45.74641056282502" lon="12.067913794376661"><ele>81.0</ele><time>2026-05-01T10:54:19Z</time></trkpt><trkpt lat="45.74668556096963" lon="12.06821293295516"><ele>81.0</ele><time>2026-05-01T10:54:20Z</time></trkpt><trkpt lat="45.7469613250816" lon="12.068512930608065"><ele>81.5</ele><time>2026-05-01T10:54:21Z</time></trkpt><trkpt lat="45.74724041488327" lon="12.068799183014882"><ele>82.0</ele><time>2026-05-01T10:54:22Z</time></trkpt><trkpt lat="45.74752816909772" lon="12.069059782224778"><ele>81.5</ele><time>2026-05-01T10:54:23Z</time></trkpt><trkpt lat="45.74781086758091" lon="12.069329239140204"><ele>81.0</ele><time>2026-05-01T10:54:24Z</time></trkpt><trkpt lat="45.748121279056335" lon="12.069549384570422"><ele>81.0</ele><time>2026-05-01T10:54:25Z</time></trkpt><trkpt lat="45.74842619009392" lon="12.069782413811051"><ele>81.0</ele><time>2026-05-01T10:54:26Z</time></trkpt><trkpt lat="45.74872287709031" lon="12.07001703614787"><ele>82.0</ele><time>2026-05-01T10:54:27Z</time></trkpt><trkpt lat="45.74902029550832" lon="12.070244657582045"><ele>83.0</ele><time>2026-05-01T10:54:28Z</time></trkpt><trkpt lat="45.74932489363412" lon="12.070474656916254"><ele>83.0</ele><time>2026-05-01T10:54:29Z</time></trkpt><trkpt lat="45.749623588824925" lon="12.070703549616235"><ele>83.0</ele><time>2026-05-01T10:54:30Z</time></trkpt><trkpt lat="45.749925286461355" lon="12.070935347816484"><ele>83.5</ele><time>2026-05-01T10:54:31Z</time></trkpt><trkpt lat="45.75022373487367" lon="12.071176568943816"><ele>84.0</ele><time>2026-05-01T10:54:32Z</time></trkpt><trkpt lat="45.75052043314889" lon="12.071418545969879"><ele>84.0</ele><time>2026-05-01T10:54:33Z</time></trkpt><trkpt lat="45.75082008627128" lon="12.071658353585319"><ele>84.0</ele><time>2026-05-01T10:54:34Z</time></trkpt><trkpt lat="45.75111270779238" lon="12.071908408003447"><ele>84.0</ele><time>2026-05-01T10:54:35Z</time></trkpt><trkpt lat="45.75140966457352" lon="12.072143149124878"><ele>84.0</ele><time>2026-05-01T10:54:36Z</time></trkpt><trkpt lat="45.75170385715562" lon="12.07240490755147"><ele>84.0</ele><time>2026-05-01T10:54:37Z</time></trkpt><trkpt lat="45.751985038327526" lon="12.072671727224101"><ele>84.0</ele><time>2026-05-01T10:54:38Z</time></trkpt><trkpt lat="45.752263404800395" lon="12.07295415046068"><ele>84.0</ele><time>2026-05-01T10:54:39Z</time></trkpt><trkpt lat="45.75253409869693" lon="12.07324397706239"><ele>84.0</ele><time>2026-05-01T10:54:40Z</time></trkpt><trkpt lat="45.75280514498029" lon="12.073549165770455"><ele>85.0</ele><time>2026-05-01T10:54:41Z</time></trkpt><trkpt lat="45.7530704194286" lon="12.0738658950407"><ele>86.0</ele><time>2026-05-01T10:54:42Z</time></trkpt><trkpt lat="45.75332772232344" lon="12.074186077490046"><ele>87.0</ele><time>2026-05-01T10:54:43Z</time></trkpt><trkpt lat="45.75357766244516" lon="12.074521924285825"><ele>88.0</ele><time>2026-05-01T10:54:44Z</time></trkpt><trkpt lat="45.7538201375798" lon="12.074868160117465"><ele>87.5</ele><time>2026-05-01T10:54:45Z</time></trkpt><trkpt lat="45.7540399301763" lon="12.075234540266647"><ele>87.0</ele><time>2026-05-01T10:54:46Z</time></trkpt><trkpt lat="45.75427262104123" lon="12.075590990815849"><ele>86.5</ele><time>2026-05-01T10:54:47Z</time></trkpt><trkpt lat="45.75449435269796" lon="12.07594697368335"><ele>86.0</ele><time>2026-05-01T10:54:48Z</time></trkpt><trkpt lat="45.75471415061334" lon="12.076329122346277"><ele>85.5</ele><time>2026-05-01T10:54:49Z</time></trkpt><trkpt lat="45.754926022883275" lon="12.076714802619438"><ele>85.0</ele><time>2026-05-01T10:54:50Z</time></trkpt><trkpt lat="45.75512219682187" lon="12.077101905612762"><ele>86.0</ele><time>2026-05-01T10:54:51Z</time></trkpt><trkpt lat="45.755323115011585" lon="12.077501446204876"><ele>87.0</ele><time>2026-05-01T10:54:52Z</time></trkpt><trkpt lat="45.75551472339517" lon="12.077907203155755"><ele>87.0</ele><time>2026-05-01T10:54:53Z</time></trkpt><trkpt lat="45.75569632214252" lon="12.078320253320342"><ele>87.0</ele><time>2026-05-01T10:54:54Z</time></trkpt><trkpt lat="45.755875644931436" lon="12.078734191496233"><ele>87.0</ele><time>2026-05-01T10:54:55Z</time></trkpt><trkpt lat="45.75604874260277" lon="12.079154307702265"><ele>87.0</ele><time>2026-05-01T10:54:56Z</time></trkpt><trkpt lat="45.75621658320376" lon="12.079575388671312"><ele>86.5</ele><time>2026-05-01T10:54:57Z</time></trkpt><trkpt lat="45.756374441753145" lon="12.08000639370402"><ele>86.0</ele><time>2026-05-01T10:54:58Z</time></trkpt><trkpt lat="45.75654934149152" lon="12.08043274062312"><ele>85.5</ele><time>2026-05-01T10:54:59Z</time></trkpt><trkpt lat="45.75671390229832" lon="12.08085984244983"><ele>85.0</ele><time>2026-05-01T10:55:00Z</time></trkpt><trkpt lat="45.75687751084705" lon="12.081286582321663"><ele>87.0</ele><time>2026-05-01T10:55:01Z</time></trkpt><trkpt lat="45.75703915890003" lon="12.081711603046081"><ele>89.0</ele><time>2026-05-01T10:55:02Z</time></trkpt><trkpt lat="45.75720719630029" lon="12.082140613130582"><ele>89.0</ele><time>2026-05-01T10:55:03Z</time></trkpt><trkpt lat="45.757370602751614" lon="12.082568447744865"><ele>89.0</ele><time>2026-05-01T10:55:04Z</time></trkpt><trkpt lat="45.75753531863143" lon="12.082995608720674"><ele>88.0</ele><time>2026-05-01T10:55:05Z</time></trkpt><trkpt lat="45.75770124943954" lon="12.083423530973846"><ele>87.0</ele><time>2026-05-01T10:55:06Z</time></trkpt><trkpt lat="45.757868485567016" lon="12.083852069988527"><ele>88.0</ele><time>2026-05-01T10:55:07Z</time></trkpt><trkpt lat="45.7580322230595" lon="12.084281747786616"><ele>89.0</ele><time>2026-05-01T10:55:08Z</time></trkpt><trkpt lat="45.75819624134036" lon="12.084710191658957"><ele>88.0</ele><time>2026-05-01T10:55:09Z</time></trkpt><trkpt lat="45.7583591228015" lon="12.085132490663582"><ele>87.0</ele><time>2026-05-01T10:55:10Z</time></trkpt><trkpt lat="45.75852284075585" lon="12.085552753115252"><ele>86.5</ele><time>2026-05-01T10:55:11Z</time></trkpt><trkpt lat="45.758686335982866" lon="12.085973150150021"><ele>86.0</ele><time>2026-05-01T10:55:12Z</time></trkpt><trkpt lat="45.75885394946903" lon="12.086423339328961"><ele>87.0</ele><time>2026-05-01T10:55:13Z</time></trkpt><trkpt lat="45.75902496444304" lon="12.086851287401245"><ele>88.0</ele><time>2026-05-01T10:55:14Z</time></trkpt><trkpt lat="45.75919077069624" lon="12.087275836679602"><ele>88.5</ele><time>2026-05-01T10:55:15Z</time></trkpt><trkpt lat="45.759360194928895" lon="12.087698572093544"><ele>89.0</ele><time>2026-05-01T10:55:16Z</time></trkpt><trkpt lat="45.75952729078904" lon="12.088126398231877"><ele>90.0</ele><time>2026-05-01T10:55:17Z</time></trkpt><trkpt lat="45.75969071895143" lon="12.088553360530648"><ele>91.0</ele><time>2026-05-01T10:55:18Z</time></trkpt><trkpt lat="45.75985234484887" lon="12.0889843469673"><ele>90.5</ele><time>2026-05-01T10:55:19Z</time></trkpt><trkpt lat="45.760018494416585" lon="12.089413303605017"><ele>90.0</ele><time>2026-05-01T10:55:20Z</time></trkpt><trkpt lat="45.76017921560706" lon="12.089843989170284"><ele>90.5</ele><time>2026-05-01T10:55:21Z</time></trkpt><trkpt lat="45.76034231735172" lon="12.090275699833711"><ele>91.0</ele><time>2026-05-01T10:55:22Z</time></trkpt><trkpt lat="45.76049945368538" lon="12.09070847842743"><ele>91.0</ele><time>2026-05-01T10:55:23Z</time></trkpt><trkpt lat="45.76065552485576" lon="12.091128925188269"><ele>91.0</ele><time>2026-05-01T10:55:24Z</time></trkpt><trkpt lat="45.76079871355463" lon="12.09155678365597"><ele>90.0</ele><time>2026-05-01T10:55:25Z</time></trkpt><trkpt lat="45.76093559380609" lon="12.09202428162911"><ele>89.0</ele><time>2026-05-01T10:55:26Z</time></trkpt><trkpt lat="45.761061989408894" lon="12.092484466869898"><ele>89.0</ele><time>2026-05-01T10:55:27Z</time></trkpt><trkpt lat="45.76118054494169" lon="12.092939922832887"><ele>89.0</ele><time>2026-05-01T10:55:28Z</time></trkpt><trkpt lat="45.76129475328673" lon="12.093399676210623"><ele>89.0</ele><time>2026-05-01T10:55:29Z</time></trkpt><trkpt lat="45.76140008485755" lon="12.093866663210378"><ele>89.0</ele><time>2026-05-01T10:55:29.999Z</time></trkpt><trkpt lat="45.76149697333571" lon="12.094338019643232"><ele>89.0</ele><time>2026-05-01T10:55:30.999Z</time></trkpt><trkpt lat="45.76157870049057" lon="12.094807188216818"><ele>89.0</ele><time>2026-05-01T10:55:31.999Z</time></trkpt><trkpt lat="45.761651270234616" lon="12.095281033803685"><ele>90.5</ele><time>2026-05-01T10:55:32.999Z</time></trkpt><trkpt lat="45.76171744304217" lon="12.095761765445417"><ele>92.0</ele><time>2026-05-01T10:55:33.999Z</time></trkpt><trkpt lat="45.76177523969141" lon="12.096241525497"><ele>91.5</ele><time>2026-05-01T10:55:34.999Z</time></trkpt><trkpt lat="45.761819569576275" lon="12.09671362733087"><ele>91.0</ele><time>2026-05-01T10:55:35.999Z</time></trkpt><trkpt lat="45.76188166072964" lon="12.097203926920722"><ele>90.0</ele><time>2026-05-01T10:55:36.999Z</time></trkpt><trkpt lat="45.76192784019466" lon="12.097686582564606"><ele>89.0</ele><time>2026-05-01T10:55:37.999Z</time></trkpt><trkpt lat="45.76197757985869" lon="12.098170016920294"><ele>89.5</ele><time>2026-05-01T10:55:39Z</time></trkpt><trkpt lat="45.762023908373344" lon="12.098652463876626"><ele>90.0</ele><time>2026-05-01T10:55:40Z</time></trkpt><trkpt lat="45.76207061735054" lon="12.099128766770981"><ele>90.0</ele><time>2026-05-01T10:55:41Z</time></trkpt><trkpt lat="45.76211853822386" lon="12.09960944278072"><ele>90.0</ele><time>2026-05-01T10:55:42Z</time></trkpt><trkpt lat="45.762164247540376" lon="12.100091990047627"><ele>88.5</ele><time>2026-05-01T10:55:43Z</time></trkpt><trkpt lat="45.76221213085973" lon="12.100575649604703"><ele>87.0</ele><time>2026-05-01T10:55:44Z</time></trkpt><trkpt lat="45.76226038514797" lon="12.101057598499851"><ele>86.5</ele><time>2026-05-01T10:55:45Z</time></trkpt><trkpt lat="45.762304887718464" lon="12.10154026519675"><ele>86.0</ele><time>2026-05-01T10:55:46Z</time></trkpt><trkpt lat="45.76235419569632" lon="12.102022546944033"><ele>85.5</ele><time>2026-05-01T10:55:47Z</time></trkpt><trkpt lat="45.76240053571423" lon="12.102505668531656"><ele>85.0</ele><time>2026-05-01T10:55:48Z</time></trkpt><trkpt lat="45.762445682865156" lon="12.102991653409083"><ele>84.0</ele><time>2026-05-01T10:55:49Z</time></trkpt><trkpt lat="45.762491918347166" lon="12.103478014657325"><ele>83.0</ele><time>2026-05-01T10:55:50Z</time></trkpt><trkpt lat="45.762540168709" lon="12.103962598049943"><ele>82.5</ele><time>2026-05-01T10:55:51Z</time></trkpt><trkpt lat="45.76258971290763" lon="12.104448642354486"><ele>82.0</ele><time>2026-05-01T10:55:52Z</time></trkpt><trkpt lat="45.762637565514055" lon="12.104933196868489"><ele>82.0</ele><time>2026-05-01T10:55:53Z</time></trkpt><trkpt lat="45.762687363471564" lon="12.105418403619936"><ele>82.0</ele><time>2026-05-01T10:55:54Z</time></trkpt><trkpt lat="45.76273675018027" lon="12.105900480924246"><ele>82.0</ele><time>2026-05-01T10:55:55Z</time></trkpt><trkpt lat="45.76278828487114" lon="12.106382226407135"><ele>82.0</ele><time>2026-05-01T10:55:56Z</time></trkpt><trkpt lat="45.76283756719513" lon="12.106864493693818"><ele>83.0</ele><time>2026-05-01T10:55:57Z</time></trkpt><trkpt lat="45.76288591004252" lon="12.107348140745666"><ele>84.0</ele><time>2026-05-01T10:55:58Z</time></trkpt><trkpt lat="45.762933226475084" lon="12.107830624126327"><ele>85.5</ele><time>2026-05-01T10:55:59Z</time></trkpt><trkpt lat="45.762979569572764" lon="12.108315253015892"><ele>87.0</ele><time>2026-05-01T10:56:00Z</time></trkpt><trkpt lat="45.7630263937964" lon="12.108799678222653"><ele>87.0</ele><time>2026-05-01T10:56:01Z</time></trkpt><trkpt lat="45.76307356502342" lon="12.109283424768938"><ele>87.0</ele><time>2026-05-01T10:56:02Z</time></trkpt><trkpt lat="45.76312108136454" lon="12.109768131350476"><ele>86.0</ele><time>2026-05-01T10:56:03Z</time></trkpt><trkpt lat="45.763170897387916" lon="12.110252756112374"><ele>85.0</ele><time>2026-05-01T10:56:04Z</time></trkpt><trkpt lat="45.7632196348157" lon="12.110734845694722"><ele>86.0</ele><time>2026-05-01T10:56:05Z</time></trkpt><trkpt lat="45.76326926615342" lon="12.111219716558859"><ele>87.0</ele><time>2026-05-01T10:56:06Z</time></trkpt><trkpt lat="45.76331696814708" lon="12.111702153168714"><ele>87.0</ele><time>2026-05-01T10:56:07Z</time></trkpt><trkpt lat="45.76336620515492" lon="12.112187390259276"><ele>87.0</ele><time>2026-05-01T10:56:08Z</time></trkpt><trkpt lat="45.76341424260465" lon="12.11267063736249"><ele>86.5</ele><time>2026-05-01T10:56:09Z</time></trkpt><trkpt lat="45.76346234998725" lon="12.113155972547272"><ele>86.0</ele><time>2026-05-01T10:56:10Z</time></trkpt><trkpt lat="45.763506643761886" lon="12.113643017555459"><ele>85.0</ele><time>2026-05-01T10:56:11Z</time></trkpt><trkpt lat="45.763549158309715" lon="12.114129424917625"><ele>84.0</ele><time>2026-05-01T10:56:12Z</time></trkpt><trkpt lat="45.76359314632507" lon="12.114636341861479"><ele>84.5</ele><time>2026-05-01T10:56:13Z</time></trkpt><trkpt lat="45.763606769815816" lon="12.11511606752525"><ele>85.0</ele><time>2026-05-01T10:56:14Z</time></trkpt><trkpt lat="45.76361798353658" lon="12.115597172294278"><ele>84.0</ele><time>2026-05-01T10:56:15Z</time></trkpt><trkpt lat="45.76361325756896" lon="12.116084367747737"><ele>83.0</ele><time>2026-05-01T10:56:16Z</time></trkpt><trkpt lat="45.76360176237634" lon="12.11657431278243"><ele>82.5</ele><time>2026-05-01T10:56:17Z</time></trkpt><trkpt lat="45.76356628365895" lon="12.117054976135554"><ele>82.0</ele><time>2026-05-01T10:56:18Z</time></trkpt><trkpt lat="45.76352344513766" lon="12.11753929837026"><ele>81.5</ele><time>2026-05-01T10:56:19Z</time></trkpt><trkpt lat="45.76348588672713" lon="12.118030071922279"><ele>81.0</ele><time>2026-05-01T10:56:20Z</time></trkpt><trkpt lat="45.76342305440586" lon="12.118500219638358"><ele>80.5</ele><time>2026-05-01T10:56:21Z</time></trkpt><trkpt lat="45.7633666321242" lon="12.118979989688894"><ele>80.0</ele><time>2026-05-01T10:56:22Z</time></trkpt><trkpt lat="45.763311734979084" lon="12.119462795311387"><ele>80.0</ele><time>2026-05-01T10:56:23Z</time></trkpt><trkpt lat="45.76325549479127" lon="12.119943263134797"><ele>80.0</ele><time>2026-05-01T10:56:24Z</time></trkpt><trkpt lat="45.763199850426304" lon="12.12042537146615"><ele>79.5</ele><time>2026-05-01T10:56:25Z</time></trkpt><trkpt lat="45.763149612476546" lon="12.120907710515882"><ele>79.0</ele><time>2026-05-01T10:56:26Z</time></trkpt><trkpt lat="45.763104052149224" lon="12.12138961342504"><ele>79.5</ele><time>2026-05-01T10:56:27Z</time></trkpt><trkpt lat="45.76306395429303" lon="12.121872561139309"><ele>80.0</ele><time>2026-05-01T10:56:28Z</time></trkpt><trkpt lat="45.76303405541929" lon="12.12235726414355"><ele>80.5</ele><time>2026-05-01T10:56:29Z</time></trkpt><trkpt lat="45.76300864814264" lon="12.122840486584128"><ele>81.0</ele><time>2026-05-01T10:56:30Z</time></trkpt><trkpt lat="45.76299037928533" lon="12.123322745263359"><ele>81.0</ele><time>2026-05-01T10:56:31Z</time></trkpt><trkpt lat="45.76298072852341" lon="12.123809950519204"><ele>81.0</ele><time>2026-05-01T10:56:32Z</time></trkpt><trkpt lat="45.762979832221866" lon="12.124296471439019"><ele>80.5</ele><time>2026-05-01T10:56:33Z</time></trkpt><trkpt lat="45.76298917915691" lon="12.124782718772037"><ele>80.0</ele><time>2026-05-01T10:56:34Z</time></trkpt><trkpt lat="45.763006476028316" lon="12.1252702205665"><ele>79.5</ele><time>2026-05-01T10:56:35Z</time></trkpt><trkpt lat="45.7630339400083" lon="12.125757647148776"><ele>79.0</ele><time>2026-05-01T10:56:36Z</time></trkpt><trkpt lat="45.76306806214063" lon="12.126242335842198"><ele>77.5</ele><time>2026-05-01T10:56:37Z</time></trkpt><trkpt lat="45.76311229105903" lon="12.126715938078103"><ele>76.0</ele><time>2026-05-01T10:56:38Z</time></trkpt><trkpt lat="45.76316809189728" lon="12.127208529360775"><ele>77.5</ele><time>2026-05-01T10:56:39Z</time></trkpt><trkpt lat="45.76321920059682" lon="12.127671824443608"><ele>79.0</ele><time>2026-05-01T10:56:40Z</time></trkpt><trkpt lat="45.763296384551765" lon="12.128157647310072"><ele>78.5</ele><time>2026-05-01T10:56:41Z</time></trkpt><trkpt lat="45.76337619637378" lon="12.128633537643193"><ele>78.0</ele><time>2026-05-01T10:56:42Z</time></trkpt><trkpt lat="45.763463900078776" lon="12.129102068276302"><ele>78.0</ele><time>2026-05-01T10:56:43Z</time></trkpt><trkpt lat="45.76356161310286" lon="12.12956807964704"><ele>78.0</ele><time>2026-05-01T10:56:44Z</time></trkpt><trkpt lat="45.76366732330013" lon="12.13002866542042"><ele>78.0</ele><time>2026-05-01T10:56:45Z</time></trkpt><trkpt lat="45.76377492891615" lon="12.130492578704308"><ele>78.0</ele><time>2026-05-01T10:56:46Z</time></trkpt><trkpt lat="45.76388374516286" lon="12.13095595459068"><ele>78.5</ele><time>2026-05-01T10:56:47Z</time></trkpt><trkpt lat="45.76399377067946" lon="12.131417480228182"><ele>79.0</ele><time>2026-05-01T10:56:48Z</time></trkpt><trkpt lat="45.76410379976752" lon="12.131879164317468"><ele>78.0</ele><time>2026-05-01T10:56:49Z</time></trkpt><trkpt lat="45.76418732760104" lon="12.132345400821068"><ele>77.0</ele><time>2026-05-01T10:56:50Z</time></trkpt><trkpt lat="45.76431687174973" lon="12.132806484172827"><ele>77.0</ele><time>2026-05-01T10:56:51Z</time></trkpt><trkpt lat="45.7644246907848" lon="12.133266974352866"><ele>77.0</ele><time>2026-05-01T10:56:52Z</time></trkpt><trkpt lat="45.76452598825555" lon="12.13373302166153"><ele>76.5</ele><time>2026-05-01T10:56:53Z</time></trkpt><trkpt lat="45.76461415713144" lon="12.134197858597233"><ele>76.0</ele><time>2026-05-01T10:56:54Z</time></trkpt><trkpt lat="45.764697799047994" lon="12.134672122660186"><ele>75.5</ele><time>2026-05-01T10:56:55Z</time></trkpt><trkpt lat="45.76477131162036" lon="12.13514641280081"><ele>75.0</ele><time>2026-05-01T10:56:56Z</time></trkpt><trkpt lat="45.76483469254452" lon="12.135622788011538"><ele>75.0</ele><time>2026-05-01T10:56:57Z</time></trkpt><trkpt lat="45.76488867400107" lon="12.136103523956521"><ele>75.0</ele><time>2026-05-01T10:56:58Z</time></trkpt><trkpt lat="45.764935445518866" lon="12.13658747919107"><ele>75.0</ele><time>2026-05-01T10:56:59Z</time></trkpt><trkpt lat="45.76497168551122" lon="12.137072828096999"><ele>75.0</ele><time>2026-05-01T10:57:00Z</time></trkpt><trkpt lat="45.76499983893691" lon="12.137559427015088"><ele>74.5</ele><time>2026-05-01T10:57:01Z</time></trkpt><trkpt lat="45.76501662609379" lon="12.138047585794833"><ele>74.0</ele><time>2026-05-01T10:57:02Z</time></trkpt><trkpt lat="45.76502418391815" lon="12.138536463473471"><ele>73.5</ele><time>2026-05-01T10:57:03Z</time></trkpt><trkpt lat="45.76502042932319" lon="12.1390234250073"><ele>73.0</ele><time>2026-05-01T10:57:04Z</time></trkpt><trkpt lat="45.76500529472828" lon="12.139512493318115"><ele>74.0</ele><time>2026-05-01T10:57:05Z</time></trkpt><trkpt lat="45.764981764654465" lon="12.140001360641268"><ele>75.0</ele><time>2026-05-01T10:57:06Z</time></trkpt><trkpt lat="45.76494669925478" lon="12.140490107261103"><ele>75.0</ele><time>2026-05-01T10:57:07Z</time></trkpt><trkpt lat="45.76490324793672" lon="12.140976355995592"><ele>75.0</ele><time>2026-05-01T10:57:08Z</time></trkpt><trkpt lat="45.76485389961368" lon="12.141460472225146"><ele>75.0</ele><time>2026-05-01T10:57:09Z</time></trkpt><trkpt lat="45.7647988338803" lon="12.141943922663375"><ele>75.0</ele><time>2026-05-01T10:57:10Z</time></trkpt><trkpt lat="45.764741347059584" lon="12.142427176261672"><ele>75.0</ele><time>2026-05-01T10:57:11Z</time></trkpt><trkpt lat="45.76467961679027" lon="12.142909646016676"><ele>75.0</ele><time>2026-05-01T10:57:12Z</time></trkpt><trkpt lat="45.76462035208226" lon="12.143389209609051"><ele>74.5</ele><time>2026-05-01T10:57:13Z</time></trkpt><trkpt lat="45.764561099914644" lon="12.143869843099598"><ele>74.0</ele><time>2026-05-01T10:57:14Z</time></trkpt><trkpt lat="45.764510410432116" lon="12.144354474483132"><ele>74.0</ele><time>2026-05-01T10:57:15Z</time></trkpt><trkpt lat="45.764465635702415" lon="12.144841787673133"><ele>74.0</ele><time>2026-05-01T10:57:16Z</time></trkpt><trkpt lat="45.76442947138314" lon="12.145328537072563"><ele>73.0</ele><time>2026-05-01T10:57:17Z</time></trkpt><trkpt lat="45.764406170198264" lon="12.145817766805303"><ele>72.0</ele><time>2026-05-01T10:57:18Z</time></trkpt><trkpt lat="45.76439584938097" lon="12.146304291055472"><ele>73.0</ele><time>2026-05-01T10:57:19Z</time></trkpt><trkpt lat="45.76439736505401" lon="12.146789182760784"><ele>74.0</ele><time>2026-05-01T10:57:20Z</time></trkpt><trkpt lat="45.764409269706334" lon="12.147275085507799"><ele>74.5</ele><time>2026-05-01T10:57:21Z</time></trkpt><trkpt lat="45.76442885679572" lon="12.147761813217933"><ele>75.0</ele><time>2026-05-01T10:57:22Z</time></trkpt><trkpt lat="45.764457091801944" lon="12.148248882948733"><ele>74.0</ele><time>2026-05-01T10:57:23Z</time></trkpt><trkpt lat="45.76449476760091" lon="12.14873289023677"><ele>73.0</ele><time>2026-05-01T10:57:24Z</time></trkpt><trkpt lat="45.76453962052915" lon="12.149216118232422"><ele>73.0</ele><time>2026-05-01T10:57:25Z</time></trkpt><trkpt lat="45.764599894357886" lon="12.149698340867424"><ele>73.0</ele><time>2026-05-01T10:57:26Z</time></trkpt><trkpt lat="45.7646650092691" lon="12.150180453912627"><ele>72.5</ele><time>2026-05-01T10:57:27Z</time></trkpt><trkpt lat="45.76473730754692" lon="12.150660791319385"><ele>72.0</ele><time>2026-05-01T10:57:28Z</time></trkpt><trkpt lat="45.76481016029082" lon="12.151139360708935"><ele>72.5</ele><time>2026-05-01T10:57:29Z</time></trkpt><trkpt lat="45.764885139738354" lon="12.151616235149026"><ele>73.0</ele><time>2026-05-01T10:57:30Z</time></trkpt><trkpt lat="45.7649627972545" lon="12.152093686050366"><ele>72.5</ele><time>2026-05-01T10:57:31Z</time></trkpt><trkpt lat="45.76503965857736" lon="12.152569876450926"><ele>72.0</ele><time>2026-05-01T10:57:32Z</time></trkpt><trkpt lat="45.76511088950585" lon="12.153047930544822"><ele>72.0</ele><time>2026-05-01T10:57:33Z</time></trkpt><trkpt lat="45.765179155666544" lon="12.153524291076002"><ele>72.0</ele><time>2026-05-01T10:57:34Z</time></trkpt><trkpt lat="45.765244782149075" lon="12.15399822418555"><ele>72.5</ele><time>2026-05-01T10:57:35Z</time></trkpt><trkpt lat="45.765309063713865" lon="12.154479830525387"><ele>73.0</ele><time>2026-05-01T10:57:35.999Z</time></trkpt><trkpt lat="45.76536985104195" lon="12.1549608357636"><ele>73.0</ele><time>2026-05-01T10:57:36.999Z</time></trkpt><trkpt lat="45.76542490642936" lon="12.155442232520459"><ele>73.0</ele><time>2026-05-01T10:57:37.999Z</time></trkpt><trkpt lat="45.76547157452106" lon="12.155925705151892"><ele>73.0</ele><time>2026-05-01T10:57:38.999Z</time></trkpt><trkpt lat="45.76550931577916" lon="12.156408717060286"><ele>73.0</ele><time>2026-05-01T10:57:39.999Z</time></trkpt><trkpt lat="45.76554065184171" lon="12.156893017181462"><ele>72.0</ele><time>2026-05-01T10:57:40.999Z</time></trkpt><trkpt lat="45.765564891474526" lon="12.157376568664063"><ele>71.0</ele><time>2026-05-01T10:57:41.999Z</time></trkpt><trkpt lat="45.76558361318227" lon="12.157860488776887"><ele>70.5</ele><time>2026-05-01T10:57:42.999Z</time></trkpt><trkpt lat="45.76560073247849" lon="12.15834633859801"><ele>70.0</ele><time>2026-05-01T10:57:43.999Z</time></trkpt><trkpt lat="45.76561925476291" lon="12.158832114122712"><ele>70.5</ele><time>2026-05-01T10:57:45Z</time></trkpt><trkpt lat="45.765636092792846" lon="12.159317669931365"><ele>71.0</ele><time>2026-05-01T10:57:46Z</time></trkpt><trkpt lat="45.76564772965807" lon="12.1598042299978"><ele>71.0</ele><time>2026-05-01T10:57:47Z</time></trkpt><trkpt lat="45.76566263463179" lon="12.160283616481346"><ele>71.0</ele><time>2026-05-01T10:57:48Z</time></trkpt><trkpt lat="45.765680805145294" lon="12.160770766631703"><ele>70.5</ele><time>2026-05-01T10:57:49Z</time></trkpt><trkpt lat="45.76570414093217" lon="12.161257752053427"><ele>70.0</ele><time>2026-05-01T10:57:50Z</time></trkpt><trkpt lat="45.765734375866415" lon="12.161743003718934"><ele>70.0</ele><time>2026-05-01T10:57:51Z</time></trkpt><trkpt lat="45.76577689563338" lon="12.162228282410485"><ele>70.0</ele><time>2026-05-01T10:57:52Z</time></trkpt><trkpt lat="45.765831572472294" lon="12.162712965986207"><ele>71.0</ele><time>2026-05-01T10:57:53Z</time></trkpt><trkpt lat="45.765895306312615" lon="12.163195081124963"><ele>72.0</ele><time>2026-05-01T10:57:54Z</time></trkpt><trkpt lat="45.7659688466363" lon="12.1636738970097"><ele>70.5</ele><time>2026-05-01T10:57:55Z</time></trkpt><trkpt lat="45.76604455050518" lon="12.164152693806733"><ele>69.0</ele><time>2026-05-01T10:57:56Z</time></trkpt><trkpt lat="45.766121970870905" lon="12.164628323010465"><ele>68.5</ele><time>2026-05-01T10:57:57Z</time></trkpt><trkpt lat="45.766199490972355" lon="12.165106225079708"><ele>68.0</ele><time>2026-05-01T10:57:58Z</time></trkpt><trkpt lat="45.76627943368138" lon="12.165582278982459"><ele>67.5</ele><time>2026-05-01T10:57:59Z</time></trkpt><trkpt lat="45.76635755404227" lon="12.166058684435068"><ele>67.0</ele><time>2026-05-01T10:58:00Z</time></trkpt><trkpt lat="45.766429303989064" lon="12.166534363125319"><ele>66.5</ele><time>2026-05-01T10:58:01Z</time></trkpt><trkpt lat="45.76649842727847" lon="12.167014194002753"><ele>66.0</ele><time>2026-05-01T10:58:02Z</time></trkpt><trkpt lat="45.766559138076865" lon="12.167494723267902"><ele>66.0</ele><time>2026-05-01T10:58:03Z</time></trkpt><trkpt lat="45.766610296200135" lon="12.167979209302068"><ele>66.0</ele><time>2026-05-01T10:58:04Z</time></trkpt><trkpt lat="45.76665048781143" lon="12.16846275144817"><ele>67.0</ele><time>2026-05-01T10:58:05Z</time></trkpt><trkpt lat="45.76667879094965" lon="12.168947294730119"><ele>68.0</ele><time>2026-05-01T10:58:06Z</time></trkpt><trkpt lat="45.76669454874171" lon="12.169433047779572"><ele>68.5</ele><time>2026-05-01T10:58:07Z</time></trkpt><trkpt lat="45.766695196301676" lon="12.169922281748114"><ele>69.0</ele><time>2026-05-01T10:58:08Z</time></trkpt><trkpt lat="45.76667974733354" lon="12.170408550374228"><ele>68.5</ele><time>2026-05-01T10:58:09Z</time></trkpt><trkpt lat="45.766654012078334" lon="12.170894251610754"><ele>68.0</ele><time>2026-05-01T10:58:10Z</time></trkpt><trkpt lat="45.76661533904384" lon="12.171379245306813"><ele>66.5</ele><time>2026-05-01T10:58:11Z</time></trkpt><trkpt lat="45.76656414095403" lon="12.171860418200342"><ele>65.0</ele><time>2026-05-01T10:58:12Z</time></trkpt><trkpt lat="45.76650126422513" lon="12.172337923669927"><ele>65.5</ele><time>2026-05-01T10:58:13Z</time></trkpt><trkpt lat="45.766425356803204" lon="12.172809702267694"><ele>66.0</ele><time>2026-05-01T10:58:14Z</time></trkpt><trkpt lat="45.76634212191835" lon="12.173281904326036"><ele>66.5</ele><time>2026-05-01T10:58:15Z</time></trkpt><trkpt lat="45.76625336686896" lon="12.173751010913668"><ele>67.0</ele><time>2026-05-01T10:58:16Z</time></trkpt><trkpt lat="45.76616132285555" lon="12.174221025393079"><ele>66.5</ele><time>2026-05-01T10:58:17Z</time></trkpt><trkpt lat="45.76606710308853" lon="12.174688706809587"><ele>66.0</ele><time>2026-05-01T10:58:18Z</time></trkpt><trkpt lat="45.76597188430159" lon="12.175160493516165"><ele>66.0</ele><time>2026-05-01T10:58:19Z</time></trkpt><trkpt lat="45.76587882485508" lon="12.175630952699041"><ele>66.0</ele><time>2026-05-01T10:58:20Z</time></trkpt><trkpt lat="45.76578561269581" lon="12.17609845169227"><ele>66.0</ele><time>2026-05-01T10:58:21Z</time></trkpt><trkpt lat="45.76568946534222" lon="12.176564686950364"><ele>66.0</ele><time>2026-05-01T10:58:22Z</time></trkpt><trkpt lat="45.765595450312446" lon="12.17703467531317"><ele>65.5</ele><time>2026-05-01T10:58:23Z</time></trkpt><trkpt lat="45.765499791682565" lon="12.177512037803853"><ele>65.0</ele><time>2026-05-01T10:58:24.015Z</time></trkpt><trkpt lat="45.765404946519716" lon="12.177982697292784"><ele>64.5</ele><time>2026-05-01T10:58:25.012Z</time></trkpt><trkpt lat="45.7653087661146" lon="12.17845694374308"><ele>64.0</ele><time>2026-05-01T10:58:26.019Z</time></trkpt><trkpt lat="45.76521186850716" lon="12.178930456096717"><ele>64.5</ele><time>2026-05-01T10:58:27.023Z</time></trkpt><trkpt lat="45.76511558463746" lon="12.179398712026401"><ele>65.0</ele><time>2026-05-01T10:58:28.016Z</time></trkpt><trkpt lat="45.76495897029132" lon="12.180367028352041"><ele>64.0</ele><time>2026-05-01T10:58:30Z</time></trkpt><trkpt lat="45.7648641485034" lon="12.180834206410148"><ele>63.0</ele><time>2026-05-01T10:58:31Z</time></trkpt><trkpt lat="45.76476930250449" lon="12.181274042445615"><ele>64.0</ele><time>2026-05-01T10:58:32Z</time></trkpt><trkpt lat="45.76467164016843" lon="12.181750574544429"><ele>65.0</ele><time>2026-05-01T10:58:33Z</time></trkpt><trkpt lat="45.76457998403677" lon="12.182226330696913"><ele>66.0</ele><time>2026-05-01T10:58:34Z</time></trkpt><trkpt lat="45.76448299831977" lon="12.18269200779614"><ele>67.0</ele><time>2026-05-01T10:58:35Z</time></trkpt><trkpt lat="45.76438616123941" lon="12.183156786845695"><ele>65.5</ele><time>2026-05-01T10:58:36Z</time></trkpt><trkpt lat="45.76429918657036" lon="12.183629728938046"><ele>64.0</ele><time>2026-05-01T10:58:37Z</time></trkpt><trkpt lat="45.76423001733308" lon="12.184105666901495"><ele>63.0</ele><time>2026-05-01T10:58:38Z</time></trkpt><trkpt lat="45.76417176055449" lon="12.184583561311578"><ele>62.0</ele><time>2026-05-01T10:58:39Z</time></trkpt><trkpt lat="45.76413025478361" lon="12.185065550488586"><ele>62.0</ele><time>2026-05-01T10:58:40Z</time></trkpt><trkpt lat="45.76409376308113" lon="12.185540834572029"><ele>62.0</ele><time>2026-05-01T10:58:41Z</time></trkpt><trkpt lat="45.76408063188903" lon="12.186026011287986"><ele>63.0</ele><time>2026-05-01T10:58:42Z</time></trkpt><trkpt lat="45.76408186534421" lon="12.186514122702022"><ele>64.0</ele><time>2026-05-01T10:58:43Z</time></trkpt><trkpt lat="45.76409895422044" lon="12.186999354940781"><ele>64.0</ele><time>2026-05-01T10:58:44Z</time></trkpt><trkpt lat="45.764123691081736" lon="12.18748424008839"><ele>64.0</ele><time>2026-05-01T10:58:45Z</time></trkpt><trkpt lat="45.76416439495484" lon="12.187968952948811"><ele>63.5</ele><time>2026-05-01T10:58:46Z</time></trkpt><trkpt lat="45.76421197177461" lon="12.18845219740346"><ele>63.0</ele><time>2026-05-01T10:58:47Z</time></trkpt><trkpt lat="45.76427509747003" lon="12.188930962787982"><ele>63.0</ele><time>2026-05-01T10:58:48Z</time></trkpt><trkpt lat="45.76435340667623" lon="12.189404575685892"><ele>63.0</ele><time>2026-05-01T10:58:49Z</time></trkpt><trkpt lat="45.76444487971477" lon="12.189876131089916"><ele>62.0</ele><time>2026-05-01T10:58:50Z</time></trkpt><trkpt lat="45.76455123263125" lon="12.190337339878754"><ele>61.0</ele><time>2026-05-01T10:58:51Z</time></trkpt><trkpt lat="45.7646638994001" lon="12.19079643798975"><ele>60.0</ele><time>2026-05-01T10:58:52Z</time></trkpt><trkpt lat="45.764776797202316" lon="12.191257230344938"><ele>59.0</ele><time>2026-05-01T10:58:53Z</time></trkpt><trkpt lat="45.7648876251845" lon="12.19171833676257"><ele>59.0</ele><time>2026-05-01T10:58:54Z</time></trkpt><trkpt lat="45.76499843511808" lon="12.1921797694855"><ele>59.0</ele><time>2026-05-01T10:58:55Z</time></trkpt><trkpt lat="45.7651072708508" lon="12.192643925435506"><ele>59.5</ele><time>2026-05-01T10:58:56Z</time></trkpt><trkpt lat="45.76521484638245" lon="12.193109232469975"><ele>60.0</ele><time>2026-05-01T10:58:57Z</time></trkpt><trkpt lat="45.765319129866306" lon="12.19357606037961"><ele>60.5</ele><time>2026-05-01T10:58:58Z</time></trkpt><trkpt lat="45.765419978069254" lon="12.194046296028427"><ele>61.0</ele><time>2026-05-01T10:58:59Z</time></trkpt><trkpt lat="45.76551479920157" lon="12.194516955615393"><ele>61.0</ele><time>2026-05-01T10:59:00Z</time></trkpt><trkpt lat="45.7656007036822" lon="12.194989250895704"><ele>61.0</ele><time>2026-05-01T10:59:01Z</time></trkpt><trkpt lat="45.76567500775679" lon="12.195466433101105"><ele>60.5</ele><time>2026-05-01T10:59:02Z</time></trkpt><trkpt lat="45.765739790477" lon="12.19594543580628"><ele>60.0</ele><time>2026-05-01T10:59:03Z</time></trkpt><trkpt lat="45.7657898842333" lon="12.196427030852377"><ele>59.5</ele><time>2026-05-01T10:59:04Z</time></trkpt><trkpt lat="45.765830856121546" lon="12.196919097933012"><ele>59.0</ele><time>2026-05-01T10:59:05Z</time></trkpt><trkpt lat="45.76585230986688" lon="12.197410216332763"><ele>58.5</ele><time>2026-05-01T10:59:06Z</time></trkpt><trkpt lat="45.765861794804366" lon="12.197901458462024"><ele>58.0</ele><time>2026-05-01T10:59:07Z</time></trkpt><trkpt lat="45.765855514508765" lon="12.198393968549269"><ele>58.0</ele><time>2026-05-01T10:59:08Z</time></trkpt><trkpt lat="45.765838822957484" lon="12.19888557979196"><ele>58.0</ele><time>2026-05-01T10:59:09Z</time></trkpt><trkpt lat="45.7658068609351" lon="12.199378053656957"><ele>57.5</ele><time>2026-05-01T10:59:10Z</time></trkpt><trkpt lat="45.76576497380946" lon="12.199864100139886"><ele>57.0</ele><time>2026-05-01T10:59:11Z</time></trkpt><trkpt lat="45.76571150782486" lon="12.200347781147341"><ele>56.0</ele><time>2026-05-01T10:59:12Z</time></trkpt><trkpt lat="45.765656982071896" lon="12.200827107169394"><ele>55.0</ele><time>2026-05-01T10:59:13Z</time></trkpt><trkpt lat="45.765604374211335" lon="12.201306518032483"><ele>56.0</ele><time>2026-05-01T10:59:14Z</time></trkpt><trkpt lat="45.76554916740668" lon="12.201793227127324"><ele>57.0</ele><time>2026-05-01T10:59:15Z</time></trkpt><trkpt lat="45.76549272262692" lon="12.202276705352345"><ele>56.5</ele><time>2026-05-01T10:59:16Z</time></trkpt><trkpt lat="45.76543428513818" lon="12.202760401441829"><ele>56.0</ele><time>2026-05-01T10:59:17Z</time></trkpt><trkpt lat="45.76537813327455" lon="12.203243615675582"><ele>55.0</ele><time>2026-05-01T10:59:18Z</time></trkpt><trkpt lat="45.76532350072426" lon="12.203721898163284"><ele>54.0</ele><time>2026-05-01T10:59:19Z</time></trkpt><trkpt lat="45.76526570224484" lon="12.204203493380383"><ele>54.0</ele><time>2026-05-01T10:59:20Z</time></trkpt><trkpt lat="45.76520831669486" lon="12.204682647061668"><ele>54.0</ele><time>2026-05-01T10:59:21Z</time></trkpt><trkpt lat="45.76515082766676" lon="12.20516352033469"><ele>53.0</ele><time>2026-05-01T10:59:22Z</time></trkpt><trkpt lat="45.765093378542396" lon="12.205642962982443"><ele>52.0</ele><time>2026-05-01T10:59:23Z</time></trkpt><trkpt lat="45.765035867726205" lon="12.206120883443422"><ele>52.0</ele><time>2026-05-01T10:59:24Z</time></trkpt><trkpt lat="45.764979977490995" lon="12.206599079050562"><ele>52.0</ele><time>2026-05-01T10:59:25Z</time></trkpt><trkpt lat="45.76492272748195" lon="12.207080458062084"><ele>52.5</ele><time>2026-05-01T10:59:26Z</time></trkpt><trkpt lat="45.764866256728304" lon="12.207559985361211"><ele>53.0</ele><time>2026-05-01T10:59:27Z</time></trkpt><trkpt lat="45.76480984549253" lon="12.208039172584328"><ele>53.0</ele><time>2026-05-01T10:59:28Z</time></trkpt><trkpt lat="45.76475584963528" lon="12.208517542179614"><ele>53.0</ele><time>2026-05-01T10:59:29Z</time></trkpt><trkpt lat="45.76469286371696" lon="12.2089995191058"><ele>53.0</ele><time>2026-05-01T10:59:30Z</time></trkpt><trkpt lat="45.7646412567948" lon="12.20947945896824"><ele>53.0</ele><time>2026-05-01T10:59:31Z</time></trkpt><trkpt lat="45.76459017334293" lon="12.209957771490588"><ele>53.0</ele><time>2026-05-01T10:59:32Z</time></trkpt><trkpt lat="45.764534786424356" lon="12.210436117300862"><ele>53.0</ele><time>2026-05-01T10:59:33Z</time></trkpt><trkpt lat="45.7644768507714" lon="12.210916748192354"><ele>52.5</ele><time>2026-05-01T10:59:34Z</time></trkpt><trkpt lat="45.764418816740005" lon="12.21139700173833"><ele>52.0</ele><time>2026-05-01T10:59:35Z</time></trkpt><trkpt lat="45.76436334282208" lon="12.211878087980269"><ele>51.5</ele><time>2026-05-01T10:59:36Z</time></trkpt><trkpt lat="45.764308112879576" lon="12.21235823036131"><ele>51.0</ele><time>2026-05-01T10:59:37Z</time></trkpt><trkpt lat="45.76425324167215" lon="12.212830258735083"><ele>50.0</ele><time>2026-05-01T10:59:38Z</time></trkpt><trkpt lat="45.76419928854278" lon="12.2132975286635"><ele>49.0</ele><time>2026-05-01T10:59:39Z</time></trkpt><trkpt lat="45.764144533793605" lon="12.21376417343663"><ele>49.0</ele><time>2026-05-01T10:59:40Z</time></trkpt><trkpt lat="45.76408765527463" lon="12.214235663334655"><ele>49.0</ele><time>2026-05-01T10:59:41Z</time></trkpt><trkpt lat="45.764029885685325" lon="12.21470999114348"><ele>50.0</ele><time>2026-05-01T10:59:42Z</time></trkpt><trkpt lat="45.76397037440537" lon="12.215190440025903"><ele>51.0</ele><time>2026-05-01T10:59:43Z</time></trkpt><trkpt lat="45.76391037322295" lon="12.215673353155562"><ele>51.5</ele><time>2026-05-01T10:59:44Z</time></trkpt><trkpt lat="45.763850464751094" lon="12.216153459131396"><ele>52.0</ele><time>2026-05-01T10:59:45Z</time></trkpt><trkpt lat="45.763791059293915" lon="12.216637159665863"><ele>52.5</ele><time>2026-05-01T10:59:46Z</time></trkpt><trkpt lat="45.763727844016564" lon="12.21712079005336"><ele>53.0</ele><time>2026-05-01T10:59:47Z</time></trkpt><trkpt lat="45.76365907941181" lon="12.217600297304605"><ele>52.0</ele><time>2026-05-01T10:59:48Z</time></trkpt><trkpt lat="45.763582248525594" lon="12.21807781598998"><ele>51.0</ele><time>2026-05-01T10:59:49Z</time></trkpt><trkpt lat="45.763495936253015" lon="12.218551210714333"><ele>50.5</ele><time>2026-05-01T10:59:50Z</time></trkpt><trkpt lat="45.76340115518798" lon="12.219019974374016"><ele>50.0</ele><time>2026-05-01T10:59:51Z</time></trkpt><trkpt lat="45.7632866944889" lon="12.21948019145786"><ele>50.5</ele><time>2026-05-01T10:59:52Z</time></trkpt><trkpt lat="45.76315724788452" lon="12.219931189969877"><ele>51.0</ele><time>2026-05-01T10:59:53Z</time></trkpt><trkpt lat="45.76301530183846" lon="12.220379388258827"><ele>51.0</ele><time>2026-05-01T10:59:54Z</time></trkpt><trkpt lat="45.76286583872381" lon="12.22081862946097"><ele>51.0</ele><time>2026-05-01T10:59:55Z</time></trkpt><trkpt lat="45.76270552594057" lon="12.22125579266743"><ele>51.0</ele><time>2026-05-01T10:59:56Z</time></trkpt><trkpt lat="45.762535786350384" lon="12.221680403659922"><ele>51.0</ele><time>2026-05-01T10:59:57Z</time></trkpt><trkpt lat="45.76235370675388" lon="12.222091644897674"><ele>50.5</ele><time>2026-05-01T10:59:58Z</time></trkpt><trkpt lat="45.76215942845385" lon="12.22249358469763"><ele>50.0</ele><time>2026-05-01T10:59:59Z</time></trkpt><trkpt lat="45.761952835029945" lon="12.2228846185044"><ele>50.0</ele><time>2026-05-01T11:00:00Z</time></trkpt><trkpt lat="45.76173894430476" lon="12.223267619616294"><ele>50.0</ele><time>2026-05-01T11:00:01Z</time></trkpt><trkpt lat="45.76151957634683" lon="12.22364350764505"><ele>49.5</ele><time>2026-05-01T11:00:02Z</time></trkpt><trkpt lat="45.761295454942974" lon="12.224012257595309"><ele>49.0</ele><time>2026-05-01T11:00:03Z</time></trkpt><trkpt lat="45.76107088282412" lon="12.22438110083438"><ele>48.5</ele><time>2026-05-01T11:00:04Z</time></trkpt><trkpt lat="45.760848798626384" lon="12.224753886959062"><ele>48.0</ele><time>2026-05-01T11:00:05Z</time></trkpt><trkpt lat="45.76062723860216" lon="12.225125970412018"><ele>49.0</ele><time>2026-05-01T11:00:06Z</time></trkpt><trkpt lat="45.760404879281765" lon="12.22549608406531"><ele>50.0</ele><time>2026-05-01T11:00:07Z</time></trkpt><trkpt lat="45.76018061823428" lon="12.225866500730532"><ele>50.0</ele><time>2026-05-01T11:00:08Z</time></trkpt><trkpt lat="45.75995792130221" lon="12.226233686380223"><ele>50.0</ele><time>2026-05-01T11:00:09Z</time></trkpt><trkpt lat="45.759734616095606" lon="12.226600623822295"><ele>50.0</ele><time>2026-05-01T11:00:10Z</time></trkpt><trkpt lat="45.75951392916778" lon="12.226969697491068"><ele>50.0</ele><time>2026-05-01T11:00:11Z</time></trkpt><trkpt lat="45.75929426934148" lon="12.227339812446548"><ele>49.5</ele><time>2026-05-01T11:00:12Z</time></trkpt><trkpt lat="45.759077702454924" lon="12.227713578477218"><ele>49.0</ele><time>2026-05-01T11:00:13Z</time></trkpt><trkpt lat="45.758865325675785" lon="12.228092159086694"><ele>49.5</ele><time>2026-05-01T11:00:14Z</time></trkpt><trkpt lat="45.758649983399685" lon="12.228472289200475"><ele>50.0</ele><time>2026-05-01T11:00:15Z</time></trkpt><trkpt lat="45.75844241710739" lon="12.228856081657323"><ele>49.0</ele><time>2026-05-01T11:00:16Z</time></trkpt><trkpt lat="45.758236619378806" lon="12.22924239142534"><ele>48.0</ele><time>2026-05-01T11:00:17Z</time></trkpt><trkpt lat="45.758029956521305" lon="12.22962863043193"><ele>47.5</ele><time>2026-05-01T11:00:18Z</time></trkpt><trkpt lat="45.75782606463309" lon="12.230015147982325"><ele>47.0</ele><time>2026-05-01T11:00:19Z</time></trkpt><trkpt lat="45.757620871441574" lon="12.230407287093715"><ele>47.0</ele><time>2026-05-01T11:00:20Z</time></trkpt><trkpt lat="45.75741929571608" lon="12.230801678137487"><ele>47.0</ele><time>2026-05-01T11:00:21Z</time></trkpt><trkpt lat="45.75722029903264" lon="12.231199212408459"><ele>47.0</ele><time>2026-05-01T11:00:22Z</time></trkpt><trkpt lat="45.75702609670767" lon="12.231599604106453"><ele>47.0</ele><time>2026-05-01T11:00:23Z</time></trkpt><trkpt lat="45.756833833098554" lon="12.232000052730207"><ele>47.0</ele><time>2026-05-01T11:00:24Z</time></trkpt><trkpt lat="45.75664186462761" lon="12.232404188562331"><ele>47.0</ele><time>2026-05-01T11:00:25Z</time></trkpt><trkpt lat="45.75645093494378" lon="12.232809794570162"><ele>46.0</ele><time>2026-05-01T11:00:26Z</time></trkpt><trkpt lat="45.756258745951584" lon="12.233217346829273"><ele>45.0</ele><time>2026-05-01T11:00:27Z</time></trkpt><trkpt lat="45.75606830170146" lon="12.233621423238567"><ele>45.0</ele><time>2026-05-01T11:00:28Z</time></trkpt><trkpt lat="45.7558770701599" lon="12.234026447181446"><ele>45.0</ele><time>2026-05-01T11:00:29Z</time></trkpt><trkpt lat="45.75568605566034" lon="12.23443060919346"><ele>45.5</ele><time>2026-05-01T11:00:30Z</time></trkpt><trkpt lat="45.75549663463347" lon="12.234836851403248"><ele>46.0</ele><time>2026-05-01T11:00:31Z</time></trkpt><trkpt lat="45.75530696487836" lon="12.235244882066107"><ele>44.5</ele><time>2026-05-01T11:00:32Z</time></trkpt><trkpt lat="45.75511334819464" lon="12.235662372730646"><ele>43.0</ele><time>2026-05-01T11:00:33.017Z</time></trkpt><trkpt lat="45.754921964376166" lon="12.236073631400835"><ele>42.5</ele><time>2026-05-01T11:00:34.019Z</time></trkpt><trkpt lat="45.75473015223075" lon="12.236482864842262"><ele>42.0</ele><time>2026-05-01T11:00:35.016Z</time></trkpt><trkpt lat="45.75453700512644" lon="12.236892004244748"><ele>41.5</ele><time>2026-05-01T11:00:36.015Z</time></trkpt><trkpt lat="45.754342805422944" lon="12.23730082833309"><ele>41.0</ele><time>2026-05-01T11:00:37.017Z</time></trkpt><trkpt lat="45.75415237846909" lon="12.237701514125238"><ele>41.0</ele><time>2026-05-01T11:00:38Z</time></trkpt><trkpt lat="45.75397275313103" lon="12.238088460027555"><ele>41.0</ele><time>2026-05-01T11:00:39Z</time></trkpt><trkpt lat="45.75379352447702" lon="12.238495451176316"><ele>40.0</ele><time>2026-05-01T11:00:40Z</time></trkpt><trkpt lat="45.75362208664697" lon="12.238912914410076"><ele>39.0</ele><time>2026-05-01T11:00:41Z</time></trkpt><trkpt lat="45.753456831524424" lon="12.239335870051153"><ele>38.0</ele><time>2026-05-01T11:00:42Z</time></trkpt><trkpt lat="45.7532977932833" lon="12.239768211910189"><ele>37.0</ele><time>2026-05-01T11:00:43Z</time></trkpt><trkpt lat="45.753148614787236" lon="12.240204374970771"><ele>39.0</ele><time>2026-05-01T11:00:44Z</time></trkpt><trkpt lat="45.75300833627335" lon="12.24064919067683"><ele>41.0</ele><time>2026-05-01T11:00:45Z</time></trkpt><trkpt lat="45.75287831863191" lon="12.241102414710339"><ele>41.5</ele><time>2026-05-01T11:00:46Z</time></trkpt><trkpt lat="45.752758419070396" lon="12.24155571623992"><ele>42.0</ele><time>2026-05-01T11:00:47Z</time></trkpt><trkpt lat="45.75264746330992" lon="12.242015081058614"><ele>42.5</ele><time>2026-05-01T11:00:48Z</time></trkpt><trkpt lat="45.75254529755762" lon="12.242481500966443"><ele>43.0</ele><time>2026-05-01T11:00:49Z</time></trkpt><trkpt lat="45.75245211284074" lon="12.242950032668894"><ele>42.5</ele><time>2026-05-01T11:00:50Z</time></trkpt><trkpt lat="45.752368549889766" lon="12.243425220273553"><ele>42.0</ele><time>2026-05-01T11:00:51Z</time></trkpt><trkpt lat="45.75229582893597" lon="12.243902025214828"><ele>41.5</ele><time>2026-05-01T11:00:52Z</time></trkpt><trkpt lat="45.75223548283855" lon="12.244382993261855"><ele>41.0</ele><time>2026-05-01T11:00:53Z</time></trkpt><trkpt lat="45.75218379903594" lon="12.244865889773939"><ele>41.0</ele><time>2026-05-01T11:00:54Z</time></trkpt><trkpt lat="45.752141717396086" lon="12.245348851874128"><ele>41.0</ele><time>2026-05-01T11:00:55Z</time></trkpt><trkpt lat="45.75211512451851" lon="12.2458330675692"><ele>41.5</ele><time>2026-05-01T11:00:56Z</time></trkpt><trkpt lat="45.7520901833467" lon="12.246318749835329"><ele>42.0</ele><time>2026-05-01T11:00:57Z</time></trkpt><trkpt lat="45.75207411816909" lon="12.246806325303375"><ele>42.0</ele><time>2026-05-01T11:00:58Z</time></trkpt><trkpt lat="45.75206470673632" lon="12.247292785573146"><ele>42.0</ele><time>2026-05-01T11:00:59Z</time></trkpt><trkpt lat="45.75205712973682" lon="12.247777930277692"><ele>42.0</ele><time>2026-05-01T11:01:00Z</time></trkpt><trkpt lat="45.75205422447644" lon="12.248258572610704"><ele>42.0</ele><time>2026-05-01T11:01:01Z</time></trkpt><trkpt lat="45.752050151319644" lon="12.248731137889173"><ele>42.0</ele><time>2026-05-01T11:01:02Z</time></trkpt><trkpt lat="45.752046038732125" lon="12.249195046859562"><ele>42.0</ele><time>2026-05-01T11:01:03Z</time></trkpt><trkpt lat="45.75203813749036" lon="12.249650398999629"><ele>42.0</ele><time>2026-05-01T11:01:04Z</time></trkpt><trkpt lat="45.752030292449206" lon="12.250097527723147"><ele>42.0</ele><time>2026-05-01T11:01:05Z</time></trkpt><trkpt lat="45.75201819666414" lon="12.250536518706225"><ele>42.5</ele><time>2026-05-01T11:01:06Z</time></trkpt><trkpt lat="45.75200257262423" lon="12.25096581868467"><ele>43.0</ele><time>2026-05-01T11:01:07Z</time></trkpt><trkpt lat="45.75198106681669" lon="12.25139647014894"><ele>43.5</ele><time>2026-05-01T11:01:08.023Z</time></trkpt><trkpt lat="45.75195283783791" lon="12.251806811450862"><ele>44.0</ele><time>2026-05-01T11:01:09.025Z</time></trkpt><trkpt lat="45.75191747525099" lon="12.252206098126308"><ele>43.0</ele><time>2026-05-01T11:01:10.025Z</time></trkpt><trkpt lat="45.75187319880988" lon="12.252588840350274"><ele>42.0</ele><time>2026-05-01T11:01:11.025Z</time></trkpt><trkpt lat="45.75182600353084" lon="12.252959259809337"><ele>40.0</ele><time>2026-05-01T11:01:12.019Z</time></trkpt><trkpt lat="45.751614728985125" lon="12.254292983573167"><ele>40.0</ele><time>2026-05-01T11:01:16Z</time></trkpt><trkpt lat="45.75156491964385" lon="12.254592579997635"><ele>40.0</ele><time>2026-05-01T11:01:17Z</time></trkpt><trkpt lat="45.75152568097916" lon="12.254856202550087"><ele>40.0</ele><time>2026-05-01T11:01:18Z</time></trkpt><trkpt lat="45.751486137155894" lon="12.255076467325969"><ele>40.25</ele><time>2026-05-01T11:01:19Z</time></trkpt><trkpt lat="45.751443936522065" lon="12.255294954100389"><ele>40.5</ele><time>2026-05-01T11:01:20Z</time></trkpt><trkpt lat="45.75140269740777" lon="12.255476200147832"><ele>40.75</ele><time>2026-05-01T11:01:21Z</time></trkpt><trkpt lat="45.751355063723274" lon="12.255598629574582"><ele>41.0</ele><time>2026-05-01T11:01:22Z</time></trkpt><trkpt lat="45.75131732051048" lon="12.255740939323372"><ele>40.666666666666664</ele><time>2026-05-01T11:01:23Z</time></trkpt><trkpt lat="45.751283912931164" lon="12.255862485568274"><ele>40.33333333333333</ele><time>2026-05-01T11:01:24Z</time></trkpt><trkpt lat="45.75125936925386" lon="12.255957719008652"><ele>40.0</ele><time>2026-05-01T11:01:25Z</time></trkpt><trkpt lat="45.751236508242485" lon="12.256042374405329"><ele>39.666666666666664</ele><time>2026-05-01T11:01:26Z</time></trkpt><trkpt lat="45.7512015591522" lon="12.256168643110586"><ele>39.333333333333336</ele><time>2026-05-01T11:01:28Z</time></trkpt><trkpt lat="45.75116914723472" lon="12.256265509326141"><ele>39.0</ele><time>2026-05-01T11:01:30Z</time></trkpt><trkpt lat="45.751140194809466" lon="12.256362990045124"><ele>39.0</ele><time>2026-05-01T11:01:32Z</time></trkpt><trkpt lat="45.75110263411287" lon="12.256530022646503"><ele>39.0</ele><time>2026-05-01T11:01:34Z</time></trkpt><trkpt lat="45.75106865853095" lon="12.256635261541405"><ele>39.0</ele><time>2026-05-01T11:01:35Z</time></trkpt><trkpt lat="45.75103303195332" lon="12.256760931313147"><ele>39.0</ele><time>2026-05-01T11:01:36Z</time></trkpt><trkpt lat="45.750995133593" lon="12.256905842300803"><ele>39.0</ele><time>2026-05-01T11:01:37Z</time></trkpt><trkpt lat="45.75095056880258" lon="12.257069839595358"><ele>39.0</ele><time>2026-05-01T11:01:38Z</time></trkpt><trkpt lat="45.75089924197859" lon="12.257251215202285"><ele>39.0</ele><time>2026-05-01T11:01:39Z</time></trkpt><trkpt lat="45.750848434194204" lon="12.257431069995334"><ele>39.0</ele><time>2026-05-01T11:01:40Z</time></trkpt><trkpt lat="45.750794625425996" lon="12.257627522821853"><ele>39.0</ele><time>2026-05-01T11:01:41Z</time></trkpt><trkpt lat="45.75073762331944" lon="12.257840975638052"><ele>39.333333333333336</ele><time>2026-05-01T11:01:42Z</time></trkpt><trkpt lat="45.75067965242444" lon="12.258072499768545"><ele>39.66666666666667</ele><time>2026-05-01T11:01:43Z</time></trkpt><trkpt lat="45.75061948815857" lon="12.258321736502873"><ele>40.0</ele><time>2026-05-01T11:01:44Z</time></trkpt><trkpt lat="45.750554113695124" lon="12.258585090586688"><ele>40.0</ele><time>2026-05-01T11:01:45Z</time></trkpt><trkpt lat="45.750489536435204" lon="12.258849822838103"><ele>40.0</ele><time>2026-05-01T11:01:46Z</time></trkpt><trkpt lat="45.750426927941156" lon="12.259119951227781"><ele>40.0</ele><time>2026-05-01T11:01:47Z</time></trkpt><trkpt lat="45.75035676400904" lon="12.259401216599702"><ele>40.0</ele><time>2026-05-01T11:01:48Z</time></trkpt><trkpt lat="45.75028896779579" lon="12.259697418189537"><ele>40.0</ele><time>2026-05-01T11:01:49Z</time></trkpt><trkpt lat="45.75022040960069" lon="12.260004452101215"><ele>40.0</ele><time>2026-05-01T11:01:50Z</time></trkpt><trkpt lat="45.75015198242572" lon="12.260321001529054"><ele>40.5</ele><time>2026-05-01T11:01:51Z</time></trkpt><trkpt lat="45.75008337698051" lon="12.260649327102625"><ele>41.0</ele><time>2026-05-01T11:01:52Z</time></trkpt><trkpt lat="45.7500171478252" lon="12.260987755654718"><ele>41.0</ele><time>2026-05-01T11:01:53Z</time></trkpt><trkpt lat="45.74994957478157" lon="12.261347606393134"><ele>41.0</ele><time>2026-05-01T11:01:53.999Z</time></trkpt><trkpt lat="45.74988634661976" lon="12.26171312778319"><ele>41.0</ele><time>2026-05-01T11:01:54.999Z</time></trkpt><trkpt lat="45.74982180028288" lon="12.262086263952822"><ele>41.0</ele><time>2026-05-01T11:01:55.999Z</time></trkpt><trkpt lat="45.749761169596816" lon="12.262469070838698"><ele>40.5</ele><time>2026-05-01T11:01:57Z</time></trkpt><trkpt lat="45.74970218270189" lon="12.262860754874179"><ele>40.0</ele><time>2026-05-01T11:01:58Z</time></trkpt><trkpt lat="45.74964767920705" lon="12.263259731011065"><ele>40.0</ele><time>2026-05-01T11:01:59Z</time></trkpt><trkpt lat="45.749595320623214" lon="12.263666581727982"><ele>40.0</ele><time>2026-05-01T11:02:00Z</time></trkpt><trkpt lat="45.749546368058326" lon="12.264078374042201"><ele>39.5</ele><time>2026-05-01T11:02:01Z</time></trkpt><trkpt lat="45.74951017685127" lon="12.264493228125383"><ele>39.0</ele><time>2026-05-01T11:02:02Z</time></trkpt><trkpt lat="45.74946601565313" lon="12.264914728073109"><ele>38.5</ele><time>2026-05-01T11:02:03Z</time></trkpt><trkpt lat="45.74942834852947" lon="12.265344301987463"><ele>38.0</ele><time>2026-05-01T11:02:04Z</time></trkpt><trkpt lat="45.74939852945241" lon="12.265779484250123"><ele>37.0</ele><time>2026-05-01T11:02:05Z</time></trkpt><trkpt lat="45.74937061002792" lon="12.266222265614044"><ele>36.0</ele><time>2026-05-01T11:02:06Z</time></trkpt><trkpt lat="45.74934368786285" lon="12.266669330514986"><ele>36.0</ele><time>2026-05-01T11:02:07Z</time></trkpt><trkpt lat="45.74931929307884" lon="12.267124598493686"><ele>36.0</ele><time>2026-05-01T11:02:08Z</time></trkpt><trkpt lat="45.74929642047041" lon="12.267581342552258"><ele>37.0</ele><time>2026-05-01T11:02:09Z</time></trkpt><trkpt lat="45.74927518180676" lon="12.268045179913456"><ele>38.0</ele><time>2026-05-01T11:02:10Z</time></trkpt><trkpt lat="45.749254727418474" lon="12.268511104886063"><ele>36.0</ele><time>2026-05-01T11:02:11Z</time></trkpt><trkpt lat="45.74923127186026" lon="12.268977603019465"><ele>34.0</ele><time>2026-05-01T11:02:12Z</time></trkpt><trkpt lat="45.74920724051037" lon="12.269450419103336"><ele>35.5</ele><time>2026-05-01T11:02:13Z</time></trkpt><trkpt lat="45.749183792411124" lon="12.269923065082436"><ele>37.0</ele><time>2026-05-01T11:02:14Z</time></trkpt><trkpt lat="45.74916015687212" lon="12.270392196599753"><ele>37.5</ele><time>2026-05-01T11:02:15Z</time></trkpt><trkpt lat="45.74914084385146" lon="12.270859753882657"><ele>38.0</ele><time>2026-05-01T11:02:16Z</time></trkpt><trkpt lat="45.749129449309144" lon="12.271324900548993"><ele>38.5</ele><time>2026-05-01T11:02:17Z</time></trkpt><trkpt lat="45.74913684652751" lon="12.271786312156618"><ele>39.0</ele><time>2026-05-01T11:02:18Z</time></trkpt><trkpt lat="45.749159289839305" lon="12.272250703779056"><ele>40.0</ele><time>2026-05-01T11:02:19Z</time></trkpt><trkpt lat="45.749201659978915" lon="12.272710464120888"><ele>41.0</ele><time>2026-05-01T11:02:20Z</time></trkpt><trkpt lat="45.749256902866115" lon="12.273169985017214"><ele>39.5</ele><time>2026-05-01T11:02:21Z</time></trkpt><trkpt lat="45.749326525750675" lon="12.27362295276534"><ele>38.0</ele><time>2026-05-01T11:02:22Z</time></trkpt><trkpt lat="45.74940887767823" lon="12.2740685258171"><ele>38.0</ele><time>2026-05-01T11:02:23Z</time></trkpt><trkpt lat="45.7494851244429" lon="12.274480129626157"><ele>38.0</ele><time>2026-05-01T11:02:24Z</time></trkpt><trkpt lat="45.749552984953766" lon="12.274870403017477"><ele>37.5</ele><time>2026-05-01T11:02:25Z</time></trkpt><trkpt lat="45.749605443892726" lon="12.275257363917234"><ele>37.0</ele><time>2026-05-01T11:02:26Z</time></trkpt><trkpt lat="45.74963024694056" lon="12.275633171337347"><ele>37.0</ele><time>2026-05-01T11:02:27Z</time></trkpt><trkpt lat="45.74962232591248" lon="12.275992933825899"><ele>37.0</ele><time>2026-05-01T11:02:28Z</time></trkpt><trkpt lat="45.74958832539253" lon="12.27634068123962"><ele>37.0</ele><time>2026-05-01T11:02:29Z</time></trkpt><trkpt lat="45.749532403954" lon="12.276687432480674"><ele>37.0</ele><time>2026-05-01T11:02:30Z</time></trkpt><trkpt lat="45.749458293917" lon="12.277024591362448"><ele>37.0</ele><time>2026-05-01T11:02:31Z</time></trkpt><trkpt lat="45.74937421362043" lon="12.277342909653107"><ele>37.0</ele><time>2026-05-01T11:02:32Z</time></trkpt><trkpt lat="45.74928055862499" lon="12.277639202557552"><ele>37.0</ele><time>2026-05-01T11:02:33Z</time></trkpt><trkpt lat="45.74918864250575" lon="12.277923012010508"><ele>37.0</ele><time>2026-05-01T11:02:34Z</time></trkpt><trkpt lat="45.7491143508646" lon="12.278203829661631"><ele>37.0</ele><time>2026-05-01T11:02:35Z</time></trkpt><trkpt lat="45.749064049718996" lon="12.27848399858322"><ele>37.333333333333336</ele><time>2026-05-01T11:02:36Z</time></trkpt><trkpt lat="45.74904659430505" lon="12.278765880511813"><ele>37.666666666666664</ele><time>2026-05-01T11:02:37Z</time></trkpt><trkpt lat="45.749062703535635" lon="12.279049732528536"><ele>38.0</ele><time>2026-05-01T11:02:38Z</time></trkpt><trkpt lat="45.749105198027806" lon="12.279334179940804"><ele>38.0</ele><time>2026-05-01T11:02:39Z</time></trkpt><trkpt lat="45.74917570646038" lon="12.27960638276835"><ele>38.0</ele><time>2026-05-01T11:02:40Z</time></trkpt><trkpt lat="45.749279020935674" lon="12.27985096564463"><ele>38.0</ele><time>2026-05-01T11:02:41Z</time></trkpt><trkpt lat="45.74940780124769" lon="12.280065247876228"><ele>38.0</ele><time>2026-05-01T11:02:42Z</time></trkpt><trkpt lat="45.74954979876625" lon="12.280255357107139"><ele>38.0</ele><time>2026-05-01T11:02:43Z</time></trkpt><trkpt lat="45.749723402624" lon="12.280400768406873"><ele>38.0</ele><time>2026-05-01T11:02:44Z</time></trkpt><trkpt lat="45.74989263904333" lon="12.280491219421812"><ele>38.0</ele><time>2026-05-01T11:02:45Z</time></trkpt><trkpt lat="45.75008637550335" lon="12.280554234323729"><ele>38.0</ele><time>2026-05-01T11:02:46Z</time></trkpt><trkpt lat="45.750282356226556" lon="12.280581148740714"><ele>38.0</ele><time>2026-05-01T11:02:47Z</time></trkpt><trkpt lat="45.750479975912" lon="12.280560307746262"><ele>37.666666666666664</ele><time>2026-05-01T11:02:48Z</time></trkpt><trkpt lat="45.750673018750504" lon="12.280491360549654"><ele>37.333333333333336</ele><time>2026-05-01T11:02:49Z</time></trkpt><trkpt lat="45.750852911127865" lon="12.28038669032971"><ele>37.0</ele><time>2026-05-01T11:02:50Z</time></trkpt><trkpt lat="45.751026607389804" lon="12.280236416434954"><ele>37.0</ele><time>2026-05-01T11:02:51Z</time></trkpt><trkpt lat="45.75119546569624" lon="12.280064958027056"><ele>37.0</ele><time>2026-05-01T11:02:52Z</time></trkpt><trkpt lat="45.75135539974693" lon="12.27987496615341"><ele>37.0</ele><time>2026-05-01T11:02:53Z</time></trkpt><trkpt lat="45.751504507680714" lon="12.279677812895786"><ele>37.0</ele><time>2026-05-01T11:02:54Z</time></trkpt><trkpt lat="45.751662837223556" lon="12.279491589592315"><ele>37.0</ele><time>2026-05-01T11:02:55Z</time></trkpt><trkpt lat="45.75183718517078" lon="12.279335065725782"><ele>37.0</ele><time>2026-05-01T11:02:56Z</time></trkpt><trkpt lat="45.75203247486315" lon="12.279217072453545"><ele>37.0</ele><time>2026-05-01T11:02:57Z</time></trkpt><trkpt lat="45.752245842684445" lon="12.279126430672255"><ele>37.0</ele><time>2026-05-01T11:02:58Z</time></trkpt><trkpt lat="45.75247403064829" lon="12.279050631775926"><ele>37.5</ele><time>2026-05-01T11:02:59Z</time></trkpt><trkpt lat="45.75271275657714" lon="12.278979952612717"><ele>38.0</ele><time>2026-05-01T11:03:00Z</time></trkpt><trkpt lat="45.75296244114205" lon="12.278909674523904"><ele>38.5</ele><time>2026-05-01T11:03:01Z</time></trkpt><trkpt lat="45.75322540004758" lon="12.278844753952718"><ele>39.0</ele><time>2026-05-01T11:03:02Z</time></trkpt><trkpt lat="45.75349658696259" lon="12.278787386154296"><ele>39.0</ele><time>2026-05-01T11:03:03Z</time></trkpt><trkpt lat="45.75377464111797" lon="12.278741058983726"><ele>39.0</ele><time>2026-05-01T11:03:04Z</time></trkpt><trkpt lat="45.75405845024892" lon="12.27870077886428"><ele>39.0</ele><time>2026-05-01T11:03:05Z</time></trkpt><trkpt lat="45.75435178209885" lon="12.278668444075716"><ele>39.0</ele><time>2026-05-01T11:03:06Z</time></trkpt><trkpt lat="45.754651576612346" lon="12.278646102997282"><ele>39.0</ele><time>2026-05-01T11:03:07Z</time></trkpt><trkpt lat="45.75495722311234" lon="12.278636488698387"><ele>39.0</ele><time>2026-05-01T11:03:08Z</time></trkpt><trkpt lat="45.75526819164184" lon="12.278642220015003"><ele>40.0</ele><time>2026-05-01T11:03:09Z</time></trkpt><trkpt lat="45.755585553995424" lon="12.278659941286751"><ele>41.0</ele><time>2026-05-01T11:03:10Z</time></trkpt><trkpt lat="45.755908309338466" lon="12.278685965444065"><ele>41.5</ele><time>2026-05-01T11:03:11Z</time></trkpt><trkpt lat="45.75623457014224" lon="12.278720688391715"><ele>42.0</ele><time>2026-05-01T11:03:12Z</time></trkpt><trkpt lat="45.75656594739413" lon="12.278768598809778"><ele>42.5</ele><time>2026-05-01T11:03:13Z</time></trkpt><trkpt lat="45.75690156462324" lon="12.27883180720064"><ele>43.0</ele><time>2026-05-01T11:03:14Z</time></trkpt><trkpt lat="45.75723905569682" lon="12.27890982996598"><ele>43.0</ele><time>2026-05-01T11:03:15Z</time></trkpt><trkpt lat="45.75757439594285" lon="12.279001557093192"><ele>43.0</ele><time>2026-05-01T11:03:16Z</time></trkpt><trkpt lat="45.75790881147832" lon="12.279102969703418"><ele>43.0</ele><time>2026-05-01T11:03:17Z</time></trkpt><trkpt lat="45.758241838938325" lon="12.279219824951706"><ele>43.0</ele><time>2026-05-01T11:03:18Z</time></trkpt><trkpt lat="45.75857219048848" lon="12.279353222609323"><ele>43.0</ele><time>2026-05-01T11:03:19Z</time></trkpt><trkpt lat="45.75890207336384" lon="12.279490746751987"><ele>43.0</ele><time>2026-05-01T11:03:20Z</time></trkpt><trkpt lat="45.75922926775136" lon="12.279629068700162"><ele>43.5</ele><time>2026-05-01T11:03:21Z</time></trkpt><trkpt lat="45.759555542403696" lon="12.27976842279613"><ele>44.0</ele><time>2026-05-01T11:03:22Z</time></trkpt><trkpt lat="45.75988316207414" lon="12.279906483105513"><ele>43.5</ele><time>2026-05-01T11:03:23Z</time></trkpt><trkpt lat="45.76020838588459" lon="12.280047863692596"><ele>43.0</ele><time>2026-05-01T11:03:24Z</time></trkpt><trkpt lat="45.760535203769365" lon="12.280187129589574"><ele>43.0</ele><time>2026-05-01T11:03:25Z</time></trkpt><trkpt lat="45.76086179142249" lon="12.280323624770478"><ele>43.0</ele><time>2026-05-01T11:03:26Z</time></trkpt><trkpt lat="45.76118765798509" lon="12.280457216679704"><ele>42.0</ele><time>2026-05-01T11:03:27Z</time></trkpt><trkpt lat="45.761514708684466" lon="12.280589741141616"><ele>41.0</ele><time>2026-05-01T11:03:28Z</time></trkpt><trkpt lat="45.761840970366656" lon="12.28072346715739"><ele>41.5</ele><time>2026-05-01T11:03:29Z</time></trkpt><trkpt lat="45.76216782181684" lon="12.280863981357687"><ele>42.0</ele><time>2026-05-01T11:03:30Z</time></trkpt><trkpt lat="45.762493401743725" lon="12.281005484798037"><ele>42.0</ele><time>2026-05-01T11:03:31Z</time></trkpt><trkpt lat="45.76281863967828" lon="12.281145739406394"><ele>42.0</ele><time>2026-05-01T11:03:32Z</time></trkpt><trkpt lat="45.76314493302708" lon="12.281282178782726"><ele>42.0</ele><time>2026-05-01T11:03:33Z</time></trkpt><trkpt lat="45.763472145024366" lon="12.281418508530264"><ele>42.0</ele><time>2026-05-01T11:03:34Z</time></trkpt><trkpt lat="45.763798513630334" lon="12.281555338549756"><ele>42.0</ele><time>2026-05-01T11:03:35Z</time></trkpt><trkpt lat="45.76412428700861" lon="12.281692971919927"><ele>42.0</ele><time>2026-05-01T11:03:36Z</time></trkpt><trkpt lat="45.76445006007546" lon="12.28182946218773"><ele>42.0</ele><time>2026-05-01T11:03:37Z</time></trkpt><trkpt lat="45.76477636036539" lon="12.281969565812956"><ele>42.0</ele><time>2026-05-01T11:03:38Z</time></trkpt><trkpt lat="45.76510179463787" lon="12.282111185789116"><ele>42.0</ele><time>2026-05-01T11:03:39Z</time></trkpt><trkpt lat="45.76542814083619" lon="12.282250701528108"><ele>42.0</ele><time>2026-05-01T11:03:40Z</time></trkpt><trkpt lat="45.765755596334735" lon="12.282389960885943"><ele>41.5</ele><time>2026-05-01T11:03:41Z</time></trkpt><trkpt lat="45.76608300677336" lon="12.282532754397351"><ele>41.0</ele><time>2026-05-01T11:03:42Z</time></trkpt><trkpt lat="45.766407010434015" lon="12.282679646552708"><ele>41.0</ele><time>2026-05-01T11:03:43Z</time></trkpt><trkpt lat="45.766733236084995" lon="12.282828447704466"><ele>41.0</ele><time>2026-05-01T11:03:44Z</time></trkpt><trkpt lat="45.76705801011653" lon="12.282978161246074"><ele>41.5</ele><time>2026-05-01T11:03:45Z</time></trkpt><trkpt lat="45.767382466891085" lon="12.283130471159728"><ele>42.0</ele><time>2026-05-01T11:03:46Z</time></trkpt><trkpt lat="45.767705315186184" lon="12.283285264631104"><ele>40.5</ele><time>2026-05-01T11:03:47Z</time></trkpt><trkpt lat="45.768029495321215" lon="12.2834402538307"><ele>39.0</ele><time>2026-05-01T11:03:48Z</time></trkpt><trkpt lat="45.768352433184745" lon="12.283598164829831"><ele>41.5</ele><time>2026-05-01T11:03:49Z</time></trkpt><trkpt lat="45.76867524202619" lon="12.28376042222694"><ele>44.0</ele><time>2026-05-01T11:03:50Z</time></trkpt><trkpt lat="45.768996816924364" lon="12.283925805792625"><ele>44.0</ele><time>2026-05-01T11:03:51Z</time></trkpt><trkpt lat="45.769318202698415" lon="12.284091880008733"><ele>44.0</ele><time>2026-05-01T11:03:52Z</time></trkpt><trkpt lat="45.7696399458181" lon="12.284258816071192"><ele>44.0</ele><time>2026-05-01T11:03:53Z</time></trkpt><trkpt lat="45.76996122109298" lon="12.284426729814097"><ele>44.0</ele><time>2026-05-01T11:03:54Z</time></trkpt><trkpt lat="45.770283399468624" lon="12.28459996207969"><ele>44.0</ele><time>2026-05-01T11:03:55Z</time></trkpt><trkpt lat="45.770603558858134" lon="12.284773299064998"><ele>44.0</ele><time>2026-05-01T11:03:56Z</time></trkpt><trkpt lat="45.77092233860877" lon="12.284948362694626"><ele>44.5</ele><time>2026-05-01T11:03:56.999Z</time></trkpt><trkpt lat="45.77124124747401" lon="12.285120043699862"><ele>45.0</ele><time>2026-05-01T11:03:57.999Z</time></trkpt><trkpt lat="45.77156064545971" lon="12.285293108255363"><ele>44.5</ele><time>2026-05-01T11:03:58.999Z</time></trkpt><trkpt lat="45.77187950376084" lon="12.285467034243686"><ele>44.0</ele><time>2026-05-01T11:03:59.999Z</time></trkpt><trkpt lat="45.77219792020318" lon="12.285641961121923"><ele>45.0</ele><time>2026-05-01T11:04:00.999Z</time></trkpt><trkpt lat="45.77251418252725" lon="12.285814632618282"><ele>46.0</ele><time>2026-05-01T11:04:01.999Z</time></trkpt><trkpt lat="45.77283252441395" lon="12.285981642760058"><ele>46.0</ele><time>2026-05-01T11:04:03Z</time></trkpt><trkpt lat="45.77315447579319" lon="12.286142391568646"><ele>46.0</ele><time>2026-05-01T11:04:04Z</time></trkpt><trkpt lat="45.77347868753922" lon="12.286294936219882"><ele>45.5</ele><time>2026-05-01T11:04:05Z</time></trkpt><trkpt lat="45.77380344056559" lon="12.286439009317748"><ele>45.0</ele><time>2026-05-01T11:04:06Z</time></trkpt><trkpt lat="45.774129493815046" lon="12.286570269409898"><ele>44.5</ele><time>2026-05-01T11:04:07Z</time></trkpt><trkpt lat="45.77445523157318" lon="12.28669302836984"><ele>44.0</ele><time>2026-05-01T11:04:08Z</time></trkpt><trkpt lat="45.7747866069231" lon="12.286810232219192"><ele>44.0</ele><time>2026-05-01T11:04:09Z</time></trkpt><trkpt lat="45.7751166424169" lon="12.286921851099544"><ele>44.0</ele><time>2026-05-01T11:04:10Z</time></trkpt><trkpt lat="45.775449937764066" lon="12.287024817629858"><ele>45.5</ele><time>2026-05-01T11:04:11Z</time></trkpt><trkpt lat="45.77578439259494" lon="12.287115590750544"><ele>47.0</ele><time>2026-05-01T11:04:12Z</time></trkpt><trkpt lat="45.776121903360675" lon="12.287198710639542"><ele>46.5</ele><time>2026-05-01T11:04:13Z</time></trkpt><trkpt lat="45.776460764925616" lon="12.28727228333"><ele>46.0</ele><time>2026-05-01T11:04:14Z</time></trkpt><trkpt lat="45.77680116316046" lon="12.287340056700227"><ele>44.5</ele><time>2026-05-01T11:04:15Z</time></trkpt><trkpt lat="45.77714118807319" lon="12.287404422128544"><ele>43.0</ele><time>2026-05-01T11:04:16Z</time></trkpt><trkpt lat="45.77748074182089" lon="12.287471427321968"><ele>43.5</ele><time>2026-05-01T11:04:17Z</time></trkpt><trkpt lat="45.77782164392967" lon="12.287537362327434"><ele>44.0</ele><time>2026-05-01T11:04:18Z</time></trkpt><trkpt lat="45.778159233129365" lon="12.287604043340774"><ele>44.0</ele><time>2026-05-01T11:04:19Z</time></trkpt><trkpt lat="45.77849729945127" lon="12.287668572262698"><ele>44.0</ele><time>2026-05-01T11:04:20Z</time></trkpt><trkpt lat="45.77883592777505" lon="12.287730622205942"><ele>44.0</ele><time>2026-05-01T11:04:21Z</time></trkpt><trkpt lat="45.77917424241617" lon="12.287789897808592"><ele>44.0</ele><time>2026-05-01T11:04:22Z</time></trkpt><trkpt lat="45.77951580054263" lon="12.287852534533943"><ele>44.5</ele><time>2026-05-01T11:04:23Z</time></trkpt><trkpt lat="45.779854349939896" lon="12.287918020364014"><ele>45.0</ele><time>2026-05-01T11:04:24Z</time></trkpt><trkpt lat="45.780192921491945" lon="12.287984433304256"><ele>45.0</ele><time>2026-05-01T11:04:25Z</time></trkpt><trkpt lat="45.78053100552391" lon="12.288053731442888"><ele>45.0</ele><time>2026-05-01T11:04:26Z</time></trkpt><trkpt lat="45.78086991308794" lon="12.288124692184091"><ele>46.5</ele><time>2026-05-01T11:04:27Z</time></trkpt><trkpt lat="45.781203764826344" lon="12.288203350317254"><ele>48.0</ele><time>2026-05-01T11:04:28Z</time></trkpt><trkpt lat="45.78153678260686" lon="12.288293618522168"><ele>48.0</ele><time>2026-05-01T11:04:29Z</time></trkpt><trkpt lat="45.7818698857103" lon="12.288395038045772"><ele>48.0</ele><time>2026-05-01T11:04:30Z</time></trkpt><trkpt lat="45.78220216399409" lon="12.288510209819606"><ele>48.0</ele><time>2026-05-01T11:04:31Z</time></trkpt><trkpt lat="45.78252784578079" lon="12.288634828185705"><ele>48.0</ele><time>2026-05-01T11:04:32Z</time></trkpt><trkpt lat="45.78285445400789" lon="12.288772431147846"><ele>48.5</ele><time>2026-05-01T11:04:33Z</time></trkpt><trkpt lat="45.78318079152019" lon="12.28892279540758"><ele>49.0</ele><time>2026-05-01T11:04:34Z</time></trkpt><trkpt lat="45.7835017026169" lon="12.28908597302328"><ele>49.5</ele><time>2026-05-01T11:04:35Z</time></trkpt><trkpt lat="45.78381708035688" lon="12.289263181677356"><ele>50.0</ele><time>2026-05-01T11:04:36Z</time></trkpt><trkpt lat="45.78413276291669" lon="12.28944718917416"><ele>50.5</ele><time>2026-05-01T11:04:37Z</time></trkpt><trkpt lat="45.7844491391487" lon="12.289634203488667"><ele>51.0</ele><time>2026-05-01T11:04:38Z</time></trkpt><trkpt lat="45.784762491175215" lon="12.289827505018328"><ele>50.0</ele><time>2026-05-01T11:04:39Z</time></trkpt><trkpt lat="45.78507427797701" lon="12.290025048179011"><ele>49.0</ele><time>2026-05-01T11:04:40Z</time></trkpt><trkpt lat="45.78538318763983" lon="12.290224235889458"><ele>49.0</ele><time>2026-05-01T11:04:41Z</time></trkpt><trkpt lat="45.785691999271485" lon="12.290423367870089"><ele>49.0</ele><time>2026-05-01T11:04:42Z</time></trkpt><trkpt lat="45.786002936005346" lon="12.290621076980766"><ele>50.5</ele><time>2026-05-01T11:04:43Z</time></trkpt><trkpt lat="45.786312061667296" lon="12.290816288672405"><ele>52.0</ele><time>2026-05-01T11:04:44Z</time></trkpt><trkpt lat="45.786626611101795" lon="12.29101262318364"><ele>51.0</ele><time>2026-05-01T11:04:45Z</time></trkpt><trkpt lat="45.78693905589762" lon="12.291210086790798"><ele>50.0</ele><time>2026-05-01T11:04:46Z</time></trkpt><trkpt lat="45.787251145310364" lon="12.291408113086305"><ele>50.5</ele><time>2026-05-01T11:04:47Z</time></trkpt><trkpt lat="45.78756321896334" lon="12.291606044296984"><ele>51.0</ele><time>2026-05-01T11:04:48Z</time></trkpt><trkpt lat="45.787876827395436" lon="12.291803179147239"><ele>49.0</ele><time>2026-05-01T11:04:49Z</time></trkpt><trkpt lat="45.78819160250972" lon="12.29199852407133"><ele>47.0</ele><time>2026-05-01T11:04:50Z</time></trkpt><trkpt lat="45.78850686846759" lon="12.292192797070811"><ele>47.5</ele><time>2026-05-01T11:04:51Z</time></trkpt><trkpt lat="45.78882245792662" lon="12.292389534258103"><ele>48.0</ele><time>2026-05-01T11:04:52Z</time></trkpt><trkpt lat="45.789134926332714" lon="12.292587930442625"><ele>46.5</ele><time>2026-05-01T11:04:53Z</time></trkpt><trkpt lat="45.78944812818575" lon="12.292789793140637"><ele>45.0</ele><time>2026-05-01T11:04:54Z</time></trkpt><trkpt lat="45.78976017420423" lon="12.292990335987492"><ele>45.5</ele><time>2026-05-01T11:04:55Z</time></trkpt><trkpt lat="45.790073137139096" lon="12.293188274105148"><ele>46.0</ele><time>2026-05-01T11:04:56Z</time></trkpt><trkpt lat="45.79038415741679" lon="12.293385201963877"><ele>46.0</ele><time>2026-05-01T11:04:57Z</time></trkpt><trkpt lat="45.79069717864922" lon="12.293584447683362"><ele>46.0</ele><time>2026-05-01T11:04:58Z</time></trkpt><trkpt lat="45.79100886110194" lon="12.293783479265807"><ele>45.5</ele><time>2026-05-01T11:04:59Z</time></trkpt><trkpt lat="45.79132184880931" lon="12.293981978052974"><ele>45.0</ele><time>2026-05-01T11:05:00Z</time></trkpt><trkpt lat="45.79163444331271" lon="12.294178970637331"><ele>44.5</ele><time>2026-05-01T11:05:01Z</time></trkpt><trkpt lat="45.7919482387527" lon="12.294375083445265"><ele>44.0</ele><time>2026-05-01T11:05:02Z</time></trkpt><trkpt lat="45.79226127512643" lon="12.294572220513617"><ele>44.5</ele><time>2026-05-01T11:05:03Z</time></trkpt><trkpt lat="45.79257426865154" lon="12.294769034712923"><ele>45.0</ele><time>2026-05-01T11:05:04Z</time></trkpt><trkpt lat="45.79288687909785" lon="12.294965244226916"><ele>46.0</ele><time>2026-05-01T11:05:05Z</time></trkpt><trkpt lat="45.79319954958536" lon="12.295162910156717"><ele>47.0</ele><time>2026-05-01T11:05:06Z</time></trkpt><trkpt lat="45.79351416056501" lon="12.295363031643229"><ele>48.5</ele><time>2026-05-01T11:05:07Z</time></trkpt><trkpt lat="45.79382614826858" lon="12.295563110231667"><ele>50.0</ele><time>2026-05-01T11:05:08Z</time></trkpt><trkpt lat="45.79413694678345" lon="12.295765090288445"><ele>50.5</ele><time>2026-05-01T11:05:09Z</time></trkpt><trkpt lat="45.794448659375554" lon="12.2959668939452"><ele>51.0</ele><time>2026-05-01T11:05:10Z</time></trkpt><trkpt lat="45.79476046967356" lon="12.296167676271676"><ele>51.0</ele><time>2026-05-01T11:05:11Z</time></trkpt><trkpt lat="45.79507448147282" lon="12.296366267499286"><ele>51.0</ele><time>2026-05-01T11:05:12Z</time></trkpt><trkpt lat="45.79538676440343" lon="12.296561933002105"><ele>50.5</ele><time>2026-05-01T11:05:13Z</time></trkpt><trkpt lat="45.7956995605771" lon="12.296756480289764"><ele>50.0</ele><time>2026-05-01T11:05:14Z</time></trkpt><trkpt lat="45.79601228963569" lon="12.296951376511997"><ele>50.0</ele><time>2026-05-01T11:05:15Z</time></trkpt><trkpt lat="45.79632438318243" lon="12.297148607500505"><ele>50.0</ele><time>2026-05-01T11:05:16Z</time></trkpt><trkpt lat="45.79663713568068" lon="12.297346028965725"><ele>50.0</ele><time>2026-05-01T11:05:17Z</time></trkpt><trkpt lat="45.796950054411184" lon="12.297544219794627"><ele>50.0</ele><time>2026-05-01T11:05:18Z</time></trkpt><trkpt lat="45.79726257672087" lon="12.297744462040312"><ele>50.0</ele><time>2026-05-01T11:05:19Z</time></trkpt><trkpt lat="45.79757526419023" lon="12.297944759653214"><ele>50.0</ele><time>2026-05-01T11:05:20Z</time></trkpt><trkpt lat="45.797886860329605" lon="12.298144700914092"><ele>50.5</ele><time>2026-05-01T11:05:21Z</time></trkpt><trkpt lat="45.79819861298325" lon="12.298344746940511"><ele>51.0</ele><time>2026-05-01T11:05:22Z</time></trkpt><trkpt lat="45.798511054407484" lon="12.298543138735033"><ele>51.0</ele><time>2026-05-01T11:05:23Z</time></trkpt><trkpt lat="45.79882201788813" lon="12.298742230198489"><ele>51.0</ele><time>2026-05-01T11:05:24Z</time></trkpt><trkpt lat="45.799132104055744" lon="12.298942510980655"><ele>50.5</ele><time>2026-05-01T11:05:25Z</time></trkpt><trkpt lat="45.79944372681282" lon="12.299140591731504"><ele>50.0</ele><time>2026-05-01T11:05:26Z</time></trkpt><trkpt lat="45.799755589568974" lon="12.299340297014778"><ele>50.0</ele><time>2026-05-01T11:05:27Z</time></trkpt><trkpt lat="45.80006709923704" lon="12.299540783947569"><ele>50.0</ele><time>2026-05-01T11:05:28Z</time></trkpt><trkpt lat="45.800378973338844" lon="12.299743085979307"><ele>49.5</ele><time>2026-05-01T11:05:29Z</time></trkpt><trkpt lat="45.80069223489531" lon="12.299944525474553"><ele>49.0</ele><time>2026-05-01T11:05:30Z</time></trkpt><trkpt lat="45.80100237926625" lon="12.300144244249285"><ele>49.0</ele><time>2026-05-01T11:05:31Z</time></trkpt><trkpt lat="45.801313946035386" lon="12.300345251056092"><ele>49.0</ele><time>2026-05-01T11:05:32Z</time></trkpt><trkpt lat="45.80162463352899" lon="12.300545635417631"><ele>49.0</ele><time>2026-05-01T11:05:33Z</time></trkpt><trkpt lat="45.80193593409417" lon="12.300745711040515"><ele>49.0</ele><time>2026-05-01T11:05:34Z</time></trkpt><trkpt lat="45.80224856190704" lon="12.300944558592551"><ele>49.0</ele><time>2026-05-01T11:05:35Z</time></trkpt><trkpt lat="45.802559601592634" lon="12.3011449624238"><ele>49.0</ele><time>2026-05-01T11:05:36Z</time></trkpt><trkpt lat="45.80286814368116" lon="12.301342708895396"><ele>48.5</ele><time>2026-05-01T11:05:37Z</time></trkpt><trkpt lat="45.80317930330252" lon="12.301538485246382"><ele>48.0</ele><time>2026-05-01T11:05:38Z</time></trkpt><trkpt lat="45.803489812611936" lon="12.301733761517312"><ele>48.5</ele><time>2026-05-01T11:05:39Z</time></trkpt><trkpt lat="45.80380074550522" lon="12.30192953119685"><ele>49.0</ele><time>2026-05-01T11:05:40Z</time></trkpt><trkpt lat="45.80411368562532" lon="12.302127469333126"><ele>48.5</ele><time>2026-05-01T11:05:41Z</time></trkpt><trkpt lat="45.804422415626036" lon="12.302327248407646"><ele>48.0</ele><time>2026-05-01T11:05:42Z</time></trkpt><trkpt lat="45.804731172437634" lon="12.30252448462937"><ele>48.0</ele><time>2026-05-01T11:05:43Z</time></trkpt><trkpt lat="45.80504188400254" lon="12.302720613468397"><ele>48.0</ele><time>2026-05-01T11:05:44Z</time></trkpt><trkpt lat="45.80535395250998" lon="12.302917574747658"><ele>47.0</ele><time>2026-05-01T11:05:45Z</time></trkpt><trkpt lat="45.805664840390065" lon="12.303115964401778"><ele>46.0</ele><time>2026-05-01T11:05:46Z</time></trkpt><trkpt lat="45.805978891856036" lon="12.30331190354884"><ele>46.5</ele><time>2026-05-01T11:05:47Z</time></trkpt><trkpt lat="45.80629285824121" lon="12.30350961380481"><ele>47.0</ele><time>2026-05-01T11:05:48Z</time></trkpt><trkpt lat="45.806605859724904" lon="12.303709529457404"><ele>47.0</ele><time>2026-05-01T11:05:49Z</time></trkpt><trkpt lat="45.80691675453594" lon="12.303909288901876"><ele>47.0</ele><time>2026-05-01T11:05:50Z</time></trkpt><trkpt lat="45.80722783151886" lon="12.304111774467312"><ele>47.5</ele><time>2026-05-01T11:05:51Z</time></trkpt><trkpt lat="45.807539066475066" lon="12.304317267943114"><ele>48.0</ele><time>2026-05-01T11:05:52Z</time></trkpt><trkpt lat="45.807848837237614" lon="12.304526803466919"><ele>48.5</ele><time>2026-05-01T11:05:53Z</time></trkpt><trkpt lat="45.808157516538955" lon="12.304738281377832"><ele>49.0</ele><time>2026-05-01T11:05:54Z</time></trkpt><trkpt lat="45.80846637406542" lon="12.304954601725179"><ele>48.0</ele><time>2026-05-01T11:05:55Z</time></trkpt><trkpt lat="45.80877220471047" lon="12.305171662377953"><ele>47.0</ele><time>2026-05-01T11:05:56Z</time></trkpt><trkpt lat="45.809077910646174" lon="12.305390341342639"><ele>48.0</ele><time>2026-05-01T11:05:57Z</time></trkpt><trkpt lat="45.809382905487816" lon="12.305612436281413"><ele>49.0</ele><time>2026-05-01T11:05:58Z</time></trkpt><trkpt lat="45.80968688400933" lon="12.305836724849426"><ele>49.0</ele><time>2026-05-01T11:05:59Z</time></trkpt><trkpt lat="45.80998937844195" lon="12.306064989703083"><ele>49.0</ele><time>2026-05-01T11:06:00Z</time></trkpt><trkpt lat="45.81028734798125" lon="12.306299354012125"><ele>47.5</ele><time>2026-05-01T11:06:01Z</time></trkpt><trkpt lat="45.8105841755931" lon="12.306539414267627"><ele>46.0</ele><time>2026-05-01T11:06:02Z</time></trkpt><trkpt lat="45.81088007151236" lon="12.306783060002312"><ele>46.5</ele><time>2026-05-01T11:06:03Z</time></trkpt><trkpt lat="45.81117622414056" lon="12.307029934274665"><ele>47.0</ele><time>2026-05-01T11:06:04Z</time></trkpt><trkpt lat="45.81147142838428" lon="12.30727693170077"><ele>47.5</ele><time>2026-05-01T11:06:05Z</time></trkpt><trkpt lat="45.811765915537606" lon="12.307527222770416"><ele>48.0</ele><time>2026-05-01T11:06:06Z</time></trkpt><trkpt lat="45.81206094230961" lon="12.307780635188555"><ele>48.0</ele><time>2026-05-01T11:06:07Z</time></trkpt><trkpt lat="45.81235241510014" lon="12.30803658978616"><ele>48.0</ele><time>2026-05-01T11:06:07.999Z</time></trkpt><trkpt lat="45.81264285277569" lon="12.308294456659537"><ele>47.0</ele><time>2026-05-01T11:06:09Z</time></trkpt><trkpt lat="45.812931494004026" lon="12.308556363987181"><ele>46.0</ele><time>2026-05-01T11:06:10Z</time></trkpt><trkpt lat="45.81321795538547" lon="12.308821700978887"><ele>47.5</ele><time>2026-05-01T11:06:11Z</time></trkpt><trkpt lat="45.81350348651969" lon="12.309088062681656"><ele>49.0</ele><time>2026-05-01T11:06:12Z</time></trkpt><trkpt lat="45.813788857513586" lon="12.30935375992029"><ele>49.0</ele><time>2026-05-01T11:06:13Z</time></trkpt><trkpt lat="45.81407436634436" lon="12.309620840579896"><ele>49.0</ele><time>2026-05-01T11:06:14Z</time></trkpt><trkpt lat="45.81436207786544" lon="12.309885287070939"><ele>47.5</ele><time>2026-05-01T11:06:15Z</time></trkpt><trkpt lat="45.81464951160081" lon="12.310150105540698"><ele>46.0</ele><time>2026-05-01T11:06:16Z</time></trkpt><trkpt lat="45.814938722608495" lon="12.310414135335051"><ele>46.5</ele><time>2026-05-01T11:06:17Z</time></trkpt><trkpt lat="45.815225649740555" lon="12.310678761633929"><ele>47.0</ele><time>2026-05-01T11:06:18Z</time></trkpt><trkpt lat="45.81550922451963" lon="12.310944950917186"><ele>47.0</ele><time>2026-05-01T11:06:19Z</time></trkpt><trkpt lat="45.815791804259156" lon="12.311211579341414"><ele>47.0</ele><time>2026-05-01T11:06:20Z</time></trkpt><trkpt lat="45.816075305473014" lon="12.311478248924875"><ele>47.0</ele><time>2026-05-01T11:06:21Z</time></trkpt><trkpt lat="45.81636259623525" lon="12.311741760771708"><ele>47.0</ele><time>2026-05-01T11:06:22Z</time></trkpt><trkpt lat="45.816648574061716" lon="12.312004121553729"><ele>48.0</ele><time>2026-05-01T11:06:23Z</time></trkpt><trkpt lat="45.816938545230194" lon="12.312261316957521"><ele>49.0</ele><time>2026-05-01T11:06:24Z</time></trkpt><trkpt lat="45.81723074572103" lon="12.312509788994774"><ele>49.0</ele><time>2026-05-01T11:06:25Z</time></trkpt><trkpt lat="45.81752799796714" lon="12.312749664635035"><ele>49.0</ele><time>2026-05-01T11:06:26Z</time></trkpt><trkpt lat="45.81783082949963" lon="12.312977113394638"><ele>48.5</ele><time>2026-05-01T11:06:27Z</time></trkpt><trkpt lat="45.81813808870565" lon="12.31319102522799"><ele>48.0</ele><time>2026-05-01T11:06:28Z</time></trkpt><trkpt lat="45.8184464508938" lon="12.313398836151332"><ele>47.5</ele><time>2026-05-01T11:06:29Z</time></trkpt><trkpt lat="45.81875823472434" lon="12.31359648398945"><ele>47.0</ele><time>2026-05-01T11:06:30Z</time></trkpt><trkpt lat="45.81907267156278" lon="12.31378397769931"><ele>46.0</ele><time>2026-05-01T11:06:31Z</time></trkpt><trkpt lat="45.81939363865079" lon="12.313956044983625"><ele>45.0</ele><time>2026-05-01T11:06:32Z</time></trkpt><trkpt lat="45.81971689434877" lon="12.314118277008994"><ele>45.0</ele><time>2026-05-01T11:06:33Z</time></trkpt><trkpt lat="45.82004184857962" lon="12.31426948906963"><ele>45.0</ele><time>2026-05-01T11:06:34Z</time></trkpt><trkpt lat="45.82036889910693" lon="12.314408104055623"><ele>45.5</ele><time>2026-05-01T11:06:35Z</time></trkpt><trkpt lat="45.8206980111769" lon="12.314534231881677"><ele>46.0</ele><time>2026-05-01T11:06:36Z</time></trkpt><trkpt lat="45.82103013403323" lon="12.3146476961364"><ele>47.0</ele><time>2026-05-01T11:06:37Z</time></trkpt><trkpt lat="45.82136362703883" lon="12.314749493413807"><ele>48.0</ele><time>2026-05-01T11:06:38Z</time></trkpt><trkpt lat="45.82169956583597" lon="12.314840872983947"><ele>48.0</ele><time>2026-05-01T11:06:39Z</time></trkpt><trkpt lat="45.822036324741454" lon="12.314921503895476"><ele>48.0</ele><time>2026-05-01T11:06:40Z</time></trkpt><trkpt lat="45.82237472430819" lon="12.314991081099889"><ele>47.0</ele><time>2026-05-01T11:06:41Z</time></trkpt><trkpt lat="45.82271357872062" lon="12.315055063963399"><ele>46.0</ele><time>2026-05-01T11:06:42Z</time></trkpt><trkpt lat="45.82305297921122" lon="12.315116861738492"><ele>46.0</ele><time>2026-05-01T11:06:43Z</time></trkpt><trkpt lat="45.82339202021103" lon="12.315175005575078"><ele>46.0</ele><time>2026-05-01T11:06:44Z</time></trkpt><trkpt lat="45.823730129227336" lon="12.315229542968483"><ele>46.0</ele><time>2026-05-01T11:06:45Z</time></trkpt><trkpt lat="45.824069197254" lon="12.315284588859688"><ele>46.0</ele><time>2026-05-01T11:06:46Z</time></trkpt><trkpt lat="45.82440922722701" lon="12.315337870777336"><ele>46.5</ele><time>2026-05-01T11:06:47Z</time></trkpt><trkpt lat="45.8247486168292" lon="12.315391914073421"><ele>47.0</ele><time>2026-05-01T11:06:48Z</time></trkpt><trkpt lat="45.825087857204835" lon="12.315446500511031"><ele>45.0</ele><time>2026-05-01T11:06:49Z</time></trkpt><trkpt lat="45.825426186962886" lon="12.315501591288669"><ele>43.0</ele><time>2026-05-01T11:06:50Z</time></trkpt><trkpt lat="45.82576546652533" lon="12.315553590532867"><ele>43.0</ele><time>2026-05-01T11:06:51Z</time></trkpt><trkpt lat="45.826104201674184" lon="12.31560424226876"><ele>43.0</ele><time>2026-05-01T11:06:52Z</time></trkpt><trkpt lat="45.82644303540494" lon="12.31565007942535"><ele>43.0</ele><time>2026-05-01T11:06:53Z</time></trkpt><trkpt lat="45.82678214449537" lon="12.315695727648356"><ele>43.0</ele><time>2026-05-01T11:06:54Z</time></trkpt><trkpt lat="45.82712173481408" lon="12.315744158672702"><ele>43.5</ele><time>2026-05-01T11:06:55Z</time></trkpt><trkpt lat="45.827460678654255" lon="12.315795613423164"><ele>44.0</ele><time>2026-05-01T11:06:56Z</time></trkpt><trkpt lat="45.82779961470306" lon="12.315848867281101"><ele>45.5</ele><time>2026-05-01T11:06:57Z</time></trkpt><trkpt lat="45.828137293243365" lon="12.315907415815996"><ele>47.0</ele><time>2026-05-01T11:06:58Z</time></trkpt><trkpt lat="45.8284746173306" lon="12.315962992900072"><ele>47.0</ele><time>2026-05-01T11:06:59Z</time></trkpt><trkpt lat="45.82881448037719" lon="12.316019910439273"><ele>47.0</ele><time>2026-05-01T11:07:00Z</time></trkpt><trkpt lat="45.82915167224167" lon="12.316079455382173"><ele>46.0</ele><time>2026-05-01T11:07:01Z</time></trkpt><trkpt lat="45.82949250975266" lon="12.316138310587537"><ele>45.0</ele><time>2026-05-01T11:07:02Z</time></trkpt><trkpt lat="45.82983262909322" lon="12.316190167691303"><ele>44.5</ele><time>2026-05-01T11:07:03Z</time></trkpt><trkpt lat="45.83017026683991" lon="12.316243137595007"><ele>44.0</ele><time>2026-05-01T11:07:04Z</time></trkpt><trkpt lat="45.83051108716618" lon="12.316298443395157"><ele>44.0</ele><time>2026-05-01T11:07:05Z</time></trkpt><trkpt lat="45.830851625325174" lon="12.316354374238218"><ele>44.0</ele><time>2026-05-01T11:07:06Z</time></trkpt><trkpt lat="45.831188025601854" lon="12.316408199798234"><ele>44.0</ele><time>2026-05-01T11:07:07Z</time></trkpt><trkpt lat="45.83152686257514" lon="12.316463045674006"><ele>44.0</ele><time>2026-05-01T11:07:08Z</time></trkpt><trkpt lat="45.83186733278441" lon="12.316515897300256"><ele>43.5</ele><time>2026-05-01T11:07:09Z</time></trkpt><trkpt lat="45.83220777651253" lon="12.316568907272941"><ele>43.0</ele><time>2026-05-01T11:07:10Z</time></trkpt><trkpt lat="45.83254687499104" lon="12.31662288006062"><ele>43.5</ele><time>2026-05-01T11:07:11Z</time></trkpt><trkpt lat="45.83288584687141" lon="12.316675149871593"><ele>44.0</ele><time>2026-05-01T11:07:12Z</time></trkpt><trkpt lat="45.833225873157744" lon="12.316730148284627"><ele>44.0</ele><time>2026-05-01T11:07:13Z</time></trkpt><trkpt lat="45.833566192618704" lon="12.316786658658083"><ele>44.0</ele><time>2026-05-01T11:07:14Z</time></trkpt><trkpt lat="45.83390533717571" lon="12.316844391483206"><ele>44.0</ele><time>2026-05-01T11:07:15Z</time></trkpt><trkpt lat="45.83424566203702" lon="12.316900267782518"><ele>44.0</ele><time>2026-05-01T11:07:16Z</time></trkpt><trkpt lat="45.83458665776309" lon="12.31695610715678"><ele>44.5</ele><time>2026-05-01T11:07:17Z</time></trkpt><trkpt lat="45.83492578038731" lon="12.317012387141514"><ele>45.0</ele><time>2026-05-01T11:07:18Z</time></trkpt><trkpt lat="45.83526670470111" lon="12.31706784328217"><ele>45.0</ele><time>2026-05-01T11:07:19Z</time></trkpt><trkpt lat="45.83560782188292" lon="12.317121963759028"><ele>45.0</ele><time>2026-05-01T11:07:20Z</time></trkpt><trkpt lat="45.83594525770275" lon="12.3171761036965"><ele>44.5</ele><time>2026-05-01T11:07:21Z</time></trkpt><trkpt lat="45.83628489333461" lon="12.317230757620028"><ele>44.0</ele><time>2026-05-01T11:07:22Z</time></trkpt><trkpt lat="45.83662146455587" lon="12.317286689061314"><ele>44.5</ele><time>2026-05-01T11:07:23Z</time></trkpt><trkpt lat="45.83696050941846" lon="12.317345018147371"><ele>45.0</ele><time>2026-05-01T11:07:24Z</time></trkpt><trkpt lat="45.837299209706465" lon="12.317402869019618"><ele>45.0</ele><time>2026-05-01T11:07:25Z</time></trkpt><trkpt lat="45.837634755725276" lon="12.31746369987156"><ele>45.0</ele><time>2026-05-01T11:07:26Z</time></trkpt><trkpt lat="45.837972284097944" lon="12.317533927698953"><ele>45.0</ele><time>2026-05-01T11:07:27Z</time></trkpt><trkpt lat="45.83830860234184" lon="12.317616841895568"><ele>45.0</ele><time>2026-05-01T11:07:28Z</time></trkpt><trkpt lat="45.838643465447014" lon="12.317711281719971"><ele>45.0</ele><time>2026-05-01T11:07:29Z</time></trkpt><trkpt lat="45.83897742417879" lon="12.31781400523056"><ele>45.0</ele><time>2026-05-01T11:07:30Z</time></trkpt><trkpt lat="45.83930888782778" lon="12.317923504382406"><ele>44.5</ele><time>2026-05-01T11:07:31Z</time></trkpt><trkpt lat="45.83963951411418" lon="12.318044057858431"><ele>44.0</ele><time>2026-05-01T11:07:32Z</time></trkpt><trkpt lat="45.839968974067496" lon="12.318173709213237"><ele>44.0</ele><time>2026-05-01T11:07:33Z</time></trkpt><trkpt lat="45.84029556391569" lon="12.318310399191123"><ele>44.0</ele><time>2026-05-01T11:07:34Z</time></trkpt><trkpt lat="45.84061978677659" lon="12.318456901869887"><ele>44.0</ele><time>2026-05-01T11:07:35Z</time></trkpt><trkpt lat="45.84094062114699" lon="12.318612852630723"><ele>44.0</ele><time>2026-05-01T11:07:36Z</time></trkpt><trkpt lat="45.84126100208791" lon="12.318778264801642"><ele>43.5</ele><time>2026-05-01T11:07:37Z</time></trkpt><trkpt lat="45.84158079852338" lon="12.318952139923441"><ele>43.0</ele><time>2026-05-01T11:07:38Z</time></trkpt><trkpt lat="45.84189743472487" lon="12.319133275855254"><ele>42.0</ele><time>2026-05-01T11:07:39Z</time></trkpt><trkpt lat="45.84221106939747" lon="12.319322919322119"><ele>41.0</ele><time>2026-05-01T11:07:40Z</time></trkpt><trkpt lat="45.84252099952035" lon="12.319523180255397"><ele>42.5</ele><time>2026-05-01T11:07:41Z</time></trkpt><trkpt lat="45.84282952560012" lon="12.319730136249953"><ele>44.0</ele><time>2026-05-01T11:07:42Z</time></trkpt><trkpt lat="45.84313680988292" lon="12.31994685881877"><ele>44.0</ele><time>2026-05-01T11:07:43Z</time></trkpt><trkpt lat="45.84343761013146" lon="12.320171278759547"><ele>44.0</ele><time>2026-05-01T11:07:44Z</time></trkpt><trkpt lat="45.843737639293906" lon="12.320403469574993"><ele>43.5</ele><time>2026-05-01T11:07:45Z</time></trkpt><trkpt lat="45.84403444572265" lon="12.320642725898827"><ele>43.0</ele><time>2026-05-01T11:07:46Z</time></trkpt><trkpt lat="45.84432755872224" lon="12.320888849769792"><ele>43.5</ele><time>2026-05-01T11:07:47Z</time></trkpt><trkpt lat="45.8446172087526" lon="12.32114537672256"><ele>44.0</ele><time>2026-05-01T11:07:48Z</time></trkpt><trkpt lat="45.84490380576688" lon="12.32140894343139"><ele>43.5</ele><time>2026-05-01T11:07:49Z</time></trkpt><trkpt lat="45.84518744281144" lon="12.321678117740717"><ele>43.0</ele><time>2026-05-01T11:07:50Z</time></trkpt><trkpt lat="45.845469131463766" lon="12.321955569624853"><ele>43.0</ele><time>2026-05-01T11:07:51Z</time></trkpt><trkpt lat="45.84574745284427" lon="12.322238655716234"><ele>43.0</ele><time>2026-05-01T11:07:52Z</time></trkpt><trkpt lat="45.84602352756486" lon="12.322526810727348"><ele>41.5</ele><time>2026-05-01T11:07:53Z</time></trkpt><trkpt lat="45.84630068064515" lon="12.322814779577936"><ele>40.0</ele><time>2026-05-01T11:07:54Z</time></trkpt><trkpt lat="45.846579702819994" lon="12.323100840356275"><ele>40.0</ele><time>2026-05-01T11:07:55Z</time></trkpt><trkpt lat="45.84686008697687" lon="12.323387018078582"><ele>40.0</ele><time>2026-05-01T11:07:56Z</time></trkpt><trkpt lat="45.84713870692469" lon="12.32367176839114"><ele>40.0</ele><time>2026-05-01T11:07:57Z</time></trkpt><trkpt lat="45.847416031943794" lon="12.323959283336567"><ele>40.0</ele><time>2026-05-01T11:07:58Z</time></trkpt><trkpt lat="45.847693386342435" lon="12.324245910169203"><ele>40.0</ele><time>2026-05-01T11:07:59Z</time></trkpt><trkpt lat="45.84797136102871" lon="12.324530942313666"><ele>40.0</ele><time>2026-05-01T11:08:00Z</time></trkpt><trkpt lat="45.84824805183123" lon="12.324817918203719"><ele>41.0</ele><time>2026-05-01T11:08:01Z</time></trkpt><trkpt lat="45.84852429916176" lon="12.32510807417302"><ele>42.0</ele><time>2026-05-01T11:08:02Z</time></trkpt><trkpt lat="45.84879733343451" lon="12.32540003044424"><ele>42.0</ele><time>2026-05-01T11:08:03Z</time></trkpt><trkpt lat="45.84907203888635" lon="12.32569306935901"><ele>42.0</ele><time>2026-05-01T11:08:04Z</time></trkpt><trkpt lat="45.84934767709866" lon="12.3259841089442"><ele>42.0</ele><time>2026-05-01T11:08:05Z</time></trkpt><trkpt lat="45.84962451142702" lon="12.32627299144675"><ele>42.0</ele><time>2026-05-01T11:08:06Z</time></trkpt><trkpt lat="45.849901169444934" lon="12.326559090507711"><ele>41.0</ele><time>2026-05-01T11:08:07Z</time></trkpt><trkpt lat="45.85017892847931" lon="12.3268416466014"><ele>40.0</ele><time>2026-05-01T11:08:08Z</time></trkpt><trkpt lat="45.85045694369897" lon="12.32712411169067"><ele>39.5</ele><time>2026-05-01T11:08:08.999Z</time></trkpt><trkpt lat="45.85073319479509" lon="12.32740780106941"><ele>39.0</ele><time>2026-05-01T11:08:09.999Z</time></trkpt><trkpt lat="45.8510105482698" lon="12.327691633605959"><ele>38.0</ele><time>2026-05-01T11:08:10.999Z</time></trkpt><trkpt lat="45.851288221690865" lon="12.327977106422548"><ele>37.0</ele><time>2026-05-01T11:08:11.999Z</time></trkpt><trkpt lat="45.85156380202965" lon="12.328264772403456"><ele>38.0</ele><time>2026-05-01T11:08:12.999Z</time></trkpt><trkpt lat="45.85183939743558" lon="12.328551682824793"><ele>39.0</ele><time>2026-05-01T11:08:13.999Z</time></trkpt><trkpt lat="45.85211668209045" lon="12.328836260138814"><ele>39.0</ele><time>2026-05-01T11:08:15Z</time></trkpt><trkpt lat="45.852395372128676" lon="12.329117417098026"><ele>39.0</ele><time>2026-05-01T11:08:16Z</time></trkpt><trkpt lat="45.852674567344394" lon="12.32940006363561"><ele>38.0</ele><time>2026-05-01T11:08:17Z</time></trkpt><trkpt lat="45.85295317092149" lon="12.3296820997911"><ele>37.0</ele><time>2026-05-01T11:08:18Z</time></trkpt><trkpt lat="45.85323128540276" lon="12.329963676669804"><ele>39.5</ele><time>2026-05-01T11:08:19Z</time></trkpt><trkpt lat="45.8535091792406" lon="12.330245112946054"><ele>42.0</ele><time>2026-05-01T11:08:20Z</time></trkpt><trkpt lat="45.85378598268592" lon="12.330528662451535"><ele>42.5</ele><time>2026-05-01T11:08:21Z</time></trkpt><trkpt lat="45.854061347553426" lon="12.33081570298317"><ele>43.0</ele><time>2026-05-01T11:08:22Z</time></trkpt><trkpt lat="45.85433300447415" lon="12.331108751255988"><ele>41.0</ele><time>2026-05-01T11:08:23Z</time></trkpt><trkpt lat="45.854601299634375" lon="12.33140831598424"><ele>39.0</ele><time>2026-05-01T11:08:24Z</time></trkpt><trkpt lat="45.85486638261659" lon="12.331713389508748"><ele>39.0</ele><time>2026-05-01T11:08:25Z</time></trkpt><trkpt lat="45.855128227216554" lon="12.332026410480676"><ele>39.0</ele><time>2026-05-01T11:08:26Z</time></trkpt><trkpt lat="45.85538434139475" lon="12.332348578145936"><ele>39.0</ele><time>2026-05-01T11:08:27Z</time></trkpt><trkpt lat="45.85563501145771" lon="12.33267797824152"><ele>39.0</ele><time>2026-05-01T11:08:28Z</time></trkpt><trkpt lat="45.85588092805571" lon="12.333015153947878"><ele>39.0</ele><time>2026-05-01T11:08:29Z</time></trkpt><trkpt lat="45.8561213496058" lon="12.333362433257228"><ele>39.0</ele><time>2026-05-01T11:08:30Z</time></trkpt><trkpt lat="45.85635807691196" lon="12.33371547771202"><ele>38.5</ele><time>2026-05-01T11:08:31Z</time></trkpt><trkpt lat="45.85659218707055" lon="12.334071868974322"><ele>38.0</ele><time>2026-05-01T11:08:32Z</time></trkpt><trkpt lat="45.856823705099764" lon="12.3344310886715"><ele>39.0</ele><time>2026-05-01T11:08:33Z</time></trkpt><trkpt lat="45.85705286164921" lon="12.334793758227411"><ele>40.0</ele><time>2026-05-01T11:08:34Z</time></trkpt><trkpt lat="45.85727834508108" lon="12.33516152665256"><ele>40.0</ele><time>2026-05-01T11:08:35Z</time></trkpt><trkpt lat="45.85750037828999" lon="12.335534233079322"><ele>40.0</ele><time>2026-05-01T11:08:36Z</time></trkpt><trkpt lat="45.85772324418085" lon="12.33590324943256"><ele>39.0</ele><time>2026-05-01T11:08:37Z</time></trkpt><trkpt lat="45.857944402117326" lon="12.336273090809296"><ele>38.0</ele><time>2026-05-01T11:08:38Z</time></trkpt><trkpt lat="45.85816906011584" lon="12.336637594134872"><ele>38.0</ele><time>2026-05-01T11:08:39Z</time></trkpt><trkpt lat="45.85839894499239" lon="12.336996949680715"><ele>38.0</ele><time>2026-05-01T11:08:40Z</time></trkpt><trkpt lat="45.85864163149702" lon="12.337341386532815"><ele>39.0</ele><time>2026-05-01T11:08:41Z</time></trkpt><trkpt lat="45.85888787120283" lon="12.337676205824879"><ele>40.0</ele><time>2026-05-01T11:08:42Z</time></trkpt><trkpt lat="45.85914142948688" lon="12.337998826906624"><ele>40.0</ele><time>2026-05-01T11:08:43Z</time></trkpt><trkpt lat="45.85940163343204" lon="12.338308392717218"><ele>40.0</ele><time>2026-05-01T11:08:44Z</time></trkpt><trkpt lat="45.85967154214245" lon="12.33860347579667"><ele>39.5</ele><time>2026-05-01T11:08:45Z</time></trkpt><trkpt lat="45.8599515339737" lon="12.338884635274"><ele>39.0</ele><time>2026-05-01T11:08:46Z</time></trkpt><trkpt lat="45.8602375508579" lon="12.339152688144353"><ele>38.5</ele><time>2026-05-01T11:08:47Z</time></trkpt><trkpt lat="45.86052782947632" lon="12.339406471716847"><ele>38.0</ele><time>2026-05-01T11:08:48Z</time></trkpt><trkpt lat="45.86082439339285" lon="12.339646600048772"><ele>38.5</ele><time>2026-05-01T11:08:49Z</time></trkpt><trkpt lat="45.8611270561296" lon="12.339870461451628"><ele>39.0</ele><time>2026-05-01T11:08:50Z</time></trkpt><trkpt lat="45.861434152310494" lon="12.340078099125162"><ele>39.0</ele><time>2026-05-01T11:08:51Z</time></trkpt><trkpt lat="45.861745845916076" lon="12.340267578999125"><ele>39.0</ele><time>2026-05-01T11:08:52Z</time></trkpt><trkpt lat="45.862065418859046" lon="12.34043712086938"><ele>39.0</ele><time>2026-05-01T11:08:53Z</time></trkpt><trkpt lat="45.862391160877" lon="12.340589300299776"><ele>39.0</ele><time>2026-05-01T11:08:54Z</time></trkpt><trkpt lat="45.86271980001427" lon="12.340724501829651"><ele>39.0</ele><time>2026-05-01T11:08:55Z</time></trkpt><trkpt lat="45.86305249178741" lon="12.340844420182329"><ele>39.0</ele><time>2026-05-01T11:08:56Z</time></trkpt><trkpt lat="45.863386862477" lon="12.340947265748493"><ele>39.5</ele><time>2026-05-01T11:08:57Z</time></trkpt><trkpt lat="45.86372075028142" lon="12.341037145194566"><ele>40.0</ele><time>2026-05-01T11:08:58Z</time></trkpt><trkpt lat="45.86405982823287" lon="12.341117812149042"><ele>39.5</ele><time>2026-05-01T11:08:59Z</time></trkpt><trkpt lat="45.86439802315559" lon="12.34119680126928"><ele>39.0</ele><time>2026-05-01T11:09:00Z</time></trkpt><trkpt lat="45.864736866650155" lon="12.341277865460151"><ele>39.0</ele><time>2026-05-01T11:09:01Z</time></trkpt><trkpt lat="45.86507639745776" lon="12.34135998003824"><ele>39.0</ele><time>2026-05-01T11:09:02Z</time></trkpt><trkpt lat="45.86541325845078" lon="12.341442473908849"><ele>39.5</ele><time>2026-05-01T11:09:03Z</time></trkpt><trkpt lat="45.86574930024069" lon="12.34152531009052"><ele>40.0</ele><time>2026-05-01T11:09:04Z</time></trkpt><trkpt lat="45.86608588372669" lon="12.341606121821796"><ele>40.0</ele><time>2026-05-01T11:09:05Z</time></trkpt><trkpt lat="45.86642182745583" lon="12.341684006814617"><ele>40.0</ele><time>2026-05-01T11:09:06Z</time></trkpt><trkpt lat="45.866758559301346" lon="12.34176178245399"><ele>39.5</ele><time>2026-05-01T11:09:07Z</time></trkpt><trkpt lat="45.86709302183196" lon="12.341839791297351"><ele>39.0</ele><time>2026-05-01T11:09:08Z</time></trkpt><trkpt lat="45.86742722917889" lon="12.341919360555014"><ele>40.5</ele><time>2026-05-01T11:09:09Z</time></trkpt><trkpt lat="45.86776167176195" lon="12.341998292034512"><ele>42.0</ele><time>2026-05-01T11:09:10Z</time></trkpt><trkpt lat="45.8680944370509" lon="12.342078263380618"><ele>42.0</ele><time>2026-05-01T11:09:11Z</time></trkpt><trkpt lat="45.868431440980004" lon="12.342159973019163"><ele>42.0</ele><time>2026-05-01T11:09:12Z</time></trkpt><trkpt lat="45.86876885183689" lon="12.342240249584593"><ele>40.5</ele><time>2026-05-01T11:09:13Z</time></trkpt><trkpt lat="45.869104458850906" lon="12.342319273784064"><ele>39.0</ele><time>2026-05-01T11:09:14Z</time></trkpt><trkpt lat="45.86943896653493" lon="12.342400152584364"><ele>39.0</ele><time>2026-05-01T11:09:15Z</time></trkpt><trkpt lat="45.86977477517418" lon="12.342481438861654"><ele>39.0</ele><time>2026-05-01T11:09:16Z</time></trkpt><trkpt lat="45.87011181684967" lon="12.34256211902642"><ele>39.5</ele><time>2026-05-01T11:09:17Z</time></trkpt><trkpt lat="45.870447546948284" lon="12.342643720987795"><ele>40.0</ele><time>2026-05-01T11:09:18Z</time></trkpt><trkpt lat="45.870781999909745" lon="12.342725621618193"><ele>40.0</ele><time>2026-05-01T11:09:19Z</time></trkpt><trkpt lat="45.87111748624995" lon="12.342807602990263"><ele>40.0</ele><time>2026-05-01T11:09:20Z</time></trkpt><trkpt lat="45.87144831058545" lon="12.342888004161516"><ele>40.0</ele><time>2026-05-01T11:09:21Z</time></trkpt><trkpt lat="45.871767263239605" lon="12.3429668708284"><ele>40.0</ele><time>2026-05-01T11:09:22Z</time></trkpt><trkpt lat="45.87207743781511" lon="12.343045251167263"><ele>40.5</ele><time>2026-05-01T11:09:23Z</time></trkpt><trkpt lat="45.87237972052311" lon="12.343122347533027"><ele>41.0</ele><time>2026-05-01T11:09:24Z</time></trkpt><trkpt lat="45.872672424318175" lon="12.343196456770979"><ele>41.0</ele><time>2026-05-01T11:09:25Z</time></trkpt><trkpt lat="45.872957516778264" lon="12.343261637095353"><ele>41.0</ele><time>2026-05-01T11:09:26Z</time></trkpt><trkpt lat="45.87323706039395" lon="12.343314046247643"><ele>41.5</ele><time>2026-05-01T11:09:27Z</time></trkpt><trkpt lat="45.87351153944398" lon="12.3433533918012"><ele>42.0</ele><time>2026-05-01T11:09:28Z</time></trkpt><trkpt lat="45.87378004580633" lon="12.343380223971037"><ele>42.0</ele><time>2026-05-01T11:09:29Z</time></trkpt><trkpt lat="45.87404163039661" lon="12.343395166546507"><ele>42.0</ele><time>2026-05-01T11:09:30Z</time></trkpt><trkpt lat="45.87429915580321" lon="12.343403967683576"><ele>41.5</ele><time>2026-05-01T11:09:31Z</time></trkpt><trkpt lat="45.874550304448285" lon="12.343407596926946"><ele>41.0</ele><time>2026-05-01T11:09:32Z</time></trkpt><trkpt lat="45.874795455787634" lon="12.343407308292562"><ele>41.0</ele><time>2026-05-01T11:09:33Z</time></trkpt><trkpt lat="45.875034612061086" lon="12.343404760662409"><ele>41.0</ele><time>2026-05-01T11:09:34Z</time></trkpt><trkpt lat="45.875266090613664" lon="12.343399990895898"><ele>41.33333333333333</ele><time>2026-05-01T11:09:35Z</time></trkpt><trkpt lat="45.87548655942333" lon="12.343390982754814"><ele>41.666666666666664</ele><time>2026-05-01T11:09:36Z</time></trkpt><trkpt lat="45.875697510218686" lon="12.34337622739915"><ele>42.0</ele><time>2026-05-01T11:09:37Z</time></trkpt><trkpt lat="45.87590076150141" lon="12.34335145478593"><ele>42.0</ele><time>2026-05-01T11:09:38Z</time></trkpt><trkpt lat="45.87609603505118" lon="12.34332168444825"><ele>42.0</ele><time>2026-05-01T11:09:39Z</time></trkpt><trkpt lat="45.8762869405543" lon="12.343290876115146"><ele>42.0</ele><time>2026-05-01T11:09:40Z</time></trkpt><trkpt lat="45.876474780865166" lon="12.343261692151556"><ele>42.0</ele><time>2026-05-01T11:09:41Z</time></trkpt><trkpt lat="45.876656533670555" lon="12.343238090500021"><ele>42.0</ele><time>2026-05-01T11:09:42Z</time></trkpt><trkpt lat="45.87683174164785" lon="12.343189799814777"><ele>42.0</ele><time>2026-05-01T11:09:43Z</time></trkpt><trkpt lat="45.87701039924138" lon="12.343213857263699"><ele>42.333333333333336</ele><time>2026-05-01T11:09:44Z</time></trkpt><trkpt lat="45.877180241083984" lon="12.343211910654787"><ele>42.66666666666667</ele><time>2026-05-01T11:09:45Z</time></trkpt><trkpt lat="45.87734721407604" lon="12.343220830429743"><ele>43.0</ele><time>2026-05-01T11:09:46Z</time></trkpt><trkpt lat="45.87751572117363" lon="12.343240887316936"><ele>42.333333333333336</ele><time>2026-05-01T11:09:47Z</time></trkpt><trkpt lat="45.87768977951634" lon="12.343279236658766"><ele>41.666666666666664</ele><time>2026-05-01T11:09:48Z</time></trkpt><trkpt lat="45.8778692165035" lon="12.343338094376248"><ele>41.0</ele><time>2026-05-01T11:09:49Z</time></trkpt><trkpt lat="45.878051050320174" lon="12.343415594777436"><ele>41.0</ele><time>2026-05-01T11:09:50Z</time></trkpt><trkpt lat="45.87823808749766" lon="12.343514015738286"><ele>41.0</ele><time>2026-05-01T11:09:51Z</time></trkpt><trkpt lat="45.878423736110115" lon="12.343633067019454"><ele>41.0</ele><time>2026-05-01T11:09:52Z</time></trkpt><trkpt lat="45.878609297229886" lon="12.343774721650606"><ele>40.666666666666664</ele><time>2026-05-01T11:09:53Z</time></trkpt><trkpt lat="45.87879504649232" lon="12.343927185490996"><ele>40.333333333333336</ele><time>2026-05-01T11:09:54Z</time></trkpt><trkpt lat="45.878976392294035" lon="12.344082545472844"><ele>40.0</ele><time>2026-05-01T11:09:55Z</time></trkpt><trkpt lat="45.87915366780421" lon="12.34423776818095"><ele>40.0</ele><time>2026-05-01T11:09:56Z</time></trkpt><trkpt lat="45.879322787595925" lon="12.344396988689649"><ele>40.0</ele><time>2026-05-01T11:09:57Z</time></trkpt><trkpt lat="45.87948309905973" lon="12.34456525801131"><ele>40.0</ele><time>2026-05-01T11:09:58Z</time></trkpt><trkpt lat="45.87963398294341" lon="12.344755720069514"><ele>40.333333333333336</ele><time>2026-05-01T11:09:59Z</time></trkpt><trkpt lat="45.879765758030864" lon="12.344961859004862"><ele>40.666666666666664</ele><time>2026-05-01T11:10:00Z</time></trkpt><trkpt lat="45.87988582548654" lon="12.345183289909794"><ele>41.0</ele><time>2026-05-01T11:10:01Z</time></trkpt><trkpt lat="45.880021124248195" lon="12.345372876589451"><ele>42.0</ele><time>2026-05-01T11:10:02Z</time></trkpt><trkpt lat="45.880155030645106" lon="12.345571928627274"><ele>43.0</ele><time>2026-05-01T11:10:03Z</time></trkpt><trkpt lat="45.880141769240275" lon="12.345959194444287"><ele>43.0</ele><time>2026-05-01T11:10:04Z</time></trkpt><trkpt lat="45.88018916029275" lon="12.3462429203291"><ele>43.0</ele><time>2026-05-01T11:10:05Z</time></trkpt><trkpt lat="45.880228874154575" lon="12.346543972848773"><ele>43.0</ele><time>2026-05-01T11:10:06Z</time></trkpt><trkpt lat="45.88024863569639" lon="12.34685788441393"><ele>43.0</ele><time>2026-05-01T11:10:06.999Z</time></trkpt><trkpt lat="45.88026202371128" lon="12.347190904635049"><ele>43.0</ele><time>2026-05-01T11:10:07.999Z</time></trkpt><trkpt lat="45.880272300021616" lon="12.347540305202772"><ele>43.0</ele><time>2026-05-01T11:10:08.999Z</time></trkpt><trkpt lat="45.88028160324452" lon="12.347904647074449"><ele>43.0</ele><time>2026-05-01T11:10:09.999Z</time></trkpt><trkpt lat="45.88029295207845" lon="12.348277365611102"><ele>43.0</ele><time>2026-05-01T11:10:10.999Z</time></trkpt><trkpt lat="45.88030296285968" lon="12.348660030909253"><ele>43.0</ele><time>2026-05-01T11:10:11.999Z</time></trkpt><trkpt lat="45.880315685059976" lon="12.34904812371773"><ele>42.5</ele><time>2026-05-01T11:10:12.999Z</time></trkpt><trkpt lat="45.88032735502531" lon="12.349446256554797"><ele>42.0</ele><time>2026-05-01T11:10:13.999Z</time></trkpt><trkpt lat="45.88033540365853" lon="12.349854642983512"><ele>42.0</ele><time>2026-05-01T11:10:14.999Z</time></trkpt><trkpt lat="45.88034147483901" lon="12.35027321867237"><ele>42.0</ele><time>2026-05-01T11:10:15.999Z</time></trkpt><trkpt lat="45.880348598123135" lon="12.350697723994463"><ele>41.5</ele><time>2026-05-01T11:10:16.999Z</time></trkpt><trkpt lat="45.88035317716235" lon="12.35112926574098"><ele>41.0</ele><time>2026-05-01T11:10:17.999Z</time></trkpt><trkpt lat="45.88035957966326" lon="12.351566831097728"><ele>40.5</ele><time>2026-05-01T11:10:18.999Z</time></trkpt><trkpt lat="45.880366457427705" lon="12.352010339605975"><ele>40.0</ele><time>2026-05-01T11:10:19.999Z</time></trkpt><trkpt lat="45.88037576690539" lon="12.352456529698967"><ele>39.0</ele><time>2026-05-01T11:10:21Z</time></trkpt><trkpt lat="45.88038769137405" lon="12.352910146262197"><ele>38.0</ele><time>2026-05-01T11:10:22Z</time></trkpt><trkpt lat="45.8803979323855" lon="12.35337235698655"><ele>38.0</ele><time>2026-05-01T11:10:23Z</time></trkpt><trkpt lat="45.88040751384467" lon="12.353838485009193"><ele>38.0</ele><time>2026-05-01T11:10:24Z</time></trkpt><trkpt lat="45.88041507733273" lon="12.35431144970808"><ele>39.5</ele><time>2026-05-01T11:10:25Z</time></trkpt><trkpt lat="45.880423233572785" lon="12.354789357082357"><ele>41.0</ele><time>2026-05-01T11:10:26Z</time></trkpt><trkpt lat="45.88043105885596" lon="12.355269479144605"><ele>40.5</ele><time>2026-05-01T11:10:27Z</time></trkpt><trkpt lat="45.880437759015784" lon="12.35575790496461"><ele>40.0</ele><time>2026-05-01T11:10:28Z</time></trkpt><trkpt lat="45.88044504826051" lon="12.356245516082561"><ele>40.0</ele><time>2026-05-01T11:10:29Z</time></trkpt><trkpt lat="45.880453523881556" lon="12.356734374048452"><ele>40.0</ele><time>2026-05-01T11:10:30Z</time></trkpt><trkpt lat="45.880458897663345" lon="12.357221275446229"><ele>40.0</ele><time>2026-05-01T11:10:31Z</time></trkpt><trkpt lat="45.880459563217045" lon="12.35771023070091"><ele>40.0</ele><time>2026-05-01T11:10:32Z</time></trkpt><trkpt lat="45.880456226313086" lon="12.358198684931912"><ele>40.5</ele><time>2026-05-01T11:10:33Z</time></trkpt><trkpt lat="45.88044725005643" lon="12.358688056186525"><ele>41.0</ele><time>2026-05-01T11:10:34Z</time></trkpt><trkpt lat="45.880432477305284" lon="12.359177230927905"><ele>40.0</ele><time>2026-05-01T11:10:35Z</time></trkpt><trkpt lat="45.880413656022704" lon="12.359665945469692"><ele>39.0</ele><time>2026-05-01T11:10:36Z</time></trkpt><trkpt lat="45.8803890447618" lon="12.360151315432788"><ele>39.5</ele><time>2026-05-01T11:10:37Z</time></trkpt><trkpt lat="45.8803619481027" lon="12.360637795791773"><ele>40.0</ele><time>2026-05-01T11:10:38Z</time></trkpt><trkpt lat="45.880332147261385" lon="12.361127544019498"><ele>39.5</ele><time>2026-05-01T11:10:39Z</time></trkpt><trkpt lat="45.8803003291729" lon="12.361614253744015"><ele>39.0</ele><time>2026-05-01T11:10:40Z</time></trkpt><trkpt lat="45.880267748451985" lon="12.3621015096242"><ele>39.0</ele><time>2026-05-01T11:10:41Z</time></trkpt><trkpt lat="45.88023342658603" lon="12.362588213848483"><ele>39.0</ele><time>2026-05-01T11:10:42Z</time></trkpt><trkpt lat="45.880200218023056" lon="12.363074646704595"><ele>39.0</ele><time>2026-05-01T11:10:43Z</time></trkpt><trkpt lat="45.88016599944066" lon="12.363563260154207"><ele>39.0</ele><time>2026-05-01T11:10:44Z</time></trkpt><trkpt lat="45.880134182623685" lon="12.364049825364704"><ele>39.0</ele><time>2026-05-01T11:10:45Z</time></trkpt><trkpt lat="45.8801060399278" lon="12.36453350733129"><ele>39.0</ele><time>2026-05-01T11:10:46Z</time></trkpt><trkpt lat="45.88008041221841" lon="12.365021646509186"><ele>38.5</ele><time>2026-05-01T11:10:47Z</time></trkpt><trkpt lat="45.880054464946554" lon="12.365507299751801"><ele>38.0</ele><time>2026-05-01T11:10:48Z</time></trkpt><trkpt lat="45.88002614752931" lon="12.365996818080985"><ele>37.0</ele><time>2026-05-01T11:10:49Z</time></trkpt><trkpt lat="45.88000308021659" lon="12.366485958005972"><ele>36.0</ele><time>2026-05-01T11:10:50Z</time></trkpt><trkpt lat="45.87999054610368" lon="12.36697320891037"><ele>35.5</ele><time>2026-05-01T11:10:51Z</time></trkpt><trkpt lat="45.87998701162802" lon="12.367462566840892"><ele>35.0</ele><time>2026-05-01T11:10:52Z</time></trkpt><trkpt lat="45.87999055443304" lon="12.367950377187842"><ele>35.0</ele><time>2026-05-01T11:10:53Z</time></trkpt><trkpt lat="45.87999961967547" lon="12.368439555716266"><ele>35.0</ele><time>2026-05-01T11:10:54Z</time></trkpt><trkpt lat="45.880013953883335" lon="12.36892871812198"><ele>35.5</ele><time>2026-05-01T11:10:55Z</time></trkpt><trkpt lat="45.88003430330642" lon="12.369417501471002"><ele>36.0</ele><time>2026-05-01T11:10:56Z</time></trkpt><trkpt lat="45.88005924882365" lon="12.369906524336564"><ele>36.5</ele><time>2026-05-01T11:10:57Z</time></trkpt><trkpt lat="45.880090329855356" lon="12.370396252481765"><ele>37.0</ele><time>2026-05-01T11:10:58Z</time></trkpt><trkpt lat="45.88012418061601" lon="12.370885550467744"><ele>35.5</ele><time>2026-05-01T11:10:59Z</time></trkpt><trkpt lat="45.88016440151624" lon="12.371370950196397"><ele>34.0</ele><time>2026-05-01T11:11:00Z</time></trkpt><trkpt lat="45.88021101097865" lon="12.371856478461805"><ele>33.5</ele><time>2026-05-01T11:11:01Z</time></trkpt><trkpt lat="45.88026500250729" lon="12.372341723042185"><ele>33.0</ele><time>2026-05-01T11:11:02Z</time></trkpt><trkpt lat="45.880328154232316" lon="12.372823431512433"><ele>35.0</ele><time>2026-05-01T11:11:03Z</time></trkpt><trkpt lat="45.880397476972945" lon="12.373301962879028"><ele>37.0</ele><time>2026-05-01T11:11:04Z</time></trkpt><trkpt lat="45.88047276535668" lon="12.373778899380111"><ele>37.0</ele><time>2026-05-01T11:11:05Z</time></trkpt><trkpt lat="45.880555619279704" lon="12.374251998487377"><ele>37.0</ele><time>2026-05-01T11:11:06Z</time></trkpt><trkpt lat="45.88064448608826" lon="12.374722359990791"><ele>36.5</ele><time>2026-05-01T11:11:07Z</time></trkpt><trkpt lat="45.88073988504346" lon="12.375190710580387"><ele>36.0</ele><time>2026-05-01T11:11:08Z</time></trkpt><trkpt lat="45.88084235797312" lon="12.375656242833479"><ele>36.0</ele><time>2026-05-01T11:11:09Z</time></trkpt><trkpt lat="45.88095106090118" lon="12.376118627113613"><ele>36.0</ele><time>2026-05-01T11:11:10Z</time></trkpt><trkpt lat="45.88106409498022" lon="12.376580892935557"><ele>36.0</ele><time>2026-05-01T11:11:11Z</time></trkpt><trkpt lat="45.881181870926646" lon="12.377039965796717"><ele>36.0</ele><time>2026-05-01T11:11:12Z</time></trkpt><trkpt lat="45.88130633704043" lon="12.377495355319384"><ele>36.0</ele><time>2026-05-01T11:11:13Z</time></trkpt><trkpt lat="45.8814362766439" lon="12.37794526927091"><ele>36.0</ele><time>2026-05-01T11:11:14Z</time></trkpt><trkpt lat="45.88157274509265" lon="12.378392699984119"><ele>35.0</ele><time>2026-05-01T11:11:15Z</time></trkpt><trkpt lat="45.88171479207434" lon="12.378833359122927"><ele>34.0</ele><time>2026-05-01T11:11:16Z</time></trkpt><trkpt lat="45.881862674865246" lon="12.379271096630836"><ele>33.0</ele><time>2026-05-01T11:11:17Z</time></trkpt><trkpt lat="45.88201497140252" lon="12.379707848070773"><ele>32.0</ele><time>2026-05-01T11:11:18Z</time></trkpt><trkpt lat="45.88216639024207" lon="12.380146373243523"><ele>32.0</ele><time>2026-05-01T11:11:19Z</time></trkpt><trkpt lat="45.88232131410904" lon="12.38058159014292"><ele>32.0</ele><time>2026-05-01T11:11:20Z</time></trkpt><trkpt lat="45.8824791968076" lon="12.38101641768261"><ele>32.5</ele><time>2026-05-01T11:11:21Z</time></trkpt><trkpt lat="45.88263841085844" lon="12.381449676618258"><ele>33.0</ele><time>2026-05-01T11:11:22Z</time></trkpt><trkpt lat="45.88279615277367" lon="12.381882105686524"><ele>33.0</ele><time>2026-05-01T11:11:23Z</time></trkpt><trkpt lat="45.88295393300362" lon="12.382315269444309"><ele>33.0</ele><time>2026-05-01T11:11:24Z</time></trkpt><trkpt lat="45.883113676399695" lon="12.38274660235319"><ele>32.5</ele><time>2026-05-01T11:11:25Z</time></trkpt><trkpt lat="45.88327450903262" lon="12.383178722534712"><ele>32.0</ele><time>2026-05-01T11:11:26Z</time></trkpt><trkpt lat="45.88343546148268" lon="12.38360997914407"><ele>32.5</ele><time>2026-05-01T11:11:27Z</time></trkpt><trkpt lat="45.88359673155335" lon="12.384046885107754"><ele>33.0</ele><time>2026-05-01T11:11:28Z</time></trkpt><trkpt lat="45.883759205366516" lon="12.384478867577698"><ele>32.5</ele><time>2026-05-01T11:11:29Z</time></trkpt><trkpt lat="45.88392323419769" lon="12.384906471961232"><ele>32.0</ele><time>2026-05-01T11:11:30Z</time></trkpt><trkpt lat="45.88408488167106" lon="12.385334921423498"><ele>32.0</ele><time>2026-05-01T11:11:31Z</time></trkpt><trkpt lat="45.88424867359579" lon="12.385762743829515"><ele>32.0</ele><time>2026-05-01T11:11:32Z</time></trkpt><trkpt lat="45.884411000627146" lon="12.38619043982152"><ele>32.5</ele><time>2026-05-01T11:11:33Z</time></trkpt><trkpt lat="45.88457210348814" lon="12.386620234268024"><ele>33.0</ele><time>2026-05-01T11:11:34Z</time></trkpt><trkpt lat="45.884732051957116" lon="12.387050532763663"><ele>33.0</ele><time>2026-05-01T11:11:35Z</time></trkpt><trkpt lat="45.88489187471332" lon="12.387480250675827"><ele>33.0</ele><time>2026-05-01T11:11:36Z</time></trkpt><trkpt lat="45.88505091419441" lon="12.3879099016347"><ele>32.5</ele><time>2026-05-01T11:11:37Z</time></trkpt><trkpt lat="45.885212352586535" lon="12.38833804693254"><ele>32.0</ele><time>2026-05-01T11:11:38Z</time></trkpt><trkpt lat="45.88537095837094" lon="12.388766751779377"><ele>33.0</ele><time>2026-05-01T11:11:39Z</time></trkpt><trkpt lat="45.88553311140914" lon="12.38919614072704"><ele>34.0</ele><time>2026-05-01T11:11:40Z</time></trkpt><trkpt lat="45.885694064644966" lon="12.389625010180112"><ele>34.0</ele><time>2026-05-01T11:11:41Z</time></trkpt><trkpt lat="45.88585374008086" lon="12.390057182190764"><ele>34.0</ele><time>2026-05-01T11:11:42Z</time></trkpt><trkpt lat="45.88601230827244" lon="12.390489471333328"><ele>34.0</ele><time>2026-05-01T11:11:43Z</time></trkpt><trkpt lat="45.886171888258545" lon="12.390920830108552"><ele>34.0</ele><time>2026-05-01T11:11:44Z</time></trkpt><trkpt lat="45.886331949243655" lon="12.391349349546982"><ele>34.0</ele><time>2026-05-01T11:11:45Z</time></trkpt><trkpt lat="45.886492718873264" lon="12.391778856512524"><ele>34.0</ele><time>2026-05-01T11:11:46Z</time></trkpt><trkpt lat="45.886650713178796" lon="12.392210227436397"><ele>34.0</ele><time>2026-05-01T11:11:47Z</time></trkpt><trkpt lat="45.88680942474439" lon="12.392642192570488"><ele>34.0</ele><time>2026-05-01T11:11:48Z</time></trkpt><trkpt lat="45.88697002961463" lon="12.393075404802634"><ele>34.0</ele><time>2026-05-01T11:11:49Z</time></trkpt><trkpt lat="45.88712883043545" lon="12.393509495221066"><ele>34.0</ele><time>2026-05-01T11:11:50Z</time></trkpt><trkpt lat="45.88728598512679" lon="12.393946288847438"><ele>34.0</ele><time>2026-05-01T11:11:51Z</time></trkpt><trkpt lat="45.887441167508236" lon="12.394382876913461"><ele>34.0</ele><time>2026-05-01T11:11:52Z</time></trkpt><trkpt lat="45.88759486888825" lon="12.39482159466487"><ele>33.5</ele><time>2026-05-01T11:11:53Z</time></trkpt><trkpt lat="45.887748273924956" lon="12.395261503308951"><ele>33.0</ele><time>2026-05-01T11:11:54Z</time></trkpt><trkpt lat="45.88789907052043" lon="12.39570062223277"><ele>33.0</ele><time>2026-05-01T11:11:55Z</time></trkpt><trkpt lat="45.88804779174795" lon="12.396140566350892"><ele>33.0</ele><time>2026-05-01T11:11:56Z</time></trkpt><trkpt lat="45.88819470652962" lon="12.396582465639572"><ele>32.5</ele><time>2026-05-01T11:11:57Z</time></trkpt><trkpt lat="45.88833720988327" lon="12.397026484638292"><ele>32.0</ele><time>2026-05-01T11:11:58Z</time></trkpt><trkpt lat="45.88847807745725" lon="12.397472398879065"><ele>32.0</ele><time>2026-05-01T11:11:59Z</time></trkpt><trkpt lat="45.88861592769436" lon="12.397920940990808"><ele>32.0</ele><time>2026-05-01T11:12:00Z</time></trkpt><trkpt lat="45.888750307856746" lon="12.398370892510782"><ele>32.0</ele><time>2026-05-01T11:12:01Z</time></trkpt><trkpt lat="45.88888184085899" lon="12.398823231404304"><ele>32.0</ele><time>2026-05-01T11:12:02Z</time></trkpt><trkpt lat="45.8890098743674" lon="12.399275789958665"><ele>32.0</ele><time>2026-05-01T11:12:03Z</time></trkpt><trkpt lat="45.889131941942985" lon="12.399732038653562"><ele>32.0</ele><time>2026-05-01T11:12:04Z</time></trkpt><trkpt lat="45.889250375352354" lon="12.400191628472099"><ele>31.5</ele><time>2026-05-01T11:12:05Z</time></trkpt><trkpt lat="45.88936406950003" lon="12.400652338589836"><ele>31.0</ele><time>2026-05-01T11:12:06Z</time></trkpt><trkpt lat="45.88947351547188" lon="12.401114716608094"><ele>31.0</ele><time>2026-05-01T11:12:07Z</time></trkpt><trkpt lat="45.88957833909616" lon="12.401580601418825"><ele>31.0</ele><time>2026-05-01T11:12:08Z</time></trkpt><trkpt lat="45.88967853049715" lon="12.402048198454033"><ele>31.5</ele><time>2026-05-01T11:12:09Z</time></trkpt><trkpt lat="45.88977506591274" lon="12.402518082451929"><ele>32.0</ele><time>2026-05-01T11:12:10Z</time></trkpt><trkpt lat="45.88986776862938" lon="12.402989311301022"><ele>32.0</ele><time>2026-05-01T11:12:11Z</time></trkpt><trkpt lat="45.88995403320036" lon="12.403462110699468"><ele>32.0</ele><time>2026-05-01T11:12:12Z</time></trkpt><trkpt lat="45.89003404591095" lon="12.403937070025915"><ele>32.5</ele><time>2026-05-01T11:12:13Z</time></trkpt><trkpt lat="45.890109526604874" lon="12.404415592294992"><ele>33.0</ele><time>2026-05-01T11:12:14Z</time></trkpt><trkpt lat="45.89017921992478" lon="12.404896011455975"><ele>33.0</ele><time>2026-05-01T11:12:15Z</time></trkpt><trkpt lat="45.89024234026311" lon="12.405374111465889"><ele>33.0</ele><time>2026-05-01T11:12:16Z</time></trkpt><trkpt lat="45.89029995900314" lon="12.405854848980994"><ele>33.5</ele><time>2026-05-01T11:12:17Z</time></trkpt><trkpt lat="45.890353057238585" lon="12.406339165443947"><ele>34.0</ele><time>2026-05-01T11:12:18Z</time></trkpt><trkpt lat="45.8904028304" lon="12.406821789928104"><ele>33.0</ele><time>2026-05-01T11:12:19Z</time></trkpt><trkpt lat="45.8904483157218" lon="12.40731008723162"><ele>32.0</ele><time>2026-05-01T11:12:19.999Z</time></trkpt><trkpt lat="45.89049115489916" lon="12.407800160232082"><ele>31.5</ele><time>2026-05-01T11:12:20.999Z</time></trkpt><trkpt lat="45.89052932544629" lon="12.408285983084019"><ele>31.0</ele><time>2026-05-01T11:12:21.999Z</time></trkpt><trkpt lat="45.890563620304604" lon="12.408775298261336"><ele>31.0</ele><time>2026-05-01T11:12:22.999Z</time></trkpt><trkpt lat="45.8905934210367" lon="12.409262969013568"><ele>31.0</ele><time>2026-05-01T11:12:23.999Z</time></trkpt><trkpt lat="45.89062194982527" lon="12.409752813184422"><ele>31.0</ele><time>2026-05-01T11:12:24.999Z</time></trkpt><trkpt lat="45.89064645698875" lon="12.410240565971245"><ele>31.0</ele><time>2026-05-01T11:12:25.999Z</time></trkpt><trkpt lat="45.89066833800942" lon="12.410729734836885"><ele>31.0</ele><time>2026-05-01T11:12:27Z</time></trkpt><trkpt lat="45.8906888477888" lon="12.411219513875519"><ele>31.0</ele><time>2026-05-01T11:12:28Z</time></trkpt><trkpt lat="45.890707800567725" lon="12.41170830482919"><ele>31.0</ele><time>2026-05-01T11:12:29Z</time></trkpt><trkpt lat="45.89072449790527" lon="12.412196131125148"><ele>31.0</ele><time>2026-05-01T11:12:30Z</time></trkpt><trkpt lat="45.89073613698183" lon="12.41268236178975"><ele>31.0</ele><time>2026-05-01T11:12:31Z</time></trkpt><trkpt lat="45.89074589349641" lon="12.413170884638737"><ele>31.0</ele><time>2026-05-01T11:12:32Z</time></trkpt><trkpt lat="45.89075445410799" lon="12.413660976407343"><ele>30.0</ele><time>2026-05-01T11:12:33Z</time></trkpt><trkpt lat="45.89076117094895" lon="12.414150814600129"><ele>29.0</ele><time>2026-05-01T11:12:34Z</time></trkpt><trkpt lat="45.89076823316355" lon="12.41464061486395"><ele>29.0</ele><time>2026-05-01T11:12:35Z</time></trkpt><trkpt lat="45.89077537592761" lon="12.415128310445484"><ele>29.0</ele><time>2026-05-01T11:12:36Z</time></trkpt><trkpt lat="45.89078270426503" lon="12.415617978615888"><ele>29.0</ele><time>2026-05-01T11:12:37Z</time></trkpt><trkpt lat="45.89078821464006" lon="12.416105222430746"><ele>29.0</ele><time>2026-05-01T11:12:38Z</time></trkpt><trkpt lat="45.890796082099975" lon="12.416591793249708"><ele>29.0</ele><time>2026-05-01T11:12:39Z</time></trkpt><trkpt lat="45.890803652417" lon="12.417081304979435"><ele>29.0</ele><time>2026-05-01T11:12:40Z</time></trkpt><trkpt lat="45.890810104543746" lon="12.417568442623864"><ele>29.0</ele><time>2026-05-01T11:12:41Z</time></trkpt><trkpt lat="45.89081715121502" lon="12.418055310701869"><ele>29.0</ele><time>2026-05-01T11:12:42Z</time></trkpt><trkpt lat="45.890828535438224" lon="12.41854260861592"><ele>28.5</ele><time>2026-05-01T11:12:43Z</time></trkpt><trkpt lat="45.89083933934583" lon="12.419032460318494"><ele>28.0</ele><time>2026-05-01T11:12:44Z</time></trkpt><trkpt lat="45.8908503780988" lon="12.419520120405185"><ele>27.5</ele><time>2026-05-01T11:12:45Z</time></trkpt><trkpt lat="45.89086291306673" lon="12.42000907611169"><ele>27.0</ele><time>2026-05-01T11:12:46Z</time></trkpt><trkpt lat="45.89087435894592" lon="12.420498775547909"><ele>27.0</ele><time>2026-05-01T11:12:47Z</time></trkpt><trkpt lat="45.89088838476423" lon="12.42098705954881"><ele>27.0</ele><time>2026-05-01T11:12:48Z</time></trkpt><trkpt lat="45.89090454737251" lon="12.421475025126307"><ele>27.5</ele><time>2026-05-01T11:12:49Z</time></trkpt><trkpt lat="45.89092349393859" lon="12.421964253913973"><ele>28.0</ele><time>2026-05-01T11:12:50Z</time></trkpt><trkpt lat="45.890945026424376" lon="12.422452452123487"><ele>28.0</ele><time>2026-05-01T11:12:51Z</time></trkpt><trkpt lat="45.89097039953782" lon="12.422940101536124"><ele>28.0</ele><time>2026-05-01T11:12:52Z</time></trkpt><trkpt lat="45.8909967732753" lon="12.423426474063126"><ele>28.5</ele><time>2026-05-01T11:12:53Z</time></trkpt><trkpt lat="45.89102872205116" lon="12.423911458377924"><ele>29.0</ele><time>2026-05-01T11:12:54Z</time></trkpt><trkpt lat="45.891063140923976" lon="12.424396838805462"><ele>27.5</ele><time>2026-05-01T11:12:55Z</time></trkpt><trkpt lat="45.891103244294605" lon="12.424883032484011"><ele>26.0</ele><time>2026-05-01T11:12:56Z</time></trkpt><trkpt lat="45.8911445492057" lon="12.425368382647505"><ele>26.5</ele><time>2026-05-01T11:12:57Z</time></trkpt><trkpt lat="45.89119009311919" lon="12.425854168414256"><ele>27.0</ele><time>2026-05-01T11:12:58Z</time></trkpt><trkpt lat="45.89123764022816" lon="12.426338722917253"><ele>27.5</ele><time>2026-05-01T11:12:59Z</time></trkpt><trkpt lat="45.89128790953202" lon="12.426822911723939"><ele>28.0</ele><time>2026-05-01T11:13:00Z</time></trkpt><trkpt lat="45.891344372818025" lon="12.427304022425297"><ele>28.5</ele><time>2026-05-01T11:13:01Z</time></trkpt><trkpt lat="45.89140879956359" lon="12.427782326535826"><ele>29.0</ele><time>2026-05-01T11:13:02Z</time></trkpt><trkpt lat="45.891479983689216" lon="12.428260293836239"><ele>28.0</ele><time>2026-05-01T11:13:03Z</time></trkpt><trkpt lat="45.89155544495054" lon="12.428736248312129"><ele>27.0</ele><time>2026-05-01T11:13:04Z</time></trkpt><trkpt lat="45.891637206692515" lon="12.42921159110824"><ele>26.5</ele><time>2026-05-01T11:13:05Z</time></trkpt><trkpt lat="45.89172496392569" lon="12.42968515044333"><ele>26.0</ele><time>2026-05-01T11:13:06Z</time></trkpt><trkpt lat="45.891815644030345" lon="12.430158361751815"><ele>26.5</ele><time>2026-05-01T11:13:07Z</time></trkpt><trkpt lat="45.89191249064149" lon="12.430627781977202"><ele>27.0</ele><time>2026-05-01T11:13:08Z</time></trkpt><trkpt lat="45.89201443936804" lon="12.431094762865007"><ele>26.5</ele><time>2026-05-01T11:13:09Z</time></trkpt><trkpt lat="45.892120916465" lon="12.431558948070553"><ele>26.0</ele><time>2026-05-01T11:13:10Z</time></trkpt><trkpt lat="45.89223463161498" lon="12.43201924761905"><ele>25.0</ele><time>2026-05-01T11:13:11Z</time></trkpt><trkpt lat="45.89235674713682" lon="12.43247687291223"><ele>24.0</ele><time>2026-05-01T11:13:12Z</time></trkpt><trkpt lat="45.89248862925078" lon="12.43292745045872"><ele>25.0</ele><time>2026-05-01T11:13:13Z</time></trkpt><trkpt lat="45.8926278700116" lon="12.433374992074954"><ele>26.0</ele><time>2026-05-01T11:13:14Z</time></trkpt><trkpt lat="45.892773435006056" lon="12.433816535930525"><ele>26.0</ele><time>2026-05-01T11:13:15Z</time></trkpt><trkpt lat="45.8929243595843" lon="12.434253482454759"><ele>26.0</ele><time>2026-05-01T11:13:16Z</time></trkpt><trkpt lat="45.89308313858966" lon="12.434685421878237"><ele>26.0</ele><time>2026-05-01T11:13:17Z</time></trkpt><trkpt lat="45.89324708129095" lon="12.435113844941387"><ele>26.0</ele><time>2026-05-01T11:13:18Z</time></trkpt><trkpt lat="45.89341414526528" lon="12.435539150586493"><ele>24.5</ele><time>2026-05-01T11:13:19Z</time></trkpt><trkpt lat="45.89359426679017" lon="12.43595315156681"><ele>23.0</ele><time>2026-05-01T11:13:20Z</time></trkpt><trkpt lat="45.89378174085899" lon="12.436361576240804"><ele>23.0</ele><time>2026-05-01T11:13:21Z</time></trkpt><trkpt lat="45.893977199154186" lon="12.436762868997347"><ele>23.0</ele><time>2026-05-01T11:13:22Z</time></trkpt><trkpt lat="45.894177649784034" lon="12.437157981992113"><ele>24.5</ele><time>2026-05-01T11:13:23Z</time></trkpt><trkpt lat="45.89437929637035" lon="12.437542469449195"><ele>26.0</ele><time>2026-05-01T11:13:24Z</time></trkpt><trkpt lat="45.894591373905406" lon="12.43792985070741"><ele>26.0</ele><time>2026-05-01T11:13:25Z</time></trkpt><trkpt lat="45.89480526211545" lon="12.438294686446545"><ele>26.0</ele><time>2026-05-01T11:13:26Z</time></trkpt><trkpt lat="45.895035032204156" lon="12.438662489567301"><ele>26.0</ele><time>2026-05-01T11:13:27Z</time></trkpt><trkpt lat="45.89526792822764" lon="12.4390202064213"><ele>26.0</ele><time>2026-05-01T11:13:28Z</time></trkpt><trkpt lat="45.89550451603924" lon="12.439373120066234"><ele>26.0</ele><time>2026-05-01T11:13:29Z</time></trkpt><trkpt lat="45.895747977523875" lon="12.439720143336592"><ele>26.0</ele><time>2026-05-01T11:13:30Z</time></trkpt><trkpt lat="45.895993582916205" lon="12.440059281436882"><ele>26.5</ele><time>2026-05-01T11:13:31Z</time></trkpt><trkpt lat="45.89624390141947" lon="12.440391335724751"><ele>27.0</ele><time>2026-05-01T11:13:32Z</time></trkpt><trkpt lat="45.896498624756596" lon="12.440715466324122"><ele>26.0</ele><time>2026-05-01T11:13:33Z</time></trkpt><trkpt lat="45.89675638299074" lon="12.441033864302351"><ele>25.0</ele><time>2026-05-01T11:13:34Z</time></trkpt><trkpt lat="45.897019053566474" lon="12.441346769027383"><ele>25.0</ele><time>2026-05-01T11:13:35Z</time></trkpt><trkpt lat="45.897285376738104" lon="12.441653778562918"><ele>25.0</ele><time>2026-05-01T11:13:36Z</time></trkpt><trkpt lat="45.897556516524695" lon="12.441951164172693"><ele>25.5</ele><time>2026-05-01T11:13:37Z</time></trkpt><trkpt lat="45.89783049731354" lon="12.442242226422028"><ele>26.0</ele><time>2026-05-01T11:13:38Z</time></trkpt><trkpt lat="45.8981069099493" lon="12.442526569706159"><ele>26.0</ele><time>2026-05-01T11:13:39Z</time></trkpt><trkpt lat="45.89838580158801" lon="12.44280792733716"><ele>26.0</ele><time>2026-05-01T11:13:40Z</time></trkpt><trkpt lat="45.898667920750945" lon="12.443081845049257"><ele>26.5</ele><time>2026-05-01T11:13:41Z</time></trkpt><trkpt lat="45.898952726639614" lon="12.44334964446123"><ele>27.0</ele><time>2026-05-01T11:13:42Z</time></trkpt><trkpt lat="45.89924313691935" lon="12.443610971077558"><ele>28.0</ele><time>2026-05-01T11:13:43Z</time></trkpt><trkpt lat="45.89953271685472" lon="12.443869408741591"><ele>29.0</ele><time>2026-05-01T11:13:44Z</time></trkpt><trkpt lat="45.89982437516612" lon="12.444124458773029"><ele>28.5</ele><time>2026-05-01T11:13:45Z</time></trkpt><trkpt lat="45.900117566462" lon="12.4443770796972"><ele>28.0</ele><time>2026-05-01T11:13:46Z</time></trkpt><trkpt lat="45.90041058754759" lon="12.444623858544508"><ele>28.0</ele><time>2026-05-01T11:13:47Z</time></trkpt><trkpt lat="45.90070713014271" lon="12.44486608872903"><ele>28.0</ele><time>2026-05-01T11:13:48Z</time></trkpt><trkpt lat="45.901007774777206" lon="12.44510161251408"><ele>28.0</ele><time>2026-05-01T11:13:49Z</time></trkpt><trkpt lat="45.90130921978554" lon="12.445334816689877"><ele>28.0</ele><time>2026-05-01T11:13:50Z</time></trkpt><trkpt lat="45.90160982331827" lon="12.445566664288197"><ele>28.0</ele><time>2026-05-01T11:13:51Z</time></trkpt><trkpt lat="45.90191076198825" lon="12.445796395577057"><ele>28.0</ele><time>2026-05-01T11:13:52Z</time></trkpt><trkpt lat="45.902217384828006" lon="12.446019988082078"><ele>28.0</ele><time>2026-05-01T11:13:53Z</time></trkpt><trkpt lat="45.90252412095444" lon="12.446240719924146"><ele>28.0</ele><time>2026-05-01T11:13:54Z</time></trkpt><trkpt lat="45.902830507040925" lon="12.446460898966027"><ele>27.0</ele><time>2026-05-01T11:13:55Z</time></trkpt><trkpt lat="45.90313467506242" lon="12.446681840048084"><ele>26.0</ele><time>2026-05-01T11:13:56Z</time></trkpt><trkpt lat="45.903439077671145" lon="12.446901818719622"><ele>26.0</ele><time>2026-05-01T11:13:57Z</time></trkpt><trkpt lat="45.90374593271162" lon="12.44712092686562"><ele>26.0</ele><time>2026-05-01T11:13:58Z</time></trkpt><trkpt lat="45.90405408238379" lon="12.447337398668246"><ele>26.0</ele><time>2026-05-01T11:13:59Z</time></trkpt><trkpt lat="45.9043619886357" lon="12.44755264211095"><ele>26.0</ele><time>2026-05-01T11:14:00Z</time></trkpt><trkpt lat="45.90467038653967" lon="12.447765416145158"><ele>26.0</ele><time>2026-05-01T11:14:01Z</time></trkpt><trkpt lat="45.90498347809019" lon="12.447977969273968"><ele>26.0</ele><time>2026-05-01T11:14:02Z</time></trkpt><trkpt lat="45.905289635053805" lon="12.44819461144711"><ele>26.0</ele><time>2026-05-01T11:14:03Z</time></trkpt><trkpt lat="45.90559652719538" lon="12.448410986542832"><ele>26.0</ele><time>2026-05-01T11:14:04Z</time></trkpt><trkpt lat="45.905899115819835" lon="12.44863111798139"><ele>25.5</ele><time>2026-05-01T11:14:05Z</time></trkpt><trkpt lat="45.906205253289464" lon="12.44884912837219"><ele>25.0</ele><time>2026-05-01T11:14:06Z</time></trkpt><trkpt lat="45.90651058561034" lon="12.44906635543121"><ele>25.5</ele><time>2026-05-01T11:14:07Z</time></trkpt><trkpt lat="45.90681510562371" lon="12.449281782300993"><ele>26.0</ele><time>2026-05-01T11:14:08Z</time></trkpt><trkpt lat="45.90711863280191" lon="12.449496604569676"><ele>26.0</ele><time>2026-05-01T11:14:09Z</time></trkpt><trkpt lat="45.90742449331931" lon="12.449714005000164"><ele>26.0</ele><time>2026-05-01T11:14:10Z</time></trkpt><trkpt lat="45.90772780914635" lon="12.449935602931381"><ele>26.0</ele><time>2026-05-01T11:14:11Z</time></trkpt><trkpt lat="45.90802946617008" lon="12.450158528309847"><ele>26.0</ele><time>2026-05-01T11:14:12Z</time></trkpt><trkpt lat="45.9083288894523" lon="12.45038877988722"><ele>25.0</ele><time>2026-05-01T11:14:13Z</time></trkpt><trkpt lat="45.90862850317912" lon="12.450624394388"><ele>24.0</ele><time>2026-05-01T11:14:14Z</time></trkpt><trkpt lat="45.90892669429819" lon="12.450863875619685"><ele>24.0</ele><time>2026-05-01T11:14:15Z</time></trkpt><trkpt lat="45.90922339762275" lon="12.45110940170267"><ele>24.0</ele><time>2026-05-01T11:14:16Z</time></trkpt><trkpt lat="45.90951689177061" lon="12.451359251760294"><ele>26.0</ele><time>2026-05-01T11:14:17Z</time></trkpt><trkpt lat="45.90980841713408" lon="12.451615203679475"><ele>28.0</ele><time>2026-05-01T11:14:18Z</time></trkpt><trkpt lat="45.91009779290303" lon="12.451876910232922"><ele>28.0</ele><time>2026-05-01T11:14:19Z</time></trkpt><trkpt lat="45.91038357585597" lon="12.452146362515736"><ele>28.0</ele><time>2026-05-01T11:14:20Z</time></trkpt><trkpt lat="45.9106671184284" lon="12.452420847271885"><ele>28.0</ele><time>2026-05-01T11:14:21Z</time></trkpt><trkpt lat="45.9109471419882" lon="12.45270402654268"><ele>28.0</ele><time>2026-05-01T11:14:22Z</time></trkpt><trkpt lat="45.91122350474226" lon="12.452994455880633"><ele>28.0</ele><time>2026-05-01T11:14:23Z</time></trkpt><trkpt lat="45.91149561175674" lon="12.453292475944702"><ele>28.0</ele><time>2026-05-01T11:14:24Z</time></trkpt><trkpt lat="45.911762947948425" lon="12.453599806365013"><ele>27.5</ele><time>2026-05-01T11:14:25Z</time></trkpt><trkpt lat="45.91202946770016" lon="12.453911521978734"><ele>27.0</ele><time>2026-05-01T11:14:26Z</time></trkpt><trkpt lat="45.912289298667766" lon="12.454228875921146"><ele>27.0</ele><time>2026-05-01T11:14:27Z</time></trkpt><trkpt lat="45.91254154102649" lon="12.454555494286701"><ele>27.0</ele><time>2026-05-01T11:14:28Z</time></trkpt><trkpt lat="45.91279161570367" lon="12.454889825992952"><ele>26.5</ele><time>2026-05-01T11:14:29Z</time></trkpt><trkpt lat="45.91303569264119" lon="12.45523044615284"><ele>26.0</ele><time>2026-05-01T11:14:29.999Z</time></trkpt><trkpt lat="45.91327886757722" lon="12.455578213143458"><ele>25.5</ele><time>2026-05-01T11:14:30.999Z</time></trkpt><trkpt lat="45.91351440788097" lon="12.455931416033284"><ele>25.0</ele><time>2026-05-01T11:14:31.999Z</time></trkpt><trkpt lat="45.913745802889764" lon="12.456291195399743"><ele>25.0</ele><time>2026-05-01T11:14:33Z</time></trkpt><trkpt lat="45.91397242651521" lon="12.456655242904398"><ele>25.0</ele><time>2026-05-01T11:14:34Z</time></trkpt><trkpt lat="45.91419405176449" lon="12.457024833780325"><ele>25.0</ele><time>2026-05-01T11:14:35Z</time></trkpt><trkpt lat="45.914415826728515" lon="12.457396216009181"><ele>25.0</ele><time>2026-05-01T11:14:36Z</time></trkpt><trkpt lat="45.91463333747249" lon="12.457772692314995"><ele>26.0</ele><time>2026-05-01T11:14:37Z</time></trkpt><trkpt lat="45.91484580529853" lon="12.458155756196064"><ele>27.0</ele><time>2026-05-01T11:14:38Z</time></trkpt><trkpt lat="45.91505158176626" lon="12.458545635525786"><ele>26.5</ele><time>2026-05-01T11:14:39Z</time></trkpt><trkpt lat="45.91525007593204" lon="12.458945096166476"><ele>26.0</ele><time>2026-05-01T11:14:40Z</time></trkpt><trkpt lat="45.91544017996416" lon="12.45934908082266"><ele>26.5</ele><time>2026-05-01T11:14:41Z</time></trkpt><trkpt lat="45.91562629915594" lon="12.459759871584598"><ele>27.0</ele><time>2026-05-01T11:14:42Z</time></trkpt><trkpt lat="45.91580668684751" lon="12.460174484189766"><ele>26.0</ele><time>2026-05-01T11:14:43Z</time></trkpt><trkpt lat="45.91598020548918" lon="12.460593027657117"><ele>25.0</ele><time>2026-05-01T11:14:44Z</time></trkpt><trkpt lat="45.91614863807175" lon="12.461016935464555"><ele>24.0</ele><time>2026-05-01T11:14:45Z</time></trkpt><trkpt lat="45.91631227658866" lon="12.461444911841872"><ele>23.0</ele><time>2026-05-01T11:14:46Z</time></trkpt><trkpt lat="45.91647201094714" lon="12.461877867922977"><ele>23.0</ele><time>2026-05-01T11:14:47Z</time></trkpt><trkpt lat="45.916630150905526" lon="12.462310610631102"><ele>23.0</ele><time>2026-05-01T11:14:48Z</time></trkpt><trkpt lat="45.91677782468938" lon="12.46275334982449"><ele>23.0</ele><time>2026-05-01T11:14:49Z</time></trkpt><trkpt lat="45.916918713732706" lon="12.463198541453142"><ele>23.0</ele><time>2026-05-01T11:14:50Z</time></trkpt><trkpt lat="45.91705611583209" lon="12.463646348018925"><ele>23.5</ele><time>2026-05-01T11:14:51Z</time></trkpt><trkpt lat="45.91718958571101" lon="12.464096234985515"><ele>24.0</ele><time>2026-05-01T11:14:52Z</time></trkpt><trkpt lat="45.9173181049527" lon="12.464549285749142"><ele>24.0</ele><time>2026-05-01T11:14:53Z</time></trkpt><trkpt lat="45.91744295389954" lon="12.465002832296035"><ele>24.0</ele><time>2026-05-01T11:14:54Z</time></trkpt><trkpt lat="45.91756230603681" lon="12.465459200398938"><ele>24.0</ele><time>2026-05-01T11:14:55Z</time></trkpt><trkpt lat="45.91768254512314" lon="12.465916320599531"><ele>24.0</ele><time>2026-05-01T11:14:56Z</time></trkpt><trkpt lat="45.917799200382916" lon="12.466375238738937"><ele>24.5</ele><time>2026-05-01T11:14:57Z</time></trkpt><trkpt lat="45.91791337701007" lon="12.466835861600083"><ele>25.0</ele><time>2026-05-01T11:14:58Z</time></trkpt><trkpt lat="45.91802473175858" lon="12.467298579753592"><ele>25.0</ele><time>2026-05-01T11:14:59Z</time></trkpt><trkpt lat="45.91813463361612" lon="12.467760824120218"><ele>25.0</ele><time>2026-05-01T11:15:00Z</time></trkpt><trkpt lat="45.91824473286729" lon="12.468225164593521"><ele>24.5</ele><time>2026-05-01T11:15:01Z</time></trkpt><trkpt lat="45.918353511941106" lon="12.46868962569432"><ele>24.0</ele><time>2026-05-01T11:15:02Z</time></trkpt><trkpt lat="45.91846188658135" lon="12.469154278181744"><ele>24.0</ele><time>2026-05-01T11:15:03Z</time></trkpt><trkpt lat="45.91857002942171" lon="12.469619228551377"><ele>24.0</ele><time>2026-05-01T11:15:04Z</time></trkpt><trkpt lat="45.918679062703276" lon="12.47008386157992"><ele>23.5</ele><time>2026-05-01T11:15:05Z</time></trkpt><trkpt lat="45.91878931705802" lon="12.470547996568834"><ele>23.0</ele><time>2026-05-01T11:15:06Z</time></trkpt><trkpt lat="45.91889868952219" lon="12.471007175118684"><ele>23.0</ele><time>2026-05-01T11:15:07Z</time></trkpt><trkpt lat="45.9190064307249" lon="12.471461839383952"><ele>23.0</ele><time>2026-05-01T11:15:08Z</time></trkpt><trkpt lat="45.919113854238994" lon="12.471907987174275"><ele>23.0</ele><time>2026-05-01T11:15:09Z</time></trkpt><trkpt lat="45.919219486608505" lon="12.472345661099974"><ele>23.0</ele><time>2026-05-01T11:15:10Z</time></trkpt><trkpt lat="45.919325237092735" lon="12.472773961002042"><ele>24.0</ele><time>2026-05-01T11:15:11Z</time></trkpt><trkpt lat="45.919428174906116" lon="12.473190754637912"><ele>25.0</ele><time>2026-05-01T11:15:12Z</time></trkpt><trkpt lat="45.91953105152537" lon="12.473597705018516"><ele>25.0</ele><time>2026-05-01T11:15:13Z</time></trkpt><trkpt lat="45.9196327420182" lon="12.473993748775623"><ele>25.0</ele><time>2026-05-01T11:15:14Z</time></trkpt><trkpt lat="45.91973303679066" lon="12.47437584757422"><ele>24.5</ele><time>2026-05-01T11:15:15Z</time></trkpt><trkpt lat="45.91983169064513" lon="12.474742793070448"><ele>24.0</ele><time>2026-05-01T11:15:16Z</time></trkpt><trkpt lat="45.91992892540618" lon="12.475099193963029"><ele>24.5</ele><time>2026-05-01T11:15:17Z</time></trkpt><trkpt lat="45.92002366515023" lon="12.475437898418555"><ele>25.0</ele><time>2026-05-01T11:15:18Z</time></trkpt><trkpt lat="45.920117160741896" lon="12.475766268039456"><ele>25.5</ele><time>2026-05-01T11:15:19Z</time></trkpt><trkpt lat="45.920208942213876" lon="12.476081580961516"><ele>26.0</ele><time>2026-05-01T11:15:20Z</time></trkpt><trkpt lat="45.9202962142349" lon="12.476379094038458"><ele>25.333333333333332</ele><time>2026-05-01T11:15:21Z</time></trkpt><trkpt lat="45.92038024550232" lon="12.476652747954445"><ele>24.666666666666664</ele><time>2026-05-01T11:15:22Z</time></trkpt><trkpt lat="45.92046231525815" lon="12.476904016653421"><ele>24.0</ele><time>2026-05-01T11:15:23Z</time></trkpt><trkpt lat="45.920545738541875" lon="12.477133610235825"><ele>24.0</ele><time>2026-05-01T11:15:24Z</time></trkpt><trkpt lat="45.92063358436803" lon="12.477337732126978"><ele>24.0</ele><time>2026-05-01T11:15:25Z</time></trkpt><trkpt lat="45.92072410854858" lon="12.477524108609328"><ele>24.0</ele><time>2026-05-01T11:15:26Z</time></trkpt><trkpt lat="45.920771331601905" lon="12.47771528606698"><ele>24.0</ele><time>2026-05-01T11:15:27Z</time></trkpt><trkpt lat="45.92082555209023" lon="12.477885078211534"><ele>24.0</ele><time>2026-05-01T11:15:28Z</time></trkpt><trkpt lat="45.92087616992265" lon="12.478044009034003"><ele>24.0</ele><time>2026-05-01T11:15:29Z</time></trkpt><trkpt lat="45.9209242970113" lon="12.478194292259726"><ele>24.0</ele><time>2026-05-01T11:15:30Z</time></trkpt><trkpt lat="45.92096894560029" lon="12.478333713350425"><ele>23.833333333333332</ele><time>2026-05-01T11:15:31Z</time></trkpt><trkpt lat="45.92100828326547" lon="12.47845655041014"><ele>23.666666666666668</ele><time>2026-05-01T11:15:32Z</time></trkpt><trkpt lat="45.92104040002172" lon="12.478556839210894"><ele>23.5</ele><time>2026-05-01T11:15:33Z</time></trkpt><trkpt lat="45.92106753392141" lon="12.478641724183507"><ele>23.333333333333336</ele><time>2026-05-01T11:15:34Z</time></trkpt><trkpt lat="45.92111086361613" lon="12.478777287437774"><ele>23.166666666666668</ele><time>2026-05-01T11:15:36Z</time></trkpt><trkpt lat="45.921141021804" lon="12.478871641704234"><ele>23.0</ele><time>2026-05-01T11:15:38Z</time></trkpt><trkpt lat="45.92118135680714" lon="12.478997882838664"><ele>23.0</ele><time>2026-05-01T11:15:41Z</time></trkpt><trkpt lat="45.92121931957241" lon="12.47911673247704"><ele>23.0</ele><time>2026-05-01T11:15:43Z</time></trkpt><trkpt lat="45.92125136853809" lon="12.479209165921306"><ele>23.0</ele><time>2026-05-01T11:15:44Z</time></trkpt><trkpt lat="45.92129061849893" lon="12.479319926775421"><ele>23.0</ele><time>2026-05-01T11:15:45Z</time></trkpt><trkpt lat="45.92133814005608" lon="12.479453976364358"><ele>23.0</ele><time>2026-05-01T11:15:46Z</time></trkpt><trkpt lat="45.92138454289278" lon="12.479584852610818"><ele>22.75</ele><time>2026-05-01T11:15:47Z</time></trkpt><trkpt lat="45.9214356415046" lon="12.47973362938371"><ele>22.5</ele><time>2026-05-01T11:15:48Z</time></trkpt><trkpt lat="45.921492784595" lon="12.479902718689617"><ele>22.25</ele><time>2026-05-01T11:15:49Z</time></trkpt><trkpt lat="45.921556722962826" lon="12.480088478398999"><ele>22.0</ele><time>2026-05-01T11:15:50Z</time></trkpt><trkpt lat="45.92163321756853" lon="12.480267577969144"><ele>22.0</ele><time>2026-05-01T11:15:51Z</time></trkpt><trkpt lat="45.92168995224648" lon="12.480476822872538"><ele>22.0</ele><time>2026-05-01T11:15:52Z</time></trkpt><trkpt lat="45.92175650011251" lon="12.48070222441847"><ele>22.0</ele><time>2026-05-01T11:15:53Z</time></trkpt><trkpt lat="45.92183540376844" lon="12.480939663033064"><ele>22.0</ele><time>2026-05-01T11:15:54Z</time></trkpt><trkpt lat="45.921924881498676" lon="12.48119087104105"><ele>22.0</ele><time>2026-05-01T11:15:55Z</time></trkpt><trkpt lat="45.92202308734929" lon="12.481450795879573"><ele>22.0</ele><time>2026-05-01T11:15:56Z</time></trkpt><trkpt lat="45.92212154704186" lon="12.481713491078988"><ele>22.0</ele><time>2026-05-01T11:15:57Z</time></trkpt><trkpt lat="45.922225624002145" lon="12.481990808597844"><ele>22.0</ele><time>2026-05-01T11:15:58Z</time></trkpt><trkpt lat="45.92233021065227" lon="12.48228410703962"><ele>22.0</ele><time>2026-05-01T11:15:59Z</time></trkpt><trkpt lat="45.922441197123774" lon="12.482586386641605"><ele>23.0</ele><time>2026-05-01T11:16:00Z</time></trkpt><trkpt lat="45.922557250029676" lon="12.482897953963628"><ele>24.0</ele><time>2026-05-01T11:16:01Z</time></trkpt><trkpt lat="45.92267669798968" lon="12.483218197826748"><ele>25.0</ele><time>2026-05-01T11:16:02Z</time></trkpt><trkpt lat="45.922799830695865" lon="12.483550107190355"><ele>26.0</ele><time>2026-05-01T11:16:03Z</time></trkpt><trkpt lat="45.922927958272425" lon="12.483889867671515"><ele>27.0</ele><time>2026-05-01T11:16:04Z</time></trkpt><trkpt lat="45.923060551074244" lon="12.48424012624584"><ele>28.0</ele><time>2026-05-01T11:16:05Z</time></trkpt><trkpt lat="45.92319767358291" lon="12.484598456802619"><ele>28.0</ele><time>2026-05-01T11:16:06Z</time></trkpt><trkpt lat="45.923337510387" lon="12.484964249829396"><ele>28.0</ele><time>2026-05-01T11:16:07Z</time></trkpt><trkpt lat="45.92348090613351" lon="12.485344726669007"><ele>28.0</ele><time>2026-05-01T11:16:08Z</time></trkpt><trkpt lat="45.923629199188646" lon="12.48572618954698"><ele>28.0</ele><time>2026-05-01T11:16:09Z</time></trkpt><trkpt lat="45.92377462785362" lon="12.486118159361444"><ele>25.0</ele><time>2026-05-01T11:16:10Z</time></trkpt><trkpt lat="45.923923819070325" lon="12.486517153387588"><ele>22.0</ele><time>2026-05-01T11:16:11Z</time></trkpt><trkpt lat="45.924075523871714" lon="12.486922245488397"><ele>22.0</ele><time>2026-05-01T11:16:12Z</time></trkpt><trkpt lat="45.924229509444466" lon="12.487333238484464"><ele>22.0</ele><time>2026-05-01T11:16:13Z</time></trkpt><trkpt lat="45.92438654310744" lon="12.487749205077975"><ele>22.0</ele><time>2026-05-01T11:16:14Z</time></trkpt><trkpt lat="45.92454511390715" lon="12.488169811759525"><ele>22.0</ele><time>2026-05-01T11:16:15Z</time></trkpt><trkpt lat="45.9247022693213" lon="12.48859585271688"><ele>23.0</ele><time>2026-05-01T11:16:16Z</time></trkpt><trkpt lat="45.92485721459039" lon="12.489029914405902"><ele>24.0</ele><time>2026-05-01T11:16:17Z</time></trkpt><trkpt lat="45.92500650821132" lon="12.48946966290301"><ele>23.0</ele><time>2026-05-01T11:16:18Z</time></trkpt><trkpt lat="45.925152956428484" lon="12.489915634759384"><ele>22.0</ele><time>2026-05-01T11:16:19Z</time></trkpt><trkpt lat="45.92529565024366" lon="12.490363303919672"><ele>22.0</ele><time>2026-05-01T11:16:20Z</time></trkpt><trkpt lat="45.92543276595866" lon="12.490810300932912"><ele>22.0</ele><time>2026-05-01T11:16:21Z</time></trkpt><trkpt lat="45.925566500006035" lon="12.49125804651218"><ele>22.5</ele><time>2026-05-01T11:16:22Z</time></trkpt><trkpt lat="45.92569564430287" lon="12.491706753107584"><ele>23.0</ele><time>2026-05-01T11:16:23Z</time></trkpt><trkpt lat="45.92582058384871" lon="12.49216020136113"><ele>22.5</ele><time>2026-05-01T11:16:24Z</time></trkpt><trkpt lat="45.925938867356315" lon="12.492617185738512"><ele>22.0</ele><time>2026-05-01T11:16:25Z</time></trkpt><trkpt lat="45.92605341528035" lon="12.493076203402307"><ele>22.0</ele><time>2026-05-01T11:16:26Z</time></trkpt><trkpt lat="45.92616260054717" lon="12.493538286305743"><ele>22.0</ele><time>2026-05-01T11:16:27Z</time></trkpt><trkpt lat="45.926266471682716" lon="12.494004590347576"><ele>21.5</ele><time>2026-05-01T11:16:28Z</time></trkpt><trkpt lat="45.92636852727934" lon="12.494472639289123"><ele>21.0</ele><time>2026-05-01T11:16:29Z</time></trkpt><trkpt lat="45.92646397262753" lon="12.494942989472817"><ele>22.0</ele><time>2026-05-01T11:16:30Z</time></trkpt><trkpt lat="45.926553417863495" lon="12.495415461508443"><ele>23.0</ele><time>2026-05-01T11:16:31Z</time></trkpt><trkpt lat="45.92663879405569" lon="12.495890259070332"><ele>22.0</ele><time>2026-05-01T11:16:32Z</time></trkpt><trkpt lat="45.92672027672826" lon="12.496366729610886"><ele>21.0</ele><time>2026-05-01T11:16:33Z</time></trkpt><trkpt lat="45.926798792862506" lon="12.496844337198144"><ele>20.5</ele><time>2026-05-01T11:16:34Z</time></trkpt><trkpt lat="45.92687113365025" lon="12.497319351784228"><ele>20.0</ele><time>2026-05-01T11:16:35Z</time></trkpt><trkpt lat="45.926935106341915" lon="12.497783287605875"><ele>19.0</ele><time>2026-05-01T11:16:36Z</time></trkpt><trkpt lat="45.926994022855894" lon="12.498237779442526"><ele>18.0</ele><time>2026-05-01T11:16:37Z</time></trkpt><trkpt lat="45.9270469159861" lon="12.498686184319956"><ele>17.5</ele><time>2026-05-01T11:16:38Z</time></trkpt><trkpt lat="45.927096350829906" lon="12.499133434423523"><ele>17.0</ele><time>2026-05-01T11:16:39Z</time></trkpt><trkpt lat="45.92714368859988" lon="12.499582183313994"><ele>17.0</ele><time>2026-05-01T11:16:40Z</time></trkpt><trkpt lat="45.92718985451258" lon="12.500025710967435"><ele>17.0</ele><time>2026-05-01T11:16:41Z</time></trkpt><trkpt lat="45.92723098399511" lon="12.500465492761277"><ele>17.0</ele><time>2026-05-01T11:16:42Z</time></trkpt><trkpt lat="45.927268214472925" lon="12.500906488835906"><ele>17.0</ele><time>2026-05-01T11:16:43Z</time></trkpt><trkpt lat="45.92730599923813" lon="12.501347161101945"><ele>17.0</ele><time>2026-05-01T11:16:44Z</time></trkpt><trkpt lat="45.92734535690581" lon="12.501793479562156"><ele>17.0</ele><time>2026-05-01T11:16:45Z</time></trkpt><trkpt lat="45.92738411962573" lon="12.50224072204108"><ele>17.0</ele><time>2026-05-01T11:16:46Z</time></trkpt><trkpt lat="45.92741917891769" lon="12.50269403611832"><ele>17.0</ele><time>2026-05-01T11:16:47Z</time></trkpt><trkpt lat="45.927454469711044" lon="12.503147538437815"><ele>18.0</ele><time>2026-05-01T11:16:48Z</time></trkpt><trkpt lat="45.92748948164275" lon="12.503600928619994"><ele>19.0</ele><time>2026-05-01T11:16:49Z</time></trkpt><trkpt lat="45.927522288137574" lon="12.504057002059367"><ele>19.0</ele><time>2026-05-01T11:16:50Z</time></trkpt><trkpt lat="45.927556335663326" lon="12.504517929996995"><ele>19.0</ele><time>2026-05-01T11:16:51Z</time></trkpt><trkpt lat="45.927593008435686" lon="12.504981523251454"><ele>18.5</ele><time>2026-05-01T11:16:52Z</time></trkpt><trkpt lat="45.927629838725544" lon="12.505446515349332"><ele>18.0</ele><time>2026-05-01T11:16:53Z</time></trkpt><trkpt lat="45.9276672425257" lon="12.505916667836807"><ele>17.5</ele><time>2026-05-01T11:16:54Z</time></trkpt><trkpt lat="45.92770531172087" lon="12.506385448279737"><ele>17.0</ele><time>2026-05-01T11:16:55Z</time></trkpt><trkpt lat="45.92774298073536" lon="12.50685309420676"><ele>16.5</ele><time>2026-05-01T11:16:56Z</time></trkpt><trkpt lat="45.927783191581625" lon="12.50731676418066"><ele>16.0</ele><time>2026-05-01T11:16:57Z</time></trkpt><trkpt lat="45.927823602094115" lon="12.507781598747457"><ele>17.0</ele><time>2026-05-01T11:16:58Z</time></trkpt><trkpt lat="45.927865730692886" lon="12.508248949259297"><ele>18.0</ele><time>2026-05-01T11:16:59Z</time></trkpt><trkpt lat="45.927913927312275" lon="12.508714775566371"><ele>18.0</ele><time>2026-05-01T11:17:00Z</time></trkpt><trkpt lat="45.92796956849499" lon="12.509178216146745"><ele>18.0</ele><time>2026-05-01T11:17:01Z</time></trkpt><trkpt lat="45.928032037252926" lon="12.509641359441257"><ele>17.0</ele><time>2026-05-01T11:17:02Z</time></trkpt><trkpt lat="45.92810405991092" lon="12.51010386033293"><ele>16.0</ele><time>2026-05-01T11:17:03Z</time></trkpt><trkpt lat="45.928188116738774" lon="12.510565032426886"><ele>16.0</ele><time>2026-05-01T11:17:04Z</time></trkpt><trkpt lat="45.928286486285565" lon="12.511024293351763"><ele>16.0</ele><time>2026-05-01T11:17:05Z</time></trkpt><trkpt lat="45.92839967994141" lon="12.511478890235269"><ele>16.0</ele><time>2026-05-01T11:17:06Z</time></trkpt><trkpt lat="45.92852541396962" lon="12.511929684299009"><ele>16.0</ele><time>2026-05-01T11:17:07Z</time></trkpt><trkpt lat="45.9286650837188" lon="12.512372386332542"><ele>16.5</ele><time>2026-05-01T11:17:08Z</time></trkpt><trkpt lat="45.92881788502648" lon="12.51280830553951"><ele>17.0</ele><time>2026-05-01T11:17:09Z</time></trkpt><trkpt lat="45.92898106503818" lon="12.513232947677842"><ele>17.0</ele><time>2026-05-01T11:17:10Z</time></trkpt><trkpt lat="45.92915267054478" lon="12.513640550078895"><ele>17.0</ele><time>2026-05-01T11:17:11Z</time></trkpt><trkpt lat="45.929334428008836" lon="12.514034555411117"><ele>17.0</ele><time>2026-05-01T11:17:12Z</time></trkpt><trkpt lat="45.929522797183004" lon="12.51441572362424"><ele>17.0</ele><time>2026-05-01T11:17:13Z</time></trkpt><trkpt lat="45.92971879684641" lon="12.51478391736198"><ele>18.0</ele><time>2026-05-01T11:17:14Z</time></trkpt><trkpt lat="45.92991889387762" lon="12.515140384479976"><ele>19.0</ele><time>2026-05-01T11:17:15Z</time></trkpt><trkpt lat="45.93012331598072" lon="12.515487759444786"><ele>19.0</ele><time>2026-05-01T11:17:16Z</time></trkpt><trkpt lat="45.930336594748724" lon="12.51583055656445"><ele>19.0</ele><time>2026-05-01T11:17:17Z</time></trkpt><trkpt lat="45.930556878986245" lon="12.516171337373171"><ele>19.5</ele><time>2026-05-01T11:17:18Z</time></trkpt><trkpt lat="45.93078116217611" lon="12.516513440131723"><ele>20.0</ele><time>2026-05-01T11:17:19Z</time></trkpt><trkpt lat="45.931006534685594" lon="12.516858370379122"><ele>20.0</ele><time>2026-05-01T11:17:20Z</time></trkpt><trkpt lat="45.93123552301565" lon="12.517204806774712"><ele>20.0</ele><time>2026-05-01T11:17:21Z</time></trkpt><trkpt lat="45.9314644190507" lon="12.517548001551734"><ele>20.0</ele><time>2026-05-01T11:17:22Z</time></trkpt><trkpt lat="45.93169113869559" lon="12.517889090972577"><ele>20.0</ele><time>2026-05-01T11:17:23Z</time></trkpt><trkpt lat="45.93191568805268" lon="12.518228799535668"><ele>19.5</ele><time>2026-05-01T11:17:24Z</time></trkpt><trkpt lat="45.932142886361845" lon="12.518567287925597"><ele>19.0</ele><time>2026-05-01T11:17:25Z</time></trkpt><trkpt lat="45.9323720415345" lon="12.51890917910865"><ele>19.0</ele><time>2026-05-01T11:17:26Z</time></trkpt><trkpt lat="45.932602530061445" lon="12.519256933988421"><ele>19.0</ele><time>2026-05-01T11:17:27Z</time></trkpt><trkpt lat="45.93283175688874" lon="12.519602144098084"><ele>19.0</ele><time>2026-05-01T11:17:28Z</time></trkpt><trkpt lat="45.9330584504998" lon="12.519944535078716"><ele>19.0</ele><time>2026-05-01T11:17:29Z</time></trkpt><trkpt lat="45.933287083164544" lon="12.520287648620746"><ele>19.0</ele><time>2026-05-01T11:17:30Z</time></trkpt><trkpt lat="45.93351764014178" lon="12.520636084562817"><ele>19.0</ele><time>2026-05-01T11:17:31Z</time></trkpt><trkpt lat="45.933752291688535" lon="12.520986970348673"><ele>19.0</ele><time>2026-05-01T11:17:32Z</time></trkpt><trkpt lat="45.93398895704873" lon="12.521340316782863"><ele>19.0</ele><time>2026-05-01T11:17:33Z</time></trkpt><trkpt lat="45.93422661855889" lon="12.521693153570657"><ele>19.0</ele><time>2026-05-01T11:17:34Z</time></trkpt><trkpt lat="45.93446361572841" lon="12.522045307357272"><ele>19.0</ele><time>2026-05-01T11:17:35Z</time></trkpt><trkpt lat="45.93469859052223" lon="12.522399274761034"><ele>19.0</ele><time>2026-05-01T11:17:36Z</time></trkpt><trkpt lat="45.934930100294196" lon="12.522758263191289"><ele>19.0</ele><time>2026-05-01T11:17:37Z</time></trkpt><trkpt lat="45.93515383270445" lon="12.523119670943997"><ele>19.0</ele><time>2026-05-01T11:17:38Z</time></trkpt><trkpt lat="45.935385024431994" lon="12.523486130429324"><ele>19.0</ele><time>2026-05-01T11:17:39Z</time></trkpt><trkpt lat="45.93561797000243" lon="12.523845687706801"><ele>19.5</ele><time>2026-05-01T11:17:40Z</time></trkpt><trkpt lat="45.935849004263936" lon="12.52420361980016"><ele>20.0</ele><time>2026-05-01T11:17:41Z</time></trkpt><trkpt lat="45.93608277397138" lon="12.524559030673267"><ele>19.0</ele><time>2026-05-01T11:17:42Z</time></trkpt><trkpt lat="45.9363159160043" lon="12.524912062383892"><ele>18.0</ele><time>2026-05-01T11:17:43Z</time></trkpt><trkpt lat="45.93655138123728" lon="12.525262053557555"><ele>19.5</ele><time>2026-05-01T11:17:44Z</time></trkpt><trkpt lat="45.93679023768689" lon="12.525611081082955"><ele>21.0</ele><time>2026-05-01T11:17:45Z</time></trkpt><trkpt lat="45.937031289269626" lon="12.525960476285112"><ele>21.0</ele><time>2026-05-01T11:17:46Z</time></trkpt><trkpt lat="45.937269988289245" lon="12.52631357369601"><ele>21.0</ele><time>2026-05-01T11:17:47Z</time></trkpt><trkpt lat="45.937507534235706" lon="12.526668011816978"><ele>22.0</ele><time>2026-05-01T11:17:48Z</time></trkpt><trkpt lat="45.93774402249826" lon="12.527026138208958"><ele>23.0</ele><time>2026-05-01T11:17:49Z</time></trkpt><trkpt lat="45.93797652227418" lon="12.527388965079869"><ele>23.0</ele><time>2026-05-01T11:17:50Z</time></trkpt><trkpt lat="45.93820587463074" lon="12.5277552563193"><ele>23.0</ele><time>2026-05-01T11:17:51Z</time></trkpt><trkpt lat="45.93843038482757" lon="12.528121704026205"><ele>23.5</ele><time>2026-05-01T11:17:52Z</time></trkpt><trkpt lat="45.93865185674183" lon="12.528494115858976"><ele>24.0</ele><time>2026-05-01T11:17:53Z</time></trkpt><trkpt lat="45.93886639065835" lon="12.528874468851638"><ele>24.0</ele><time>2026-05-01T11:17:54Z</time></trkpt><trkpt lat="45.9390789738944" lon="12.529257576277795"><ele>24.0</ele><time>2026-05-01T11:17:55Z</time></trkpt><trkpt lat="45.93928919956256" lon="12.5296440036835"><ele>23.0</ele><time>2026-05-01T11:17:56Z</time></trkpt><trkpt lat="45.9394917797741" lon="12.53003669166114"><ele>22.0</ele><time>2026-05-01T11:17:57Z</time></trkpt><trkpt lat="45.939682815231556" lon="12.530439730681637"><ele>22.0</ele><time>2026-05-01T11:17:58Z</time></trkpt><trkpt lat="45.93986750739116" lon="12.530850070466828"><ele>22.0</ele><time>2026-05-01T11:17:59Z</time></trkpt><trkpt lat="45.940045724809956" lon="12.531267527750996"><ele>22.5</ele><time>2026-05-01T11:18:00Z</time></trkpt><trkpt lat="45.940215801949066" lon="12.531690591377219"><ele>23.0</ele><time>2026-05-01T11:18:01Z</time></trkpt><trkpt lat="45.940374659110184" lon="12.532120799704177"><ele>23.5</ele><time>2026-05-01T11:18:02Z</time></trkpt><trkpt lat="45.94052382333098" lon="12.532557430328536"><ele>24.0</ele><time>2026-05-01T11:18:03Z</time></trkpt><trkpt lat="45.94066199603921" lon="12.53300255729816"><ele>23.0</ele><time>2026-05-01T11:18:04Z</time></trkpt><trkpt lat="45.940794342415934" lon="12.53345246756217"><ele>22.0</ele><time>2026-05-01T11:18:05Z</time></trkpt><trkpt lat="45.940918353480775" lon="12.533907541462705"><ele>24.0</ele><time>2026-05-01T11:18:06Z</time></trkpt><trkpt lat="45.94103223960389" lon="12.534365779166196"><ele>26.0</ele><time>2026-05-01T11:18:07Z</time></trkpt><trkpt lat="45.94113579737965" lon="12.53483079616433"><ele>26.0</ele><time>2026-05-01T11:18:08Z</time></trkpt><trkpt lat="45.94123150844509" lon="12.535297403252816"><ele>26.0</ele><time>2026-05-01T11:18:09Z</time></trkpt><trkpt lat="45.94131819261698" lon="12.53576912943814"><ele>26.0</ele><time>2026-05-01T11:18:10Z</time></trkpt><trkpt lat="45.9413956011781" lon="12.536245146930344"><ele>26.0</ele><time>2026-05-01T11:18:11Z</time></trkpt><trkpt lat="45.94146366472956" lon="12.536725383772039"><ele>26.0</ele><time>2026-05-01T11:18:12Z</time></trkpt><trkpt lat="45.94152121803576" lon="12.537207250106592"><ele>26.0</ele><time>2026-05-01T11:18:13Z</time></trkpt><trkpt lat="45.941567176396674" lon="12.537693428784975"><ele>24.5</ele><time>2026-05-01T11:18:14Z</time></trkpt><trkpt lat="45.94160351969899" lon="12.538178113786456"><ele>23.0</ele><time>2026-05-01T11:18:15Z</time></trkpt><trkpt lat="45.94162805538105" lon="12.538667919185036"><ele>23.5</ele><time>2026-05-01T11:18:16Z</time></trkpt><trkpt lat="45.94164490157053" lon="12.539156784958903"><ele>24.0</ele><time>2026-05-01T11:18:17Z</time></trkpt><trkpt lat="45.94165082650358" lon="12.53964889391397"><ele>24.0</ele><time>2026-05-01T11:18:18Z</time></trkpt><trkpt lat="45.941642750358056" lon="12.540142335411165"><ele>24.0</ele><time>2026-05-01T11:18:19Z</time></trkpt><trkpt lat="45.94162786021248" lon="12.540632329655232"><ele>25.0</ele><time>2026-05-01T11:18:20Z</time></trkpt><trkpt lat="45.94160313574432" lon="12.541123897527978"><ele>26.0</ele><time>2026-05-01T11:18:21Z</time></trkpt><trkpt lat="45.94156649907085" lon="12.541613747711354"><ele>25.0</ele><time>2026-05-01T11:18:22Z</time></trkpt><trkpt lat="45.94152150344028" lon="12.542099405482832"><ele>24.0</ele><time>2026-05-01T11:18:23Z</time></trkpt><trkpt lat="45.94146952662545" lon="12.54258725284336"><ele>22.5</ele><time>2026-05-01T11:18:24Z</time></trkpt><trkpt lat="45.94141304917257" lon="12.54307237168852"><ele>21.0</ele><time>2026-05-01T11:18:25Z</time></trkpt><trkpt lat="45.94135098917333" lon="12.54355518959537"><ele>22.0</ele><time>2026-05-01T11:18:26Z</time></trkpt><trkpt lat="45.94128392075152" lon="12.544036600449468"><ele>23.0</ele><time>2026-05-01T11:18:27Z</time></trkpt><trkpt lat="45.94121380905647" lon="12.544515723906024"><ele>23.5</ele><time>2026-05-01T11:18:28Z</time></trkpt><trkpt lat="45.94114179691863" lon="12.544995719472192"><ele>24.0</ele><time>2026-05-01T11:18:29Z</time></trkpt><trkpt lat="45.94106739471093" lon="12.54547502606451"><ele>24.0</ele><time>2026-05-01T11:18:30Z</time></trkpt><trkpt lat="45.94098966388814" lon="12.545953079205999"><ele>24.0</ele><time>2026-05-01T11:18:31Z</time></trkpt><trkpt lat="45.940908492796154" lon="12.546428922369575"><ele>23.5</ele><time>2026-05-01T11:18:32Z</time></trkpt><trkpt lat="45.9408241383445" lon="12.546903828060453"><ele>23.0</ele><time>2026-05-01T11:18:32.999Z</time></trkpt><trkpt lat="45.94073888509958" lon="12.547376811768839"><ele>23.0</ele><time>2026-05-01T11:18:33.999Z</time></trkpt><trkpt lat="45.94065380720643" lon="12.547846123499042"><ele>23.0</ele><time>2026-05-01T11:18:34.999Z</time></trkpt><trkpt lat="45.940569203531695" lon="12.548318952110066"><ele>23.0</ele><time>2026-05-01T11:18:35.999Z</time></trkpt><trkpt lat="45.940488002699205" lon="12.548790743776634"><ele>23.0</ele><time>2026-05-01T11:18:36.999Z</time></trkpt><trkpt lat="45.94041372815035" lon="12.549267490857273"><ele>22.5</ele><time>2026-05-01T11:18:37.999Z</time></trkpt><trkpt lat="45.94034348227478" lon="12.549744191779848"><ele>22.0</ele><time>2026-05-01T11:18:38.999Z</time></trkpt><trkpt lat="45.940281513150914" lon="12.55022503246231"><ele>22.5</ele><time>2026-05-01T11:18:39.999Z</time></trkpt><trkpt lat="45.94022557606579" lon="12.550707562980863"><ele>23.0</ele><time>2026-05-01T11:18:40.999Z</time></trkpt><trkpt lat="45.9401767471047" lon="12.551191979790776"><ele>23.0</ele><time>2026-05-01T11:18:41.999Z</time></trkpt><trkpt lat="45.94013702290712" lon="12.551677341823803"><ele>23.0</ele><time>2026-05-01T11:18:42.999Z</time></trkpt><trkpt lat="45.94011173848721" lon="12.552163603169523"><ele>23.5</ele><time>2026-05-01T11:18:43.999Z</time></trkpt><trkpt lat="45.94009601870467" lon="12.552653983965591"><ele>24.0</ele><time>2026-05-01T11:18:45Z</time></trkpt><trkpt lat="45.9400918124436" lon="12.55314132915317"><ele>24.0</ele><time>2026-05-01T11:18:46Z</time></trkpt><trkpt lat="45.94010247695493" lon="12.553625008825932"><ele>24.0</ele><time>2026-05-01T11:18:47Z</time></trkpt><trkpt lat="45.94011870357679" lon="12.554117990448443"><ele>23.0</ele><time>2026-05-01T11:18:48Z</time></trkpt><trkpt lat="45.94014730096193" lon="12.554605302552691"><ele>22.0</ele><time>2026-05-01T11:18:49Z</time></trkpt><trkpt lat="45.94019070535355" lon="12.55509071394541"><ele>22.5</ele><time>2026-05-01T11:18:50Z</time></trkpt><trkpt lat="45.94024920478684" lon="12.555574575076822"><ele>23.0</ele><time>2026-05-01T11:18:51Z</time></trkpt><trkpt lat="45.94031468005224" lon="12.556056764220616"><ele>23.5</ele><time>2026-05-01T11:18:52Z</time></trkpt><trkpt lat="45.940390197162586" lon="12.556535323467676"><ele>24.0</ele><time>2026-05-01T11:18:53Z</time></trkpt><trkpt lat="45.94047347558881" lon="12.557010487182941"><ele>23.5</ele><time>2026-05-01T11:18:54Z</time></trkpt><trkpt lat="45.94056917462531" lon="12.557483278293086"><ele>23.0</ele><time>2026-05-01T11:18:55Z</time></trkpt><trkpt lat="45.940667813562754" lon="12.557955614216946"><ele>23.0</ele><time>2026-05-01T11:18:56Z</time></trkpt><trkpt lat="45.940773846141035" lon="12.558422036760716"><ele>23.0</ele><time>2026-05-01T11:18:57Z</time></trkpt><trkpt lat="45.9408814361487" lon="12.55888712322184"><ele>23.0</ele><time>2026-05-01T11:18:58Z</time></trkpt><trkpt lat="45.94098931287878" lon="12.559350333877742"><ele>23.0</ele><time>2026-05-01T11:18:59Z</time></trkpt><trkpt lat="45.94109829858772" lon="12.559814221660572"><ele>23.0</ele><time>2026-05-01T11:19:00Z</time></trkpt><trkpt lat="45.94121060057864" lon="12.560276035083142"><ele>23.0</ele><time>2026-05-01T11:19:01Z</time></trkpt><trkpt lat="45.941324673612975" lon="12.56073583935967"><ele>23.0</ele><time>2026-05-01T11:19:02Z</time></trkpt><trkpt lat="45.94143832817306" lon="12.561197121619003"><ele>23.0</ele><time>2026-05-01T11:19:03Z</time></trkpt><trkpt lat="45.941551170373494" lon="12.561659355115905"><ele>24.0</ele><time>2026-05-01T11:19:04Z</time></trkpt><trkpt lat="45.941661735028426" lon="12.562119900860731"><ele>25.0</ele><time>2026-05-01T11:19:05Z</time></trkpt><trkpt lat="45.94177276768202" lon="12.562581739426303"><ele>24.5</ele><time>2026-05-01T11:19:06Z</time></trkpt><trkpt lat="45.94188472362559" lon="12.563044112611937"><ele>24.0</ele><time>2026-05-01T11:19:07Z</time></trkpt><trkpt lat="45.94199676572714" lon="12.563505472258823"><ele>23.5</ele><time>2026-05-01T11:19:08Z</time></trkpt><trkpt lat="45.94210848788412" lon="12.563967150286334"><ele>23.0</ele><time>2026-05-01T11:19:09Z</time></trkpt><trkpt lat="45.94222155434933" lon="12.564427552994104"><ele>22.5</ele><time>2026-05-01T11:19:10Z</time></trkpt><trkpt lat="45.942334348383156" lon="12.564888529839354"><ele>22.0</ele><time>2026-05-01T11:19:11Z</time></trkpt><trkpt lat="45.94244646950648" lon="12.565350125599123"><ele>22.0</ele><time>2026-05-01T11:19:12Z</time></trkpt><trkpt lat="45.942556998763614" lon="12.565811991804537"><ele>22.0</ele><time>2026-05-01T11:19:13Z</time></trkpt><trkpt lat="45.94266653776359" lon="12.566275467120422"><ele>22.5</ele><time>2026-05-01T11:19:14Z</time></trkpt><trkpt lat="45.94277738786684" lon="12.56673907266019"><ele>23.0</ele><time>2026-05-01T11:19:15Z</time></trkpt><trkpt lat="45.94288754824485" lon="12.567201394374466"><ele>23.5</ele><time>2026-05-01T11:19:16Z</time></trkpt><trkpt lat="45.94299747533288" lon="12.567664493060876"><ele>24.0</ele><time>2026-05-01T11:19:17Z</time></trkpt><trkpt lat="45.94310752303988" lon="12.568126094226125"><ele>24.0</ele><time>2026-05-01T11:19:18Z</time></trkpt><trkpt lat="45.94321846425912" lon="12.568589391353303"><ele>24.0</ele><time>2026-05-01T11:19:19Z</time></trkpt><trkpt lat="45.9433322135636" lon="12.569049664575909"><ele>23.0</ele><time>2026-05-01T11:19:20Z</time></trkpt><trkpt lat="45.94344394943667" lon="12.569511005982077"><ele>22.0</ele><time>2026-05-01T11:19:21Z</time></trkpt><trkpt lat="45.94355598158513" lon="12.56997012659519"><ele>21.0</ele><time>2026-05-01T11:19:22Z</time></trkpt><trkpt lat="45.94366809443743" lon="12.57043329823546"><ele>20.0</ele><time>2026-05-01T11:19:23Z</time></trkpt><trkpt lat="45.94377914035111" lon="12.570896154246386"><ele>19.5</ele><time>2026-05-01T11:19:24Z</time></trkpt><trkpt lat="45.943891421085006" lon="12.571360679249779"><ele>19.0</ele><time>2026-05-01T11:19:25Z</time></trkpt><trkpt lat="45.9440043828311" lon="12.57182224779879"><ele>18.5</ele><time>2026-05-01T11:19:26Z</time></trkpt><trkpt lat="45.944117751228" lon="12.572284017514146"><ele>18.0</ele><time>2026-05-01T11:19:27Z</time></trkpt><trkpt lat="45.94423211504131" lon="12.572748179495402"><ele>18.5</ele><time>2026-05-01T11:19:28Z</time></trkpt><trkpt lat="45.94434539590617" lon="12.5732112139908"><ele>19.0</ele><time>2026-05-01T11:19:29Z</time></trkpt><trkpt lat="45.94445702737626" lon="12.573673500756172"><ele>19.5</ele><time>2026-05-01T11:19:30Z</time></trkpt><trkpt lat="45.94456774208812" lon="12.57413520803483"><ele>20.0</ele><time>2026-05-01T11:19:31Z</time></trkpt><trkpt lat="45.94467825064905" lon="12.574596843138247"><ele>20.0</ele><time>2026-05-01T11:19:32Z</time></trkpt><trkpt lat="45.94478936942115" lon="12.575059307800466"><ele>20.0</ele><time>2026-05-01T11:19:33Z</time></trkpt><trkpt lat="45.94490122281781" lon="12.575520906969214"><ele>20.5</ele><time>2026-05-01T11:19:34Z</time></trkpt><trkpt lat="45.94501008320042" lon="12.57598491430925"><ele>21.0</ele><time>2026-05-01T11:19:35Z</time></trkpt><trkpt lat="45.945119198917055" lon="12.576450299574475"><ele>22.0</ele><time>2026-05-01T11:19:36Z</time></trkpt><trkpt lat="45.945229976102475" lon="12.576913658077785"><ele>23.0</ele><time>2026-05-01T11:19:37Z</time></trkpt><trkpt lat="45.94534151013918" lon="12.57737389617467"><ele>23.0</ele><time>2026-05-01T11:19:38Z</time></trkpt><trkpt lat="45.94545302510823" lon="12.57783891291054"><ele>23.0</ele><time>2026-05-01T11:19:39Z</time></trkpt><trkpt lat="45.94556651793438" lon="12.578300612011954"><ele>22.5</ele><time>2026-05-01T11:19:40Z</time></trkpt><trkpt lat="45.94567900909476" lon="12.578760613759204"><ele>22.0</ele><time>2026-05-01T11:19:41Z</time></trkpt><trkpt lat="45.94579023236664" lon="12.5792223544713"><ele>22.5</ele><time>2026-05-01T11:19:42Z</time></trkpt><trkpt lat="45.94589883467789" lon="12.579686775732975"><ele>23.0</ele><time>2026-05-01T11:19:43Z</time></trkpt><trkpt lat="45.946009106620274" lon="12.580150751646991"><ele>24.0</ele><time>2026-05-01T11:19:44Z</time></trkpt><trkpt lat="45.94612087919869" lon="12.580612931129533"><ele>25.0</ele><time>2026-05-01T11:19:45Z</time></trkpt><trkpt lat="45.94623363136103" lon="12.581075530307189"><ele>25.0</ele><time>2026-05-01T11:19:46Z</time></trkpt><trkpt lat="45.946345230737194" lon="12.581538512443673"><ele>25.0</ele><time>2026-05-01T11:19:47Z</time></trkpt><trkpt lat="45.94645366126677" lon="12.582003459088899"><ele>24.0</ele><time>2026-05-01T11:19:48Z</time></trkpt><trkpt lat="45.946556984834984" lon="12.582469677041718"><ele>23.0</ele><time>2026-05-01T11:19:49Z</time></trkpt><trkpt lat="45.9466568318077" lon="12.58293734577188"><ele>23.0</ele><time>2026-05-01T11:19:50Z</time></trkpt><trkpt lat="45.94675168963631" lon="12.583407241133601"><ele>23.0</ele><time>2026-05-01T11:19:51Z</time></trkpt><trkpt lat="45.9468403847787" lon="12.583879947649004"><ele>23.0</ele><time>2026-05-01T11:19:52Z</time></trkpt><trkpt lat="45.9469232188732" lon="12.584355061544187"><ele>23.0</ele><time>2026-05-01T11:19:53Z</time></trkpt><trkpt lat="45.94700139759334" lon="12.584834082796268"><ele>24.5</ele><time>2026-05-01T11:19:54Z</time></trkpt><trkpt lat="45.94707272585007" lon="12.585311233108856"><ele>26.0</ele><time>2026-05-01T11:19:55Z</time></trkpt><trkpt lat="45.9471337002108" lon="12.585791496640264"><ele>22.0</ele><time>2026-05-01T11:19:56Z</time></trkpt><trkpt lat="45.94718726692837" lon="12.586274802007091"><ele>18.0</ele><time>2026-05-01T11:19:57Z</time></trkpt><trkpt lat="45.9472293986635" lon="12.586758778566137"><ele>18.0</ele><time>2026-05-01T11:19:58Z</time></trkpt><trkpt lat="45.947264294870195" lon="12.587245032214476"><ele>18.0</ele><time>2026-05-01T11:19:59Z</time></trkpt><trkpt lat="45.94729013249749" lon="12.58773197530855"><ele>19.0</ele><time>2026-05-01T11:20:00Z</time></trkpt><trkpt lat="45.94730468457946" lon="12.588222367933861"><ele>20.0</ele><time>2026-05-01T11:20:01Z</time></trkpt><trkpt lat="45.94730697898768" lon="12.588710830167212"><ele>22.0</ele><time>2026-05-01T11:20:02Z</time></trkpt><trkpt lat="45.947298399710505" lon="12.589199634517126"><ele>24.0</ele><time>2026-05-01T11:20:03Z</time></trkpt><trkpt lat="45.947279489366714" lon="12.589687148035736"><ele>24.0</ele><time>2026-05-01T11:20:04Z</time></trkpt><trkpt lat="45.94725101213691" lon="12.590174843396845"><ele>24.0</ele><time>2026-05-01T11:20:05Z</time></trkpt><trkpt lat="45.947209709829984" lon="12.590658990469388"><ele>23.5</ele><time>2026-05-01T11:20:06Z</time></trkpt><trkpt lat="45.94715707574568" lon="12.59113930744933"><ele>23.0</ele><time>2026-05-01T11:20:07Z</time></trkpt><trkpt lat="45.94709237944286" lon="12.59161807741943"><ele>23.5</ele><time>2026-05-01T11:20:08Z</time></trkpt><trkpt lat="45.94701836903882" lon="12.592097489950877"><ele>24.0</ele><time>2026-05-01T11:20:09Z</time></trkpt><trkpt lat="45.94693327766523" lon="12.592573367430063"><ele>23.5</ele><time>2026-05-01T11:20:10Z</time></trkpt><trkpt lat="45.9468392827347" lon="12.593041413003984"><ele>23.0</ele><time>2026-05-01T11:20:11Z</time></trkpt><trkpt lat="45.94673514520415" lon="12.593504170592617"><ele>23.5</ele><time>2026-05-01T11:20:12Z</time></trkpt><trkpt lat="45.94662102994423" lon="12.593964992589028"><ele>24.0</ele><time>2026-05-01T11:20:13Z</time></trkpt><trkpt lat="45.94649676442328" lon="12.594417978465573"><ele>23.5</ele><time>2026-05-01T11:20:14Z</time></trkpt><trkpt lat="45.9463658319631" lon="12.594874868238087"><ele>23.0</ele><time>2026-05-01T11:20:15Z</time></trkpt><trkpt lat="45.946230390672675" lon="12.595328430742324"><ele>22.5</ele><time>2026-05-01T11:20:16Z</time></trkpt><trkpt lat="45.946091292613254" lon="12.595779883923754"><ele>22.0</ele><time>2026-05-01T11:20:17Z</time></trkpt><trkpt lat="45.94594687591866" lon="12.5962274555758"><ele>21.5</ele><time>2026-05-01T11:20:18Z</time></trkpt><trkpt lat="45.94579981586371" lon="12.59667497169596"><ele>21.0</ele><time>2026-05-01T11:20:19Z</time></trkpt><trkpt lat="45.94565323809114" lon="12.597120994992817"><ele>21.5</ele><time>2026-05-01T11:20:20Z</time></trkpt><trkpt lat="45.945504796850074" lon="12.597564763268513"><ele>22.0</ele><time>2026-05-01T11:20:21Z</time></trkpt><trkpt lat="45.94535668691906" lon="12.598007846797001"><ele>22.0</ele><time>2026-05-01T11:20:22Z</time></trkpt><trkpt lat="45.94520910327482" lon="12.598446902637537"><ele>22.0</ele><time>2026-05-01T11:20:23Z</time></trkpt><trkpt lat="45.94506312452923" lon="12.598890445911895"><ele>19.0</ele><time>2026-05-01T11:20:24Z</time></trkpt><trkpt lat="45.94492043743027" lon="12.59933061028006"><ele>16.0</ele><time>2026-05-01T11:20:25Z</time></trkpt><trkpt lat="45.944776893026514" lon="12.599771351432251"><ele>16.0</ele><time>2026-05-01T11:20:26Z</time></trkpt><trkpt lat="45.94463322597217" lon="12.600215841432739"><ele>16.0</ele><time>2026-05-01T11:20:27Z</time></trkpt><trkpt lat="45.9444852106705" lon="12.600657199776288"><ele>16.5</ele><time>2026-05-01T11:20:28Z</time></trkpt><trkpt lat="45.94433760106813" lon="12.601098224127457"><ele>17.0</ele><time>2026-05-01T11:20:29Z</time></trkpt><trkpt lat="45.94419095718283" lon="12.60153691893961"><ele>19.0</ele><time>2026-05-01T11:20:30Z</time></trkpt><trkpt lat="45.94404531156262" lon="12.601977174875284"><ele>21.0</ele><time>2026-05-01T11:20:31Z</time></trkpt><trkpt lat="45.94389871122231" lon="12.602420474194675"><ele>21.0</ele><time>2026-05-01T11:20:32Z</time></trkpt><trkpt lat="45.943752525710885" lon="12.602862652735347"><ele>21.0</ele><time>2026-05-01T11:20:33Z</time></trkpt><trkpt lat="45.943607621498735" lon="12.60330425308685"><ele>21.5</ele><time>2026-05-01T11:20:34Z</time></trkpt><trkpt lat="45.94346280898634" lon="12.603745534283416"><ele>22.0</ele><time>2026-05-01T11:20:35Z</time></trkpt><trkpt lat="45.943318507979384" lon="12.604188518253343"><ele>22.5</ele><time>2026-05-01T11:20:36Z</time></trkpt><trkpt lat="45.94317717252049" lon="12.604631559916408"><ele>23.0</ele><time>2026-05-01T11:20:37Z</time></trkpt><trkpt lat="45.94303910065834" lon="12.605079200971211"><ele>22.0</ele><time>2026-05-01T11:20:38Z</time></trkpt><trkpt lat="45.94290435024376" lon="12.605530526294311"><ele>21.0</ele><time>2026-05-01T11:20:39Z</time></trkpt><trkpt lat="45.94277338139653" lon="12.60598330944476"><ele>21.5</ele><time>2026-05-01T11:20:40Z</time></trkpt><trkpt lat="45.94264663233297" lon="12.606439131762592"><ele>22.0</ele><time>2026-05-01T11:20:41Z</time></trkpt><trkpt lat="45.94252556681223" lon="12.60689772627352"><ele>20.5</ele><time>2026-05-01T11:20:42Z</time></trkpt><trkpt lat="45.94241337898635" lon="12.607359281232423"><ele>19.0</ele><time>2026-05-01T11:20:43Z</time></trkpt><trkpt lat="45.942308794061105" lon="12.60782436435425"><ele>19.0</ele><time>2026-05-01T11:20:44Z</time></trkpt><trkpt lat="45.94221129805905" lon="12.608292562769124"><ele>19.0</ele><time>2026-05-01T11:20:45Z</time></trkpt><trkpt lat="45.94212339624124" lon="12.608763202875314"><ele>18.5</ele><time>2026-05-01T11:20:46Z</time></trkpt><trkpt lat="45.942044149029336" lon="12.609236781966347"><ele>18.0</ele><time>2026-05-01T11:20:47Z</time></trkpt><trkpt lat="45.94197705040069" lon="12.609715155633216"><ele>17.0</ele><time>2026-05-01T11:20:48Z</time></trkpt><trkpt lat="45.94191954468088" lon="12.610196901982526"><ele>16.0</ele><time>2026-05-01T11:20:49Z</time></trkpt><trkpt lat="45.941872868179345" lon="12.610680203024438"><ele>16.0</ele><time>2026-05-01T11:20:50Z</time></trkpt><trkpt lat="45.941839523336554" lon="12.611165381919221"><ele>16.0</ele><time>2026-05-01T11:20:51Z</time></trkpt><trkpt lat="45.94181282524067" lon="12.611648792285514"><ele>17.5</ele><time>2026-05-01T11:20:52Z</time></trkpt><trkpt lat="45.941800357436925" lon="12.612134752281682"><ele>19.0</ele><time>2026-05-01T11:20:53Z</time></trkpt><trkpt lat="45.94179938683781" lon="12.612620742218816"><ele>19.5</ele><time>2026-05-01T11:20:54Z</time></trkpt><trkpt lat="45.941808143143795" lon="12.613105972957722"><ele>20.0</ele><time>2026-05-01T11:20:55Z</time></trkpt><trkpt lat="45.94182570592444" lon="12.613589980209754"><ele>20.0</ele><time>2026-05-01T11:20:56Z</time></trkpt><trkpt lat="45.941850128996684" lon="12.614072728015143"><ele>20.0</ele><time>2026-05-01T11:20:57Z</time></trkpt><trkpt lat="45.941885914781494" lon="12.614561252210214"><ele>20.0</ele><time>2026-05-01T11:20:58Z</time></trkpt><trkpt lat="45.94192839357799" lon="12.615041480274668"><ele>20.0</ele><time>2026-05-01T11:20:59Z</time></trkpt><trkpt lat="45.94198862353647" lon="12.615521924999433"><ele>20.5</ele><time>2026-05-01T11:21:00Z</time></trkpt><trkpt lat="45.94206331564062" lon="12.61599754810023"><ele>21.0</ele><time>2026-05-01T11:21:01Z</time></trkpt><trkpt lat="45.9421476478809" lon="12.616470027956703"><ele>21.0</ele><time>2026-05-01T11:21:02Z</time></trkpt><trkpt lat="45.94224011232795" lon="12.616940066845695"><ele>21.0</ele><time>2026-05-01T11:21:03Z</time></trkpt><trkpt lat="45.94234190262478" lon="12.617407734620725"><ele>21.0</ele><time>2026-05-01T11:21:04Z</time></trkpt><trkpt lat="45.94244851214022" lon="12.617875552005984"><ele>21.0</ele><time>2026-05-01T11:21:05Z</time></trkpt><trkpt lat="45.94255996554126" lon="12.618340095755189"><ele>21.5</ele><time>2026-05-01T11:21:06Z</time></trkpt><trkpt lat="45.94268137204487" lon="12.61880092685992"><ele>22.0</ele><time>2026-05-01T11:21:07Z</time></trkpt><trkpt lat="45.942808768711956" lon="12.619257629047056"><ele>22.5</ele><time>2026-05-01T11:21:08Z</time></trkpt><trkpt lat="45.942936569510955" lon="12.619712808460473"><ele>23.0</ele><time>2026-05-01T11:21:09Z</time></trkpt><trkpt lat="45.943067229711495" lon="12.620167253887978"><ele>23.5</ele><time>2026-05-01T11:21:10Z</time></trkpt><trkpt lat="45.94319931976083" lon="12.62062142398879"><ele>24.0</ele><time>2026-05-01T11:21:11Z</time></trkpt><trkpt lat="45.943335944276654" lon="12.621073151586947"><ele>22.5</ele><time>2026-05-01T11:21:12Z</time></trkpt><trkpt lat="45.94347332918186" lon="12.621523561411065"><ele>21.0</ele><time>2026-05-01T11:21:13Z</time></trkpt><trkpt lat="45.94360954502849" lon="12.621974791989782"><ele>19.5</ele><time>2026-05-01T11:21:14Z</time></trkpt><trkpt lat="45.94374170734172" lon="12.622425991688099"><ele>18.0</ele><time>2026-05-01T11:21:15Z</time></trkpt><trkpt lat="45.94387120743744" lon="12.622881067697753"><ele>18.0</ele><time>2026-05-01T11:21:16Z</time></trkpt><trkpt lat="45.943998848634905" lon="12.623335361545191"><ele>18.0</ele><time>2026-05-01T11:21:17Z</time></trkpt><trkpt lat="45.944118638680756" lon="12.623793978188521"><ele>18.0</ele><time>2026-05-01T11:21:18Z</time></trkpt><trkpt lat="45.94422686723578" lon="12.624258303638632"><ele>18.0</ele><time>2026-05-01T11:21:19Z</time></trkpt><trkpt lat="45.94432720316405" lon="12.624724402852555"><ele>18.0</ele><time>2026-05-01T11:21:20Z</time></trkpt><trkpt lat="45.94441841058183" lon="12.625194338739306"><ele>18.0</ele><time>2026-05-01T11:21:21Z</time></trkpt><trkpt lat="45.94449639019525" lon="12.625670026443316"><ele>18.0</ele><time>2026-05-01T11:21:22Z</time></trkpt><trkpt lat="45.94456455508578" lon="12.626148967279823"><ele>18.0</ele><time>2026-05-01T11:21:23Z</time></trkpt><trkpt lat="45.944620347242086" lon="12.626630066058278"><ele>18.5</ele><time>2026-05-01T11:21:24Z</time></trkpt><trkpt lat="45.94466848098817" lon="12.627113275254548"><ele>19.0</ele><time>2026-05-01T11:21:25Z</time></trkpt><trkpt lat="45.94470847274698" lon="12.627597590927866"><ele>19.5</ele><time>2026-05-01T11:21:26Z</time></trkpt><trkpt lat="45.94474088451866" lon="12.628081784699356"><ele>20.0</ele><time>2026-05-01T11:21:27Z</time></trkpt><trkpt lat="45.94476498881369" lon="12.628569058994252"><ele>20.0</ele><time>2026-05-01T11:21:28Z</time></trkpt><trkpt lat="45.944779644170524" lon="12.629055520539918"><ele>20.0</ele><time>2026-05-01T11:21:29Z</time></trkpt><trkpt lat="45.94478327989767" lon="12.629543675536933"><ele>20.0</ele><time>2026-05-01T11:21:30Z</time></trkpt><trkpt lat="45.944776675491774" lon="12.63003171627017"><ele>20.0</ele><time>2026-05-01T11:21:31Z</time></trkpt><trkpt lat="45.94476228581519" lon="12.630519200225006"><ele>20.0</ele><time>2026-05-01T11:21:32Z</time></trkpt><trkpt lat="45.9447430535595" lon="12.631007026489673"><ele>20.0</ele><time>2026-05-01T11:21:33Z</time></trkpt><trkpt lat="45.94471958185982" lon="12.631493975017305"><ele>20.0</ele><time>2026-05-01T11:21:34Z</time></trkpt><trkpt lat="45.94469577333115" lon="12.631980195029989"><ele>20.0</ele><time>2026-05-01T11:21:35Z</time></trkpt><trkpt lat="45.94467241232758" lon="12.63246660431462"><ele>19.0</ele><time>2026-05-01T11:21:36Z</time></trkpt><trkpt lat="45.94464600693501" lon="12.63295259420986"><ele>18.0</ele><time>2026-05-01T11:21:37Z</time></trkpt><trkpt lat="45.94462046715742" lon="12.63344178370334"><ele>18.0</ele><time>2026-05-01T11:21:38Z</time></trkpt><trkpt lat="45.94459537188342" lon="12.633931813846331"><ele>18.0</ele><time>2026-05-01T11:21:39Z</time></trkpt><trkpt lat="45.94456945177152" lon="12.63442194065002"><ele>18.5</ele><time>2026-05-01T11:21:40Z</time></trkpt><trkpt lat="45.944544347742024" lon="12.634910792838502"><ele>19.0</ele><time>2026-05-01T11:21:41Z</time></trkpt><trkpt lat="45.944520392766776" lon="12.635399465677777"><ele>18.0</ele><time>2026-05-01T11:21:42Z</time></trkpt><trkpt lat="45.944495913789986" lon="12.635888474157449"><ele>17.0</ele><time>2026-05-01T11:21:43Z</time></trkpt><trkpt lat="45.944472072619426" lon="12.636377824260219"><ele>16.5</ele><time>2026-05-01T11:21:44Z</time></trkpt><trkpt lat="45.94444652192808" lon="12.636867516073844"><ele>16.0</ele><time>2026-05-01T11:21:45Z</time></trkpt><trkpt lat="45.94441860436012" lon="12.637354497781464"><ele>13.0</ele><time>2026-05-01T11:21:46Z</time></trkpt><trkpt lat="45.944390801727366" lon="12.63784424162922"><ele>10.0</ele><time>2026-05-01T11:21:47Z</time></trkpt><trkpt lat="45.94436262372533" lon="12.638334542441239"><ele>10.0</ele><time>2026-05-01T11:21:48Z</time></trkpt><trkpt lat="45.94433284428016" lon="12.638826291189686"><ele>10.0</ele><time>2026-05-01T11:21:49Z</time></trkpt><trkpt lat="45.94430646872652" lon="12.63931593629497"><ele>10.0</ele><time>2026-05-01T11:21:50Z</time></trkpt><trkpt lat="45.944282189021216" lon="12.639806624046095"><ele>10.0</ele><time>2026-05-01T11:21:51Z</time></trkpt><trkpt lat="45.94425988950043" lon="12.640295521386493"><ele>10.5</ele><time>2026-05-01T11:21:52Z</time></trkpt><trkpt lat="45.944237616948" lon="12.640784051521894"><ele>11.0</ele><time>2026-05-01T11:21:53Z</time></trkpt><trkpt lat="45.94421369314737" lon="12.641272038194368"><ele>11.0</ele><time>2026-05-01T11:21:54Z</time></trkpt><trkpt lat="45.944187953497114" lon="12.641760750870278"><ele>11.0</ele><time>2026-05-01T11:21:55Z</time></trkpt><trkpt lat="45.944162459917344" lon="12.642250974969523"><ele>11.0</ele><time>2026-05-01T11:21:56Z</time></trkpt><trkpt lat="45.94413772122909" lon="12.642738855781369"><ele>11.0</ele><time>2026-05-01T11:21:57Z</time></trkpt><trkpt lat="45.94410984581298" lon="12.643229288400335"><ele>10.5</ele><time>2026-05-01T11:21:58Z</time></trkpt><trkpt lat="45.944081902399176" lon="12.643717176753755"><ele>10.0</ele><time>2026-05-01T11:21:59Z</time></trkpt><trkpt lat="45.94405181408928" lon="12.644204894469153"><ele>13.5</ele><time>2026-05-01T11:22:00Z</time></trkpt><trkpt lat="45.9440173802154" lon="12.644692019245715"><ele>17.0</ele><time>2026-05-01T11:22:01Z</time></trkpt><trkpt lat="45.94397940121662" lon="12.645182080069128"><ele>17.5</ele><time>2026-05-01T11:22:02Z</time></trkpt><trkpt lat="45.943936753338484" lon="12.645669371287385"><ele>18.0</ele><time>2026-05-01T11:22:03Z</time></trkpt><trkpt lat="45.94389254538378" lon="12.646155007475176"><ele>18.0</ele><time>2026-05-01T11:22:04Z</time></trkpt><trkpt lat="45.943846202531475" lon="12.646637794422794"><ele>18.0</ele><time>2026-05-01T11:22:05Z</time></trkpt><trkpt lat="45.94379623889912" lon="12.647121181754013"><ele>16.0</ele><time>2026-05-01T11:22:06Z</time></trkpt><trkpt lat="45.943744214446816" lon="12.647603856441577"><ele>14.0</ele><time>2026-05-01T11:22:07Z</time></trkpt><trkpt lat="45.943685384953575" lon="12.648086741032895"><ele>14.0</ele><time>2026-05-01T11:22:08Z</time></trkpt><trkpt lat="45.94361585035724" lon="12.648564058761512"><ele>14.0</ele><time>2026-05-01T11:22:09Z</time></trkpt><trkpt lat="45.94353941967441" lon="12.649040554164301"><ele>14.5</ele><time>2026-05-01T11:22:10Z</time></trkpt><trkpt lat="45.94345991414793" lon="12.649511485792356"><ele>15.0</ele><time>2026-05-01T11:22:11Z</time></trkpt><trkpt lat="45.94337179081034" lon="12.64998744181943"><ele>17.5</ele><time>2026-05-01T11:22:12Z</time></trkpt><trkpt lat="45.943278743061" lon="12.650457287102604"><ele>20.0</ele><time>2026-05-01T11:22:13Z</time></trkpt><trkpt lat="45.943180684457246" lon="12.65092581330785"><ele>20.5</ele><time>2026-05-01T11:22:14Z</time></trkpt><trkpt lat="45.943077863513636" lon="12.651391717281685"><ele>21.0</ele><time>2026-05-01T11:22:15Z</time></trkpt><trkpt lat="45.942968589038486" lon="12.651855809619777"><ele>21.0</ele><time>2026-05-01T11:22:16Z</time></trkpt><trkpt lat="45.94285537301435" lon="12.652311023381309"><ele>21.0</ele><time>2026-05-01T11:22:17Z</time></trkpt><trkpt lat="45.942734459707964" lon="12.652769461007898"><ele>20.5</ele><time>2026-05-01T11:22:18Z</time></trkpt><trkpt lat="45.94260760342457" lon="12.653224447378339"><ele>20.0</ele><time>2026-05-01T11:22:19Z</time></trkpt><trkpt lat="45.94247519253641" lon="12.653676257500756"><ele>20.0</ele><time>2026-05-01T11:22:20Z</time></trkpt><trkpt lat="45.94233519732097" lon="12.654125629916892"><ele>20.0</ele><time>2026-05-01T11:22:21Z</time></trkpt><trkpt lat="45.94218821068255" lon="12.654568848621452"><ele>19.5</ele><time>2026-05-01T11:22:22Z</time></trkpt><trkpt lat="45.94203408488409" lon="12.655009492117669"><ele>19.0</ele><time>2026-05-01T11:22:23Z</time></trkpt><trkpt lat="45.941873884807315" lon="12.655443893447565"><ele>19.5</ele><time>2026-05-01T11:22:24Z</time></trkpt><trkpt lat="45.94170796211265" lon="12.655874406602377"><ele>20.0</ele><time>2026-05-01T11:22:25Z</time></trkpt><trkpt lat="45.94153676458166" lon="12.656301256421354"><ele>20.0</ele><time>2026-05-01T11:22:26Z</time></trkpt><trkpt lat="45.94136051051144" lon="12.656723007354305"><ele>20.0</ele><time>2026-05-01T11:22:27Z</time></trkpt><trkpt lat="45.94118033030134" lon="12.6571393256317"><ele>20.0</ele><time>2026-05-01T11:22:28Z</time></trkpt><trkpt lat="45.940996498692066" lon="12.657550584684337"><ele>20.0</ele><time>2026-05-01T11:22:29Z</time></trkpt><trkpt lat="45.94080616805681" lon="12.657957261966713"><ele>20.0</ele><time>2026-05-01T11:22:30Z</time></trkpt><trkpt lat="45.94060886537595" lon="12.658359243947423"><ele>20.0</ele><time>2026-05-01T11:22:31Z</time></trkpt><trkpt lat="45.94040742585784" lon="12.658755257914526"><ele>20.5</ele><time>2026-05-01T11:22:32Z</time></trkpt><trkpt lat="45.940199055575945" lon="12.659145701488095"><ele>21.0</ele><time>2026-05-01T11:22:33Z</time></trkpt><trkpt lat="45.93998755272157" lon="12.659527628630439"><ele>21.0</ele><time>2026-05-01T11:22:34Z</time></trkpt><trkpt lat="45.93977336183434" lon="12.659904173694205"><ele>21.0</ele><time>2026-05-01T11:22:35Z</time></trkpt><trkpt lat="45.93955274488455" lon="12.660278087889626"><ele>22.0</ele><time>2026-05-01T11:22:36Z</time></trkpt><trkpt lat="45.93932900180781" lon="12.660648403146872"><ele>23.0</ele><time>2026-05-01T11:22:37Z</time></trkpt><trkpt lat="45.9390988139091" lon="12.661011134675414"><ele>22.0</ele><time>2026-05-01T11:22:38Z</time></trkpt><trkpt lat="45.938864191003816" lon="12.661368992036287"><ele>21.0</ele><time>2026-05-01T11:22:39Z</time></trkpt><trkpt lat="45.938629139267064" lon="12.661723220770098"><ele>21.5</ele><time>2026-05-01T11:22:40Z</time></trkpt><trkpt lat="45.93839109201414" lon="12.662075490607052"><ele>22.0</ele><time>2026-05-01T11:22:41Z</time></trkpt><trkpt lat="45.93814944955477" lon="12.662424790195002"><ele>22.0</ele><time>2026-05-01T11:22:42Z</time></trkpt><trkpt lat="45.93790691409535" lon="12.6627713453651"><ele>22.0</ele><time>2026-05-01T11:22:43Z</time></trkpt><trkpt lat="45.937665009364316" lon="12.66311932115644"><ele>21.5</ele><time>2026-05-01T11:22:44Z</time></trkpt><trkpt lat="45.93742203051631" lon="12.663465350459893"><ele>21.0</ele><time>2026-05-01T11:22:45Z</time></trkpt><trkpt lat="45.93717631028018" lon="12.66380743673929"><ele>20.5</ele><time>2026-05-01T11:22:46Z</time></trkpt><trkpt lat="45.93692904377221" lon="12.664148173040314"><ele>20.0</ele><time>2026-05-01T11:22:47Z</time></trkpt><trkpt lat="45.93668159256411" lon="12.66448773605248"><ele>20.0</ele><time>2026-05-01T11:22:48Z</time></trkpt><trkpt lat="45.936434531156145" lon="12.664823921125556"><ele>20.0</ele><time>2026-05-01T11:22:49Z</time></trkpt><trkpt lat="45.93618942853549" lon="12.665162103142405"><ele>20.0</ele><time>2026-05-01T11:22:50Z</time></trkpt><trkpt lat="45.93594598531189" lon="12.665501647832622"><ele>20.0</ele><time>2026-05-01T11:22:51Z</time></trkpt><trkpt lat="45.93570134537372" lon="12.665838729463728"><ele>19.0</ele><time>2026-05-01T11:22:52Z</time></trkpt><trkpt lat="45.93545499419215" lon="12.666179371557337"><ele>18.0</ele><time>2026-05-01T11:22:53Z</time></trkpt><trkpt lat="45.935208784343736" lon="12.666517574329623"><ele>19.0</ele><time>2026-05-01T11:22:54Z</time></trkpt><trkpt lat="45.93496838451582" lon="12.666863569495845"><ele>20.0</ele><time>2026-05-01T11:22:55Z</time></trkpt><trkpt lat="45.934733583014854" lon="12.667217208157037"><ele>20.0</ele><time>2026-05-01T11:22:56Z</time></trkpt><trkpt lat="45.934498042612944" lon="12.667579922032987"><ele>20.0</ele><time>2026-05-01T11:22:57Z</time></trkpt><trkpt lat="45.93427447090685" lon="12.667940364309448"><ele>20.5</ele><time>2026-05-01T11:22:58Z</time></trkpt><trkpt lat="45.934051823836576" lon="12.66830479821995"><ele>21.0</ele><time>2026-05-01T11:22:59Z</time></trkpt><trkpt lat="45.933828415475425" lon="12.668671671910896"><ele>21.0</ele><time>2026-05-01T11:23:00Z</time></trkpt><trkpt lat="45.93360708127176" lon="12.669042044823199"><ele>21.0</ele><time>2026-05-01T11:23:01Z</time></trkpt><trkpt lat="45.933389636814276" lon="12.669416211873243"><ele>21.0</ele><time>2026-05-01T11:23:02Z</time></trkpt><trkpt lat="45.9331772638247" lon="12.669795311136658"><ele>21.0</ele><time>2026-05-01T11:23:03Z</time></trkpt><trkpt lat="45.932968786310695" lon="12.67018073439135"><ele>19.0</ele><time>2026-05-01T11:23:04Z</time></trkpt><trkpt lat="45.9327625497615" lon="12.670563264352387"><ele>17.0</ele><time>2026-05-01T11:23:05Z</time></trkpt><trkpt lat="45.93255765016171" lon="12.670949739004747"><ele>17.5</ele><time>2026-05-01T11:23:06Z</time></trkpt><trkpt lat="45.93235414094543" lon="12.671341908336405"><ele>18.0</ele><time>2026-05-01T11:23:07Z</time></trkpt><trkpt lat="45.93215407724666" lon="12.671736309911989"><ele>17.5</ele><time>2026-05-01T11:23:08Z</time></trkpt><trkpt lat="45.93195813802487" lon="12.672138494045692"><ele>17.0</ele><time>2026-05-01T11:23:09Z</time></trkpt><trkpt lat="45.931767224317184" lon="12.672540206652217"><ele>18.5</ele><time>2026-05-01T11:23:10Z</time></trkpt><trkpt lat="45.93157727427897" lon="12.672946108543037"><ele>20.0</ele><time>2026-05-01T11:23:11Z</time></trkpt><trkpt lat="45.931390656211306" lon="12.67335796192153"><ele>19.5</ele><time>2026-05-01T11:23:12Z</time></trkpt><trkpt lat="45.93120837203913" lon="12.673772360689728"><ele>19.0</ele><time>2026-05-01T11:23:13Z</time></trkpt><trkpt lat="45.93103152089966" lon="12.674191332039236"><ele>19.5</ele><time>2026-05-01T11:23:14Z</time></trkpt><trkpt lat="45.930859571022694" lon="12.674611232838522"><ele>20.0</ele><time>2026-05-01T11:23:15Z</time></trkpt><trkpt lat="45.93069079691685" lon="12.675034613983305"><ele>19.5</ele><time>2026-05-01T11:23:16Z</time></trkpt><trkpt lat="45.93052227304199" lon="12.675463301677922"><ele>19.0</ele><time>2026-05-01T11:23:17Z</time></trkpt><trkpt lat="45.93036023311663" lon="12.675893036641632"><ele>19.0</ele><time>2026-05-01T11:23:18Z</time></trkpt><trkpt lat="45.93019945561833" lon="12.676323157944218"><ele>19.0</ele><time>2026-05-01T11:23:19Z</time></trkpt><trkpt lat="45.93003828451138" lon="12.676754747621203"><ele>18.5</ele><time>2026-05-01T11:23:20Z</time></trkpt><trkpt lat="45.9298792686066" lon="12.677187660910056"><ele>18.0</ele><time>2026-05-01T11:23:21Z</time></trkpt><trkpt lat="45.929721821744124" lon="12.677621091943939"><ele>19.0</ele><time>2026-05-01T11:23:22Z</time></trkpt><trkpt lat="45.929565106194616" lon="12.678057014294579"><ele>20.0</ele><time>2026-05-01T11:23:23Z</time></trkpt><trkpt lat="45.92940856112649" lon="12.678490377765815"><ele>19.5</ele><time>2026-05-01T11:23:24Z</time></trkpt><trkpt lat="45.929251536701294" lon="12.678925628405134"><ele>19.0</ele><time>2026-05-01T11:23:25Z</time></trkpt><trkpt lat="45.929095699422305" lon="12.679362412962528"><ele>18.5</ele><time>2026-05-01T11:23:26Z</time></trkpt><trkpt lat="45.928941596519394" lon="12.679797125846274"><ele>18.0</ele><time>2026-05-01T11:23:27Z</time></trkpt><trkpt lat="45.92878746879666" lon="12.680230854341666"><ele>17.0</ele><time>2026-05-01T11:23:28Z</time></trkpt><trkpt lat="45.92863214376715" lon="12.680665007831948"><ele>16.0</ele><time>2026-05-01T11:23:29Z</time></trkpt><trkpt lat="45.928475205745215" lon="12.681100626420822"><ele>16.5</ele><time>2026-05-01T11:23:30Z</time></trkpt><trkpt lat="45.92831668295394" lon="12.681535552730832"><ele>17.0</ele><time>2026-05-01T11:23:31Z</time></trkpt><trkpt lat="45.928158796532024" lon="12.681970131299101"><ele>17.5</ele><time>2026-05-01T11:23:32Z</time></trkpt><trkpt lat="45.927999799473795" lon="12.682407342340785"><ele>18.0</ele><time>2026-05-01T11:23:33Z</time></trkpt><trkpt lat="45.92784186590153" lon="12.682842058868543"><ele>18.0</ele><time>2026-05-01T11:23:34Z</time></trkpt><trkpt lat="45.9276826056384" lon="12.683276487500134"><ele>18.0</ele><time>2026-05-01T11:23:35Z</time></trkpt><trkpt lat="45.92752406117009" lon="12.683712287043443"><ele>20.0</ele><time>2026-05-01T11:23:36Z</time></trkpt><trkpt lat="45.927367403858426" lon="12.684148141736074"><ele>22.0</ele><time>2026-05-01T11:23:37Z</time></trkpt><trkpt lat="45.92721284391698" lon="12.684585382364329"><ele>22.5</ele><time>2026-05-01T11:23:38Z</time></trkpt><trkpt lat="45.92705640461803" lon="12.685016584145323"><ele>23.0</ele><time>2026-05-01T11:23:39Z</time></trkpt><trkpt lat="45.92690008489318" lon="12.68544859945263"><ele>21.0</ele><time>2026-05-01T11:23:40Z</time></trkpt><trkpt lat="45.926741269757365" lon="12.685882142328907"><ele>19.0</ele><time>2026-05-01T11:23:41Z</time></trkpt><trkpt lat="45.926581084121985" lon="12.686313097324632"><ele>19.0</ele><time>2026-05-01T11:23:42Z</time></trkpt><trkpt lat="45.92641999163076" lon="12.686745705078069"><ele>19.0</ele><time>2026-05-01T11:23:43Z</time></trkpt><trkpt lat="45.92625789163775" lon="12.687179154882552"><ele>18.0</ele><time>2026-05-01T11:23:44Z</time></trkpt><trkpt lat="45.92609759298466" lon="12.687610032329426"><ele>17.0</ele><time>2026-05-01T11:23:45Z</time></trkpt><trkpt lat="45.92593941525095" lon="12.688043216210241"><ele>18.0</ele><time>2026-05-01T11:23:46Z</time></trkpt><trkpt lat="45.92578072251874" lon="12.688473734123791"><ele>19.0</ele><time>2026-05-01T11:23:47Z</time></trkpt><trkpt lat="45.925617859771606" lon="12.688906766853545"><ele>19.0</ele><time>2026-05-01T11:23:48Z</time></trkpt><trkpt lat="45.92545239387922" lon="12.68933147186915"><ele>19.0</ele><time>2026-05-01T11:23:49Z</time></trkpt><trkpt lat="45.9252882325663" lon="12.689758801460567"><ele>19.0</ele><time>2026-05-01T11:23:50Z</time></trkpt><trkpt lat="45.92512062773006" lon="12.690185285067967"><ele>19.0</ele><time>2026-05-01T11:23:51Z</time></trkpt><trkpt lat="45.924951296829896" lon="12.690608005618213"><ele>18.5</ele><time>2026-05-01T11:23:52Z</time></trkpt><trkpt lat="45.9247780632165" lon="12.691028401557745"><ele>18.0</ele><time>2026-05-01T11:23:53Z</time></trkpt><trkpt lat="45.92460163482134" lon="12.691447744466545"><ele>17.0</ele><time>2026-05-01T11:23:54Z</time></trkpt><trkpt lat="45.924422901830766" lon="12.6918620871427"><ele>16.0</ele><time>2026-05-01T11:23:55Z</time></trkpt><trkpt lat="45.924240980377256" lon="12.692277134763627"><ele>17.5</ele><time>2026-05-01T11:23:56Z</time></trkpt><trkpt lat="45.924059432064105" lon="12.692691994478984"><ele>19.0</ele><time>2026-05-01T11:23:57Z</time></trkpt><trkpt lat="45.923878133893375" lon="12.693102964769649"><ele>19.0</ele><time>2026-05-01T11:23:58Z</time></trkpt><trkpt lat="45.92369424511255" lon="12.693514297498927"><ele>19.0</ele><time>2026-05-01T11:23:59Z</time></trkpt><trkpt lat="45.923506274097214" lon="12.693922032653948"><ele>19.0</ele><time>2026-05-01T11:24:00Z</time></trkpt><trkpt lat="45.92331460145833" lon="12.694328305648"><ele>19.0</ele><time>2026-05-01T11:24:01Z</time></trkpt><trkpt lat="45.92312079129183" lon="12.694730736142022"><ele>18.5</ele><time>2026-05-01T11:24:02Z</time></trkpt><trkpt lat="45.92292644436717" lon="12.69513175883916"><ele>18.0</ele><time>2026-05-01T11:24:03Z</time></trkpt><trkpt lat="45.92273131132008" lon="12.695534225266528"><ele>18.0</ele><time>2026-05-01T11:24:04Z</time></trkpt><trkpt lat="45.922532724040686" lon="12.695934672479165"><ele>18.0</ele><time>2026-05-01T11:24:05Z</time></trkpt><trkpt lat="45.92233193367192" lon="12.696329171718189"><ele>18.0</ele><time>2026-05-01T11:24:06Z</time></trkpt><trkpt lat="45.92212758389864" lon="12.696721899513431"><ele>18.0</ele><time>2026-05-01T11:24:07Z</time></trkpt><trkpt lat="45.921921229960546" lon="12.697108611635686"><ele>18.0</ele><time>2026-05-01T11:24:08Z</time></trkpt><trkpt lat="45.92171238893332" lon="12.697498188368124"><ele>18.0</ele><time>2026-05-01T11:24:09Z</time></trkpt><trkpt lat="45.921504659453426" lon="12.697884039884642"><ele>18.0</ele><time>2026-05-01T11:24:10Z</time></trkpt><trkpt lat="45.92129538521401" lon="12.698268971963712"><ele>18.0</ele><time>2026-05-01T11:24:11Z</time></trkpt><trkpt lat="45.921082012508556" lon="12.698652235322271"><ele>17.5</ele><time>2026-05-01T11:24:12Z</time></trkpt><trkpt lat="45.920866831510544" lon="12.69903287214059"><ele>17.0</ele><time>2026-05-01T11:24:13Z</time></trkpt><trkpt lat="45.92065275561471" lon="12.6994097115963"><ele>17.0</ele><time>2026-05-01T11:24:14Z</time></trkpt><trkpt lat="45.92043508019663" lon="12.699785257409639"><ele>17.0</ele><time>2026-05-01T11:24:15Z</time></trkpt><trkpt lat="45.92021621323433" lon="12.700161561688754"><ele>16.0</ele><time>2026-05-01T11:24:16Z</time></trkpt><trkpt lat="45.91999396787395" lon="12.700532877622223"><ele>15.0</ele><time>2026-05-01T11:24:17Z</time></trkpt><trkpt lat="45.91976701203902" lon="12.700902532992341"><ele>15.0</ele><time>2026-05-01T11:24:18Z</time></trkpt><trkpt lat="45.91953636975171" lon="12.701266032658243"><ele>15.0</ele><time>2026-05-01T11:24:19Z</time></trkpt><trkpt lat="45.91930275722316" lon="12.701625913004861"><ele>16.0</ele><time>2026-05-01T11:24:20Z</time></trkpt><trkpt lat="45.91906941623993" lon="12.70198799623903"><ele>17.0</ele><time>2026-05-01T11:24:21Z</time></trkpt><trkpt lat="45.91883537821033" lon="12.702346598997153"><ele>17.0</ele><time>2026-05-01T11:24:22Z</time></trkpt><trkpt lat="45.91860232252592" lon="12.70270224347263"><ele>17.0</ele><time>2026-05-01T11:24:23Z</time></trkpt><trkpt lat="45.91836766349758" lon="12.70305748574261"><ele>17.0</ele><time>2026-05-01T11:24:24Z</time></trkpt><trkpt lat="45.91813310561475" lon="12.703411313080158"><ele>17.0</ele><time>2026-05-01T11:24:25Z</time></trkpt><trkpt lat="45.917894321485896" lon="12.703761130102887"><ele>17.0</ele><time>2026-05-01T11:24:26Z</time></trkpt><trkpt lat="45.91765256269527" lon="12.704106047149898"><ele>17.0</ele><time>2026-05-01T11:24:27Z</time></trkpt><trkpt lat="45.91740948955347" lon="12.70444674795268"><ele>15.5</ele><time>2026-05-01T11:24:28Z</time></trkpt><trkpt lat="45.91716251200923" lon="12.704783782019769"><ele>14.0</ele><time>2026-05-01T11:24:29Z</time></trkpt><trkpt lat="45.916913318154684" lon="12.705117016785668"><ele>15.5</ele><time>2026-05-01T11:24:30Z</time></trkpt><trkpt lat="45.91666464755511" lon="12.705450298972234"><ele>17.0</ele><time>2026-05-01T11:24:31Z</time></trkpt><trkpt lat="45.91641185690881" lon="12.705781945228836"><ele>16.5</ele><time>2026-05-01T11:24:32Z</time></trkpt><trkpt lat="45.916160031994586" lon="12.70611432805776"><ele>16.0</ele><time>2026-05-01T11:24:33Z</time></trkpt><trkpt lat="45.91590636693835" lon="12.706443762284422"><ele>16.5</ele><time>2026-05-01T11:24:34Z</time></trkpt><trkpt lat="45.915652128529814" lon="12.706769467431425"><ele>17.0</ele><time>2026-05-01T11:24:35Z</time></trkpt><trkpt lat="45.91539642575265" lon="12.707091228532564"><ele>16.5</ele><time>2026-05-01T11:24:36Z</time></trkpt><trkpt lat="45.915136094424184" lon="12.707410409990095"><ele>16.0</ele><time>2026-05-01T11:24:37Z</time></trkpt><trkpt lat="45.91487287203931" lon="12.707725178847852"><ele>14.5</ele><time>2026-05-01T11:24:38Z</time></trkpt><trkpt lat="45.91460794227999" lon="12.708034975694364"><ele>13.0</ele><time>2026-05-01T11:24:39Z</time></trkpt><trkpt lat="45.91434213078532" lon="12.708341958988953"><ele>12.5</ele><time>2026-05-01T11:24:40Z</time></trkpt><trkpt lat="45.91407546011201" lon="12.708650221295217"><ele>12.0</ele><time>2026-05-01T11:24:41Z</time></trkpt><trkpt lat="45.91381009149653" lon="12.708961284736873"><ele>12.0</ele><time>2026-05-01T11:24:42Z</time></trkpt><trkpt lat="45.913547158703054" lon="12.709275090432453"><ele>12.0</ele><time>2026-05-01T11:24:43Z</time></trkpt><trkpt lat="45.913284194135976" lon="12.709586505988781"><ele>12.5</ele><time>2026-05-01T11:24:44Z</time></trkpt><trkpt lat="45.91302068032425" lon="12.709896679938915"><ele>13.0</ele><time>2026-05-01T11:24:45Z</time></trkpt><trkpt lat="45.91275692033972" lon="12.710207789174207"><ele>14.0</ele><time>2026-05-01T11:24:46Z</time></trkpt><trkpt lat="45.9124942981377" lon="12.710521033836873"><ele>15.0</ele><time>2026-05-01T11:24:47Z</time></trkpt><trkpt lat="45.91223184672185" lon="12.710832010377642"><ele>15.0</ele><time>2026-05-01T11:24:48Z</time></trkpt><trkpt lat="45.911970455897475" lon="12.7111399599731"><ele>15.0</ele><time>2026-05-01T11:24:49Z</time></trkpt><trkpt lat="45.911710156618994" lon="12.711449527780536"><ele>15.0</ele><time>2026-05-01T11:24:50Z</time></trkpt><trkpt lat="45.911449104474734" lon="12.711762107704844"><ele>15.0</ele><time>2026-05-01T11:24:51Z</time></trkpt><trkpt lat="45.91118726677204" lon="12.712071918355827"><ele>14.5</ele><time>2026-05-01T11:24:52Z</time></trkpt><trkpt lat="45.91092391227607" lon="12.712382962861364"><ele>14.0</ele><time>2026-05-01T11:24:53Z</time></trkpt><trkpt lat="45.91066037074562" lon="12.712694515662939"><ele>13.5</ele><time>2026-05-01T11:24:54Z</time></trkpt><trkpt lat="45.91039848113918" lon="12.713006415621"><ele>13.0</ele><time>2026-05-01T11:24:55Z</time></trkpt><trkpt lat="45.910137054319684" lon="12.71331848252372"><ele>15.0</ele><time>2026-05-01T11:24:56Z</time></trkpt><trkpt lat="45.909874519132075" lon="12.713629583564547"><ele>17.0</ele><time>2026-05-01T11:24:57Z</time></trkpt><trkpt lat="45.9096103448709" lon="12.713940290404834"><ele>17.0</ele><time>2026-05-01T11:24:58Z</time></trkpt><trkpt lat="45.909346034222985" lon="12.714248102641236"><ele>17.0</ele><time>2026-05-01T11:24:59Z</time></trkpt><trkpt lat="45.9090814351901" lon="12.714557445820525"><ele>17.5</ele><time>2026-05-01T11:25:00Z</time></trkpt><trkpt lat="45.90881740563372" lon="12.714867561283109"><ele>18.0</ele><time>2026-05-01T11:25:01Z</time></trkpt><trkpt lat="45.90855492796331" lon="12.715180497352145"><ele>17.0</ele><time>2026-05-01T11:25:02Z</time></trkpt><trkpt lat="45.90829266847278" lon="12.71549075265409"><ele>16.0</ele><time>2026-05-01T11:25:03Z</time></trkpt><trkpt lat="45.90802820748857" lon="12.715804709465514"><ele>16.0</ele><time>2026-05-01T11:25:04Z</time></trkpt><trkpt lat="45.907763416855005" lon="12.716115642946768"><ele>16.0</ele><time>2026-05-01T11:25:05Z</time></trkpt><trkpt lat="45.907496639629635" lon="12.716428635922645"><ele>16.0</ele><time>2026-05-01T11:25:06Z</time></trkpt><trkpt lat="45.90723206521905" lon="12.7167418424639"><ele>16.0</ele><time>2026-05-01T11:25:07Z</time></trkpt><trkpt lat="45.9069679571055" lon="12.717054137574745"><ele>16.0</ele><time>2026-05-01T11:25:08Z</time></trkpt><trkpt lat="45.90670324572211" lon="12.717365606325158"><ele>16.0</ele><time>2026-05-01T11:25:09Z</time></trkpt><trkpt lat="45.90643933318884" lon="12.717678522048436"><ele>15.0</ele><time>2026-05-01T11:25:10Z</time></trkpt><trkpt lat="45.906175729108206" lon="12.717990269495106"><ele>14.0</ele><time>2026-05-01T11:25:11Z</time></trkpt><trkpt lat="45.90591167122927" lon="12.718300613989728"><ele>14.0</ele><time>2026-05-01T11:25:12Z</time></trkpt><trkpt lat="45.90564791663722" lon="12.71861159325572"><ele>14.0</ele><time>2026-05-01T11:25:13Z</time></trkpt><trkpt lat="45.90538511509177" lon="12.718925706955792"><ele>14.0</ele><time>2026-05-01T11:25:14Z</time></trkpt><trkpt lat="45.90512519699404" lon="12.719243708920102"><ele>14.0</ele><time>2026-05-01T11:25:15Z</time></trkpt><trkpt lat="45.904864750720186" lon="12.71955948006591"><ele>13.5</ele><time>2026-05-01T11:25:16Z</time></trkpt><trkpt lat="45.9046029486362" lon="12.71987442544875"><ele>13.0</ele><time>2026-05-01T11:25:17Z</time></trkpt><trkpt lat="45.904340437666846" lon="12.72018746101168"><ele>13.0</ele><time>2026-05-01T11:25:18Z</time></trkpt><trkpt lat="45.90407738684354" lon="12.720500316681127"><ele>13.0</ele><time>2026-05-01T11:25:19Z</time></trkpt><trkpt lat="45.90381432737089" lon="12.720810329164232"><ele>13.5</ele><time>2026-05-01T11:25:20Z</time></trkpt><trkpt lat="45.90355135257807" lon="12.721124549629877"><ele>14.0</ele><time>2026-05-01T11:25:21Z</time></trkpt><trkpt lat="45.903287618402636" lon="12.7214369911597"><ele>14.0</ele><time>2026-05-01T11:25:22Z</time></trkpt><trkpt lat="45.90302421257039" lon="12.721748378982504"><ele>14.0</ele><time>2026-05-01T11:25:23Z</time></trkpt><trkpt lat="45.902760860836345" lon="12.722060954091566"><ele>15.5</ele><time>2026-05-01T11:25:24Z</time></trkpt><trkpt lat="45.90249653685811" lon="12.722373570014978"><ele>17.0</ele><time>2026-05-01T11:25:25Z</time></trkpt><trkpt lat="45.902234225892286" lon="12.722684673587507"><ele>16.0</ele><time>2026-05-01T11:25:26Z</time></trkpt><trkpt lat="45.901972881649776" lon="12.7229967642918"><ele>15.0</ele><time>2026-05-01T11:25:27Z</time></trkpt><trkpt lat="45.90171139488615" lon="12.723310448539467"><ele>17.5</ele><time>2026-05-01T11:25:28Z</time></trkpt><trkpt lat="45.90145058920964" lon="12.723625227615626"><ele>20.0</ele><time>2026-05-01T11:25:29Z</time></trkpt><trkpt lat="45.90118928299918" lon="12.723937284795761"><ele>20.0</ele><time>2026-05-01T11:25:30Z</time></trkpt><trkpt lat="45.90092672239814" lon="12.724246143872444"><ele>20.0</ele><time>2026-05-01T11:25:31Z</time></trkpt><trkpt lat="45.90066253032329" lon="12.724554283907622"><ele>18.5</ele><time>2026-05-01T11:25:32Z</time></trkpt><trkpt lat="45.9003981429126" lon="12.724863207031396"><ele>17.0</ele><time>2026-05-01T11:25:33Z</time></trkpt><trkpt lat="45.90013440493179" lon="12.725173655857152"><ele>16.5</ele><time>2026-05-01T11:25:34Z</time></trkpt><trkpt lat="45.899871170607334" lon="12.725486901352117"><ele>16.0</ele><time>2026-05-01T11:25:35Z</time></trkpt><trkpt lat="45.89960766947325" lon="12.725799320782183"><ele>15.5</ele><time>2026-05-01T11:25:36Z</time></trkpt><trkpt lat="45.89934477183986" lon="12.726111729593951"><ele>15.0</ele><time>2026-05-01T11:25:37Z</time></trkpt><trkpt lat="45.89908132183185" lon="12.726424372712854"><ele>14.5</ele><time>2026-05-01T11:25:38Z</time></trkpt><trkpt lat="45.89881716043102" lon="12.726735950361926"><ele>14.0</ele><time>2026-05-01T11:25:39Z</time></trkpt><trkpt lat="45.89855298605099" lon="12.727047338501439"><ele>14.5</ele><time>2026-05-01T11:25:40Z</time></trkpt><trkpt lat="45.89828944536331" lon="12.727355973710052"><ele>15.0</ele><time>2026-05-01T11:25:41Z</time></trkpt><trkpt lat="45.89802314416855" lon="12.727664773981418"><ele>15.0</ele><time>2026-05-01T11:25:42Z</time></trkpt><trkpt lat="45.89775799852306" lon="12.727974010451161"><ele>15.0</ele><time>2026-05-01T11:25:43Z</time></trkpt><trkpt lat="45.89749338530493" lon="12.728283789332247"><ele>12.0</ele><time>2026-05-01T11:25:44Z</time></trkpt><trkpt lat="45.89722773536506" lon="12.72859418599682"><ele>9.0</ele><time>2026-05-01T11:25:45Z</time></trkpt><trkpt lat="45.89696442874209" lon="12.728905527654268"><ele>10.0</ele><time>2026-05-01T11:25:46Z</time></trkpt><trkpt lat="45.896701173810285" lon="12.729218330904297"><ele>11.0</ele><time>2026-05-01T11:25:47Z</time></trkpt><trkpt lat="45.8964372818664" lon="12.729530213973817"><ele>12.0</ele><time>2026-05-01T11:25:48Z</time></trkpt><trkpt lat="45.89617630000751" lon="12.729841598632747"><ele>13.0</ele><time>2026-05-01T11:25:49Z</time></trkpt><trkpt lat="45.895915383289136" lon="12.730152893931594"><ele>13.0</ele><time>2026-05-01T11:25:50Z</time></trkpt><trkpt lat="45.89565203091924" lon="12.730465022662083"><ele>13.0</ele><time>2026-05-01T11:25:51Z</time></trkpt><trkpt lat="45.895388358467926" lon="12.730777844899103"><ele>13.0</ele><time>2026-05-01T11:25:52Z</time></trkpt><trkpt lat="45.895124842194555" lon="12.731090034674356"><ele>13.0</ele><time>2026-05-01T11:25:53Z</time></trkpt><trkpt lat="45.8948605865301" lon="12.731401551650215"><ele>11.5</ele><time>2026-05-01T11:25:54Z</time></trkpt><trkpt lat="45.89459671518057" lon="12.731714813556309"><ele>10.0</ele><time>2026-05-01T11:25:55Z</time></trkpt><trkpt lat="45.894331464660226" lon="12.732024846255424"><ele>10.0</ele><time>2026-05-01T11:25:56Z</time></trkpt><trkpt lat="45.89406543491802" lon="12.732333094797534"><ele>10.0</ele><time>2026-05-01T11:25:57Z</time></trkpt><trkpt lat="45.8938001803272" lon="12.732644447727479"><ele>9.5</ele><time>2026-05-01T11:25:58Z</time></trkpt><trkpt lat="45.89353482981428" lon="12.732956800067452"><ele>9.0</ele><time>2026-05-01T11:25:59Z</time></trkpt><trkpt lat="45.89326949802927" lon="12.733268926758017"><ele>7.0</ele><time>2026-05-01T11:26:00Z</time></trkpt><trkpt lat="45.89300579090459" lon="12.73358124130082"><ele>5.0</ele><time>2026-05-01T11:26:01Z</time></trkpt><trkpt lat="45.892742616380424" lon="12.733892208278968"><ele>6.5</ele><time>2026-05-01T11:26:02Z</time></trkpt><trkpt lat="45.89247928303634" lon="12.734202007955865"><ele>8.0</ele><time>2026-05-01T11:26:03Z</time></trkpt><trkpt lat="45.89221695575672" lon="12.734509835056441"><ele>8.0</ele><time>2026-05-01T11:26:04Z</time></trkpt><trkpt lat="45.89195419351644" lon="12.734819107854143"><ele>8.0</ele><time>2026-05-01T11:26:05Z</time></trkpt><trkpt lat="45.89169418635439" lon="12.735129242389462"><ele>8.5</ele><time>2026-05-01T11:26:06Z</time></trkpt><trkpt lat="45.89143275714936" lon="12.735436587011163"><ele>9.0</ele><time>2026-05-01T11:26:07Z</time></trkpt><trkpt lat="45.891169399324895" lon="12.735751366400093"><ele>9.5</ele><time>2026-05-01T11:26:08Z</time></trkpt><trkpt lat="45.890907527000195" lon="12.73606319961949"><ele>10.0</ele><time>2026-05-01T11:26:09Z</time></trkpt><trkpt lat="45.890645626539154" lon="12.736372927569148"><ele>10.0</ele><time>2026-05-01T11:26:10Z</time></trkpt><trkpt lat="45.89038265711837" lon="12.736681826667995"><ele>10.0</ele><time>2026-05-01T11:26:11Z</time></trkpt><trkpt lat="45.890120706495026" lon="12.736990559617416"><ele>12.0</ele><time>2026-05-01T11:26:12Z</time></trkpt><trkpt lat="45.88985829786783" lon="12.73729997715881"><ele>14.0</ele><time>2026-05-01T11:26:13Z</time></trkpt><trkpt lat="45.88959505331949" lon="12.737609847473935"><ele>14.0</ele><time>2026-05-01T11:26:14Z</time></trkpt><trkpt lat="45.88933138337131" lon="12.737920900924442"><ele>14.0</ele><time>2026-05-01T11:26:15Z</time></trkpt><trkpt lat="45.88907060728708" lon="12.73823393742025"><ele>14.0</ele><time>2026-05-01T11:26:16Z</time></trkpt><trkpt lat="45.88880760670056" lon="12.73854593661108"><ele>14.0</ele><time>2026-05-01T11:26:17Z</time></trkpt><trkpt lat="45.88854375836906" lon="12.738860411995821"><ele>14.0</ele><time>2026-05-01T11:26:18Z</time></trkpt><trkpt lat="45.88827925942618" lon="12.739172765423351"><ele>14.0</ele><time>2026-05-01T11:26:19Z</time></trkpt><trkpt lat="45.888015996556604" lon="12.73948209465273"><ele>14.0</ele><time>2026-05-01T11:26:20Z</time></trkpt><trkpt lat="45.88775077647746" lon="12.73978784309495"><ele>14.0</ele><time>2026-05-01T11:26:21Z</time></trkpt><trkpt lat="45.8874850123971" lon="12.740095151236442"><ele>14.0</ele><time>2026-05-01T11:26:22Z</time></trkpt><trkpt lat="45.887220299637185" lon="12.74040478844416"><ele>14.0</ele><time>2026-05-01T11:26:23Z</time></trkpt><trkpt lat="45.886956862489534" lon="12.740718063724392"><ele>14.5</ele><time>2026-05-01T11:26:24Z</time></trkpt><trkpt lat="45.886693415260225" lon="12.741030820803953"><ele>15.0</ele><time>2026-05-01T11:26:25Z</time></trkpt><trkpt lat="45.886430834874254" lon="12.741339488857609"><ele>15.0</ele><time>2026-05-01T11:26:26Z</time></trkpt><trkpt lat="45.88616684349534" lon="12.741651888719309"><ele>15.0</ele><time>2026-05-01T11:26:27Z</time></trkpt><trkpt lat="45.8859027254007" lon="12.741963625481958"><ele>16.0</ele><time>2026-05-01T11:26:28Z</time></trkpt><trkpt lat="45.88563957992652" lon="12.742274889329035"><ele>17.0</ele><time>2026-05-01T11:26:29Z</time></trkpt><trkpt lat="45.88537585844861" lon="12.74258633709018"><ele>17.0</ele><time>2026-05-01T11:26:30Z</time></trkpt><trkpt lat="45.88511256623829" lon="12.742895480055685"><ele>17.0</ele><time>2026-05-01T11:26:31Z</time></trkpt><trkpt lat="45.884847760828706" lon="12.743208811720773"><ele>17.5</ele><time>2026-05-01T11:26:32Z</time></trkpt><trkpt lat="45.884580272453704" lon="12.743521855105502"><ele>18.0</ele><time>2026-05-01T11:26:33Z</time></trkpt><trkpt lat="45.884318042614304" lon="12.743834279060534"><ele>16.5</ele><time>2026-05-01T11:26:34Z</time></trkpt><trkpt lat="45.8840552338039" lon="12.744145540339321"><ele>15.0</ele><time>2026-05-01T11:26:35Z</time></trkpt><trkpt lat="45.88379243009799" lon="12.744455558609395"><ele>14.5</ele><time>2026-05-01T11:26:36Z</time></trkpt><trkpt lat="45.883529182577135" lon="12.744766575383798"><ele>14.0</ele><time>2026-05-01T11:26:37Z</time></trkpt><trkpt lat="45.88326463879354" lon="12.74507875183524"><ele>14.0</ele><time>2026-05-01T11:26:38Z</time></trkpt><trkpt lat="45.88299983645533" lon="12.745387577589618"><ele>14.0</ele><time>2026-05-01T11:26:39Z</time></trkpt><trkpt lat="45.882733350430364" lon="12.745694073809382"><ele>14.5</ele><time>2026-05-01T11:26:40Z</time></trkpt><trkpt lat="45.88246761675657" lon="12.746002031138321"><ele>15.0</ele><time>2026-05-01T11:26:41Z</time></trkpt><trkpt lat="45.88220505381539" lon="12.746315307782963"><ele>15.0</ele><time>2026-05-01T11:26:42Z</time></trkpt><trkpt lat="45.881943803569186" lon="12.746628652200329"><ele>15.0</ele><time>2026-05-01T11:26:43Z</time></trkpt><trkpt lat="45.8816814546828" lon="12.746942476329913"><ele>14.5</ele><time>2026-05-01T11:26:44Z</time></trkpt><trkpt lat="45.8814178851398" lon="12.747256605940125"><ele>14.0</ele><time>2026-05-01T11:26:45Z</time></trkpt><trkpt lat="45.88115470531963" lon="12.747569405481556"><ele>14.5</ele><time>2026-05-01T11:26:46Z</time></trkpt><trkpt lat="45.88089156656911" lon="12.747882348689291"><ele>15.0</ele><time>2026-05-01T11:26:47Z</time></trkpt><trkpt lat="45.88062864419448" lon="12.74819478438164"><ele>15.0</ele><time>2026-05-01T11:26:48Z</time></trkpt><trkpt lat="45.88036354990521" lon="12.748505256263524"><ele>15.0</ele><time>2026-05-01T11:26:49Z</time></trkpt><trkpt lat="45.88009902602074" lon="12.74881487202896"><ele>14.5</ele><time>2026-05-01T11:26:50Z</time></trkpt><trkpt lat="45.87983432297453" lon="12.749124436493258"><ele>14.0</ele><time>2026-05-01T11:26:51Z</time></trkpt><trkpt lat="45.87956962040286" lon="12.74943282069065"><ele>14.0</ele><time>2026-05-01T11:26:52Z</time></trkpt><trkpt lat="45.87930562125474" lon="12.749742078776684"><ele>14.0</ele><time>2026-05-01T11:26:53Z</time></trkpt><trkpt lat="45.87904158799803" lon="12.750052394556596"><ele>13.5</ele><time>2026-05-01T11:26:54Z</time></trkpt><trkpt lat="45.87877832915081" lon="12.7503607325184"><ele>13.0</ele><time>2026-05-01T11:26:55Z</time></trkpt><trkpt lat="45.87851227308963" lon="12.750668586828482"><ele>13.0</ele><time>2026-05-01T11:26:56Z</time></trkpt><trkpt lat="45.8782444264477" lon="12.750973351332352"><ele>13.0</ele><time>2026-05-01T11:26:57Z</time></trkpt><trkpt lat="45.87797585067918" lon="12.751279347042423"><ele>13.0</ele><time>2026-05-01T11:26:58Z</time></trkpt><trkpt lat="45.877706571710554" lon="12.751584084284412"><ele>13.0</ele><time>2026-05-01T11:26:59Z</time></trkpt><trkpt lat="45.87743726794666" lon="12.751886612029503"><ele>12.5</ele><time>2026-05-01T11:27:00Z</time></trkpt><trkpt lat="45.877167937744154" lon="12.752187260140245"><ele>12.0</ele><time>2026-05-01T11:27:01Z</time></trkpt><trkpt lat="45.876897767684575" lon="12.752487480387526"><ele>12.0</ele><time>2026-05-01T11:27:02Z</time></trkpt><trkpt lat="45.87662719270166" lon="12.75278905346844"><ele>12.0</ele><time>2026-05-01T11:27:03Z</time></trkpt><trkpt lat="45.87635615982068" lon="12.753086559973559"><ele>12.0</ele><time>2026-05-01T11:27:04Z</time></trkpt><trkpt lat="45.876084998544336" lon="12.753382422844421"><ele>12.0</ele><time>2026-05-01T11:27:05Z</time></trkpt><trkpt lat="45.8758131553446" lon="12.75368079445709"><ele>11.5</ele><time>2026-05-01T11:27:06Z</time></trkpt><trkpt lat="45.87554248617194" lon="12.75397509950715"><ele>11.0</ele><time>2026-05-01T11:27:07Z</time></trkpt><trkpt lat="45.875271417200324" lon="12.75427017818748"><ele>11.0</ele><time>2026-05-01T11:27:08Z</time></trkpt><trkpt lat="45.87500012147829" lon="12.7545646973945"><ele>11.0</ele><time>2026-05-01T11:27:09Z</time></trkpt><trkpt lat="45.87472709795942" lon="12.754858345182617"><ele>11.0</ele><time>2026-05-01T11:27:10Z</time></trkpt><trkpt lat="45.87445295057685" lon="12.755149451285554"><ele>11.0</ele><time>2026-05-01T11:27:11Z</time></trkpt><trkpt lat="45.87417777659085" lon="12.755438343178993"><ele>11.0</ele><time>2026-05-01T11:27:12Z</time></trkpt><trkpt lat="45.873904599168974" lon="12.755729503534967"><ele>11.0</ele><time>2026-05-01T11:27:13Z</time></trkpt><trkpt lat="45.87363292950018" lon="12.756026132242516"><ele>12.0</ele><time>2026-05-01T11:27:14Z</time></trkpt><trkpt lat="45.873361368379655" lon="12.756322892434298"><ele>13.0</ele><time>2026-05-01T11:27:15Z</time></trkpt><trkpt lat="45.873091891068434" lon="12.756618194070919"><ele>12.5</ele><time>2026-05-01T11:27:16Z</time></trkpt><trkpt lat="45.87282189596747" lon="12.756914079069197"><ele>12.0</ele><time>2026-05-01T11:27:17Z</time></trkpt><trkpt lat="45.872552009394155" lon="12.757211218570685"><ele>13.0</ele><time>2026-05-01T11:27:18Z</time></trkpt><trkpt lat="45.87228142336956" lon="12.757507267118699"><ele>14.0</ele><time>2026-05-01T11:27:19Z</time></trkpt><trkpt lat="45.87200938963971" lon="12.757804402584993"><ele>14.0</ele><time>2026-05-01T11:27:20Z</time></trkpt><trkpt lat="45.871738033996294" lon="12.758099964933326"><ele>14.0</ele><time>2026-05-01T11:27:21Z</time></trkpt><trkpt lat="45.871466615899415" lon="12.758394724401168"><ele>13.5</ele><time>2026-05-01T11:27:22Z</time></trkpt><trkpt lat="45.87119412460037" lon="12.758689168172154"><ele>13.0</ele><time>2026-05-01T11:27:23Z</time></trkpt><trkpt lat="45.87092365685281" lon="12.758984914890313"><ele>13.0</ele><time>2026-05-01T11:27:24Z</time></trkpt><trkpt lat="45.870651971727675" lon="12.759283268688499"><ele>13.0</ele><time>2026-05-01T11:27:25Z</time></trkpt><trkpt lat="45.87038103274655" lon="12.759582259307962"><ele>13.0</ele><time>2026-05-01T11:27:26Z</time></trkpt><trkpt lat="45.87011045628344" lon="12.759879042889736"><ele>13.0</ele><time>2026-05-01T11:27:27Z</time></trkpt><trkpt lat="45.86983809921398" lon="12.760173635511599"><ele>12.5</ele><time>2026-05-01T11:27:28Z</time></trkpt><trkpt lat="45.8695642054475" lon="12.760463470329752"><ele>12.0</ele><time>2026-05-01T11:27:29Z</time></trkpt><trkpt lat="45.869291567401675" lon="12.760757888067365"><ele>14.0</ele><time>2026-05-01T11:27:30Z</time></trkpt><trkpt lat="45.869020222376214" lon="12.761049062667448"><ele>16.0</ele><time>2026-05-01T11:27:31Z</time></trkpt><trkpt lat="45.86874712779739" lon="12.761344028110807"><ele>16.0</ele><time>2026-05-01T11:27:32Z</time></trkpt><trkpt lat="45.868475622743865" lon="12.761637466525508"><ele>16.0</ele><time>2026-05-01T11:27:33Z</time></trkpt><trkpt lat="45.868204294553145" lon="12.761933658266337"><ele>14.5</ele><time>2026-05-01T11:27:34Z</time></trkpt><trkpt lat="45.867933333174236" lon="12.76222929268807"><ele>13.0</ele><time>2026-05-01T11:27:35Z</time></trkpt><trkpt lat="45.86766145841105" lon="12.762525899280554"><ele>13.5</ele><time>2026-05-01T11:27:36Z</time></trkpt><trkpt lat="45.867390495348744" lon="12.762825883203133"><ele>14.0</ele><time>2026-05-01T11:27:37Z</time></trkpt><trkpt lat="45.867122789420335" lon="12.763128629412277"><ele>14.0</ele><time>2026-05-01T11:27:38Z</time></trkpt><trkpt lat="45.86685726168803" lon="12.763433770241974"><ele>14.0</ele><time>2026-05-01T11:27:39Z</time></trkpt><trkpt lat="45.86659183484978" lon="12.763743550502419"><ele>13.0</ele><time>2026-05-01T11:27:40Z</time></trkpt><trkpt lat="45.86632935131728" lon="12.764054790427366"><ele>12.0</ele><time>2026-05-01T11:27:41Z</time></trkpt><trkpt lat="45.86606608610499" lon="12.764369178888339"><ele>13.0</ele><time>2026-05-01T11:27:42Z</time></trkpt><trkpt lat="45.86580395558593" lon="12.76468353718259"><ele>14.0</ele><time>2026-05-01T11:27:43Z</time></trkpt><trkpt lat="45.86554370346921" lon="12.765000158484623"><ele>14.0</ele><time>2026-05-01T11:27:44Z</time></trkpt><trkpt lat="45.86528458409071" lon="12.765320011897742"><ele>14.0</ele><time>2026-05-01T11:27:45Z</time></trkpt><trkpt lat="45.865029612466984" lon="12.765645289675112"><ele>14.0</ele><time>2026-05-01T11:27:46Z</time></trkpt><trkpt lat="45.864776828740816" lon="12.76597696389925"><ele>14.0</ele><time>2026-05-01T11:27:47Z</time></trkpt><trkpt lat="45.86452691116001" lon="12.766310017204157"><ele>13.5</ele><time>2026-05-01T11:27:48Z</time></trkpt><trkpt lat="45.86427859282219" lon="12.766644474987242"><ele>13.0</ele><time>2026-05-01T11:27:49Z</time></trkpt><trkpt lat="45.86403024130896" lon="12.766979631891509"><ele>13.0</ele><time>2026-05-01T11:27:50Z</time></trkpt><trkpt lat="45.8637822227568" lon="12.767316636505223"><ele>13.0</ele><time>2026-05-01T11:27:51Z</time></trkpt><trkpt lat="45.86353561877914" lon="12.76765778480442"><ele>13.5</ele><time>2026-05-01T11:27:52Z</time></trkpt><trkpt lat="45.863289959099795" lon="12.7679997989198"><ele>14.0</ele><time>2026-05-01T11:27:53Z</time></trkpt><trkpt lat="45.86304491400003" lon="12.76833932329173"><ele>14.0</ele><time>2026-05-01T11:27:54Z</time></trkpt><trkpt lat="45.86280015133037" lon="12.768677657156012"><ele>14.0</ele><time>2026-05-01T11:27:55Z</time></trkpt><trkpt lat="45.86255352602247" lon="12.769016156101486"><ele>14.0</ele><time>2026-05-01T11:27:56Z</time></trkpt><trkpt lat="45.862305907734815" lon="12.769354256989436"><ele>14.0</ele><time>2026-05-01T11:27:57Z</time></trkpt><trkpt lat="45.86205846439038" lon="12.769694025363151"><ele>13.5</ele><time>2026-05-01T11:27:58Z</time></trkpt><trkpt lat="45.86181196740957" lon="12.770032529197929"><ele>13.0</ele><time>2026-05-01T11:27:59Z</time></trkpt><trkpt lat="45.86156717708162" lon="12.770372281791682"><ele>12.5</ele><time>2026-05-01T11:28:00Z</time></trkpt><trkpt lat="45.86132178736151" lon="12.770710104513748"><ele>12.0</ele><time>2026-05-01T11:28:01Z</time></trkpt><trkpt lat="45.86107623457726" lon="12.771047774862902"><ele>13.5</ele><time>2026-05-01T11:28:02Z</time></trkpt><trkpt lat="45.86083189916085" lon="12.77138386504352"><ele>15.0</ele><time>2026-05-01T11:28:03Z</time></trkpt><trkpt lat="45.86058664608168" lon="12.771720814546539"><ele>15.0</ele><time>2026-05-01T11:28:04Z</time></trkpt><trkpt lat="45.8603401906687" lon="12.77206211150339"><ele>15.0</ele><time>2026-05-01T11:28:05Z</time></trkpt><trkpt lat="45.860094975532064" lon="12.7724004082453"><ele>15.5</ele><time>2026-05-01T11:28:06Z</time></trkpt><trkpt lat="45.85984950419496" lon="12.772740581777388"><ele>16.0</ele><time>2026-05-01T11:28:07Z</time></trkpt><trkpt lat="45.85960386762297" lon="12.773077947111027"><ele>16.0</ele><time>2026-05-01T11:28:08Z</time></trkpt><trkpt lat="45.85935982735181" lon="12.773414912116763"><ele>16.0</ele><time>2026-05-01T11:28:09Z</time></trkpt><trkpt lat="45.8591139562346" lon="12.773754574031521"><ele>15.0</ele><time>2026-05-01T11:28:10Z</time></trkpt><trkpt lat="45.85886688054058" lon="12.774092604766567"><ele>14.0</ele><time>2026-05-01T11:28:11Z</time></trkpt><trkpt lat="45.85862072050191" lon="12.77443107539992"><ele>13.0</ele><time>2026-05-01T11:28:12Z</time></trkpt><trkpt lat="45.858375304614114" lon="12.774768194938666"><ele>12.0</ele><time>2026-05-01T11:28:13Z</time></trkpt><trkpt lat="45.85812810961288" lon="12.77510601537695"><ele>12.0</ele><time>2026-05-01T11:28:14Z</time></trkpt><trkpt lat="45.85788031696567" lon="12.775442302498192"><ele>12.0</ele><time>2026-05-01T11:28:15Z</time></trkpt><trkpt lat="45.85763373111046" lon="12.775781204337907"><ele>11.5</ele><time>2026-05-01T11:28:16Z</time></trkpt><trkpt lat="45.857387658818986" lon="12.776122017802109"><ele>11.0</ele><time>2026-05-01T11:28:17Z</time></trkpt><trkpt lat="45.857141034195415" lon="12.776460754928939"><ele>11.0</ele><time>2026-05-01T11:28:18Z</time></trkpt><trkpt lat="45.856893293525545" lon="12.77679837235955"><ele>11.0</ele><time>2026-05-01T11:28:19Z</time></trkpt><trkpt lat="45.85664579482722" lon="12.777137768695802"><ele>11.0</ele><time>2026-05-01T11:28:20Z</time></trkpt><trkpt lat="45.85639686059274" lon="12.777477279794438"><ele>11.0</ele><time>2026-05-01T11:28:21Z</time></trkpt><trkpt lat="45.856150305451656" lon="12.777818105283062"><ele>12.0</ele><time>2026-05-01T11:28:22Z</time></trkpt><trkpt lat="45.8559044125234" lon="12.778155474380666"><ele>13.0</ele><time>2026-05-01T11:28:23Z</time></trkpt><trkpt lat="45.855657203480504" lon="12.778495532519708"><ele>12.0</ele><time>2026-05-01T11:28:24Z</time></trkpt><trkpt lat="45.8554108744198" lon="12.778832943756694"><ele>11.0</ele><time>2026-05-01T11:28:25Z</time></trkpt><trkpt lat="45.85516227228388" lon="12.779171078397878"><ele>11.0</ele><time>2026-05-01T11:28:26Z</time></trkpt><trkpt lat="45.85491556784082" lon="12.779500923077228"><ele>11.0</ele><time>2026-05-01T11:28:27Z</time></trkpt><trkpt lat="45.854670632146515" lon="12.779824320795623"><ele>11.0</ele><time>2026-05-01T11:28:28Z</time></trkpt><trkpt lat="45.8544289725637" lon="12.780135576652153"><ele>11.0</ele><time>2026-05-01T11:28:29Z</time></trkpt><trkpt lat="45.854184828817594" lon="12.780445364299863"><ele>10.5</ele><time>2026-05-01T11:28:30Z</time></trkpt><trkpt lat="45.85393693326966" lon="12.780754825485964"><ele>10.0</ele><time>2026-05-01T11:28:31Z</time></trkpt><trkpt lat="45.85368642238081" lon="12.78106154823417"><ele>10.0</ele><time>2026-05-01T11:28:32Z</time></trkpt><trkpt lat="45.85343566140167" lon="12.781372113745396"><ele>10.0</ele><time>2026-05-01T11:28:33Z</time></trkpt><trkpt lat="45.853180548111865" lon="12.781688139132566"><ele>10.5</ele><time>2026-05-01T11:28:34Z</time></trkpt><trkpt lat="45.852921730681935" lon="12.782003048320313"><ele>11.0</ele><time>2026-05-01T11:28:35Z</time></trkpt><trkpt lat="45.85266024910937" lon="12.782316584563889"><ele>11.0</ele><time>2026-05-01T11:28:36Z</time></trkpt><trkpt lat="45.85239720520984" lon="12.782626246463458"><ele>11.0</ele><time>2026-05-01T11:28:37Z</time></trkpt><trkpt lat="45.852133696237615" lon="12.782938051328571"><ele>11.0</ele><time>2026-05-01T11:28:38Z</time></trkpt><trkpt lat="45.85186998906131" lon="12.783248134389298"><ele>11.0</ele><time>2026-05-01T11:28:39Z</time></trkpt><trkpt lat="45.851604566551934" lon="12.783556871031545"><ele>10.5</ele><time>2026-05-01T11:28:40Z</time></trkpt><trkpt lat="45.851337322841175" lon="12.78386133791179"><ele>10.0</ele><time>2026-05-01T11:28:41Z</time></trkpt><trkpt lat="45.85106629877021" lon="12.784161524210157"><ele>10.5</ele><time>2026-05-01T11:28:42Z</time></trkpt><trkpt lat="45.85079672158115" lon="12.78446257986271"><ele>11.0</ele><time>2026-05-01T11:28:43Z</time></trkpt><trkpt lat="45.85052651042548" lon="12.784761566410769"><ele>11.0</ele><time>2026-05-01T11:28:44Z</time></trkpt><trkpt lat="45.85025493730676" lon="12.785056536584293"><ele>11.0</ele><time>2026-05-01T11:28:45Z</time></trkpt><trkpt lat="45.84998215390937" lon="12.785346525130208"><ele>11.5</ele><time>2026-05-01T11:28:46Z</time></trkpt><trkpt lat="45.849706451902044" lon="12.78563466428306"><ele>12.0</ele><time>2026-05-01T11:28:47Z</time></trkpt><trkpt lat="45.84943114211154" lon="12.7859234363648"><ele>12.5</ele><time>2026-05-01T11:28:48Z</time></trkpt><trkpt lat="45.84915566999647" lon="12.786208952610268"><ele>13.0</ele><time>2026-05-01T11:28:49Z</time></trkpt><trkpt lat="45.848880486494934" lon="12.786490883348913"><ele>13.0</ele><time>2026-05-01T11:28:50Z</time></trkpt><trkpt lat="45.848604030375746" lon="12.786773962135479"><ele>13.0</ele><time>2026-05-01T11:28:51Z</time></trkpt><trkpt lat="45.848326171669655" lon="12.787053598548967"><ele>12.0</ele><time>2026-05-01T11:28:52Z</time></trkpt><trkpt lat="45.84804462584641" lon="12.787330407409875"><ele>11.0</ele><time>2026-05-01T11:28:53Z</time></trkpt><trkpt lat="45.847760015839555" lon="12.787602559781721"><ele>11.0</ele><time>2026-05-01T11:28:54Z</time></trkpt><trkpt lat="45.84747520344103" lon="12.78787662209294"><ele>11.0</ele><time>2026-05-01T11:28:55Z</time></trkpt><trkpt lat="45.847191347690774" lon="12.788150912265634"><ele>11.0</ele><time>2026-05-01T11:28:56Z</time></trkpt><trkpt lat="45.84690827707419" lon="12.788424189495379"><ele>11.0</ele><time>2026-05-01T11:28:57Z</time></trkpt><trkpt lat="45.84662473586651" lon="12.788695209567237"><ele>11.5</ele><time>2026-05-01T11:28:58Z</time></trkpt><trkpt lat="45.84633974006689" lon="12.788960627859868"><ele>12.0</ele><time>2026-05-01T11:28:59Z</time></trkpt><trkpt lat="45.84605158469632" lon="12.789225423504444"><ele>12.0</ele><time>2026-05-01T11:29:00Z</time></trkpt><trkpt lat="45.84575849793927" lon="12.789485576596359"><ele>12.0</ele><time>2026-05-01T11:29:01Z</time></trkpt><trkpt lat="45.84546611989571" lon="12.789736080320694"><ele>12.0</ele><time>2026-05-01T11:29:02Z</time></trkpt><trkpt lat="45.845174545028605" lon="12.789986036309799"><ele>12.0</ele><time>2026-05-01T11:29:03Z</time></trkpt><trkpt lat="45.844881598447344" lon="12.790238991945023"><ele>11.0</ele><time>2026-05-01T11:29:04Z</time></trkpt><trkpt lat="45.84458782237722" lon="12.790493777195021"><ele>10.0</ele><time>2026-05-01T11:29:05Z</time></trkpt><trkpt lat="45.84429611377637" lon="12.790744535155103"><ele>10.0</ele><time>2026-05-01T11:29:06Z</time></trkpt><trkpt lat="45.84400465186904" lon="12.790997538368401"><ele>10.0</ele><time>2026-05-01T11:29:07Z</time></trkpt><trkpt lat="45.843714279570655" lon="12.791253865411022"><ele>9.5</ele><time>2026-05-01T11:29:08Z</time></trkpt><trkpt lat="45.84342317661033" lon="12.791510437938598"><ele>9.0</ele><time>2026-05-01T11:29:09Z</time></trkpt><trkpt lat="45.843130350733944" lon="12.791765551423003"><ele>9.0</ele><time>2026-05-01T11:29:10Z</time></trkpt><trkpt lat="45.842836433376526" lon="12.792018927030686"><ele>9.0</ele><time>2026-05-01T11:29:11Z</time></trkpt><trkpt lat="45.84254342023939" lon="12.79226831216334"><ele>8.5</ele><time>2026-05-01T11:29:12Z</time></trkpt><trkpt lat="45.84224941350972" lon="12.792519988384571"><ele>8.0</ele><time>2026-05-01T11:29:13Z</time></trkpt><trkpt lat="45.84195685044755" lon="12.792773722133587"><ele>7.0</ele><time>2026-05-01T11:29:14Z</time></trkpt><trkpt lat="45.84166325046613" lon="12.793027878125443"><ele>6.0</ele><time>2026-05-01T11:29:15Z</time></trkpt><trkpt lat="45.841369574130304" lon="12.793281649952174"><ele>6.5</ele><time>2026-05-01T11:29:16Z</time></trkpt><trkpt lat="45.84107698406535" lon="12.793533287107483"><ele>7.0</ele><time>2026-05-01T11:29:17Z</time></trkpt><trkpt lat="45.84078418203684" lon="12.793784518247183"><ele>7.0</ele><time>2026-05-01T11:29:18Z</time></trkpt><trkpt lat="45.84049094259775" lon="12.794035913582796"><ele>7.0</ele><time>2026-05-01T11:29:19Z</time></trkpt><trkpt lat="45.84019834014835" lon="12.794286780379037"><ele>8.0</ele><time>2026-05-01T11:29:20Z</time></trkpt><trkpt lat="45.83990740605684" lon="12.794539260031215"><ele>9.0</ele><time>2026-05-01T11:29:21Z</time></trkpt><trkpt lat="45.83961805256498" lon="12.7947915380281"><ele>9.0</ele><time>2026-05-01T11:29:22Z</time></trkpt><trkpt lat="45.8393276221825" lon="12.795043110357643"><ele>9.0</ele><time>2026-05-01T11:29:23Z</time></trkpt><trkpt lat="45.839036971338246" lon="12.795297117082356"><ele>8.5</ele><time>2026-05-01T11:29:24Z</time></trkpt><trkpt lat="45.83874438289594" lon="12.795554248885198"><ele>8.0</ele><time>2026-05-01T11:29:25Z</time></trkpt><trkpt lat="45.8384512824804" lon="12.795811357606913"><ele>8.0</ele><time>2026-05-01T11:29:26Z</time></trkpt><trkpt lat="45.83815994154124" lon="12.796066438590266"><ele>8.0</ele><time>2026-05-01T11:29:27Z</time></trkpt><trkpt lat="45.83786808092322" lon="12.79631993085273"><ele>7.5</ele><time>2026-05-01T11:29:28Z</time></trkpt><trkpt lat="45.83757560620916" lon="12.796570140512445"><ele>7.0</ele><time>2026-05-01T11:29:29Z</time></trkpt><trkpt lat="45.83728328353982" lon="12.796821976291616"><ele>6.5</ele><time>2026-05-01T11:29:30Z</time></trkpt><trkpt lat="45.83699081387956" lon="12.797072256323863"><ele>6.0</ele><time>2026-05-01T11:29:31Z</time></trkpt><trkpt lat="45.83669800120137" lon="12.797325392152931"><ele>7.0</ele><time>2026-05-01T11:29:32Z</time></trkpt><trkpt lat="45.836403751003566" lon="12.797580037494019"><ele>8.0</ele><time>2026-05-01T11:29:33Z</time></trkpt><trkpt lat="45.83611029424644" lon="12.797835023605296"><ele>7.5</ele><time>2026-05-01T11:29:34Z</time></trkpt><trkpt lat="45.835818447248414" lon="12.79808842227435"><ele>7.0</ele><time>2026-05-01T11:29:35Z</time></trkpt><trkpt lat="45.835524920242364" lon="12.7983425596904"><ele>8.0</ele><time>2026-05-01T11:29:36Z</time></trkpt><trkpt lat="45.83523300498655" lon="12.798593484181296"><ele>9.0</ele><time>2026-05-01T11:29:37Z</time></trkpt><trkpt lat="45.834941204468066" lon="12.798843804889046"><ele>9.0</ele><time>2026-05-01T11:29:38Z</time></trkpt><trkpt lat="45.83464758649866" lon="12.799096161705926"><ele>9.0</ele><time>2026-05-01T11:29:39Z</time></trkpt><trkpt lat="45.83435540988502" lon="12.799346503924067"><ele>8.0</ele><time>2026-05-01T11:29:40Z</time></trkpt><trkpt lat="45.83406296332582" lon="12.799594618970476"><ele>7.0</ele><time>2026-05-01T11:29:41Z</time></trkpt><trkpt lat="45.8337728148184" lon="12.79984324549865"><ele>7.0</ele><time>2026-05-01T11:29:42Z</time></trkpt><trkpt lat="45.833482308284275" lon="12.80009343227417"><ele>7.0</ele><time>2026-05-01T11:29:43Z</time></trkpt><trkpt lat="45.833190962897454" lon="12.800343973561638"><ele>7.0</ele><time>2026-05-01T11:29:44Z</time></trkpt><trkpt lat="45.83289969611711" lon="12.800596425274538"><ele>7.0</ele><time>2026-05-01T11:29:45Z</time></trkpt><trkpt lat="45.8326081923525" lon="12.800848930064925"><ele>6.5</ele><time>2026-05-01T11:29:46Z</time></trkpt><trkpt lat="45.832316201964936" lon="12.801099778360987"><ele>6.0</ele><time>2026-05-01T11:29:47Z</time></trkpt><trkpt lat="45.83202395705498" lon="12.801350109630981"><ele>6.5</ele><time>2026-05-01T11:29:48Z</time></trkpt><trkpt lat="45.83173206236674" lon="12.801599527938594"><ele>7.0</ele><time>2026-05-01T11:29:49Z</time></trkpt><trkpt lat="45.8314392613677" lon="12.801850793550622"><ele>7.0</ele><time>2026-05-01T11:29:50Z</time></trkpt><trkpt lat="45.83114559587" lon="12.80210323551549"><ele>7.0</ele><time>2026-05-01T11:29:51Z</time></trkpt><trkpt lat="45.830851052286235" lon="12.802356391625997"><ele>7.0</ele><time>2026-05-01T11:29:52Z</time></trkpt><trkpt lat="45.83055752122811" lon="12.80260883688938"><ele>7.0</ele><time>2026-05-01T11:29:53Z</time></trkpt><trkpt lat="45.83026452522446" lon="12.802861728611786"><ele>6.5</ele><time>2026-05-01T11:29:54Z</time></trkpt><trkpt lat="45.82997140820401" lon="12.803113765162342"><ele>6.0</ele><time>2026-05-01T11:29:55Z</time></trkpt><trkpt lat="45.829679708607955" lon="12.803366129048525"><ele>6.0</ele><time>2026-05-01T11:29:56Z</time></trkpt><trkpt lat="45.82938511890646" lon="12.80361925567667"><ele>6.0</ele><time>2026-05-01T11:29:57Z</time></trkpt><trkpt lat="45.82909248234183" lon="12.80386805389062"><ele>6.0</ele><time>2026-05-01T11:29:58Z</time></trkpt><trkpt lat="45.82879878237959" lon="12.804120546039623"><ele>6.0</ele><time>2026-05-01T11:29:59Z</time></trkpt><trkpt lat="45.828505203892554" lon="12.804372197946151"><ele>6.0</ele><time>2026-05-01T11:30:00Z</time></trkpt><trkpt lat="45.82821218324376" lon="12.804624671407002"><ele>6.0</ele><time>2026-05-01T11:30:01Z</time></trkpt><trkpt lat="45.827920596301254" lon="12.804876011488956"><ele>6.5</ele><time>2026-05-01T11:30:02Z</time></trkpt><trkpt lat="45.8276276709077" lon="12.805131720875563"><ele>7.0</ele><time>2026-05-01T11:30:03Z</time></trkpt><trkpt lat="45.827333509923164" lon="12.805388203333733"><ele>6.0</ele><time>2026-05-01T11:30:04Z</time></trkpt><trkpt lat="45.82704162270569" lon="12.805641673124448"><ele>5.0</ele><time>2026-05-01T11:30:05Z</time></trkpt><trkpt lat="45.826747903902195" lon="12.805895529330872"><ele>4.5</ele><time>2026-05-01T11:30:06Z</time></trkpt><trkpt lat="45.82645454767054" lon="12.806147387282746"><ele>4.0</ele><time>2026-05-01T11:30:07Z</time></trkpt><trkpt lat="45.826160280351814" lon="12.806399346680394"><ele>4.0</ele><time>2026-05-01T11:30:08Z</time></trkpt><trkpt lat="45.82586511003805" lon="12.806645780316773"><ele>4.0</ele><time>2026-05-01T11:30:09Z</time></trkpt><trkpt lat="45.825566958356106" lon="12.806888453888362"><ele>5.0</ele><time>2026-05-01T11:30:10Z</time></trkpt><trkpt lat="45.825267189415406" lon="12.807122146607192"><ele>6.0</ele><time>2026-05-01T11:30:11Z</time></trkpt><trkpt lat="45.82496648779557" lon="12.80735005090657"><ele>6.0</ele><time>2026-05-01T11:30:12Z</time></trkpt><trkpt lat="45.82466393992078" lon="12.807576423179288"><ele>6.0</ele><time>2026-05-01T11:30:13Z</time></trkpt><trkpt lat="45.82436048918788" lon="12.807797683333536"><ele>5.5</ele><time>2026-05-01T11:30:14Z</time></trkpt><trkpt lat="45.8240567417743" lon="12.808019255273202"><ele>5.0</ele><time>2026-05-01T11:30:15Z</time></trkpt><trkpt lat="45.82375015718099" lon="12.808235281899659"><ele>5.0</ele><time>2026-05-01T11:30:16Z</time></trkpt><trkpt lat="45.823440960510744" lon="12.808443414804461"><ele>5.0</ele><time>2026-05-01T11:30:17Z</time></trkpt><trkpt lat="45.82312999654425" lon="12.808650494097435"><ele>5.0</ele><time>2026-05-01T11:30:18Z</time></trkpt><trkpt lat="45.822819120531996" lon="12.808853688957937"><ele>5.0</ele><time>2026-05-01T11:30:19Z</time></trkpt><trkpt lat="45.82250851242802" lon="12.80905245397536"><ele>5.0</ele><time>2026-05-01T11:30:20Z</time></trkpt><trkpt lat="45.822196135057574" lon="12.809245258143534"><ele>5.0</ele><time>2026-05-01T11:30:21Z</time></trkpt><trkpt lat="45.821882652112976" lon="12.809432517668242"><ele>5.0</ele><time>2026-05-01T11:30:22Z</time></trkpt><trkpt lat="45.821569206022275" lon="12.809620012319535"><ele>5.0</ele><time>2026-05-01T11:30:23Z</time></trkpt><trkpt lat="45.82125161174629" lon="12.809799483321841"><ele>5.0</ele><time>2026-05-01T11:30:24Z</time></trkpt><trkpt lat="45.820932807893264" lon="12.809973485277306"><ele>5.0</ele><time>2026-05-01T11:30:25Z</time></trkpt><trkpt lat="45.82060970908504" lon="12.810138678191143"><ele>4.5</ele><time>2026-05-01T11:30:26Z</time></trkpt><trkpt lat="45.82028646153306" lon="12.81029852474458"><ele>4.0</ele><time>2026-05-01T11:30:27Z</time></trkpt><trkpt lat="45.81995758959965" lon="12.81044141228703"><ele>5.0</ele><time>2026-05-01T11:30:28Z</time></trkpt><trkpt lat="45.81963030962434" lon="12.810588113316554"><ele>6.0</ele><time>2026-05-01T11:30:29Z</time></trkpt><trkpt lat="45.81930427814711" lon="12.810735350101982"><ele>6.5</ele><time>2026-05-01T11:30:30Z</time></trkpt><trkpt lat="45.81897774949041" lon="12.81088275162852"><ele>7.0</ele><time>2026-05-01T11:30:31Z</time></trkpt><trkpt lat="45.8186513509735" lon="12.81102249184556"><ele>7.0</ele><time>2026-05-01T11:30:32Z</time></trkpt><trkpt lat="45.81832414135282" lon="12.81115820283145"><ele>7.0</ele><time>2026-05-01T11:30:33Z</time></trkpt><trkpt lat="45.817995592628016" lon="12.811289348440125"><ele>7.0</ele><time>2026-05-01T11:30:34Z</time></trkpt><trkpt lat="45.817666656636305" lon="12.811411396326005"><ele>7.0</ele><time>2026-05-01T11:30:35Z</time></trkpt><trkpt lat="45.81733405308039" lon="12.811529761529664"><ele>5.5</ele><time>2026-05-01T11:30:36Z</time></trkpt><trkpt lat="45.81700137351187" lon="12.811642967859772"><ele>4.0</ele><time>2026-05-01T11:30:37Z</time></trkpt><trkpt lat="45.81666604855065" lon="12.81175304426186"><ele>3.0</ele><time>2026-05-01T11:30:38Z</time></trkpt><trkpt lat="45.81633279802811" lon="12.811863992748236"><ele>2.0</ele><time>2026-05-01T11:30:39Z</time></trkpt><trkpt lat="45.815998830452976" lon="12.811973014188863"><ele>2.5</ele><time>2026-05-01T11:30:40Z</time></trkpt><trkpt lat="45.815666581770515" lon="12.812081045262557"><ele>3.0</ele><time>2026-05-01T11:30:41Z</time></trkpt><trkpt lat="45.81533444400793" lon="12.812189356248188"><ele>2.0</ele><time>2026-05-01T11:30:42Z</time></trkpt><trkpt lat="45.815001050937894" lon="12.812302722432836"><ele>1.0</ele><time>2026-05-01T11:30:43Z</time></trkpt><trkpt lat="45.81466895812157" lon="12.812413811507012"><ele>1.0</ele><time>2026-05-01T11:30:44Z</time></trkpt><trkpt lat="45.814336597823335" lon="12.81252792136236"><ele>1.0</ele><time>2026-05-01T11:30:45Z</time></trkpt><trkpt lat="45.81400418863663" lon="12.812645204298299"><ele>1.0</ele><time>2026-05-01T11:30:46Z</time></trkpt><trkpt lat="45.81367252610143" lon="12.812768197843889"><ele>1.0</ele><time>2026-05-01T11:30:47Z</time></trkpt><trkpt lat="45.81334207442872" lon="12.812899471443098"><ele>2.0</ele><time>2026-05-01T11:30:48Z</time></trkpt><trkpt lat="45.813013358722884" lon="12.813034284766857"><ele>3.0</ele><time>2026-05-01T11:30:49Z</time></trkpt><trkpt lat="45.81268496432059" lon="12.813174723477653"><ele>2.5</ele><time>2026-05-01T11:30:50Z</time></trkpt><trkpt lat="45.81235833594954" lon="12.813315803262018"><ele>2.0</ele><time>2026-05-01T11:30:51Z</time></trkpt><trkpt lat="45.81203223913708" lon="12.81346058937599"><ele>2.5</ele><time>2026-05-01T11:30:52Z</time></trkpt><trkpt lat="45.811708800947414" lon="12.813606799836442"><ele>3.0</ele><time>2026-05-01T11:30:53Z</time></trkpt><trkpt lat="45.81138637612648" lon="12.813758923086867"><ele>3.0</ele><time>2026-05-01T11:30:54Z</time></trkpt><trkpt lat="45.81106403995156" lon="12.813915562618082"><ele>3.0</ele><time>2026-05-01T11:30:55Z</time></trkpt><trkpt lat="45.81074212481926" lon="12.814077796477338"><ele>2.5</ele><time>2026-05-01T11:30:56Z</time></trkpt><trkpt lat="45.81042249004614" lon="12.814246566218433"><ele>2.0</ele><time>2026-05-01T11:30:57Z</time></trkpt><trkpt lat="45.8101052914313" lon="12.814417967713608"><ele>2.0</ele><time>2026-05-01T11:30:58Z</time></trkpt><trkpt lat="45.80978914349589" lon="12.81459075584453"><ele>2.0</ele><time>2026-05-01T11:30:59Z</time></trkpt><trkpt lat="45.809471616327656" lon="12.814768923407092"><ele>3.0</ele><time>2026-05-01T11:31:00Z</time></trkpt><trkpt lat="45.80915524218669" lon="12.81495146452061"><ele>4.0</ele><time>2026-05-01T11:31:01Z</time></trkpt><trkpt lat="45.808841103022495" lon="12.815140665689373"><ele>4.0</ele><time>2026-05-01T11:31:02Z</time></trkpt><trkpt lat="45.80852860579267" lon="12.815336209678327"><ele>4.0</ele><time>2026-05-01T11:31:03Z</time></trkpt><trkpt lat="45.80821775417799" lon="12.815537974729862"><ele>5.5</ele><time>2026-05-01T11:31:04Z</time></trkpt><trkpt lat="45.8079085337806" lon="12.815744915467747"><ele>7.0</ele><time>2026-05-01T11:31:05Z</time></trkpt><trkpt lat="45.80760025419561" lon="12.815959775727148"><ele>7.0</ele><time>2026-05-01T11:31:06Z</time></trkpt><trkpt lat="45.80729230296882" lon="12.816175154127478"><ele>7.0</ele><time>2026-05-01T11:31:07Z</time></trkpt><trkpt lat="45.80698907487032" lon="12.816391508311868"><ele>7.0</ele><time>2026-05-01T11:31:08Z</time></trkpt><trkpt lat="45.80669411663574" lon="12.816604800901224"><ele>7.0</ele><time>2026-05-01T11:31:09Z</time></trkpt><trkpt lat="45.80640770511284" lon="12.816815359339039"><ele>6.5</ele><time>2026-05-01T11:31:10Z</time></trkpt><trkpt lat="45.80612871407287" lon="12.81702343860422"><ele>6.0</ele><time>2026-05-01T11:31:11Z</time></trkpt><trkpt lat="45.80585507332207" lon="12.817233239523702"><ele>7.5</ele><time>2026-05-01T11:31:12Z</time></trkpt><trkpt lat="45.80558605880675" lon="12.817441787463679"><ele>9.0</ele><time>2026-05-01T11:31:13Z</time></trkpt><trkpt lat="45.805320617493194" lon="12.817650385821295"><ele>8.5</ele><time>2026-05-01T11:31:14Z</time></trkpt><trkpt lat="45.80505996367273" lon="12.817861063638002"><ele>8.0</ele><time>2026-05-01T11:31:15Z</time></trkpt><trkpt lat="45.804804522483124" lon="12.818070616994701"><ele>8.0</ele><time>2026-05-01T11:31:16Z</time></trkpt><trkpt lat="45.804553384242936" lon="12.818282812367066"><ele>8.0</ele><time>2026-05-01T11:31:17Z</time></trkpt><trkpt lat="45.804307357497926" lon="12.818493839501068"><ele>7.5</ele><time>2026-05-01T11:31:18Z</time></trkpt><trkpt lat="45.804065447187426" lon="12.818705889566782"><ele>7.0</ele><time>2026-05-01T11:31:19Z</time></trkpt><trkpt lat="45.80382622771261" lon="12.818917982441487"><ele>7.0</ele><time>2026-05-01T11:31:20Z</time></trkpt><trkpt lat="45.803592628833634" lon="12.819127872946439"><ele>7.0</ele><time>2026-05-01T11:31:21Z</time></trkpt><trkpt lat="45.80336325414021" lon="12.819336328644072"><ele>5.5</ele><time>2026-05-01T11:31:22Z</time></trkpt><trkpt lat="45.803139580955204" lon="12.819544053370162"><ele>4.0</ele><time>2026-05-01T11:31:23Z</time></trkpt><trkpt lat="45.80291913015805" lon="12.819749700317422"><ele>4.0</ele><time>2026-05-01T11:31:24Z</time></trkpt><trkpt lat="45.802706355991965" lon="12.819957103234051"><ele>4.0</ele><time>2026-05-01T11:31:25Z</time></trkpt><trkpt lat="45.80249874306427" lon="12.820160366381263"><ele>4.5</ele><time>2026-05-01T11:31:26Z</time></trkpt><trkpt lat="45.80229592423844" lon="12.820363522444302"><ele>5.0</ele><time>2026-05-01T11:31:27Z</time></trkpt><trkpt lat="45.80209839982536" lon="12.820565141320087"><ele>5.0</ele><time>2026-05-01T11:31:28Z</time></trkpt><trkpt lat="45.801906305144975" lon="12.820761918083782"><ele>5.0</ele><time>2026-05-01T11:31:29Z</time></trkpt><trkpt lat="45.80172175177748" lon="12.820953148315498"><ele>6.0</ele><time>2026-05-01T11:31:30Z</time></trkpt><trkpt lat="45.801543397048896" lon="12.82113871510705"><ele>7.0</ele><time>2026-05-01T11:31:31Z</time></trkpt><trkpt lat="45.80137030685755" lon="12.82132084265058"><ele>8.0</ele><time>2026-05-01T11:31:32Z</time></trkpt><trkpt lat="45.801200915426314" lon="12.821498707919453"><ele>8.0</ele><time>2026-05-01T11:31:33Z</time></trkpt><trkpt lat="45.80103836886959" lon="12.82167544773365"><ele>8.0</ele><time>2026-05-01T11:31:34Z</time></trkpt><trkpt lat="45.80088308281902" lon="12.821848773943803"><ele>8.0</ele><time>2026-05-01T11:31:35Z</time></trkpt><trkpt lat="45.80073110366641" lon="12.822020116755391"><ele>8.666666666666666</ele><time>2026-05-01T11:31:36Z</time></trkpt><trkpt lat="45.80058383489205" lon="12.822185879800767"><ele>9.333333333333334</ele><time>2026-05-01T11:31:37Z</time></trkpt><trkpt lat="45.800438750236616" lon="12.822351749017981"><ele>10.0</ele><time>2026-05-01T11:31:38Z</time></trkpt><trkpt lat="45.80029458441926" lon="12.822514953253549"><ele>9.666666666666668</ele><time>2026-05-01T11:31:39Z</time></trkpt><trkpt lat="45.80015038257001" lon="12.822680756719347"><ele>9.333333333333334</ele><time>2026-05-01T11:31:40Z</time></trkpt><trkpt lat="45.80000957204306" lon="12.822844815595419"><ele>9.0</ele><time>2026-05-01T11:31:41Z</time></trkpt><trkpt lat="45.79987270803693" lon="12.823008765339543"><ele>9.0</ele><time>2026-05-01T11:31:42Z</time></trkpt><trkpt lat="45.79974113600101" lon="12.823166780704456"><ele>9.0</ele><time>2026-05-01T11:31:43Z</time></trkpt><trkpt lat="45.79961471871141" lon="12.823319880549162"><ele>9.0</ele><time>2026-05-01T11:31:44Z</time></trkpt><trkpt lat="45.79949205857291" lon="12.823465517400559"><ele>8.5</ele><time>2026-05-01T11:31:45Z</time></trkpt><trkpt lat="45.79937394295919" lon="12.823604802584896"><ele>8.0</ele><time>2026-05-01T11:31:46Z</time></trkpt><trkpt lat="45.79926047851831" lon="12.823738117762726"><ele>7.5</ele><time>2026-05-01T11:31:47Z</time></trkpt><trkpt lat="45.7991511135049" lon="12.823864252466496"><ele>7.0</ele><time>2026-05-01T11:31:48Z</time></trkpt><trkpt lat="45.799043656643974" lon="12.823986173976204"><ele>7.0</ele><time>2026-05-01T11:31:49Z</time></trkpt><trkpt lat="45.7989388336355" lon="12.824101076301659"><ele>7.0</ele><time>2026-05-01T11:31:50Z</time></trkpt><trkpt lat="45.79884053017161" lon="12.824206777103939"><ele>7.0</ele><time>2026-05-01T11:31:51Z</time></trkpt><trkpt lat="45.798749227534216" lon="12.82430008764715"><ele>7.0</ele><time>2026-05-01T11:31:52Z</time></trkpt><trkpt lat="45.79866496412348" lon="12.824382450580751"><ele>7.166666666666667</ele><time>2026-05-01T11:31:53Z</time></trkpt><trkpt lat="45.798593941096215" lon="12.824456439684347"><ele>7.333333333333334</ele><time>2026-05-01T11:31:54Z</time></trkpt><trkpt lat="45.7985338159279" lon="12.824523369358236"><ele>7.5</ele><time>2026-05-01T11:31:55Z</time></trkpt><trkpt lat="45.798484039191514" lon="12.824583413059667"><ele>7.666666666666666</ele><time>2026-05-01T11:31:56Z</time></trkpt><trkpt lat="45.79841100011491" lon="12.824675760456962"><ele>7.833333333333333</ele><time>2026-05-01T11:31:58Z</time></trkpt><trkpt lat="45.79835683136582" lon="12.824739394829116"><ele>8.0</ele><time>2026-05-01T11:32:00Z</time></trkpt><trkpt lat="45.79829034435337" lon="12.824818599412662"><ele>7.999999999999999</ele><time>2026-05-01T11:32:03Z</time></trkpt><trkpt lat="45.79821478845843" lon="12.824892794620794"><ele>8.0</ele><time>2026-05-01T11:32:06Z</time></trkpt><trkpt lat="45.7981579672618" lon="12.82497588327691"><ele>8.0</ele><time>2026-05-01T11:32:08Z</time></trkpt><trkpt lat="45.79811198362229" lon="12.825040365095775"><ele>8.0</ele><time>2026-05-01T11:32:09Z</time></trkpt><trkpt lat="45.798053002934346" lon="12.825121323953645"><ele>7.999999999999999</ele><time>2026-05-01T11:32:10Z</time></trkpt><trkpt lat="45.79798878289294" lon="12.825214768314655"><ele>8.0</ele><time>2026-05-01T11:32:11Z</time></trkpt><trkpt lat="45.797923404485196" lon="12.825312442586155"><ele>8.0</ele><time>2026-05-01T11:32:12Z</time></trkpt><trkpt lat="45.7978634248415" lon="12.82540589264883"><ele>8.0</ele><time>2026-05-01T11:32:13Z</time></trkpt><trkpt lat="45.79779920215682" lon="12.82550137375787"><ele>8.0</ele><time>2026-05-01T11:32:14Z</time></trkpt><trkpt lat="45.79772763533471" lon="12.825605991871031"><ele>8.0</ele><time>2026-05-01T11:32:15Z</time></trkpt><trkpt lat="45.79764614663403" lon="12.825721654544726"><ele>8.0</ele><time>2026-05-01T11:32:16Z</time></trkpt><trkpt lat="45.797554975872586" lon="12.825843317985761"><ele>8.0</ele><time>2026-05-01T11:32:17Z</time></trkpt><trkpt lat="45.797447102116045" lon="12.825967612206322"><ele>8.0</ele><time>2026-05-01T11:32:18Z</time></trkpt><trkpt lat="45.797322136723714" lon="12.826086833495241"><ele>8.0</ele><time>2026-05-01T11:32:19Z</time></trkpt><trkpt lat="45.797185349592496" lon="12.8261963220352"><ele>8.0</ele><time>2026-05-01T11:32:20Z</time></trkpt><trkpt lat="45.7970460645571" lon="12.826300283989385"><ele>7.666666666666666</ele><time>2026-05-01T11:32:21Z</time></trkpt><trkpt lat="45.796893845655724" lon="12.826407166063635"><ele>7.333333333333334</ele><time>2026-05-01T11:32:22Z</time></trkpt><trkpt lat="45.79673867286324" lon="12.82651145142405"><ele>7.0</ele><time>2026-05-01T11:32:23Z</time></trkpt><trkpt lat="45.79657747782302" lon="12.826613476289879"><ele>7.0</ele><time>2026-05-01T11:32:24Z</time></trkpt><trkpt lat="45.796407401363346" lon="12.826707647487122"><ele>7.0</ele><time>2026-05-01T11:32:25Z</time></trkpt><trkpt lat="45.79622482343679" lon="12.826793670974352"><ele>7.0</ele><time>2026-05-01T11:32:26Z</time></trkpt><trkpt lat="45.79603181675128" lon="12.826868868124022"><ele>6.666666666666667</ele><time>2026-05-01T11:32:27Z</time></trkpt><trkpt lat="45.795830621710614" lon="12.82693806663926"><ele>6.333333333333334</ele><time>2026-05-01T11:32:28Z</time></trkpt><trkpt lat="45.79562147408982" lon="12.826999867212656"><ele>6.0</ele><time>2026-05-01T11:32:29Z</time></trkpt><trkpt lat="45.79540593498155" lon="12.827049441519597"><ele>6.0</ele><time>2026-05-01T11:32:30Z</time></trkpt><trkpt lat="45.7951853787052" lon="12.827090347170133"><ele>6.0</ele><time>2026-05-01T11:32:31Z</time></trkpt><trkpt lat="45.79496333678745" lon="12.827121281984462"><ele>6.0</ele><time>2026-05-01T11:32:32Z</time></trkpt><trkpt lat="45.794747010786644" lon="12.827154205891494"><ele>6.0</ele><time>2026-05-01T11:32:33Z</time></trkpt><trkpt lat="45.79453633429006" lon="12.827198017167893"><ele>6.0</ele><time>2026-05-01T11:32:34Z</time></trkpt><trkpt lat="45.794335687215174" lon="12.827256152560153"><ele>6.0</ele><time>2026-05-01T11:32:35Z</time></trkpt><trkpt lat="45.79414314100245" lon="12.827323383510661"><ele>6.0</ele><time>2026-05-01T11:32:36Z</time></trkpt><trkpt lat="45.79395766542251" lon="12.827398889935788"><ele>6.0</ele><time>2026-05-01T11:32:37Z</time></trkpt><trkpt lat="45.79377759418342" lon="12.82748847686482"><ele>6.0</ele><time>2026-05-01T11:32:38Z</time></trkpt><trkpt lat="45.793598990835804" lon="12.827590579103301"><ele>6.333333333333334</ele><time>2026-05-01T11:32:39Z</time></trkpt><trkpt lat="45.79342096395641" lon="12.827688756452439"><ele>6.666666666666667</ele><time>2026-05-01T11:32:40Z</time></trkpt><trkpt lat="45.79324241955725" lon="12.82779310366407"><ele>7.0</ele><time>2026-05-01T11:32:41Z</time></trkpt><trkpt lat="45.79306275103803" lon="12.827907904276502"><ele>7.0</ele><time>2026-05-01T11:32:42Z</time></trkpt><trkpt lat="45.79288951883825" lon="12.828024720408136"><ele>7.0</ele><time>2026-05-01T11:32:43Z</time></trkpt><trkpt lat="45.79272357198562" lon="12.828138602044373"><ele>7.0</ele><time>2026-05-01T11:32:44Z</time></trkpt><trkpt lat="45.792566767993215" lon="12.828244713277122"><ele>7.0</ele><time>2026-05-01T11:32:45Z</time></trkpt><trkpt lat="45.79242643666559" lon="12.828337583552406"><ele>7.0</ele><time>2026-05-01T11:32:46Z</time></trkpt><trkpt lat="45.79229064407421" lon="12.828441060514493"><ele>7.0</ele><time>2026-05-01T11:32:47Z</time></trkpt><trkpt lat="45.79216657300638" lon="12.828560904615253"><ele>6.5</ele><time>2026-05-01T11:32:48Z</time></trkpt><trkpt lat="45.79205563638025" lon="12.828701386372211"><ele>6.0</ele><time>2026-05-01T11:32:49Z</time></trkpt><trkpt lat="45.791964185210674" lon="12.828861721534837"><ele>5.5</ele><time>2026-05-01T11:32:50Z</time></trkpt><trkpt lat="45.79189511478795" lon="12.829045251708527"><ele>5.0</ele><time>2026-05-01T11:32:51Z</time></trkpt><trkpt lat="45.79187509086033" lon="12.829241570259299"><ele>4.5</ele><time>2026-05-01T11:32:52Z</time></trkpt><trkpt lat="45.79186682105427" lon="12.82944631582733"><ele>4.0</ele><time>2026-05-01T11:32:53Z</time></trkpt><trkpt lat="45.79188734211531" lon="12.829643311051777"><ele>3.5</ele><time>2026-05-01T11:32:54Z</time></trkpt><trkpt lat="45.79192978441349" lon="12.829829120470873"><ele>3.0</ele><time>2026-05-01T11:32:55Z</time></trkpt><trkpt lat="45.79200117272417" lon="12.829987596461361"><ele>3.0</ele><time>2026-05-01T11:32:56Z</time></trkpt><trkpt lat="45.79208858132085" lon="12.830134871167617"><ele>3.0</ele><time>2026-05-01T11:32:57Z</time></trkpt><trkpt lat="45.79219856286772" lon="12.83025334042624"><ele>3.0</ele><time>2026-05-01T11:32:58Z</time></trkpt><trkpt lat="45.7923260778066" lon="12.830366221119926"><ele>3.0</ele><time>2026-05-01T11:32:59Z</time></trkpt><trkpt lat="45.792481965459935" lon="12.830430159569012"><ele>2.6666666666666665</ele><time>2026-05-01T11:33:00Z</time></trkpt><trkpt lat="45.79264253792157" lon="12.830476573222223"><ele>2.333333333333333</ele><time>2026-05-01T11:33:01Z</time></trkpt><trkpt lat="45.792801177917255" lon="12.830511767052547"><ele>2.0</ele><time>2026-05-01T11:33:02Z</time></trkpt><trkpt lat="45.79295983217708" lon="12.830548410074325"><ele>2.0</ele><time>2026-05-01T11:33:03Z</time></trkpt><trkpt lat="45.793118428535095" lon="12.830601586042382"><ele>2.0</ele><time>2026-05-01T11:33:04Z</time></trkpt><trkpt lat="45.7932759018718" lon="12.830683342198828"><ele>2.0</ele><time>2026-05-01T11:33:05Z</time></trkpt><trkpt lat="45.79342731889118" lon="12.830793793331656"><ele>2.6666666666666665</ele><time>2026-05-01T11:33:06Z</time></trkpt><trkpt lat="45.793569474773065" lon="12.830927830509706"><ele>3.333333333333333</ele><time>2026-05-01T11:33:07Z</time></trkpt><trkpt lat="45.79369667358856" lon="12.83108575816561"><ele>4.0</ele><time>2026-05-01T11:33:08Z</time></trkpt><trkpt lat="45.79381508015231" lon="12.831263946249637"><ele>4.0</ele><time>2026-05-01T11:33:09Z</time></trkpt><trkpt lat="45.79392456854317" lon="12.8314633897563"><ele>4.0</ele><time>2026-05-01T11:33:10Z</time></trkpt><trkpt lat="45.79402242567988" lon="12.831682851564695"><ele>4.0</ele><time>2026-05-01T11:33:11Z</time></trkpt><trkpt lat="45.79410630160886" lon="12.83192423913823"><ele>4.0</ele><time>2026-05-01T11:33:12Z</time></trkpt><trkpt lat="45.794189601533986" lon="12.832176198561601"><ele>4.0</ele><time>2026-05-01T11:33:13Z</time></trkpt><trkpt lat="45.7942791674539" lon="12.832438745958846"><ele>4.0</ele><time>2026-05-01T11:33:14Z</time></trkpt><trkpt lat="45.7943735387012" lon="12.832716718647124"><ele>3.0</ele><time>2026-05-01T11:33:15Z</time></trkpt><trkpt lat="45.79447388854086" lon="12.833008253451654"><ele>2.0</ele><time>2026-05-01T11:33:16Z</time></trkpt><trkpt lat="45.794577965242425" lon="12.833317039984225"><ele>1.0</ele><time>2026-05-01T11:33:17Z</time></trkpt><trkpt lat="45.79468993119502" lon="12.833638486186732"><ele>0.0</ele><time>2026-05-01T11:33:18Z</time></trkpt><trkpt lat="45.79480749762977" lon="12.833971469867512"><ele>0.0</ele><time>2026-05-01T11:33:19Z</time></trkpt><trkpt lat="45.79492574885698" lon="12.834317528832488"><ele>0.0</ele><time>2026-05-01T11:33:20Z</time></trkpt><trkpt lat="45.79504763742793" lon="12.83467534874919"><ele>0.0</ele><time>2026-05-01T11:33:21Z</time></trkpt><trkpt lat="45.795170023830046" lon="12.835046772394703"><ele>0.0</ele><time>2026-05-01T11:33:22Z</time></trkpt><trkpt lat="45.79528376899322" lon="12.835432418729667"><ele>0.5</ele><time>2026-05-01T11:33:23Z</time></trkpt><trkpt lat="45.795394713957045" lon="12.835829302388246"><ele>1.0</ele><time>2026-05-01T11:33:24Z</time></trkpt><trkpt lat="45.795508600732624" lon="12.83623211483337"><ele>1.0</ele><time>2026-05-01T11:33:25Z</time></trkpt><trkpt lat="45.79562305733113" lon="12.836646740224248"><ele>1.0</ele><time>2026-05-01T11:33:26Z</time></trkpt><trkpt lat="45.79573809728978" lon="12.837068110323038"><ele>1.0</ele><time>2026-05-01T11:33:27Z</time></trkpt><trkpt lat="45.79585672117212" lon="12.837494839342272"><ele>1.0</ele><time>2026-05-01T11:33:28Z</time></trkpt><trkpt lat="45.795976612754586" lon="12.837929044131865"><ele>1.5</ele><time>2026-05-01T11:33:29Z</time></trkpt><trkpt lat="45.796097258001076" lon="12.838371691113892"><ele>2.0</ele><time>2026-05-01T11:33:30Z</time></trkpt><trkpt lat="45.79621401205165" lon="12.838824567982938"><ele>2.5</ele><time>2026-05-01T11:33:31Z</time></trkpt><trkpt lat="45.796329683833214" lon="12.839284598583792"><ele>3.0</ele><time>2026-05-01T11:33:32Z</time></trkpt><trkpt lat="45.796443821926886" lon="12.839750686545907"><ele>3.5</ele><time>2026-05-01T11:33:33Z</time></trkpt><trkpt lat="45.79655456415829" lon="12.840217448856741"><ele>4.0</ele><time>2026-05-01T11:33:34Z</time></trkpt><trkpt lat="45.79665954062818" lon="12.840679166875423"><ele>4.0</ele><time>2026-05-01T11:33:35Z</time></trkpt><trkpt lat="45.79676162642593" lon="12.841141586815318"><ele>4.0</ele><time>2026-05-01T11:33:36Z</time></trkpt><trkpt lat="45.796863170833014" lon="12.84160563074359"><ele>3.0</ele><time>2026-05-01T11:33:37Z</time></trkpt><trkpt lat="45.79696347435644" lon="12.84207129137526"><ele>2.0</ele><time>2026-05-01T11:33:38Z</time></trkpt><trkpt lat="45.79706268046092" lon="12.842538150041351"><ele>3.0</ele><time>2026-05-01T11:33:39Z</time></trkpt><trkpt lat="45.797158146648215" lon="12.843008118056273"><ele>4.0</ele><time>2026-05-01T11:33:40Z</time></trkpt><trkpt lat="45.79724976200436" lon="12.84348041702335"><ele>4.0</ele><time>2026-05-01T11:33:41Z</time></trkpt><trkpt lat="45.797340819870314" lon="12.843953040694633"><ele>4.0</ele><time>2026-05-01T11:33:42Z</time></trkpt><trkpt lat="45.797429080889465" lon="12.844427313642719"><ele>3.5</ele><time>2026-05-01T11:33:43Z</time></trkpt><trkpt lat="45.797513757934794" lon="12.84490179940667"><ele>3.0</ele><time>2026-05-01T11:33:44Z</time></trkpt><trkpt lat="45.79760000520844" lon="12.845376201720494"><ele>2.5</ele><time>2026-05-01T11:33:45Z</time></trkpt><trkpt lat="45.797686232792024" lon="12.845847613465152"><ele>2.0</ele><time>2026-05-01T11:33:46Z</time></trkpt><trkpt lat="45.79777358418423" lon="12.846319873798432"><ele>3.0</ele><time>2026-05-01T11:33:47Z</time></trkpt><trkpt lat="45.79785874757329" lon="12.846791600934178"><ele>4.0</ele><time>2026-05-01T11:33:48Z</time></trkpt><trkpt lat="45.79794372818708" lon="12.847264133694724"><ele>5.0</ele><time>2026-05-01T11:33:49Z</time></trkpt><trkpt lat="45.798029211678525" lon="12.847736902962811"><ele>6.0</ele><time>2026-05-01T11:33:50Z</time></trkpt><trkpt lat="45.79811499836782" lon="12.84820936374286"><ele>6.0</ele><time>2026-05-01T11:33:51Z</time></trkpt><trkpt lat="45.79820002162101" lon="12.848681373625094"><ele>6.0</ele><time>2026-05-01T11:33:52Z</time></trkpt><trkpt lat="45.79828578356878" lon="12.849154345624392"><ele>6.5</ele><time>2026-05-01T11:33:53Z</time></trkpt><trkpt lat="45.798372577519835" lon="12.849625169790606"><ele>7.0</ele><time>2026-05-01T11:33:54Z</time></trkpt><trkpt lat="45.79846250083564" lon="12.85009618245067"><ele>6.5</ele><time>2026-05-01T11:33:55Z</time></trkpt><trkpt lat="45.79855226817489" lon="12.850565705248382"><ele>6.0</ele><time>2026-05-01T11:33:56Z</time></trkpt><trkpt lat="45.798640986881146" lon="12.851036300881821"><ele>6.0</ele><time>2026-05-01T11:33:57Z</time></trkpt><trkpt lat="45.798730327639774" lon="12.851509724808912"><ele>6.0</ele><time>2026-05-01T11:33:58Z</time></trkpt><trkpt lat="45.79881612925345" lon="12.851982387749498"><ele>6.5</ele><time>2026-05-01T11:33:59Z</time></trkpt><trkpt lat="45.79890134898621" lon="12.85245697376609"><ele>7.0</ele><time>2026-05-01T11:34:00Z</time></trkpt><trkpt lat="45.798987137280655" lon="12.852930579987705"><ele>7.0</ele><time>2026-05-01T11:34:01Z</time></trkpt><trkpt lat="45.79907410044195" lon="12.853405682773232"><ele>7.0</ele><time>2026-05-01T11:34:02Z</time></trkpt><trkpt lat="45.79916068296917" lon="12.85387962559283"><ele>7.0</ele><time>2026-05-01T11:34:03Z</time></trkpt><trkpt lat="45.7992485610051" lon="12.854353034450837"><ele>7.0</ele><time>2026-05-01T11:34:04Z</time></trkpt><trkpt lat="45.79933688554349" lon="12.854827367090197"><ele>6.0</ele><time>2026-05-01T11:34:05Z</time></trkpt><trkpt lat="45.7994256618764" lon="12.855301739982123"><ele>5.0</ele><time>2026-05-01T11:34:06Z</time></trkpt><trkpt lat="45.79951453065734" lon="12.855775395939"><ele>5.0</ele><time>2026-05-01T11:34:07Z</time></trkpt><trkpt lat="45.79960218776284" lon="12.856247537450288"><ele>5.0</ele><time>2026-05-01T11:34:08Z</time></trkpt><trkpt lat="45.79969135673143" lon="12.856718843777745"><ele>5.0</ele><time>2026-05-01T11:34:09Z</time></trkpt><trkpt lat="45.79977813852072" lon="12.857189659503224"><ele>5.0</ele><time>2026-05-01T11:34:10Z</time></trkpt><trkpt lat="45.79986418243769" lon="12.857659547294704"><ele>5.0</ele><time>2026-05-01T11:34:11Z</time></trkpt><trkpt lat="45.799952367300676" lon="12.858129783117763"><ele>5.0</ele><time>2026-05-01T11:34:12Z</time></trkpt><trkpt lat="45.8000435532255" lon="12.858598147786978"><ele>5.0</ele><time>2026-05-01T11:34:13Z</time></trkpt><trkpt lat="45.80013440306501" lon="12.859068150517793"><ele>5.0</ele><time>2026-05-01T11:34:14Z</time></trkpt><trkpt lat="45.80022321122697" lon="12.859538468036277"><ele>5.0</ele><time>2026-05-01T11:34:15Z</time></trkpt><trkpt lat="45.8003095312525" lon="12.860010118551854"><ele>5.0</ele><time>2026-05-01T11:34:16Z</time></trkpt><trkpt lat="45.80039581953735" lon="12.860480874183796"><ele>5.0</ele><time>2026-05-01T11:34:17Z</time></trkpt><trkpt lat="45.800483080299834" lon="12.860952040195693"><ele>5.0</ele><time>2026-05-01T11:34:18Z</time></trkpt><trkpt lat="45.80057153398734" lon="12.861423080678628"><ele>4.5</ele><time>2026-05-01T11:34:19Z</time></trkpt><trkpt lat="45.8006596029081" lon="12.86189542652735"><ele>4.0</ele><time>2026-05-01T11:34:20Z</time></trkpt><trkpt lat="45.800747648465524" lon="12.862367338749664"><ele>4.0</ele><time>2026-05-01T11:34:21Z</time></trkpt><trkpt lat="45.800835910156074" lon="12.862838330046552"><ele>4.0</ele><time>2026-05-01T11:34:22Z</time></trkpt><trkpt lat="45.80092291427262" lon="12.863310954166689"><ele>5.0</ele><time>2026-05-01T11:34:23Z</time></trkpt><trkpt lat="45.801009286358266" lon="12.863782618662892"><ele>6.0</ele><time>2026-05-01T11:34:24Z</time></trkpt><trkpt lat="45.80109419459657" lon="12.864255221484981"><ele>6.5</ele><time>2026-05-01T11:34:25Z</time></trkpt><trkpt lat="45.80117857377935" lon="12.86472933965076"><ele>7.0</ele><time>2026-05-01T11:34:26Z</time></trkpt><trkpt lat="45.80126300960254" lon="12.865201058549808"><ele>6.0</ele><time>2026-05-01T11:34:27Z</time></trkpt><trkpt lat="45.80134634701613" lon="12.865664602511012"><ele>5.0</ele><time>2026-05-01T11:34:28Z</time></trkpt><trkpt lat="45.80142932930464" lon="12.866122442856703"><ele>5.0</ele><time>2026-05-01T11:34:29Z</time></trkpt><trkpt lat="45.801507567426064" lon="12.866573913469452"><ele>5.0</ele><time>2026-05-01T11:34:30Z</time></trkpt><trkpt lat="45.80158453843338" lon="12.867022236499478"><ele>5.5</ele><time>2026-05-01T11:34:31Z</time></trkpt><trkpt lat="45.80165994725302" lon="12.867466613991054"><ele>6.0</ele><time>2026-05-01T11:34:32Z</time></trkpt><trkpt lat="45.8017367757718" lon="12.867910462216285"><ele>6.5</ele><time>2026-05-01T11:34:33Z</time></trkpt><trkpt lat="45.801816062987456" lon="12.868352659083934"><ele>7.0</ele><time>2026-05-01T11:34:34Z</time></trkpt><trkpt lat="45.801895249704145" lon="12.868794331551818"><ele>7.0</ele><time>2026-05-01T11:34:35Z</time></trkpt><trkpt lat="45.801972957854986" lon="12.869231492863818"><ele>7.0</ele><time>2026-05-01T11:34:36Z</time></trkpt><trkpt lat="45.80204963518494" lon="12.86966550546078"><ele>7.0</ele><time>2026-05-01T11:34:37Z</time></trkpt><trkpt lat="45.80212557525326" lon="12.870096364718762"><ele>7.0</ele><time>2026-05-01T11:34:38Z</time></trkpt><trkpt lat="45.80220081382337" lon="12.870524150091965"><ele>7.0</ele><time>2026-05-01T11:34:39Z</time></trkpt><trkpt lat="45.8022770078924" lon="12.870952110369005"><ele>7.0</ele><time>2026-05-01T11:34:40Z</time></trkpt><trkpt lat="45.80235617584754" lon="12.871380542009451"><ele>6.5</ele><time>2026-05-01T11:34:41Z</time></trkpt><trkpt lat="45.8024346750117" lon="12.871811456375607"><ele>6.0</ele><time>2026-05-01T11:34:42Z</time></trkpt><trkpt lat="45.802512978486625" lon="12.872245221673037"><ele>6.5</ele><time>2026-05-01T11:34:43Z</time></trkpt><trkpt lat="45.802591347258236" lon="12.872675430207995"><ele>7.0</ele><time>2026-05-01T11:34:44Z</time></trkpt><trkpt lat="45.8026676002448" lon="12.873099702033265"><ele>7.0</ele><time>2026-05-01T11:34:45Z</time></trkpt><trkpt lat="45.80274260738628" lon="12.873517578468334"><ele>7.0</ele><time>2026-05-01T11:34:46Z</time></trkpt><trkpt lat="45.802818130541105" lon="12.873929555626658"><ele>6.0</ele><time>2026-05-01T11:34:47Z</time></trkpt><trkpt lat="45.802892370830534" lon="12.874334883963362"><ele>5.0</ele><time>2026-05-01T11:34:48Z</time></trkpt><trkpt lat="45.80296559064613" lon="12.874736329279518"><ele>5.0</ele><time>2026-05-01T11:34:49Z</time></trkpt><trkpt lat="45.803037599867494" lon="12.875131913444257"><ele>5.0</ele><time>2026-05-01T11:34:50Z</time></trkpt><trkpt lat="45.80310697831521" lon="12.875520825906166"><ele>5.0</ele><time>2026-05-01T11:34:51Z</time></trkpt><trkpt lat="45.80317492712725" lon="12.875904221314968"><ele>5.0</ele><time>2026-05-01T11:34:52Z</time></trkpt><trkpt lat="45.803242668678074" lon="12.876280259409334"><ele>5.5</ele><time>2026-05-01T11:34:53Z</time></trkpt><trkpt lat="45.80330810961408" lon="12.876651259726403"><ele>6.0</ele><time>2026-05-01T11:34:54Z</time></trkpt><trkpt lat="45.803374093907145" lon="12.877019629439221"><ele>6.0</ele><time>2026-05-01T11:34:55Z</time></trkpt><trkpt lat="45.80343964809198" lon="12.87738189635039"><ele>6.0</ele><time>2026-05-01T11:34:56Z</time></trkpt><trkpt lat="45.80350471553911" lon="12.877740721707966"><ele>6.0</ele><time>2026-05-01T11:34:57Z</time></trkpt><trkpt lat="45.803569431287414" lon="12.878094830758386"><ele>6.0</ele><time>2026-05-01T11:34:58Z</time></trkpt><trkpt lat="45.803632255532946" lon="12.87844983628442"><ele>5.5</ele><time>2026-05-01T11:34:59Z</time></trkpt><trkpt lat="45.80369208071056" lon="12.878797691311776"><ele>5.0</ele><time>2026-05-01T11:35:00Z</time></trkpt><trkpt lat="45.80374938023899" lon="12.879140208103063"><ele>5.5</ele><time>2026-05-01T11:35:01Z</time></trkpt><trkpt lat="45.80380584098863" lon="12.87947841711432"><ele>6.0</ele><time>2026-05-01T11:35:02Z</time></trkpt><trkpt lat="45.80386037518449" lon="12.879817350926894"><ele>6.0</ele><time>2026-05-01T11:35:03Z</time></trkpt><trkpt lat="45.80391625642785" lon="12.880160030072235"><ele>6.0</ele><time>2026-05-01T11:35:04Z</time></trkpt><trkpt lat="45.803972797975284" lon="12.880508295000205"><ele>6.0</ele><time>2026-05-01T11:35:05Z</time></trkpt><trkpt lat="45.804029832344355" lon="12.880863688276197"><ele>6.0</ele><time>2026-05-01T11:35:06Z</time></trkpt><trkpt lat="45.804086819308395" lon="12.881227945119427"><ele>6.5</ele><time>2026-05-01T11:35:07Z</time></trkpt><trkpt lat="45.80414499691519" lon="12.881600414394072"><ele>7.0</ele><time>2026-05-01T11:35:08Z</time></trkpt><trkpt lat="45.80420154416166" lon="12.8819759695983"><ele>7.0</ele><time>2026-05-01T11:35:09Z</time></trkpt><trkpt lat="45.804249803540316" lon="12.882342807123923"><ele>7.0</ele><time>2026-05-01T11:35:10Z</time></trkpt><trkpt lat="45.804291532112714" lon="12.882700266632858"><ele>7.0</ele><time>2026-05-01T11:35:11Z</time></trkpt><trkpt lat="45.804326726177834" lon="12.883039645287024"><ele>7.0</ele><time>2026-05-01T11:35:12Z</time></trkpt><trkpt lat="45.80436217805454" lon="12.88335719004099"><ele>7.666666666666667</ele><time>2026-05-01T11:35:13Z</time></trkpt><trkpt lat="45.804394038237206" lon="12.883653209188328"><ele>8.333333333333334</ele><time>2026-05-01T11:35:14Z</time></trkpt><trkpt lat="45.80442553042259" lon="12.88393950203438"><ele>9.0</ele><time>2026-05-01T11:35:15Z</time></trkpt><trkpt lat="45.804454777745626" lon="12.884216657675141"><ele>8.0</ele><time>2026-05-01T11:35:16Z</time></trkpt><trkpt lat="45.80448296641364" lon="12.884483199206704"><ele>7.0</ele><time>2026-05-01T11:35:17Z</time></trkpt><trkpt lat="45.80450837577591" lon="12.884738784730311"><ele>6.0</ele><time>2026-05-01T11:35:18Z</time></trkpt><trkpt lat="45.80453372386097" lon="12.884984299807758"><ele>6.0</ele><time>2026-05-01T11:35:19Z</time></trkpt><trkpt lat="45.80455916608423" lon="12.885222728237403"><ele>6.0</ele><time>2026-05-01T11:35:20Z</time></trkpt><trkpt lat="45.80458654023415" lon="12.885461365557049"><ele>6.0</ele><time>2026-05-01T11:35:21Z</time></trkpt><trkpt lat="45.80461374246294" lon="12.885708597298045"><ele>6.666666666666666</ele><time>2026-05-01T11:35:22Z</time></trkpt><trkpt lat="45.80464243930738" lon="12.885972548302604"><ele>7.333333333333333</ele><time>2026-05-01T11:35:23Z</time></trkpt><trkpt lat="45.80466937152446" lon="12.886250533042944"><ele>8.0</ele><time>2026-05-01T11:35:24Z</time></trkpt><trkpt lat="45.804694745508655" lon="12.886542003438594"><ele>7.666666666666666</ele><time>2026-05-01T11:35:25Z</time></trkpt><trkpt lat="45.804721229058146" lon="12.88684867281812"><ele>7.333333333333334</ele><time>2026-05-01T11:35:26Z</time></trkpt><trkpt lat="45.80474782317188" lon="12.887168737689445"><ele>7.0</ele><time>2026-05-01T11:35:27Z</time></trkpt><trkpt lat="45.80477359368925" lon="12.887501501132668"><ele>6.5</ele><time>2026-05-01T11:35:28Z</time></trkpt><trkpt lat="45.8047989097898" lon="12.887846567418684"><ele>6.0</ele><time>2026-05-01T11:35:29Z</time></trkpt><trkpt lat="45.80482177168406" lon="12.888202688977088"><ele>6.5</ele><time>2026-05-01T11:35:30Z</time></trkpt><trkpt lat="45.80484380745723" lon="12.888572339127101"><ele>7.0</ele><time>2026-05-01T11:35:31Z</time></trkpt><trkpt lat="45.80486763151625" lon="12.88895350124861"><ele>5.5</ele><time>2026-05-01T11:35:32Z</time></trkpt><trkpt lat="45.804891166944934" lon="12.889347309733909"><ele>4.0</ele><time>2026-05-01T11:35:33Z</time></trkpt><trkpt lat="45.804913682807566" lon="12.889752447422534"><ele>5.0</ele><time>2026-05-01T11:35:34Z</time></trkpt><trkpt lat="45.80493577157316" lon="12.89016736469803"><ele>6.0</ele><time>2026-05-01T11:35:35Z</time></trkpt><trkpt lat="45.80495478706491" lon="12.890591034071269"><ele>7.0</ele><time>2026-05-01T11:35:36Z</time></trkpt><trkpt lat="45.80497370254659" lon="12.891022066661888"><ele>8.0</ele><time>2026-05-01T11:35:37Z</time></trkpt><trkpt lat="45.80498775593129" lon="12.89145896834567"><ele>8.0</ele><time>2026-05-01T11:35:38Z</time></trkpt><trkpt lat="45.80499952640386" lon="12.89190376832495"><ele>8.0</ele><time>2026-05-01T11:35:39Z</time></trkpt><trkpt lat="45.80500573189013" lon="12.892354187795254"><ele>6.5</ele><time>2026-05-01T11:35:40Z</time></trkpt><trkpt lat="45.80501084598592" lon="12.892808872485261"><ele>5.0</ele><time>2026-05-01T11:35:41Z</time></trkpt><trkpt lat="45.8050125948746" lon="12.893273688050424"><ele>5.0</ele><time>2026-05-01T11:35:42Z</time></trkpt><trkpt lat="45.80501733220349" lon="12.893745364546826"><ele>5.0</ele><time>2026-05-01T11:35:43Z</time></trkpt><trkpt lat="45.80502082787738" lon="12.89422290816688"><ele>5.0</ele><time>2026-05-01T11:35:44Z</time></trkpt><trkpt lat="45.80502476529402" lon="12.894707086880347"><ele>5.0</ele><time>2026-05-01T11:35:45Z</time></trkpt><trkpt lat="45.805024910044644" lon="12.895196207006222"><ele>5.5</ele><time>2026-05-01T11:35:46Z</time></trkpt><trkpt lat="45.80502284002908" lon="12.895690366504198"><ele>6.0</ele><time>2026-05-01T11:35:47Z</time></trkpt><trkpt lat="45.805018769814176" lon="12.896172597867613"><ele>6.0</ele><time>2026-05-01T11:35:48Z</time></trkpt><trkpt lat="45.805010622061964" lon="12.89667359052569"><ele>6.0</ele><time>2026-05-01T11:35:49Z</time></trkpt><trkpt lat="45.805001584597974" lon="12.89716136204116"><ele>5.5</ele><time>2026-05-01T11:35:50Z</time></trkpt><trkpt lat="45.80498933208463" lon="12.897648875940249"><ele>5.0</ele><time>2026-05-01T11:35:51Z</time></trkpt><trkpt lat="45.80497275125176" lon="12.898135053746632"><ele>5.5</ele><time>2026-05-01T11:35:52Z</time></trkpt><trkpt lat="45.8049546484248" lon="12.898621846490547"><ele>6.0</ele><time>2026-05-01T11:35:53Z</time></trkpt><trkpt lat="45.804934604913704" lon="12.899109196368714"><ele>6.0</ele><time>2026-05-01T11:35:54Z</time></trkpt><trkpt lat="45.80491335772878" lon="12.899597509579374"><ele>6.0</ele><time>2026-05-01T11:35:55Z</time></trkpt><trkpt lat="45.80489236820453" lon="12.900083980818867"><ele>5.5</ele><time>2026-05-01T11:35:56Z</time></trkpt><trkpt lat="45.804875015009706" lon="12.900571863952763"><ele>5.0</ele><time>2026-05-01T11:35:57Z</time></trkpt><trkpt lat="45.8048591442044" lon="12.901060892778919"><ele>5.0</ele><time>2026-05-01T11:35:58Z</time></trkpt><trkpt lat="45.80484730947618" lon="12.901548231315806"><ele>5.0</ele><time>2026-05-01T11:35:59Z</time></trkpt><trkpt lat="45.804836849662124" lon="12.902037906393582"><ele>4.5</ele><time>2026-05-01T11:36:00Z</time></trkpt><trkpt lat="45.804828155428574" lon="12.902528532044713"><ele>4.0</ele><time>2026-05-01T11:36:01Z</time></trkpt><trkpt lat="45.80481933554013" lon="12.903017461799442"><ele>4.5</ele><time>2026-05-01T11:36:02Z</time></trkpt><trkpt lat="45.804814575266555" lon="12.903505947384765"><ele>5.0</ele><time>2026-05-01T11:36:03Z</time></trkpt><trkpt lat="45.80481010834588" lon="12.903994262341016"><ele>5.0</ele><time>2026-05-01T11:36:04Z</time></trkpt><trkpt lat="45.8048067626286" lon="12.904483318746303"><ele>5.0</ele><time>2026-05-01T11:36:05Z</time></trkpt><trkpt lat="45.804805734881924" lon="12.904972290350575"><ele>4.5</ele><time>2026-05-01T11:36:06Z</time></trkpt><trkpt lat="45.80480686894504" lon="12.905461669141571"><ele>4.0</ele><time>2026-05-01T11:36:07Z</time></trkpt><trkpt lat="45.804809964728776" lon="12.905951295367"><ele>4.0</ele><time>2026-05-01T11:36:08Z</time></trkpt><trkpt lat="45.804817528750256" lon="12.906440420021307"><ele>4.0</ele><time>2026-05-01T11:36:09Z</time></trkpt><trkpt lat="45.80482836399464" lon="12.906928511597105"><ele>4.5</ele><time>2026-05-01T11:36:10Z</time></trkpt><trkpt lat="45.80484204145225" lon="12.907416430011779"><ele>5.0</ele><time>2026-05-01T11:36:11Z</time></trkpt><trkpt lat="45.804857080342295" lon="12.90790459990962"><ele>5.0</ele><time>2026-05-01T11:36:12Z</time></trkpt><trkpt lat="45.80487325293757" lon="12.908391808629707"><ele>5.0</ele><time>2026-05-01T11:36:13Z</time></trkpt><trkpt lat="45.804890180164385" lon="12.90887913767515"><ele>4.5</ele><time>2026-05-01T11:36:14Z</time></trkpt><trkpt lat="45.80491046714857" lon="12.909365693601936"><ele>4.0</ele><time>2026-05-01T11:36:15Z</time></trkpt><trkpt lat="45.804931306121546" lon="12.909851060449695"><ele>4.5</ele><time>2026-05-01T11:36:16Z</time></trkpt><trkpt lat="45.80495609608629" lon="12.91033662099621"><ele>5.0</ele><time>2026-05-01T11:36:17Z</time></trkpt><trkpt lat="45.804983456304136" lon="12.910822330001311"><ele>5.0</ele><time>2026-05-01T11:36:18Z</time></trkpt><trkpt lat="45.805011868333175" lon="12.911307545365252"><ele>5.0</ele><time>2026-05-01T11:36:19Z</time></trkpt><trkpt lat="45.805042578341954" lon="12.911792306973512"><ele>5.0</ele><time>2026-05-01T11:36:20Z</time></trkpt><trkpt lat="45.80507350163128" lon="12.912277685789508"><ele>5.0</ele><time>2026-05-01T11:36:21Z</time></trkpt><trkpt lat="45.80510747560895" lon="12.91276266487246"><ele>5.0</ele><time>2026-05-01T11:36:22Z</time></trkpt><trkpt lat="45.805143669290736" lon="12.913247511750521"><ele>5.0</ele><time>2026-05-01T11:36:23Z</time></trkpt><trkpt lat="45.805183360311894" lon="12.91373147847442"><ele>5.0</ele><time>2026-05-01T11:36:24Z</time></trkpt><trkpt lat="45.8052273977553" lon="12.914215483869878"><ele>5.0</ele><time>2026-05-01T11:36:25Z</time></trkpt><trkpt lat="45.80527284935321" lon="12.914699463312205"><ele>5.5</ele><time>2026-05-01T11:36:26Z</time></trkpt><trkpt lat="45.805318901401535" lon="12.915183928359257"><ele>6.0</ele><time>2026-05-01T11:36:27Z</time></trkpt><trkpt lat="45.80536685725022" lon="12.915667250142437"><ele>6.0</ele><time>2026-05-01T11:36:28Z</time></trkpt><trkpt lat="45.80541694131795" lon="12.916149307098019"><ele>6.0</ele><time>2026-05-01T11:36:29Z</time></trkpt><trkpt lat="45.80546878588957" lon="12.916631624677349"><ele>5.5</ele><time>2026-05-01T11:36:30Z</time></trkpt><trkpt lat="45.805522091972655" lon="12.91711517458432"><ele>5.0</ele><time>2026-05-01T11:36:31Z</time></trkpt><trkpt lat="45.80557731813115" lon="12.917597433306417"><ele>5.0</ele><time>2026-05-01T11:36:32Z</time></trkpt><trkpt lat="45.80563293959273" lon="12.918076002822296"><ele>5.0</ele><time>2026-05-01T11:36:33Z</time></trkpt><trkpt lat="45.80568313841166" lon="12.918561859815904"><ele>5.5</ele><time>2026-05-01T11:36:34Z</time></trkpt><trkpt lat="45.80572377955701" lon="12.919044751437557"><ele>6.0</ele><time>2026-05-01T11:36:35Z</time></trkpt><trkpt lat="45.80576648220213" lon="12.919529708194958"><ele>6.0</ele><time>2026-05-01T11:36:36Z</time></trkpt><trkpt lat="45.80580618892137" lon="12.920015461032467"><ele>6.0</ele><time>2026-05-01T11:36:37Z</time></trkpt><trkpt lat="45.80584452388824" lon="12.92050207530589"><ele>7.0</ele><time>2026-05-01T11:36:38Z</time></trkpt><trkpt lat="45.80588224580901" lon="12.920986846540112"><ele>8.0</ele><time>2026-05-01T11:36:39Z</time></trkpt><trkpt lat="45.80591842724972" lon="12.921473055986192"><ele>8.0</ele><time>2026-05-01T11:36:40Z</time></trkpt><trkpt lat="45.80595513421291" lon="12.921958063482775"><ele>8.0</ele><time>2026-05-01T11:36:41Z</time></trkpt><trkpt lat="45.8059911864516" lon="12.922444860569513"><ele>6.0</ele><time>2026-05-01T11:36:42Z</time></trkpt><trkpt lat="45.80602878829454" lon="12.922930123500343"><ele>4.0</ele><time>2026-05-01T11:36:43Z</time></trkpt><trkpt lat="45.80606829324031" lon="12.923416450706071"><ele>4.0</ele><time>2026-05-01T11:36:44Z</time></trkpt><trkpt lat="45.80610674392265" lon="12.92390334832082"><ele>4.0</ele><time>2026-05-01T11:36:45Z</time></trkpt><trkpt lat="45.80614482923773" lon="12.924390034000274"><ele>3.5</ele><time>2026-05-01T11:36:46Z</time></trkpt><trkpt lat="45.806182087202885" lon="12.924876488710568"><ele>3.0</ele><time>2026-05-01T11:36:47Z</time></trkpt><trkpt lat="45.806217504421525" lon="12.925364446337452"><ele>3.0</ele><time>2026-05-01T11:36:48Z</time></trkpt><trkpt lat="45.806251115945905" lon="12.925853274886904"><ele>3.0</ele><time>2026-05-01T11:36:49Z</time></trkpt><trkpt lat="45.80628369183842" lon="12.926340723599056"><ele>3.5</ele><time>2026-05-01T11:36:50Z</time></trkpt><trkpt lat="45.80631759537597" lon="12.926827856594374"><ele>4.0</ele><time>2026-05-01T11:36:51Z</time></trkpt><trkpt lat="45.80635384384873" lon="12.927314704513126"><ele>4.5</ele><time>2026-05-01T11:36:52Z</time></trkpt><trkpt lat="45.806391411959886" lon="12.927800259973148"><ele>5.0</ele><time>2026-05-01T11:36:53Z</time></trkpt><trkpt lat="45.80642941507083" lon="12.928285209117776"><ele>4.5</ele><time>2026-05-01T11:36:54Z</time></trkpt><trkpt lat="45.806466267581506" lon="12.928771143545386"><ele>4.0</ele><time>2026-05-01T11:36:55Z</time></trkpt><trkpt lat="45.8065036830294" lon="12.929257020077724"><ele>4.0</ele><time>2026-05-01T11:36:56Z</time></trkpt><trkpt lat="45.806542280359366" lon="12.929741980182182"><ele>4.0</ele><time>2026-05-01T11:36:57Z</time></trkpt><trkpt lat="45.80658047036082" lon="12.930227761835235"><ele>4.0</ele><time>2026-05-01T11:36:58Z</time></trkpt><trkpt lat="45.80661973166409" lon="12.930712535211583"><ele>4.0</ele><time>2026-05-01T11:36:59Z</time></trkpt><trkpt lat="45.80666001647623" lon="12.931197371727743"><ele>4.0</ele><time>2026-05-01T11:37:00Z</time></trkpt><trkpt lat="45.80669952731404" lon="12.931682433006783"><ele>4.0</ele><time>2026-05-01T11:37:01Z</time></trkpt><trkpt lat="45.806739255177455" lon="12.932167535865139"><ele>3.0</ele><time>2026-05-01T11:37:02Z</time></trkpt><trkpt lat="45.80678024539613" lon="12.93265382484616"><ele>2.0</ele><time>2026-05-01T11:37:03Z</time></trkpt><trkpt lat="45.806818724485204" lon="12.933139000208403"><ele>3.0</ele><time>2026-05-01T11:37:04Z</time></trkpt><trkpt lat="45.80685426069598" lon="12.933624086125926"><ele>4.0</ele><time>2026-05-01T11:37:05Z</time></trkpt><trkpt lat="45.806892277777486" lon="12.934108958131734"><ele>4.0</ele><time>2026-05-01T11:37:06Z</time></trkpt><trkpt lat="45.80692978212391" lon="12.934595123085948"><ele>4.0</ele><time>2026-05-01T11:37:07Z</time></trkpt><trkpt lat="45.80696820062261" lon="12.93508168227813"><ele>3.5</ele><time>2026-05-01T11:37:08Z</time></trkpt><trkpt lat="45.80700575370921" lon="12.935566890758869"><ele>3.0</ele><time>2026-05-01T11:37:09Z</time></trkpt><trkpt lat="45.80704285520322" lon="12.936054508739677"><ele>3.0</ele><time>2026-05-01T11:37:10Z</time></trkpt><trkpt lat="45.807079659276816" lon="12.936540440165514"><ele>3.0</ele><time>2026-05-01T11:37:11Z</time></trkpt><trkpt lat="45.80711797506771" lon="12.937028447147853"><ele>3.0</ele><time>2026-05-01T11:37:12Z</time></trkpt><trkpt lat="45.80715809961648" lon="12.937514827822111"><ele>3.0</ele><time>2026-05-01T11:37:13Z</time></trkpt><trkpt lat="45.80719781656153" lon="12.937999500142546"><ele>4.0</ele><time>2026-05-01T11:37:14Z</time></trkpt><trkpt lat="45.80723730406152" lon="12.938484316808909"><ele>5.0</ele><time>2026-05-01T11:37:15Z</time></trkpt><trkpt lat="45.807274772130825" lon="12.938970597737017"><ele>3.5</ele><time>2026-05-01T11:37:16Z</time></trkpt><trkpt lat="45.80731263101582" lon="12.939457476404275"><ele>2.0</ele><time>2026-05-01T11:37:17Z</time></trkpt><trkpt lat="45.807351050962424" lon="12.939943660355862"><ele>2.0</ele><time>2026-05-01T11:37:18Z</time></trkpt><trkpt lat="45.80738896558497" lon="12.94042932625477"><ele>2.0</ele><time>2026-05-01T11:37:19Z</time></trkpt><trkpt lat="45.80742608979895" lon="12.94091484649561"><ele>2.5</ele><time>2026-05-01T11:37:20Z</time></trkpt><trkpt lat="45.80746412334074" lon="12.941401182420929"><ele>3.0</ele><time>2026-05-01T11:37:21Z</time></trkpt><trkpt lat="45.8075016788845" lon="12.94188457481702"><ele>3.0</ele><time>2026-05-01T11:37:22Z</time></trkpt><trkpt lat="45.80754107531917" lon="12.942370703160515"><ele>3.0</ele><time>2026-05-01T11:37:23Z</time></trkpt><trkpt lat="45.80757923956317" lon="12.942854863265934"><ele>3.5</ele><time>2026-05-01T11:37:24Z</time></trkpt><trkpt lat="45.807617384141956" lon="12.943341447571717"><ele>4.0</ele><time>2026-05-01T11:37:25Z</time></trkpt><trkpt lat="45.80765485358348" lon="12.943826597946178"><ele>3.5</ele><time>2026-05-01T11:37:26Z</time></trkpt><trkpt lat="45.80769076856901" lon="12.944313153361422"><ele>3.0</ele><time>2026-05-01T11:37:27Z</time></trkpt><trkpt lat="45.807729696835466" lon="12.944797997405118"><ele>3.5</ele><time>2026-05-01T11:37:28Z</time></trkpt><trkpt lat="45.80776918148033" lon="12.945283890842923"><ele>4.0</ele><time>2026-05-01T11:37:29Z</time></trkpt><trkpt lat="45.807808140366284" lon="12.945767966080872"><ele>4.0</ele><time>2026-05-01T11:37:30Z</time></trkpt><trkpt lat="45.80784605006234" lon="12.946253073426345"><ele>4.0</ele><time>2026-05-01T11:37:31Z</time></trkpt><trkpt lat="45.807882521499906" lon="12.946738358869624"><ele>4.0</ele><time>2026-05-01T11:37:32Z</time></trkpt><trkpt lat="45.807920599499994" lon="12.947222681097196"><ele>4.0</ele><time>2026-05-01T11:37:33Z</time></trkpt><trkpt lat="45.807957094448305" lon="12.947710177823662"><ele>4.0</ele><time>2026-05-01T11:37:34Z</time></trkpt><trkpt lat="45.807993613763365" lon="12.948194713229222"><ele>4.0</ele><time>2026-05-01T11:37:35Z</time></trkpt><trkpt lat="45.808030624919205" lon="12.948679298081752"><ele>4.0</ele><time>2026-05-01T11:37:36Z</time></trkpt><trkpt lat="45.80806959544872" lon="12.949164388429622"><ele>4.0</ele><time>2026-05-01T11:37:37Z</time></trkpt><trkpt lat="45.80810757409479" lon="12.949648084284693"><ele>4.5</ele><time>2026-05-01T11:37:38Z</time></trkpt><trkpt lat="45.80814051423753" lon="12.95013354306586"><ele>5.0</ele><time>2026-05-01T11:37:39Z</time></trkpt><trkpt lat="45.80817142287364" lon="12.950619611858578"><ele>4.5</ele><time>2026-05-01T11:37:40Z</time></trkpt><trkpt lat="45.80820544555802" lon="12.951104256280958"><ele>4.0</ele><time>2026-05-01T11:37:41Z</time></trkpt><trkpt lat="45.80824158152969" lon="12.951591408833007"><ele>4.0</ele><time>2026-05-01T11:37:42Z</time></trkpt><trkpt lat="45.80827895374458" lon="12.952077686677878"><ele>4.0</ele><time>2026-05-01T11:37:43Z</time></trkpt><trkpt lat="45.80831614103657" lon="12.952563769392292"><ele>4.5</ele><time>2026-05-01T11:37:44Z</time></trkpt><trkpt lat="45.80835143393651" lon="12.953049816762519"><ele>5.0</ele><time>2026-05-01T11:37:45Z</time></trkpt><trkpt lat="45.80838660817238" lon="12.953537927262257"><ele>5.0</ele><time>2026-05-01T11:37:46Z</time></trkpt><trkpt lat="45.80842079079206" lon="12.954024434905142"><ele>5.0</ele><time>2026-05-01T11:37:47Z</time></trkpt><trkpt lat="45.808458664963936" lon="12.954506979966375"><ele>4.5</ele><time>2026-05-01T11:37:48Z</time></trkpt><trkpt lat="45.80849757657006" lon="12.954991269548861"><ele>4.0</ele><time>2026-05-01T11:37:49Z</time></trkpt><trkpt lat="45.80853623340615" lon="12.955475751831775"><ele>4.5</ele><time>2026-05-01T11:37:50Z</time></trkpt><trkpt lat="45.80857418033556" lon="12.95596044940391"><ele>5.0</ele><time>2026-05-01T11:37:51Z</time></trkpt><trkpt lat="45.80860970615592" lon="12.956443285253565"><ele>5.0</ele><time>2026-05-01T11:37:52Z</time></trkpt><trkpt lat="45.80864621719127" lon="12.956929679585746"><ele>5.0</ele><time>2026-05-01T11:37:53Z</time></trkpt><trkpt lat="45.80868372281144" lon="12.957413970435878"><ele>4.5</ele><time>2026-05-01T11:37:54Z</time></trkpt><trkpt lat="45.8087223823655" lon="12.957898129472497"><ele>4.0</ele><time>2026-05-01T11:37:55Z</time></trkpt><trkpt lat="45.808762470261264" lon="12.958382308896532"><ele>4.0</ele><time>2026-05-01T11:37:56Z</time></trkpt><trkpt lat="45.808803718182055" lon="12.958867595187193"><ele>4.0</ele><time>2026-05-01T11:37:57Z</time></trkpt><trkpt lat="45.80884423401493" lon="12.959352279418"><ele>4.5</ele><time>2026-05-01T11:37:58Z</time></trkpt><trkpt lat="45.80888498419329" lon="12.959838413198188"><ele>5.0</ele><time>2026-05-01T11:37:59Z</time></trkpt><trkpt lat="45.808923478052186" lon="12.960323749873144"><ele>5.5</ele><time>2026-05-01T11:38:00Z</time></trkpt><trkpt lat="45.808959781967395" lon="12.960809667661815"><ele>6.0</ele><time>2026-05-01T11:38:01Z</time></trkpt><trkpt lat="45.808997088376955" lon="12.961294925604895"><ele>5.5</ele><time>2026-05-01T11:38:02Z</time></trkpt><trkpt lat="45.80903576353444" lon="12.961779183830245"><ele>5.0</ele><time>2026-05-01T11:38:03Z</time></trkpt><trkpt lat="45.8090799787162" lon="12.962263170490502"><ele>5.0</ele><time>2026-05-01T11:38:04Z</time></trkpt><trkpt lat="45.809132220648735" lon="12.962745002085645"><ele>5.0</ele><time>2026-05-01T11:38:05Z</time></trkpt><trkpt lat="45.809185864468034" lon="12.963225760972685"><ele>5.5</ele><time>2026-05-01T11:38:06Z</time></trkpt><trkpt lat="45.80923460569538" lon="12.963708310429398"><ele>6.0</ele><time>2026-05-01T11:38:07Z</time></trkpt><trkpt lat="45.80928528502561" lon="12.964189812206948"><ele>6.0</ele><time>2026-05-01T11:38:08Z</time></trkpt><trkpt lat="45.80934154602577" lon="12.964668667534832"><ele>6.0</ele><time>2026-05-01T11:38:09Z</time></trkpt><trkpt lat="45.80940196014527" lon="12.965146571843785"><ele>5.5</ele><time>2026-05-01T11:38:10Z</time></trkpt><trkpt lat="45.809467587745274" lon="12.965623010333431"><ele>5.0</ele><time>2026-05-01T11:38:11Z</time></trkpt><trkpt lat="45.80953822456659" lon="12.96609952199739"><ele>6.0</ele><time>2026-05-01T11:38:12Z</time></trkpt><trkpt lat="45.809610787408445" lon="12.966574166641385"><ele>7.0</ele><time>2026-05-01T11:38:13Z</time></trkpt><trkpt lat="45.809686059594156" lon="12.967048809612624"><ele>7.0</ele><time>2026-05-01T11:38:14Z</time></trkpt><trkpt lat="45.809763611310274" lon="12.967523552135768"><ele>7.0</ele><time>2026-05-01T11:38:15Z</time></trkpt><trkpt lat="45.80984390840591" lon="12.967995857636973"><ele>7.0</ele><time>2026-05-01T11:38:16Z</time></trkpt><trkpt lat="45.809929770313715" lon="12.968467046869192"><ele>7.0</ele><time>2026-05-01T11:38:17Z</time></trkpt><trkpt lat="45.8100209123327" lon="12.968935589088144"><ele>7.0</ele><time>2026-05-01T11:38:18Z</time></trkpt><trkpt lat="45.810116913534415" lon="12.969402629447742"><ele>7.0</ele><time>2026-05-01T11:38:19Z</time></trkpt><trkpt lat="45.81021174462856" lon="12.969870582494341"><ele>6.5</ele><time>2026-05-01T11:38:20Z</time></trkpt><trkpt lat="45.810305563853156" lon="12.97033991978055"><ele>6.0</ele><time>2026-05-01T11:38:21Z</time></trkpt><trkpt lat="45.810400616426" lon="12.970808877295843"><ele>6.5</ele><time>2026-05-01T11:38:22Z</time></trkpt><trkpt lat="45.81049740963182" lon="12.971276635870137"><ele>7.0</ele><time>2026-05-01T11:38:23Z</time></trkpt><trkpt lat="45.81059365203748" lon="12.97174703883731"><ele>7.0</ele><time>2026-05-01T11:38:24Z</time></trkpt><trkpt lat="45.81068971514579" lon="12.972217871637518"><ele>7.0</ele><time>2026-05-01T11:38:25Z</time></trkpt><trkpt lat="45.810784516562705" lon="12.972690432894158"><ele>7.0</ele><time>2026-05-01T11:38:26Z</time></trkpt><trkpt lat="45.81087521006321" lon="12.973162495233575"><ele>7.0</ele><time>2026-05-01T11:38:27Z</time></trkpt><trkpt lat="45.81096511716636" lon="12.973634311733568"><ele>7.0</ele><time>2026-05-01T11:38:28Z</time></trkpt><trkpt lat="45.81105567117593" lon="12.974106599142038"><ele>7.0</ele><time>2026-05-01T11:38:29Z</time></trkpt><trkpt lat="45.811145180269236" lon="12.974579179427119"><ele>7.5</ele><time>2026-05-01T11:38:30Z</time></trkpt><trkpt lat="45.81123342915506" lon="12.975053198443785"><ele>8.0</ele><time>2026-05-01T11:38:31Z</time></trkpt><trkpt lat="45.811320718668085" lon="12.975526262574505"><ele>8.5</ele><time>2026-05-01T11:38:32Z</time></trkpt><trkpt lat="45.81140769488972" lon="12.97599952906586"><ele>9.0</ele><time>2026-05-01T11:38:33Z</time></trkpt><trkpt lat="45.81149356833852" lon="12.976472235181753"><ele>9.5</ele><time>2026-05-01T11:38:34Z</time></trkpt><trkpt lat="45.811579063185654" lon="12.976943665939038"><ele>10.0</ele><time>2026-05-01T11:38:35Z</time></trkpt><trkpt lat="45.811664296274564" lon="12.97741554886337"><ele>9.5</ele><time>2026-05-01T11:38:36Z</time></trkpt><trkpt lat="45.811751748045715" lon="12.977889581895523"><ele>9.0</ele><time>2026-05-01T11:38:37Z</time></trkpt><trkpt lat="45.81183989478013" lon="12.978363210026792"><ele>10.0</ele><time>2026-05-01T11:38:38Z</time></trkpt><trkpt lat="45.811926506040564" lon="12.978836888755911"><ele>11.0</ele><time>2026-05-01T11:38:39Z</time></trkpt><trkpt lat="45.81201309838217" lon="12.9793094710747"><ele>6.5</ele><time>2026-05-01T11:38:40Z</time></trkpt><trkpt lat="45.81210123373495" lon="12.979782423201723"><ele>2.0</ele><time>2026-05-01T11:38:41Z</time></trkpt><trkpt lat="45.812187821762954" lon="12.980256464968987"><ele>2.0</ele><time>2026-05-01T11:38:42Z</time></trkpt><trkpt lat="45.81227372177476" lon="12.980730728587465"><ele>2.0</ele><time>2026-05-01T11:38:43Z</time></trkpt><trkpt lat="45.812357689222836" lon="12.981205327845808"><ele>4.0</ele><time>2026-05-01T11:38:44Z</time></trkpt><trkpt lat="45.81244236089931" lon="12.981678517468891"><ele>6.0</ele><time>2026-05-01T11:38:45Z</time></trkpt><trkpt lat="45.81252669781721" lon="12.98215193293615"><ele>6.5</ele><time>2026-05-01T11:38:46Z</time></trkpt><trkpt lat="45.81261254739641" lon="12.982625256648761"><ele>7.0</ele><time>2026-05-01T11:38:47Z</time></trkpt><trkpt lat="45.81269703515188" lon="12.983098371910025"><ele>6.5</ele><time>2026-05-01T11:38:48Z</time></trkpt><trkpt lat="45.81278162127744" lon="12.983571622019493"><ele>6.0</ele><time>2026-05-01T11:38:49Z</time></trkpt><trkpt lat="45.81286878734943" lon="12.984044961533877"><ele>6.0</ele><time>2026-05-01T11:38:50Z</time></trkpt><trkpt lat="45.81295473268895" lon="12.984519423853769"><ele>6.0</ele><time>2026-05-01T11:38:51Z</time></trkpt><trkpt lat="45.8130401861529" lon="12.984993934075801"><ele>6.5</ele><time>2026-05-01T11:38:52Z</time></trkpt><trkpt lat="45.81312528756577" lon="12.985466546104153"><ele>7.0</ele><time>2026-05-01T11:38:53Z</time></trkpt><trkpt lat="45.813212265134474" lon="12.985940655828806"><ele>7.0</ele><time>2026-05-01T11:38:54Z</time></trkpt><trkpt lat="45.81329892324985" lon="12.986414221771764"><ele>7.0</ele><time>2026-05-01T11:38:55Z</time></trkpt><trkpt lat="45.813385549818165" lon="12.98688761525226"><ele>7.5</ele><time>2026-05-01T11:38:56Z</time></trkpt><trkpt lat="45.81347085522149" lon="12.987362133783737"><ele>8.0</ele><time>2026-05-01T11:38:57Z</time></trkpt><trkpt lat="45.81355683506029" lon="12.987836252458118"><ele>7.0</ele><time>2026-05-01T11:38:58Z</time></trkpt><trkpt lat="45.813641255469506" lon="12.988311608022016"><ele>6.0</ele><time>2026-05-01T11:38:59Z</time></trkpt><trkpt lat="45.813726622586664" lon="12.988786585053171"><ele>8.5</ele><time>2026-05-01T11:39:00Z</time></trkpt><trkpt lat="45.81381272161545" lon="12.989260401301728"><ele>11.0</ele><time>2026-05-01T11:39:01Z</time></trkpt><trkpt lat="45.813898436328564" lon="12.989735354463612"><ele>9.5</ele><time>2026-05-01T11:39:02Z</time></trkpt><trkpt lat="45.81398271525135" lon="12.990208808671314"><ele>8.0</ele><time>2026-05-01T11:39:03Z</time></trkpt><trkpt lat="45.81406397514035" lon="12.990682775951763"><ele>8.5</ele><time>2026-05-01T11:39:04Z</time></trkpt><trkpt lat="45.81414411913492" lon="12.99115659706665"><ele>9.0</ele><time>2026-05-01T11:39:05Z</time></trkpt><trkpt lat="45.81422383395184" lon="12.99162806751705"><ele>9.0</ele><time>2026-05-01T11:39:06Z</time></trkpt><trkpt lat="45.81430586666277" lon="12.992102639532444"><ele>9.0</ele><time>2026-05-01T11:39:07Z</time></trkpt><trkpt lat="45.81438768962597" lon="12.992577754121893"><ele>9.0</ele><time>2026-05-01T11:39:08Z</time></trkpt><trkpt lat="45.81446999412403" lon="12.993052144581032"><ele>9.0</ele><time>2026-05-01T11:39:09Z</time></trkpt><trkpt lat="45.81455378907004" lon="12.993525657560053"><ele>9.0</ele><time>2026-05-01T11:39:10Z</time></trkpt><trkpt lat="45.81463901226853" lon="12.993998960992457"><ele>9.0</ele><time>2026-05-01T11:39:11Z</time></trkpt><trkpt lat="45.814721820443225" lon="12.994472972618322"><ele>9.0</ele><time>2026-05-01T11:39:12Z</time></trkpt><trkpt lat="45.81480602554363" lon="12.99494810503768"><ele>9.0</ele><time>2026-05-01T11:39:13Z</time></trkpt><trkpt lat="45.81488721202675" lon="12.995422043697802"><ele>9.5</ele><time>2026-05-01T11:39:14Z</time></trkpt><trkpt lat="45.8149690333822" lon="12.995897374207017"><ele>10.0</ele><time>2026-05-01T11:39:15Z</time></trkpt><trkpt lat="45.815050984867" lon="12.996371989332106"><ele>10.0</ele><time>2026-05-01T11:39:16Z</time></trkpt><trkpt lat="45.81512946699586" lon="12.996847311890221"><ele>10.0</ele><time>2026-05-01T11:39:17Z</time></trkpt><trkpt lat="45.81520358661969" lon="12.997325256859286"><ele>10.0</ele><time>2026-05-01T11:39:18Z</time></trkpt><trkpt lat="45.81527421218681" lon="12.997803787544921"><ele>10.0</ele><time>2026-05-01T11:39:19Z</time></trkpt><trkpt lat="45.81534141309258" lon="12.998281724200378"><ele>9.0</ele><time>2026-05-01T11:39:20Z</time></trkpt><trkpt lat="45.81540752248396" lon="12.998761297049562"><ele>8.0</ele><time>2026-05-01T11:39:21Z</time></trkpt><trkpt lat="45.815471197745886" lon="12.999242883665966"><ele>8.0</ele><time>2026-05-01T11:39:22Z</time></trkpt><trkpt lat="45.815533227734235" lon="12.999723691063636"><ele>8.0</ele><time>2026-05-01T11:39:23Z</time></trkpt><trkpt lat="45.81559512281878" lon="13.000205296807465"><ele>8.0</ele><time>2026-05-01T11:39:24Z</time></trkpt><trkpt lat="45.8156550938635" lon="13.000684611396451"><ele>8.0</ele><time>2026-05-01T11:39:25Z</time></trkpt><trkpt lat="45.81571841605722" lon="13.00116296523478"><ele>8.5</ele><time>2026-05-01T11:39:26Z</time></trkpt><trkpt lat="45.81578977742135" lon="13.00164214038779"><ele>9.0</ele><time>2026-05-01T11:39:27Z</time></trkpt><trkpt lat="45.815868216500355" lon="13.002117205288402"><ele>8.5</ele><time>2026-05-01T11:39:28Z</time></trkpt><trkpt lat="45.81595029847689" lon="13.00259129793368"><ele>8.0</ele><time>2026-05-01T11:39:29Z</time></trkpt><trkpt lat="45.816032833455786" lon="13.003067355038581"><ele>7.0</ele><time>2026-05-01T11:39:30Z</time></trkpt><trkpt lat="45.816115467991274" lon="13.003543534855137"><ele>6.0</ele><time>2026-05-01T11:39:31Z</time></trkpt><trkpt lat="45.816195811835165" lon="13.004021206043353"><ele>6.0</ele><time>2026-05-01T11:39:32Z</time></trkpt><trkpt lat="45.81627180843384" lon="13.00449755947491"><ele>6.0</ele><time>2026-05-01T11:39:33Z</time></trkpt><trkpt lat="45.816345096069924" lon="13.004975065924745"><ele>6.0</ele><time>2026-05-01T11:39:34Z</time></trkpt><trkpt lat="45.81641759976901" lon="13.0054533088971"><ele>6.0</ele><time>2026-05-01T11:39:35Z</time></trkpt><trkpt lat="45.81648473206769" lon="13.005931333236108"><ele>6.0</ele><time>2026-05-01T11:39:36Z</time></trkpt><trkpt lat="45.81654898104511" lon="13.006413010007117"><ele>6.0</ele><time>2026-05-01T11:39:37Z</time></trkpt><trkpt lat="45.816609174886686" lon="13.006894872274525"><ele>5.5</ele><time>2026-05-01T11:39:38Z</time></trkpt><trkpt lat="45.81666640660243" lon="13.007378000343301"><ele>5.0</ele><time>2026-05-01T11:39:39Z</time></trkpt><trkpt lat="45.81671990996009" lon="13.0078626501965"><ele>5.0</ele><time>2026-05-01T11:39:40Z</time></trkpt><trkpt lat="45.81677234911886" lon="13.008346098800562"><ele>5.0</ele><time>2026-05-01T11:39:41Z</time></trkpt><trkpt lat="45.81681884979306" lon="13.008826104339343"><ele>5.0</ele><time>2026-05-01T11:39:42Z</time></trkpt><trkpt lat="45.816861111321835" lon="13.009308996555038"><ele>5.0</ele><time>2026-05-01T11:39:43Z</time></trkpt><trkpt lat="45.816901767974514" lon="13.009793070955933"><ele>5.0</ele><time>2026-05-01T11:39:44Z</time></trkpt><trkpt lat="45.816941251487265" lon="13.010276885034187"><ele>5.0</ele><time>2026-05-01T11:39:45Z</time></trkpt><trkpt lat="45.816978864952794" lon="13.010761008359015"><ele>5.0</ele><time>2026-05-01T11:39:46Z</time></trkpt><trkpt lat="45.81701603745488" lon="13.011247009862727"><ele>5.0</ele><time>2026-05-01T11:39:47Z</time></trkpt><trkpt lat="45.81705291217861" lon="13.011732481596837"><ele>5.5</ele><time>2026-05-01T11:39:48Z</time></trkpt><trkpt lat="45.81709091680875" lon="13.012220338730346"><ele>6.0</ele><time>2026-05-01T11:39:49Z</time></trkpt><trkpt lat="45.81713230533197" lon="13.012706418286648"><ele>6.5</ele><time>2026-05-01T11:39:50Z</time></trkpt><trkpt lat="45.817173366562734" lon="13.013189527092257"><ele>7.0</ele><time>2026-05-01T11:39:51Z</time></trkpt><trkpt lat="45.81721647426075" lon="13.013673506558185"><ele>7.5</ele><time>2026-05-01T11:39:52Z</time></trkpt><trkpt lat="45.81725837261121" lon="13.014158467563583"><ele>8.0</ele><time>2026-05-01T11:39:53Z</time></trkpt><trkpt lat="45.81729839278238" lon="13.014643141368278"><ele>7.0</ele><time>2026-05-01T11:39:54Z</time></trkpt><trkpt lat="45.81733893884054" lon="13.01512820682076"><ele>6.0</ele><time>2026-05-01T11:39:55Z</time></trkpt><trkpt lat="45.81737879355465" lon="13.015613018182652"><ele>5.0</ele><time>2026-05-01T11:39:56Z</time></trkpt><trkpt lat="45.817417970682115" lon="13.016099336505508"><ele>4.0</ele><time>2026-05-01T11:39:57Z</time></trkpt><trkpt lat="45.81745669131069" lon="13.01658540258279"><ele>4.5</ele><time>2026-05-01T11:39:58Z</time></trkpt><trkpt lat="45.817496309358255" lon="13.01706912934436"><ele>5.0</ele><time>2026-05-01T11:39:59Z</time></trkpt><trkpt lat="45.81753691680048" lon="13.01755364290993"><ele>6.0</ele><time>2026-05-01T11:40:00Z</time></trkpt><trkpt lat="45.81757582766894" lon="13.018040961429614"><ele>7.0</ele><time>2026-05-01T11:40:01Z</time></trkpt><trkpt lat="45.81762010106043" lon="13.01852206833457"><ele>6.0</ele><time>2026-05-01T11:40:02Z</time></trkpt><trkpt lat="45.81766549496731" lon="13.019003004619476"><ele>5.0</ele><time>2026-05-01T11:40:03Z</time></trkpt><trkpt lat="45.81771023767266" lon="13.019486929529597"><ele>5.0</ele><time>2026-05-01T11:40:04Z</time></trkpt><trkpt lat="45.817756170231306" lon="13.019969686393377"><ele>5.0</ele><time>2026-05-01T11:40:05Z</time></trkpt><trkpt lat="45.81780010545546" lon="13.020452127392396"><ele>5.0</ele><time>2026-05-01T11:40:06Z</time></trkpt><trkpt lat="45.81784296200269" lon="13.020937391286385"><ele>5.0</ele><time>2026-05-01T11:40:07Z</time></trkpt><trkpt lat="45.81788610366051" lon="13.02142085680064"><ele>4.0</ele><time>2026-05-01T11:40:08Z</time></trkpt><trkpt lat="45.81792886670963" lon="13.02190496603691"><ele>3.0</ele><time>2026-05-01T11:40:09Z</time></trkpt><trkpt lat="45.81797137040516" lon="13.022388445025838"><ele>3.0</ele><time>2026-05-01T11:40:10Z</time></trkpt><trkpt lat="45.81801297275674" lon="13.022872043067308"><ele>3.0</ele><time>2026-05-01T11:40:11Z</time></trkpt><trkpt lat="45.8180542678462" lon="13.023355177292592"><ele>4.0</ele><time>2026-05-01T11:40:12Z</time></trkpt><trkpt lat="45.818096465226056" lon="13.023840534012335"><ele>5.0</ele><time>2026-05-01T11:40:13Z</time></trkpt><trkpt lat="45.81813657673015" lon="13.024325081693247"><ele>5.0</ele><time>2026-05-01T11:40:14Z</time></trkpt><trkpt lat="45.81817610130915" lon="13.024810366114746"><ele>5.0</ele><time>2026-05-01T11:40:15Z</time></trkpt><trkpt lat="45.81821543833741" lon="13.025294679148052"><ele>5.0</ele><time>2026-05-01T11:40:16Z</time></trkpt><trkpt lat="45.81825519752536" lon="13.025782092455204"><ele>5.0</ele><time>2026-05-01T11:40:17Z</time></trkpt><trkpt lat="45.81829694122212" lon="13.026268915836518"><ele>5.5</ele><time>2026-05-01T11:40:18Z</time></trkpt><trkpt lat="45.818338527506405" lon="13.026755916883666"><ele>6.0</ele><time>2026-05-01T11:40:19Z</time></trkpt><trkpt lat="45.81837894949845" lon="13.02724216053772"><ele>5.0</ele><time>2026-05-01T11:40:20Z</time></trkpt><trkpt lat="45.81841894573402" lon="13.027728453072164"><ele>4.0</ele><time>2026-05-01T11:40:21Z</time></trkpt><trkpt lat="45.818459347232604" lon="13.028211942191437"><ele>4.5</ele><time>2026-05-01T11:40:22Z</time></trkpt><trkpt lat="45.81850112013251" lon="13.028695498837044"><ele>5.0</ele><time>2026-05-01T11:40:23Z</time></trkpt><trkpt lat="45.81854710253416" lon="13.029179905360264"><ele>5.0</ele><time>2026-05-01T11:40:24Z</time></trkpt><trkpt lat="45.81859749993211" lon="13.029662921897105"><ele>5.0</ele><time>2026-05-01T11:40:25Z</time></trkpt><trkpt lat="45.81865299406933" lon="13.03014554633652"><ele>5.5</ele><time>2026-05-01T11:40:26Z</time></trkpt><trkpt lat="45.818717101180695" lon="13.030626133982619"><ele>6.0</ele><time>2026-05-01T11:40:27Z</time></trkpt><trkpt lat="45.81878577702817" lon="13.031105294870363"><ele>5.0</ele><time>2026-05-01T11:40:28Z</time></trkpt><trkpt lat="45.8188606056088" lon="13.031583255074484"><ele>4.0</ele><time>2026-05-01T11:40:29Z</time></trkpt><trkpt lat="45.81894189516352" lon="13.032057944405757"><ele>4.5</ele><time>2026-05-01T11:40:30Z</time></trkpt><trkpt lat="45.819023315861244" lon="13.03253260669226"><ele>5.0</ele><time>2026-05-01T11:40:31Z</time></trkpt><trkpt lat="45.8191179671376" lon="13.033003664156611"><ele>5.0</ele><time>2026-05-01T11:40:32Z</time></trkpt><trkpt lat="45.81921811389841" lon="13.033470951009086"><ele>5.0</ele><time>2026-05-01T11:40:33Z</time></trkpt><trkpt lat="45.81932278083051" lon="13.03393977002593"><ele>5.5</ele><time>2026-05-01T11:40:34Z</time></trkpt><trkpt lat="45.81943363923042" lon="13.034402657383058"><ele>6.0</ele><time>2026-05-01T11:40:35Z</time></trkpt><trkpt lat="45.81955100707185" lon="13.034862476102894"><ele>6.0</ele><time>2026-05-01T11:40:36Z</time></trkpt><trkpt lat="45.81967441790351" lon="13.035318107955673"><ele>6.0</ele><time>2026-05-01T11:40:37Z</time></trkpt><trkpt lat="45.81979914192525" lon="13.035774297221684"><ele>6.0</ele><time>2026-05-01T11:40:38Z</time></trkpt><trkpt lat="45.81992830662196" lon="13.036226246503848"><ele>6.0</ele><time>2026-05-01T11:40:39Z</time></trkpt><trkpt lat="45.820055568642374" lon="13.036679248854364"><ele>6.0</ele><time>2026-05-01T11:40:40Z</time></trkpt><trkpt lat="45.82018089475508" lon="13.037133089697578"><ele>6.0</ele><time>2026-05-01T11:40:41Z</time></trkpt><trkpt lat="45.820311096874825" lon="13.037584713631402"><ele>6.0</ele><time>2026-05-01T11:40:42Z</time></trkpt><trkpt lat="45.82044093451668" lon="13.038035197981667"><ele>6.0</ele><time>2026-05-01T11:40:43Z</time></trkpt><trkpt lat="45.82057309532265" lon="13.038484777788078"><ele>5.0</ele><time>2026-05-01T11:40:44Z</time></trkpt><trkpt lat="45.82070483099486" lon="13.038934657317617"><ele>4.0</ele><time>2026-05-01T11:40:45Z</time></trkpt><trkpt lat="45.82083393566341" lon="13.039382932624694"><ele>4.0</ele><time>2026-05-01T11:40:46Z</time></trkpt><trkpt lat="45.820965611426246" lon="13.039832317238636"><ele>4.0</ele><time>2026-05-01T11:40:47Z</time></trkpt><trkpt lat="45.82109776334861" lon="13.040282775592148"><ele>3.5</ele><time>2026-05-01T11:40:48Z</time></trkpt><trkpt lat="45.82123023494516" lon="13.040732000282086"><ele>3.0</ele><time>2026-05-01T11:40:49Z</time></trkpt><trkpt lat="45.82136184163603" lon="13.041184734251217"><ele>3.5</ele><time>2026-05-01T11:40:50Z</time></trkpt><trkpt lat="45.82149145165095" lon="13.041638007669796"><ele>4.0</ele><time>2026-05-01T11:40:51Z</time></trkpt><trkpt lat="45.82162243817523" lon="13.042090422778115"><ele>3.5</ele><time>2026-05-01T11:40:52Z</time></trkpt><trkpt lat="45.82175359802203" lon="13.042541331308659"><ele>3.0</ele><time>2026-05-01T11:40:53Z</time></trkpt><trkpt lat="45.82188567994384" lon="13.042993696767"><ele>3.5</ele><time>2026-05-01T11:40:54Z</time></trkpt><trkpt lat="45.82201507305957" lon="13.043444317448783"><ele>4.0</ele><time>2026-05-01T11:40:55Z</time></trkpt><trkpt lat="45.82214624520967" lon="13.043896458303493"><ele>4.5</ele><time>2026-05-01T11:40:56Z</time></trkpt><trkpt lat="45.822278581921935" lon="13.044347649215528"><ele>5.0</ele><time>2026-05-01T11:40:57Z</time></trkpt><trkpt lat="45.82240791664388" lon="13.044800809296184"><ele>5.5</ele><time>2026-05-01T11:40:58Z</time></trkpt><trkpt lat="45.822533258928374" lon="13.045255931097829"><ele>6.0</ele><time>2026-05-01T11:40:59Z</time></trkpt><trkpt lat="45.822656728830815" lon="13.04571212606378"><ele>5.5</ele><time>2026-05-01T11:41:00Z</time></trkpt><trkpt lat="45.822780440639576" lon="13.046168111615147"><ele>5.0</ele><time>2026-05-01T11:41:01Z</time></trkpt><trkpt lat="45.822904365109615" lon="13.04662318174603"><ele>4.5</ele><time>2026-05-01T11:41:02Z</time></trkpt><trkpt lat="45.82302372375638" lon="13.047081997852263"><ele>4.0</ele><time>2026-05-01T11:41:03Z</time></trkpt><trkpt lat="45.82314119729476" lon="13.047543094618828"><ele>4.0</ele><time>2026-05-01T11:41:04Z</time></trkpt><trkpt lat="45.823256102880045" lon="13.048005674903722"><ele>4.0</ele><time>2026-05-01T11:41:05Z</time></trkpt><trkpt lat="45.8233665872275" lon="13.048470441563616"><ele>4.0</ele><time>2026-05-01T11:41:06Z</time></trkpt><trkpt lat="45.8234731272421" lon="13.048937727193678"><ele>4.0</ele><time>2026-05-01T11:41:07Z</time></trkpt><trkpt lat="45.82357689159715" lon="13.049405968710902"><ele>4.0</ele><time>2026-05-01T11:41:08Z</time></trkpt><trkpt lat="45.82367703631267" lon="13.04987476304016"><ele>4.0</ele><time>2026-05-01T11:41:09Z</time></trkpt><trkpt lat="45.82377387178735" lon="13.050344273557823"><ele>3.5</ele><time>2026-05-01T11:41:10Z</time></trkpt><trkpt lat="45.823869445477676" lon="13.050814019382186"><ele>3.0</ele><time>2026-05-01T11:41:11Z</time></trkpt><trkpt lat="45.82396227721434" lon="13.051283050530246"><ele>3.5</ele><time>2026-05-01T11:41:12Z</time></trkpt><trkpt lat="45.82405279857139" lon="13.0517541025611"><ele>4.0</ele><time>2026-05-01T11:41:13Z</time></trkpt><trkpt lat="45.824138943621946" lon="13.052226055504644"><ele>4.5</ele><time>2026-05-01T11:41:14Z</time></trkpt><trkpt lat="45.82422042462819" lon="13.052700352654472"><ele>5.0</ele><time>2026-05-01T11:41:15Z</time></trkpt><trkpt lat="45.82429935825961" lon="13.053173871531808"><ele>4.0</ele><time>2026-05-01T11:41:16Z</time></trkpt><trkpt lat="45.824376296371724" lon="13.053649688157503"><ele>3.0</ele><time>2026-05-01T11:41:17Z</time></trkpt><trkpt lat="45.82445147798988" lon="13.054127009846896"><ele>3.0</ele><time>2026-05-01T11:41:18Z</time></trkpt><trkpt lat="45.82452463435963" lon="13.054602440039238"><ele>3.0</ele><time>2026-05-01T11:41:19Z</time></trkpt><trkpt lat="45.8245970215278" lon="13.055078817276673"><ele>3.0</ele><time>2026-05-01T11:41:20Z</time></trkpt><trkpt lat="45.8246685656955" lon="13.055558308224866"><ele>3.0</ele><time>2026-05-01T11:41:21Z</time></trkpt><trkpt lat="45.8247394744043" lon="13.05603769759437"><ele>3.0</ele><time>2026-05-01T11:41:22Z</time></trkpt><trkpt lat="45.8248099357532" lon="13.056514494239316"><ele>3.0</ele><time>2026-05-01T11:41:23Z</time></trkpt><trkpt lat="45.82487964138877" lon="13.056992507844887"><ele>4.5</ele><time>2026-05-01T11:41:24Z</time></trkpt><trkpt lat="45.82494843953607" lon="13.057470640566915"><ele>6.0</ele><time>2026-05-01T11:41:25Z</time></trkpt><trkpt lat="45.82501401657172" lon="13.057947689946596"><ele>5.5</ele><time>2026-05-01T11:41:26Z</time></trkpt><trkpt lat="45.82508215356703" lon="13.058423909361473"><ele>5.0</ele><time>2026-05-01T11:41:27Z</time></trkpt><trkpt lat="45.82515102970143" lon="13.0589004062736"><ele>4.5</ele><time>2026-05-01T11:41:28Z</time></trkpt><trkpt lat="45.825220423729625" lon="13.059377773038799"><ele>4.0</ele><time>2026-05-01T11:41:29Z</time></trkpt><trkpt lat="45.825288705966926" lon="13.059854635990993"><ele>3.5</ele><time>2026-05-01T11:41:30Z</time></trkpt><trkpt lat="45.8253580544872" lon="13.060331990517883"><ele>3.0</ele><time>2026-05-01T11:41:31Z</time></trkpt><trkpt lat="45.82542842996816" lon="13.060809938062592"><ele>4.0</ele><time>2026-05-01T11:41:32Z</time></trkpt><trkpt lat="45.8254977054302" lon="13.06128810348533"><ele>5.0</ele><time>2026-05-01T11:41:33Z</time></trkpt><trkpt lat="45.82556741409808" lon="13.061766400838325"><ele>5.0</ele><time>2026-05-01T11:41:34Z</time></trkpt><trkpt lat="45.825636614974634" lon="13.062244004443468"><ele>5.0</ele><time>2026-05-01T11:41:35Z</time></trkpt><trkpt lat="45.82570629476733" lon="13.062722848858312"><ele>5.0</ele><time>2026-05-01T11:41:36Z</time></trkpt><trkpt lat="45.825775658360705" lon="13.063201422788405"><ele>5.0</ele><time>2026-05-01T11:41:37Z</time></trkpt><trkpt lat="45.825843790504365" lon="13.06367880820393"><ele>4.5</ele><time>2026-05-01T11:41:38Z</time></trkpt><trkpt lat="45.825912307322504" lon="13.06415641868425"><ele>4.0</ele><time>2026-05-01T11:41:39Z</time></trkpt><trkpt lat="45.825979028598134" lon="13.0646341353811"><ele>4.0</ele><time>2026-05-01T11:41:40Z</time></trkpt><trkpt lat="45.82604748429232" lon="13.065110219630999"><ele>4.0</ele><time>2026-05-01T11:41:41Z</time></trkpt><trkpt lat="45.82611689779963" lon="13.065587443611951"><ele>4.5</ele><time>2026-05-01T11:41:42Z</time></trkpt><trkpt lat="45.82618845343145" lon="13.066064466845898"><ele>5.0</ele><time>2026-05-01T11:41:43Z</time></trkpt><trkpt lat="45.82626015814836" lon="13.066542453338203"><ele>4.5</ele><time>2026-05-01T11:41:44Z</time></trkpt><trkpt lat="45.826328962265876" lon="13.067020849658508"><ele>4.0</ele><time>2026-05-01T11:41:45Z</time></trkpt><trkpt lat="45.826398565500305" lon="13.067499171001518"><ele>5.0</ele><time>2026-05-01T11:41:46Z</time></trkpt><trkpt lat="45.82646696817923" lon="13.0679766246544"><ele>6.0</ele><time>2026-05-01T11:41:47Z</time></trkpt><trkpt lat="45.82653816404719" lon="13.06845301698931"><ele>6.0</ele><time>2026-05-01T11:41:48Z</time></trkpt><trkpt lat="45.82660917119338" lon="13.068930608371188"><ele>6.0</ele><time>2026-05-01T11:41:49Z</time></trkpt><trkpt lat="45.826677360801064" lon="13.069409703041638"><ele>5.0</ele><time>2026-05-01T11:41:50Z</time></trkpt><trkpt lat="45.82674666666978" lon="13.06988851535425"><ele>4.0</ele><time>2026-05-01T11:41:51Z</time></trkpt><trkpt lat="45.826816740200805" lon="13.070366715131756"><ele>4.0</ele><time>2026-05-01T11:41:52Z</time></trkpt><trkpt lat="45.82688487270174" lon="13.07084305173386"><ele>4.0</ele><time>2026-05-01T11:41:53Z</time></trkpt><trkpt lat="45.82695427622126" lon="13.071321272236236"><ele>4.0</ele><time>2026-05-01T11:41:54Z</time></trkpt><trkpt lat="45.82702405614671" lon="13.071799764998"><ele>4.0</ele><time>2026-05-01T11:41:55Z</time></trkpt><trkpt lat="45.82709287681698" lon="13.072278575086429"><ele>4.0</ele><time>2026-05-01T11:41:56Z</time></trkpt><trkpt lat="45.827162616596475" lon="13.0727571483247"><ele>4.0</ele><time>2026-05-01T11:41:57Z</time></trkpt><trkpt lat="45.82723114871224" lon="13.07323568173737"><ele>4.0</ele><time>2026-05-01T11:41:58Z</time></trkpt><trkpt lat="45.827299226125604" lon="13.07371537833495"><ele>4.0</ele><time>2026-05-01T11:41:59Z</time></trkpt><trkpt lat="45.827367919859256" lon="13.074195258710832"><ele>4.0</ele><time>2026-05-01T11:42:00Z</time></trkpt><trkpt lat="45.82743501798291" lon="13.074675598213338"><ele>4.0</ele><time>2026-05-01T11:42:01Z</time></trkpt><trkpt lat="45.82750228363193" lon="13.075155814305326"><ele>4.0</ele><time>2026-05-01T11:42:02Z</time></trkpt><trkpt lat="45.82756985941507" lon="13.075635912711853"><ele>4.0</ele><time>2026-05-01T11:42:03Z</time></trkpt><trkpt lat="45.827637992138" lon="13.076114495747523"><ele>3.5</ele><time>2026-05-01T11:42:04Z</time></trkpt><trkpt lat="45.827707226306416" lon="13.076593359754074"><ele>3.0</ele><time>2026-05-01T11:42:05Z</time></trkpt><trkpt lat="45.827775913720295" lon="13.07707090843735"><ele>2.0</ele><time>2026-05-01T11:42:06Z</time></trkpt><trkpt lat="45.827843958143454" lon="13.077547951924002"><ele>1.0</ele><time>2026-05-01T11:42:07Z</time></trkpt><trkpt lat="45.82791237586802" lon="13.078025931565351"><ele>0.5</ele><time>2026-05-01T11:42:08Z</time></trkpt><trkpt lat="45.82798003275651" lon="13.07850313103014"><ele>0.0</ele><time>2026-05-01T11:42:09Z</time></trkpt><trkpt lat="45.828049477344095" lon="13.078978781680965"><ele>0.0</ele><time>2026-05-01T11:42:10Z</time></trkpt><trkpt lat="45.828119322855365" lon="13.079454183213173"><ele>0.0</ele><time>2026-05-01T11:42:11Z</time></trkpt><trkpt lat="45.82819215497405" lon="13.079929479818826"><ele>1.0</ele><time>2026-05-01T11:42:12Z</time></trkpt><trkpt lat="45.82826378637806" lon="13.080403635187945"><ele>2.0</ele><time>2026-05-01T11:42:13Z</time></trkpt><trkpt lat="45.828334671783686" lon="13.080881403437878"><ele>2.5</ele><time>2026-05-01T11:42:14Z</time></trkpt><trkpt lat="45.82840469775841" lon="13.081357717532176"><ele>3.0</ele><time>2026-05-01T11:42:15Z</time></trkpt><trkpt lat="45.82847452224234" lon="13.081834469316627"><ele>3.0</ele><time>2026-05-01T11:42:16Z</time></trkpt><trkpt lat="45.828543732250765" lon="13.082312908599793"><ele>3.0</ele><time>2026-05-01T11:42:17Z</time></trkpt><trkpt lat="45.82861505057289" lon="13.082791841087243"><ele>2.5</ele><time>2026-05-01T11:42:18Z</time></trkpt><trkpt lat="45.82868573320949" lon="13.083272724933142"><ele>2.0</ele><time>2026-05-01T11:42:19Z</time></trkpt><trkpt lat="45.828754970267646" lon="13.08375314291699"><ele>2.0</ele><time>2026-05-01T11:42:20Z</time></trkpt><trkpt lat="45.828819688633324" lon="13.084233549908772"><ele>2.0</ele><time>2026-05-01T11:42:21Z</time></trkpt><trkpt lat="45.82888227748668" lon="13.08471487006329"><ele>2.0</ele><time>2026-05-01T11:42:22Z</time></trkpt><trkpt lat="45.828946685241796" lon="13.085195719694791"><ele>2.0</ele><time>2026-05-01T11:42:23Z</time></trkpt><trkpt lat="45.829012058256495" lon="13.085674810267804"><ele>2.5</ele><time>2026-05-01T11:42:24Z</time></trkpt><trkpt lat="45.8290753088968" lon="13.086153440550659"><ele>3.0</ele><time>2026-05-01T11:42:25Z</time></trkpt><trkpt lat="45.82914193576819" lon="13.086631190852852"><ele>3.0</ele><time>2026-05-01T11:42:26Z</time></trkpt><trkpt lat="45.829208769205394" lon="13.087109766506103"><ele>3.0</ele><time>2026-05-01T11:42:27Z</time></trkpt><trkpt lat="45.82927793199663" lon="13.087588705394516"><ele>2.5</ele><time>2026-05-01T11:42:28Z</time></trkpt><trkpt lat="45.82934865738374" lon="13.088068356124516"><ele>2.0</ele><time>2026-05-01T11:42:29Z</time></trkpt><trkpt lat="45.82941873034645" lon="13.08854713143838"><ele>2.0</ele><time>2026-05-01T11:42:30Z</time></trkpt><trkpt lat="45.829488901762794" lon="13.089027427612555"><ele>2.0</ele><time>2026-05-01T11:42:31Z</time></trkpt><trkpt lat="45.829557831811606" lon="13.089506589565527"><ele>2.0</ele><time>2026-05-01T11:42:32Z</time></trkpt><trkpt lat="45.82962637750112" lon="13.089987466047825"><ele>2.0</ele><time>2026-05-01T11:42:33Z</time></trkpt><trkpt lat="45.829694890622314" lon="13.090467713105538"><ele>2.0</ele><time>2026-05-01T11:42:34Z</time></trkpt><trkpt lat="45.829762013345956" lon="13.090945874913562"><ele>2.0</ele><time>2026-05-01T11:42:35Z</time></trkpt><trkpt lat="45.82982890738425" lon="13.091423835653558"><ele>2.0</ele><time>2026-05-01T11:42:36Z</time></trkpt><trkpt lat="45.829896134051" lon="13.091901794866917"><ele>2.0</ele><time>2026-05-01T11:42:37Z</time></trkpt><trkpt lat="45.82996540439984" lon="13.09238122150864"><ele>2.0</ele><time>2026-05-01T11:42:38Z</time></trkpt><trkpt lat="45.8300322700495" lon="13.092860877520842"><ele>2.0</ele><time>2026-05-01T11:42:39Z</time></trkpt><trkpt lat="45.83010086645919" lon="13.09333684837571"><ele>2.5</ele><time>2026-05-01T11:42:40Z</time></trkpt><trkpt lat="45.83016868270768" lon="13.09381136157741"><ele>3.0</ele><time>2026-05-01T11:42:41Z</time></trkpt><trkpt lat="45.83023598864833" lon="13.094286078240202"><ele>3.0</ele><time>2026-05-01T11:42:42Z</time></trkpt><trkpt lat="45.83030323387256" lon="13.0947612106891"><ele>3.0</ele><time>2026-05-01T11:42:43Z</time></trkpt><trkpt lat="45.830373307024395" lon="13.095237432731434"><ele>3.0</ele><time>2026-05-01T11:42:44Z</time></trkpt><trkpt lat="45.83044192289155" lon="13.095715771256748"><ele>3.0</ele><time>2026-05-01T11:42:45Z</time></trkpt><trkpt lat="45.830510774232316" lon="13.096193069686091"><ele>3.0</ele><time>2026-05-01T11:42:46Z</time></trkpt><trkpt lat="45.83057921432429" lon="13.096671572969912"><ele>3.0</ele><time>2026-05-01T11:42:47Z</time></trkpt><trkpt lat="45.83064774799641" lon="13.097150089898138"><ele>4.0</ele><time>2026-05-01T11:42:48Z</time></trkpt><trkpt lat="45.830718022430204" lon="13.097630130006849"><ele>5.0</ele><time>2026-05-01T11:42:49Z</time></trkpt><trkpt lat="45.83078921938905" lon="13.09810999594871"><ele>6.0</ele><time>2026-05-01T11:42:50Z</time></trkpt><trkpt lat="45.830858831121375" lon="13.098589817085491"><ele>7.0</ele><time>2026-05-01T11:42:51Z</time></trkpt><trkpt lat="45.83092574575316" lon="13.099068902294567"><ele>7.0</ele><time>2026-05-01T11:42:52Z</time></trkpt><trkpt lat="45.83099272623661" lon="13.099548597801451"><ele>7.0</ele><time>2026-05-01T11:42:53Z</time></trkpt><trkpt lat="45.831059906405905" lon="13.100026006982235"><ele>6.5</ele><time>2026-05-01T11:42:54Z</time></trkpt><trkpt lat="45.831127774874396" lon="13.100506947144634"><ele>6.0</ele><time>2026-05-01T11:42:55Z</time></trkpt><trkpt lat="45.83119791304501" lon="13.100987879102153"><ele>6.0</ele><time>2026-05-01T11:42:56Z</time></trkpt><trkpt lat="45.83126854304688" lon="13.101469425590318"><ele>6.0</ele><time>2026-05-01T11:42:57Z</time></trkpt><trkpt lat="45.83133798156442" lon="13.101949198720131"><ele>6.0</ele><time>2026-05-01T11:42:58Z</time></trkpt><trkpt lat="45.831407381432705" lon="13.102433217352553"><ele>6.0</ele><time>2026-05-01T11:42:59Z</time></trkpt><trkpt lat="45.831474972445136" lon="13.102913148645426"><ele>6.0</ele><time>2026-05-01T11:43:00Z</time></trkpt><trkpt lat="45.83154178931627" lon="13.10339388216392"><ele>6.0</ele><time>2026-05-01T11:43:01Z</time></trkpt><trkpt lat="45.83161299390771" lon="13.103871324639712"><ele>6.0</ele><time>2026-05-01T11:43:02Z</time></trkpt><trkpt lat="45.83168991661738" lon="13.104349040419782"><ele>6.0</ele><time>2026-05-01T11:43:03Z</time></trkpt><trkpt lat="45.83177047159288" lon="13.104822811890406"><ele>6.0</ele><time>2026-05-01T11:43:04Z</time></trkpt><trkpt lat="45.831850603996934" lon="13.105299675290961"><ele>6.0</ele><time>2026-05-01T11:43:05Z</time></trkpt><trkpt lat="45.83193186519599" lon="13.105774156866843"><ele>6.0</ele><time>2026-05-01T11:43:06Z</time></trkpt><trkpt lat="45.83201393896506" lon="13.106248099580045"><ele>6.0</ele><time>2026-05-01T11:43:07Z</time></trkpt><trkpt lat="45.83209837136454" lon="13.106721673112085"><ele>6.5</ele><time>2026-05-01T11:43:08Z</time></trkpt><trkpt lat="45.832186628395036" lon="13.107193472875773"><ele>7.0</ele><time>2026-05-01T11:43:09Z</time></trkpt><trkpt lat="45.83227753234208" lon="13.107664475369319"><ele>6.0</ele><time>2026-05-01T11:43:10Z</time></trkpt><trkpt lat="45.83237140414233" lon="13.108134552141312"><ele>5.0</ele><time>2026-05-01T11:43:11Z</time></trkpt><trkpt lat="45.832468320942716" lon="13.108601362108887"><ele>5.0</ele><time>2026-05-01T11:43:12Z</time></trkpt><trkpt lat="45.83256723660976" lon="13.109068342984434"><ele>5.0</ele><time>2026-05-01T11:43:13Z</time></trkpt><trkpt lat="45.83266910751715" lon="13.10953392460024"><ele>5.0</ele><time>2026-05-01T11:43:14Z</time></trkpt><trkpt lat="45.83277402854666" lon="13.11000094201439"><ele>5.0</ele><time>2026-05-01T11:43:15Z</time></trkpt><trkpt lat="45.832880367347364" lon="13.110466454937635"><ele>5.0</ele><time>2026-05-01T11:43:16Z</time></trkpt><trkpt lat="45.832989573738054" lon="13.110929763937055"><ele>5.0</ele><time>2026-05-01T11:43:17Z</time></trkpt><trkpt lat="45.83310099665894" lon="13.111391055032978"><ele>5.5</ele><time>2026-05-01T11:43:18Z</time></trkpt><trkpt lat="45.833215481783874" lon="13.111852684162628"><ele>6.0</ele><time>2026-05-01T11:43:19Z</time></trkpt><trkpt lat="45.83333053931446" lon="13.11231280871307"><ele>6.5</ele><time>2026-05-01T11:43:20Z</time></trkpt><trkpt lat="45.833448254647934" lon="13.112769455536302"><ele>7.0</ele><time>2026-05-01T11:43:21Z</time></trkpt><trkpt lat="45.83356992298487" lon="13.113224383564603"><ele>7.0</ele><time>2026-05-01T11:43:22Z</time></trkpt><trkpt lat="45.83369405118295" lon="13.113678507659076"><ele>7.0</ele><time>2026-05-01T11:43:23Z</time></trkpt><trkpt lat="45.83382131613737" lon="13.114131101849368"><ele>7.0</ele><time>2026-05-01T11:43:24Z</time></trkpt><trkpt lat="45.833950991189916" lon="13.114583029561139"><ele>7.0</ele><time>2026-05-01T11:43:25Z</time></trkpt><trkpt lat="45.834082411799905" lon="13.115035575393481"><ele>7.0</ele><time>2026-05-01T11:43:26Z</time></trkpt><trkpt lat="45.834216200711474" lon="13.115485521724505"><ele>7.0</ele><time>2026-05-01T11:43:27Z</time></trkpt><trkpt lat="45.834352064674995" lon="13.115933089643516"><ele>6.5</ele><time>2026-05-01T11:43:28Z</time></trkpt><trkpt lat="45.834489253946685" lon="13.116381895850513"><ele>6.0</ele><time>2026-05-01T11:43:29Z</time></trkpt><trkpt lat="45.834628043325765" lon="13.116829002032272"><ele>7.0</ele><time>2026-05-01T11:43:30Z</time></trkpt><trkpt lat="45.83476859868476" lon="13.117273811866436"><ele>8.0</ele><time>2026-05-01T11:43:31Z</time></trkpt><trkpt lat="45.83491125208539" lon="13.117716994033032"><ele>8.0</ele><time>2026-05-01T11:43:32Z</time></trkpt><trkpt lat="45.83505593747968" lon="13.118157666760636"><ele>8.0</ele><time>2026-05-01T11:43:33Z</time></trkpt><trkpt lat="45.83520309682848" lon="13.118598179711903"><ele>7.0</ele><time>2026-05-01T11:43:34Z</time></trkpt><trkpt lat="45.83534844979637" lon="13.119041036728847"><ele>6.0</ele><time>2026-05-01T11:43:35Z</time></trkpt><trkpt lat="45.8354919530335" lon="13.119484878696065"><ele>6.0</ele><time>2026-05-01T11:43:36Z</time></trkpt><trkpt lat="45.835637705093006" lon="13.119931036356881"><ele>6.0</ele><time>2026-05-01T11:43:37Z</time></trkpt><trkpt lat="45.83578185242044" lon="13.120374807727641"><ele>6.0</ele><time>2026-05-01T11:43:38Z</time></trkpt><trkpt lat="45.83592612676535" lon="13.120819565285727"><ele>6.0</ele><time>2026-05-01T11:43:39Z</time></trkpt><trkpt lat="45.83607155215877" lon="13.121262102390242"><ele>6.5</ele><time>2026-05-01T11:43:40Z</time></trkpt><trkpt lat="45.83621739652827" lon="13.121703126714776"><ele>7.0</ele><time>2026-05-01T11:43:41Z</time></trkpt><trkpt lat="45.83636317677703" lon="13.122145891674807"><ele>7.0</ele><time>2026-05-01T11:43:42Z</time></trkpt><trkpt lat="45.83650721492625" lon="13.1225873324724"><ele>7.0</ele><time>2026-05-01T11:43:43Z</time></trkpt><trkpt lat="45.836651790020014" lon="13.12302945070289"><ele>7.0</ele><time>2026-05-01T11:43:44Z</time></trkpt><trkpt lat="45.83679383070133" lon="13.12347207712224"><ele>7.0</ele><time>2026-05-01T11:43:45Z</time></trkpt><trkpt lat="45.83693807509843" lon="13.123914206775625"><ele>7.5</ele><time>2026-05-01T11:43:46Z</time></trkpt><trkpt lat="45.83708166185613" lon="13.124357340757884"><ele>8.0</ele><time>2026-05-01T11:43:47Z</time></trkpt><trkpt lat="45.83722624176053" lon="13.124796832019767"><ele>7.5</ele><time>2026-05-01T11:43:48Z</time></trkpt><trkpt lat="45.83737193789436" lon="13.12523818829328"><ele>7.0</ele><time>2026-05-01T11:43:49Z</time></trkpt><trkpt lat="45.837519150755284" lon="13.125680045652727"><ele>7.5</ele><time>2026-05-01T11:43:50Z</time></trkpt><trkpt lat="45.83766434290142" lon="13.126122388877722"><ele>8.0</ele><time>2026-05-01T11:43:51Z</time></trkpt><trkpt lat="45.83780951970423" lon="13.126563806275135"><ele>8.5</ele><time>2026-05-01T11:43:52Z</time></trkpt><trkpt lat="45.837954539452326" lon="13.127005932351354"><ele>9.0</ele><time>2026-05-01T11:43:53Z</time></trkpt><trkpt lat="45.8380984478607" lon="13.127448234440257"><ele>8.0</ele><time>2026-05-01T11:43:54Z</time></trkpt><trkpt lat="45.83824443046635" lon="13.127892214492546"><ele>7.0</ele><time>2026-05-01T11:43:55Z</time></trkpt><trkpt lat="45.83839020660914" lon="13.128333975197885"><ele>8.0</ele><time>2026-05-01T11:43:56Z</time></trkpt><trkpt lat="45.83853658968716" lon="13.128776532637117"><ele>9.0</ele><time>2026-05-01T11:43:57Z</time></trkpt><trkpt lat="45.83868209371298" lon="13.12922038996834"><ele>9.0</ele><time>2026-05-01T11:43:58Z</time></trkpt><trkpt lat="45.83882664091298" lon="13.129664271474605"><ele>9.0</ele><time>2026-05-01T11:43:59Z</time></trkpt><trkpt lat="45.838969706968065" lon="13.130110440112748"><ele>8.0</ele><time>2026-05-01T11:44:00Z</time></trkpt><trkpt lat="45.839111272344205" lon="13.130555804772419"><ele>7.0</ele><time>2026-05-01T11:44:01Z</time></trkpt><trkpt lat="45.839252407085255" lon="13.131001810335418"><ele>7.5</ele><time>2026-05-01T11:44:02Z</time></trkpt><trkpt lat="45.83939484444152" lon="13.131446891929796"><ele>8.0</ele><time>2026-05-01T11:44:03Z</time></trkpt><trkpt lat="45.83953536532978" lon="13.131892088045017"><ele>8.0</ele><time>2026-05-01T11:44:04Z</time></trkpt><trkpt lat="45.83967337895674" lon="13.13234020965948"><ele>8.0</ele><time>2026-05-01T11:44:05Z</time></trkpt><trkpt lat="45.839811051408844" lon="13.132786532136207"><ele>8.0</ele><time>2026-05-01T11:44:06Z</time></trkpt><trkpt lat="45.83995142347335" lon="13.133230816413674"><ele>8.0</ele><time>2026-05-01T11:44:07Z</time></trkpt><trkpt lat="45.840092854852614" lon="13.133674933581469"><ele>9.0</ele><time>2026-05-01T11:44:08Z</time></trkpt><trkpt lat="45.840235556195466" lon="13.134118778714058"><ele>10.0</ele><time>2026-05-01T11:44:09Z</time></trkpt><trkpt lat="45.840378895544205" lon="13.134558952449693"><ele>10.0</ele><time>2026-05-01T11:44:10Z</time></trkpt><trkpt lat="45.840524299053065" lon="13.134998827351017"><ele>10.0</ele><time>2026-05-01T11:44:11Z</time></trkpt><trkpt lat="45.84067021744913" lon="13.135439034790233"><ele>9.0</ele><time>2026-05-01T11:44:12Z</time></trkpt><trkpt lat="45.84081537391188" lon="13.135879851615131"><ele>8.0</ele><time>2026-05-01T11:44:13Z</time></trkpt><trkpt lat="45.84096026826285" lon="13.136320848529076"><ele>7.5</ele><time>2026-05-01T11:44:14Z</time></trkpt><trkpt lat="45.841104336604495" lon="13.136762322628556"><ele>7.0</ele><time>2026-05-01T11:44:15Z</time></trkpt><trkpt lat="45.841249777956705" lon="13.13720295778811"><ele>7.5</ele><time>2026-05-01T11:44:16Z</time></trkpt><trkpt lat="45.84139458887414" lon="13.137644937127"><ele>8.0</ele><time>2026-05-01T11:44:17Z</time></trkpt><trkpt lat="45.841538962948945" lon="13.138087842645705"><ele>8.0</ele><time>2026-05-01T11:44:18Z</time></trkpt><trkpt lat="45.841684327062424" lon="13.138530730968567"><ele>8.0</ele><time>2026-05-01T11:44:19Z</time></trkpt><trkpt lat="45.841829035078206" lon="13.138974629802927"><ele>8.0</ele><time>2026-05-01T11:44:20Z</time></trkpt><trkpt lat="45.84197402724081" lon="13.139416577421287"><ele>8.0</ele><time>2026-05-01T11:44:21Z</time></trkpt><trkpt lat="45.842118694737934" lon="13.139858708143981"><ele>7.0</ele><time>2026-05-01T11:44:22Z</time></trkpt><trkpt lat="45.84226411868922" lon="13.14030335403659"><ele>6.0</ele><time>2026-05-01T11:44:23Z</time></trkpt><trkpt lat="45.842409222059835" lon="13.140748239731915"><ele>6.0</ele><time>2026-05-01T11:44:24Z</time></trkpt><trkpt lat="45.84255542421063" lon="13.141191351142693"><ele>6.0</ele><time>2026-05-01T11:44:25Z</time></trkpt><trkpt lat="45.842702567854936" lon="13.141634307211715"><ele>6.5</ele><time>2026-05-01T11:44:26Z</time></trkpt><trkpt lat="45.84284979282963" lon="13.142077695269725"><ele>7.0</ele><time>2026-05-01T11:44:27Z</time></trkpt><trkpt lat="45.842995257756066" lon="13.142520418765395"><ele>7.0</ele><time>2026-05-01T11:44:28Z</time></trkpt><trkpt lat="45.843139181473305" lon="13.142963496477023"><ele>7.0</ele><time>2026-05-01T11:44:29Z</time></trkpt><trkpt lat="45.8432830959272" lon="13.143407727003325"><ele>7.0</ele><time>2026-05-01T11:44:30Z</time></trkpt><trkpt lat="45.84342509500975" lon="13.14385035398439"><ele>7.0</ele><time>2026-05-01T11:44:31Z</time></trkpt><trkpt lat="45.84356885212822" lon="13.14429212832099"><ele>7.0</ele><time>2026-05-01T11:44:32Z</time></trkpt><trkpt lat="45.84371601811956" lon="13.144732874390428"><ele>7.0</ele><time>2026-05-01T11:44:33Z</time></trkpt><trkpt lat="45.843859542680036" lon="13.145171882071578"><ele>7.0</ele><time>2026-05-01T11:44:34Z</time></trkpt><trkpt lat="45.84400200346995" lon="13.145613918761715"><ele>7.0</ele><time>2026-05-01T11:44:35Z</time></trkpt><trkpt lat="45.84414458628107" lon="13.14605696846334"><ele>7.0</ele><time>2026-05-01T11:44:36Z</time></trkpt><trkpt lat="45.844289536549674" lon="13.146497413874657"><ele>7.0</ele><time>2026-05-01T11:44:37Z</time></trkpt><trkpt lat="45.844434737487894" lon="13.146937266333172"><ele>7.0</ele><time>2026-05-01T11:44:38Z</time></trkpt><trkpt lat="45.844580342010126" lon="13.147375071589938"><ele>7.0</ele><time>2026-05-01T11:44:39Z</time></trkpt><trkpt lat="45.84473012648837" lon="13.147812315605353"><ele>7.0</ele><time>2026-05-01T11:44:40Z</time></trkpt><trkpt lat="45.84487693913315" lon="13.148250831307237"><ele>7.0</ele><time>2026-05-01T11:44:41Z</time></trkpt><trkpt lat="45.84502351760681" lon="13.148690514571367"><ele>7.0</ele><time>2026-05-01T11:44:42Z</time></trkpt><trkpt lat="45.84517024004034" lon="13.149130538871397"><ele>7.0</ele><time>2026-05-01T11:44:43Z</time></trkpt><trkpt lat="45.845318525348915" lon="13.149571778630005"><ele>7.0</ele><time>2026-05-01T11:44:44Z</time></trkpt><trkpt lat="45.84546702231704" lon="13.150012041154927"><ele>7.0</ele><time>2026-05-01T11:44:45Z</time></trkpt><trkpt lat="45.845617462746326" lon="13.150452167546797"><ele>8.5</ele><time>2026-05-01T11:44:46Z</time></trkpt><trkpt lat="45.845770299848034" lon="13.150890960730063"><ele>10.0</ele><time>2026-05-01T11:44:47Z</time></trkpt><trkpt lat="45.84592083983291" lon="13.151332663550276"><ele>8.5</ele><time>2026-05-01T11:44:48Z</time></trkpt><trkpt lat="45.84606946624844" lon="13.151775931984911"><ele>7.0</ele><time>2026-05-01T11:44:49Z</time></trkpt><trkpt lat="45.846219830380306" lon="13.15221633915716"><ele>6.5</ele><time>2026-05-01T11:44:50Z</time></trkpt><trkpt lat="45.846370421262485" lon="13.152656063763198"><ele>6.0</ele><time>2026-05-01T11:44:51Z</time></trkpt><trkpt lat="45.846520453404096" lon="13.153096835402751"><ele>6.0</ele><time>2026-05-01T11:44:52Z</time></trkpt><trkpt lat="45.84666933401988" lon="13.153539003053766"><ele>6.0</ele><time>2026-05-01T11:44:53Z</time></trkpt><trkpt lat="45.84681725506315" lon="13.153981122969235"><ele>6.5</ele><time>2026-05-01T11:44:54Z</time></trkpt><trkpt lat="45.846965729937125" lon="13.154423849163322"><ele>7.0</ele><time>2026-05-01T11:44:55Z</time></trkpt><trkpt lat="45.84711402803664" lon="13.154866482579248"><ele>7.0</ele><time>2026-05-01T11:44:56Z</time></trkpt><trkpt lat="45.84725879183839" lon="13.155310534567299"><ele>7.0</ele><time>2026-05-01T11:44:57Z</time></trkpt><trkpt lat="45.847401902058934" lon="13.155755339673929"><ele>7.0</ele><time>2026-05-01T11:44:58Z</time></trkpt><trkpt lat="45.84754422815991" lon="13.156198750219945"><ele>7.0</ele><time>2026-05-01T11:44:59Z</time></trkpt><trkpt lat="45.84768735133229" lon="13.156641839954458"><ele>6.5</ele><time>2026-05-01T11:45:00Z</time></trkpt><trkpt lat="45.84783196999093" lon="13.157085751745662"><ele>6.0</ele><time>2026-05-01T11:45:01Z</time></trkpt><trkpt lat="45.847977503166106" lon="13.15752991585051"><ele>6.0</ele><time>2026-05-01T11:45:02Z</time></trkpt><trkpt lat="45.848122602652076" lon="13.1579746942187"><ele>6.0</ele><time>2026-05-01T11:45:03Z</time></trkpt><trkpt lat="45.84826679749717" lon="13.158415722407337"><ele>6.0</ele><time>2026-05-01T11:45:04Z</time></trkpt><trkpt lat="45.848411041747276" lon="13.1588612256"><ele>6.0</ele><time>2026-05-01T11:45:05Z</time></trkpt><trkpt lat="45.84855511247919" lon="13.15930611063347"><ele>6.0</ele><time>2026-05-01T11:45:06Z</time></trkpt><trkpt lat="45.84869908112138" lon="13.159750161232495"><ele>6.0</ele><time>2026-05-01T11:45:07Z</time></trkpt><trkpt lat="45.84884270727648" lon="13.160193257698001"><ele>7.0</ele><time>2026-05-01T11:45:08Z</time></trkpt><trkpt lat="45.848987306868636" lon="13.160634215252681"><ele>8.0</ele><time>2026-05-01T11:45:09Z</time></trkpt><trkpt lat="45.84913261079359" lon="13.161075644939512"><ele>8.5</ele><time>2026-05-01T11:45:10Z</time></trkpt><trkpt lat="45.849278235398984" lon="13.161518010405059"><ele>9.0</ele><time>2026-05-01T11:45:11Z</time></trkpt><trkpt lat="45.84942151269962" lon="13.161959589931055"><ele>9.0</ele><time>2026-05-01T11:45:12Z</time></trkpt><trkpt lat="45.84956419934739" lon="13.162401855967355"><ele>9.0</ele><time>2026-05-01T11:45:13Z</time></trkpt><trkpt lat="45.849706133166315" lon="13.162844535796399"><ele>9.0</ele><time>2026-05-01T11:45:14Z</time></trkpt><trkpt lat="45.84984804742109" lon="13.16328714550852"><ele>9.0</ele><time>2026-05-01T11:45:15Z</time></trkpt><trkpt lat="45.84999006351981" lon="13.163731631658731"><ele>9.0</ele><time>2026-05-01T11:45:16Z</time></trkpt><trkpt lat="45.850132522899116" lon="13.164175430540974"><ele>9.0</ele><time>2026-05-01T11:45:17Z</time></trkpt><trkpt lat="45.85027506339298" lon="13.16461875992534"><ele>9.5</ele><time>2026-05-01T11:45:18Z</time></trkpt><trkpt lat="45.850416683516386" lon="13.165061688230864"><ele>10.0</ele><time>2026-05-01T11:45:19Z</time></trkpt><trkpt lat="45.850559265217775" lon="13.165504301101597"><ele>10.5</ele><time>2026-05-01T11:45:20Z</time></trkpt><trkpt lat="45.850701331169056" lon="13.165946619645688"><ele>11.0</ele><time>2026-05-01T11:45:21Z</time></trkpt><trkpt lat="45.85084231564934" lon="13.166386198599996"><ele>9.5</ele><time>2026-05-01T11:45:22Z</time></trkpt><trkpt lat="45.85098385723681" lon="13.1668288552521"><ele>8.0</ele><time>2026-05-01T11:45:23Z</time></trkpt><trkpt lat="45.851125936778395" lon="13.167269099095622"><ele>7.5</ele><time>2026-05-01T11:45:24Z</time></trkpt><trkpt lat="45.85127005148384" lon="13.167709528417994"><ele>7.0</ele><time>2026-05-01T11:45:25Z</time></trkpt><trkpt lat="45.85141471270724" lon="13.168150150231124"><ele>7.5</ele><time>2026-05-01T11:45:26Z</time></trkpt><trkpt lat="45.85156148939331" lon="13.168591204986884"><ele>8.0</ele><time>2026-05-01T11:45:27Z</time></trkpt><trkpt lat="45.851706109007026" lon="13.169034282684333"><ele>9.0</ele><time>2026-05-01T11:45:28Z</time></trkpt><trkpt lat="45.851851618009455" lon="13.169480020557671"><ele>10.0</ele><time>2026-05-01T11:45:29Z</time></trkpt><trkpt lat="45.851996848355135" lon="13.16992501114535"><ele>10.0</ele><time>2026-05-01T11:45:30Z</time></trkpt><trkpt lat="45.85214273555977" lon="13.170369692108206"><ele>10.0</ele><time>2026-05-01T11:45:31Z</time></trkpt><trkpt lat="45.852289918695604" lon="13.170813561615036"><ele>9.0</ele><time>2026-05-01T11:45:32Z</time></trkpt><trkpt lat="45.85243764835643" lon="13.1712577985471"><ele>8.0</ele><time>2026-05-01T11:45:33Z</time></trkpt><trkpt lat="45.85258420901397" lon="13.171700795461843"><ele>8.5</ele><time>2026-05-01T11:45:34Z</time></trkpt><trkpt lat="45.85272842194272" lon="13.172145718315535"><ele>9.0</ele><time>2026-05-01T11:45:35Z</time></trkpt><trkpt lat="45.85287129646008" lon="13.172590972172165"><ele>9.0</ele><time>2026-05-01T11:45:36Z</time></trkpt><trkpt lat="45.85301370703804" lon="13.173035068570599"><ele>9.0</ele><time>2026-05-01T11:45:37Z</time></trkpt><trkpt lat="45.85315512955011" lon="13.173480122017029"><ele>8.5</ele><time>2026-05-01T11:45:38Z</time></trkpt><trkpt lat="45.85329624995815" lon="13.173926253638221"><ele>8.0</ele><time>2026-05-01T11:45:39Z</time></trkpt><trkpt lat="45.8534365406472" lon="13.17437180949512"><ele>7.0</ele><time>2026-05-01T11:45:40Z</time></trkpt><trkpt lat="45.853574922830404" lon="13.174817669009023"><ele>6.0</ele><time>2026-05-01T11:45:41Z</time></trkpt><trkpt lat="45.85371276966749" lon="13.17526488341621"><ele>6.5</ele><time>2026-05-01T11:45:42Z</time></trkpt><trkpt lat="45.85385130989352" lon="13.175712045777802"><ele>7.0</ele><time>2026-05-01T11:45:43Z</time></trkpt><trkpt lat="45.85398900824699" lon="13.176157418260324"><ele>7.5</ele><time>2026-05-01T11:45:44Z</time></trkpt><trkpt lat="45.854126547289624" lon="13.176602225073253"><ele>8.0</ele><time>2026-05-01T11:45:45Z</time></trkpt><trkpt lat="45.85426403034516" lon="13.177049505056985"><ele>9.0</ele><time>2026-05-01T11:45:46Z</time></trkpt><trkpt lat="45.854399443701325" lon="13.177497355239012"><ele>10.0</ele><time>2026-05-01T11:45:47Z</time></trkpt><trkpt lat="45.85453529361356" lon="13.177945499610377"><ele>9.5</ele><time>2026-05-01T11:45:48Z</time></trkpt><trkpt lat="45.854670093717495" lon="13.178393473952656"><ele>9.0</ele><time>2026-05-01T11:45:49Z</time></trkpt><trkpt lat="45.85480489439862" lon="13.178842090432463"><ele>8.5</ele><time>2026-05-01T11:45:50Z</time></trkpt><trkpt lat="45.85493980465829" lon="13.17929010889729"><ele>8.0</ele><time>2026-05-01T11:45:51Z</time></trkpt><trkpt lat="45.85507511823084" lon="13.179739945248807"><ele>7.0</ele><time>2026-05-01T11:45:52Z</time></trkpt><trkpt lat="45.855209284782816" lon="13.180189020984239"><ele>6.0</ele><time>2026-05-01T11:45:53Z</time></trkpt><trkpt lat="45.85534347479631" lon="13.180637206743713"><ele>6.0</ele><time>2026-05-01T11:45:54Z</time></trkpt><trkpt lat="45.855477308036036" lon="13.181084182660232"><ele>6.0</ele><time>2026-05-01T11:45:55Z</time></trkpt><trkpt lat="45.855611486438015" lon="13.181533184003987"><ele>6.5</ele><time>2026-05-01T11:45:56Z</time></trkpt><trkpt lat="45.8557458373833" lon="13.181982017883051"><ele>7.0</ele><time>2026-05-01T11:45:57Z</time></trkpt><trkpt lat="45.85587792114492" lon="13.182431592675444"><ele>8.0</ele><time>2026-05-01T11:45:58Z</time></trkpt><trkpt lat="45.85601285725787" lon="13.182883834689948"><ele>9.0</ele><time>2026-05-01T11:45:59Z</time></trkpt><trkpt lat="45.85615109326121" lon="13.183328896118937"><ele>9.0</ele><time>2026-05-01T11:46:00Z</time></trkpt><trkpt lat="45.856290688983535" lon="13.183773717392539"><ele>9.0</ele><time>2026-05-01T11:46:01Z</time></trkpt><trkpt lat="45.856433205389386" lon="13.18421777693232"><ele>8.5</ele><time>2026-05-01T11:46:02Z</time></trkpt><trkpt lat="45.85657444360643" lon="13.184662058813819"><ele>8.0</ele><time>2026-05-01T11:46:03Z</time></trkpt><trkpt lat="45.85671346238122" lon="13.18510749422844"><ele>8.0</ele><time>2026-05-01T11:46:04Z</time></trkpt><trkpt lat="45.85685069570361" lon="13.185555626695542"><ele>8.0</ele><time>2026-05-01T11:46:05Z</time></trkpt><trkpt lat="45.856984693134855" lon="13.186008284558392"><ele>8.0</ele><time>2026-05-01T11:46:06Z</time></trkpt><trkpt lat="45.85711386671129" lon="13.186461410975252"><ele>8.0</ele><time>2026-05-01T11:46:07Z</time></trkpt><trkpt lat="45.85724288508511" lon="13.18691376038128"><ele>8.0</ele><time>2026-05-01T11:46:08Z</time></trkpt><trkpt lat="45.857373093189544" lon="13.187367491934497"><ele>8.0</ele><time>2026-05-01T11:46:09Z</time></trkpt><trkpt lat="45.857505710592214" lon="13.187819041967861"><ele>8.5</ele><time>2026-05-01T11:46:10Z</time></trkpt><trkpt lat="45.85763851939873" lon="13.188270357673492"><ele>9.0</ele><time>2026-05-01T11:46:11Z</time></trkpt><trkpt lat="45.85777206584209" lon="13.188721188850304"><ele>9.5</ele><time>2026-05-01T11:46:12Z</time></trkpt><trkpt lat="45.85790719548096" lon="13.189172184294703"><ele>10.0</ele><time>2026-05-01T11:46:13Z</time></trkpt><trkpt lat="45.85804166249242" lon="13.18962193307361"><ele>9.0</ele><time>2026-05-01T11:46:14Z</time></trkpt><trkpt lat="45.85817653410288" lon="13.190071745727195"><ele>8.0</ele><time>2026-05-01T11:46:15Z</time></trkpt><trkpt lat="45.85830965200345" lon="13.190520180614817"><ele>8.0</ele><time>2026-05-01T11:46:16Z</time></trkpt><trkpt lat="45.858444365843894" lon="13.190967742695873"><ele>8.0</ele><time>2026-05-01T11:46:17Z</time></trkpt><trkpt lat="45.85858124932931" lon="13.19141569526597"><ele>8.5</ele><time>2026-05-01T11:46:18Z</time></trkpt><trkpt lat="45.85871580624878" lon="13.191863198464208"><ele>9.0</ele><time>2026-05-01T11:46:19Z</time></trkpt><trkpt lat="45.85884958322375" lon="13.19231079121767"><ele>9.0</ele><time>2026-05-01T11:46:20Z</time></trkpt><trkpt lat="45.85898459042926" lon="13.192760582809234"><ele>9.0</ele><time>2026-05-01T11:46:21Z</time></trkpt><trkpt lat="45.859117069888946" lon="13.193211329534893"><ele>9.0</ele><time>2026-05-01T11:46:22Z</time></trkpt><trkpt lat="45.859250548900555" lon="13.193660563274497"><ele>9.0</ele><time>2026-05-01T11:46:23Z</time></trkpt><trkpt lat="45.85938460447751" lon="13.194110667212055"><ele>8.5</ele><time>2026-05-01T11:46:24Z</time></trkpt><trkpt lat="45.859519416029215" lon="13.194559687262384"><ele>8.0</ele><time>2026-05-01T11:46:25Z</time></trkpt><trkpt lat="45.85965708541047" lon="13.195007646371375"><ele>8.0</ele><time>2026-05-01T11:46:26Z</time></trkpt><trkpt lat="45.85979321888198" lon="13.195455818235846"><ele>8.0</ele><time>2026-05-01T11:46:27Z</time></trkpt><trkpt lat="45.85993061671463" lon="13.195904870314674"><ele>8.0</ele><time>2026-05-01T11:46:28Z</time></trkpt><trkpt lat="45.860069808821066" lon="13.196351518744411"><ele>8.0</ele><time>2026-05-01T11:46:29Z</time></trkpt><trkpt lat="45.860210913466794" lon="13.196798114051216"><ele>8.0</ele><time>2026-05-01T11:46:30Z</time></trkpt><trkpt lat="45.86034858368331" lon="13.197245856408054"><ele>8.0</ele><time>2026-05-01T11:46:31Z</time></trkpt><trkpt lat="45.86048420235885" lon="13.197694920385596"><ele>8.0</ele><time>2026-05-01T11:46:32Z</time></trkpt><trkpt lat="45.86061846428503" lon="13.198144816509087"><ele>8.0</ele><time>2026-05-01T11:46:33Z</time></trkpt><trkpt lat="45.86075396341353" lon="13.198592787281946"><ele>8.5</ele><time>2026-05-01T11:46:34Z</time></trkpt><trkpt lat="45.860892023684244" lon="13.199041935430108"><ele>9.0</ele><time>2026-05-01T11:46:35Z</time></trkpt><trkpt lat="45.861029865922205" lon="13.199491563951636"><ele>9.0</ele><time>2026-05-01T11:46:36Z</time></trkpt><trkpt lat="45.86116720459733" lon="13.199941290201075"><ele>9.0</ele><time>2026-05-01T11:46:37Z</time></trkpt><trkpt lat="45.86130407070346" lon="13.200391869170538"><ele>9.5</ele><time>2026-05-01T11:46:38Z</time></trkpt><trkpt lat="45.86143921935306" lon="13.200841914194948"><ele>10.0</ele><time>2026-05-01T11:46:39Z</time></trkpt><trkpt lat="45.861573731139465" lon="13.201292643764152"><ele>10.5</ele><time>2026-05-01T11:46:40Z</time></trkpt><trkpt lat="45.861707372837735" lon="13.201742780051603"><ele>11.0</ele><time>2026-05-01T11:46:41Z</time></trkpt><trkpt lat="45.86183872475075" lon="13.202186407567918"><ele>9.5</ele><time>2026-05-01T11:46:42Z</time></trkpt><trkpt lat="45.861974671911845" lon="13.20263603737403"><ele>8.0</ele><time>2026-05-01T11:46:43Z</time></trkpt><trkpt lat="45.86210939018212" lon="13.203087095645593"><ele>8.5</ele><time>2026-05-01T11:46:44Z</time></trkpt><trkpt lat="45.862243296363395" lon="13.203536693807406"><ele>9.0</ele><time>2026-05-01T11:46:45Z</time></trkpt><trkpt lat="45.86237918870662" lon="13.203986417125657"><ele>9.5</ele><time>2026-05-01T11:46:46Z</time></trkpt><trkpt lat="45.86251493545792" lon="13.204434588161273"><ele>10.0</ele><time>2026-05-01T11:46:47Z</time></trkpt><trkpt lat="45.86265069950847" lon="13.20488403079149"><ele>10.0</ele><time>2026-05-01T11:46:48Z</time></trkpt><trkpt lat="45.86278631300901" lon="13.20533269671146"><ele>10.0</ele><time>2026-05-01T11:46:49Z</time></trkpt><trkpt lat="45.862920766111934" lon="13.205779239887653"><ele>10.0</ele><time>2026-05-01T11:46:50Z</time></trkpt><trkpt lat="45.86305697925185" lon="13.206227476126145"><ele>10.0</ele><time>2026-05-01T11:46:51Z</time></trkpt><trkpt lat="45.863192192342744" lon="13.206675732864186"><ele>9.5</ele><time>2026-05-01T11:46:52Z</time></trkpt><trkpt lat="45.86332615511507" lon="13.207123227673565"><ele>9.0</ele><time>2026-05-01T11:46:53Z</time></trkpt><trkpt lat="45.86345926318741" lon="13.207571534886524"><ele>8.5</ele><time>2026-05-01T11:46:54Z</time></trkpt><trkpt lat="45.86359357383706" lon="13.20801931220049"><ele>8.0</ele><time>2026-05-01T11:46:55Z</time></trkpt><trkpt lat="45.86372754314443" lon="13.208467501664817"><ele>8.5</ele><time>2026-05-01T11:46:56Z</time></trkpt><trkpt lat="45.86386159189826" lon="13.208914723357264"><ele>9.0</ele><time>2026-05-01T11:46:57Z</time></trkpt><trkpt lat="45.863995777982865" lon="13.209363108704002"><ele>9.0</ele><time>2026-05-01T11:46:58Z</time></trkpt><trkpt lat="45.86412952078503" lon="13.209810555968483"><ele>9.0</ele><time>2026-05-01T11:46:59Z</time></trkpt><trkpt lat="45.86426469054721" lon="13.210259826677806"><ele>9.0</ele><time>2026-05-01T11:47:00Z</time></trkpt><trkpt lat="45.86440029349698" lon="13.21071046592329"><ele>9.0</ele><time>2026-05-01T11:47:01Z</time></trkpt><trkpt lat="45.86453582017739" lon="13.211162259685176"><ele>8.5</ele><time>2026-05-01T11:47:02Z</time></trkpt><trkpt lat="45.86467095421522" lon="13.21161250196843"><ele>8.0</ele><time>2026-05-01T11:47:03Z</time></trkpt><trkpt lat="45.864807708639475" lon="13.212062269529085"><ele>8.5</ele><time>2026-05-01T11:47:04Z</time></trkpt><trkpt lat="45.864943783926044" lon="13.212512550103357"><ele>9.0</ele><time>2026-05-01T11:47:05Z</time></trkpt><trkpt lat="45.86508073897286" lon="13.21296156779742"><ele>9.0</ele><time>2026-05-01T11:47:06Z</time></trkpt><trkpt lat="45.865219849073945" lon="13.213408993245205"><ele>9.0</ele><time>2026-05-01T11:47:07Z</time></trkpt><trkpt lat="45.86536273390707" lon="13.213854870199611"><ele>9.0</ele><time>2026-05-01T11:47:08Z</time></trkpt><trkpt lat="45.86550710873201" lon="13.214298449024323"><ele>9.0</ele><time>2026-05-01T11:47:09Z</time></trkpt><trkpt lat="45.86565027957265" lon="13.214741867022827"><ele>8.0</ele><time>2026-05-01T11:47:10Z</time></trkpt><trkpt lat="45.86579647216202" lon="13.21518538495928"><ele>7.0</ele><time>2026-05-01T11:47:11Z</time></trkpt><trkpt lat="45.865944318978904" lon="13.215627980358278"><ele>7.5</ele><time>2026-05-01T11:47:12Z</time></trkpt><trkpt lat="45.86609374368129" lon="13.216069885481206"><ele>8.0</ele><time>2026-05-01T11:47:13Z</time></trkpt><trkpt lat="45.866248841567895" lon="13.21650672509584"><ele>8.0</ele><time>2026-05-01T11:47:14Z</time></trkpt><trkpt lat="45.8664056362066" lon="13.216941818905104"><ele>8.0</ele><time>2026-05-01T11:47:15Z</time></trkpt><trkpt lat="45.86656362724666" lon="13.21737566704276"><ele>8.0</ele><time>2026-05-01T11:47:16Z</time></trkpt><trkpt lat="45.866720837405275" lon="13.217812773763203"><ele>8.0</ele><time>2026-05-01T11:47:17Z</time></trkpt><trkpt lat="45.86687912973809" lon="13.218247468741973"><ele>9.0</ele><time>2026-05-01T11:47:18Z</time></trkpt><trkpt lat="45.867037151984675" lon="13.218681795326534"><ele>10.0</ele><time>2026-05-01T11:47:19Z</time></trkpt><trkpt lat="45.86719629965694" lon="13.219116043194257"><ele>10.5</ele><time>2026-05-01T11:47:20Z</time></trkpt><trkpt lat="45.86735550210057" lon="13.219549265104364"><ele>11.0</ele><time>2026-05-01T11:47:21Z</time></trkpt><trkpt lat="45.86751540579843" lon="13.21998254154132"><ele>10.0</ele><time>2026-05-01T11:47:22Z</time></trkpt><trkpt lat="45.867675184906375" lon="13.220415538081628"><ele>9.0</ele><time>2026-05-01T11:47:23Z</time></trkpt><trkpt lat="45.867836671164525" lon="13.220847302415034"><ele>8.0</ele><time>2026-05-01T11:47:24Z</time></trkpt><trkpt lat="45.86799782702795" lon="13.22127959009196"><ele>7.0</ele><time>2026-05-01T11:47:25Z</time></trkpt><trkpt lat="45.868158244950045" lon="13.221711566393674"><ele>7.0</ele><time>2026-05-01T11:47:26Z</time></trkpt><trkpt lat="45.86831788321011" lon="13.222144626517075"><ele>7.0</ele><time>2026-05-01T11:47:27Z</time></trkpt><trkpt lat="45.86847447876052" lon="13.22258006745832"><ele>8.0</ele><time>2026-05-01T11:47:28Z</time></trkpt><trkpt lat="45.868630112559174" lon="13.223014793519893"><ele>9.0</ele><time>2026-05-01T11:47:29Z</time></trkpt><trkpt lat="45.868786369538014" lon="13.223451129889904"><ele>9.0</ele><time>2026-05-01T11:47:30Z</time></trkpt><trkpt lat="45.86894252926471" lon="13.223885880399088"><ele>9.0</ele><time>2026-05-01T11:47:31Z</time></trkpt><trkpt lat="45.86910168506914" lon="13.224313816018562"><ele>9.0</ele><time>2026-05-01T11:47:32Z</time></trkpt><trkpt lat="45.86925934253975" lon="13.224747563126293"><ele>9.0</ele><time>2026-05-01T11:47:33Z</time></trkpt><trkpt lat="45.86941831152656" lon="13.225181596842216"><ele>9.5</ele><time>2026-05-01T11:47:34Z</time></trkpt><trkpt lat="45.86957658015595" lon="13.225615106968887"><ele>10.0</ele><time>2026-05-01T11:47:35Z</time></trkpt><trkpt lat="45.86973604345129" lon="13.226048642152639"><ele>9.5</ele><time>2026-05-01T11:47:36Z</time></trkpt><trkpt lat="45.86989507621124" lon="13.226480302031053"><ele>9.0</ele><time>2026-05-01T11:47:37Z</time></trkpt><trkpt lat="45.870055979832635" lon="13.226912403904532"><ele>9.5</ele><time>2026-05-01T11:47:38Z</time></trkpt><trkpt lat="45.87021586696044" lon="13.227343640981893"><ele>10.0</ele><time>2026-05-01T11:47:39Z</time></trkpt><trkpt lat="45.87037503532195" lon="13.227775848271781"><ele>9.5</ele><time>2026-05-01T11:47:40Z</time></trkpt><trkpt lat="45.870532289153495" lon="13.228208685237234"><ele>9.0</ele><time>2026-05-01T11:47:41Z</time></trkpt><trkpt lat="45.87069024475786" lon="13.228640219842559"><ele>9.5</ele><time>2026-05-01T11:47:42Z</time></trkpt><trkpt lat="45.870847671835165" lon="13.22907226452987"><ele>10.0</ele><time>2026-05-01T11:47:43Z</time></trkpt><trkpt lat="45.87100755657987" lon="13.229503705791481"><ele>11.0</ele><time>2026-05-01T11:47:44Z</time></trkpt><trkpt lat="45.871167859139334" lon="13.22993589185774"><ele>12.0</ele><time>2026-05-01T11:47:45Z</time></trkpt><trkpt lat="45.87132715825496" lon="13.230368745970551"><ele>11.0</ele><time>2026-05-01T11:47:46Z</time></trkpt><trkpt lat="45.871486260349315" lon="13.230801958922537"><ele>10.0</ele><time>2026-05-01T11:47:47Z</time></trkpt><trkpt lat="45.87164392139709" lon="13.231236034582425"><ele>10.5</ele><time>2026-05-01T11:47:48Z</time></trkpt><trkpt lat="45.87180202261454" lon="13.231669295342842"><ele>11.0</ele><time>2026-05-01T11:47:49Z</time></trkpt><trkpt lat="45.87196019355798" lon="13.232101178236675"><ele>11.0</ele><time>2026-05-01T11:47:50Z</time></trkpt><trkpt lat="45.87211649714542" lon="13.232533310907016"><ele>11.0</ele><time>2026-05-01T11:47:51Z</time></trkpt><trkpt lat="45.872274283150716" lon="13.232964930098351"><ele>11.0</ele><time>2026-05-01T11:47:52Z</time></trkpt><trkpt lat="45.872433257288634" lon="13.233397425870258"><ele>11.0</ele><time>2026-05-01T11:47:53Z</time></trkpt><trkpt lat="45.8725919173482" lon="13.233830013142029"><ele>11.5</ele><time>2026-05-01T11:47:54Z</time></trkpt><trkpt lat="45.872749128393515" lon="13.23426459388986"><ele>12.0</ele><time>2026-05-01T11:47:55Z</time></trkpt><trkpt lat="45.872907680493306" lon="13.234701162238382"><ele>12.0</ele><time>2026-05-01T11:47:56Z</time></trkpt><trkpt lat="45.87306652145144" lon="13.235134904259173"><ele>12.0</ele><time>2026-05-01T11:47:57Z</time></trkpt><trkpt lat="45.873224450061365" lon="13.23557074381533"><ele>12.0</ele><time>2026-05-01T11:47:58Z</time></trkpt><trkpt lat="45.8733827172386" lon="13.236004818598513"><ele>12.0</ele><time>2026-05-01T11:47:59Z</time></trkpt><trkpt lat="45.87354143349327" lon="13.236440374790737"><ele>12.0</ele><time>2026-05-01T11:48:00Z</time></trkpt><trkpt lat="45.87369871868135" lon="13.236875233535306"><ele>12.0</ele><time>2026-05-01T11:48:01Z</time></trkpt><trkpt lat="45.873857179030914" lon="13.237309286075828"><ele>11.0</ele><time>2026-05-01T11:48:02Z</time></trkpt><trkpt lat="45.87401451857157" lon="13.237743197665615"><ele>10.0</ele><time>2026-05-01T11:48:03Z</time></trkpt><trkpt lat="45.87417201337293" lon="13.238177076769816"><ele>10.5</ele><time>2026-05-01T11:48:04Z</time></trkpt><trkpt lat="45.87432904892392" lon="13.238610228355924"><ele>11.0</ele><time>2026-05-01T11:48:05Z</time></trkpt><trkpt lat="45.87448630611946" lon="13.239044663198944"><ele>11.0</ele><time>2026-05-01T11:48:06Z</time></trkpt><trkpt lat="45.8746421382054" lon="13.239478452531678"><ele>11.0</ele><time>2026-05-01T11:48:07Z</time></trkpt><trkpt lat="45.87479875150589" lon="13.239911934150047"><ele>11.0</ele><time>2026-05-01T11:48:08Z</time></trkpt><trkpt lat="45.87495433741869" lon="13.240347346914545"><ele>11.0</ele><time>2026-05-01T11:48:09Z</time></trkpt><trkpt lat="45.87511055486701" lon="13.240782383959639"><ele>12.0</ele><time>2026-05-01T11:48:10Z</time></trkpt><trkpt lat="45.87526799154895" lon="13.24121439221537"><ele>13.0</ele><time>2026-05-01T11:48:11Z</time></trkpt><trkpt lat="45.87542749497192" lon="13.241645858448283"><ele>14.5</ele><time>2026-05-01T11:48:12Z</time></trkpt><trkpt lat="45.87558553684259" lon="13.242077434464228"><ele>16.0</ele><time>2026-05-01T11:48:13Z</time></trkpt><trkpt lat="45.875745193385185" lon="13.242509449496751"><ele>16.0</ele><time>2026-05-01T11:48:14Z</time></trkpt><trkpt lat="45.87590292310374" lon="13.242942787113153"><ele>16.0</ele><time>2026-05-01T11:48:15Z</time></trkpt><trkpt lat="45.876063146478586" lon="13.243375770754684"><ele>15.0</ele><time>2026-05-01T11:48:16Z</time></trkpt><trkpt lat="45.87622297421664" lon="13.243809016494582"><ele>14.0</ele><time>2026-05-01T11:48:17Z</time></trkpt><trkpt lat="45.87638481165031" lon="13.244241403303993"><ele>14.0</ele><time>2026-05-01T11:48:18Z</time></trkpt><trkpt lat="45.87654630325311" lon="13.244674185365668"><ele>14.0</ele><time>2026-05-01T11:48:19Z</time></trkpt><trkpt lat="45.876706155484" lon="13.245108044449193"><ele>14.0</ele><time>2026-05-01T11:48:20Z</time></trkpt><trkpt lat="45.87686437913091" lon="13.245542106792813"><ele>14.0</ele><time>2026-05-01T11:48:21Z</time></trkpt><trkpt lat="45.87702239284775" lon="13.245976750339205"><ele>13.5</ele><time>2026-05-01T11:48:22Z</time></trkpt><trkpt lat="45.8771807065935" lon="13.246410702785074"><ele>13.0</ele><time>2026-05-01T11:48:23Z</time></trkpt><trkpt lat="45.877337792314684" lon="13.246845888678758"><ele>13.0</ele><time>2026-05-01T11:48:24Z</time></trkpt><trkpt lat="45.87749246540932" lon="13.247282408657092"><ele>13.0</ele><time>2026-05-01T11:48:25Z</time></trkpt><trkpt lat="45.87764634866169" lon="13.247720694302396"><ele>12.0</ele><time>2026-05-01T11:48:26Z</time></trkpt><trkpt lat="45.877798505976045" lon="13.24815820415466"><ele>11.0</ele><time>2026-05-01T11:48:27Z</time></trkpt><trkpt lat="45.87794665180819" lon="13.248585603919286"><ele>11.5</ele><time>2026-05-01T11:48:28Z</time></trkpt><trkpt lat="45.8780937577761" lon="13.249001309928545"><ele>12.0</ele><time>2026-05-01T11:48:29Z</time></trkpt><trkpt lat="45.87823993073115" lon="13.249405455540654"><ele>12.5</ele><time>2026-05-01T11:48:30Z</time></trkpt><trkpt lat="45.87838489210866" lon="13.249800226529178"><ele>13.0</ele><time>2026-05-01T11:48:31Z</time></trkpt><trkpt lat="45.878527448959034" lon="13.250187926898139"><ele>13.0</ele><time>2026-05-01T11:48:32Z</time></trkpt><trkpt lat="45.87866390991067" lon="13.25056909955894"><ele>13.0</ele><time>2026-05-01T11:48:33Z</time></trkpt><trkpt lat="45.87879688342739" lon="13.250939877151927"><ele>13.5</ele><time>2026-05-01T11:48:34Z</time></trkpt><trkpt lat="45.87893083045032" lon="13.251306187070762"><ele>14.0</ele><time>2026-05-01T11:48:35Z</time></trkpt><trkpt lat="45.8790631450347" lon="13.251665312142833"><ele>15.0</ele><time>2026-05-01T11:48:36Z</time></trkpt><trkpt lat="45.879191269366004" lon="13.252016840580366"><ele>16.0</ele><time>2026-05-01T11:48:37Z</time></trkpt><trkpt lat="45.87931696553772" lon="13.252361562545113"><ele>14.0</ele><time>2026-05-01T11:48:38Z</time></trkpt><trkpt lat="45.87943835941843" lon="13.252698926744287"><ele>12.0</ele><time>2026-05-01T11:48:39Z</time></trkpt><trkpt lat="45.87955654791651" lon="13.253031619038458"><ele>13.0</ele><time>2026-05-01T11:48:40Z</time></trkpt><trkpt lat="45.879670903099274" lon="13.25335862734828"><ele>14.0</ele><time>2026-05-01T11:48:41Z</time></trkpt><trkpt lat="45.87978188558857" lon="13.253681042988646"><ele>15.0</ele><time>2026-05-01T11:48:42Z</time></trkpt><trkpt lat="45.87988694753443" lon="13.253995946682611"><ele>16.0</ele><time>2026-05-01T11:48:43Z</time></trkpt><trkpt lat="45.87998801517245" lon="13.254298957819783"><ele>16.0</ele><time>2026-05-01T11:48:44Z</time></trkpt><trkpt lat="45.88008540030563" lon="13.25458943917059"><ele>16.0</ele><time>2026-05-01T11:48:45Z</time></trkpt><trkpt lat="45.880185007864014" lon="13.254862420637817"><ele>16.0</ele><time>2026-05-01T11:48:46Z</time></trkpt><trkpt lat="45.880286695204695" lon="13.255120200802802"><ele>15.0</ele><time>2026-05-01T11:48:47Z</time></trkpt><trkpt lat="45.880380508172244" lon="13.255367283928873"><ele>14.0</ele><time>2026-05-01T11:48:48Z</time></trkpt><trkpt lat="45.88046135741263" lon="13.255595655611105"><ele>13.0</ele><time>2026-05-01T11:48:49Z</time></trkpt><trkpt lat="45.88053323223496" lon="13.2558075639153"><ele>12.666666666666666</ele><time>2026-05-01T11:48:50Z</time></trkpt><trkpt lat="45.88064142950048" lon="13.255989922823261"><ele>12.333333333333332</ele><time>2026-05-01T11:48:51Z</time></trkpt><trkpt lat="45.88068766103202" lon="13.256188876988155"><ele>12.0</ele><time>2026-05-01T11:48:52Z</time></trkpt><trkpt lat="45.88072623724863" lon="13.2563794402938"><ele>12.399999999999999</ele><time>2026-05-01T11:48:53Z</time></trkpt><trkpt lat="45.88077363204774" lon="13.25654436160272"><ele>12.799999999999999</ele><time>2026-05-01T11:48:54Z</time></trkpt><trkpt lat="45.88081231370455" lon="13.256697114932727"><ele>13.2</ele><time>2026-05-01T11:48:55Z</time></trkpt><trkpt lat="45.88085172845565" lon="13.256834763906753"><ele>13.6</ele><time>2026-05-01T11:48:56Z</time></trkpt><trkpt lat="45.880897203074994" lon="13.256971187376005"><ele>14.0</ele><time>2026-05-01T11:48:57Z</time></trkpt><trkpt lat="45.880946990376316" lon="13.257093528094172"><ele>14.000000000000002</ele><time>2026-05-01T11:48:58Z</time></trkpt><trkpt lat="45.88099375862725" lon="13.25721238768252"><ele>14.0</ele><time>2026-05-01T11:48:59Z</time></trkpt><trkpt lat="45.88104047236145" lon="13.257329674356473"><ele>14.0</ele><time>2026-05-01T11:49:00Z</time></trkpt><trkpt lat="45.881076912191745" lon="13.25743402489134"><ele>14.0</ele><time>2026-05-01T11:49:01Z</time></trkpt><trkpt lat="45.881110970647704" lon="13.257528781743954"><ele>14.000000000000002</ele><time>2026-05-01T11:49:02Z</time></trkpt><trkpt lat="45.88114145068082" lon="13.257621398548777"><ele>14.0</ele><time>2026-05-01T11:49:03Z</time></trkpt><trkpt lat="45.88117827689912" lon="13.257705803757991"><ele>14.0</ele><time>2026-05-01T11:49:04Z</time></trkpt><trkpt lat="45.88111295985631" lon="13.257894557870506"><ele>13.999999999999998</ele><time>2026-05-01T11:49:06Z</time></trkpt><trkpt lat="45.881083547989654" lon="13.25802988791357"><ele>13.999999999999998</ele><time>2026-05-01T11:49:08Z</time></trkpt><trkpt lat="45.88112624329883" lon="13.25812942319098"><ele>14.0</ele><time>2026-05-01T11:49:10Z</time></trkpt><trkpt lat="45.8811678476932" lon="13.258200836280874"><ele>14.0</ele><time>2026-05-01T11:49:12Z</time></trkpt><trkpt lat="45.8811949368679" lon="13.2582997020067"><ele>14.0</ele><time>2026-05-01T11:49:15Z</time></trkpt><trkpt lat="45.88121406983848" lon="13.258395834404686"><ele>14.0</ele><time>2026-05-01T11:49:20Z</time></trkpt><trkpt lat="45.88123530607011" lon="13.258506623898887"><ele>14.0</ele><time>2026-05-01T11:49:24Z</time></trkpt><trkpt lat="45.881294937924054" lon="13.258568969883509"><ele>14.0</ele><time>2026-05-01T11:49:44Z</time></trkpt></trkseg><trkseg><trkpt lat="45.88131366969745" lon="13.258684836303711"><ele>14.000000000000002</ele><time>2026-05-01T12:39:25Z</time></trkpt><trkpt lat="45.8813632108965" lon="13.258760792469316"><ele>14.0</ele><time>2026-05-01T12:39:27Z</time></trkpt><trkpt lat="45.8814001202829" lon="13.258846696728087"><ele>14.0</ele><time>2026-05-01T12:39:29Z</time></trkpt><trkpt lat="45.881442174396284" lon="13.258934560555094"><ele>14.0</ele><time>2026-05-01T12:39:31Z</time></trkpt><trkpt lat="45.881484089988334" lon="13.25903364676712"><ele>14.000000000000002</ele><time>2026-05-01T12:39:33Z</time></trkpt><trkpt lat="45.88151836318141" lon="13.25914158909538"><ele>14.0</ele><time>2026-05-01T12:39:35Z</time></trkpt><trkpt lat="45.881569768372906" lon="13.259246666491398"><ele>14.2</ele><time>2026-05-01T12:39:37Z</time></trkpt><trkpt lat="45.88163405785862" lon="13.25934972230955"><ele>14.399999999999999</ele><time>2026-05-01T12:39:39Z</time></trkpt><trkpt lat="45.88168869940688" lon="13.259440330533337"><ele>14.6</ele><time>2026-05-01T12:39:41Z</time></trkpt><trkpt lat="45.881745244466096" lon="13.259561708026563"><ele>14.8</ele><time>2026-05-01T12:39:43Z</time></trkpt><trkpt lat="45.88181368862344" lon="13.259647878562442"><ele>15.0</ele><time>2026-05-01T12:39:45Z</time></trkpt><trkpt lat="45.88189202726673" lon="13.259739285509028"><ele>15.166666666666666</ele><time>2026-05-01T12:39:47Z</time></trkpt><trkpt lat="45.881985883823205" lon="13.259859185887896"><ele>15.333333333333332</ele><time>2026-05-01T12:39:49Z</time></trkpt><trkpt lat="45.882032269963105" lon="13.259937570834806"><ele>15.5</ele><time>2026-05-01T12:39:50Z</time></trkpt><trkpt lat="45.88208095153657" lon="13.260025211000567"><ele>15.666666666666666</ele><time>2026-05-01T12:39:51Z</time></trkpt><trkpt lat="45.88213408581448" lon="13.260126910139226"><ele>15.833333333333332</ele><time>2026-05-01T12:39:52Z</time></trkpt><trkpt lat="45.88218300102024" lon="13.260223041282226"><ele>16.0</ele><time>2026-05-01T12:39:53Z</time></trkpt><trkpt lat="45.88223684499855" lon="13.260318603506766"><ele>16.0</ele><time>2026-05-01T12:39:54Z</time></trkpt><trkpt lat="45.88229178897793" lon="13.260407314117215"><ele>16.0</ele><time>2026-05-01T12:39:55Z</time></trkpt><trkpt lat="45.88234819694754" lon="13.260509807285217"><ele>16.0</ele><time>2026-05-01T12:39:56Z</time></trkpt><trkpt lat="45.8824064099043" lon="13.260611681472529"><ele>16.0</ele><time>2026-05-01T12:39:57Z</time></trkpt><trkpt lat="45.882471965526264" lon="13.260709271343506"><ele>16.0</ele><time>2026-05-01T12:39:58Z</time></trkpt><trkpt lat="45.88254128775683" lon="13.2608141893472"><ele>15.75</ele><time>2026-05-01T12:39:59Z</time></trkpt><trkpt lat="45.88260956311775" lon="13.260929305605483"><ele>15.5</ele><time>2026-05-01T12:40:00Z</time></trkpt><trkpt lat="45.88268168517167" lon="13.261051810901376"><ele>15.25</ele><time>2026-05-01T12:40:01Z</time></trkpt><trkpt lat="45.88275366561352" lon="13.261187332170723"><ele>15.0</ele><time>2026-05-01T12:40:02Z</time></trkpt><trkpt lat="45.88283096019184" lon="13.261337697145262"><ele>15.5</ele><time>2026-05-01T12:40:03Z</time></trkpt><trkpt lat="45.88291180592609" lon="13.261497214283064"><ele>16.0</ele><time>2026-05-01T12:40:04Z</time></trkpt><trkpt lat="45.882990038023756" lon="13.261661864155307"><ele>16.5</ele><time>2026-05-01T12:40:05Z</time></trkpt><trkpt lat="45.883068503122715" lon="13.261829345172174"><ele>17.0</ele><time>2026-05-01T12:40:06Z</time></trkpt><trkpt lat="45.88315291723019" lon="13.262007673000735"><ele>17.0</ele><time>2026-05-01T12:40:07Z</time></trkpt><trkpt lat="45.88324364194171" lon="13.262194108020458"><ele>17.0</ele><time>2026-05-01T12:40:08Z</time></trkpt><trkpt lat="45.883340932312024" lon="13.262392464874537"><ele>17.0</ele><time>2026-05-01T12:40:09Z</time></trkpt><trkpt lat="45.8834362964207" lon="13.262583579440108"><ele>17.0</ele><time>2026-05-01T12:40:10Z</time></trkpt><trkpt lat="45.883532565624115" lon="13.262780100325555"><ele>17.0</ele><time>2026-05-01T12:40:11Z</time></trkpt><trkpt lat="45.88363147452381" lon="13.26298190715953"><ele>17.0</ele><time>2026-05-01T12:40:12Z</time></trkpt><trkpt lat="45.88373200754516" lon="13.263186704499748"><ele>17.0</ele><time>2026-05-01T12:40:13Z</time></trkpt><trkpt lat="45.883838425789236" lon="13.263393838972327"><ele>17.0</ele><time>2026-05-01T12:40:14Z</time></trkpt><trkpt lat="45.88394906580469" lon="13.263604387397116"><ele>17.0</ele><time>2026-05-01T12:40:15Z</time></trkpt><trkpt lat="45.88406305188044" lon="13.263820515417033"><ele>16.666666666666668</ele><time>2026-05-01T12:40:16Z</time></trkpt><trkpt lat="45.884176516541686" lon="13.264038994388786"><ele>16.333333333333332</ele><time>2026-05-01T12:40:17Z</time></trkpt><trkpt lat="45.884292077240296" lon="13.2642597582772"><ele>16.0</ele><time>2026-05-01T12:40:18Z</time></trkpt><trkpt lat="45.88440825328255" lon="13.264486151520654"><ele>16.0</ele><time>2026-05-01T12:40:19Z</time></trkpt><trkpt lat="45.88453148039805" lon="13.264714923184181"><ele>16.0</ele><time>2026-05-01T12:40:20Z</time></trkpt><trkpt lat="45.88465033862956" lon="13.264942543994549"><ele>16.0</ele><time>2026-05-01T12:40:21Z</time></trkpt><trkpt lat="45.88478038832679" lon="13.265174040562602"><ele>16.333333333333332</ele><time>2026-05-01T12:40:22Z</time></trkpt><trkpt lat="45.884910017997825" lon="13.265406713799765"><ele>16.666666666666668</ele><time>2026-05-01T12:40:23Z</time></trkpt><trkpt lat="45.885043066452" lon="13.26564689430022"><ele>17.0</ele><time>2026-05-01T12:40:24Z</time></trkpt><trkpt lat="45.88517940027027" lon="13.265891037297122"><ele>16.666666666666668</ele><time>2026-05-01T12:40:25Z</time></trkpt><trkpt lat="45.885318324013085" lon="13.266140121232777"><ele>16.333333333333332</ele><time>2026-05-01T12:40:26Z</time></trkpt><trkpt lat="45.88545603826221" lon="13.266398347446588"><ele>16.0</ele><time>2026-05-01T12:40:27Z</time></trkpt><trkpt lat="45.88559856606562" lon="13.266658291941042"><ele>16.0</ele><time>2026-05-01T12:40:28Z</time></trkpt><trkpt lat="45.88574774474442" lon="13.266924147133798"><ele>16.0</ele><time>2026-05-01T12:40:29Z</time></trkpt><trkpt lat="45.88589849359088" lon="13.267192151376674"><ele>17.0</ele><time>2026-05-01T12:40:30Z</time></trkpt><trkpt lat="45.88605142499399" lon="13.267465406243081"><ele>18.0</ele><time>2026-05-01T12:40:31Z</time></trkpt><trkpt lat="45.88619772262883" lon="13.267735618328732"><ele>18.0</ele><time>2026-05-01T12:40:32Z</time></trkpt><trkpt lat="45.88634145331745" lon="13.268021367358378"><ele>18.0</ele><time>2026-05-01T12:40:33Z</time></trkpt><trkpt lat="45.88649336066947" lon="13.268300984138417"><ele>18.0</ele><time>2026-05-01T12:40:34Z</time></trkpt><trkpt lat="45.886646523753164" lon="13.26858230242756"><ele>18.0</ele><time>2026-05-01T12:40:35Z</time></trkpt><trkpt lat="45.886799564607195" lon="13.26886437832867"><ele>17.5</ele><time>2026-05-01T12:40:36Z</time></trkpt><trkpt lat="45.88695310209928" lon="13.269150009739768"><ele>17.0</ele><time>2026-05-01T12:40:37Z</time></trkpt><trkpt lat="45.887108075249905" lon="13.269438617887955"><ele>17.0</ele><time>2026-05-01T12:40:38Z</time></trkpt><trkpt lat="45.887267226822324" lon="13.269733167210907"><ele>17.0</ele><time>2026-05-01T12:40:39Z</time></trkpt><trkpt lat="45.88742012156152" lon="13.270026365487704"><ele>17.0</ele><time>2026-05-01T12:40:40Z</time></trkpt><trkpt lat="45.88757372630827" lon="13.2703103565897"><ele>17.0</ele><time>2026-05-01T12:40:41Z</time></trkpt><trkpt lat="45.887725521273246" lon="13.270592851362977"><ele>17.5</ele><time>2026-05-01T12:40:42Z</time></trkpt><trkpt lat="45.88787932940548" lon="13.270872088479736"><ele>18.0</ele><time>2026-05-01T12:40:43Z</time></trkpt><trkpt lat="45.88803703980761" lon="13.271157066834977"><ele>18.5</ele><time>2026-05-01T12:40:44Z</time></trkpt><trkpt lat="45.88819253771607" lon="13.2714470279443"><ele>19.0</ele><time>2026-05-01T12:40:45Z</time></trkpt><trkpt lat="45.88834591964241" lon="13.271734148444326"><ele>18.5</ele><time>2026-05-01T12:40:46Z</time></trkpt><trkpt lat="45.88850127877395" lon="13.272026215815599"><ele>18.0</ele><time>2026-05-01T12:40:47Z</time></trkpt><trkpt lat="45.88865646457769" lon="13.272321641434878"><ele>18.0</ele><time>2026-05-01T12:40:48Z</time></trkpt><trkpt lat="45.88881645804323" lon="13.272618576826671"><ele>18.0</ele><time>2026-05-01T12:40:49Z</time></trkpt><trkpt lat="45.888974843487205" lon="13.272913680419869"><ele>18.0</ele><time>2026-05-01T12:40:50Z</time></trkpt><trkpt lat="45.889134151302564" lon="13.273211235619108"><ele>18.0</ele><time>2026-05-01T12:40:51Z</time></trkpt><trkpt lat="45.88929455172132" lon="13.273512298907386"><ele>18.0</ele><time>2026-05-01T12:40:52Z</time></trkpt><trkpt lat="45.889453498633095" lon="13.273813354147762"><ele>18.0</ele><time>2026-05-01T12:40:53Z</time></trkpt><trkpt lat="45.88961890586062" lon="13.274123060358091"><ele>18.0</ele><time>2026-05-01T12:40:54Z</time></trkpt><trkpt lat="45.88978145072363" lon="13.274427274614679"><ele>18.0</ele><time>2026-05-01T12:40:55Z</time></trkpt><trkpt lat="45.889932821316755" lon="13.274728055756539"><ele>18.0</ele><time>2026-05-01T12:40:56Z</time></trkpt><trkpt lat="45.89008762106569" lon="13.275029935949442"><ele>18.0</ele><time>2026-05-01T12:40:57Z</time></trkpt><trkpt lat="45.89024412929125" lon="13.275330197250133"><ele>17.5</ele><time>2026-05-01T12:40:58Z</time></trkpt><trkpt lat="45.890405052266864" lon="13.27563013662764"><ele>17.0</ele><time>2026-05-01T12:40:59Z</time></trkpt><trkpt lat="45.890566865103516" lon="13.275928570063469"><ele>17.0</ele><time>2026-05-01T12:41:00Z</time></trkpt><trkpt lat="45.89072536450779" lon="13.276229701578496"><ele>17.0</ele><time>2026-05-01T12:41:01Z</time></trkpt><trkpt lat="45.89088903721848" lon="13.276531574473188"><ele>17.5</ele><time>2026-05-01T12:41:02Z</time></trkpt><trkpt lat="45.891051250906095" lon="13.276833670300434"><ele>18.0</ele><time>2026-05-01T12:41:03Z</time></trkpt><trkpt lat="45.891212173320376" lon="13.27713546237853"><ele>18.5</ele><time>2026-05-01T12:41:04Z</time></trkpt><trkpt lat="45.89137579636571" lon="13.277437686540038"><ele>19.0</ele><time>2026-05-01T12:41:05Z</time></trkpt><trkpt lat="45.891538047167046" lon="13.277739467236824"><ele>19.0</ele><time>2026-05-01T12:41:06Z</time></trkpt><trkpt lat="45.89170139059764" lon="13.278041674934787"><ele>19.0</ele><time>2026-05-01T12:41:07Z</time></trkpt><trkpt lat="45.89186673986511" lon="13.278344099868038"><ele>18.5</ele><time>2026-05-01T12:41:08Z</time></trkpt><trkpt lat="45.892034833502535" lon="13.278648942226349"><ele>18.0</ele><time>2026-05-01T12:41:09Z</time></trkpt><trkpt lat="45.89220129801503" lon="13.278954122794156"><ele>18.0</ele><time>2026-05-01T12:41:10Z</time></trkpt><trkpt lat="45.89237171220863" lon="13.279258240001937"><ele>18.0</ele><time>2026-05-01T12:41:11Z</time></trkpt><trkpt lat="45.892541947062014" lon="13.279563577350359"><ele>19.5</ele><time>2026-05-01T12:41:12Z</time></trkpt><trkpt lat="45.892709752615204" lon="13.279867628501973"><ele>21.0</ele><time>2026-05-01T12:41:13Z</time></trkpt><trkpt lat="45.89288335093622" lon="13.280175308896535"><ele>21.0</ele><time>2026-05-01T12:41:14Z</time></trkpt><trkpt lat="45.89305710501234" lon="13.280482499352994"><ele>21.0</ele><time>2026-05-01T12:41:15Z</time></trkpt><trkpt lat="45.89323113245896" lon="13.280793441323114"><ele>21.0</ele><time>2026-05-01T12:41:16Z</time></trkpt><trkpt lat="45.89341018772998" lon="13.281106471504213"><ele>21.0</ele><time>2026-05-01T12:41:17Z</time></trkpt><trkpt lat="45.89358552359644" lon="13.281420128643385"><ele>22.0</ele><time>2026-05-01T12:41:18Z</time></trkpt><trkpt lat="45.89375870310014" lon="13.28173543130093"><ele>23.0</ele><time>2026-05-01T12:41:19Z</time></trkpt><trkpt lat="45.89393561317103" lon="13.282048351036998"><ele>22.5</ele><time>2026-05-01T12:41:20Z</time></trkpt><trkpt lat="45.89411156425574" lon="13.282362412869862"><ele>22.0</ele><time>2026-05-01T12:41:21Z</time></trkpt><trkpt lat="45.89428332130206" lon="13.282677532800182"><ele>22.0</ele><time>2026-05-01T12:41:22Z</time></trkpt><trkpt lat="45.894454661365614" lon="13.282995900713678"><ele>22.0</ele><time>2026-05-01T12:41:23Z</time></trkpt><trkpt lat="45.89462567668121" lon="13.283313778369699"><ele>22.0</ele><time>2026-05-01T12:41:24Z</time></trkpt><trkpt lat="45.894795519257336" lon="13.283627195741706"><ele>22.0</ele><time>2026-05-01T12:41:25Z</time></trkpt><trkpt lat="45.89496368513246" lon="13.283943131856201"><ele>24.5</ele><time>2026-05-01T12:41:26Z</time></trkpt><trkpt lat="45.89512291523707" lon="13.284258619469927"><ele>27.0</ele><time>2026-05-01T12:41:27Z</time></trkpt><trkpt lat="45.895276695897294" lon="13.284580717009275"><ele>25.0</ele><time>2026-05-01T12:41:28Z</time></trkpt><trkpt lat="45.89541882471999" lon="13.284912857594556"><ele>23.0</ele><time>2026-05-01T12:41:29Z</time></trkpt><trkpt lat="45.89555137099207" lon="13.285257319294413"><ele>22.0</ele><time>2026-05-01T12:41:30Z</time></trkpt><trkpt lat="45.8956767382679" lon="13.285611993005528"><ele>21.0</ele><time>2026-05-01T12:41:31Z</time></trkpt><trkpt lat="45.89578615449403" lon="13.28597643802631"><ele>21.0</ele><time>2026-05-01T12:41:32Z</time></trkpt><trkpt lat="45.89588434203402" lon="13.286349193829139"><ele>21.0</ele><time>2026-05-01T12:41:33Z</time></trkpt><trkpt lat="45.895967979236886" lon="13.286729282484595"><ele>22.0</ele><time>2026-05-01T12:41:34Z</time></trkpt><trkpt lat="45.89603662217875" lon="13.287113915716159"><ele>23.0</ele><time>2026-05-01T12:41:35Z</time></trkpt><trkpt lat="45.896093110565076" lon="13.287501517463035"><ele>23.0</ele><time>2026-05-01T12:41:36Z</time></trkpt><trkpt lat="45.896136091921534" lon="13.287888289483202"><ele>23.0</ele><time>2026-05-01T12:41:37Z</time></trkpt><trkpt lat="45.89616930076525" lon="13.288283097942054"><ele>23.0</ele><time>2026-05-01T12:41:38Z</time></trkpt><trkpt lat="45.89618785544058" lon="13.288672736035112"><ele>23.0</ele><time>2026-05-01T12:41:39Z</time></trkpt><trkpt lat="45.896195733565165" lon="13.2890607015431"><ele>22.5</ele><time>2026-05-01T12:41:40Z</time></trkpt><trkpt lat="45.89618855562091" lon="13.289444823751479"><ele>22.0</ele><time>2026-05-01T12:41:41Z</time></trkpt><trkpt lat="45.89616678677953" lon="13.289819760192307"><ele>23.0</ele><time>2026-05-01T12:41:42Z</time></trkpt><trkpt lat="45.8961320216246" lon="13.290195263201662"><ele>24.0</ele><time>2026-05-01T12:41:43Z</time></trkpt><trkpt lat="45.89609578175733" lon="13.290570564631553"><ele>24.0</ele><time>2026-05-01T12:41:44Z</time></trkpt><trkpt lat="45.8960531190129" lon="13.290941553401355"><ele>24.0</ele><time>2026-05-01T12:41:45Z</time></trkpt><trkpt lat="45.896008128176575" lon="13.291318710398528"><ele>23.0</ele><time>2026-05-01T12:41:46Z</time></trkpt><trkpt lat="45.89596132761333" lon="13.291698328517848"><ele>22.0</ele><time>2026-05-01T12:41:47Z</time></trkpt><trkpt lat="45.8959055771443" lon="13.292075482964608"><ele>22.0</ele><time>2026-05-01T12:41:48Z</time></trkpt><trkpt lat="45.89584414092236" lon="13.292456377227943"><ele>22.0</ele><time>2026-05-01T12:41:49Z</time></trkpt><trkpt lat="45.89577141750326" lon="13.29283535828788"><ele>21.5</ele><time>2026-05-01T12:41:50Z</time></trkpt><trkpt lat="45.89569362713311" lon="13.293218669274426"><ele>21.0</ele><time>2026-05-01T12:41:51Z</time></trkpt><trkpt lat="45.895610979244076" lon="13.293602475063402"><ele>21.5</ele><time>2026-05-01T12:41:52Z</time></trkpt><trkpt lat="45.89552508036547" lon="13.2939857206252"><ele>22.0</ele><time>2026-05-01T12:41:53Z</time></trkpt><trkpt lat="45.89543963026737" lon="13.294373397075297"><ele>22.5</ele><time>2026-05-01T12:41:54Z</time></trkpt><trkpt lat="45.89535291698839" lon="13.29476614202609"><ele>23.0</ele><time>2026-05-01T12:41:55Z</time></trkpt><trkpt lat="45.8952655724609" lon="13.295162717325393"><ele>23.0</ele><time>2026-05-01T12:41:56Z</time></trkpt><trkpt lat="45.895179066871" lon="13.295559985542093"><ele>23.0</ele><time>2026-05-01T12:41:57Z</time></trkpt><trkpt lat="45.89509147616414" lon="13.295956209558518"><ele>22.0</ele><time>2026-05-01T12:41:58Z</time></trkpt><trkpt lat="45.89500234937974" lon="13.296355262581699"><ele>21.0</ele><time>2026-05-01T12:41:59Z</time></trkpt><trkpt lat="45.89491634806873" lon="13.29675684394557"><ele>21.0</ele><time>2026-05-01T12:42:00Z</time></trkpt><trkpt lat="45.89482891242296" lon="13.297159626022037"><ele>21.0</ele><time>2026-05-01T12:42:01Z</time></trkpt><trkpt lat="45.89474025627045" lon="13.29756346823566"><ele>21.0</ele><time>2026-05-01T12:42:02Z</time></trkpt><trkpt lat="45.89465201250343" lon="13.297968448463367"><ele>21.0</ele><time>2026-05-01T12:42:03Z</time></trkpt><trkpt lat="45.89456463274515" lon="13.298376143633378"><ele>21.0</ele><time>2026-05-01T12:42:04Z</time></trkpt><trkpt lat="45.89447652322548" lon="13.298786360983557"><ele>21.0</ele><time>2026-05-01T12:42:05Z</time></trkpt><trkpt lat="45.89438746341665" lon="13.299199230569423"><ele>21.0</ele><time>2026-05-01T12:42:06Z</time></trkpt><trkpt lat="45.894297759853664" lon="13.299607844539098"><ele>21.0</ele><time>2026-05-01T12:42:07Z</time></trkpt><trkpt lat="45.89420717259503" lon="13.30002229301785"><ele>21.5</ele><time>2026-05-01T12:42:08Z</time></trkpt><trkpt lat="45.89411629733491" lon="13.300440621402437"><ele>22.0</ele><time>2026-05-01T12:42:09Z</time></trkpt><trkpt lat="45.89402537206937" lon="13.300858751135225"><ele>22.0</ele><time>2026-05-01T12:42:10Z</time></trkpt><trkpt lat="45.89393499028242" lon="13.301273591335507"><ele>22.0</ele><time>2026-05-01T12:42:11Z</time></trkpt><trkpt lat="45.89384649810226" lon="13.301692042772075"><ele>22.5</ele><time>2026-05-01T12:42:12Z</time></trkpt><trkpt lat="45.89375757250238" lon="13.302108515240377"><ele>23.0</ele><time>2026-05-01T12:42:13Z</time></trkpt><trkpt lat="45.89366625854362" lon="13.30252694360319"><ele>22.0</ele><time>2026-05-01T12:42:14Z</time></trkpt><trkpt lat="45.89357285001438" lon="13.302944239369218"><ele>21.0</ele><time>2026-05-01T12:42:15Z</time></trkpt><trkpt lat="45.89348021238559" lon="13.303364222021683"><ele>21.0</ele><time>2026-05-01T12:42:16Z</time></trkpt><trkpt lat="45.89338633461419" lon="13.303783026736618"><ele>21.0</ele><time>2026-05-01T12:42:17Z</time></trkpt><trkpt lat="45.89329383371164" lon="13.304208415178483"><ele>21.0</ele><time>2026-05-01T12:42:18Z</time></trkpt><trkpt lat="45.89320188438578" lon="13.304632137052288"><ele>21.0</ele><time>2026-05-01T12:42:19Z</time></trkpt><trkpt lat="45.89310908575591" lon="13.305053435764524"><ele>21.0</ele><time>2026-05-01T12:42:20Z</time></trkpt><trkpt lat="45.89301925228966" lon="13.30547710009576"><ele>21.0</ele><time>2026-05-01T12:42:21Z</time></trkpt><trkpt lat="45.892927383710756" lon="13.305902882901277"><ele>21.0</ele><time>2026-05-01T12:42:22Z</time></trkpt><trkpt lat="45.89283493211237" lon="13.306329743701305"><ele>21.0</ele><time>2026-05-01T12:42:23Z</time></trkpt><trkpt lat="45.89274038008654" lon="13.306764211630949"><ele>21.0</ele><time>2026-05-01T12:42:24Z</time></trkpt><trkpt lat="45.892645996535116" lon="13.307199416404819"><ele>21.0</ele><time>2026-05-01T12:42:25Z</time></trkpt><trkpt lat="45.89255092056549" lon="13.307640544520629"><ele>21.5</ele><time>2026-05-01T12:42:26Z</time></trkpt><trkpt lat="45.892454572490934" lon="13.30808311623919"><ele>22.0</ele><time>2026-05-01T12:42:27Z</time></trkpt><trkpt lat="45.8923565897567" lon="13.308526372140324"><ele>21.5</ele><time>2026-05-01T12:42:28Z</time></trkpt><trkpt lat="45.892259949552674" lon="13.308969694695683"><ele>21.0</ele><time>2026-05-01T12:42:29Z</time></trkpt><trkpt lat="45.892164396093236" lon="13.30941140876235"><ele>21.5</ele><time>2026-05-01T12:42:30Z</time></trkpt><trkpt lat="45.892068977432245" lon="13.30985346214929"><ele>22.0</ele><time>2026-05-01T12:42:31Z</time></trkpt><trkpt lat="45.89197247057754" lon="13.310298497346478"><ele>21.5</ele><time>2026-05-01T12:42:32Z</time></trkpt><trkpt lat="45.891874360885" lon="13.31074246776508"><ele>21.0</ele><time>2026-05-01T12:42:33Z</time></trkpt><trkpt lat="45.891776210184354" lon="13.311189707376355"><ele>21.5</ele><time>2026-05-01T12:42:34Z</time></trkpt><trkpt lat="45.89167979684758" lon="13.311634452004904"><ele>22.0</ele><time>2026-05-01T12:42:35Z</time></trkpt><trkpt lat="45.891583279782374" lon="13.31208203204993"><ele>22.5</ele><time>2026-05-01T12:42:36Z</time></trkpt><trkpt lat="45.89149110200641" lon="13.312531138046687"><ele>23.0</ele><time>2026-05-01T12:42:37Z</time></trkpt><trkpt lat="45.89139932647078" lon="13.312982405549116"><ele>21.0</ele><time>2026-05-01T12:42:38Z</time></trkpt><trkpt lat="45.89130671335745" lon="13.313435851838983"><ele>19.0</ele><time>2026-05-01T12:42:39Z</time></trkpt><trkpt lat="45.89121136439272" lon="13.31388739353671"><ele>18.0</ele><time>2026-05-01T12:42:40Z</time></trkpt><trkpt lat="45.89111258153178" lon="13.31434104295638"><ele>17.0</ele><time>2026-05-01T12:42:41Z</time></trkpt><trkpt lat="45.89101537870008" lon="13.314793009456235"><ele>18.5</ele><time>2026-05-01T12:42:42Z</time></trkpt><trkpt lat="45.890913330975415" lon="13.315245816041246"><ele>20.0</ele><time>2026-05-01T12:42:43Z</time></trkpt><trkpt lat="45.89080936441745" lon="13.315692477115986"><ele>21.0</ele><time>2026-05-01T12:42:44Z</time></trkpt><trkpt lat="45.89070029467086" lon="13.31614276626416"><ele>22.0</ele><time>2026-05-01T12:42:45Z</time></trkpt><trkpt lat="45.89059308771691" lon="13.316585357550913"><ele>22.0</ele><time>2026-05-01T12:42:46Z</time></trkpt><trkpt lat="45.890486385858125" lon="13.317026210902656"><ele>22.0</ele><time>2026-05-01T12:42:47Z</time></trkpt><trkpt lat="45.89037905659534" lon="13.317462153770968"><ele>22.0</ele><time>2026-05-01T12:42:48Z</time></trkpt><trkpt lat="45.89027168786562" lon="13.317892263410855"><ele>22.0</ele><time>2026-05-01T12:42:49Z</time></trkpt><trkpt lat="45.890166695698156" lon="13.31832072959956"><ele>20.0</ele><time>2026-05-01T12:42:50Z</time></trkpt><trkpt lat="45.890059767205805" lon="13.318751399053026"><ele>18.0</ele><time>2026-05-01T12:42:51Z</time></trkpt><trkpt lat="45.88995256274972" lon="13.319182379189247"><ele>18.0</ele><time>2026-05-01T12:42:52Z</time></trkpt><trkpt lat="45.88984557807867" lon="13.319614558997962"><ele>18.0</ele><time>2026-05-01T12:42:53Z</time></trkpt><trkpt lat="45.88973979865527" lon="13.320044622719424"><ele>18.0</ele><time>2026-05-01T12:42:54Z</time></trkpt><trkpt lat="45.88963264680677" lon="13.32047328223255"><ele>18.0</ele><time>2026-05-01T12:42:55Z</time></trkpt><trkpt lat="45.88952397917906" lon="13.32090273796027"><ele>18.0</ele><time>2026-05-01T12:42:56Z</time></trkpt><trkpt lat="45.889416734145655" lon="13.321332396422687"><ele>18.0</ele><time>2026-05-01T12:42:57Z</time></trkpt><trkpt lat="45.88930987540949" lon="13.321763734378836"><ele>18.0</ele><time>2026-05-01T12:42:58Z</time></trkpt><trkpt lat="45.88920220876797" lon="13.322197670305453"><ele>18.0</ele><time>2026-05-01T12:42:59Z</time></trkpt><trkpt lat="45.88909544625265" lon="13.3226311399894"><ele>19.0</ele><time>2026-05-01T12:43:00Z</time></trkpt><trkpt lat="45.88898815473748" lon="13.32307059011047"><ele>20.0</ele><time>2026-05-01T12:43:01Z</time></trkpt><trkpt lat="45.888880275450454" lon="13.323510096037667"><ele>20.0</ele><time>2026-05-01T12:43:02Z</time></trkpt><trkpt lat="45.88876887470694" lon="13.323951768486104"><ele>20.0</ele><time>2026-05-01T12:43:03Z</time></trkpt><trkpt lat="45.88865727622561" lon="13.324389214140043"><ele>20.5</ele><time>2026-05-01T12:43:04Z</time></trkpt><trkpt lat="45.888547624674956" lon="13.324826951057053"><ele>21.0</ele><time>2026-05-01T12:43:05Z</time></trkpt><trkpt lat="45.88843905946603" lon="13.32526723393545"><ele>22.0</ele><time>2026-05-01T12:43:06Z</time></trkpt><trkpt lat="45.88833079716873" lon="13.325707431052448"><ele>23.0</ele><time>2026-05-01T12:43:07Z</time></trkpt><trkpt lat="45.88822398528" lon="13.32614852928262"><ele>22.0</ele><time>2026-05-01T12:43:08Z</time></trkpt><trkpt lat="45.88811631914174" lon="13.326591022039953"><ele>21.0</ele><time>2026-05-01T12:43:09Z</time></trkpt><trkpt lat="45.88800879238815" lon="13.327028685843517"><ele>20.0</ele><time>2026-05-01T12:43:10Z</time></trkpt><trkpt lat="45.887901269667275" lon="13.327470102146115"><ele>19.0</ele><time>2026-05-01T12:43:11Z</time></trkpt><trkpt lat="45.887792297201564" lon="13.327913111159576"><ele>18.5</ele><time>2026-05-01T12:43:12Z</time></trkpt><trkpt lat="45.88768263713316" lon="13.328358160948055"><ele>18.0</ele><time>2026-05-01T12:43:13Z</time></trkpt><trkpt lat="45.8875722698836" lon="13.328804226637319"><ele>17.0</ele><time>2026-05-01T12:43:14Z</time></trkpt><trkpt lat="45.88745983341624" lon="13.329252240677743"><ele>16.0</ele><time>2026-05-01T12:43:15Z</time></trkpt><trkpt lat="45.88735070432687" lon="13.32969973264567"><ele>16.0</ele><time>2026-05-01T12:43:16Z</time></trkpt><trkpt lat="45.88724174229353" lon="13.330152765992304"><ele>16.0</ele><time>2026-05-01T12:43:17Z</time></trkpt><trkpt lat="45.887128447689214" lon="13.33060551191311"><ele>16.0</ele><time>2026-05-01T12:43:18Z</time></trkpt><trkpt lat="45.88701506838831" lon="13.331059652857475"><ele>16.0</ele><time>2026-05-01T12:43:19Z</time></trkpt><trkpt lat="45.886901162653686" lon="13.331513123642232"><ele>17.0</ele><time>2026-05-01T12:43:20Z</time></trkpt><trkpt lat="45.88678804766727" lon="13.331966062362847"><ele>18.0</ele><time>2026-05-01T12:43:21Z</time></trkpt><trkpt lat="45.88667472774937" lon="13.332420507227555"><ele>18.0</ele><time>2026-05-01T12:43:22Z</time></trkpt><trkpt lat="45.88656056773127" lon="13.332878001597654"><ele>18.0</ele><time>2026-05-01T12:43:23Z</time></trkpt><trkpt lat="45.886444870668136" lon="13.33334014884044"><ele>18.0</ele><time>2026-05-01T12:43:24Z</time></trkpt><trkpt lat="45.886328932952964" lon="13.333803176469244"><ele>18.0</ele><time>2026-05-01T12:43:25Z</time></trkpt><trkpt lat="45.88621474727175" lon="13.334264524816925"><ele>18.0</ele><time>2026-05-01T12:43:26Z</time></trkpt><trkpt lat="45.88610359777333" lon="13.334719240200466"><ele>18.0</ele><time>2026-05-01T12:43:27Z</time></trkpt><trkpt lat="45.885989946413744" lon="13.335176811431323"><ele>18.0</ele><time>2026-05-01T12:43:28Z</time></trkpt><trkpt lat="45.88587562318195" lon="13.335636669603979"><ele>18.0</ele><time>2026-05-01T12:43:29Z</time></trkpt><trkpt lat="45.885762353581775" lon="13.336098231131077"><ele>18.0</ele><time>2026-05-01T12:43:30Z</time></trkpt><trkpt lat="45.88565006646311" lon="13.336560992105497"><ele>18.0</ele><time>2026-05-01T12:43:31Z</time></trkpt><trkpt lat="45.88553590704828" lon="13.337024115213794"><ele>18.0</ele><time>2026-05-01T12:43:32Z</time></trkpt><trkpt lat="45.88542168527464" lon="13.337484357976939"><ele>18.0</ele><time>2026-05-01T12:43:33Z</time></trkpt><trkpt lat="45.885307521092976" lon="13.337943238419118"><ele>17.5</ele><time>2026-05-01T12:43:34Z</time></trkpt><trkpt lat="45.88519388848035" lon="13.33840373638638"><ele>17.0</ele><time>2026-05-01T12:43:35Z</time></trkpt><trkpt lat="45.88507965506527" lon="13.338865231525086"><ele>17.0</ele><time>2026-05-01T12:43:36Z</time></trkpt><trkpt lat="45.88496369481024" lon="13.339325188564873"><ele>17.0</ele><time>2026-05-01T12:43:37Z</time></trkpt><trkpt lat="45.88484854162599" lon="13.339786626224246"><ele>17.0</ele><time>2026-05-01T12:43:38Z</time></trkpt><trkpt lat="45.88473258226127" lon="13.340249938385613"><ele>17.0</ele><time>2026-05-01T12:43:39Z</time></trkpt><trkpt lat="45.88461680902101" lon="13.340713130726227"><ele>18.0</ele><time>2026-05-01T12:43:40Z</time></trkpt><trkpt lat="45.88449957297608" lon="13.341174019793876"><ele>19.0</ele><time>2026-05-01T12:43:41Z</time></trkpt><trkpt lat="45.88438136542507" lon="13.341636597373885"><ele>19.5</ele><time>2026-05-01T12:43:42Z</time></trkpt><trkpt lat="45.88426553541882" lon="13.342096545846728"><ele>20.0</ele><time>2026-05-01T12:43:43Z</time></trkpt><trkpt lat="45.884151888847484" lon="13.342559315673407"><ele>20.5</ele><time>2026-05-01T12:43:44Z</time></trkpt><trkpt lat="45.88404140652403" lon="13.343021729319947"><ele>21.0</ele><time>2026-05-01T12:43:45Z</time></trkpt><trkpt lat="45.88393092705379" lon="13.34348441274972"><ele>18.5</ele><time>2026-05-01T12:43:46Z</time></trkpt><trkpt lat="45.88381729116482" lon="13.343948105233014"><ele>16.0</ele><time>2026-05-01T12:43:47Z</time></trkpt><trkpt lat="45.883700868851435" lon="13.344409143040522"><ele>17.0</ele><time>2026-05-01T12:43:48Z</time></trkpt><trkpt lat="45.883584788276494" lon="13.344869677542082"><ele>18.0</ele><time>2026-05-01T12:43:49Z</time></trkpt><trkpt lat="45.88346904183496" lon="13.345331160030131"><ele>19.0</ele><time>2026-05-01T12:43:50Z</time></trkpt><trkpt lat="45.883351604123234" lon="13.345793756064444"><ele>20.0</ele><time>2026-05-01T12:43:51Z</time></trkpt><trkpt lat="45.88323200905979" lon="13.34625465087097"><ele>20.0</ele><time>2026-05-01T12:43:52Z</time></trkpt><trkpt lat="45.88311119020416" lon="13.346716327653002"><ele>20.0</ele><time>2026-05-01T12:43:53Z</time></trkpt><trkpt lat="45.88299120635999" lon="13.34717520032265"><ele>19.5</ele><time>2026-05-01T12:43:54Z</time></trkpt><trkpt lat="45.882873718406124" lon="13.347635696916559"><ele>19.0</ele><time>2026-05-01T12:43:55Z</time></trkpt><trkpt lat="45.882756825168364" lon="13.348098138555368"><ele>18.5</ele><time>2026-05-01T12:43:56Z</time></trkpt><trkpt lat="45.88264083539915" lon="13.348561474181405"><ele>18.0</ele><time>2026-05-01T12:43:57Z</time></trkpt><trkpt lat="45.88252621343563" lon="13.349024252909476"><ele>18.0</ele><time>2026-05-01T12:43:58Z</time></trkpt><trkpt lat="45.882411877513654" lon="13.349484911527826"><ele>18.0</ele><time>2026-05-01T12:43:59Z</time></trkpt><trkpt lat="45.88229777515124" lon="13.349946058139407"><ele>18.0</ele><time>2026-05-01T12:44:00Z</time></trkpt><trkpt lat="45.88218623129752" lon="13.350401189021861"><ele>18.0</ele><time>2026-05-01T12:44:01Z</time></trkpt><trkpt lat="45.882074096148756" lon="13.350866113073785"><ele>17.5</ele><time>2026-05-01T12:44:02Z</time></trkpt><trkpt lat="45.8819595617324" lon="13.351325719091763"><ele>17.0</ele><time>2026-05-01T12:44:03Z</time></trkpt><trkpt lat="45.88184244063623" lon="13.351787163984433"><ele>18.0</ele><time>2026-05-01T12:44:04Z</time></trkpt><trkpt lat="45.881724193322206" lon="13.352249696543858"><ele>19.0</ele><time>2026-05-01T12:44:05Z</time></trkpt><trkpt lat="45.88160782594843" lon="13.352712566924136"><ele>19.0</ele><time>2026-05-01T12:44:06Z</time></trkpt><trkpt lat="45.88149423753287" lon="13.353175211160945"><ele>19.0</ele><time>2026-05-01T12:44:07Z</time></trkpt><trkpt lat="45.88138038167359" lon="13.353639773577338"><ele>18.0</ele><time>2026-05-01T12:44:08Z</time></trkpt><trkpt lat="45.88126472724207" lon="13.354101647034973"><ele>17.0</ele><time>2026-05-01T12:44:09Z</time></trkpt><trkpt lat="45.881149136233624" lon="13.354564187188233"><ele>16.5</ele><time>2026-05-01T12:44:10Z</time></trkpt><trkpt lat="45.88103454137064" lon="13.355027530454734"><ele>16.0</ele><time>2026-05-01T12:44:11Z</time></trkpt><trkpt lat="45.88092218880525" lon="13.355489812147198"><ele>16.0</ele><time>2026-05-01T12:44:12Z</time></trkpt><trkpt lat="45.88080924000357" lon="13.355950928191213"><ele>16.0</ele><time>2026-05-01T12:44:13Z</time></trkpt><trkpt lat="45.88069458018141" lon="13.356412442152742"><ele>16.5</ele><time>2026-05-01T12:44:14Z</time></trkpt><trkpt lat="45.88058239197086" lon="13.356872904679484"><ele>17.0</ele><time>2026-05-01T12:44:15Z</time></trkpt><trkpt lat="45.88047002232544" lon="13.357331257184654"><ele>16.0</ele><time>2026-05-01T12:44:16Z</time></trkpt><trkpt lat="45.88035838603991" lon="13.357791962852453"><ele>15.0</ele><time>2026-05-01T12:44:17Z</time></trkpt><trkpt lat="45.88024249208047" lon="13.358250675611664"><ele>15.0</ele><time>2026-05-01T12:44:18Z</time></trkpt><trkpt lat="45.880127558749095" lon="13.358713017649821"><ele>15.0</ele><time>2026-05-01T12:44:19Z</time></trkpt><trkpt lat="45.88001335431125" lon="13.359174460505049"><ele>15.5</ele><time>2026-05-01T12:44:20Z</time></trkpt><trkpt lat="45.87989962109152" lon="13.359635153265842"><ele>16.0</ele><time>2026-05-01T12:44:21Z</time></trkpt><trkpt lat="45.87978486606971" lon="13.3600983812178"><ele>16.0</ele><time>2026-05-01T12:44:22Z</time></trkpt><trkpt lat="45.87966808811688" lon="13.360563378613074"><ele>16.0</ele><time>2026-05-01T12:44:23Z</time></trkpt><trkpt lat="45.879553043698735" lon="13.36102657821532"><ele>16.0</ele><time>2026-05-01T12:44:24Z</time></trkpt><trkpt lat="45.879439155398245" lon="13.36149048642667"><ele>16.0</ele><time>2026-05-01T12:44:25Z</time></trkpt><trkpt lat="45.87932482476373" lon="13.361952802154647"><ele>16.5</ele><time>2026-05-01T12:44:26Z</time></trkpt><trkpt lat="45.879210408211584" lon="13.362414725876507"><ele>17.0</ele><time>2026-05-01T12:44:27Z</time></trkpt><trkpt lat="45.8790964015929" lon="13.362878969248698"><ele>15.5</ele><time>2026-05-01T12:44:28Z</time></trkpt><trkpt lat="45.87898316716198" lon="13.363343641489069"><ele>14.0</ele><time>2026-05-01T12:44:29Z</time></trkpt><trkpt lat="45.878869501598324" lon="13.363803884149704"><ele>15.5</ele><time>2026-05-01T12:44:30Z</time></trkpt><trkpt lat="45.878756694418826" lon="13.364265196204201"><ele>17.0</ele><time>2026-05-01T12:44:31Z</time></trkpt><trkpt lat="45.87864791451547" lon="13.36472850565595"><ele>18.0</ele><time>2026-05-01T12:44:32Z</time></trkpt><trkpt lat="45.87853747475134" lon="13.365190852735552"><ele>19.0</ele><time>2026-05-01T12:44:33Z</time></trkpt><trkpt lat="45.8784262998692" lon="13.36564866360117"><ele>17.0</ele><time>2026-05-01T12:44:34Z</time></trkpt><trkpt lat="45.8783127509988" lon="13.366115672662449"><ele>15.0</ele><time>2026-05-01T12:44:35Z</time></trkpt><trkpt lat="45.87819632905898" lon="13.366580307239296"><ele>15.0</ele><time>2026-05-01T12:44:36Z</time></trkpt><trkpt lat="45.87808407870193" lon="13.367040415376236"><ele>15.0</ele><time>2026-05-01T12:44:37Z</time></trkpt><trkpt lat="45.87797051537101" lon="13.36750529306794"><ele>16.0</ele><time>2026-05-01T12:44:38Z</time></trkpt><trkpt lat="45.87785364751943" lon="13.367971323380523"><ele>17.0</ele><time>2026-05-01T12:44:39Z</time></trkpt><trkpt lat="45.877736662748354" lon="13.368433600002655"><ele>17.0</ele><time>2026-05-01T12:44:40Z</time></trkpt><trkpt lat="45.8776206061177" lon="13.368894550103771"><ele>17.0</ele><time>2026-05-01T12:44:41Z</time></trkpt><trkpt lat="45.877506561796864" lon="13.369356421600727"><ele>16.5</ele><time>2026-05-01T12:44:42Z</time></trkpt><trkpt lat="45.87739468717722" lon="13.369819711333797"><ele>16.0</ele><time>2026-05-01T12:44:43Z</time></trkpt><trkpt lat="45.87728486701017" lon="13.37028190311269"><ele>15.5</ele><time>2026-05-01T12:44:44Z</time></trkpt><trkpt lat="45.87716670844815" lon="13.370742187557942"><ele>15.0</ele><time>2026-05-01T12:44:45Z</time></trkpt><trkpt lat="45.877050091831755" lon="13.371205591671746"><ele>14.5</ele><time>2026-05-01T12:44:46Z</time></trkpt><trkpt lat="45.87693516890039" lon="13.37166921958564"><ele>14.0</ele><time>2026-05-01T12:44:47Z</time></trkpt><trkpt lat="45.8768216059627" lon="13.37212896858101"><ele>13.5</ele><time>2026-05-01T12:44:48Z</time></trkpt><trkpt lat="45.8767077145374" lon="13.372591980552066"><ele>13.0</ele><time>2026-05-01T12:44:49Z</time></trkpt><trkpt lat="45.87659243751296" lon="13.373054724443875"><ele>13.0</ele><time>2026-05-01T12:44:50Z</time></trkpt><trkpt lat="45.87647712254858" lon="13.373517279488679"><ele>13.0</ele><time>2026-05-01T12:44:51Z</time></trkpt><trkpt lat="45.87636076266443" lon="13.373978116152607"><ele>13.5</ele><time>2026-05-01T12:44:52Z</time></trkpt><trkpt lat="45.876246341413186" lon="13.374438487076237"><ele>14.0</ele><time>2026-05-01T12:44:53Z</time></trkpt><trkpt lat="45.8761318561531" lon="13.374897818974462"><ele>14.5</ele><time>2026-05-01T12:44:54Z</time></trkpt><trkpt lat="45.87601693891797" lon="13.375358765561119"><ele>15.0</ele><time>2026-05-01T12:44:55Z</time></trkpt><trkpt lat="45.875900258263606" lon="13.375820474309362"><ele>15.0</ele><time>2026-05-01T12:44:56Z</time></trkpt><trkpt lat="45.87578457526674" lon="13.37628264587283"><ele>15.0</ele><time>2026-05-01T12:44:57Z</time></trkpt><trkpt lat="45.87566968751455" lon="13.376745134843611"><ele>15.0</ele><time>2026-05-01T12:44:58Z</time></trkpt><trkpt lat="45.87555591319481" lon="13.377208287556366"><ele>15.0</ele><time>2026-05-01T12:44:59Z</time></trkpt><trkpt lat="45.875442772252406" lon="13.3776729571679"><ele>15.0</ele><time>2026-05-01T12:45:00Z</time></trkpt><trkpt lat="45.875327369697665" lon="13.378133873854772"><ele>15.0</ele><time>2026-05-01T12:45:01Z</time></trkpt><trkpt lat="45.87521372528181" lon="13.378595086435896"><ele>16.0</ele><time>2026-05-01T12:45:02Z</time></trkpt><trkpt lat="45.87509962581164" lon="13.379057785535904"><ele>17.0</ele><time>2026-05-01T12:45:03Z</time></trkpt><trkpt lat="45.87498395194493" lon="13.37951831093537"><ele>17.0</ele><time>2026-05-01T12:45:04Z</time></trkpt><trkpt lat="45.874867509633866" lon="13.37997879322906"><ele>17.0</ele><time>2026-05-01T12:45:05Z</time></trkpt><trkpt lat="45.87475216887922" lon="13.38043878798408"><ele>17.0</ele><time>2026-05-01T12:45:06Z</time></trkpt><trkpt lat="45.87463803153449" lon="13.380901930404017"><ele>17.0</ele><time>2026-05-01T12:45:07Z</time></trkpt><trkpt lat="45.874522921919215" lon="13.381364642487698"><ele>17.5</ele><time>2026-05-01T12:45:08Z</time></trkpt><trkpt lat="45.87440871941778" lon="13.381825550251385"><ele>18.0</ele><time>2026-05-01T12:45:09Z</time></trkpt><trkpt lat="45.87429279515337" lon="13.382286390993867"><ele>16.5</ele><time>2026-05-01T12:45:10Z</time></trkpt><trkpt lat="45.87417837999742" lon="13.382747347421157"><ele>15.0</ele><time>2026-05-01T12:45:11Z</time></trkpt><trkpt lat="45.87406403367714" lon="13.383215006238096"><ele>15.0</ele><time>2026-05-01T12:45:12Z</time></trkpt><trkpt lat="45.873948390172664" lon="13.383676188772087"><ele>15.0</ele><time>2026-05-01T12:45:13Z</time></trkpt><trkpt lat="45.873833272630456" lon="13.384139219436225"><ele>15.5</ele><time>2026-05-01T12:45:14Z</time></trkpt><trkpt lat="45.873717737184144" lon="13.384602816852997"><ele>16.0</ele><time>2026-05-01T12:45:15Z</time></trkpt><trkpt lat="45.87360437266349" lon="13.385063497287387"><ele>15.5</ele><time>2026-05-01T12:45:16Z</time></trkpt><trkpt lat="45.87349206732046" lon="13.385526311936172"><ele>15.0</ele><time>2026-05-01T12:45:17Z</time></trkpt><trkpt lat="45.87338005890909" lon="13.385989514171667"><ele>15.0</ele><time>2026-05-01T12:45:18Z</time></trkpt><trkpt lat="45.87326534221233" lon="13.38644792315297"><ele>15.0</ele><time>2026-05-01T12:45:19Z</time></trkpt><trkpt lat="45.873148486444045" lon="13.386908231108515"><ele>15.5</ele><time>2026-05-01T12:45:20Z</time></trkpt><trkpt lat="45.87303403857315" lon="13.3873715433052"><ele>16.0</ele><time>2026-05-01T12:45:21Z</time></trkpt><trkpt lat="45.872919284268995" lon="13.3878351397651"><ele>17.0</ele><time>2026-05-01T12:45:22Z</time></trkpt><trkpt lat="45.87280343097858" lon="13.388299164641515"><ele>18.0</ele><time>2026-05-01T12:45:23Z</time></trkpt><trkpt lat="45.87268864529677" lon="13.388761086946635"><ele>16.5</ele><time>2026-05-01T12:45:24Z</time></trkpt><trkpt lat="45.8725740667245" lon="13.389224058188201"><ele>15.0</ele><time>2026-05-01T12:45:25Z</time></trkpt><trkpt lat="45.87246007450457" lon="13.389686912130538"><ele>15.0</ele><time>2026-05-01T12:45:26Z</time></trkpt><trkpt lat="45.872344690079295" lon="13.390151162093566"><ele>15.0</ele><time>2026-05-01T12:45:27Z</time></trkpt><trkpt lat="45.872229445482844" lon="13.39061141684069"><ele>16.0</ele><time>2026-05-01T12:45:28Z</time></trkpt><trkpt lat="45.872112436201355" lon="13.391075921557517"><ele>17.0</ele><time>2026-05-01T12:45:29Z</time></trkpt><trkpt lat="45.87199311220341" lon="13.391537850837409"><ele>17.0</ele><time>2026-05-01T12:45:30Z</time></trkpt><trkpt lat="45.87187221011235" lon="13.391998937085434"><ele>17.0</ele><time>2026-05-01T12:45:31Z</time></trkpt><trkpt lat="45.87175166475064" lon="13.392458607360709"><ele>16.5</ele><time>2026-05-01T12:45:32Z</time></trkpt><trkpt lat="45.87163209131825" lon="13.39291697342393"><ele>16.0</ele><time>2026-05-01T12:45:33Z</time></trkpt><trkpt lat="45.87151427309011" lon="13.39337690744224"><ele>15.5</ele><time>2026-05-01T12:45:34Z</time></trkpt><trkpt lat="45.8713982335269" lon="13.393838928975816"><ele>15.0</ele><time>2026-05-01T12:45:35Z</time></trkpt><trkpt lat="45.87128167914978" lon="13.39430100403389"><ele>14.5</ele><time>2026-05-01T12:45:36Z</time></trkpt><trkpt lat="45.871165692284166" lon="13.39476566663917"><ele>14.0</ele><time>2026-05-01T12:45:37Z</time></trkpt><trkpt lat="45.87104979736611" lon="13.395228116803272"><ele>14.5</ele><time>2026-05-01T12:45:38Z</time></trkpt><trkpt lat="45.870933247360355" lon="13.39569054755734"><ele>15.0</ele><time>2026-05-01T12:45:39Z</time></trkpt><trkpt lat="45.870816864884134" lon="13.396152354296008"><ele>14.5</ele><time>2026-05-01T12:45:40Z</time></trkpt><trkpt lat="45.87070146274815" lon="13.396614937716524"><ele>14.0</ele><time>2026-05-01T12:45:41Z</time></trkpt><trkpt lat="45.87058654870105" lon="13.397076092336487"><ele>14.5</ele><time>2026-05-01T12:45:42Z</time></trkpt><trkpt lat="45.8704719827611" lon="13.397538921786515"><ele>15.0</ele><time>2026-05-01T12:45:43Z</time></trkpt><trkpt lat="45.87035582963565" lon="13.397999756513416"><ele>15.0</ele><time>2026-05-01T12:45:44Z</time></trkpt><trkpt lat="45.87023751867688" lon="13.398460634143358"><ele>15.0</ele><time>2026-05-01T12:45:45Z</time></trkpt><trkpt lat="45.870115210570695" lon="13.398916418236745"><ele>15.0</ele><time>2026-05-01T12:45:46Z</time></trkpt><trkpt lat="45.869987800128115" lon="13.399369101290986"><ele>15.0</ele><time>2026-05-01T12:45:47Z</time></trkpt><trkpt lat="45.86985302570817" lon="13.399818888407069"><ele>15.5</ele><time>2026-05-01T12:45:48Z</time></trkpt><trkpt lat="45.86971061296621" lon="13.400263062669769"><ele>16.0</ele><time>2026-05-01T12:45:49Z</time></trkpt><trkpt lat="45.86956187134189" lon="13.40070320025655"><ele>16.0</ele><time>2026-05-01T12:45:50Z</time></trkpt><trkpt lat="45.86941151921351" lon="13.401135075962141"><ele>16.0</ele><time>2026-05-01T12:45:51Z</time></trkpt><trkpt lat="45.86925064581745" lon="13.401569016106881"><ele>16.0</ele><time>2026-05-01T12:45:52Z</time></trkpt><trkpt lat="45.86908586135532" lon="13.401997748366506"><ele>16.0</ele><time>2026-05-01T12:45:53Z</time></trkpt><trkpt lat="45.868916478925826" lon="13.40242329977236"><ele>15.0</ele><time>2026-05-01T12:45:54Z</time></trkpt><trkpt lat="45.868744704113766" lon="13.40284610665953"><ele>14.0</ele><time>2026-05-01T12:45:55Z</time></trkpt><trkpt lat="45.8685712617128" lon="13.40327178814279"><ele>14.0</ele><time>2026-05-01T12:45:56Z</time></trkpt><trkpt lat="45.86839688557086" lon="13.403695689368014"><ele>14.0</ele><time>2026-05-01T12:45:57Z</time></trkpt><trkpt lat="45.86822343171937" lon="13.404118904135002"><ele>14.0</ele><time>2026-05-01T12:45:58Z</time></trkpt><trkpt lat="45.86804964142562" lon="13.404543320191138"><ele>14.0</ele><time>2026-05-01T12:45:59Z</time></trkpt><trkpt lat="45.86787444498338" lon="13.40496705045831"><ele>14.0</ele><time>2026-05-01T12:46:00Z</time></trkpt><trkpt lat="45.86769898381619" lon="13.405388420497072"><ele>14.0</ele><time>2026-05-01T12:46:01Z</time></trkpt><trkpt lat="45.867523065005265" lon="13.405812149575846"><ele>14.0</ele><time>2026-05-01T12:46:02Z</time></trkpt><trkpt lat="45.86735028297401" lon="13.406236608945184"><ele>14.0</ele><time>2026-05-01T12:46:03Z</time></trkpt><trkpt lat="45.867182264812946" lon="13.406659617581866"><ele>14.5</ele><time>2026-05-01T12:46:04Z</time></trkpt><trkpt lat="45.8670168349682" lon="13.407087694171391"><ele>15.0</ele><time>2026-05-01T12:46:05Z</time></trkpt><trkpt lat="45.86685393481855" lon="13.407516202699595"><ele>15.5</ele><time>2026-05-01T12:46:06Z</time></trkpt><trkpt lat="45.86668699139444" lon="13.40794503641609"><ele>16.0</ele><time>2026-05-01T12:46:07Z</time></trkpt><trkpt lat="45.86651931769067" lon="13.408372337761493"><ele>16.5</ele><time>2026-05-01T12:46:08Z</time></trkpt><trkpt lat="45.866348589255395" lon="13.408795703069124"><ele>17.0</ele><time>2026-05-01T12:46:09Z</time></trkpt><trkpt lat="45.86617648804018" lon="13.409220803399238"><ele>16.5</ele><time>2026-05-01T12:46:10Z</time></trkpt><trkpt lat="45.866003471877406" lon="13.409643746174332"><ele>16.0</ele><time>2026-05-01T12:46:11Z</time></trkpt><trkpt lat="45.86583090663974" lon="13.41006843765282"><ele>16.0</ele><time>2026-05-01T12:46:12Z</time></trkpt><trkpt lat="45.86565683188754" lon="13.410491196364854"><ele>16.0</ele><time>2026-05-01T12:46:13Z</time></trkpt><trkpt lat="45.865483121295306" lon="13.410912971692115"><ele>17.0</ele><time>2026-05-01T12:46:14Z</time></trkpt><trkpt lat="45.865308026934" lon="13.411334686530699"><ele>18.0</ele><time>2026-05-01T12:46:15Z</time></trkpt><trkpt lat="45.86513199141908" lon="13.411760934721201"><ele>16.5</ele><time>2026-05-01T12:46:16Z</time></trkpt><trkpt lat="45.864956663049625" lon="13.412184970596707"><ele>15.0</ele><time>2026-05-01T12:46:17Z</time></trkpt><trkpt lat="45.864782600823574" lon="13.412611963843142"><ele>13.0</ele><time>2026-05-01T12:46:18Z</time></trkpt><trkpt lat="45.864608546397875" lon="13.413036736782859"><ele>11.0</ele><time>2026-05-01T12:46:19Z</time></trkpt><trkpt lat="45.86443357233718" lon="13.413460650240205"><ele>12.5</ele><time>2026-05-01T12:46:20Z</time></trkpt><trkpt lat="45.86425978033702" lon="13.413886874938362"><ele>14.0</ele><time>2026-05-01T12:46:21Z</time></trkpt><trkpt lat="45.86408461371643" lon="13.414311138257442"><ele>14.0</ele><time>2026-05-01T12:46:22Z</time></trkpt><trkpt lat="45.863910155573826" lon="13.41473598009065"><ele>14.0</ele><time>2026-05-01T12:46:23Z</time></trkpt><trkpt lat="45.86373630847709" lon="13.415156633986847"><ele>15.0</ele><time>2026-05-01T12:46:24Z</time></trkpt><trkpt lat="45.863563030907656" lon="13.415577687023163"><ele>16.0</ele><time>2026-05-01T12:46:25Z</time></trkpt><trkpt lat="45.863389558424494" lon="13.416000686205868"><ele>15.5</ele><time>2026-05-01T12:46:26Z</time></trkpt><trkpt lat="45.863216722510984" lon="13.416423433604553"><ele>15.0</ele><time>2026-05-01T12:46:27Z</time></trkpt><trkpt lat="45.863041167187085" lon="13.416844378760292"><ele>14.5</ele><time>2026-05-01T12:46:28Z</time></trkpt><trkpt lat="45.86286605206062" lon="13.417268248438672"><ele>14.0</ele><time>2026-05-01T12:46:29Z</time></trkpt><trkpt lat="45.86269207673059" lon="13.417689822272758"><ele>14.5</ele><time>2026-05-01T12:46:30Z</time></trkpt><trkpt lat="45.86251888044583" lon="13.41811383958732"><ele>15.0</ele><time>2026-05-01T12:46:31Z</time></trkpt><trkpt lat="45.862344974303596" lon="13.418536900352818"><ele>15.5</ele><time>2026-05-01T12:46:32Z</time></trkpt><trkpt lat="45.86217073868572" lon="13.418960685656051"><ele>16.0</ele><time>2026-05-01T12:46:33Z</time></trkpt><trkpt lat="45.86199486717474" lon="13.41938053034809"><ele>16.0</ele><time>2026-05-01T12:46:34Z</time></trkpt><trkpt lat="45.86181888833783" lon="13.419798110652433"><ele>16.0</ele><time>2026-05-01T12:46:35Z</time></trkpt><trkpt lat="45.86164227142568" lon="13.420216256228839"><ele>16.0</ele><time>2026-05-01T12:46:36Z</time></trkpt><trkpt lat="45.86146569034331" lon="13.420635037278561"><ele>16.0</ele><time>2026-05-01T12:46:37Z</time></trkpt><trkpt lat="45.86128889212879" lon="13.42105235931455"><ele>16.5</ele><time>2026-05-01T12:46:38Z</time></trkpt><trkpt lat="45.861108252285156" lon="13.421469882781984"><ele>17.0</ele><time>2026-05-01T12:46:39Z</time></trkpt><trkpt lat="45.86092452253212" lon="13.421884498368629"><ele>18.0</ele><time>2026-05-01T12:46:40Z</time></trkpt><trkpt lat="45.86074023874282" lon="13.422297056017962"><ele>19.0</ele><time>2026-05-01T12:46:41Z</time></trkpt><trkpt lat="45.86055653842838" lon="13.422713087447638"><ele>16.5</ele><time>2026-05-01T12:46:42Z</time></trkpt><trkpt lat="45.86037645846013" lon="13.423132598573265"><ele>14.0</ele><time>2026-05-01T12:46:43Z</time></trkpt><trkpt lat="45.86019633091993" lon="13.423551852232185"><ele>14.5</ele><time>2026-05-01T12:46:44Z</time></trkpt><trkpt lat="45.860019218032775" lon="13.423973736470883"><ele>15.0</ele><time>2026-05-01T12:46:45Z</time></trkpt><trkpt lat="45.859844356834415" lon="13.424396534172372"><ele>15.0</ele><time>2026-05-01T12:46:46Z</time></trkpt><trkpt lat="45.85967081575363" lon="13.424822391680257"><ele>15.0</ele><time>2026-05-01T12:46:47Z</time></trkpt><trkpt lat="45.85949955047267" lon="13.425248681527206"><ele>15.0</ele><time>2026-05-01T12:46:48Z</time></trkpt><trkpt lat="45.859328060910904" lon="13.425673462587042"><ele>15.0</ele><time>2026-05-01T12:46:49Z</time></trkpt><trkpt lat="45.85915451257858" lon="13.426095724061327"><ele>15.0</ele><time>2026-05-01T12:46:50Z</time></trkpt><trkpt lat="45.85898005847401" lon="13.42651704103051"><ele>15.0</ele><time>2026-05-01T12:46:51Z</time></trkpt><trkpt lat="45.85880617355252" lon="13.426937880640404"><ele>15.5</ele><time>2026-05-01T12:46:52Z</time></trkpt><trkpt lat="45.85862988398747" lon="13.427361368639245"><ele>16.0</ele><time>2026-05-01T12:46:53Z</time></trkpt><trkpt lat="45.85845171468885" lon="13.427788223909312"><ele>15.0</ele><time>2026-05-01T12:46:54Z</time></trkpt><trkpt lat="45.85827512552327" lon="13.428209661789174"><ele>14.0</ele><time>2026-05-01T12:46:55Z</time></trkpt><trkpt lat="45.85809936057907" lon="13.428630580204223"><ele>14.5</ele><time>2026-05-01T12:46:56Z</time></trkpt><trkpt lat="45.85792593929898" lon="13.429050604287717"><ele>15.0</ele><time>2026-05-01T12:46:57Z</time></trkpt><trkpt lat="45.85775020098932" lon="13.429469000725371"><ele>15.0</ele><time>2026-05-01T12:46:58Z</time></trkpt><trkpt lat="45.857575265331114" lon="13.42988897025507"><ele>15.0</ele><time>2026-05-01T12:46:59Z</time></trkpt><trkpt lat="45.85739826193474" lon="13.43030742850616"><ele>15.5</ele><time>2026-05-01T12:47:00Z</time></trkpt><trkpt lat="45.85722371635733" lon="13.430725323582628"><ele>16.0</ele><time>2026-05-01T12:47:01Z</time></trkpt><trkpt lat="45.85704992175499" lon="13.431146414672723"><ele>15.5</ele><time>2026-05-01T12:47:02Z</time></trkpt><trkpt lat="45.85687819890448" lon="13.431567648451061"><ele>15.0</ele><time>2026-05-01T12:47:03Z</time></trkpt><trkpt lat="45.856710051335824" lon="13.43199411852392"><ele>14.0</ele><time>2026-05-01T12:47:04Z</time></trkpt><trkpt lat="45.85654680490948" lon="13.432425975551947"><ele>13.0</ele><time>2026-05-01T12:47:05Z</time></trkpt><trkpt lat="45.85639229784869" lon="13.432863325159525"><ele>13.0</ele><time>2026-05-01T12:47:06Z</time></trkpt><trkpt lat="45.8562472952166" lon="13.433304998682841"><ele>13.0</ele><time>2026-05-01T12:47:07Z</time></trkpt><trkpt lat="45.85611015302202" lon="13.433753981233929"><ele>13.0</ele><time>2026-05-01T12:47:08Z</time></trkpt><trkpt lat="45.85598331204075" lon="13.434204985872421"><ele>13.0</ele><time>2026-05-01T12:47:09Z</time></trkpt><trkpt lat="45.85586244783935" lon="13.434662701531982"><ele>13.0</ele><time>2026-05-01T12:47:10Z</time></trkpt><trkpt lat="45.85574973343478" lon="13.435126288192686"><ele>13.0</ele><time>2026-05-01T12:47:11Z</time></trkpt><trkpt lat="45.8556458089622" lon="13.435587914402213"><ele>13.5</ele><time>2026-05-01T12:47:12Z</time></trkpt><trkpt lat="45.85554826817988" lon="13.4360582366666"><ele>14.0</ele><time>2026-05-01T12:47:13Z</time></trkpt><trkpt lat="45.85545844626422" lon="13.43653052524474"><ele>13.5</ele><time>2026-05-01T12:47:14Z</time></trkpt><trkpt lat="45.855375319554675" lon="13.437005021576185"><ele>13.0</ele><time>2026-05-01T12:47:15Z</time></trkpt><trkpt lat="45.855299721433084" lon="13.437483329855747"><ele>13.0</ele><time>2026-05-01T12:47:16Z</time></trkpt><trkpt lat="45.855228295999865" lon="13.43796453122437"><ele>13.0</ele><time>2026-05-01T12:47:17Z</time></trkpt><trkpt lat="45.855157359438984" lon="13.43844429154176"><ele>13.0</ele><time>2026-05-01T12:47:18Z</time></trkpt><trkpt lat="45.85508462388581" lon="13.438921555681581"><ele>13.0</ele><time>2026-05-01T12:47:19Z</time></trkpt><trkpt lat="45.855010141915386" lon="13.439399500590211"><ele>12.5</ele><time>2026-05-01T12:47:20Z</time></trkpt><trkpt lat="45.85493276057998" lon="13.439878826714024"><ele>12.0</ele><time>2026-05-01T12:47:21Z</time></trkpt><trkpt lat="45.85485671415587" lon="13.440357153596034"><ele>12.0</ele><time>2026-05-01T12:47:22Z</time></trkpt><trkpt lat="45.85478531154955" lon="13.440838327012752"><ele>12.0</ele><time>2026-05-01T12:47:23Z</time></trkpt><trkpt lat="45.854714742910275" lon="13.441319188417701"><ele>12.0</ele><time>2026-05-01T12:47:24Z</time></trkpt><trkpt lat="45.85464478024521" lon="13.441798834411577"><ele>12.0</ele><time>2026-05-01T12:47:25Z</time></trkpt><trkpt lat="45.854577616477194" lon="13.442279420739784"><ele>12.5</ele><time>2026-05-01T12:47:26Z</time></trkpt><trkpt lat="45.85451160999401" lon="13.442760208015555"><ele>13.0</ele><time>2026-05-01T12:47:27Z</time></trkpt><trkpt lat="45.854447795030616" lon="13.443241528811914"><ele>13.0</ele><time>2026-05-01T12:47:28Z</time></trkpt><trkpt lat="45.854382899922335" lon="13.44372249502601"><ele>13.0</ele><time>2026-05-01T12:47:29Z</time></trkpt><trkpt lat="45.85431737550703" lon="13.444202295574152"><ele>14.0</ele><time>2026-05-01T12:47:30Z</time></trkpt><trkpt lat="45.85425134246241" lon="13.444681453873374"><ele>15.0</ele><time>2026-05-01T12:47:31Z</time></trkpt><trkpt lat="45.854188285522795" lon="13.445162913443106"><ele>15.0</ele><time>2026-05-01T12:47:32Z</time></trkpt><trkpt lat="45.85412839140605" lon="13.445645164491639"><ele>15.0</ele><time>2026-05-01T12:47:33Z</time></trkpt><trkpt lat="45.85406921416738" lon="13.446126776883423"><ele>15.0</ele><time>2026-05-01T12:47:34Z</time></trkpt><trkpt lat="45.854007819530786" lon="13.446608673802604"><ele>15.0</ele><time>2026-05-01T12:47:35Z</time></trkpt><trkpt lat="45.8539415232208" lon="13.447089936600253"><ele>15.0</ele><time>2026-05-01T12:47:36Z</time></trkpt><trkpt lat="45.85386996020598" lon="13.44756964096261"><ele>15.0</ele><time>2026-05-01T12:47:37Z</time></trkpt><trkpt lat="45.85379755676322" lon="13.448049922423872"><ele>15.0</ele><time>2026-05-01T12:47:38Z</time></trkpt><trkpt lat="45.85372527424633" lon="13.448529946934178"><ele>15.0</ele><time>2026-05-01T12:47:39Z</time></trkpt><trkpt lat="45.85365586477068" lon="13.449009645303086"><ele>15.0</ele><time>2026-05-01T12:47:40Z</time></trkpt><trkpt lat="45.85358377205526" lon="13.449493991541294"><ele>15.0</ele><time>2026-05-01T12:47:41Z</time></trkpt><trkpt lat="45.85351020833943" lon="13.44997522838266"><ele>15.0</ele><time>2026-05-01T12:47:42Z</time></trkpt><trkpt lat="45.85343755943332" lon="13.450455879854934"><ele>15.0</ele><time>2026-05-01T12:47:43Z</time></trkpt><trkpt lat="45.85336428941673" lon="13.450935837357148"><ele>15.0</ele><time>2026-05-01T12:47:44Z</time></trkpt><trkpt lat="45.85329279006064" lon="13.451416343561966"><ele>15.0</ele><time>2026-05-01T12:47:45Z</time></trkpt><trkpt lat="45.85322064499584" lon="13.451897450839219"><ele>14.5</ele><time>2026-05-01T12:47:46Z</time></trkpt><trkpt lat="45.85314864242689" lon="13.45237774652208"><ele>14.0</ele><time>2026-05-01T12:47:47Z</time></trkpt><trkpt lat="45.8530785001958" lon="13.452858295496583"><ele>13.5</ele><time>2026-05-01T12:47:48Z</time></trkpt><trkpt lat="45.853006370586016" lon="13.4533370772725"><ele>13.0</ele><time>2026-05-01T12:47:49Z</time></trkpt><trkpt lat="45.85293247258335" lon="13.453816093319002"><ele>13.0</ele><time>2026-05-01T12:47:50Z</time></trkpt><trkpt lat="45.852857113702676" lon="13.45429613742444"><ele>13.0</ele><time>2026-05-01T12:47:51Z</time></trkpt><trkpt lat="45.852783905336565" lon="13.454776867571262"><ele>13.5</ele><time>2026-05-01T12:47:52Z</time></trkpt><trkpt lat="45.8527095267396" lon="13.455255816664298"><ele>14.0</ele><time>2026-05-01T12:47:53Z</time></trkpt><trkpt lat="45.85263640314307" lon="13.455735133472174"><ele>14.5</ele><time>2026-05-01T12:47:54Z</time></trkpt><trkpt lat="45.852563032225454" lon="13.456213559857018"><ele>15.0</ele><time>2026-05-01T12:47:55Z</time></trkpt><trkpt lat="45.8524882032876" lon="13.456688930839453"><ele>15.5</ele><time>2026-05-01T12:47:56Z</time></trkpt><trkpt lat="45.85241225470461" lon="13.45716801190014"><ele>16.0</ele><time>2026-05-01T12:47:57Z</time></trkpt><trkpt lat="45.85233014547533" lon="13.457646553482478"><ele>16.0</ele><time>2026-05-01T12:47:58Z</time></trkpt><trkpt lat="45.85224530395276" lon="13.458122760066386"><ele>16.0</ele><time>2026-05-01T12:47:59Z</time></trkpt><trkpt lat="45.85215626695355" lon="13.458594937631435"><ele>16.0</ele><time>2026-05-01T12:48:00Z</time></trkpt><trkpt lat="45.85206045107901" lon="13.459063948588518"><ele>16.0</ele><time>2026-05-01T12:48:01Z</time></trkpt><trkpt lat="45.851955657500845" lon="13.459531844672155"><ele>16.0</ele><time>2026-05-01T12:48:02Z</time></trkpt><trkpt lat="45.85184415436762" lon="13.459994437537148"><ele>16.0</ele><time>2026-05-01T12:48:03Z</time></trkpt><trkpt lat="45.851725310029614" lon="13.460453067624114"><ele>16.0</ele><time>2026-05-01T12:48:04Z</time></trkpt><trkpt lat="45.85160021108137" lon="13.46090808486297"><ele>16.0</ele><time>2026-05-01T12:48:05Z</time></trkpt><trkpt lat="45.85146684694399" lon="13.461360052666045"><ele>16.5</ele><time>2026-05-01T12:48:06Z</time></trkpt><trkpt lat="45.8513275276989" lon="13.461810631485292"><ele>17.0</ele><time>2026-05-01T12:48:07Z</time></trkpt><trkpt lat="45.85118148056699" lon="13.462254596989387"><ele>16.5</ele><time>2026-05-01T12:48:08Z</time></trkpt><trkpt lat="45.851025757298444" lon="13.462693254646275"><ele>16.0</ele><time>2026-05-01T12:48:09Z</time></trkpt><trkpt lat="45.85086258081302" lon="13.463125696055792"><ele>16.0</ele><time>2026-05-01T12:48:10Z</time></trkpt><trkpt lat="45.85069551047979" lon="13.463554548293262"><ele>16.0</ele><time>2026-05-01T12:48:11Z</time></trkpt><trkpt lat="45.850522568417446" lon="13.463978113756694"><ele>16.0</ele><time>2026-05-01T12:48:12Z</time></trkpt><trkpt lat="45.85035034054393" lon="13.464397513981357"><ele>16.0</ele><time>2026-05-01T12:48:13Z</time></trkpt><trkpt lat="45.85017718924954" lon="13.46481613552724"><ele>15.5</ele><time>2026-05-01T12:48:14Z</time></trkpt><trkpt lat="45.85000311770624" lon="13.465237585855771"><ele>15.0</ele><time>2026-05-01T12:48:15Z</time></trkpt><trkpt lat="45.84982873208422" lon="13.465663394656872"><ele>14.5</ele><time>2026-05-01T12:48:16Z</time></trkpt><trkpt lat="45.84965277562055" lon="13.466084246639609"><ele>14.0</ele><time>2026-05-01T12:48:17Z</time></trkpt><trkpt lat="45.8494790633248" lon="13.466505870515167"><ele>15.0</ele><time>2026-05-01T12:48:18Z</time></trkpt><trkpt lat="45.84930063479739" lon="13.466931822602437"><ele>16.0</ele><time>2026-05-01T12:48:19Z</time></trkpt><trkpt lat="45.84913008124534" lon="13.467355874123815"><ele>16.0</ele><time>2026-05-01T12:48:20Z</time></trkpt><trkpt lat="45.84895976521538" lon="13.467779024915131"><ele>16.0</ele><time>2026-05-01T12:48:21Z</time></trkpt><trkpt lat="45.84878842292167" lon="13.468201744897469"><ele>16.0</ele><time>2026-05-01T12:48:22Z</time></trkpt><trkpt lat="45.848614342556175" lon="13.468626856426411"><ele>16.0</ele><time>2026-05-01T12:48:23Z</time></trkpt><trkpt lat="45.84844061994785" lon="13.469050868555843"><ele>16.0</ele><time>2026-05-01T12:48:24Z</time></trkpt><trkpt lat="45.84826635369889" lon="13.46947323766012"><ele>16.0</ele><time>2026-05-01T12:48:25Z</time></trkpt><trkpt lat="45.84809342622203" lon="13.469894905282047"><ele>16.0</ele><time>2026-05-01T12:48:26Z</time></trkpt><trkpt lat="45.84791964767763" lon="13.47031361874787"><ele>16.0</ele><time>2026-05-01T12:48:27Z</time></trkpt><trkpt lat="45.84774796280039" lon="13.470738534824873"><ele>16.0</ele><time>2026-05-01T12:48:28Z</time></trkpt><trkpt lat="45.84757545160582" lon="13.471169621015925"><ele>16.0</ele><time>2026-05-01T12:48:29Z</time></trkpt><trkpt lat="45.84740321064061" lon="13.471596041943291"><ele>16.0</ele><time>2026-05-01T12:48:30Z</time></trkpt><trkpt lat="45.84723268772145" lon="13.47202101542485"><ele>16.0</ele><time>2026-05-01T12:48:31Z</time></trkpt><trkpt lat="45.8470618347767" lon="13.472445433181166"><ele>16.5</ele><time>2026-05-01T12:48:32Z</time></trkpt><trkpt lat="45.84689078185456" lon="13.47286908470735"><ele>17.0</ele><time>2026-05-01T12:48:33Z</time></trkpt><trkpt lat="45.84671871361329" lon="13.473292139633589"><ele>15.5</ele><time>2026-05-01T12:48:34Z</time></trkpt><trkpt lat="45.84654675975488" lon="13.473717529192129"><ele>14.0</ele><time>2026-05-01T12:48:35Z</time></trkpt><trkpt lat="45.84637264254557" lon="13.474141180808754"><ele>14.0</ele><time>2026-05-01T12:48:36Z</time></trkpt><trkpt lat="45.84619868234043" lon="13.474564133579962"><ele>14.0</ele><time>2026-05-01T12:48:37Z</time></trkpt><trkpt lat="45.84602392050408" lon="13.474986078218258"><ele>14.0</ele><time>2026-05-01T12:48:38Z</time></trkpt><trkpt lat="45.845851259023846" lon="13.47540922594704"><ele>14.0</ele><time>2026-05-01T12:48:39Z</time></trkpt><trkpt lat="45.84567877215234" lon="13.47583310715833"><ele>14.0</ele><time>2026-05-01T12:48:40Z</time></trkpt><trkpt lat="45.84550652160022" lon="13.47625815271865"><ele>14.0</ele><time>2026-05-01T12:48:41Z</time></trkpt><trkpt lat="45.84533485213628" lon="13.476681319402159"><ele>14.0</ele><time>2026-05-01T12:48:42Z</time></trkpt><trkpt lat="45.84516465514652" lon="13.477107203781706"><ele>14.0</ele><time>2026-05-01T12:48:43Z</time></trkpt><trkpt lat="45.84499303420388" lon="13.477534372183001"><ele>15.0</ele><time>2026-05-01T12:48:44Z</time></trkpt><trkpt lat="45.84481991691008" lon="13.477957829607108"><ele>16.0</ele><time>2026-05-01T12:48:45Z</time></trkpt><trkpt lat="45.84464396274628" lon="13.478378611299139"><ele>16.0</ele><time>2026-05-01T12:48:46Z</time></trkpt><trkpt lat="45.84446933679134" lon="13.478799852311312"><ele>16.0</ele><time>2026-05-01T12:48:47Z</time></trkpt><trkpt lat="45.84429529354257" lon="13.479221680500848"><ele>14.0</ele><time>2026-05-01T12:48:48Z</time></trkpt><trkpt lat="45.844123001352685" lon="13.479642899684682"><ele>12.0</ele><time>2026-05-01T12:48:49Z</time></trkpt><trkpt lat="45.843950636052924" lon="13.480064338008132"><ele>12.0</ele><time>2026-05-01T12:48:50Z</time></trkpt><trkpt lat="45.84377644431653" lon="13.480486944089305"><ele>12.0</ele><time>2026-05-01T12:48:51Z</time></trkpt><trkpt lat="45.84360087191718" lon="13.480909552721888"><ele>11.0</ele><time>2026-05-01T12:48:52Z</time></trkpt><trkpt lat="45.84342644107633" lon="13.481334418659099"><ele>10.0</ele><time>2026-05-01T12:48:53Z</time></trkpt><trkpt lat="45.84325509092989" lon="13.481760273929293"><ele>11.0</ele><time>2026-05-01T12:48:54Z</time></trkpt><trkpt lat="45.84309134993054" lon="13.48219186912081"><ele>12.0</ele><time>2026-05-01T12:48:55Z</time></trkpt><trkpt lat="45.8429346506318" lon="13.482626305171188"><ele>12.0</ele><time>2026-05-01T12:48:56Z</time></trkpt><trkpt lat="45.84279526231942" lon="13.483073546707953"><ele>12.0</ele><time>2026-05-01T12:48:57Z</time></trkpt><trkpt lat="45.84267022389564" lon="13.48352432237188"><ele>13.0</ele><time>2026-05-01T12:48:58Z</time></trkpt><trkpt lat="45.84255483904564" lon="13.483982533788005"><ele>14.0</ele><time>2026-05-01T12:48:59Z</time></trkpt><trkpt lat="45.842455952750925" lon="13.484449950516916"><ele>13.0</ele><time>2026-05-01T12:49:00Z</time></trkpt><trkpt lat="45.842370253872666" lon="13.484926229015393"><ele>12.0</ele><time>2026-05-01T12:49:01Z</time></trkpt><trkpt lat="45.84229845648772" lon="13.485403585789097"><ele>11.5</ele><time>2026-05-01T12:49:02Z</time></trkpt><trkpt lat="45.842243033457876" lon="13.485886571109148"><ele>11.0</ele><time>2026-05-01T12:49:03Z</time></trkpt><trkpt lat="45.8422010372151" lon="13.486371712826267"><ele>11.5</ele><time>2026-05-01T12:49:04Z</time></trkpt><trkpt lat="45.84217033936269" lon="13.486853773221474"><ele>12.0</ele><time>2026-05-01T12:49:05Z</time></trkpt><trkpt lat="45.842156619282974" lon="13.487341574084436"><ele>12.0</ele><time>2026-05-01T12:49:06Z</time></trkpt><trkpt lat="45.84215438658868" lon="13.487829447190387"><ele>12.0</ele><time>2026-05-01T12:49:07Z</time></trkpt><trkpt lat="45.84216682870165" lon="13.488316666130745"><ele>13.5</ele><time>2026-05-01T12:49:08Z</time></trkpt><trkpt lat="45.84219573960009" lon="13.488800239727018"><ele>15.0</ele><time>2026-05-01T12:49:09Z</time></trkpt><trkpt lat="45.84223670336455" lon="13.489271017790994"><ele>15.5</ele><time>2026-05-01T12:49:10Z</time></trkpt><trkpt lat="45.842286145338804" lon="13.489725119741397"><ele>16.0</ele><time>2026-05-01T12:49:11Z</time></trkpt><trkpt lat="45.84234606906173" lon="13.490163798112427"><ele>13.5</ele><time>2026-05-01T12:49:12Z</time></trkpt><trkpt lat="45.8424147697699" lon="13.490591828575004"><ele>11.0</ele><time>2026-05-01T12:49:13Z</time></trkpt><trkpt lat="45.84249082291451" lon="13.491005990737118"><ele>11.5</ele><time>2026-05-01T12:49:14Z</time></trkpt><trkpt lat="45.84257090226735" lon="13.49141209761499"><ele>12.0</ele><time>2026-05-01T12:49:15Z</time></trkpt><trkpt lat="45.84265031891918" lon="13.49180602809091"><ele>11.5</ele><time>2026-05-01T12:49:16Z</time></trkpt><trkpt lat="45.84272496737213" lon="13.492191701975726"><ele>11.0</ele><time>2026-05-01T12:49:17Z</time></trkpt><trkpt lat="45.842791732552676" lon="13.4925753179531"><ele>12.5</ele><time>2026-05-01T12:49:18Z</time></trkpt><trkpt lat="45.84285591898677" lon="13.492960268382006"><ele>14.0</ele><time>2026-05-01T12:49:19Z</time></trkpt><trkpt lat="45.8429157333971" lon="13.493346506008232"><ele>14.0</ele><time>2026-05-01T12:49:20Z</time></trkpt><trkpt lat="45.842969267025204" lon="13.49373466571434"><ele>14.0</ele><time>2026-05-01T12:49:21Z</time></trkpt><trkpt lat="45.84301305185056" lon="13.494127770043782"><ele>14.0</ele><time>2026-05-01T12:49:22Z</time></trkpt><trkpt lat="45.84305240473307" lon="13.494518782469394"><ele>14.0</ele><time>2026-05-01T12:49:23Z</time></trkpt><trkpt lat="45.8430854656817" lon="13.494913276346766"><ele>14.5</ele><time>2026-05-01T12:49:24Z</time></trkpt><trkpt lat="45.84311580079555" lon="13.495309689961886"><ele>15.0</ele><time>2026-05-01T12:49:25Z</time></trkpt><trkpt lat="45.84314167171705" lon="13.495702570342143"><ele>15.0</ele><time>2026-05-01T12:49:26Z</time></trkpt><trkpt lat="45.84316224990266" lon="13.496100618364164"><ele>15.0</ele><time>2026-05-01T12:49:27Z</time></trkpt><trkpt lat="45.84317692392648" lon="13.496503565931247"><ele>13.5</ele><time>2026-05-01T12:49:28Z</time></trkpt><trkpt lat="45.84318116725065" lon="13.496916090644254"><ele>12.0</ele><time>2026-05-01T12:49:29Z</time></trkpt><trkpt lat="45.84317677545861" lon="13.497335872782626"><ele>12.0</ele><time>2026-05-01T12:49:30Z</time></trkpt><trkpt lat="45.84315701023745" lon="13.497758774293755"><ele>12.0</ele><time>2026-05-01T12:49:31Z</time></trkpt><trkpt lat="45.84312034970296" lon="13.498180850600459"><ele>12.0</ele><time>2026-05-01T12:49:32Z</time></trkpt><trkpt lat="45.84307394730676" lon="13.498603504736796"><ele>12.0</ele><time>2026-05-01T12:49:33Z</time></trkpt><trkpt lat="45.84302092736961" lon="13.499027981367504"><ele>14.0</ele><time>2026-05-01T12:49:34Z</time></trkpt><trkpt lat="45.8429625829112" lon="13.49945326505244"><ele>16.0</ele><time>2026-05-01T12:49:35Z</time></trkpt><trkpt lat="45.84289488047774" lon="13.499876491274954"><ele>17.5</ele><time>2026-05-01T12:49:36Z</time></trkpt><trkpt lat="45.84281951656584" lon="13.500298104772188"><ele>19.0</ele><time>2026-05-01T12:49:37Z</time></trkpt><trkpt lat="45.84273696795443" lon="13.500720710371228"><ele>18.5</ele><time>2026-05-01T12:49:38Z</time></trkpt><trkpt lat="45.842650121366276" lon="13.501137770719243"><ele>18.0</ele><time>2026-05-01T12:49:39Z</time></trkpt><trkpt lat="45.84255786878198" lon="13.501553357211145"><ele>18.0</ele><time>2026-05-01T12:49:40Z</time></trkpt><trkpt lat="45.8424634938281" lon="13.501964438646192"><ele>18.0</ele><time>2026-05-01T12:49:41Z</time></trkpt><trkpt lat="45.84236794878088" lon="13.502376244611012"><ele>24.5</ele><time>2026-05-01T12:49:42Z</time></trkpt><trkpt lat="45.84227218875014" lon="13.50278406009844"><ele>31.0</ele><time>2026-05-01T12:49:43Z</time></trkpt><trkpt lat="45.842174319958175" lon="13.50319366586235"><ele>35.0</ele><time>2026-05-01T12:49:44Z</time></trkpt><trkpt lat="45.84207746631792" lon="13.50360279711295"><ele>39.0</ele><time>2026-05-01T12:49:45Z</time></trkpt><trkpt lat="45.84198052844932" lon="13.504008739968386"><ele>40.5</ele><time>2026-05-01T12:49:46Z</time></trkpt><trkpt lat="45.84187902966234" lon="13.504409204583924"><ele>42.0</ele><time>2026-05-01T12:49:47Z</time></trkpt><trkpt lat="45.841770147694206" lon="13.504807676588147"><ele>37.0</ele><time>2026-05-01T12:49:48Z</time></trkpt><trkpt lat="45.84165258343749" lon="13.505202847317031"><ele>32.0</ele><time>2026-05-01T12:49:49Z</time></trkpt><trkpt lat="45.8415316741772" lon="13.505595907979883"><ele>32.0</ele><time>2026-05-01T12:49:50Z</time></trkpt><trkpt lat="45.84140589429232" lon="13.505985797874038"><ele>32.0</ele><time>2026-05-01T12:49:51Z</time></trkpt><trkpt lat="45.8412709429078" lon="13.506366415601189"><ele>40.5</ele><time>2026-05-01T12:49:52Z</time></trkpt><trkpt lat="45.841127513946006" lon="13.506737469889057"><ele>49.0</ele><time>2026-05-01T12:49:53Z</time></trkpt><trkpt lat="45.84097570637735" lon="13.507100537762376"><ele>41.0</ele><time>2026-05-01T12:49:54Z</time></trkpt><trkpt lat="45.84081461502324" lon="13.507456852287584"><ele>33.0</ele><time>2026-05-01T12:49:55Z</time></trkpt><trkpt lat="45.84064381761538" lon="13.507797152302867"><ele>41.5</ele><time>2026-05-01T12:49:56Z</time></trkpt><trkpt lat="45.840462144757225" lon="13.50812461876441"><ele>50.0</ele><time>2026-05-01T12:49:57Z</time></trkpt><trkpt lat="45.84027302141604" lon="13.508453988285343"><ele>43.5</ele><time>2026-05-01T12:49:58Z</time></trkpt><trkpt lat="45.84007968412288" lon="13.508776506451875"><ele>37.0</ele><time>2026-05-01T12:49:59Z</time></trkpt><trkpt lat="45.8398791196965" lon="13.509095610399877"><ele>37.0</ele><time>2026-05-01T12:50:00Z</time></trkpt><trkpt lat="45.83967162536603" lon="13.509408885934175"><ele>37.0</ele><time>2026-05-01T12:50:01Z</time></trkpt><trkpt lat="45.83945618155071" lon="13.50971628245146"><ele>35.0</ele><time>2026-05-01T12:50:02Z</time></trkpt><trkpt lat="45.83923423564353" lon="13.510020251287592"><ele>33.0</ele><time>2026-05-01T12:50:03Z</time></trkpt><trkpt lat="45.83900745059157" lon="13.510315002015519"><ele>40.5</ele><time>2026-05-01T12:50:04Z</time></trkpt><trkpt lat="45.83877446175647" lon="13.510600768388194"><ele>48.0</ele><time>2026-05-01T12:50:05Z</time></trkpt><trkpt lat="45.83853467410621" lon="13.51088180608659"><ele>46.0</ele><time>2026-05-01T12:50:06Z</time></trkpt><trkpt lat="45.838286189865926" lon="13.511158700165113"><ele>44.0</ele><time>2026-05-01T12:50:07Z</time></trkpt><trkpt lat="45.838030312907954" lon="13.511419120231771"><ele>44.0</ele><time>2026-05-01T12:50:08Z</time></trkpt><trkpt lat="45.83776789932701" lon="13.511685202846706"><ele>44.0</ele><time>2026-05-01T12:50:09Z</time></trkpt><trkpt lat="45.83749615385707" lon="13.511937673310138"><ele>43.0</ele><time>2026-05-01T12:50:10Z</time></trkpt><trkpt lat="45.8372221646484" lon="13.51217901014995"><ele>42.0</ele><time>2026-05-01T12:50:11Z</time></trkpt><trkpt lat="45.83694651741651" lon="13.512411105803167"><ele>36.5</ele><time>2026-05-01T12:50:12Z</time></trkpt><trkpt lat="45.836668485537864" lon="13.512627570215693"><ele>31.0</ele><time>2026-05-01T12:50:13Z</time></trkpt><trkpt lat="45.83638825482372" lon="13.512830019303555"><ele>32.0</ele><time>2026-05-01T12:50:14Z</time></trkpt><trkpt lat="45.83610678205824" lon="13.513026105336307"><ele>33.0</ele><time>2026-05-01T12:50:15Z</time></trkpt><trkpt lat="45.83582542196239" lon="13.51320817847806"><ele>30.5</ele><time>2026-05-01T12:50:16Z</time></trkpt><trkpt lat="45.83554715890096" lon="13.513377256603668"><ele>28.0</ele><time>2026-05-01T12:50:17Z</time></trkpt><trkpt lat="45.83526551259304" lon="13.51353817177911"><ele>29.0</ele><time>2026-05-01T12:50:18Z</time></trkpt><trkpt lat="45.834982118188925" lon="13.513700470634802"><ele>30.0</ele><time>2026-05-01T12:50:19Z</time></trkpt><trkpt lat="45.834693060141724" lon="13.513857255065005"><ele>30.0</ele><time>2026-05-01T12:50:20Z</time></trkpt><trkpt lat="45.83439952038468" lon="13.514011299884192"><ele>30.0</ele><time>2026-05-01T12:50:21Z</time></trkpt><trkpt lat="45.83410269088199" lon="13.51417281108476"><ele>28.0</ele><time>2026-05-01T12:50:22Z</time></trkpt><trkpt lat="45.83380430946867" lon="13.514336649286408"><ele>26.0</ele><time>2026-05-01T12:50:23Z</time></trkpt><trkpt lat="45.83351037326825" lon="13.514495536813516"><ele>27.5</ele><time>2026-05-01T12:50:24Z</time></trkpt><trkpt lat="45.83322093868052" lon="13.514661627480738"><ele>29.0</ele><time>2026-05-01T12:50:25Z</time></trkpt><trkpt lat="45.83293220971495" lon="13.514826709755443"><ele>29.0</ele><time>2026-05-01T12:50:26Z</time></trkpt><trkpt lat="45.83264018477823" lon="13.515003917763242"><ele>29.0</ele><time>2026-05-01T12:50:27Z</time></trkpt><trkpt lat="45.83235063093928" lon="13.515198845497755"><ele>32.0</ele><time>2026-05-01T12:50:28Z</time></trkpt><trkpt lat="45.8320623133485" lon="13.515407000381794"><ele>35.0</ele><time>2026-05-01T12:50:29Z</time></trkpt><trkpt lat="45.83177873160333" lon="13.515624301673112"><ele>28.5</ele><time>2026-05-01T12:50:30Z</time></trkpt><trkpt lat="45.831502304634874" lon="13.515853225784134"><ele>22.0</ele><time>2026-05-01T12:50:31Z</time></trkpt><trkpt lat="45.83123306766323" lon="13.516089437015916"><ele>22.5</ele><time>2026-05-01T12:50:32Z</time></trkpt><trkpt lat="45.83097284756825" lon="13.516337529124455"><ele>23.0</ele><time>2026-05-01T12:50:33Z</time></trkpt><trkpt lat="45.830717148787194" lon="13.516596369613001"><ele>23.0</ele><time>2026-05-01T12:50:34Z</time></trkpt><trkpt lat="45.83046672780985" lon="13.516862185615585"><ele>23.0</ele><time>2026-05-01T12:50:35Z</time></trkpt><trkpt lat="45.8302228021585" lon="13.517137347844923"><ele>22.5</ele><time>2026-05-01T12:50:36Z</time></trkpt><trkpt lat="45.829992954737214" lon="13.517418858256347"><ele>22.0</ele><time>2026-05-01T12:50:37Z</time></trkpt><trkpt lat="45.82977039394874" lon="13.51770132928205"><ele>27.5</ele><time>2026-05-01T12:50:38Z</time></trkpt><trkpt lat="45.8295548918994" lon="13.517987547348636"><ele>33.0</ele><time>2026-05-01T12:50:39Z</time></trkpt><trkpt lat="45.829344261820495" lon="13.518277512128803"><ele>33.0</ele><time>2026-05-01T12:50:40Z</time></trkpt><trkpt lat="45.8291413702946" lon="13.518573558813863"><ele>33.0</ele><time>2026-05-01T12:50:41Z</time></trkpt><trkpt lat="45.82894673770454" lon="13.518876287200207"><ele>33.0</ele><time>2026-05-01T12:50:42Z</time></trkpt><trkpt lat="45.82876560084324" lon="13.519186269323546"><ele>33.0</ele><time>2026-05-01T12:50:43Z</time></trkpt><trkpt lat="45.828589791440926" lon="13.519498882779912"><ele>29.0</ele><time>2026-05-01T12:50:44Z</time></trkpt><trkpt lat="45.82841916628003" lon="13.519807955112238"><ele>25.0</ele><time>2026-05-01T12:50:45Z</time></trkpt><trkpt lat="45.828249865345846" lon="13.520119529969655"><ele>32.5</ele><time>2026-05-01T12:50:46Z</time></trkpt><trkpt lat="45.82808027750984" lon="13.520432707171487"><ele>40.0</ele><time>2026-05-01T12:50:47Z</time></trkpt><trkpt lat="45.82790732842564" lon="13.520749897419535"><ele>40.0</ele><time>2026-05-01T12:50:48Z</time></trkpt><trkpt lat="45.82773315609539" lon="13.521065826392652"><ele>40.0</ele><time>2026-05-01T12:50:49Z</time></trkpt><trkpt lat="45.827559048428434" lon="13.521376601150505"><ele>34.5</ele><time>2026-05-01T12:50:50Z</time></trkpt><trkpt lat="45.82738520662559" lon="13.521676959512014"><ele>29.0</ele><time>2026-05-01T12:50:51Z</time></trkpt><trkpt lat="45.82720770129189" lon="13.521974728880567"><ele>35.5</ele><time>2026-05-01T12:50:52Z</time></trkpt><trkpt lat="45.827021939646556" lon="13.522270702975321"><ele>42.0</ele><time>2026-05-01T12:50:53Z</time></trkpt><trkpt lat="45.82682746585812" lon="13.522559673345008"><ele>36.5</ele><time>2026-05-01T12:50:54Z</time></trkpt><trkpt lat="45.82662962433475" lon="13.522842170294616"><ele>31.0</ele><time>2026-05-01T12:50:55Z</time></trkpt><trkpt lat="45.82642737840606" lon="13.523113236695899"><ele>31.0</ele><time>2026-05-01T12:50:56Z</time></trkpt><trkpt lat="45.82621757866465" lon="13.523379635733093"><ele>31.0</ele><time>2026-05-01T12:50:57Z</time></trkpt><trkpt lat="45.826005167823396" lon="13.523634616182965"><ele>31.5</ele><time>2026-05-01T12:50:58Z</time></trkpt><trkpt lat="45.82579270870471" lon="13.523877443611772"><ele>32.0</ele><time>2026-05-01T12:50:59Z</time></trkpt><trkpt lat="45.825579871124674" lon="13.524113147791047"><ele>32.0</ele><time>2026-05-01T12:51:00Z</time></trkpt><trkpt lat="45.82536341281194" lon="13.52434767714084"><ele>32.0</ele><time>2026-05-01T12:51:01Z</time></trkpt><trkpt lat="45.82514567967964" lon="13.524572662053655"><ele>32.5</ele><time>2026-05-01T12:51:02Z</time></trkpt><trkpt lat="45.82492996545595" lon="13.524791079670393"><ele>33.0</ele><time>2026-05-01T12:51:03Z</time></trkpt><trkpt lat="45.82471574629278" lon="13.525012254517076"><ele>33.0</ele><time>2026-05-01T12:51:04Z</time></trkpt><trkpt lat="45.82450441628766" lon="13.525237940676663"><ele>33.0</ele><time>2026-05-01T12:51:05Z</time></trkpt><trkpt lat="45.824300215819044" lon="13.525473811437793"><ele>32.0</ele><time>2026-05-01T12:51:06Z</time></trkpt><trkpt lat="45.824095381945085" lon="13.525719569703304"><ele>31.0</ele><time>2026-05-01T12:51:07Z</time></trkpt><trkpt lat="45.82388713072277" lon="13.525969630092906"><ele>31.0</ele><time>2026-05-01T12:51:08Z</time></trkpt><trkpt lat="45.823677199193334" lon="13.526227869355266"><ele>31.0</ele><time>2026-05-01T12:51:09Z</time></trkpt><trkpt lat="45.823464606230644" lon="13.526497906215775"><ele>28.0</ele><time>2026-05-01T12:51:10Z</time></trkpt><trkpt lat="45.823250239733696" lon="13.526780697511605"><ele>25.0</ele><time>2026-05-01T12:51:11Z</time></trkpt><trkpt lat="45.82303950022042" lon="13.52707346044641"><ele>20.5</ele><time>2026-05-01T12:51:12Z</time></trkpt><trkpt lat="45.822833329930255" lon="13.52736346732755"><ele>16.0</ele><time>2026-05-01T12:51:13Z</time></trkpt><trkpt lat="45.82262961090749" lon="13.527655526195792"><ele>20.5</ele><time>2026-05-01T12:51:14Z</time></trkpt><trkpt lat="45.82242522397104" lon="13.527962546933852"><ele>25.0</ele><time>2026-05-01T12:51:15Z</time></trkpt><trkpt lat="45.822220365614776" lon="13.528281023792898"><ele>25.0</ele><time>2026-05-01T12:51:16Z</time></trkpt><trkpt lat="45.82201455078946" lon="13.528610404657533"><ele>25.0</ele><time>2026-05-01T12:51:17Z</time></trkpt><trkpt lat="45.82181063219479" lon="13.528949525196149"><ele>26.0</ele><time>2026-05-01T12:51:18Z</time></trkpt><trkpt lat="45.82161523247971" lon="13.529296809989889"><ele>27.0</ele><time>2026-05-01T12:51:19Z</time></trkpt><trkpt lat="45.82142405776037" lon="13.52965530985994"><ele>27.0</ele><time>2026-05-01T12:51:20Z</time></trkpt><trkpt lat="45.82123337421702" lon="13.53001871584479"><ele>27.0</ele><time>2026-05-01T12:51:21Z</time></trkpt><trkpt lat="45.82104227914844" lon="13.530393107120341"><ele>24.0</ele><time>2026-05-01T12:51:22Z</time></trkpt><trkpt lat="45.82085090559346" lon="13.530769852840638"><ele>21.0</ele><time>2026-05-01T12:51:23Z</time></trkpt><trkpt lat="45.82066298661441" lon="13.531159332268517"><ele>23.5</ele><time>2026-05-01T12:51:24Z</time></trkpt><trkpt lat="45.82047838047332" lon="13.531557817522986"><ele>26.0</ele><time>2026-05-01T12:51:25Z</time></trkpt><trkpt lat="45.82029731210646" lon="13.531962683124522"><ele>20.5</ele><time>2026-05-01T12:51:26Z</time></trkpt><trkpt lat="45.82012145170591" lon="13.532376410884748"><ele>15.0</ele><time>2026-05-01T12:51:27Z</time></trkpt><trkpt lat="45.819951589595014" lon="13.532803782925267"><ele>16.5</ele><time>2026-05-01T12:51:28Z</time></trkpt><trkpt lat="45.81978171311728" lon="13.533230287366846"><ele>18.0</ele><time>2026-05-01T12:51:29Z</time></trkpt><trkpt lat="45.81961835855104" lon="13.533664784884298"><ele>21.5</ele><time>2026-05-01T12:51:30Z</time></trkpt><trkpt lat="45.819459593059236" lon="13.534104495125739"><ele>25.0</ele><time>2026-05-01T12:51:31Z</time></trkpt><trkpt lat="45.8193074775656" lon="13.53454553799897"><ele>24.0</ele><time>2026-05-01T12:51:32Z</time></trkpt><trkpt lat="45.81916064979402" lon="13.534988943307406"><ele>23.0</ele><time>2026-05-01T12:51:33Z</time></trkpt><trkpt lat="45.81901415737794" lon="13.535431554940464"><ele>23.0</ele><time>2026-05-01T12:51:34Z</time></trkpt><trkpt lat="45.81886766908447" lon="13.53587167741145"><ele>23.0</ele><time>2026-05-01T12:51:35Z</time></trkpt><trkpt lat="45.818719893337175" lon="13.536315022700073"><ele>22.0</ele><time>2026-05-01T12:51:36Z</time></trkpt><trkpt lat="45.818571240548444" lon="13.536757400194814"><ele>21.0</ele><time>2026-05-01T12:51:37Z</time></trkpt><trkpt lat="45.81842332488846" lon="13.537196453894438"><ele>21.0</ele><time>2026-05-01T12:51:38Z</time></trkpt><trkpt lat="45.8182776753447" lon="13.537638745224141"><ele>21.0</ele><time>2026-05-01T12:51:39Z</time></trkpt><trkpt lat="45.81813236669728" lon="13.538082804028296"><ele>23.5</ele><time>2026-05-01T12:51:40Z</time></trkpt><trkpt lat="45.8179869663768" lon="13.538528252216949"><ele>26.0</ele><time>2026-05-01T12:51:41Z</time></trkpt><trkpt lat="45.81783954736613" lon="13.53897315205682"><ele>30.0</ele><time>2026-05-01T12:51:42Z</time></trkpt><trkpt lat="45.81769360479917" lon="13.539423021987561"><ele>34.0</ele><time>2026-05-01T12:51:43Z</time></trkpt><trkpt lat="45.81754884262718" lon="13.53986967288258"><ele>28.5</ele><time>2026-05-01T12:51:44Z</time></trkpt><trkpt lat="45.8174023889996" lon="13.54031453305234"><ele>23.0</ele><time>2026-05-01T12:51:45Z</time></trkpt><trkpt lat="45.817256779431915" lon="13.540759421834183"><ele>23.0</ele><time>2026-05-01T12:51:46Z</time></trkpt><trkpt lat="45.81711528545577" lon="13.541192640681043"><ele>23.0</ele><time>2026-05-01T12:51:47Z</time></trkpt><trkpt lat="45.81697541975967" lon="13.54161539269262"><ele>24.5</ele><time>2026-05-01T12:51:48Z</time></trkpt><trkpt lat="45.816835290158515" lon="13.542027941493759"><ele>26.0</ele><time>2026-05-01T12:51:49Z</time></trkpt><trkpt lat="45.81669865930403" lon="13.542434759055904"><ele>21.5</ele><time>2026-05-01T12:51:50Z</time></trkpt><trkpt lat="45.81656850165579" lon="13.54283762709456"><ele>17.0</ele><time>2026-05-01T12:51:51Z</time></trkpt><trkpt lat="45.81644112401163" lon="13.543242739667825"><ele>16.5</ele><time>2026-05-01T12:51:52Z</time></trkpt><trkpt lat="45.81632358169816" lon="13.543654381886054"><ele>16.0</ele><time>2026-05-01T12:51:53Z</time></trkpt><trkpt lat="45.81621652485841" lon="13.544072139037352"><ele>15.5</ele><time>2026-05-01T12:51:54Z</time></trkpt><trkpt lat="45.816117745547054" lon="13.544497081068945"><ele>15.0</ele><time>2026-05-01T12:51:55Z</time></trkpt><trkpt lat="45.816025385791185" lon="13.544925280172489"><ele>15.5</ele><time>2026-05-01T12:51:56Z</time></trkpt><trkpt lat="45.81594002792254" lon="13.545359071657112"><ele>16.0</ele><time>2026-05-01T12:51:57Z</time></trkpt><trkpt lat="45.815862404107015" lon="13.545796949798001"><ele>15.0</ele><time>2026-05-01T12:51:58Z</time></trkpt><trkpt lat="45.81579299935142" lon="13.546241112989177"><ele>14.0</ele><time>2026-05-01T12:51:59Z</time></trkpt><trkpt lat="45.815733290542056" lon="13.546686884081954"><ele>13.0</ele><time>2026-05-01T12:52:00Z</time></trkpt><trkpt lat="45.81568212757609" lon="13.547134337642042"><ele>12.0</ele><time>2026-05-01T12:52:01Z</time></trkpt><trkpt lat="45.815642751833785" lon="13.547581160518785"><ele>10.5</ele><time>2026-05-01T12:52:02Z</time></trkpt><trkpt lat="45.81561200946733" lon="13.548023342471058"><ele>9.0</ele><time>2026-05-01T12:52:03Z</time></trkpt><trkpt lat="45.81558974308755" lon="13.548460525219923"><ele>10.5</ele><time>2026-05-01T12:52:04Z</time></trkpt><trkpt lat="45.815576149550246" lon="13.548891906878705"><ele>12.0</ele><time>2026-05-01T12:52:05Z</time></trkpt><trkpt lat="45.81557266614414" lon="13.549319214349058"><ele>12.0</ele><time>2026-05-01T12:52:06Z</time></trkpt><trkpt lat="45.81557499926258" lon="13.549739990551338"><ele>12.0</ele><time>2026-05-01T12:52:07Z</time></trkpt><trkpt lat="45.815584231866616" lon="13.550150696763863"><ele>12.0</ele><time>2026-05-01T12:52:08Z</time></trkpt><trkpt lat="45.81559936934241" lon="13.550552023790155"><ele>12.0</ele><time>2026-05-01T12:52:09Z</time></trkpt><trkpt lat="45.81561991542244" lon="13.550944982770796"><ele>10.0</ele><time>2026-05-01T12:52:10Z</time></trkpt><trkpt lat="45.81564752686828" lon="13.551328200187715"><ele>8.0</ele><time>2026-05-01T12:52:11Z</time></trkpt><trkpt lat="45.81567900129059" lon="13.55170504521478"><ele>9.5</ele><time>2026-05-01T12:52:12Z</time></trkpt><trkpt lat="45.81571465908507" lon="13.552078810517884"><ele>11.0</ele><time>2026-05-01T12:52:13Z</time></trkpt><trkpt lat="45.81574920974843" lon="13.552455652927582"><ele>11.0</ele><time>2026-05-01T12:52:14Z</time></trkpt><trkpt lat="45.81577664174609" lon="13.552838356838128"><ele>11.0</ele><time>2026-05-01T12:52:15Z</time></trkpt><trkpt lat="45.81579484965511" lon="13.553219218473286"><ele>11.5</ele><time>2026-05-01T12:52:16Z</time></trkpt><trkpt lat="45.8158012879636" lon="13.553605074157204"><ele>12.0</ele><time>2026-05-01T12:52:17Z</time></trkpt><trkpt lat="45.815791806878465" lon="13.553993098376019"><ele>12.0</ele><time>2026-05-01T12:52:18Z</time></trkpt><trkpt lat="45.81576695203718" lon="13.55438344207691"><ele>12.0</ele><time>2026-05-01T12:52:19Z</time></trkpt><trkpt lat="45.81572853538392" lon="13.55476601474607"><ele>12.0</ele><time>2026-05-01T12:52:20Z</time></trkpt><trkpt lat="45.815679160966305" lon="13.555132728569719"><ele>12.0</ele><time>2026-05-01T12:52:21Z</time></trkpt><trkpt lat="45.81561735385844" lon="13.555494774816902"><ele>9.5</ele><time>2026-05-01T12:52:22Z</time></trkpt><trkpt lat="45.81554509985879" lon="13.555850363944197"><ele>7.0</ele><time>2026-05-01T12:52:23Z</time></trkpt><trkpt lat="45.81546378520146" lon="13.556207250991303"><ele>6.0</ele><time>2026-05-01T12:52:24Z</time></trkpt><trkpt lat="45.81536814446475" lon="13.556556781903874"><ele>5.0</ele><time>2026-05-01T12:52:25Z</time></trkpt><trkpt lat="45.81525900517824" lon="13.556896418701246"><ele>11.0</ele><time>2026-05-01T12:52:26Z</time></trkpt><trkpt lat="45.81513477716783" lon="13.557228696738935"><ele>17.0</ele><time>2026-05-01T12:52:27Z</time></trkpt><trkpt lat="45.815002999713215" lon="13.557552059828529"><ele>17.0</ele><time>2026-05-01T12:52:28Z</time></trkpt><trkpt lat="45.81486197912142" lon="13.557860833845279"><ele>17.0</ele><time>2026-05-01T12:52:29Z</time></trkpt><trkpt lat="45.814712404730216" lon="13.558162161179993"><ele>13.5</ele><time>2026-05-01T12:52:30Z</time></trkpt><trkpt lat="45.81454730555688" lon="13.558454612567738"><ele>10.0</ele><time>2026-05-01T12:52:31Z</time></trkpt><trkpt lat="45.81437084815138" lon="13.558741632976108"><ele>13.5</ele><time>2026-05-01T12:52:32Z</time></trkpt><trkpt lat="45.81418361462335" lon="13.559023432892852"><ele>17.0</ele><time>2026-05-01T12:52:33Z</time></trkpt><trkpt lat="45.813983003346856" lon="13.559294725155507"><ele>12.0</ele><time>2026-05-01T12:52:34Z</time></trkpt><trkpt lat="45.81377087603972" lon="13.559553888886539"><ele>7.0</ele><time>2026-05-01T12:52:35Z</time></trkpt><trkpt lat="45.81354875534486" lon="13.559808715786412"><ele>14.0</ele><time>2026-05-01T12:52:36Z</time></trkpt><trkpt lat="45.81332293864864" lon="13.560066356429394"><ele>21.0</ele><time>2026-05-01T12:52:37Z</time></trkpt><trkpt lat="45.8130933377529" lon="13.560332314178332"><ele>19.0</ele><time>2026-05-01T12:52:38Z</time></trkpt><trkpt lat="45.812859717472655" lon="13.5605978931363"><ele>17.0</ele><time>2026-05-01T12:52:39Z</time></trkpt><trkpt lat="45.8126228343368" lon="13.560866543897665"><ele>17.0</ele><time>2026-05-01T12:52:40Z</time></trkpt><trkpt lat="45.812382615041535" lon="13.56113820617208"><ele>17.0</ele><time>2026-05-01T12:52:41Z</time></trkpt><trkpt lat="45.81214229259618" lon="13.561409079391202"><ele>14.0</ele><time>2026-05-01T12:52:42Z</time></trkpt><trkpt lat="45.81190557323742" lon="13.561675277085113"><ele>11.0</ele><time>2026-05-01T12:52:43Z</time></trkpt><trkpt lat="45.811674899807315" lon="13.561938817162645"><ele>10.0</ele><time>2026-05-01T12:52:44Z</time></trkpt><trkpt lat="45.81144906171321" lon="13.562200716803828"><ele>9.0</ele><time>2026-05-01T12:52:45Z</time></trkpt><trkpt lat="45.81123264165137" lon="13.562472157177778"><ele>9.0</ele><time>2026-05-01T12:52:46Z</time></trkpt><trkpt lat="45.81103193065335" lon="13.562760391068785"><ele>9.0</ele><time>2026-05-01T12:52:47Z</time></trkpt><trkpt lat="45.810839258917454" lon="13.563060101667661"><ele>8.5</ele><time>2026-05-01T12:52:48Z</time></trkpt><trkpt lat="45.810653226611954" lon="13.563370563630212"><ele>8.0</ele><time>2026-05-01T12:52:49Z</time></trkpt><trkpt lat="45.81047451657154" lon="13.563691985270506"><ele>8.0</ele><time>2026-05-01T12:52:50Z</time></trkpt><trkpt lat="45.81030797287221" lon="13.564027597884863"><ele>8.0</ele><time>2026-05-01T12:52:51Z</time></trkpt><trkpt lat="45.810151742253986" lon="13.564379793145523"><ele>10.0</ele><time>2026-05-01T12:52:52Z</time></trkpt><trkpt lat="45.81000250894353" lon="13.564747289911827"><ele>12.0</ele><time>2026-05-01T12:52:53Z</time></trkpt><trkpt lat="45.809864152345824" lon="13.56512240204288"><ele>14.5</ele><time>2026-05-01T12:52:54Z</time></trkpt><trkpt lat="45.80973931861717" lon="13.56550374431952"><ele>17.0</ele><time>2026-05-01T12:52:55Z</time></trkpt><trkpt lat="45.809631580620085" lon="13.56588553150166"><ele>19.0</ele><time>2026-05-01T12:52:56Z</time></trkpt><trkpt lat="45.80953763156965" lon="13.56626068873454"><ele>21.0</ele><time>2026-05-01T12:52:57Z</time></trkpt><trkpt lat="45.80945455886881" lon="13.566630153303832"><ele>21.0</ele><time>2026-05-01T12:52:58Z</time></trkpt><trkpt lat="45.80938412098667" lon="13.566996752975335"><ele>21.0</ele><time>2026-05-01T12:52:59Z</time></trkpt><trkpt lat="45.809318129562115" lon="13.567364266412085"><ele>15.5</ele><time>2026-05-01T12:53:00Z</time></trkpt><trkpt lat="45.80925338717848" lon="13.567734590834197"><ele>10.0</ele><time>2026-05-01T12:53:01Z</time></trkpt><trkpt lat="45.80918874752424" lon="13.568106167292012"><ele>10.0</ele><time>2026-05-01T12:53:02Z</time></trkpt><trkpt lat="45.80912371114256" lon="13.56847836428553"><ele>10.0</ele><time>2026-05-01T12:53:03Z</time></trkpt><trkpt lat="45.80906224937791" lon="13.568839894286542"><ele>12.5</ele><time>2026-05-01T12:53:04Z</time></trkpt><trkpt lat="45.80899906485063" lon="13.569200252484059"><ele>15.0</ele><time>2026-05-01T12:53:05Z</time></trkpt><trkpt lat="45.80893757143463" lon="13.569555641436356"><ele>19.5</ele><time>2026-05-01T12:53:06Z</time></trkpt><trkpt lat="45.808877295701365" lon="13.569902323782337"><ele>24.0</ele><time>2026-05-01T12:53:07Z</time></trkpt><trkpt lat="45.808821273010494" lon="13.570240756104287"><ele>25.0</ele><time>2026-05-01T12:53:08Z</time></trkpt><trkpt lat="45.80876359517055" lon="13.570576365861525"><ele>26.0</ele><time>2026-05-01T12:53:09Z</time></trkpt><trkpt lat="45.80870633133951" lon="13.570903423227294"><ele>26.5</ele><time>2026-05-01T12:53:10Z</time></trkpt><trkpt lat="45.80864502793189" lon="13.571227374682964"><ele>27.0</ele><time>2026-05-01T12:53:11Z</time></trkpt><trkpt lat="45.80857986785351" lon="13.57155169036833"><ele>27.0</ele><time>2026-05-01T12:53:12Z</time></trkpt><trkpt lat="45.808505406314914" lon="13.571871776882436"><ele>27.0</ele><time>2026-05-01T12:53:13Z</time></trkpt><trkpt lat="45.80842083610583" lon="13.572188664333687"><ele>18.5</ele><time>2026-05-01T12:53:14Z</time></trkpt><trkpt lat="45.80832759419747" lon="13.572502332983053"><ele>10.0</ele><time>2026-05-01T12:53:15Z</time></trkpt><trkpt lat="45.80822636667045" lon="13.572816820604192"><ele>13.5</ele><time>2026-05-01T12:53:16Z</time></trkpt><trkpt lat="45.80811208878169" lon="13.573128857027667"><ele>17.0</ele><time>2026-05-01T12:53:17Z</time></trkpt><trkpt lat="45.80798467650424" lon="13.573440222016714"><ele>22.0</ele><time>2026-05-01T12:53:18Z</time></trkpt><trkpt lat="45.80785334362603" lon="13.573748883372012"><ele>27.0</ele><time>2026-05-01T12:53:19Z</time></trkpt><trkpt lat="45.807714027826904" lon="13.574053147476116"><ele>19.0</ele><time>2026-05-01T12:53:20Z</time></trkpt><trkpt lat="45.80756885343799" lon="13.574341039833698"><ele>11.0</ele><time>2026-05-01T12:53:21Z</time></trkpt><trkpt lat="45.80741898103312" lon="13.574614795554819"><ele>11.0</ele><time>2026-05-01T12:53:22Z</time></trkpt><trkpt lat="45.80726498964992" lon="13.574869861882297"><ele>11.0</ele><time>2026-05-01T12:53:23Z</time></trkpt><trkpt lat="45.80710829920131" lon="13.575112187935066"><ele>11.0</ele><time>2026-05-01T12:53:24Z</time></trkpt><trkpt lat="45.80694997413761" lon="13.575340850822553"><ele>11.0</ele><time>2026-05-01T12:53:25Z</time></trkpt><trkpt lat="45.80679309138337" lon="13.575551848409921"><ele>11.0</ele><time>2026-05-01T12:53:26Z</time></trkpt><trkpt lat="45.80663800730796" lon="13.575756968569916"><ele>11.0</ele><time>2026-05-01T12:53:27Z</time></trkpt><trkpt lat="45.806486331045704" lon="13.575948217666731"><ele>11.0</ele><time>2026-05-01T12:53:28Z</time></trkpt><trkpt lat="45.806335153942534" lon="13.576124587425808"><ele>11.0</ele><time>2026-05-01T12:53:29Z</time></trkpt><trkpt lat="45.80619024500449" lon="13.576287494856876"><ele>9.666666666666666</ele><time>2026-05-01T12:53:30Z</time></trkpt><trkpt lat="45.806054061196384" lon="13.576438282137921"><ele>8.333333333333334</ele><time>2026-05-01T12:53:31Z</time></trkpt><trkpt lat="45.80592338191851" lon="13.576585199888589"><ele>7.0</ele><time>2026-05-01T12:53:32Z</time></trkpt><trkpt lat="45.80579643044619" lon="13.576723085193198"><ele>7.0</ele><time>2026-05-01T12:53:33Z</time></trkpt><trkpt lat="45.80567144772074" lon="13.576845908742634"><ele>7.0</ele><time>2026-05-01T12:53:34Z</time></trkpt><trkpt lat="45.80555318177426" lon="13.576959776527879"><ele>7.0</ele><time>2026-05-01T12:53:35Z</time></trkpt><trkpt lat="45.80544225848064" lon="13.577066205857273"><ele>7.0</ele><time>2026-05-01T12:53:36Z</time></trkpt><trkpt lat="45.80535717614898" lon="13.577192061058774"><ele>7.199999999999999</ele><time>2026-05-01T12:53:37Z</time></trkpt><trkpt lat="45.805275041968926" lon="13.577292303083802"><ele>7.3999999999999995</ele><time>2026-05-01T12:53:38Z</time></trkpt><trkpt lat="45.805198668439914" lon="13.577385514422156"><ele>7.6000000000000005</ele><time>2026-05-01T12:53:39Z</time></trkpt><trkpt lat="45.80514109795296" lon="13.577455777252112"><ele>7.800000000000001</ele><time>2026-05-01T12:53:40Z</time></trkpt><trkpt lat="45.805051149700326" lon="13.577565556080897"><ele>8.0</ele><time>2026-05-01T12:53:42Z</time></trkpt><trkpt lat="45.80490736525338" lon="13.57758128590011"><ele>8.0</ele><time>2026-05-01T12:53:44Z</time></trkpt><trkpt lat="45.804823226456804" lon="13.577674698250389"><ele>8.0</ele><time>2026-05-01T12:53:46Z</time></trkpt><trkpt lat="45.804747831930165" lon="13.577768406083672"><ele>8.0</ele><time>2026-05-01T12:53:48Z</time></trkpt><trkpt lat="45.80465978387419" lon="13.577903071074921"><ele>8.0</ele><time>2026-05-01T12:53:50Z</time></trkpt><trkpt lat="45.80461184500828" lon="13.578000237493594"><ele>8.0</ele><time>2026-05-01T12:53:51Z</time></trkpt><trkpt lat="45.80456118733855" lon="13.578113820945475"><ele>8.200000000000001</ele><time>2026-05-01T12:53:52Z</time></trkpt><trkpt lat="45.80450413562684" lon="13.578239473350807"><ele>8.4</ele><time>2026-05-01T12:53:53Z</time></trkpt><trkpt lat="45.804440906840334" lon="13.578358669870914"><ele>8.600000000000001</ele><time>2026-05-01T12:53:54Z</time></trkpt><trkpt lat="45.80437553889462" lon="13.578467486537745"><ele>8.8</ele><time>2026-05-01T12:53:55Z</time></trkpt><trkpt lat="45.8043064543523" lon="13.578581092466093"><ele>9.0</ele><time>2026-05-01T12:53:56Z</time></trkpt><trkpt lat="45.804232029543485" lon="13.578708142412228"><ele>10.5</ele><time>2026-05-01T12:53:57Z</time></trkpt><trkpt lat="45.80415253807737" lon="13.578847717723745"><ele>12.0</ele><time>2026-05-01T12:53:58Z</time></trkpt><trkpt lat="45.80406005890068" lon="13.578988259262221"><ele>13.5</ele><time>2026-05-01T12:53:59Z</time></trkpt><trkpt lat="45.8039597505231" lon="13.57912585337919"><ele>15.0</ele><time>2026-05-01T12:54:00Z</time></trkpt><trkpt lat="45.803859585190864" lon="13.57926582608669"><ele>15.0</ele><time>2026-05-01T12:54:01Z</time></trkpt><trkpt lat="45.80376471169672" lon="13.579405479457366"><ele>15.0</ele><time>2026-05-01T12:54:02Z</time></trkpt><trkpt lat="45.803660260869016" lon="13.57954476433153"><ele>15.0</ele><time>2026-05-01T12:54:03Z</time></trkpt><trkpt lat="45.80354828993221" lon="13.579694773076012"><ele>15.0</ele><time>2026-05-01T12:54:04Z</time></trkpt><trkpt lat="45.80342505870061" lon="13.57984856232317"><ele>15.0</ele><time>2026-05-01T12:54:05Z</time></trkpt><trkpt lat="45.80328974666325" lon="13.580021097785574"><ele>15.0</ele><time>2026-05-01T12:54:06Z</time></trkpt><trkpt lat="45.80315075833833" lon="13.580209235731065"><ele>15.0</ele><time>2026-05-01T12:54:07Z</time></trkpt><trkpt lat="45.80300161129575" lon="13.580394543804761"><ele>15.0</ele><time>2026-05-01T12:54:08Z</time></trkpt><trkpt lat="45.80283651895889" lon="13.580592368931107"><ele>15.0</ele><time>2026-05-01T12:54:09Z</time></trkpt><trkpt lat="45.802660010614275" lon="13.58079565329537"><ele>15.0</ele><time>2026-05-01T12:54:10Z</time></trkpt><trkpt lat="45.80247385439987" lon="13.580995366117678"><ele>12.0</ele><time>2026-05-01T12:54:11Z</time></trkpt><trkpt lat="45.8022777584882" lon="13.581193722190918"><ele>9.0</ele><time>2026-05-01T12:54:12Z</time></trkpt><trkpt lat="45.80207043360171" lon="13.581389276265474"><ele>9.0</ele><time>2026-05-01T12:54:13Z</time></trkpt><trkpt lat="45.8018542265888" lon="13.581581975901617"><ele>9.0</ele><time>2026-05-01T12:54:14Z</time></trkpt><trkpt lat="45.801628784835785" lon="13.581772388452725"><ele>7.0</ele><time>2026-05-01T12:54:15Z</time></trkpt><trkpt lat="45.80139027033259" lon="13.581959049704356"><ele>5.0</ele><time>2026-05-01T12:54:16Z</time></trkpt><trkpt lat="45.80114018100236" lon="13.582137543259378"><ele>9.0</ele><time>2026-05-01T12:54:17Z</time></trkpt><trkpt lat="45.800885620785394" lon="13.582312622087903"><ele>13.0</ele><time>2026-05-01T12:54:18Z</time></trkpt><trkpt lat="45.800629314496746" lon="13.582484617207488"><ele>13.0</ele><time>2026-05-01T12:54:19Z</time></trkpt><trkpt lat="45.80036752073592" lon="13.582653593106107"><ele>13.0</ele><time>2026-05-01T12:54:20Z</time></trkpt><trkpt lat="45.80009879001814" lon="13.58282233596878"><ele>10.0</ele><time>2026-05-01T12:54:21Z</time></trkpt><trkpt lat="45.79982481787084" lon="13.582994293446335"><ele>7.0</ele><time>2026-05-01T12:54:22Z</time></trkpt><trkpt lat="45.79954781706665" lon="13.583165320974834"><ele>11.0</ele><time>2026-05-01T12:54:23Z</time></trkpt><trkpt lat="45.79926809812734" lon="13.583338140227678"><ele>15.0</ele><time>2026-05-01T12:54:24Z</time></trkpt><trkpt lat="45.79898498587589" lon="13.583512998064869"><ele>9.0</ele><time>2026-05-01T12:54:25Z</time></trkpt><trkpt lat="45.79869823416432" lon="13.583693982679607"><ele>3.0</ele><time>2026-05-01T12:54:26Z</time></trkpt><trkpt lat="45.79841018156941" lon="13.583878410066504"><ele>3.0</ele><time>2026-05-01T12:54:27Z</time></trkpt><trkpt lat="45.79811986612369" lon="13.584067680913021"><ele>3.0</ele><time>2026-05-01T12:54:28Z</time></trkpt><trkpt lat="45.79782604206739" lon="13.584262884322998"><ele>3.0</ele><time>2026-05-01T12:54:29Z</time></trkpt><trkpt lat="45.797533704631725" lon="13.584455142233754"><ele>3.0</ele><time>2026-05-01T12:54:30Z</time></trkpt><trkpt lat="45.79723916773815" lon="13.584658197143048"><ele>3.0</ele><time>2026-05-01T12:54:31Z</time></trkpt><trkpt lat="45.796942608546274" lon="13.584860214211862"><ele>3.0</ele><time>2026-05-01T12:54:32Z</time></trkpt><trkpt lat="45.79664170000799" lon="13.58506667411509"><ele>3.0</ele><time>2026-05-01T12:54:33Z</time></trkpt><trkpt lat="45.796341726248706" lon="13.585279616277116"><ele>3.0</ele><time>2026-05-01T12:54:34Z</time></trkpt><trkpt lat="45.796041000049335" lon="13.585494890597763"><ele>8.5</ele><time>2026-05-01T12:54:35Z</time></trkpt><trkpt lat="45.79574162486657" lon="13.5857121860994"><ele>14.0</ele><time>2026-05-01T12:54:36Z</time></trkpt><trkpt lat="45.795442892859" lon="13.585929875948295"><ele>20.5</ele><time>2026-05-01T12:54:37Z</time></trkpt><trkpt lat="45.79513998117394" lon="13.586146527635117"><ele>27.0</ele><time>2026-05-01T12:54:38Z</time></trkpt><trkpt lat="45.79483628507171" lon="13.586367047956385"><ele>27.0</ele><time>2026-05-01T12:54:39Z</time></trkpt><trkpt lat="45.794529994482055" lon="13.58658897457643"><ele>27.0</ele><time>2026-05-01T12:54:40Z</time></trkpt><trkpt lat="45.79422607897564" lon="13.586813100314707"><ele>26.0</ele><time>2026-05-01T12:54:41Z</time></trkpt><trkpt lat="45.7939306618082" lon="13.58703848038147"><ele>25.0</ele><time>2026-05-01T12:54:42Z</time></trkpt><trkpt lat="45.79363990320078" lon="13.587265373790077"><ele>18.5</ele><time>2026-05-01T12:54:43Z</time></trkpt><trkpt lat="45.79335800188847" lon="13.587506631612328"><ele>12.0</ele><time>2026-05-01T12:54:44Z</time></trkpt><trkpt lat="45.79308171486227" lon="13.587763924496516"><ele>9.5</ele><time>2026-05-01T12:54:45Z</time></trkpt><trkpt lat="45.79281254932055" lon="13.588042230880244"><ele>7.0</ele><time>2026-05-01T12:54:46Z</time></trkpt><trkpt lat="45.792548651886754" lon="13.588340554623644"><ele>7.0</ele><time>2026-05-01T12:54:47Z</time></trkpt><trkpt lat="45.79228931942977" lon="13.588651806560964"><ele>7.0</ele><time>2026-05-01T12:54:48Z</time></trkpt><trkpt lat="45.79203807506398" lon="13.588977451699424"><ele>9.0</ele><time>2026-05-01T12:54:49Z</time></trkpt><trkpt lat="45.79179694966018" lon="13.589319649404253"><ele>11.0</ele><time>2026-05-01T12:54:50Z</time></trkpt><trkpt lat="45.79156534236408" lon="13.58967386639325"><ele>14.5</ele><time>2026-05-01T12:54:51Z</time></trkpt><trkpt lat="45.79134081935161" lon="13.590041027362066"><ele>18.0</ele><time>2026-05-01T12:54:52Z</time></trkpt><trkpt lat="45.79112205183247" lon="13.590416572610017"><ele>17.5</ele><time>2026-05-01T12:54:53Z</time></trkpt><trkpt lat="45.79090084582169" lon="13.590790697455352"><ele>17.0</ele><time>2026-05-01T12:54:54Z</time></trkpt><trkpt lat="45.79067555132042" lon="13.591161903552926"><ele>20.0</ele><time>2026-05-01T12:54:55Z</time></trkpt><trkpt lat="45.79044772526461" lon="13.591532596578014"><ele>23.0</ele><time>2026-05-01T12:54:56Z</time></trkpt><trkpt lat="45.790214506176184" lon="13.591894304907173"><ele>22.0</ele><time>2026-05-01T12:54:57Z</time></trkpt><trkpt lat="45.789968798231385" lon="13.592242182677603"><ele>21.0</ele><time>2026-05-01T12:54:58Z</time></trkpt><trkpt lat="45.7897169508937" lon="13.59256051145993"><ele>22.5</ele><time>2026-05-01T12:54:59Z</time></trkpt><trkpt lat="45.78945686779845" lon="13.592866149191272"><ele>24.0</ele><time>2026-05-01T12:55:00Z</time></trkpt><trkpt lat="45.789185480743235" lon="13.593155465465648"><ele>24.0</ele><time>2026-05-01T12:55:01Z</time></trkpt><trkpt lat="45.788902672148645" lon="13.59342321287514"><ele>24.0</ele><time>2026-05-01T12:55:02Z</time></trkpt><trkpt lat="45.78861078200873" lon="13.593672176497408"><ele>24.0</ele><time>2026-05-01T12:55:03Z</time></trkpt><trkpt lat="45.788311962980046" lon="13.593903803687503"><ele>24.0</ele><time>2026-05-01T12:55:04Z</time></trkpt><trkpt lat="45.78800617858826" lon="13.594119736611635"><ele>24.0</ele><time>2026-05-01T12:55:05Z</time></trkpt><trkpt lat="45.7876934386075" lon="13.594328722339972"><ele>24.0</ele><time>2026-05-01T12:55:06Z</time></trkpt><trkpt lat="45.787382239393935" lon="13.594537112066053"><ele>25.5</ele><time>2026-05-01T12:55:07Z</time></trkpt><trkpt lat="45.787070924896874" lon="13.5947468535776"><ele>27.0</ele><time>2026-05-01T12:55:08Z</time></trkpt><trkpt lat="45.7867615841944" lon="13.594957931262705"><ele>27.0</ele><time>2026-05-01T12:55:09Z</time></trkpt><trkpt lat="45.786452350282715" lon="13.595168853581551"><ele>27.0</ele><time>2026-05-01T12:55:10Z</time></trkpt><trkpt lat="45.78614224933372" lon="13.595380286839635"><ele>29.0</ele><time>2026-05-01T12:55:11Z</time></trkpt><trkpt lat="45.78583170702079" lon="13.595588134643473"><ele>31.0</ele><time>2026-05-01T12:55:12Z</time></trkpt><trkpt lat="45.78552094783753" lon="13.595798993685447"><ele>31.0</ele><time>2026-05-01T12:55:13Z</time></trkpt><trkpt lat="45.785210829820876" lon="13.59600951685282"><ele>31.0</ele><time>2026-05-01T12:55:14Z</time></trkpt><trkpt lat="45.7849014765416" lon="13.596220460599275"><ele>31.5</ele><time>2026-05-01T12:55:15Z</time></trkpt><trkpt lat="45.78459145935872" lon="13.59643290421158"><ele>32.0</ele><time>2026-05-01T12:55:16Z</time></trkpt><trkpt lat="45.78428160139756" lon="13.596644930491992"><ele>34.5</ele><time>2026-05-01T12:55:17Z</time></trkpt><trkpt lat="45.78397248476183" lon="13.596854362424686"><ele>37.0</ele><time>2026-05-01T12:55:18Z</time></trkpt><trkpt lat="45.78366251285279" lon="13.597062290524008"><ele>34.0</ele><time>2026-05-01T12:55:19Z</time></trkpt><trkpt lat="45.78335243768802" lon="13.597270513668192"><ele>31.0</ele><time>2026-05-01T12:55:20Z</time></trkpt><trkpt lat="45.78304229352696" lon="13.59747900885498"><ele>31.0</ele><time>2026-05-01T12:55:21Z</time></trkpt><trkpt lat="45.78273288133492" lon="13.597690182954475"><ele>31.0</ele><time>2026-05-01T12:55:22Z</time></trkpt><trkpt lat="45.782424216703504" lon="13.597900504722327"><ele>33.0</ele><time>2026-05-01T12:55:23Z</time></trkpt><trkpt lat="45.78211637763708" lon="13.598112248210908"><ele>35.0</ele><time>2026-05-01T12:55:24Z</time></trkpt><trkpt lat="45.78180762891778" lon="13.598321912619152"><ele>35.0</ele><time>2026-05-01T12:55:25Z</time></trkpt><trkpt lat="45.78149953260634" lon="13.598531343708894"><ele>35.0</ele><time>2026-05-01T12:55:26Z</time></trkpt><trkpt lat="45.781190004845236" lon="13.59874277173214"><ele>37.5</ele><time>2026-05-01T12:55:27Z</time></trkpt><trkpt lat="45.78088177971758" lon="13.598954489692316"><ele>40.0</ele><time>2026-05-01T12:55:28Z</time></trkpt><trkpt lat="45.78057427814806" lon="13.59916981278661"><ele>40.0</ele><time>2026-05-01T12:55:29Z</time></trkpt><trkpt lat="45.78027455021485" lon="13.5994042284721"><ele>40.0</ele><time>2026-05-01T12:55:30Z</time></trkpt><trkpt lat="45.779987681708356" lon="13.599665005672142"><ele>40.5</ele><time>2026-05-01T12:55:31Z</time></trkpt><trkpt lat="45.77971631930287" lon="13.599955055317725"><ele>41.0</ele><time>2026-05-01T12:55:32Z</time></trkpt><trkpt lat="45.77945360712558" lon="13.600261608974854"><ele>41.0</ele><time>2026-05-01T12:55:33Z</time></trkpt><trkpt lat="45.77920955088919" lon="13.600589311603626"><ele>41.0</ele><time>2026-05-01T12:55:34Z</time></trkpt><trkpt lat="45.77898370735993" lon="13.600945437606793"><ele>43.0</ele><time>2026-05-01T12:55:35Z</time></trkpt><trkpt lat="45.77877080373272" lon="13.601319517158709"><ele>45.0</ele><time>2026-05-01T12:55:36Z</time></trkpt><trkpt lat="45.778572069709675" lon="13.601711508665662"><ele>42.5</ele><time>2026-05-01T12:55:37Z</time></trkpt><trkpt lat="45.77838796874931" lon="13.602116478359484"><ele>40.0</ele><time>2026-05-01T12:55:38Z</time></trkpt><trkpt lat="45.77821437018509" lon="13.60253507541973"><ele>43.0</ele><time>2026-05-01T12:55:39Z</time></trkpt><trkpt lat="45.778062271929144" lon="13.602972337986058"><ele>46.0</ele><time>2026-05-01T12:55:40Z</time></trkpt><trkpt lat="45.777932574635976" lon="13.603418990830615"><ele>48.5</ele><time>2026-05-01T12:55:41Z</time></trkpt><trkpt lat="45.77781835231267" lon="13.603875992996626"><ele>51.0</ele><time>2026-05-01T12:55:42Z</time></trkpt><trkpt lat="45.77772028798669" lon="13.604340663091705"><ele>50.0</ele><time>2026-05-01T12:55:43Z</time></trkpt><trkpt lat="45.77762894829176" lon="13.604809057875023"><ele>49.0</ele><time>2026-05-01T12:55:44Z</time></trkpt><trkpt lat="45.77753783413207" lon="13.60527885318955"><ele>50.0</ele><time>2026-05-01T12:55:45Z</time></trkpt><trkpt lat="45.77744347493758" lon="13.605747650190994"><ele>51.0</ele><time>2026-05-01T12:55:46Z</time></trkpt><trkpt lat="45.7773499048096" lon="13.606219064502158"><ele>52.5</ele><time>2026-05-01T12:55:47Z</time></trkpt><trkpt lat="45.777256774094326" lon="13.606689899121527"><ele>54.0</ele><time>2026-05-01T12:55:48Z</time></trkpt><trkpt lat="45.77716391194891" lon="13.607161331790328"><ele>55.5</ele><time>2026-05-01T12:55:49Z</time></trkpt><trkpt lat="45.777070735244386" lon="13.607631167072592"><ele>57.0</ele><time>2026-05-01T12:55:50Z</time></trkpt><trkpt lat="45.77697935621992" lon="13.608102558257528"><ele>57.5</ele><time>2026-05-01T12:55:51Z</time></trkpt><trkpt lat="45.77688567712381" lon="13.608575692937988"><ele>58.0</ele><time>2026-05-01T12:55:52Z</time></trkpt><trkpt lat="45.77679008367784" lon="13.609044710273457"><ele>59.0</ele><time>2026-05-01T12:55:53Z</time></trkpt><trkpt lat="45.77669540909592" lon="13.609514174870117"><ele>60.0</ele><time>2026-05-01T12:55:54Z</time></trkpt><trkpt lat="45.77660200737151" lon="13.609984586654734"><ele>61.0</ele><time>2026-05-01T12:55:55Z</time></trkpt><trkpt lat="45.77650841121898" lon="13.610455190630969"><ele>62.0</ele><time>2026-05-01T12:55:56Z</time></trkpt><trkpt lat="45.776410755644" lon="13.610922634714868"><ele>63.0</ele><time>2026-05-01T12:55:57Z</time></trkpt><trkpt lat="45.776315971314645" lon="13.61137738506214"><ele>64.0</ele><time>2026-05-01T12:55:58Z</time></trkpt><trkpt lat="45.776221913358185" lon="13.611827588484568"><ele>64.0</ele><time>2026-05-01T12:55:59Z</time></trkpt><trkpt lat="45.776127484091525" lon="13.612282341052488"><ele>64.0</ele><time>2026-05-01T12:56:00Z</time></trkpt><trkpt lat="45.77603518989577" lon="13.612740306312844"><ele>62.5</ele><time>2026-05-01T12:56:01Z</time></trkpt><trkpt lat="45.775944143880544" lon="13.613202732135418"><ele>61.0</ele><time>2026-05-01T12:56:02Z</time></trkpt><trkpt lat="45.77586473551719" lon="13.613669146444918"><ele>61.0</ele><time>2026-05-01T12:56:03Z</time></trkpt><trkpt lat="45.77580050097482" lon="13.614141611257137"><ele>61.0</ele><time>2026-05-01T12:56:04Z</time></trkpt><trkpt lat="45.775745706822825" lon="13.614619248363606"><ele>61.5</ele><time>2026-05-01T12:56:05Z</time></trkpt><trkpt lat="45.77570295150819" lon="13.61510065500486"><ele>62.0</ele><time>2026-05-01T12:56:06Z</time></trkpt><trkpt lat="45.77567269198105" lon="13.615584457228747"><ele>62.5</ele><time>2026-05-01T12:56:07Z</time></trkpt><trkpt lat="45.77564330416241" lon="13.616062779815387"><ele>63.0</ele><time>2026-05-01T12:56:08Z</time></trkpt><trkpt lat="45.7756141732728" lon="13.616545006715297"><ele>63.5</ele><time>2026-05-01T12:56:09Z</time></trkpt><trkpt lat="45.77558788764181" lon="13.617023614008827"><ele>64.0</ele><time>2026-05-01T12:56:10Z</time></trkpt><trkpt lat="45.77556023225928" lon="13.617500705567306"><ele>63.5</ele><time>2026-05-01T12:56:11Z</time></trkpt><trkpt lat="45.77552821206111" lon="13.61797501870456"><ele>63.0</ele><time>2026-05-01T12:56:12Z</time></trkpt><trkpt lat="45.7754983667973" lon="13.61844371587995"><ele>63.0</ele><time>2026-05-01T12:56:13Z</time></trkpt><trkpt lat="45.7754699211781" lon="13.618913910363114"><ele>63.0</ele><time>2026-05-01T12:56:14Z</time></trkpt><trkpt lat="45.77543954805446" lon="13.61938976263377"><ele>63.5</ele><time>2026-05-01T12:56:15Z</time></trkpt><trkpt lat="45.77540880773691" lon="13.619864900135488"><ele>64.0</ele><time>2026-05-01T12:56:16Z</time></trkpt><trkpt lat="45.77538016445102" lon="13.62033098147334"><ele>62.0</ele><time>2026-05-01T12:56:17Z</time></trkpt><trkpt lat="45.77535210905634" lon="13.62078497418409"><ele>60.0</ele><time>2026-05-01T12:56:18Z</time></trkpt><trkpt lat="45.775321617970405" lon="13.621228938316602"><ele>60.0</ele><time>2026-05-01T12:56:19Z</time></trkpt><trkpt lat="45.77529276592049" lon="13.621666637054293"><ele>60.0</ele><time>2026-05-01T12:56:20Z</time></trkpt><trkpt lat="45.775268102246166" lon="13.62210252432745"><ele>60.0</ele><time>2026-05-01T12:56:21Z</time></trkpt><trkpt lat="45.77523969540928" lon="13.622543183844666"><ele>60.0</ele><time>2026-05-01T12:56:22Z</time></trkpt><trkpt lat="45.775210446754016" lon="13.62299295837617"><ele>60.5</ele><time>2026-05-01T12:56:23Z</time></trkpt><trkpt lat="45.77517666020846" lon="13.623445204435438"><ele>61.0</ele><time>2026-05-01T12:56:24Z</time></trkpt><trkpt lat="45.77514659805235" lon="13.623897847083548"><ele>64.0</ele><time>2026-05-01T12:56:25Z</time></trkpt><trkpt lat="45.77511798373685" lon="13.624355591388445"><ele>67.0</ele><time>2026-05-01T12:56:26Z</time></trkpt><trkpt lat="45.775090564155086" lon="13.624813728716948"><ele>69.5</ele><time>2026-05-01T12:56:27Z</time></trkpt><trkpt lat="45.775061867917174" lon="13.625268501919182"><ele>72.0</ele><time>2026-05-01T12:56:28Z</time></trkpt><trkpt lat="45.775031293871244" lon="13.625719000305514"><ele>72.0</ele><time>2026-05-01T12:56:29Z</time></trkpt><trkpt lat="45.77500279612945" lon="13.626160843121914"><ele>72.0</ele><time>2026-05-01T12:56:30Z</time></trkpt><trkpt lat="45.774973847307706" lon="13.62660642459694"><ele>71.5</ele><time>2026-05-01T12:56:31Z</time></trkpt><trkpt lat="45.77494308131727" lon="13.627061201828756"><ele>71.0</ele><time>2026-05-01T12:56:32Z</time></trkpt><trkpt lat="45.774913646355074" lon="13.627520075197499"><ele>71.5</ele><time>2026-05-01T12:56:33Z</time></trkpt><trkpt lat="45.77488512801627" lon="13.627982240431674"><ele>72.0</ele><time>2026-05-01T12:56:34Z</time></trkpt><trkpt lat="45.774854616031114" lon="13.628436189825116"><ele>74.5</ele><time>2026-05-01T12:56:35Z</time></trkpt><trkpt lat="45.77482230426557" lon="13.628893418808781"><ele>77.0</ele><time>2026-05-01T12:56:36Z</time></trkpt><trkpt lat="45.77478882931683" lon="13.629353625788083"><ele>77.0</ele><time>2026-05-01T12:56:37Z</time></trkpt><trkpt lat="45.774753712510964" lon="13.629806541038214"><ele>77.0</ele><time>2026-05-01T12:56:38Z</time></trkpt><trkpt lat="45.77472096482313" lon="13.630257905547793"><ele>76.5</ele><time>2026-05-01T12:56:39Z</time></trkpt><trkpt lat="45.77469288899446" lon="13.6307062441312"><ele>76.0</ele><time>2026-05-01T12:56:40Z</time></trkpt><trkpt lat="45.77466830548973" lon="13.631163562851231"><ele>75.5</ele><time>2026-05-01T12:56:41Z</time></trkpt><trkpt lat="45.774635958558406" lon="13.631624324460343"><ele>75.0</ele><time>2026-05-01T12:56:42Z</time></trkpt><trkpt lat="45.77460149399221" lon="13.632085886034154"><ele>76.0</ele><time>2026-05-01T12:56:43Z</time></trkpt><trkpt lat="45.77456364325109" lon="13.632540027548131"><ele>77.0</ele><time>2026-05-01T12:56:44Z</time></trkpt><trkpt lat="45.77452580783851" lon="13.632994835778533"><ele>78.5</ele><time>2026-05-01T12:56:45Z</time></trkpt><trkpt lat="45.77448519211814" lon="13.633451948154962"><ele>80.0</ele><time>2026-05-01T12:56:46Z</time></trkpt><trkpt lat="45.77444576292489" lon="13.633913576431043"><ele>81.0</ele><time>2026-05-01T12:56:47Z</time></trkpt><trkpt lat="45.77440614233924" lon="13.634380019336325"><ele>82.0</ele><time>2026-05-01T12:56:48Z</time></trkpt><trkpt lat="45.77436638303907" lon="13.634847629847961"><ele>84.5</ele><time>2026-05-01T12:56:49Z</time></trkpt><trkpt lat="45.774326437530696" lon="13.635317256002034"><ele>87.0</ele><time>2026-05-01T12:56:50Z</time></trkpt><trkpt lat="45.77428755167471" lon="13.635791283636218"><ele>88.0</ele><time>2026-05-01T12:56:51Z</time></trkpt><trkpt lat="45.77424678731949" lon="13.636268139021773"><ele>89.0</ele><time>2026-05-01T12:56:52Z</time></trkpt><trkpt lat="45.77420452553797" lon="13.636747991840105"><ele>87.0</ele><time>2026-05-01T12:56:53Z</time></trkpt><trkpt lat="45.77416019147776" lon="13.63722624720583"><ele>85.0</ele><time>2026-05-01T12:56:54Z</time></trkpt><trkpt lat="45.77411364265429" lon="13.637707607159337"><ele>86.0</ele><time>2026-05-01T12:56:55Z</time></trkpt><trkpt lat="45.774057968210094" lon="13.638189589275786"><ele>87.0</ele><time>2026-05-01T12:56:56Z</time></trkpt><trkpt lat="45.77398066768614" lon="13.638667122046112"><ele>88.5</ele><time>2026-05-01T12:56:57Z</time></trkpt><trkpt lat="45.77388819710257" lon="13.639129687622615"><ele>90.0</ele><time>2026-05-01T12:56:58Z</time></trkpt><trkpt lat="45.77377720974576" lon="13.639573303670668"><ele>90.5</ele><time>2026-05-01T12:56:59Z</time></trkpt><trkpt lat="45.77365200476741" lon="13.640000704209438"><ele>91.0</ele><time>2026-05-01T12:57:00Z</time></trkpt><trkpt lat="45.773507241761905" lon="13.640406304734586"><ele>90.5</ele><time>2026-05-01T12:57:01Z</time></trkpt><trkpt lat="45.77334939404229" lon="13.640800622671167"><ele>90.0</ele><time>2026-05-01T12:57:02Z</time></trkpt><trkpt lat="45.77317510027922" lon="13.64117799115728"><ele>90.0</ele><time>2026-05-01T12:57:03Z</time></trkpt><trkpt lat="45.77298925251885" lon="13.641542229430648"><ele>90.0</ele><time>2026-05-01T12:57:04Z</time></trkpt><trkpt lat="45.77279155237102" lon="13.641884125495684"><ele>88.5</ele><time>2026-05-01T12:57:05Z</time></trkpt><trkpt lat="45.77258071593364" lon="13.642201566829131"><ele>87.0</ele><time>2026-05-01T12:57:06Z</time></trkpt><trkpt lat="45.77235448328954" lon="13.642507228941268"><ele>90.5</ele><time>2026-05-01T12:57:07Z</time></trkpt><trkpt lat="45.772116989883564" lon="13.642802756322359"><ele>94.0</ele><time>2026-05-01T12:57:08Z</time></trkpt><trkpt lat="45.77187261972149" lon="13.643088654532901"><ele>92.5</ele><time>2026-05-01T12:57:09Z</time></trkpt><trkpt lat="45.77162368355546" lon="13.643375242903904"><ele>91.0</ele><time>2026-05-01T12:57:10Z</time></trkpt><trkpt lat="45.77137125095533" lon="13.643656881454444"><ele>92.5</ele><time>2026-05-01T12:57:11Z</time></trkpt><trkpt lat="45.771117463424865" lon="13.643948869112124"><ele>94.0</ele><time>2026-05-01T12:57:12Z</time></trkpt><trkpt lat="45.77086374700318" lon="13.64423157449706"><ele>96.5</ele><time>2026-05-01T12:57:13Z</time></trkpt><trkpt lat="45.770610121075" lon="13.644517035564977"><ele>99.0</ele><time>2026-05-01T12:57:14Z</time></trkpt><trkpt lat="45.77035615497612" lon="13.64480437917084"><ele>98.0</ele><time>2026-05-01T12:57:15Z</time></trkpt><trkpt lat="45.77009876743025" lon="13.645093514552658"><ele>97.0</ele><time>2026-05-01T12:57:16Z</time></trkpt><trkpt lat="45.76984191232628" lon="13.64538318021585"><ele>97.0</ele><time>2026-05-01T12:57:17Z</time></trkpt><trkpt lat="45.76958706168956" lon="13.645674109068729"><ele>97.0</ele><time>2026-05-01T12:57:18Z</time></trkpt><trkpt lat="45.76933421343657" lon="13.645965627936102"><ele>96.5</ele><time>2026-05-01T12:57:19Z</time></trkpt><trkpt lat="45.769085080660645" lon="13.646252617309427"><ele>96.0</ele><time>2026-05-01T12:57:20Z</time></trkpt><trkpt lat="45.768838695664066" lon="13.646534706683413"><ele>96.0</ele><time>2026-05-01T12:57:21Z</time></trkpt><trkpt lat="45.768588836346254" lon="13.646817993955542"><ele>96.0</ele><time>2026-05-01T12:57:22Z</time></trkpt><trkpt lat="45.76833596950301" lon="13.647103972761457"><ele>96.0</ele><time>2026-05-01T12:57:23Z</time></trkpt><trkpt lat="45.7680863855755" lon="13.647400992343911"><ele>96.0</ele><time>2026-05-01T12:57:24Z</time></trkpt><trkpt lat="45.767840183402264" lon="13.647704824474582"><ele>98.0</ele><time>2026-05-01T12:57:25Z</time></trkpt><trkpt lat="45.76760015330402" lon="13.64801088098043"><ele>100.0</ele><time>2026-05-01T12:57:26Z</time></trkpt><trkpt lat="45.767364304127" lon="13.648325484107842"><ele>101.5</ele><time>2026-05-01T12:57:27Z</time></trkpt><trkpt lat="45.7671343044452" lon="13.648648629591495"><ele>103.0</ele><time>2026-05-01T12:57:28Z</time></trkpt><trkpt lat="45.76690842403387" lon="13.648983605418938"><ele>102.0</ele><time>2026-05-01T12:57:29Z</time></trkpt><trkpt lat="45.76670260737925" lon="13.649325511516903"><ele>101.0</ele><time>2026-05-01T12:57:30Z</time></trkpt><trkpt lat="45.76650888771302" lon="13.64967452611686"><ele>104.0</ele><time>2026-05-01T12:57:31Z</time></trkpt><trkpt lat="45.76632528831117" lon="13.650030899630243"><ele>107.0</ele><time>2026-05-01T12:57:32Z</time></trkpt><trkpt lat="45.766150688324615" lon="13.650391938952152"><ele>107.5</ele><time>2026-05-01T12:57:33Z</time></trkpt><trkpt lat="45.76598948924384" lon="13.650758285177616"><ele>108.0</ele><time>2026-05-01T12:57:34Z</time></trkpt><trkpt lat="45.765838774387525" lon="13.651128212687459"><ele>108.5</ele><time>2026-05-01T12:57:35Z</time></trkpt><trkpt lat="45.765698771824376" lon="13.651502974850848"><ele>109.0</ele><time>2026-05-01T12:57:36Z</time></trkpt><trkpt lat="45.76556320251418" lon="13.651888507214567"><ele>111.5</ele><time>2026-05-01T12:57:37Z</time></trkpt><trkpt lat="45.76543186347285" lon="13.652271414392962"><ele>114.0</ele><time>2026-05-01T12:57:38Z</time></trkpt><trkpt lat="45.76530334267522" lon="13.652660618857992"><ele>114.5</ele><time>2026-05-01T12:57:39Z</time></trkpt><trkpt lat="45.7651792968719" lon="13.653056592338679"><ele>115.0</ele><time>2026-05-01T12:57:40Z</time></trkpt><trkpt lat="45.76505446763252" lon="13.653456301033689"><ele>115.0</ele><time>2026-05-01T12:57:41Z</time></trkpt><trkpt lat="45.76493493741272" lon="13.653865273481085"><ele>115.0</ele><time>2026-05-01T12:57:42Z</time></trkpt><trkpt lat="45.764813161938825" lon="13.6542798874971"><ele>115.0</ele><time>2026-05-01T12:57:43Z</time></trkpt><trkpt lat="45.76468836537031" lon="13.65469743404108"><ele>115.0</ele><time>2026-05-01T12:57:44Z</time></trkpt><trkpt lat="45.764564489977055" lon="13.655121443125049"><ele>115.5</ele><time>2026-05-01T12:57:45Z</time></trkpt><trkpt lat="45.764439207822846" lon="13.65554516873777"><ele>116.0</ele><time>2026-05-01T12:57:46Z</time></trkpt><trkpt lat="45.76431286666228" lon="13.655969465154604"><ele>116.0</ele><time>2026-05-01T12:57:47Z</time></trkpt><trkpt lat="45.76418671179558" lon="13.656392406192257"><ele>116.0</ele><time>2026-05-01T12:57:48Z</time></trkpt><trkpt lat="45.76406110017817" lon="13.656818788040093"><ele>116.0</ele><time>2026-05-01T12:57:49Z</time></trkpt><trkpt lat="45.7639351813066" lon="13.657247170477604"><ele>116.0</ele><time>2026-05-01T12:57:50Z</time></trkpt><trkpt lat="45.76380842386124" lon="13.65767930126323"><ele>116.0</ele><time>2026-05-01T12:57:51Z</time></trkpt><trkpt lat="45.763679922805615" lon="13.658114720415064"><ele>116.0</ele><time>2026-05-01T12:57:52Z</time></trkpt><trkpt lat="45.76354899515982" lon="13.658551861097173"><ele>121.0</ele><time>2026-05-01T12:57:53Z</time></trkpt><trkpt lat="45.76341603276264" lon="13.65898452298863"><ele>126.0</ele><time>2026-05-01T12:57:54Z</time></trkpt><trkpt lat="45.76328110767847" lon="13.659418316955637"><ele>126.0</ele><time>2026-05-01T12:57:55Z</time></trkpt><trkpt lat="45.763143376207836" lon="13.65985078146329"><ele>126.0</ele><time>2026-05-01T12:57:56Z</time></trkpt><trkpt lat="45.76300542744014" lon="13.660286544059396"><ele>126.5</ele><time>2026-05-01T12:57:57Z</time></trkpt><trkpt lat="45.76286843260802" lon="13.660724735275279"><ele>127.0</ele><time>2026-05-01T12:57:58Z</time></trkpt><trkpt lat="45.76273007804605" lon="13.661159548793101"><ele>125.5</ele><time>2026-05-01T12:57:59Z</time></trkpt><trkpt lat="45.7625881017227" lon="13.661593781312757"><ele>124.0</ele><time>2026-05-01T12:58:00Z</time></trkpt><trkpt lat="45.76244439462428" lon="13.66202819683615"><ele>123.5</ele><time>2026-05-01T12:58:01Z</time></trkpt><trkpt lat="45.76230048512699" lon="13.662458568409907"><ele>123.0</ele><time>2026-05-01T12:58:02Z</time></trkpt><trkpt lat="45.7621518478644" lon="13.662888669288266"><ele>122.5</ele><time>2026-05-01T12:58:03Z</time></trkpt><trkpt lat="45.76200352891997" lon="13.663323942008498"><ele>122.0</ele><time>2026-05-01T12:58:04Z</time></trkpt><trkpt lat="45.7618550600064" lon="13.66376857933526"><ele>122.0</ele><time>2026-05-01T12:58:05Z</time></trkpt><trkpt lat="45.76170110058925" lon="13.664209382686854"><ele>122.0</ele><time>2026-05-01T12:58:06Z</time></trkpt><trkpt lat="45.761551258494364" lon="13.664654137240234"><ele>121.0</ele><time>2026-05-01T12:58:07Z</time></trkpt><trkpt lat="45.761400336566425" lon="13.665096671514808"><ele>120.0</ele><time>2026-05-01T12:58:08Z</time></trkpt><trkpt lat="45.761250446356804" lon="13.665540483961413"><ele>120.0</ele><time>2026-05-01T12:58:09Z</time></trkpt><trkpt lat="45.76110269232433" lon="13.665982684454336"><ele>120.0</ele><time>2026-05-01T12:58:10Z</time></trkpt><trkpt lat="45.76095392566334" lon="13.666420880810378"><ele>118.0</ele><time>2026-05-01T12:58:11Z</time></trkpt><trkpt lat="45.760804862265616" lon="13.666858201636463"><ele>116.0</ele><time>2026-05-01T12:58:12Z</time></trkpt><trkpt lat="45.76065809851991" lon="13.667289267137217"><ele>113.5</ele><time>2026-05-01T12:58:13Z</time></trkpt><trkpt lat="45.76051094598996" lon="13.667721032509696"><ele>111.0</ele><time>2026-05-01T12:58:14Z</time></trkpt><trkpt lat="45.76035938928698" lon="13.66815409502474"><ele>109.0</ele><time>2026-05-01T12:58:15Z</time></trkpt><trkpt lat="45.76020449648181" lon="13.668585400149807"><ele>107.0</ele><time>2026-05-01T12:58:16Z</time></trkpt><trkpt lat="45.76004256345363" lon="13.669010552075699"><ele>112.5</ele><time>2026-05-01T12:58:17Z</time></trkpt><trkpt lat="45.75986547377553" lon="13.669421997059759"><ele>118.0</ele><time>2026-05-01T12:58:18Z</time></trkpt><trkpt lat="45.75967222533599" lon="13.669820151006093"><ele>119.0</ele><time>2026-05-01T12:58:19Z</time></trkpt><trkpt lat="45.75946805088912" lon="13.67020547159299"><ele>120.0</ele><time>2026-05-01T12:58:20Z</time></trkpt><trkpt lat="45.759248810493226" lon="13.670566415238765"><ele>122.0</ele><time>2026-05-01T12:58:21Z</time></trkpt><trkpt lat="45.75901649532187" lon="13.670904050914183"><ele>124.0</ele><time>2026-05-01T12:58:22Z</time></trkpt><trkpt lat="45.758768367054095" lon="13.671210576521842"><ele>126.0</ele><time>2026-05-01T12:58:23Z</time></trkpt><trkpt lat="45.7585113128188" lon="13.671503517931512"><ele>128.0</ele><time>2026-05-01T12:58:24Z</time></trkpt><trkpt lat="45.75824261845278" lon="13.671774791851137"><ele>130.0</ele><time>2026-05-01T12:58:25Z</time></trkpt><trkpt lat="45.75796568449275" lon="13.672023151963936"><ele>132.0</ele><time>2026-05-01T12:58:26Z</time></trkpt><trkpt lat="45.75767745609664" lon="13.672253948595104"><ele>132.0</ele><time>2026-05-01T12:58:27Z</time></trkpt><trkpt lat="45.757382358213015" lon="13.672476076624326"><ele>132.0</ele><time>2026-05-01T12:58:28Z</time></trkpt><trkpt lat="45.75708109504953" lon="13.672692541216845"><ele>134.5</ele><time>2026-05-01T12:58:29Z</time></trkpt><trkpt lat="45.7567862301399" lon="13.67290332275488"><ele>137.0</ele><time>2026-05-01T12:58:30Z</time></trkpt><trkpt lat="45.756497153156126" lon="13.673106277675297"><ele>137.0</ele><time>2026-05-01T12:58:31Z</time></trkpt><trkpt lat="45.756214145195685" lon="13.673307613403662"><ele>137.0</ele><time>2026-05-01T12:58:32Z</time></trkpt><trkpt lat="45.75593507739705" lon="13.673506218085235"><ele>140.0</ele><time>2026-05-01T12:58:33Z</time></trkpt><trkpt lat="45.75565927434808" lon="13.673705556570678"><ele>143.0</ele><time>2026-05-01T12:58:34Z</time></trkpt><trkpt lat="45.75538217199838" lon="13.673905958070865"><ele>140.5</ele><time>2026-05-01T12:58:35Z</time></trkpt><trkpt lat="45.75510548285355" lon="13.674111267779825"><ele>138.0</ele><time>2026-05-01T12:58:36Z</time></trkpt><trkpt lat="45.75482865965032" lon="13.67432453845027"><ele>138.0</ele><time>2026-05-01T12:58:37Z</time></trkpt><trkpt lat="45.75454799350702" lon="13.674543786266174"><ele>138.0</ele><time>2026-05-01T12:58:38Z</time></trkpt><trkpt lat="45.75426375383328" lon="13.674764527485175"><ele>135.5</ele><time>2026-05-01T12:58:39Z</time></trkpt><trkpt lat="45.75397594812419" lon="13.674977293129109"><ele>133.0</ele><time>2026-05-01T12:58:40Z</time></trkpt><trkpt lat="45.753685360791735" lon="13.67518786046695"><ele>131.0</ele><time>2026-05-01T12:58:41Z</time></trkpt><trkpt lat="45.75339693323518" lon="13.675408747617665"><ele>129.0</ele><time>2026-05-01T12:58:42Z</time></trkpt><trkpt lat="45.753105595320534" lon="13.6756342678738"><ele>129.0</ele><time>2026-05-01T12:58:43Z</time></trkpt><trkpt lat="45.7528135056082" lon="13.675872469479033"><ele>129.0</ele><time>2026-05-01T12:58:44Z</time></trkpt><trkpt lat="45.752527446309074" lon="13.676120917573538"><ele>128.5</ele><time>2026-05-01T12:58:45Z</time></trkpt><trkpt lat="45.75224945194663" lon="13.67638176905294"><ele>128.0</ele><time>2026-05-01T12:58:46Z</time></trkpt><trkpt lat="45.751971890276195" lon="13.676653624453834"><ele>129.5</ele><time>2026-05-01T12:58:47Z</time></trkpt><trkpt lat="45.751694409139475" lon="13.67693868761796"><ele>131.0</ele><time>2026-05-01T12:58:48Z</time></trkpt><trkpt lat="45.75142322416179" lon="13.677235251519393"><ele>131.0</ele><time>2026-05-01T12:58:49Z</time></trkpt><trkpt lat="45.7511519550993" lon="13.677539716112502"><ele>131.0</ele><time>2026-05-01T12:58:50Z</time></trkpt><trkpt lat="45.75088458277297" lon="13.677855654176275"><ele>131.5</ele><time>2026-05-01T12:58:51Z</time></trkpt><trkpt lat="45.75062523374165" lon="13.67817935057825"><ele>132.0</ele><time>2026-05-01T12:58:52Z</time></trkpt><trkpt lat="45.750371840884014" lon="13.678513431181342"><ele>134.0</ele><time>2026-05-01T12:58:53Z</time></trkpt><trkpt lat="45.75012466247609" lon="13.678854577042014"><ele>136.0</ele><time>2026-05-01T12:58:54Z</time></trkpt><trkpt lat="45.749885681149124" lon="13.679200667198307"><ele>137.5</ele><time>2026-05-01T12:58:55Z</time></trkpt><trkpt lat="45.749655561925145" lon="13.679554086528087"><ele>139.0</ele><time>2026-05-01T12:58:56Z</time></trkpt><trkpt lat="45.74943032251453" lon="13.679915046029796"><ele>141.0</ele><time>2026-05-01T12:58:57Z</time></trkpt><trkpt lat="45.74920994652535" lon="13.680283736934998"><ele>143.0</ele><time>2026-05-01T12:58:58Z</time></trkpt><trkpt lat="45.74899048033388" lon="13.680653105975582"><ele>143.0</ele><time>2026-05-01T12:58:59Z</time></trkpt><trkpt lat="45.748773595707455" lon="13.681027622015975"><ele>143.0</ele><time>2026-05-01T12:59:00Z</time></trkpt><trkpt lat="45.74855823868139" lon="13.681400553041243"><ele>146.0</ele><time>2026-05-01T12:59:01Z</time></trkpt><trkpt lat="45.74834254692388" lon="13.681768568069625"><ele>149.0</ele><time>2026-05-01T12:59:02Z</time></trkpt><trkpt lat="45.74812560032478" lon="13.682140933142398"><ele>149.0</ele><time>2026-05-01T12:59:03Z</time></trkpt><trkpt lat="45.74791058493472" lon="13.682510164888741"><ele>149.0</ele><time>2026-05-01T12:59:04Z</time></trkpt><trkpt lat="45.747698639322174" lon="13.682877614280676"><ele>150.5</ele><time>2026-05-01T12:59:05Z</time></trkpt><trkpt lat="45.747489641279486" lon="13.68324415955198"><ele>152.0</ele><time>2026-05-01T12:59:06Z</time></trkpt><trkpt lat="45.747283672635675" lon="13.68360850730378"><ele>152.0</ele><time>2026-05-01T12:59:07Z</time></trkpt><trkpt lat="45.74707969114828" lon="13.683963769806471"><ele>152.0</ele><time>2026-05-01T12:59:08Z</time></trkpt><trkpt lat="45.7468743496516" lon="13.684320338273526"><ele>153.5</ele><time>2026-05-01T12:59:09Z</time></trkpt><trkpt lat="45.7466677483939" lon="13.684677690200516"><ele>155.0</ele><time>2026-05-01T12:59:10Z</time></trkpt><trkpt lat="45.74645871789977" lon="13.685037917062031"><ele>155.5</ele><time>2026-05-01T12:59:11Z</time></trkpt><trkpt lat="45.74624794455455" lon="13.685400333129886"><ele>156.0</ele><time>2026-05-01T12:59:12Z</time></trkpt><trkpt lat="45.74603534138831" lon="13.685765320533779"><ele>156.0</ele><time>2026-05-01T12:59:13Z</time></trkpt><trkpt lat="45.745821611548294" lon="13.686135698995624"><ele>156.0</ele><time>2026-05-01T12:59:14Z</time></trkpt><trkpt lat="45.74560656367928" lon="13.686507081482278"><ele>156.0</ele><time>2026-05-01T12:59:15Z</time></trkpt><trkpt lat="45.74539273106012" lon="13.68688119157295"><ele>156.0</ele><time>2026-05-01T12:59:16Z</time></trkpt><trkpt lat="45.7451800335682" lon="13.68724967524142"><ele>158.5</ele><time>2026-05-01T12:59:17Z</time></trkpt><trkpt lat="45.74496654624461" lon="13.687622392504023"><ele>161.0</ele><time>2026-05-01T12:59:18Z</time></trkpt><trkpt lat="45.74475280307574" lon="13.687991432585278"><ele>161.0</ele><time>2026-05-01T12:59:19Z</time></trkpt><trkpt lat="45.744540241694594" lon="13.688357748946451"><ele>161.0</ele><time>2026-05-01T12:59:20Z</time></trkpt><trkpt lat="45.74432955508233" lon="13.688723855774377"><ele>161.5</ele><time>2026-05-01T12:59:21Z</time></trkpt><trkpt lat="45.74412171342863" lon="13.68908197077101"><ele>162.0</ele><time>2026-05-01T12:59:22Z</time></trkpt><trkpt lat="45.74391664189506" lon="13.689439980766384"><ele>162.0</ele><time>2026-05-01T12:59:23Z</time></trkpt><trkpt lat="45.74371412392547" lon="13.68978607664547"><ele>162.0</ele><time>2026-05-01T12:59:24Z</time></trkpt><trkpt lat="45.74351278379481" lon="13.690129810495103"><ele>165.0</ele><time>2026-05-01T12:59:25Z</time></trkpt><trkpt lat="45.743309989667864" lon="13.690471863819955"><ele>168.0</ele><time>2026-05-01T12:59:26Z</time></trkpt><trkpt lat="45.74310418278314" lon="13.69081638388378"><ele>169.0</ele><time>2026-05-01T12:59:27Z</time></trkpt><trkpt lat="45.742895727431936" lon="13.691159791416899"><ele>170.0</ele><time>2026-05-01T12:59:28Z</time></trkpt><trkpt lat="45.74268400902704" lon="13.691499582650048"><ele>170.0</ele><time>2026-05-01T12:59:29Z</time></trkpt><trkpt lat="45.74246917851343" lon="13.691840087361703"><ele>170.0</ele><time>2026-05-01T12:59:30Z</time></trkpt><trkpt lat="45.74225241730881" lon="13.692185229788503"><ele>171.0</ele><time>2026-05-01T12:59:31Z</time></trkpt><trkpt lat="45.74203369139805" lon="13.692527681811562"><ele>172.0</ele><time>2026-05-01T12:59:32Z</time></trkpt><trkpt lat="45.74181274911761" lon="13.69286875511868"><ele>173.5</ele><time>2026-05-01T12:59:33Z</time></trkpt><trkpt lat="45.74159230867823" lon="13.693207888637861"><ele>175.0</ele><time>2026-05-01T12:59:34Z</time></trkpt><trkpt lat="45.74136925535899" lon="13.693553102032013"><ele>176.0</ele><time>2026-05-01T12:59:35Z</time></trkpt><trkpt lat="45.741146211051564" lon="13.693902802767731"><ele>177.0</ele><time>2026-05-01T12:59:36Z</time></trkpt><trkpt lat="45.74092281052316" lon="13.694252072524135"><ele>178.0</ele><time>2026-05-01T12:59:37Z</time></trkpt><trkpt lat="45.740697645301196" lon="13.694603257662902"><ele>179.0</ele><time>2026-05-01T12:59:38Z</time></trkpt><trkpt lat="45.740471808389515" lon="13.694960600922247"><ele>179.5</ele><time>2026-05-01T12:59:39Z</time></trkpt><trkpt lat="45.74024612662648" lon="13.69531288725396"><ele>180.0</ele><time>2026-05-01T12:59:40Z</time></trkpt><trkpt lat="45.74001813133437" lon="13.695665235372438"><ele>179.0</ele><time>2026-05-01T12:59:41Z</time></trkpt><trkpt lat="45.739790531581285" lon="13.69601850552795"><ele>178.0</ele><time>2026-05-01T12:59:42Z</time></trkpt><trkpt lat="45.73956216692049" lon="13.696373926033214"><ele>180.0</ele><time>2026-05-01T12:59:43Z</time></trkpt><trkpt lat="45.739334308392124" lon="13.696731102660653"><ele>182.0</ele><time>2026-05-01T12:59:44Z</time></trkpt><trkpt lat="45.73910572429925" lon="13.697087302149813"><ele>182.5</ele><time>2026-05-01T12:59:45Z</time></trkpt><trkpt lat="45.73887593298229" lon="13.69744725253138"><ele>183.0</ele><time>2026-05-01T12:59:46Z</time></trkpt><trkpt lat="45.7386481064125" lon="13.697806662031981"><ele>184.0</ele><time>2026-05-01T12:59:47Z</time></trkpt><trkpt lat="45.738420824859" lon="13.698165173781378"><ele>185.0</ele><time>2026-05-01T12:59:48Z</time></trkpt><trkpt lat="45.738192314080045" lon="13.698521238744881"><ele>186.0</ele><time>2026-05-01T12:59:49Z</time></trkpt><trkpt lat="45.73796262457764" lon="13.698874381469336"><ele>187.0</ele><time>2026-05-01T12:59:50Z</time></trkpt><trkpt lat="45.73773336404756" lon="13.699225173295385"><ele>189.0</ele><time>2026-05-01T12:59:51Z</time></trkpt><trkpt lat="45.737503525588544" lon="13.699578146813645"><ele>191.0</ele><time>2026-05-01T12:59:52Z</time></trkpt><trkpt lat="45.7372720119835" lon="13.699935797778688"><ele>191.0</ele><time>2026-05-01T12:59:53Z</time></trkpt><trkpt lat="45.73704226547404" lon="13.700294494792423"><ele>191.0</ele><time>2026-05-01T12:59:54Z</time></trkpt><trkpt lat="45.73681301366763" lon="13.700655732892715"><ele>191.5</ele><time>2026-05-01T12:59:55Z</time></trkpt><trkpt lat="45.73658399502682" lon="13.70101829404495"><ele>192.0</ele><time>2026-05-01T12:59:56Z</time></trkpt><trkpt lat="45.73635309562693" lon="13.701382817990849"><ele>193.0</ele><time>2026-05-01T12:59:57Z</time></trkpt><trkpt lat="45.736121445171335" lon="13.701746574346036"><ele>194.0</ele><time>2026-05-01T12:59:58Z</time></trkpt><trkpt lat="45.73589052149493" lon="13.702105613980514"><ele>196.5</ele><time>2026-05-01T12:59:59Z</time></trkpt><trkpt lat="45.73566130279938" lon="13.7024658366986"><ele>199.0</ele><time>2026-05-01T13:00:00Z</time></trkpt><trkpt lat="45.73543077723632" lon="13.70282221038508"><ele>199.5</ele><time>2026-05-01T13:00:01Z</time></trkpt><trkpt lat="45.73520182205174" lon="13.70317793342891"><ele>200.0</ele><time>2026-05-01T13:00:02Z</time></trkpt><trkpt lat="45.73497035306166" lon="13.70353843823509"><ele>200.0</ele><time>2026-05-01T13:00:03Z</time></trkpt><trkpt lat="45.734739146096864" lon="13.703895332767509"><ele>200.0</ele><time>2026-05-01T13:00:04Z</time></trkpt><trkpt lat="45.73450872884131" lon="13.704254744420217"><ele>201.0</ele><time>2026-05-01T13:00:05Z</time></trkpt><trkpt lat="45.73427771242022" lon="13.70461645445528"><ele>202.0</ele><time>2026-05-01T13:00:06Z</time></trkpt><trkpt lat="45.73404648645438" lon="13.704981123587887"><ele>202.5</ele><time>2026-05-01T13:00:07Z</time></trkpt><trkpt lat="45.73381576662024" lon="13.705342907012255"><ele>203.0</ele><time>2026-05-01T13:00:08Z</time></trkpt><trkpt lat="45.7335845531736" lon="13.705702807268935"><ele>204.0</ele><time>2026-05-01T13:00:09Z</time></trkpt><trkpt lat="45.73335321461892" lon="13.706062802504986"><ele>205.0</ele><time>2026-05-01T13:00:10Z</time></trkpt><trkpt lat="45.7331222221206" lon="13.70642503316315"><ele>205.0</ele><time>2026-05-01T13:00:11Z</time></trkpt><trkpt lat="45.73289047695889" lon="13.706787714025122"><ele>205.0</ele><time>2026-05-01T13:00:12Z</time></trkpt><trkpt lat="45.732658777491295" lon="13.707151402834006"><ele>205.5</ele><time>2026-05-01T13:00:13Z</time></trkpt><trkpt lat="45.73242751997599" lon="13.707515580595562"><ele>206.0</ele><time>2026-05-01T13:00:14Z</time></trkpt><trkpt lat="45.732195811677435" lon="13.707877727832917"><ele>206.5</ele><time>2026-05-01T13:00:15Z</time></trkpt><trkpt lat="45.73196310399277" lon="13.708238510421618"><ele>207.0</ele><time>2026-05-01T13:00:16Z</time></trkpt><trkpt lat="45.73172935488528" lon="13.708600581522992"><ele>207.0</ele><time>2026-05-01T13:00:17Z</time></trkpt><trkpt lat="45.731495227380535" lon="13.70896140080821"><ele>207.0</ele><time>2026-05-01T13:00:18Z</time></trkpt><trkpt lat="45.731263407297774" lon="13.709321947320156"><ele>207.5</ele><time>2026-05-01T13:00:19Z</time></trkpt><trkpt lat="45.731032637574366" lon="13.70968284420149"><ele>208.0</ele><time>2026-05-01T13:00:20Z</time></trkpt><trkpt lat="45.7308027390272" lon="13.710041663533682"><ele>208.5</ele><time>2026-05-01T13:00:21Z</time></trkpt><trkpt lat="45.73057315566295" lon="13.710404738899463"><ele>209.0</ele><time>2026-05-01T13:00:22Z</time></trkpt><trkpt lat="45.73034321447223" lon="13.71076702500274"><ele>208.5</ele><time>2026-05-01T13:00:23Z</time></trkpt><trkpt lat="45.730112825485655" lon="13.711128896823421"><ele>208.0</ele><time>2026-05-01T13:00:24Z</time></trkpt><trkpt lat="45.72988321991958" lon="13.711487057086867"><ele>208.0</ele><time>2026-05-01T13:00:25Z</time></trkpt><trkpt lat="45.72965324999094" lon="13.711848033229879"><ele>208.0</ele><time>2026-05-01T13:00:26Z</time></trkpt><trkpt lat="45.72942206654755" lon="13.712206716644578"><ele>208.5</ele><time>2026-05-01T13:00:27Z</time></trkpt><trkpt lat="45.72919078765627" lon="13.71256837743441"><ele>209.0</ele><time>2026-05-01T13:00:28Z</time></trkpt><trkpt lat="45.72896030437463" lon="13.712929214965401"><ele>209.0</ele><time>2026-05-01T13:00:29Z</time></trkpt><trkpt lat="45.728729447026176" lon="13.713289467728286"><ele>209.0</ele><time>2026-05-01T13:00:30Z</time></trkpt><trkpt lat="45.728497095624974" lon="13.713649837415414"><ele>210.5</ele><time>2026-05-01T13:00:31Z</time></trkpt><trkpt lat="45.72826475848004" lon="13.71400998757462"><ele>212.0</ele><time>2026-05-01T13:00:32Z</time></trkpt><trkpt lat="45.728033653353364" lon="13.714372123167582"><ele>212.0</ele><time>2026-05-01T13:00:33Z</time></trkpt><trkpt lat="45.72780434289627" lon="13.71473196310458"><ele>212.0</ele><time>2026-05-01T13:00:34Z</time></trkpt><trkpt lat="45.72757532599281" lon="13.715093024562773"><ele>213.5</ele><time>2026-05-01T13:00:35Z</time></trkpt><trkpt lat="45.727345321621755" lon="13.715453217889964"><ele>215.0</ele><time>2026-05-01T13:00:36Z</time></trkpt><trkpt lat="45.72711246602167" lon="13.715811796927396"><ele>217.0</ele><time>2026-05-01T13:00:37Z</time></trkpt><trkpt lat="45.7268800971582" lon="13.716173332549083"><ele>219.0</ele><time>2026-05-01T13:00:38Z</time></trkpt><trkpt lat="45.72664855833016" lon="13.716533669697943"><ele>219.0</ele><time>2026-05-01T13:00:39Z</time></trkpt><trkpt lat="45.726418303936384" lon="13.716893440867143"><ele>219.0</ele><time>2026-05-01T13:00:40Z</time></trkpt><trkpt lat="45.7261891388644" lon="13.717254056678211"><ele>220.5</ele><time>2026-05-01T13:00:41Z</time></trkpt><trkpt lat="45.72595841885073" lon="13.717613275838481"><ele>222.0</ele><time>2026-05-01T13:00:42Z</time></trkpt><trkpt lat="45.725726652628744" lon="13.717973713166472"><ele>223.0</ele><time>2026-05-01T13:00:43Z</time></trkpt><trkpt lat="45.725494399270936" lon="13.7183346050821"><ele>224.0</ele><time>2026-05-01T13:00:44Z</time></trkpt><trkpt lat="45.72526296156635" lon="13.718695243555272"><ele>225.5</ele><time>2026-05-01T13:00:45Z</time></trkpt><trkpt lat="45.725031865732724" lon="13.719060874957636"><ele>227.0</ele><time>2026-05-01T13:00:46Z</time></trkpt><trkpt lat="45.72480153678673" lon="13.719420907911418"><ele>227.0</ele><time>2026-05-01T13:00:47Z</time></trkpt><trkpt lat="45.72457123535439" lon="13.719780975640052"><ele>227.0</ele><time>2026-05-01T13:00:48Z</time></trkpt><trkpt lat="45.724339983581416" lon="13.720141445866266"><ele>228.5</ele><time>2026-05-01T13:00:49Z</time></trkpt><trkpt lat="45.72410849176318" lon="13.720503296724702"><ele>230.0</ele><time>2026-05-01T13:00:50Z</time></trkpt><trkpt lat="45.723875687629686" lon="13.720863903619732"><ele>231.0</ele><time>2026-05-01T13:00:51Z</time></trkpt><trkpt lat="45.723642936879656" lon="13.721224582839417"><ele>232.0</ele><time>2026-05-01T13:00:52Z</time></trkpt><trkpt lat="45.72341095628321" lon="13.721582915547534"><ele>232.0</ele><time>2026-05-01T13:00:53Z</time></trkpt><trkpt lat="45.72317843651664" lon="13.721941466850863"><ele>232.0</ele><time>2026-05-01T13:00:54Z</time></trkpt><trkpt lat="45.72294698914381" lon="13.722300289839156"><ele>232.0</ele><time>2026-05-01T13:00:55Z</time></trkpt><trkpt lat="45.72271388871497" lon="13.722658719901604"><ele>232.0</ele><time>2026-05-01T13:00:56Z</time></trkpt><trkpt lat="45.72248188715728" lon="13.723016143836029"><ele>232.5</ele><time>2026-05-01T13:00:57Z</time></trkpt><trkpt lat="45.7222559823315" lon="13.723362554637202"><ele>233.0</ele><time>2026-05-01T13:00:58Z</time></trkpt><trkpt lat="45.72203433882468" lon="13.723708242831915"><ele>233.0</ele><time>2026-05-01T13:00:59Z</time></trkpt><trkpt lat="45.72181518522868" lon="13.724051629996643"><ele>233.0</ele><time>2026-05-01T13:01:00Z</time></trkpt><trkpt lat="45.721596388541045" lon="13.724395397653668"><ele>232.5</ele><time>2026-05-01T13:01:01Z</time></trkpt><trkpt lat="45.72137832073055" lon="13.724737736967256"><ele>232.0</ele><time>2026-05-01T13:01:02Z</time></trkpt><trkpt lat="45.721158525755406" lon="13.725082709741967"><ele>232.5</ele><time>2026-05-01T13:01:03Z</time></trkpt><trkpt lat="45.720937401845156" lon="13.725425677667712"><ele>233.0</ele><time>2026-05-01T13:01:04Z</time></trkpt><trkpt lat="45.7207155664433" lon="13.725772000880438"><ele>232.5</ele><time>2026-05-01T13:01:05Z</time></trkpt><trkpt lat="45.72049321332762" lon="13.72611910479703"><ele>232.0</ele><time>2026-05-01T13:01:06Z</time></trkpt><trkpt lat="45.72026891068598" lon="13.726469977313025"><ele>231.0</ele><time>2026-05-01T13:01:07Z</time></trkpt><trkpt lat="45.720045224146425" lon="13.726816896413593"><ele>230.0</ele><time>2026-05-01T13:01:08Z</time></trkpt><trkpt lat="45.71982360367006" lon="13.72716220517008"><ele>229.5</ele><time>2026-05-01T13:01:09Z</time></trkpt><trkpt lat="45.71960278494636" lon="13.727508056419795"><ele>229.0</ele><time>2026-05-01T13:01:10Z</time></trkpt><trkpt lat="45.71938302924211" lon="13.7278494773231"><ele>230.0</ele><time>2026-05-01T13:01:11Z</time></trkpt><trkpt lat="45.7191619129564" lon="13.728192128606238"><ele>231.0</ele><time>2026-05-01T13:01:12Z</time></trkpt><trkpt lat="45.71894233305637" lon="13.728532811747858"><ele>230.5</ele><time>2026-05-01T13:01:13Z</time></trkpt><trkpt lat="45.71872342938306" lon="13.728868659444464"><ele>230.0</ele><time>2026-05-01T13:01:14Z</time></trkpt><trkpt lat="45.7185017078364" lon="13.729206269579516"><ele>230.0</ele><time>2026-05-01T13:01:15Z</time></trkpt><trkpt lat="45.718280485803156" lon="13.72954734786105"><ele>230.0</ele><time>2026-05-01T13:01:16Z</time></trkpt><trkpt lat="45.71805754225001" lon="13.729883137647905"><ele>230.0</ele><time>2026-05-01T13:01:17Z</time></trkpt><trkpt lat="45.71783304095773" lon="13.730215385815605"><ele>230.0</ele><time>2026-05-01T13:01:18Z</time></trkpt><trkpt lat="45.71760766454292" lon="13.730549318083565"><ele>230.0</ele><time>2026-05-01T13:01:19Z</time></trkpt><trkpt lat="45.71738216156581" lon="13.73087886517226"><ele>230.0</ele><time>2026-05-01T13:01:20Z</time></trkpt><trkpt lat="45.71715623146381" lon="13.731209826550012"><ele>230.5</ele><time>2026-05-01T13:01:21Z</time></trkpt><trkpt lat="45.7169315312123" lon="13.731536108882223"><ele>231.0</ele><time>2026-05-01T13:01:22Z</time></trkpt><trkpt lat="45.716708653793596" lon="13.73185860333265"><ele>231.5</ele><time>2026-05-01T13:01:23Z</time></trkpt><trkpt lat="45.716488425945606" lon="13.732174241892436"><ele>232.0</ele><time>2026-05-01T13:01:24Z</time></trkpt><trkpt lat="45.71626761859677" lon="13.732490305431174"><ele>233.0</ele><time>2026-05-01T13:01:25Z</time></trkpt><trkpt lat="45.71604973053165" lon="13.732804814388356"><ele>234.0</ele><time>2026-05-01T13:01:26Z</time></trkpt><trkpt lat="45.71583317302656" lon="13.733114298845317"><ele>234.0</ele><time>2026-05-01T13:01:27Z</time></trkpt><trkpt lat="45.71561887887666" lon="13.733421098793034"><ele>234.0</ele><time>2026-05-01T13:01:28Z</time></trkpt><trkpt lat="45.71540806594556" lon="13.733723820213536"><ele>235.0</ele><time>2026-05-01T13:01:29Z</time></trkpt><trkpt lat="45.71519937225642" lon="13.734023071663348"><ele>236.0</ele><time>2026-05-01T13:01:30Z</time></trkpt><trkpt lat="45.71499303256776" lon="13.73431775382784"><ele>236.5</ele><time>2026-05-01T13:01:31Z</time></trkpt><trkpt lat="45.714787430446215" lon="13.734610613497567"><ele>237.0</ele><time>2026-05-01T13:01:32Z</time></trkpt><trkpt lat="45.714580415172314" lon="13.734902958540369"><ele>238.0</ele><time>2026-05-01T13:01:33Z</time></trkpt><trkpt lat="45.71437422984431" lon="13.735201017867068"><ele>239.0</ele><time>2026-05-01T13:01:34Z</time></trkpt><trkpt lat="45.71416496043712" lon="13.73549708749458"><ele>239.0</ele><time>2026-05-01T13:01:35Z</time></trkpt><trkpt lat="45.71395644418026" lon="13.735800055938098"><ele>239.0</ele><time>2026-05-01T13:01:36Z</time></trkpt><trkpt lat="45.71375098306779" lon="13.736101009244178"><ele>240.5</ele><time>2026-05-01T13:01:37Z</time></trkpt><trkpt lat="45.71354790345582" lon="13.736395012733766"><ele>242.0</ele><time>2026-05-01T13:01:38Z</time></trkpt><trkpt lat="45.71334818352604" lon="13.736684720670484"><ele>243.0</ele><time>2026-05-01T13:01:39Z</time></trkpt><trkpt lat="45.71315161220848" lon="13.736963788499303"><ele>244.0</ele><time>2026-05-01T13:01:40Z</time></trkpt><trkpt lat="45.712959984203074" lon="13.73724388699686"><ele>244.0</ele><time>2026-05-01T13:01:41Z</time></trkpt><trkpt lat="45.71276767692691" lon="13.73751545231048"><ele>244.0</ele><time>2026-05-01T13:01:42Z</time></trkpt><trkpt lat="45.71257763787098" lon="13.737781758108959"><ele>245.5</ele><time>2026-05-01T13:01:43Z</time></trkpt><trkpt lat="45.71239116087586" lon="13.738042051095567"><ele>247.0</ele><time>2026-05-01T13:01:44Z</time></trkpt><trkpt lat="45.71220256540679" lon="13.738308540897949"><ele>248.0</ele><time>2026-05-01T13:01:45Z</time></trkpt><trkpt lat="45.712022096815254" lon="13.738584364166101"><ele>249.0</ele><time>2026-05-01T13:01:46.025Z</time></trkpt><trkpt lat="45.71183405519576" lon="13.738858452733632"><ele>247.0</ele><time>2026-05-01T13:01:47.026Z</time></trkpt><trkpt lat="45.71145333255921" lon="13.739406674264771"><ele>247.0</ele><time>2026-05-01T13:01:49Z</time></trkpt><trkpt lat="45.7112627881496" lon="13.739682635022278"><ele>247.0</ele><time>2026-05-01T13:01:50Z</time></trkpt><trkpt lat="45.71107438164253" lon="13.739825962641712"><ele>247.5</ele><time>2026-05-01T13:01:51Z</time></trkpt><trkpt lat="45.71088619278114" lon="13.740078466882666"><ele>248.0</ele><time>2026-05-01T13:01:52Z</time></trkpt><trkpt lat="45.71069302680659" lon="13.74033768216909"><ele>249.0</ele><time>2026-05-01T13:01:53.025Z</time></trkpt><trkpt lat="45.70625212047781" lon="13.746552793321895"><ele>251.0</ele><time>2026-05-01T13:02:17Z</time></trkpt><trkpt lat="45.706071950912076" lon="13.746758603529297"><ele>253.0</ele><time>2026-05-01T13:02:18Z</time></trkpt><trkpt lat="45.705886036787824" lon="13.746994833895554"><ele>253.0</ele><time>2026-05-01T13:02:19Z</time></trkpt><trkpt lat="45.70571253633999" lon="13.747217169676833"><ele>253.0</ele><time>2026-05-01T13:02:20Z</time></trkpt><trkpt lat="45.705522725254056" lon="13.747444144836393"><ele>253.0</ele><time>2026-05-01T13:02:21Z</time></trkpt><trkpt lat="45.70532662001875" lon="13.747679361198161"><ele>253.0</ele><time>2026-05-01T13:02:22Z</time></trkpt><trkpt lat="45.70513497461537" lon="13.74791694189416"><ele>255.0</ele><time>2026-05-01T13:02:23Z</time></trkpt><trkpt lat="45.70495040551027" lon="13.748164235238507"><ele>257.0</ele><time>2026-05-01T13:02:24Z</time></trkpt><trkpt lat="45.70476129434562" lon="13.74843046575662"><ele>257.5</ele><time>2026-05-01T13:02:25Z</time></trkpt><trkpt lat="45.70457514848239" lon="13.748698470868703"><ele>258.0</ele><time>2026-05-01T13:02:26Z</time></trkpt><trkpt lat="45.704385245765515" lon="13.748971138632065"><ele>258.5</ele><time>2026-05-01T13:02:27Z</time></trkpt><trkpt lat="45.704218123359574" lon="13.749279781511675"><ele>259.0</ele><time>2026-05-01T13:02:28Z</time></trkpt><trkpt lat="45.704047818030446" lon="13.749577663746857"><ele>259.5</ele><time>2026-05-01T13:02:29Z</time></trkpt><trkpt lat="45.70388823280415" lon="13.749895093410386"><ele>260.0</ele><time>2026-05-01T13:02:30Z</time></trkpt><trkpt lat="45.70373192734671" lon="13.750229552177773"><ele>261.5</ele><time>2026-05-01T13:02:31Z</time></trkpt><trkpt lat="45.703589126687255" lon="13.750567268974956"><ele>263.0</ele><time>2026-05-01T13:02:32Z</time></trkpt><trkpt lat="45.70345250996726" lon="13.750918364643768"><ele>263.0</ele><time>2026-05-01T13:02:33Z</time></trkpt><trkpt lat="45.703324111898446" lon="13.751281507653724"><ele>263.0</ele><time>2026-05-01T13:02:34Z</time></trkpt><trkpt lat="45.7032067855075" lon="13.7516514389488"><ele>264.0</ele><time>2026-05-01T13:02:35Z</time></trkpt><trkpt lat="45.703097187161866" lon="13.752030932645377"><ele>265.0</ele><time>2026-05-01T13:02:36Z</time></trkpt><trkpt lat="45.70299501284216" lon="13.752410364382486"><ele>267.0</ele><time>2026-05-01T13:02:37Z</time></trkpt><trkpt lat="45.70290009617604" lon="13.752801570542944"><ele>269.0</ele><time>2026-05-01T13:02:38Z</time></trkpt><trkpt lat="45.702798478859535" lon="13.753207266342422"><ele>269.0</ele><time>2026-05-01T13:02:39Z</time></trkpt><trkpt lat="45.70268444599633" lon="13.753596008771861"><ele>269.0</ele><time>2026-05-01T13:02:40Z</time></trkpt><trkpt lat="45.702589533603636" lon="13.753992434023633"><ele>272.0</ele><time>2026-05-01T13:02:41Z</time></trkpt><trkpt lat="45.70248935282445" lon="13.754391354043392"><ele>275.0</ele><time>2026-05-01T13:02:42Z</time></trkpt><trkpt lat="45.70238986644265" lon="13.754801208955358"><ele>275.0</ele><time>2026-05-01T13:02:43Z</time></trkpt><trkpt lat="45.702285940146716" lon="13.755189701243177"><ele>275.0</ele><time>2026-05-01T13:02:44Z</time></trkpt><trkpt lat="45.702189518152714" lon="13.755579912985935"><ele>274.0</ele><time>2026-05-01T13:02:45Z</time></trkpt><trkpt lat="45.702099054505425" lon="13.75596187641746"><ele>273.0</ele><time>2026-05-01T13:02:46Z</time></trkpt><trkpt lat="45.70201406857806" lon="13.756333891149875"><ele>273.0</ele><time>2026-05-01T13:02:47Z</time></trkpt><trkpt lat="45.70192947623144" lon="13.7566903010276"><ele>273.0</ele><time>2026-05-01T13:02:48Z</time></trkpt><trkpt lat="45.70184678280186" lon="13.757037259582152"><ele>273.5</ele><time>2026-05-01T13:02:49Z</time></trkpt><trkpt lat="45.70176283323081" lon="13.757389949287836"><ele>274.0</ele><time>2026-05-01T13:02:50Z</time></trkpt><trkpt lat="45.70167723586723" lon="13.757742595911063"><ele>274.0</ele><time>2026-05-01T13:02:51Z</time></trkpt><trkpt lat="45.70159005370432" lon="13.758091732067381"><ele>274.0</ele><time>2026-05-01T13:02:52Z</time></trkpt><trkpt lat="45.70151310250553" lon="13.758466221495045"><ele>276.0</ele><time>2026-05-01T13:02:53Z</time></trkpt><trkpt lat="45.701435588687914" lon="13.758849697933003"><ele>278.0</ele><time>2026-05-01T13:02:54Z</time></trkpt><trkpt lat="45.70134903734332" lon="13.759232371767547"><ele>278.0</ele><time>2026-05-01T13:02:55Z</time></trkpt><trkpt lat="45.701255883835564" lon="13.759626090391851"><ele>278.0</ele><time>2026-05-01T13:02:56Z</time></trkpt><trkpt lat="45.701158443705914" lon="13.760031196667379"><ele>278.0</ele><time>2026-05-01T13:02:57Z</time></trkpt><trkpt lat="45.70106640561945" lon="13.760442704643772"><ele>278.0</ele><time>2026-05-01T13:02:58Z</time></trkpt><trkpt lat="45.70098009471675" lon="13.76085671166048"><ele>279.0</ele><time>2026-05-01T13:02:59Z</time></trkpt><trkpt lat="45.70089698369709" lon="13.761282910614403"><ele>280.0</ele><time>2026-05-01T13:03:00Z</time></trkpt><trkpt lat="45.700816216352095" lon="13.761711700166275"><ele>280.5</ele><time>2026-05-01T13:03:01Z</time></trkpt><trkpt lat="45.7007383390359" lon="13.762145278529015"><ele>281.0</ele><time>2026-05-01T13:03:02Z</time></trkpt><trkpt lat="45.70066467664328" lon="13.762579776983277"><ele>280.5</ele><time>2026-05-01T13:03:03Z</time></trkpt><trkpt lat="45.700596626576385" lon="13.763021987011912"><ele>280.0</ele><time>2026-05-01T13:03:04Z</time></trkpt><trkpt lat="45.70052971758526" lon="13.763470212924103"><ele>281.0</ele><time>2026-05-01T13:03:05Z</time></trkpt><trkpt lat="45.70046799576649" lon="13.763920954041367"><ele>282.0</ele><time>2026-05-01T13:03:06Z</time></trkpt><trkpt lat="45.70040485780443" lon="13.764371243752871"><ele>282.0</ele><time>2026-05-01T13:03:07Z</time></trkpt><trkpt lat="45.70035182647299" lon="13.764830936360392"><ele>282.0</ele><time>2026-05-01T13:03:08Z</time></trkpt><trkpt lat="45.70030468417671" lon="13.765286342017893"><ele>282.0</ele><time>2026-05-01T13:03:09Z</time></trkpt><trkpt lat="45.700262525194915" lon="13.765746560797052"><ele>282.0</ele><time>2026-05-01T13:03:10Z</time></trkpt><trkpt lat="45.700222641675346" lon="13.76620301319515"><ele>283.0</ele><time>2026-05-01T13:03:11Z</time></trkpt><trkpt lat="45.700186969375245" lon="13.766674377707403"><ele>284.0</ele><time>2026-05-01T13:03:12Z</time></trkpt><trkpt lat="45.70015617009678" lon="13.767138877205856"><ele>285.0</ele><time>2026-05-01T13:03:13Z</time></trkpt><trkpt lat="45.70013387769922" lon="13.767606884998282"><ele>286.0</ele><time>2026-05-01T13:03:14Z</time></trkpt><trkpt lat="45.70011631467391" lon="13.768074511649885"><ele>287.0</ele><time>2026-05-01T13:03:15Z</time></trkpt><trkpt lat="45.70009958604574" lon="13.76854735692801"><ele>288.0</ele><time>2026-05-01T13:03:16Z</time></trkpt><trkpt lat="45.70008483657655" lon="13.769019596406984"><ele>288.5</ele><time>2026-05-01T13:03:17Z</time></trkpt><trkpt lat="45.700076711275635" lon="13.769496045558027"><ele>289.0</ele><time>2026-05-01T13:03:18Z</time></trkpt><trkpt lat="45.70007636536272" lon="13.769974633626509"><ele>289.5</ele><time>2026-05-01T13:03:19Z</time></trkpt><trkpt lat="45.70008180119733" lon="13.77045232860074"><ele>290.0</ele><time>2026-05-01T13:03:20Z</time></trkpt><trkpt lat="45.700092778998325" lon="13.770934443168436"><ele>290.0</ele><time>2026-05-01T13:03:21Z</time></trkpt><trkpt lat="45.70010601060729" lon="13.771413239818576"><ele>290.0</ele><time>2026-05-01T13:03:22Z</time></trkpt><trkpt lat="45.700124501615335" lon="13.771897855239557"><ele>289.5</ele><time>2026-05-01T13:03:23Z</time></trkpt><trkpt lat="45.700148553035106" lon="13.772379968270776"><ele>289.0</ele><time>2026-05-01T13:03:24Z</time></trkpt><trkpt lat="45.70017732741544" lon="13.772861651205428"><ele>288.5</ele><time>2026-05-01T13:03:25Z</time></trkpt><trkpt lat="45.700213277990024" lon="13.773343886705657"><ele>288.0</ele><time>2026-05-01T13:03:26Z</time></trkpt><trkpt lat="45.70025419323985" lon="13.773826415435032"><ele>288.0</ele><time>2026-05-01T13:03:27Z</time></trkpt><trkpt lat="45.700297315191555" lon="13.77430795211211"><ele>288.0</ele><time>2026-05-01T13:03:28Z</time></trkpt><trkpt lat="45.70034478566575" lon="13.774790092490827"><ele>288.0</ele><time>2026-05-01T13:03:29Z</time></trkpt><trkpt lat="45.70039884453499" lon="13.775273139045023"><ele>288.0</ele><time>2026-05-01T13:03:30Z</time></trkpt><trkpt lat="45.700459404659036" lon="13.775743767426436"><ele>289.0</ele><time>2026-05-01T13:03:31Z</time></trkpt><trkpt lat="45.70052470823573" lon="13.776214350151523"><ele>290.0</ele><time>2026-05-01T13:03:32Z</time></trkpt><trkpt lat="45.70059585196568" lon="13.776687817909785"><ele>290.5</ele><time>2026-05-01T13:03:33Z</time></trkpt><trkpt lat="45.7006694566601" lon="13.777159506165532"><ele>291.0</ele><time>2026-05-01T13:03:34Z</time></trkpt><trkpt lat="45.7007490790811" lon="13.777635266986978"><ele>291.0</ele><time>2026-05-01T13:03:35Z</time></trkpt><trkpt lat="45.70083390450646" lon="13.77811116092588"><ele>291.0</ele><time>2026-05-01T13:03:36Z</time></trkpt><trkpt lat="45.700922072503666" lon="13.778585353129179"><ele>291.0</ele><time>2026-05-01T13:03:37Z</time></trkpt><trkpt lat="45.70100978927526" lon="13.779057127878163"><ele>291.0</ele><time>2026-05-01T13:03:38Z</time></trkpt><trkpt lat="45.701100016420845" lon="13.779532146211286"><ele>291.0</ele><time>2026-05-01T13:03:39Z</time></trkpt><trkpt lat="45.70119268694558" lon="13.780007035815068"><ele>291.0</ele><time>2026-05-01T13:03:40Z</time></trkpt><trkpt lat="45.7012845141465" lon="13.780478180568883"><ele>291.5</ele><time>2026-05-01T13:03:41Z</time></trkpt><trkpt lat="45.70137301748543" lon="13.780946683708082"><ele>292.0</ele><time>2026-05-01T13:03:42Z</time></trkpt><trkpt lat="45.701463889174754" lon="13.781419859935859"><ele>292.0</ele><time>2026-05-01T13:03:43Z</time></trkpt><trkpt lat="45.70155264029603" lon="13.781890601413192"><ele>292.0</ele><time>2026-05-01T13:03:44Z</time></trkpt><trkpt lat="45.701643919848486" lon="13.782365059121064"><ele>293.0</ele><time>2026-05-01T13:03:45Z</time></trkpt><trkpt lat="45.70173329659886" lon="13.78284513691529"><ele>294.0</ele><time>2026-05-01T13:03:46Z</time></trkpt><trkpt lat="45.70182646676486" lon="13.78331932167666"><ele>295.0</ele><time>2026-05-01T13:03:47Z</time></trkpt><trkpt lat="45.70191776574166" lon="13.78379505529828"><ele>296.0</ele><time>2026-05-01T13:03:48Z</time></trkpt><trkpt lat="45.702010057437825" lon="13.784270048349963"><ele>296.0</ele><time>2026-05-01T13:03:49Z</time></trkpt><trkpt lat="45.70209883015281" lon="13.784743347484666"><ele>296.0</ele><time>2026-05-01T13:03:50Z</time></trkpt><trkpt lat="45.70218474893749" lon="13.78521278854787"><ele>296.5</ele><time>2026-05-01T13:03:51Z</time></trkpt><trkpt lat="45.7022698469283" lon="13.785688599834632"><ele>297.0</ele><time>2026-05-01T13:03:52Z</time></trkpt><trkpt lat="45.702350622535135" lon="13.786164639456283"><ele>297.5</ele><time>2026-05-01T13:03:53Z</time></trkpt><trkpt lat="45.702429872764554" lon="13.786637646005854"><ele>298.0</ele><time>2026-05-01T13:03:54Z</time></trkpt><trkpt lat="45.702500876601725" lon="13.787096797076607"><ele>299.0</ele><time>2026-05-01T13:03:55Z</time></trkpt><trkpt lat="45.702563206049334" lon="13.787540822713"><ele>300.0</ele><time>2026-05-01T13:03:56Z</time></trkpt><trkpt lat="45.702620910141114" lon="13.787974976580799"><ele>300.0</ele><time>2026-05-01T13:03:57Z</time></trkpt><trkpt lat="45.70267407670674" lon="13.788410845249938"><ele>300.0</ele><time>2026-05-01T13:03:58Z</time></trkpt><trkpt lat="45.70272537771167" lon="13.788834582931022"><ele>297.5</ele><time>2026-05-01T13:03:59Z</time></trkpt><trkpt lat="45.7027729543668" lon="13.789265722167537"><ele>295.0</ele><time>2026-05-01T13:04:00Z</time></trkpt><trkpt lat="45.702805973653696" lon="13.789695869627963"><ele>294.5</ele><time>2026-05-01T13:04:01Z</time></trkpt><trkpt lat="45.702838000103434" lon="13.790131487941876"><ele>294.0</ele><time>2026-05-01T13:04:02Z</time></trkpt><trkpt lat="45.702863396561334" lon="13.790568864503093"><ele>295.5</ele><time>2026-05-01T13:04:03Z</time></trkpt><trkpt lat="45.70288665277954" lon="13.791010964033005"><ele>297.0</ele><time>2026-05-01T13:04:04Z</time></trkpt><trkpt lat="45.702902884397425" lon="13.791456586788563"><ele>297.5</ele><time>2026-05-01T13:04:05Z</time></trkpt><trkpt lat="45.70290618220022" lon="13.79190317448663"><ele>298.0</ele><time>2026-05-01T13:04:06Z</time></trkpt><trkpt lat="45.702894585787256" lon="13.792354252429584"><ele>298.5</ele><time>2026-05-01T13:04:07Z</time></trkpt><trkpt lat="45.70287798769913" lon="13.792804814073257"><ele>299.0</ele><time>2026-05-01T13:04:08Z</time></trkpt><trkpt lat="45.70285375361998" lon="13.79325537974547"><ele>300.0</ele><time>2026-05-01T13:04:09Z</time></trkpt><trkpt lat="45.702820255103994" lon="13.793703317845505"><ele>301.0</ele><time>2026-05-01T13:04:10Z</time></trkpt><trkpt lat="45.702777106932686" lon="13.794149301367197"><ele>300.5</ele><time>2026-05-01T13:04:11Z</time></trkpt><trkpt lat="45.70273028400731" lon="13.794587976026678"><ele>300.0</ele><time>2026-05-01T13:04:12Z</time></trkpt><trkpt lat="45.702664591647476" lon="13.79502841337187"><ele>301.5</ele><time>2026-05-01T13:04:13Z</time></trkpt><trkpt lat="45.70258825368788" lon="13.795467538663827"><ele>303.0</ele><time>2026-05-01T13:04:14Z</time></trkpt><trkpt lat="45.7024962307599" lon="13.795903586361083"><ele>302.0</ele><time>2026-05-01T13:04:15Z</time></trkpt><trkpt lat="45.702400489430474" lon="13.79633394157343"><ele>301.0</ele><time>2026-05-01T13:04:16Z</time></trkpt><trkpt lat="45.702299745230164" lon="13.796758596187326"><ele>303.0</ele><time>2026-05-01T13:04:17Z</time></trkpt><trkpt lat="45.702194278867886" lon="13.797181598723618"><ele>305.0</ele><time>2026-05-01T13:04:18Z</time></trkpt><trkpt lat="45.70208131280831" lon="13.797597991221913"><ele>305.0</ele><time>2026-05-01T13:04:19Z</time></trkpt><trkpt lat="45.70195812149169" lon="13.798008766470124"><ele>305.0</ele><time>2026-05-01T13:04:20Z</time></trkpt><trkpt lat="45.70182824780807" lon="13.798411930338277"><ele>305.5</ele><time>2026-05-01T13:04:21Z</time></trkpt><trkpt lat="45.70169504677537" lon="13.798803696218144"><ele>306.0</ele><time>2026-05-01T13:04:22Z</time></trkpt><trkpt lat="45.70155118912856" lon="13.799185452548633"><ele>306.0</ele><time>2026-05-01T13:04:23Z</time></trkpt><trkpt lat="45.70139860750993" lon="13.799552886457375"><ele>306.0</ele><time>2026-05-01T13:04:24Z</time></trkpt><trkpt lat="45.701246527919906" lon="13.799907553835842"><ele>306.5</ele><time>2026-05-01T13:04:25Z</time></trkpt><trkpt lat="45.70108851901059" lon="13.80027697432824"><ele>307.0</ele><time>2026-05-01T13:04:26Z</time></trkpt><trkpt lat="45.70092210807296" lon="13.800623594349265"><ele>307.5</ele><time>2026-05-01T13:04:27Z</time></trkpt><trkpt lat="45.700751122574395" lon="13.800954280383097"><ele>308.0</ele><time>2026-05-01T13:04:28Z</time></trkpt><trkpt lat="45.70057357221944" lon="13.801280959992079"><ele>308.0</ele><time>2026-05-01T13:04:29Z</time></trkpt><trkpt lat="45.70040614322457" lon="13.801622056235232"><ele>308.0</ele><time>2026-05-01T13:04:30Z</time></trkpt><trkpt lat="45.70023747387033" lon="13.801958734873729"><ele>308.5</ele><time>2026-05-01T13:04:31Z</time></trkpt><trkpt lat="45.700066566963315" lon="13.802303954425359"><ele>309.0</ele><time>2026-05-01T13:04:32.014Z</time></trkpt><trkpt lat="45.699863994705176" lon="13.802595970597066"><ele>309.5</ele><time>2026-05-01T13:04:33.016Z</time></trkpt><trkpt lat="45.6996625070474" lon="13.802884537446426"><ele>310.0</ele><time>2026-05-01T13:04:34.014Z</time></trkpt><trkpt lat="45.69945662972317" lon="13.803165247074695"><ele>303.0</ele><time>2026-05-01T13:04:35.012Z</time></trkpt><trkpt lat="45.69760798946553" lon="13.805004414183838"><ele>302.5</ele><time>2026-05-01T13:04:42Z</time></trkpt><trkpt lat="45.697349863412015" lon="13.805237675174181"><ele>302.0</ele><time>2026-05-01T13:04:43Z</time></trkpt><trkpt lat="45.697093509832456" lon="13.80543001806526"><ele>299.5</ele><time>2026-05-01T13:04:44Z</time></trkpt><trkpt lat="45.69686102572675" lon="13.80558888153871"><ele>297.0</ele><time>2026-05-01T13:04:45Z</time></trkpt><trkpt lat="45.69663824196259" lon="13.805745687549273"><ele>297.0</ele><time>2026-05-01T13:04:46Z</time></trkpt><trkpt lat="45.69642632677144" lon="13.805892079189782"><ele>297.0</ele><time>2026-05-01T13:04:47Z</time></trkpt><trkpt lat="45.69620420432118" lon="13.806022660962897"><ele>292.5</ele><time>2026-05-01T13:04:48Z</time></trkpt><trkpt lat="45.695993936913176" lon="13.806143393385106"><ele>288.0</ele><time>2026-05-01T13:04:49Z</time></trkpt><trkpt lat="45.69578267191469" lon="13.80627042959509"><ele>288.0</ele><time>2026-05-01T13:04:50Z</time></trkpt><trkpt lat="45.695563600963496" lon="13.806392079364976"><ele>288.0</ele><time>2026-05-01T13:04:51Z</time></trkpt><trkpt lat="45.695336949669915" lon="13.806502592888467"><ele>294.0</ele><time>2026-05-01T13:04:52Z</time></trkpt><trkpt lat="45.69510908892027" lon="13.806606069784712"><ele>300.0</ele><time>2026-05-01T13:04:53Z</time></trkpt><trkpt lat="45.69487771329927" lon="13.80671090683462"><ele>300.0</ele><time>2026-05-01T13:04:54Z</time></trkpt><trkpt lat="45.69463928602926" lon="13.806815952104717"><ele>300.0</ele><time>2026-05-01T13:04:55Z</time></trkpt><trkpt lat="45.69440202358394" lon="13.806923152190604"><ele>304.0</ele><time>2026-05-01T13:04:56Z</time></trkpt><trkpt lat="45.69416582186609" lon="13.807034842589143"><ele>308.0</ele><time>2026-05-01T13:04:57Z</time></trkpt><trkpt lat="45.69392366552182" lon="13.807141134300409"><ele>308.0</ele><time>2026-05-01T13:04:58Z</time></trkpt><trkpt lat="45.69367687061939" lon="13.807248680040392"><ele>308.0</ele><time>2026-05-01T13:04:59Z</time></trkpt><trkpt lat="45.69343402407374" lon="13.80736446505377"><ele>308.0</ele><time>2026-05-01T13:05:00Z</time></trkpt><trkpt lat="45.69318950650171" lon="13.807470458229252"><ele>308.0</ele><time>2026-05-01T13:05:01Z</time></trkpt><trkpt lat="45.69294127890874" lon="13.807572229623348"><ele>309.5</ele><time>2026-05-01T13:05:02Z</time></trkpt><trkpt lat="45.69268972648921" lon="13.807682507511327"><ele>311.0</ele><time>2026-05-01T13:05:03Z</time></trkpt><trkpt lat="45.692436673172836" lon="13.807789367265505"><ele>311.0</ele><time>2026-05-01T13:05:04Z</time></trkpt><trkpt lat="45.69217720404157" lon="13.8079021520283"><ele>311.0</ele><time>2026-05-01T13:05:05Z</time></trkpt><trkpt lat="45.69192106668792" lon="13.808000693179004"><ele>309.5</ele><time>2026-05-01T13:05:06Z</time></trkpt><trkpt lat="45.69167221445628" lon="13.808112852635194"><ele>308.0</ele><time>2026-05-01T13:05:07Z</time></trkpt><trkpt lat="45.69141986690435" lon="13.808228869947625"><ele>308.0</ele><time>2026-05-01T13:05:08Z</time></trkpt><trkpt lat="45.691169991006696" lon="13.808344332233544"><ele>308.0</ele><time>2026-05-01T13:05:09Z</time></trkpt><trkpt lat="45.69092008466461" lon="13.808467215248589"><ele>305.5</ele><time>2026-05-01T13:05:10Z</time></trkpt><trkpt lat="45.690665569042714" lon="13.808590773342948"><ele>303.0</ele><time>2026-05-01T13:05:11Z</time></trkpt><trkpt lat="45.6904121036731" lon="13.808718247926482"><ele>305.0</ele><time>2026-05-01T13:05:12Z</time></trkpt><trkpt lat="45.690158482966176" lon="13.808846369233136"><ele>307.0</ele><time>2026-05-01T13:05:13Z</time></trkpt><trkpt lat="45.68990516054652" lon="13.808979284558728"><ele>307.0</ele><time>2026-05-01T13:05:14Z</time></trkpt><trkpt lat="45.68965187406648" lon="13.809123767572682"><ele>307.0</ele><time>2026-05-01T13:05:15Z</time></trkpt><trkpt lat="45.68939787271025" lon="13.809270259831568"><ele>308.0</ele><time>2026-05-01T13:05:16Z</time></trkpt><trkpt lat="45.689146138105265" lon="13.809420266982261"><ele>309.0</ele><time>2026-05-01T13:05:17Z</time></trkpt><trkpt lat="45.68889740068194" lon="13.80957294882548"><ele>309.0</ele><time>2026-05-01T13:05:18Z</time></trkpt><trkpt lat="45.68864827561663" lon="13.809731941869087"><ele>309.0</ele><time>2026-05-01T13:05:19Z</time></trkpt><trkpt lat="45.68840140357687" lon="13.80989042522896"><ele>310.5</ele><time>2026-05-01T13:05:20Z</time></trkpt><trkpt lat="45.68815711422171" lon="13.81005742277129"><ele>312.0</ele><time>2026-05-01T13:05:21Z</time></trkpt><trkpt lat="45.68791405772849" lon="13.810225468887218"><ele>313.0</ele><time>2026-05-01T13:05:22Z</time></trkpt><trkpt lat="45.687667998315185" lon="13.810397314216987"><ele>314.0</ele><time>2026-05-01T13:05:23Z</time></trkpt><trkpt lat="45.6874208194769" lon="13.810572998524695"><ele>314.0</ele><time>2026-05-01T13:05:24Z</time></trkpt><trkpt lat="45.68717349308422" lon="13.81075643258496"><ele>314.0</ele><time>2026-05-01T13:05:25Z</time></trkpt><trkpt lat="45.686925526481474" lon="13.810947671478793"><ele>315.5</ele><time>2026-05-01T13:05:26Z</time></trkpt><trkpt lat="45.68667756841968" lon="13.811140396670847"><ele>317.0</ele><time>2026-05-01T13:05:27Z</time></trkpt><trkpt lat="45.68643193033418" lon="13.811334220299466"><ele>317.0</ele><time>2026-05-01T13:05:28Z</time></trkpt><trkpt lat="45.6861892969882" lon="13.811525020637736"><ele>317.0</ele><time>2026-05-01T13:05:29Z</time></trkpt><trkpt lat="45.68594660461202" lon="13.811725093423979"><ele>317.5</ele><time>2026-05-01T13:05:30Z</time></trkpt><trkpt lat="45.68570679888" lon="13.811924105306595"><ele>318.0</ele><time>2026-05-01T13:05:31Z</time></trkpt><trkpt lat="45.685466747846306" lon="13.812121743954043"><ele>319.5</ele><time>2026-05-01T13:05:32Z</time></trkpt><trkpt lat="45.68523097577615" lon="13.81232663552074"><ele>321.0</ele><time>2026-05-01T13:05:33Z</time></trkpt><trkpt lat="45.68499717899426" lon="13.812528448936655"><ele>319.5</ele><time>2026-05-01T13:05:34Z</time></trkpt><trkpt lat="45.68476261001165" lon="13.812725107413714"><ele>318.0</ele><time>2026-05-01T13:05:35Z</time></trkpt><trkpt lat="45.68453155599827" lon="13.812922476141917"><ele>320.5</ele><time>2026-05-01T13:05:36Z</time></trkpt><trkpt lat="45.6842989086809" lon="13.813117726293637"><ele>323.0</ele><time>2026-05-01T13:05:37Z</time></trkpt><trkpt lat="45.68406668092264" lon="13.813314557544862"><ele>323.0</ele><time>2026-05-01T13:05:38Z</time></trkpt><trkpt lat="45.68383203479424" lon="13.813513548248922"><ele>323.0</ele><time>2026-05-01T13:05:39Z</time></trkpt><trkpt lat="45.68359708936899" lon="13.813713108075746"><ele>324.5</ele><time>2026-05-01T13:05:40Z</time></trkpt><trkpt lat="45.683357696219566" lon="13.813912196254247"><ele>326.0</ele><time>2026-05-01T13:05:41Z</time></trkpt><trkpt lat="45.683117870280746" lon="13.814105989461003"><ele>326.0</ele><time>2026-05-01T13:05:42Z</time></trkpt><trkpt lat="45.68287578136557" lon="13.81429852741445"><ele>326.0</ele><time>2026-05-01T13:05:43Z</time></trkpt><trkpt lat="45.68263076746852" lon="13.814489032770346"><ele>326.5</ele><time>2026-05-01T13:05:44Z</time></trkpt><trkpt lat="45.68239035638291" lon="13.814676639393879"><ele>327.0</ele><time>2026-05-01T13:05:45Z</time></trkpt><trkpt lat="45.68214121796965" lon="13.814860904436014"><ele>326.5</ele><time>2026-05-01T13:05:46Z</time></trkpt><trkpt lat="45.681890674585425" lon="13.815043214061618"><ele>326.0</ele><time>2026-05-01T13:05:47Z</time></trkpt><trkpt lat="45.681638813912755" lon="13.815224263297564"><ele>326.0</ele><time>2026-05-01T13:05:48Z</time></trkpt><trkpt lat="45.6813848959822" lon="13.815400906451243"><ele>326.0</ele><time>2026-05-01T13:05:49Z</time></trkpt><trkpt lat="45.68112661625883" lon="13.815574693070502"><ele>326.0</ele><time>2026-05-01T13:05:50Z</time></trkpt><trkpt lat="45.6808681905083" lon="13.815742371577038"><ele>326.0</ele><time>2026-05-01T13:05:51Z</time></trkpt><trkpt lat="45.68060946053766" lon="13.815903042267953"><ele>327.0</ele><time>2026-05-01T13:05:52Z</time></trkpt><trkpt lat="45.680350979107146" lon="13.816062553254632"><ele>328.0</ele><time>2026-05-01T13:05:53Z</time></trkpt><trkpt lat="45.680091804794785" lon="13.816220531336477"><ele>328.0</ele><time>2026-05-01T13:05:54Z</time></trkpt><trkpt lat="45.679831054408325" lon="13.816371573977106"><ele>328.0</ele><time>2026-05-01T13:05:55Z</time></trkpt><trkpt lat="45.67957301419022" lon="13.816518028772544"><ele>327.5</ele><time>2026-05-01T13:05:56Z</time></trkpt><trkpt lat="45.679315478073775" lon="13.81666067164384"><ele>327.0</ele><time>2026-05-01T13:05:57Z</time></trkpt><trkpt lat="45.679056629954545" lon="13.816802464236662"><ele>326.0</ele><time>2026-05-01T13:05:58Z</time></trkpt><trkpt lat="45.67879774748896" lon="13.816944089129908"><ele>325.0</ele><time>2026-05-01T13:05:59Z</time></trkpt><trkpt lat="45.67853659358121" lon="13.817083002175254"><ele>328.0</ele><time>2026-05-01T13:06:00Z</time></trkpt><trkpt lat="45.6782731669662" lon="13.817216168634975"><ele>331.0</ele><time>2026-05-01T13:06:01Z</time></trkpt><trkpt lat="45.6780105815504" lon="13.817348527831093"><ele>331.0</ele><time>2026-05-01T13:06:02Z</time></trkpt><trkpt lat="45.67774819712042" lon="13.817479647884925"><ele>331.0</ele><time>2026-05-01T13:06:03Z</time></trkpt><trkpt lat="45.67748689349895" lon="13.81761568905707"><ele>334.0</ele><time>2026-05-01T13:06:04Z</time></trkpt><trkpt lat="45.67723101422072" lon="13.817739599040566"><ele>337.0</ele><time>2026-05-01T13:06:05Z</time></trkpt><trkpt lat="45.676976027218764" lon="13.817864155872725"><ele>336.0</ele><time>2026-05-01T13:06:06Z</time></trkpt><trkpt lat="45.676719118589155" lon="13.818014165150123"><ele>335.0</ele><time>2026-05-01T13:06:07Z</time></trkpt><trkpt lat="45.67646354184622" lon="13.81815646038892"><ele>335.0</ele><time>2026-05-01T13:06:08Z</time></trkpt><trkpt lat="45.676207755505374" lon="13.818297783940706"><ele>335.0</ele><time>2026-05-01T13:06:09Z</time></trkpt><trkpt lat="45.67595127500376" lon="13.818438159660948"><ele>335.5</ele><time>2026-05-01T13:06:10Z</time></trkpt><trkpt lat="45.675677949039645" lon="13.818525763092234"><ele>336.0</ele><time>2026-05-01T13:06:11Z</time></trkpt><trkpt lat="45.67541982590087" lon="13.818657421721793"><ele>335.0</ele><time>2026-05-01T13:06:12Z</time></trkpt><trkpt lat="45.67516292548836" lon="13.818791975029706"><ele>334.0</ele><time>2026-05-01T13:06:13Z</time></trkpt><trkpt lat="45.67490905053649" lon="13.818929121017243"><ele>334.0</ele><time>2026-05-01T13:06:14Z</time></trkpt><trkpt lat="45.67465904978336" lon="13.81906271354087"><ele>334.0</ele><time>2026-05-01T13:06:15Z</time></trkpt><trkpt lat="45.67441414218799" lon="13.81920397808428"><ele>334.0</ele><time>2026-05-01T13:06:16Z</time></trkpt><trkpt lat="45.67417318007975" lon="13.819352061539407"><ele>334.0</ele><time>2026-05-01T13:06:17Z</time></trkpt><trkpt lat="45.67393439084762" lon="13.819505795474251"><ele>334.0</ele><time>2026-05-01T13:06:18Z</time></trkpt><trkpt lat="45.673696559177586" lon="13.81966110484633"><ele>334.0</ele><time>2026-05-01T13:06:19Z</time></trkpt><trkpt lat="45.67345944163789" lon="13.819821660395279"><ele>334.5</ele><time>2026-05-01T13:06:20Z</time></trkpt><trkpt lat="45.67322588841099" lon="13.81998894715422"><ele>335.0</ele><time>2026-05-01T13:06:21Z</time></trkpt><trkpt lat="45.67299563217714" lon="13.820159415897182"><ele>336.5</ele><time>2026-05-01T13:06:22Z</time></trkpt><trkpt lat="45.67277269356408" lon="13.820329926198989"><ele>338.0</ele><time>2026-05-01T13:06:23Z</time></trkpt><trkpt lat="45.67255309817055" lon="13.820504465902786"><ele>338.0</ele><time>2026-05-01T13:06:24Z</time></trkpt><trkpt lat="45.67233468169896" lon="13.820682639751869"><ele>338.0</ele><time>2026-05-01T13:06:25Z</time></trkpt><trkpt lat="45.67211599641684" lon="13.820863560675798"><ele>338.5</ele><time>2026-05-01T13:06:26Z</time></trkpt><trkpt lat="45.67190011002292" lon="13.821049160794503"><ele>339.0</ele><time>2026-05-01T13:06:27Z</time></trkpt><trkpt lat="45.671685533666505" lon="13.821238792557992"><ele>339.0</ele><time>2026-05-01T13:06:28Z</time></trkpt><trkpt lat="45.671469062535" lon="13.821428193049668"><ele>339.0</ele><time>2026-05-01T13:06:29Z</time></trkpt><trkpt lat="45.671259208991856" lon="13.821624953695848"><ele>341.5</ele><time>2026-05-01T13:06:30Z</time></trkpt><trkpt lat="45.67104720149719" lon="13.82181900883439"><ele>344.0</ele><time>2026-05-01T13:06:31Z</time></trkpt><trkpt lat="45.670832612137666" lon="13.822010828244519"><ele>344.0</ele><time>2026-05-01T13:06:32Z</time></trkpt><trkpt lat="45.670616972244076" lon="13.822209421473108"><ele>344.0</ele><time>2026-05-01T13:06:33Z</time></trkpt><trkpt lat="45.67039944763804" lon="13.822408946832322"><ele>346.0</ele><time>2026-05-01T13:06:34Z</time></trkpt><trkpt lat="45.67018221241099" lon="13.822600670784011"><ele>348.0</ele><time>2026-05-01T13:06:35Z</time></trkpt><trkpt lat="45.66995858037656" lon="13.822790619872798"><ele>348.0</ele><time>2026-05-01T13:06:36Z</time></trkpt><trkpt lat="45.66973424477064" lon="13.822985249827502"><ele>348.0</ele><time>2026-05-01T13:06:37Z</time></trkpt><trkpt lat="45.66950764110247" lon="13.823180341469547"><ele>350.0</ele><time>2026-05-01T13:06:38Z</time></trkpt><trkpt lat="45.669277212980994" lon="13.823372929725917"><ele>352.0</ele><time>2026-05-01T13:06:39Z</time></trkpt><trkpt lat="45.669044251295425" lon="13.823568323293678"><ele>352.5</ele><time>2026-05-01T13:06:40Z</time></trkpt><trkpt lat="45.668805409339164" lon="13.823775101160034"><ele>353.0</ele><time>2026-05-01T13:06:41Z</time></trkpt><trkpt lat="45.66857446193382" lon="13.823966749872097"><ele>354.0</ele><time>2026-05-01T13:06:42Z</time></trkpt><trkpt lat="45.66834285966537" lon="13.824152631389014"><ele>355.0</ele><time>2026-05-01T13:06:43Z</time></trkpt><trkpt lat="45.668115854143544" lon="13.82434194590648"><ele>355.5</ele><time>2026-05-01T13:06:44Z</time></trkpt><trkpt lat="45.66789309933818" lon="13.824523020184907"><ele>356.0</ele><time>2026-05-01T13:06:45Z</time></trkpt><trkpt lat="45.66767628523998" lon="13.824704276185864"><ele>357.5</ele><time>2026-05-01T13:06:46Z</time></trkpt><trkpt lat="45.66746324626023" lon="13.824872944087923"><ele>359.0</ele><time>2026-05-01T13:06:47Z</time></trkpt><trkpt lat="45.6672605552822" lon="13.825057330494163"><ele>359.0</ele><time>2026-05-01T13:06:48Z</time></trkpt><trkpt lat="45.667051000668586" lon="13.825236277262565"><ele>359.0</ele><time>2026-05-01T13:06:49Z</time></trkpt><trkpt lat="45.66684199385402" lon="13.825417149100875"><ele>359.5</ele><time>2026-05-01T13:06:50Z</time></trkpt><trkpt lat="45.666633617762905" lon="13.825598588099933"><ele>360.0</ele><time>2026-05-01T13:06:51Z</time></trkpt><trkpt lat="45.66638647704761" lon="13.825779448894615"><ele>360.0</ele><time>2026-05-01T13:06:52Z</time></trkpt><trkpt lat="45.66617152190721" lon="13.82595706781161"><ele>360.0</ele><time>2026-05-01T13:06:53Z</time></trkpt><trkpt lat="45.66595621118362" lon="13.82613136490632"><ele>358.5</ele><time>2026-05-01T13:06:54Z</time></trkpt><trkpt lat="45.66573847087864" lon="13.826306954936323"><ele>357.0</ele><time>2026-05-01T13:06:55Z</time></trkpt><trkpt lat="45.66552030327934" lon="13.82648389888424"><ele>357.0</ele><time>2026-05-01T13:06:56Z</time></trkpt><trkpt lat="45.665301245201846" lon="13.826661752631997"><ele>357.0</ele><time>2026-05-01T13:06:57Z</time></trkpt><trkpt lat="45.66508428313419" lon="13.82684162556727"><ele>358.0</ele><time>2026-05-01T13:06:58Z</time></trkpt><trkpt lat="45.66486592253214" lon="13.82702560625787"><ele>359.0</ele><time>2026-05-01T13:06:59Z</time></trkpt><trkpt lat="45.66464851873874" lon="13.82720520609127"><ele>360.5</ele><time>2026-05-01T13:07:00Z</time></trkpt><trkpt lat="45.66443331091473" lon="13.827382362954255"><ele>362.0</ele><time>2026-05-01T13:07:01Z</time></trkpt><trkpt lat="45.66421857655977" lon="13.827559077276574"><ele>361.5</ele><time>2026-05-01T13:07:02Z</time></trkpt><trkpt lat="45.66400825500105" lon="13.827736657364893"><ele>361.0</ele><time>2026-05-01T13:07:03Z</time></trkpt><trkpt lat="45.66380071939958" lon="13.827906215714584"><ele>363.0</ele><time>2026-05-01T13:07:04Z</time></trkpt><trkpt lat="45.66358795270708" lon="13.828079833989323"><ele>365.0</ele><time>2026-05-01T13:07:05Z</time></trkpt><trkpt lat="45.66337124004345" lon="13.828254061254643"><ele>365.0</ele><time>2026-05-01T13:07:06Z</time></trkpt><trkpt lat="45.66315947576942" lon="13.82841853155907"><ele>365.0</ele><time>2026-05-01T13:07:07Z</time></trkpt><trkpt lat="45.66295587940907" lon="13.828576069104637"><ele>363.6666666666667</ele><time>2026-05-01T13:07:08Z</time></trkpt><trkpt lat="45.662764042571354" lon="13.828724415313415"><ele>362.3333333333333</ele><time>2026-05-01T13:07:09Z</time></trkpt><trkpt lat="45.66258161420636" lon="13.828873892277498"><ele>361.0</ele><time>2026-05-01T13:07:10Z</time></trkpt><trkpt lat="45.6624054080122" lon="13.829015818943484"><ele>361.0</ele><time>2026-05-01T13:07:11Z</time></trkpt><trkpt lat="45.66223661356761" lon="13.82915168176582"><ele>361.0</ele><time>2026-05-01T13:07:12Z</time></trkpt><trkpt lat="45.66207752748988" lon="13.829279352184406"><ele>361.0</ele><time>2026-05-01T13:07:13Z</time></trkpt><trkpt lat="45.66192349735305" lon="13.829404169273218"><ele>360.66666666666663</ele><time>2026-05-01T13:07:14Z</time></trkpt><trkpt lat="45.66177263541145" lon="13.82952797057346"><ele>360.3333333333333</ele><time>2026-05-01T13:07:15Z</time></trkpt><trkpt lat="45.66162126080805" lon="13.829657605954015"><ele>360.0</ele><time>2026-05-01T13:07:16Z</time></trkpt><trkpt lat="45.66146293621804" lon="13.829797507432374"><ele>360.0</ele><time>2026-05-01T13:07:17Z</time></trkpt><trkpt lat="45.661294928117215" lon="13.829947822886309"><ele>360.0</ele><time>2026-05-01T13:07:18Z</time></trkpt><trkpt lat="45.66111582652744" lon="13.830103491835615"><ele>360.0</ele><time>2026-05-01T13:07:19Z</time></trkpt><trkpt lat="45.66092764504367" lon="13.830262413476989"><ele>360.0</ele><time>2026-05-01T13:07:20Z</time></trkpt><trkpt lat="45.66073353961551" lon="13.830428468873654"><ele>360.0</ele><time>2026-05-01T13:07:21Z</time></trkpt><trkpt lat="45.660531675478765" lon="13.830599502913714"><ele>360.0</ele><time>2026-05-01T13:07:22Z</time></trkpt><trkpt lat="45.66032332645768" lon="13.830772895530702"><ele>360.0</ele><time>2026-05-01T13:07:23Z</time></trkpt><trkpt lat="45.66010592111843" lon="13.830951199469196"><ele>360.0</ele><time>2026-05-01T13:07:24Z</time></trkpt><trkpt lat="45.6598808292652" lon="13.831133591945187"><ele>360.0</ele><time>2026-05-01T13:07:25Z</time></trkpt><trkpt lat="45.65965169185111" lon="13.831320618983053"><ele>359.5</ele><time>2026-05-01T13:07:26Z</time></trkpt><trkpt lat="45.659425790801365" lon="13.831506131889736"><ele>359.0</ele><time>2026-05-01T13:07:27Z</time></trkpt><trkpt lat="45.6592000682613" lon="13.83169364865973"><ele>357.5</ele><time>2026-05-01T13:07:28Z</time></trkpt><trkpt lat="45.658974453511156" lon="13.831881070815223"><ele>356.0</ele><time>2026-05-01T13:07:29Z</time></trkpt><trkpt lat="45.65874853790295" lon="13.832066201504666"><ele>356.5</ele><time>2026-05-01T13:07:30Z</time></trkpt><trkpt lat="45.65852434798567" lon="13.832248663925327"><ele>357.0</ele><time>2026-05-01T13:07:31Z</time></trkpt><trkpt lat="45.658299786419704" lon="13.832432157758838"><ele>357.0</ele><time>2026-05-01T13:07:32Z</time></trkpt><trkpt lat="45.6580720555701" lon="13.832617306330627"><ele>357.0</ele><time>2026-05-01T13:07:33Z</time></trkpt><trkpt lat="45.65784466313264" lon="13.83279769472753"><ele>355.0</ele><time>2026-05-01T13:07:34Z</time></trkpt><trkpt lat="45.65761556919063" lon="13.832974372701633"><ele>353.0</ele><time>2026-05-01T13:07:35Z</time></trkpt><trkpt lat="45.65738191747784" lon="13.83315605950934"><ele>353.0</ele><time>2026-05-01T13:07:36Z</time></trkpt><trkpt lat="45.65714501420685" lon="13.833342706220943"><ele>353.0</ele><time>2026-05-01T13:07:37Z</time></trkpt><trkpt lat="45.656904977499465" lon="13.833531013938622"><ele>354.5</ele><time>2026-05-01T13:07:38Z</time></trkpt><trkpt lat="45.65666578566229" lon="13.833715665688935"><ele>356.0</ele><time>2026-05-01T13:07:39Z</time></trkpt><trkpt lat="45.65642977929177" lon="13.833901042936889"><ele>356.0</ele><time>2026-05-01T13:07:40Z</time></trkpt><trkpt lat="45.656192933681254" lon="13.8340843249975"><ele>356.0</ele><time>2026-05-01T13:07:41Z</time></trkpt><trkpt lat="45.655955192976734" lon="13.834268529353741"><ele>354.5</ele><time>2026-05-01T13:07:42Z</time></trkpt><trkpt lat="45.655717463240556" lon="13.834451424641527"><ele>353.0</ele><time>2026-05-01T13:07:43Z</time></trkpt><trkpt lat="45.655472649241595" lon="13.834636503113908"><ele>353.5</ele><time>2026-05-01T13:07:44Z</time></trkpt><trkpt lat="45.65521468316479" lon="13.83482598122153"><ele>354.0</ele><time>2026-05-01T13:07:45.015Z</time></trkpt><trkpt lat="45.65495208657111" lon="13.835014332861494"><ele>354.0</ele><time>2026-05-01T13:07:46.023Z</time></trkpt><trkpt lat="45.654687202159444" lon="13.835199676873367"><ele>354.0</ele><time>2026-05-01T13:07:47.016Z</time></trkpt><trkpt lat="45.65441790205697" lon="13.835385458359628"><ele>363.0</ele><time>2026-05-01T13:07:48.015Z</time></trkpt><trkpt lat="45.6519410145737" lon="13.837063273462562"><ele>363.0</ele><time>2026-05-01T13:07:52.696Z</time></trkpt><trkpt lat="45.65129040303822" lon="13.837502394842943"><ele>362.0</ele><time>2026-05-01T13:07:53.696Z</time></trkpt><trkpt lat="45.65064100305175" lon="13.837945106019994"><ele>365.0</ele><time>2026-05-01T13:07:54.696Z</time></trkpt><trkpt lat="45.64999090439843" lon="13.838385504989008"><ele>366.0</ele><time>2026-05-01T13:07:55.696Z</time></trkpt><trkpt lat="45.649340984098636" lon="13.83882655882087"><ele>366.0</ele><time>2026-05-01T13:07:56.696Z</time></trkpt><trkpt lat="45.64869105847975" lon="13.839267784358384"><ele>374.0</ele><time>2026-05-01T13:07:57.696Z</time></trkpt><trkpt lat="45.648040410386" lon="13.839706612626816"><ele>376.0</ele><time>2026-05-01T13:07:58.696Z</time></trkpt><trkpt lat="45.647387118480104" lon="13.840149657143153"><ele>373.0</ele><time>2026-05-01T13:07:59.701Z</time></trkpt><trkpt lat="45.64674317914348" lon="13.840586931289243"><ele>365.0</ele><time>2026-05-01T13:08:00.692Z</time></trkpt><trkpt lat="45.646092794783385" lon="13.841028618782557"><ele>365.0</ele><time>2026-05-01T13:08:01.693Z</time></trkpt><trkpt lat="45.64544197309088" lon="13.841469299268077"><ele>365.0</ele><time>2026-05-01T13:08:02.694Z</time></trkpt><trkpt lat="45.644793212649844" lon="13.841910071597637"><ele>364.0</ele><time>2026-05-01T13:08:03.692Z</time></trkpt><trkpt lat="45.6441410525173" lon="13.842353350656767"><ele>369.0</ele><time>2026-05-01T13:08:04.696Z</time></trkpt><trkpt lat="45.64349044300622" lon="13.84279246134328"><ele>369.0</ele><time>2026-05-01T13:08:05.696Z</time></trkpt><trkpt lat="45.64283967784598" lon="13.843230834671603"><ele>375.0</ele><time>2026-05-01T13:08:06.696Z</time></trkpt><trkpt lat="45.642178505684505" lon="13.843636119423254"><ele>376.0</ele><time>2026-05-01T13:08:07.696Z</time></trkpt><trkpt lat="45.64149849566494" lon="13.843971725952493"><ele>375.0</ele><time>2026-05-01T13:08:08.696Z</time></trkpt><trkpt lat="45.64079802761142" lon="13.844206329475716"><ele>378.0</ele><time>2026-05-01T13:08:09.696Z</time></trkpt><trkpt lat="45.640083709150176" lon="13.844326496783086"><ele>376.0</ele><time>2026-05-01T13:08:10.696Z</time></trkpt><trkpt lat="45.639366749817505" lon="13.844333348907943"><ele>375.0</ele><time>2026-05-01T13:08:11.693Z</time></trkpt><trkpt lat="45.63865094906718" lon="13.844200818284227"><ele>368.0</ele><time>2026-05-01T13:08:12.696Z</time></trkpt><trkpt lat="45.637950842918485" lon="13.843966291747117"><ele>368.0</ele><time>2026-05-01T13:08:13.696Z</time></trkpt><trkpt lat="45.637274320993015" lon="13.843618101433108"><ele>362.0</ele><time>2026-05-01T13:08:14.696Z</time></trkpt><trkpt lat="45.63663353124815" lon="13.843160966532393"><ele>348.0</ele><time>2026-05-01T13:08:15.693Z</time></trkpt><trkpt lat="45.63602879646445" lon="13.84259934735861"><ele>348.0</ele><time>2026-05-01T13:08:16.696Z</time></trkpt><trkpt lat="45.635475574201564" lon="13.841949126477843"><ele>340.0</ele><time>2026-05-01T13:08:17.693Z</time></trkpt><trkpt lat="45.63498293804195" lon="13.841196558701142"><ele>332.0</ele><time>2026-05-01T13:08:18.696Z</time></trkpt><trkpt lat="45.63455224694216" lon="13.840375388566345"><ele>301.0</ele><time>2026-05-01T13:08:19.696Z</time></trkpt><trkpt lat="45.634189267074326" lon="13.839495269928214"><ele>267.0</ele><time>2026-05-01T13:08:20.692Z</time></trkpt><trkpt lat="45.633938850192806" lon="13.838347450915087"><ele>267.0</ele><time>2026-05-01T13:09:07Z</time></trkpt><trkpt lat="45.633734271169075" lon="13.837823021798242"><ele>267.0</ele><time>2026-05-01T13:09:08Z</time></trkpt><trkpt lat="45.63366947102619" lon="13.83748034289559"><ele>267.0</ele><time>2026-05-01T13:09:09Z</time></trkpt><trkpt lat="45.63360755962687" lon="13.837126242380528"><ele>267.0</ele><time>2026-05-01T13:09:10Z</time></trkpt><trkpt lat="45.63356758364034" lon="13.836770225883551"><ele>267.0</ele><time>2026-05-01T13:09:11Z</time></trkpt><trkpt lat="45.633531704297575" lon="13.836409603082588"><ele>267.0</ele><time>2026-05-01T13:09:12Z</time></trkpt><trkpt lat="45.63350285517115" lon="13.83605154878594"><ele>261.0</ele><time>2026-05-01T13:09:13Z</time></trkpt><trkpt lat="45.63349104511921" lon="13.835689278116545"><ele>255.0</ele><time>2026-05-01T13:09:14Z</time></trkpt><trkpt lat="45.633502229523394" lon="13.835334731217658"><ele>245.5</ele><time>2026-05-01T13:09:15Z</time></trkpt><trkpt lat="45.63349471320671" lon="13.834950211914386"><ele>236.0</ele><time>2026-05-01T13:09:16Z</time></trkpt><trkpt lat="45.633517594901534" lon="13.83457979598973"><ele>226.0</ele><time>2026-05-01T13:09:17Z</time></trkpt><trkpt lat="45.63354755611548" lon="13.834213326322413"><ele>216.0</ele><time>2026-05-01T13:09:18Z</time></trkpt><trkpt lat="45.63359009830702" lon="13.833857558791607"><ele>228.5</ele><time>2026-05-01T13:09:19Z</time></trkpt><trkpt lat="45.633647893429675" lon="13.833508397456272"><ele>241.0</ele><time>2026-05-01T13:09:20Z</time></trkpt><trkpt lat="45.63371295259062" lon="13.833149110718388"><ele>241.0</ele><time>2026-05-01T13:09:21Z</time></trkpt><trkpt lat="45.633781125301695" lon="13.832789458495878"><ele>241.0</ele><time>2026-05-01T13:09:22Z</time></trkpt><trkpt lat="45.633863965094434" lon="13.832433980259868"><ele>237.5</ele><time>2026-05-01T13:09:23Z</time></trkpt><trkpt lat="45.633958220247024" lon="13.832089955469046"><ele>234.0</ele><time>2026-05-01T13:09:24Z</time></trkpt><trkpt lat="45.63406154671699" lon="13.831753752883797"><ele>234.0</ele><time>2026-05-01T13:09:25Z</time></trkpt><trkpt lat="45.6341748296889" lon="13.831426140040065"><ele>234.0</ele><time>2026-05-01T13:09:26Z</time></trkpt><trkpt lat="45.63429366102965" lon="13.831081384892924"><ele>240.0</ele><time>2026-05-01T13:09:27Z</time></trkpt><trkpt lat="45.63442466053175" lon="13.830762074861857"><ele>246.0</ele><time>2026-05-01T13:09:28Z</time></trkpt><trkpt lat="45.63455322052922" lon="13.830443333182298"><ele>248.0</ele><time>2026-05-01T13:09:29Z</time></trkpt><trkpt lat="45.63468284145848" lon="13.830117654070971"><ele>250.0</ele><time>2026-05-01T13:09:30.014Z</time></trkpt><trkpt lat="45.63481109054909" lon="13.829793054789219"><ele>250.0</ele><time>2026-05-01T13:09:31.02Z</time></trkpt><trkpt lat="45.6349409014981" lon="13.829469894336079"><ele>250.0</ele><time>2026-05-01T13:09:32.024Z</time></trkpt><trkpt lat="45.635083044552964" lon="13.829171652991912"><ele>250.5</ele><time>2026-05-01T13:09:33.02Z</time></trkpt><trkpt lat="45.63522076601181" lon="13.828862176492356"><ele>251.0</ele><time>2026-05-01T13:09:34.023Z</time></trkpt><trkpt lat="45.63582766339707" lon="13.826692421002152"><ele>244.0</ele><time>2026-05-01T13:09:40Z</time></trkpt><trkpt lat="45.63590202617282" lon="13.826309374000832"><ele>237.0</ele><time>2026-05-01T13:09:41Z</time></trkpt><trkpt lat="45.635926417529156" lon="13.82590774723305"><ele>237.0</ele><time>2026-05-01T13:09:42Z</time></trkpt><trkpt lat="45.63599513320269" lon="13.825503827582224"><ele>237.0</ele><time>2026-05-01T13:09:43Z</time></trkpt><trkpt lat="45.63605638668386" lon="13.82509318280235"><ele>236.5</ele><time>2026-05-01T13:09:44Z</time></trkpt><trkpt lat="45.636130283305896" lon="13.824677275467009"><ele>236.0</ele><time>2026-05-01T13:09:45Z</time></trkpt><trkpt lat="45.636185909664015" lon="13.824253021625008"><ele>227.0</ele><time>2026-05-01T13:09:46Z</time></trkpt><trkpt lat="45.63625708043493" lon="13.823847541430222"><ele>218.0</ele><time>2026-05-01T13:09:47Z</time></trkpt><trkpt lat="45.63633093606149" lon="13.823447339667437"><ele>218.0</ele><time>2026-05-01T13:09:48Z</time></trkpt><trkpt lat="45.63638893999602" lon="13.82304586970453"><ele>218.0</ele><time>2026-05-01T13:09:49Z</time></trkpt><trkpt lat="45.63644936398576" lon="13.822640705108117"><ele>221.0</ele><time>2026-05-01T13:09:50Z</time></trkpt><trkpt lat="45.636498528173256" lon="13.822235270586795"><ele>224.0</ele><time>2026-05-01T13:09:51Z</time></trkpt><trkpt lat="45.63654341093198" lon="13.82182930871787"><ele>225.5</ele><time>2026-05-01T13:09:52Z</time></trkpt><trkpt lat="45.63658683010592" lon="13.821424622206465"><ele>227.0</ele><time>2026-05-01T13:09:53Z</time></trkpt><trkpt lat="45.63662526084954" lon="13.821019343353914"><ele>228.5</ele><time>2026-05-01T13:09:54Z</time></trkpt><trkpt lat="45.636666916720856" lon="13.820612124083643"><ele>230.0</ele><time>2026-05-01T13:09:55Z</time></trkpt><trkpt lat="45.63671028182366" lon="13.820199815687017"><ele>229.5</ele><time>2026-05-01T13:09:56Z</time></trkpt><trkpt lat="45.63674974556364" lon="13.819776965732942"><ele>229.0</ele><time>2026-05-01T13:09:57Z</time></trkpt><trkpt lat="45.63679305587323" lon="13.819348140864317"><ele>225.0</ele><time>2026-05-01T13:09:58Z</time></trkpt><trkpt lat="45.636836271386734" lon="13.818923661375935"><ele>221.0</ele><time>2026-05-01T13:09:59Z</time></trkpt><trkpt lat="45.63687726654596" lon="13.818503906911998"><ele>222.0</ele><time>2026-05-01T13:10:00Z</time></trkpt><trkpt lat="45.636921193602554" lon="13.818084900366802"><ele>223.0</ele><time>2026-05-01T13:10:01Z</time></trkpt><trkpt lat="45.636962143533545" lon="13.817680754351157"><ele>214.0</ele><time>2026-05-01T13:10:02Z</time></trkpt><trkpt lat="45.6370021918466" lon="13.817290816574314"><ele>205.0</ele><time>2026-05-01T13:10:03Z</time></trkpt><trkpt lat="45.637044935311394" lon="13.81690645493759"><ele>205.5</ele><time>2026-05-01T13:10:04Z</time></trkpt><trkpt lat="45.637083433383594" lon="13.816544276978338"><ele>206.0</ele><time>2026-05-01T13:10:05Z</time></trkpt><trkpt lat="45.63711894640401" lon="13.816187085730958"><ele>205.0</ele><time>2026-05-01T13:10:06Z</time></trkpt><trkpt lat="45.637154429416945" lon="13.815839838408822"><ele>204.0</ele><time>2026-05-01T13:10:07Z</time></trkpt><trkpt lat="45.63718588188595" lon="13.815505953592831"><ele>204.0</ele><time>2026-05-01T13:10:08Z</time></trkpt><trkpt lat="45.63721258823715" lon="13.815176941514196"><ele>204.0</ele><time>2026-05-01T13:10:09Z</time></trkpt><trkpt lat="45.63723623529552" lon="13.814844928353512"><ele>204.0</ele><time>2026-05-01T13:10:10Z</time></trkpt><trkpt lat="45.63723497197629" lon="13.81451688140586"><ele>204.0</ele><time>2026-05-01T13:10:11Z</time></trkpt><trkpt lat="45.63720522733995" lon="13.814197626164457"><ele>202.5</ele><time>2026-05-01T13:10:12Z</time></trkpt><trkpt lat="45.63715236837522" lon="13.813885327523478"><ele>201.0</ele><time>2026-05-01T13:10:13Z</time></trkpt><trkpt lat="45.637070876747686" lon="13.813576504003336"><ele>210.0</ele><time>2026-05-01T13:10:14Z</time></trkpt><trkpt lat="45.63696528989074" lon="13.813279155037156"><ele>219.0</ele><time>2026-05-01T13:10:15Z</time></trkpt><trkpt lat="45.63685163493878" lon="13.812994956256805"><ele>219.0</ele><time>2026-05-01T13:10:16Z</time></trkpt><trkpt lat="45.63671579670392" lon="13.812733783196228"><ele>219.0</ele><time>2026-05-01T13:10:17Z</time></trkpt><trkpt lat="45.63656332681707" lon="13.812492356346612"><ele>216.0</ele><time>2026-05-01T13:10:18Z</time></trkpt><trkpt lat="45.63639561878554" lon="13.812266181943802"><ele>213.0</ele><time>2026-05-01T13:10:19Z</time></trkpt><trkpt lat="45.636211654213696" lon="13.81207615562955"><ele>211.5</ele><time>2026-05-01T13:10:20Z</time></trkpt><trkpt lat="45.63601337494989" lon="13.811914541361736"><ele>210.0</ele><time>2026-05-01T13:10:21Z</time></trkpt><trkpt lat="45.635804028031544" lon="13.811782121362663"><ele>210.0</ele><time>2026-05-01T13:10:22Z</time></trkpt><trkpt lat="45.635589028867926" lon="13.811672757971879"><ele>210.0</ele><time>2026-05-01T13:10:23Z</time></trkpt><trkpt lat="45.63537096573058" lon="13.811590245546274"><ele>207.0</ele><time>2026-05-01T13:10:24Z</time></trkpt><trkpt lat="45.63514955616141" lon="13.811536546493128"><ele>204.0</ele><time>2026-05-01T13:10:25Z</time></trkpt><trkpt lat="45.63493067952704" lon="13.81151946817605"><ele>201.0</ele><time>2026-05-01T13:10:26Z</time></trkpt><trkpt lat="45.634714945433224" lon="13.811537995092172"><ele>201.0</ele><time>2026-05-01T13:10:27Z</time></trkpt><trkpt lat="45.63449695050795" lon="13.811583505441117"><ele>201.0</ele><time>2026-05-01T13:10:28Z</time></trkpt><trkpt lat="45.634280942295256" lon="13.811665018895527"><ele>201.0</ele><time>2026-05-01T13:10:29Z</time></trkpt><trkpt lat="45.634066894198774" lon="13.811774137756615"><ele>200.5</ele><time>2026-05-01T13:10:30Z</time></trkpt><trkpt lat="45.633856638065396" lon="13.811922255793228"><ele>200.0</ele><time>2026-05-01T13:10:31Z</time></trkpt><trkpt lat="45.63365048749995" lon="13.812090455189574"><ele>199.0</ele><time>2026-05-01T13:10:32Z</time></trkpt><trkpt lat="45.63345993176725" lon="13.812290945623866"><ele>198.0</ele><time>2026-05-01T13:10:33Z</time></trkpt><trkpt lat="45.63328816235769" lon="13.812512938563772"><ele>201.5</ele><time>2026-05-01T13:10:34Z</time></trkpt><trkpt lat="45.63309631798508" lon="13.812663390588783"><ele>205.0</ele><time>2026-05-01T13:10:35Z</time></trkpt><trkpt lat="45.632995049388704" lon="13.813029625169229"><ele>205.0</ele><time>2026-05-01T13:10:36Z</time></trkpt><trkpt lat="45.63287755892149" lon="13.813316579732149"><ele>205.0</ele><time>2026-05-01T13:10:37Z</time></trkpt><trkpt lat="45.63278419298061" lon="13.813614214817415"><ele>196.0</ele><time>2026-05-01T13:10:38Z</time></trkpt><trkpt lat="45.632711536769875" lon="13.813919729471454"><ele>187.0</ele><time>2026-05-01T13:10:39Z</time></trkpt><trkpt lat="45.63265678829106" lon="13.81424625545062"><ele>186.5</ele><time>2026-05-01T13:10:40Z</time></trkpt><trkpt lat="45.632612802889874" lon="13.814589197812921"><ele>186.0</ele><time>2026-05-01T13:10:41Z</time></trkpt><trkpt lat="45.63258162116867" lon="13.814939977919323"><ele>187.0</ele><time>2026-05-01T13:10:42Z</time></trkpt><trkpt lat="45.632554641261294" lon="13.815283048823405"><ele>188.0</ele><time>2026-05-01T13:10:43Z</time></trkpt><trkpt lat="45.63252352180589" lon="13.815613702700364"><ele>188.0</ele><time>2026-05-01T13:10:44Z</time></trkpt><trkpt lat="45.632477075756114" lon="13.815932748498772"><ele>188.0</ele><time>2026-05-01T13:10:45Z</time></trkpt><trkpt lat="45.632414106388566" lon="13.8162444718447"><ele>189.0</ele><time>2026-05-01T13:10:46Z</time></trkpt><trkpt lat="45.63233299100866" lon="13.816559499214948"><ele>190.0</ele><time>2026-05-01T13:10:47Z</time></trkpt><trkpt lat="45.63223067128293" lon="13.816863982417294"><ele>190.0</ele><time>2026-05-01T13:10:48Z</time></trkpt><trkpt lat="45.632093592611014" lon="13.817136785105161"><ele>190.0</ele><time>2026-05-01T13:10:49Z</time></trkpt><trkpt lat="45.63194299984312" lon="13.817392884359977"><ele>180.0</ele><time>2026-05-01T13:10:50Z</time></trkpt><trkpt lat="45.63177094309717" lon="13.817627524542655"><ele>170.0</ele><time>2026-05-01T13:10:51Z</time></trkpt><trkpt lat="45.63158428674649" lon="13.817839932434277"><ele>170.0</ele><time>2026-05-01T13:10:52Z</time></trkpt><trkpt lat="45.631393513562145" lon="13.818039355433381"><ele>170.0</ele><time>2026-05-01T13:10:53Z</time></trkpt><trkpt lat="45.631203159784434" lon="13.81823080311524"><ele>172.0</ele><time>2026-05-01T13:10:54Z</time></trkpt><trkpt lat="45.63101606081224" lon="13.818421974728455"><ele>174.0</ele><time>2026-05-01T13:10:55Z</time></trkpt><trkpt lat="45.63083451510458" lon="13.818616374993221"><ele>174.0</ele><time>2026-05-01T13:10:56Z</time></trkpt><trkpt lat="45.63066351009275" lon="13.818823575463389"><ele>174.0</ele><time>2026-05-01T13:10:57Z</time></trkpt><trkpt lat="45.63050365231937" lon="13.819046696909451"><ele>174.0</ele><time>2026-05-01T13:10:58Z</time></trkpt><trkpt lat="45.630358437445956" lon="13.81928629229667"><ele>172.66666666666666</ele><time>2026-05-01T13:10:59Z</time></trkpt><trkpt lat="45.63023800657799" lon="13.81954444683621"><ele>171.33333333333331</ele><time>2026-05-01T13:11:00Z</time></trkpt><trkpt lat="45.63013645696043" lon="13.819828112931864"><ele>170.0</ele><time>2026-05-01T13:11:01Z</time></trkpt><trkpt lat="45.63004998871406" lon="13.82013370351272"><ele>171.0</ele><time>2026-05-01T13:11:02Z</time></trkpt><trkpt lat="45.62997939488489" lon="13.82045218078014"><ele>172.0</ele><time>2026-05-01T13:11:03Z</time></trkpt><trkpt lat="45.62992555600523" lon="13.820779440038093"><ele>171.0</ele><time>2026-05-01T13:11:04Z</time></trkpt><trkpt lat="45.629894098326055" lon="13.821128295511667"><ele>170.0</ele><time>2026-05-01T13:11:05Z</time></trkpt><trkpt lat="45.62987166129299" lon="13.821491056009306"><ele>168.5</ele><time>2026-05-01T13:11:06Z</time></trkpt><trkpt lat="45.62985073999894" lon="13.821866498277123"><ele>167.0</ele><time>2026-05-01T13:11:07Z</time></trkpt><trkpt lat="45.62983120843692" lon="13.822247490667268"><ele>167.0</ele><time>2026-05-01T13:11:08Z</time></trkpt><trkpt lat="45.629812071115815" lon="13.822628319169738"><ele>167.0</ele><time>2026-05-01T13:11:09Z</time></trkpt><trkpt lat="45.62979327903458" lon="13.823001204287397"><ele>165.5</ele><time>2026-05-01T13:11:10Z</time></trkpt><trkpt lat="45.62977362182605" lon="13.823376618451697"><ele>164.0</ele><time>2026-05-01T13:11:11Z</time></trkpt><trkpt lat="45.62975890092581" lon="13.823748165871905"><ele>164.0</ele><time>2026-05-01T13:11:12Z</time></trkpt><trkpt lat="45.62975033218917" lon="13.824113764075305"><ele>164.0</ele><time>2026-05-01T13:11:13Z</time></trkpt><trkpt lat="45.62974388758022" lon="13.824477255659406"><ele>165.5</ele><time>2026-05-01T13:11:14Z</time></trkpt><trkpt lat="45.629739921534956" lon="13.82483667381431"><ele>167.0</ele><time>2026-05-01T13:11:15Z</time></trkpt><trkpt lat="45.62973800560676" lon="13.825197077485873"><ele>167.0</ele><time>2026-05-01T13:11:16Z</time></trkpt><trkpt lat="45.62974629387473" lon="13.825555315587032"><ele>167.0</ele><time>2026-05-01T13:11:17Z</time></trkpt><trkpt lat="45.629753161974094" lon="13.825909401930847"><ele>160.0</ele><time>2026-05-01T13:11:18Z</time></trkpt><trkpt lat="45.62976056820373" lon="13.826255555085101"><ele>153.0</ele><time>2026-05-01T13:11:19Z</time></trkpt><trkpt lat="45.62977716009464" lon="13.826629746041903"><ele>151.5</ele><time>2026-05-01T13:11:20Z</time></trkpt><trkpt lat="45.62979698881309" lon="13.827007650490328"><ele>150.0</ele><time>2026-05-01T13:11:21Z</time></trkpt><trkpt lat="45.629816935759024" lon="13.827372236931753"><ele>153.5</ele><time>2026-05-01T13:11:22Z</time></trkpt><trkpt lat="45.62982812536165" lon="13.827721737800914"><ele>157.0</ele><time>2026-05-01T13:11:23Z</time></trkpt><trkpt lat="45.62981211104266" lon="13.828054824666724"><ele>157.0</ele><time>2026-05-01T13:11:24Z</time></trkpt><trkpt lat="45.62978137705841" lon="13.828379272873253"><ele>157.0</ele><time>2026-05-01T13:11:25Z</time></trkpt><trkpt lat="45.62973010594659" lon="13.82868560098633"><ele>157.0</ele><time>2026-05-01T13:11:26Z</time></trkpt><trkpt lat="45.629653378257885" lon="13.828980737786818"><ele>158.5</ele><time>2026-05-01T13:11:27Z</time></trkpt><trkpt lat="45.629552553070944" lon="13.829271404106002"><ele>160.0</ele><time>2026-05-01T13:11:28Z</time></trkpt><trkpt lat="45.629424924600514" lon="13.829555473741774"><ele>151.5</ele><time>2026-05-01T13:11:29Z</time></trkpt><trkpt lat="45.62927350835879" lon="13.829824129449042"><ele>143.0</ele><time>2026-05-01T13:11:30Z</time></trkpt><trkpt lat="45.62910393978794" lon="13.830066366090092"><ele>138.5</ele><time>2026-05-01T13:11:31Z</time></trkpt><trkpt lat="45.62891977973727" lon="13.830282929264254"><ele>134.0</ele><time>2026-05-01T13:11:32Z</time></trkpt><trkpt lat="45.62872115485598" lon="13.830464133657742"><ele>129.0</ele><time>2026-05-01T13:11:33Z</time></trkpt><trkpt lat="45.62851616382872" lon="13.8306177609019"><ele>124.0</ele><time>2026-05-01T13:11:34Z</time></trkpt><trkpt lat="45.6282954603319" lon="13.830736115013659"><ele>124.0</ele><time>2026-05-01T13:11:35Z</time></trkpt><trkpt lat="45.62805725684448" lon="13.830828515002784"><ele>124.0</ele><time>2026-05-01T13:11:36Z</time></trkpt><trkpt lat="45.62780626672584" lon="13.83089156488532"><ele>127.5</ele><time>2026-05-01T13:11:37Z</time></trkpt><trkpt lat="45.627541622317175" lon="13.83092625723007"><ele>131.0</ele><time>2026-05-01T13:11:38Z</time></trkpt><trkpt lat="45.62727322483776" lon="13.83096856161499"><ele>134.5</ele><time>2026-05-01T13:11:39Z</time></trkpt><trkpt lat="45.627007475230656" lon="13.831033647144073"><ele>138.0</ele><time>2026-05-01T13:11:40Z</time></trkpt><trkpt lat="45.626757912940406" lon="13.8311247898776"><ele>139.5</ele><time>2026-05-01T13:11:41Z</time></trkpt><trkpt lat="45.62652333821139" lon="13.831255234755128"><ele>141.0</ele><time>2026-05-01T13:11:42Z</time></trkpt><trkpt lat="45.626304098768166" lon="13.83141563996917"><ele>139.0</ele><time>2026-05-01T13:11:43Z</time></trkpt><trkpt lat="45.62610120704625" lon="13.83160866167171"><ele>137.0</ele><time>2026-05-01T13:11:44Z</time></trkpt><trkpt lat="45.62591373264759" lon="13.83183944250323"><ele>137.0</ele><time>2026-05-01T13:11:45Z</time></trkpt><trkpt lat="45.62574145265624" lon="13.83208971280257"><ele>137.0</ele><time>2026-05-01T13:11:46Z</time></trkpt><trkpt lat="45.6255912287959" lon="13.83236095636794"><ele>140.5</ele><time>2026-05-01T13:11:47Z</time></trkpt><trkpt lat="45.62546258927867" lon="13.832652245777675"><ele>144.0</ele><time>2026-05-01T13:11:48Z</time></trkpt><trkpt lat="45.62536227175907" lon="13.832954620036462"><ele>133.0</ele><time>2026-05-01T13:11:49Z</time></trkpt><trkpt lat="45.62528965402958" lon="13.833268076826677"><ele>122.0</ele><time>2026-05-01T13:11:50Z</time></trkpt><trkpt lat="45.62523702044622" lon="13.833591525122552"><ele>122.0</ele><time>2026-05-01T13:11:51Z</time></trkpt><trkpt lat="45.625208589269455" lon="13.833928530689303"><ele>122.0</ele><time>2026-05-01T13:11:52Z</time></trkpt><trkpt lat="45.62519479378502" lon="13.834280783406314"><ele>120.0</ele><time>2026-05-01T13:11:53Z</time></trkpt><trkpt lat="45.62519953835178" lon="13.834645414814341"><ele>118.0</ele><time>2026-05-01T13:11:54Z</time></trkpt><trkpt lat="45.62521458572071" lon="13.835007014998778"><ele>114.5</ele><time>2026-05-01T13:11:55Z</time></trkpt><trkpt lat="45.62522368828733" lon="13.835367264632353"><ele>111.0</ele><time>2026-05-01T13:11:56Z</time></trkpt><trkpt lat="45.62521069162468" lon="13.835708315692013"><ele>108.5</ele><time>2026-05-01T13:11:57Z</time></trkpt><trkpt lat="45.625175734655805" lon="13.836033061461949"><ele>106.0</ele><time>2026-05-01T13:11:58Z</time></trkpt><trkpt lat="45.62512164184445" lon="13.836351128744214"><ele>106.0</ele><time>2026-05-01T13:11:59Z</time></trkpt><trkpt lat="45.625047505915006" lon="13.836655119193585"><ele>106.0</ele><time>2026-05-01T13:12:00Z</time></trkpt><trkpt lat="45.624950031728055" lon="13.836940480148867"><ele>106.0</ele><time>2026-05-01T13:12:01Z</time></trkpt><trkpt lat="45.624832906296604" lon="13.837219236952974"><ele>108.5</ele><time>2026-05-01T13:12:02Z</time></trkpt><trkpt lat="45.624691638895285" lon="13.837484426671429"><ele>111.0</ele><time>2026-05-01T13:12:03Z</time></trkpt><trkpt lat="45.62453175758337" lon="13.837732584746576"><ele>113.5</ele><time>2026-05-01T13:12:04Z</time></trkpt><trkpt lat="45.62435368543889" lon="13.83797370886115"><ele>116.0</ele><time>2026-05-01T13:12:05Z</time></trkpt><trkpt lat="45.62416694053918" lon="13.838219658859297"><ele>117.0</ele><time>2026-05-01T13:12:06Z</time></trkpt><trkpt lat="45.62397295271075" lon="13.838473300784823"><ele>118.0</ele><time>2026-05-01T13:12:07Z</time></trkpt><trkpt lat="45.62377175389839" lon="13.838734938504183"><ele>115.5</ele><time>2026-05-01T13:12:08Z</time></trkpt><trkpt lat="45.62356783356158" lon="13.839009834836073"><ele>113.0</ele><time>2026-05-01T13:12:09Z</time></trkpt><trkpt lat="45.623360523850295" lon="13.839286932862"><ele>113.5</ele><time>2026-05-01T13:12:10Z</time></trkpt><trkpt lat="45.62314915147917" lon="13.839564800604935"><ele>114.0</ele><time>2026-05-01T13:12:11Z</time></trkpt><trkpt lat="45.62293482966105" lon="13.839846349487734"><ele>111.5</ele><time>2026-05-01T13:12:12Z</time></trkpt><trkpt lat="45.622717584990184" lon="13.840129899422697"><ele>109.0</ele><time>2026-05-01T13:12:13Z</time></trkpt><trkpt lat="45.62250561921274" lon="13.840407993599474"><ele>109.0</ele><time>2026-05-01T13:12:14Z</time></trkpt><trkpt lat="45.62229708637957" lon="13.840684243391406"><ele>109.0</ele><time>2026-05-01T13:12:15Z</time></trkpt><trkpt lat="45.62209430046045" lon="13.840954580587924"><ele>107.5</ele><time>2026-05-01T13:12:16Z</time></trkpt><trkpt lat="45.6218918516056" lon="13.841231299120572"><ele>106.0</ele><time>2026-05-01T13:12:17Z</time></trkpt><trkpt lat="45.62168930251492" lon="13.841517411357698"><ele>108.5</ele><time>2026-05-01T13:12:18Z</time></trkpt><trkpt lat="45.621490114243784" lon="13.841807211027133"><ele>111.0</ele><time>2026-05-01T13:12:19Z</time></trkpt><trkpt lat="45.62129372400923" lon="13.842104599067824"><ele>108.5</ele><time>2026-05-01T13:12:20Z</time></trkpt><trkpt lat="45.62110192338775" lon="13.842408193436409"><ele>106.0</ele><time>2026-05-01T13:12:21Z</time></trkpt><trkpt lat="45.620919187257506" lon="13.842719184334257"><ele>106.0</ele><time>2026-05-01T13:12:22Z</time></trkpt><trkpt lat="45.62074679999134" lon="13.84303822725437"><ele>106.0</ele><time>2026-05-01T13:12:23Z</time></trkpt><trkpt lat="45.620581800983196" lon="13.843359327428049"><ele>107.5</ele><time>2026-05-01T13:12:24Z</time></trkpt><trkpt lat="45.62041719884362" lon="13.843687414639207"><ele>109.0</ele><time>2026-05-01T13:12:25Z</time></trkpt><trkpt lat="45.620257788197954" lon="13.844035253662245"><ele>98.5</ele><time>2026-05-01T13:12:26Z</time></trkpt><trkpt lat="45.62009800002263" lon="13.844395876292124"><ele>88.0</ele><time>2026-05-01T13:12:27Z</time></trkpt><trkpt lat="45.61994002470545" lon="13.844764851327861"><ele>89.5</ele><time>2026-05-01T13:12:28Z</time></trkpt><trkpt lat="45.61978298598614" lon="13.845132477972019"><ele>91.0</ele><time>2026-05-01T13:12:29Z</time></trkpt><trkpt lat="45.61962739908853" lon="13.845499748665313"><ele>87.5</ele><time>2026-05-01T13:12:30Z</time></trkpt><trkpt lat="45.61946901139928" lon="13.84586200206504"><ele>84.0</ele><time>2026-05-01T13:12:31Z</time></trkpt><trkpt lat="45.61930597653952" lon="13.846214219394131"><ele>84.0</ele><time>2026-05-01T13:12:32Z</time></trkpt><trkpt lat="45.61913379993745" lon="13.84655361976742"><ele>84.0</ele><time>2026-05-01T13:12:33Z</time></trkpt><trkpt lat="45.61895275568284" lon="13.846879636226062"><ele>83.5</ele><time>2026-05-01T13:12:34Z</time></trkpt><trkpt lat="45.618761478721545" lon="13.84718721294332"><ele>83.0</ele><time>2026-05-01T13:12:35Z</time></trkpt><trkpt lat="45.618559015535915" lon="13.847479396460852"><ele>81.0</ele><time>2026-05-01T13:12:36Z</time></trkpt><trkpt lat="45.618342954324405" lon="13.8477596537494"><ele>79.0</ele><time>2026-05-01T13:12:37Z</time></trkpt><trkpt lat="45.618115843468" lon="13.848031354114765"><ele>79.0</ele><time>2026-05-01T13:12:38Z</time></trkpt><trkpt lat="45.617887210063415" lon="13.848294987950077"><ele>79.0</ele><time>2026-05-01T13:12:39Z</time></trkpt><trkpt lat="45.617660121957336" lon="13.848545056133936"><ele>77.0</ele><time>2026-05-01T13:12:40Z</time></trkpt><trkpt lat="45.617438003435254" lon="13.848778499359824"><ele>75.0</ele><time>2026-05-01T13:12:41Z</time></trkpt><trkpt lat="45.617215671187914" lon="13.848989852486225"><ele>75.0</ele><time>2026-05-01T13:12:42Z</time></trkpt><trkpt lat="45.61699083941829" lon="13.84916552901632"><ele>75.0</ele><time>2026-05-01T13:12:43Z</time></trkpt><trkpt lat="45.61676382509462" lon="13.849303112763465"><ele>73.5</ele><time>2026-05-01T13:12:44Z</time></trkpt><trkpt lat="45.616536666726915" lon="13.849388758566478"><ele>72.0</ele><time>2026-05-01T13:12:45Z</time></trkpt><trkpt lat="45.61631109684159" lon="13.849438146488355"><ele>71.33333333333333</ele><time>2026-05-01T13:12:46Z</time></trkpt><trkpt lat="45.6160890247117" lon="13.849460209849953"><ele>70.66666666666666</ele><time>2026-05-01T13:12:47Z</time></trkpt><trkpt lat="45.61586947569152" lon="13.849447712464555"><ele>70.0</ele><time>2026-05-01T13:12:48Z</time></trkpt><trkpt lat="45.615646898673944" lon="13.849394808367292"><ele>70.0</ele><time>2026-05-01T13:12:49Z</time></trkpt><trkpt lat="45.6154242628646" lon="13.849312697504516"><ele>70.0</ele><time>2026-05-01T13:12:50Z</time></trkpt><trkpt lat="45.61520499914269" lon="13.849199899658492"><ele>67.5</ele><time>2026-05-01T13:12:51Z</time></trkpt><trkpt lat="45.61499055599046" lon="13.849052615119469"><ele>65.0</ele><time>2026-05-01T13:12:52Z</time></trkpt><trkpt lat="45.61478925397064" lon="13.848866644032912"><ele>65.0</ele><time>2026-05-01T13:12:53Z</time></trkpt><trkpt lat="45.614596699149985" lon="13.84865477248872"><ele>65.0</ele><time>2026-05-01T13:12:54Z</time></trkpt><trkpt lat="45.614418324019134" lon="13.84840661401932"><ele>64.5</ele><time>2026-05-01T13:12:55Z</time></trkpt><trkpt lat="45.61424873550341" lon="13.848129384003899"><ele>64.0</ele><time>2026-05-01T13:12:56Z</time></trkpt><trkpt lat="45.61408048016534" lon="13.847834794240947"><ele>69.5</ele><time>2026-05-01T13:12:57Z</time></trkpt><trkpt lat="45.61390685494731" lon="13.847533681455667"><ele>75.0</ele><time>2026-05-01T13:12:58Z</time></trkpt><trkpt lat="45.61373388777927" lon="13.847237108736508"><ele>69.0</ele><time>2026-05-01T13:12:59Z</time></trkpt><trkpt lat="45.613559627825815" lon="13.84694823972673"><ele>63.0</ele><time>2026-05-01T13:13:00Z</time></trkpt><trkpt lat="45.613394242478876" lon="13.846663391266015"><ele>63.0</ele><time>2026-05-01T13:13:01Z</time></trkpt><trkpt lat="45.61322672072515" lon="13.846378950908852"><ele>63.0</ele><time>2026-05-01T13:13:02Z</time></trkpt><trkpt lat="45.61305842553841" lon="13.846101598276602"><ele>60.0</ele><time>2026-05-01T13:13:03Z</time></trkpt><trkpt lat="45.61289650484502" lon="13.845824421747219"><ele>57.0</ele><time>2026-05-01T13:13:04Z</time></trkpt><trkpt lat="45.61273911981105" lon="13.845555193942008"><ele>57.0</ele><time>2026-05-01T13:13:05Z</time></trkpt><trkpt lat="45.61258370537844" lon="13.845294635058194"><ele>57.0</ele><time>2026-05-01T13:13:06Z</time></trkpt><trkpt lat="45.61243322338128" lon="13.845042310704764"><ele>59.0</ele><time>2026-05-01T13:13:07Z</time></trkpt><trkpt lat="45.612288558810086" lon="13.844798205263512"><ele>61.0</ele><time>2026-05-01T13:13:08Z</time></trkpt><trkpt lat="45.612146856118024" lon="13.84455953463076"><ele>63.0</ele><time>2026-05-01T13:13:09Z</time></trkpt><trkpt lat="45.61200745513614" lon="13.844323780140574"><ele>60.66666666666667</ele><time>2026-05-01T13:13:10Z</time></trkpt><trkpt lat="45.611866927160925" lon="13.844086171289629"><ele>58.333333333333336</ele><time>2026-05-01T13:13:11Z</time></trkpt><trkpt lat="45.6117304516406" lon="13.843855242374602"><ele>56.0</ele><time>2026-05-01T13:13:12Z</time></trkpt><trkpt lat="45.61159935195238" lon="13.843633331339845"><ele>57.333333333333336</ele><time>2026-05-01T13:13:13Z</time></trkpt><trkpt lat="45.61146831609804" lon="13.843416514724446"><ele>58.66666666666667</ele><time>2026-05-01T13:13:14Z</time></trkpt><trkpt lat="45.61134186558083" lon="13.8432019710322"><ele>60.0</ele><time>2026-05-01T13:13:15Z</time></trkpt><trkpt lat="45.61122345227191" lon="13.842990187343496"><ele>57.66666666666667</ele><time>2026-05-01T13:13:16Z</time></trkpt><trkpt lat="45.611104114886565" lon="13.8427829436737"><ele>55.333333333333336</ele><time>2026-05-01T13:13:17Z</time></trkpt><trkpt lat="45.6109846481401" lon="13.842581367717978"><ele>53.0</ele><time>2026-05-01T13:13:18Z</time></trkpt><trkpt lat="45.61086620969871" lon="13.84238338664313"><ele>52.66666666666667</ele><time>2026-05-01T13:13:19Z</time></trkpt><trkpt lat="45.61075311981871" lon="13.842191422861251"><ele>52.33333333333333</ele><time>2026-05-01T13:13:20Z</time></trkpt><trkpt lat="45.61063988167138" lon="13.842001727214058"><ele>52.0</ele><time>2026-05-01T13:13:21Z</time></trkpt><trkpt lat="45.6105288128355" lon="13.841819448629627"><ele>53.0</ele><time>2026-05-01T13:13:22Z</time></trkpt><trkpt lat="45.610422758229305" lon="13.841643356426426"><ele>54.0</ele><time>2026-05-01T13:13:23Z</time></trkpt><trkpt lat="45.61032100206471" lon="13.841469170291255"><ele>55.0</ele><time>2026-05-01T13:13:24Z</time></trkpt><trkpt lat="45.61021050977598" lon="13.841285975050962"><ele>52.33333333333333</ele><time>2026-05-01T13:13:25Z</time></trkpt><trkpt lat="45.61009393236283" lon="13.841097355419073"><ele>49.666666666666664</ele><time>2026-05-01T13:13:26Z</time></trkpt><trkpt lat="45.609975015286395" lon="13.840896735285643"><ele>47.0</ele><time>2026-05-01T13:13:27Z</time></trkpt><trkpt lat="45.60985753866701" lon="13.840693118404376"><ele>46.0</ele><time>2026-05-01T13:13:28Z</time></trkpt><trkpt lat="45.60973825233743" lon="13.840482169022922"><ele>45.0</ele><time>2026-05-01T13:13:29Z</time></trkpt><trkpt lat="45.609621029284426" lon="13.84026861774331"><ele>44.0</ele><time>2026-05-01T13:13:30Z</time></trkpt><trkpt lat="45.60951141960228" lon="13.840055748072967"><ele>43.0</ele><time>2026-05-01T13:13:31Z</time></trkpt><trkpt lat="45.60940424162493" lon="13.839842225159924"><ele>42.0</ele><time>2026-05-01T13:13:32Z</time></trkpt><trkpt lat="45.609302987668336" lon="13.839633250585365"><ele>41.0</ele><time>2026-05-01T13:13:33Z</time></trkpt><trkpt lat="45.609209898037065" lon="13.839422885856967"><ele>40.0</ele><time>2026-05-01T13:13:34Z</time></trkpt><trkpt lat="45.60912448222932" lon="13.839210896184378"><ele>39.0</ele><time>2026-05-01T13:13:35Z</time></trkpt><trkpt lat="45.60904624237459" lon="13.838994307275295"><ele>38.0</ele><time>2026-05-01T13:13:36Z</time></trkpt><trkpt lat="45.608973885700195" lon="13.838773839218842"><ele>38.0</ele><time>2026-05-01T13:13:37Z</time></trkpt><trkpt lat="45.60891012834771" lon="13.838549208846443"><ele>38.0</ele><time>2026-05-01T13:13:38Z</time></trkpt><trkpt lat="45.60885309450991" lon="13.838321936518408"><ele>38.0</ele><time>2026-05-01T13:13:39Z</time></trkpt><trkpt lat="45.60880041984301" lon="13.838102021251116"><ele>37.666666666666664</ele><time>2026-05-01T13:13:40Z</time></trkpt><trkpt lat="45.60875140074606" lon="13.837883054989083"><ele>37.333333333333336</ele><time>2026-05-01T13:13:41Z</time></trkpt><trkpt lat="45.60870874188605" lon="13.837663568030225"><ele>37.0</ele><time>2026-05-01T13:13:42Z</time></trkpt><trkpt lat="45.60867009912436" lon="13.837445414902096"><ele>35.75</ele><time>2026-05-01T13:13:43Z</time></trkpt><trkpt lat="45.60864281272806" lon="13.837248121536602"><ele>34.5</ele><time>2026-05-01T13:13:44Z</time></trkpt><trkpt lat="45.608626150630194" lon="13.837066577877625"><ele>33.25</ele><time>2026-05-01T13:13:45Z</time></trkpt><trkpt lat="45.60861570609798" lon="13.836886819885414"><ele>32.0</ele><time>2026-05-01T13:13:46Z</time></trkpt><trkpt lat="45.608616390527075" lon="13.836720441982926"><ele>31.400000000000002</ele><time>2026-05-01T13:13:47Z</time></trkpt><trkpt lat="45.60860820750794" lon="13.83655943312604"><ele>30.800000000000004</ele><time>2026-05-01T13:13:48Z</time></trkpt><trkpt lat="45.60860244077675" lon="13.836419115461347"><ele>30.2</ele><time>2026-05-01T13:13:49Z</time></trkpt><trkpt lat="45.608599869589334" lon="13.836301096452711"><ele>29.6</ele><time>2026-05-01T13:13:50Z</time></trkpt><trkpt lat="45.608599361824034" lon="13.836204607455167"><ele>29.0</ele><time>2026-05-01T13:13:51Z</time></trkpt><trkpt lat="45.60859778193658" lon="13.836055397517177"><ele>28.799999999999997</ele><time>2026-05-01T13:13:53Z</time></trkpt><trkpt lat="45.60859731829024" lon="13.835957336894248"><ele>28.599999999999998</ele><time>2026-05-01T13:13:55Z</time></trkpt><trkpt lat="45.608582388458544" lon="13.835780119618752"><ele>28.4</ele><time>2026-05-01T13:15:56Z</time></trkpt><trkpt lat="45.608558147234824" lon="13.83562759269923"><ele>28.2</ele><time>2026-05-01T13:15:58Z</time></trkpt><trkpt lat="45.60854190144961" lon="13.835429179071124"><ele>28.0</ele><time>2026-05-01T13:16:00Z</time></trkpt><trkpt lat="45.60853480428014" lon="13.835296754942801"><ele>28.0</ele><time>2026-05-01T13:16:01Z</time></trkpt><trkpt lat="45.608529690298205" lon="13.835169098860396"><ele>27.999999999999996</ele><time>2026-05-01T13:16:02Z</time></trkpt><trkpt lat="45.608523979731025" lon="13.83504081760146"><ele>27.999999999999996</ele><time>2026-05-01T13:16:03Z</time></trkpt><trkpt lat="45.60851874481079" lon="13.834901055388444"><ele>28.0</ele><time>2026-05-01T13:16:04Z</time></trkpt><trkpt lat="45.60851231856154" lon="13.834751761870976"><ele>28.0</ele><time>2026-05-01T13:16:05Z</time></trkpt><trkpt lat="45.60850772573523" lon="13.83458471120753"><ele>27.75</ele><time>2026-05-01T13:16:06Z</time></trkpt><trkpt lat="45.60850195004187" lon="13.834402728754473"><ele>27.5</ele><time>2026-05-01T13:16:07Z</time></trkpt><trkpt lat="45.60849426422155" lon="13.834218719432876"><ele>27.25</ele><time>2026-05-01T13:16:08Z</time></trkpt><trkpt lat="45.608486150673365" lon="13.834024223839393"><ele>27.0</ele><time>2026-05-01T13:16:09Z</time></trkpt><trkpt lat="45.60847875220281" lon="13.833817659339052"><ele>26.333333333333336</ele><time>2026-05-01T13:16:10Z</time></trkpt><trkpt lat="45.608470724763265" lon="13.833603093790282"><ele>25.666666666666668</ele><time>2026-05-01T13:16:11Z</time></trkpt><trkpt lat="45.608463730182606" lon="13.833385593826529"><ele>25.0</ele><time>2026-05-01T13:16:12Z</time></trkpt><trkpt lat="45.60845704300008" lon="13.833169782730074"><ele>24.25</ele><time>2026-05-01T13:16:13Z</time></trkpt><trkpt lat="45.60845181447362" lon="13.832960928049491"><ele>23.5</ele><time>2026-05-01T13:16:14Z</time></trkpt><trkpt lat="45.60844976954166" lon="13.832757101347301"><ele>22.75</ele><time>2026-05-01T13:16:15Z</time></trkpt><trkpt lat="45.608454984528734" lon="13.832556157554038"><ele>22.0</ele><time>2026-05-01T13:16:16Z</time></trkpt><trkpt lat="45.60846543104953" lon="13.83235525506704"><ele>21.75</ele><time>2026-05-01T13:16:17Z</time></trkpt><trkpt lat="45.6084847980237" lon="13.832156857089721"><ele>21.5</ele><time>2026-05-01T13:16:18Z</time></trkpt><trkpt lat="45.60851089809295" lon="13.831954751895195"><ele>21.25</ele><time>2026-05-01T13:16:19Z</time></trkpt><trkpt lat="45.608553226459016" lon="13.831758385434796"><ele>21.0</ele><time>2026-05-01T13:16:20Z</time></trkpt><trkpt lat="45.60859674610865" lon="13.83155995083591"><ele>20.333333333333332</ele><time>2026-05-01T13:16:21Z</time></trkpt><trkpt lat="45.60864747769703" lon="13.831361243090237"><ele>19.666666666666664</ele><time>2026-05-01T13:16:22Z</time></trkpt><trkpt lat="45.608714215239" lon="13.831162110774203"><ele>19.0</ele><time>2026-05-01T13:16:23Z</time></trkpt><trkpt lat="45.60878938655066" lon="13.830960323361486"><ele>18.333333333333332</ele><time>2026-05-01T13:16:24Z</time></trkpt><trkpt lat="45.60887725564719" lon="13.83075944289384"><ele>17.666666666666668</ele><time>2026-05-01T13:16:25Z</time></trkpt><trkpt lat="45.608970047568334" lon="13.830572475982274"><ele>17.0</ele><time>2026-05-01T13:16:26Z</time></trkpt><trkpt lat="45.60906852460094" lon="13.830374317851867"><ele>17.0</ele><time>2026-05-01T13:16:27Z</time></trkpt><trkpt lat="45.60916149592741" lon="13.83017295223138"><ele>17.0</ele><time>2026-05-01T13:16:28Z</time></trkpt><trkpt lat="45.609308651069625" lon="13.830028316935053"><ele>17.0</ele><time>2026-05-01T13:16:29Z</time></trkpt><trkpt lat="45.6094469766921" lon="13.829868093639192"><ele>16.333333333333336</ele><time>2026-05-01T13:16:30Z</time></trkpt><trkpt lat="45.60959201255494" lon="13.829706834585908"><ele>15.666666666666668</ele><time>2026-05-01T13:16:31Z</time></trkpt><trkpt lat="45.60973701200013" lon="13.829540034947422"><ele>15.0</ele><time>2026-05-01T13:16:32Z</time></trkpt><trkpt lat="45.609884285446654" lon="13.82937283322558"><ele>15.0</ele><time>2026-05-01T13:16:33Z</time></trkpt><trkpt lat="45.61002484493055" lon="13.829202705568871"><ele>15.0</ele><time>2026-05-01T13:16:34Z</time></trkpt><trkpt lat="45.6101698423358" lon="13.82902983795354"><ele>15.0</ele><time>2026-05-01T13:16:35Z</time></trkpt><trkpt lat="45.610318443539434" lon="13.82886414312926"><ele>14.666666666666668</ele><time>2026-05-01T13:16:36Z</time></trkpt><trkpt lat="45.610466188820226" lon="13.828700728364373"><ele>14.333333333333334</ele><time>2026-05-01T13:16:37Z</time></trkpt><trkpt lat="45.61060978485651" lon="13.828540211501236"><ele>14.0</ele><time>2026-05-01T13:16:38Z</time></trkpt><trkpt lat="45.61075236533348" lon="13.828376963293083"><ele>13.666666666666668</ele><time>2026-05-01T13:16:39Z</time></trkpt><trkpt lat="45.610892431139234" lon="13.828216396511824"><ele>13.333333333333332</ele><time>2026-05-01T13:16:40Z</time></trkpt><trkpt lat="45.61102899785383" lon="13.828044760712197"><ele>13.0</ele><time>2026-05-01T13:16:41Z</time></trkpt><trkpt lat="45.6111663315207" lon="13.827875327433473"><ele>13.0</ele><time>2026-05-01T13:16:42Z</time></trkpt><trkpt lat="45.611303353282786" lon="13.827698010321287"><ele>13.0</ele><time>2026-05-01T13:16:43Z</time></trkpt><trkpt lat="45.611436173489295" lon="13.827520803861026"><ele>13.0</ele><time>2026-05-01T13:16:44Z</time></trkpt><trkpt lat="45.61156541293143" lon="13.827339395910103"><ele>13.333333333333332</ele><time>2026-05-01T13:16:45Z</time></trkpt><trkpt lat="45.611691116219006" lon="13.827154387117927"><ele>13.666666666666668</ele><time>2026-05-01T13:16:46Z</time></trkpt><trkpt lat="45.61180779724485" lon="13.826961468561096"><ele>14.0</ele><time>2026-05-01T13:16:47Z</time></trkpt><trkpt lat="45.61192833407907" lon="13.826769741299769"><ele>13.0</ele><time>2026-05-01T13:16:48Z</time></trkpt><trkpt lat="45.612053810378285" lon="13.826580136963278"><ele>12.0</ele><time>2026-05-01T13:16:49Z</time></trkpt><trkpt lat="45.612178575565224" lon="13.826388633948575"><ele>11.0</ele><time>2026-05-01T13:16:50Z</time></trkpt><trkpt lat="45.61229972966181" lon="13.826191968152823"><ele>11.0</ele><time>2026-05-01T13:16:51Z</time></trkpt><trkpt lat="45.612418719925635" lon="13.826004341889183"><ele>11.0</ele><time>2026-05-01T13:16:52Z</time></trkpt><trkpt lat="45.612540832085784" lon="13.825814592409188"><ele>11.0</ele><time>2026-05-01T13:16:53Z</time></trkpt><trkpt lat="45.61266070277307" lon="13.82562863386284"><ele>11.0</ele><time>2026-05-01T13:16:54Z</time></trkpt><trkpt lat="45.61278215956357" lon="13.825440913224682"><ele>11.0</ele><time>2026-05-01T13:16:55Z</time></trkpt><trkpt lat="45.61290489662179" lon="13.825249963391448"><ele>11.0</ele><time>2026-05-01T13:16:56Z</time></trkpt><trkpt lat="45.61302831451366" lon="13.825056050108108"><ele>10.666666666666666</ele><time>2026-05-01T13:16:57Z</time></trkpt><trkpt lat="45.613150184924805" lon="13.824860893909344"><ele>10.333333333333334</ele><time>2026-05-01T13:16:58Z</time></trkpt><trkpt lat="45.61326862707154" lon="13.824665486280908"><ele>10.0</ele><time>2026-05-01T13:16:59Z</time></trkpt><trkpt lat="45.61337397101499" lon="13.824460024044315"><ele>10.0</ele><time>2026-05-01T13:17:00Z</time></trkpt><trkpt lat="45.61346822272372" lon="13.824245215220733"><ele>10.0</ele><time>2026-05-01T13:17:01Z</time></trkpt><trkpt lat="45.61354501657002" lon="13.824022734968704"><ele>10.0</ele><time>2026-05-01T13:17:02Z</time></trkpt><trkpt lat="45.613614605885914" lon="13.823799209985653"><ele>10.333333333333334</ele><time>2026-05-01T13:17:03Z</time></trkpt><trkpt lat="45.613681022987606" lon="13.823576603296534"><ele>10.666666666666666</ele><time>2026-05-01T13:17:04Z</time></trkpt><trkpt lat="45.61375028378896" lon="13.823354744596168"><ele>11.0</ele><time>2026-05-01T13:17:05Z</time></trkpt><trkpt lat="45.61382788631292" lon="13.82313660889207"><ele>11.0</ele><time>2026-05-01T13:17:06Z</time></trkpt><trkpt lat="45.61391532900348" lon="13.822922221336391"><ele>11.0</ele><time>2026-05-01T13:17:07Z</time></trkpt><trkpt lat="45.614006836822696" lon="13.822709389269976"><ele>11.0</ele><time>2026-05-01T13:17:08Z</time></trkpt><trkpt lat="45.61410738179303" lon="13.82251359671966"><ele>11.0</ele><time>2026-05-01T13:17:09Z</time></trkpt><trkpt lat="45.614213688521545" lon="13.822329765432668"><ele>11.0</ele><time>2026-05-01T13:17:10Z</time></trkpt><trkpt lat="45.61432999104217" lon="13.822163065855522"><ele>11.0</ele><time>2026-05-01T13:17:11Z</time></trkpt><trkpt lat="45.614447216865685" lon="13.821999893064428"><ele>11.666666666666666</ele><time>2026-05-01T13:17:12Z</time></trkpt><trkpt lat="45.61456607783846" lon="13.821834833847145"><ele>12.333333333333332</ele><time>2026-05-01T13:17:13Z</time></trkpt><trkpt lat="45.6146865547738" lon="13.821674858625329"><ele>13.0</ele><time>2026-05-01T13:17:14Z</time></trkpt><trkpt lat="45.61480668532378" lon="13.821516175447265"><ele>13.0</ele><time>2026-05-01T13:17:15Z</time></trkpt><trkpt lat="45.61492407974941" lon="13.821366111160557"><ele>13.0</ele><time>2026-05-01T13:17:16Z</time></trkpt><trkpt lat="45.6150352055016" lon="13.82122147093855"><ele>13.0</ele><time>2026-05-01T13:17:17Z</time></trkpt><trkpt lat="45.615139787044775" lon="13.821070403234426"><ele>13.333333333333332</ele><time>2026-05-01T13:17:18Z</time></trkpt><trkpt lat="45.6152428915108" lon="13.820909253593356"><ele>13.666666666666668</ele><time>2026-05-01T13:17:19Z</time></trkpt><trkpt lat="45.61534580799117" lon="13.820738986021965"><ele>14.0</ele><time>2026-05-01T13:17:20Z</time></trkpt><trkpt lat="45.615448756480426" lon="13.820559343797264"><ele>14.0</ele><time>2026-05-01T13:17:21Z</time></trkpt><trkpt lat="45.615550520801804" lon="13.820375874237163"><ele>14.0</ele><time>2026-05-01T13:17:22Z</time></trkpt><trkpt lat="45.615651772079005" lon="13.820191138949324"><ele>14.0</ele><time>2026-05-01T13:17:23Z</time></trkpt><trkpt lat="45.61575107079225" lon="13.820009741619145"><ele>14.0</ele><time>2026-05-01T13:17:24Z</time></trkpt><trkpt lat="45.61585138092158" lon="13.819836916769665"><ele>14.0</ele><time>2026-05-01T13:17:25Z</time></trkpt><trkpt lat="45.61594635311921" lon="13.819674206168697"><ele>14.0</ele><time>2026-05-01T13:17:26Z</time></trkpt><trkpt lat="45.616034015988184" lon="13.819514002425821"><ele>14.0</ele><time>2026-05-01T13:17:27Z</time></trkpt><trkpt lat="45.616116278751164" lon="13.819354622329634"><ele>13.75</ele><time>2026-05-01T13:17:28Z</time></trkpt><trkpt lat="45.616195845756856" lon="13.819189907264636"><ele>13.5</ele><time>2026-05-01T13:17:29Z</time></trkpt><trkpt lat="45.61626962604861" lon="13.819018056919449"><ele>13.25</ele><time>2026-05-01T13:17:30Z</time></trkpt><trkpt lat="45.61633973366652" lon="13.818843123820885"><ele>13.0</ele><time>2026-05-01T13:17:31Z</time></trkpt><trkpt lat="45.61640221225419" lon="13.818669164450611"><ele>13.0</ele><time>2026-05-01T13:17:32Z</time></trkpt><trkpt lat="45.61645312702892" lon="13.818498337174493"><ele>13.0</ele><time>2026-05-01T13:17:33Z</time></trkpt><trkpt lat="45.61649653128729" lon="13.818328992120001"><ele>13.0</ele><time>2026-05-01T13:17:34Z</time></trkpt><trkpt lat="45.616535433485986" lon="13.818158933575484"><ele>13.0</ele><time>2026-05-01T13:17:35Z</time></trkpt><trkpt lat="45.616566871444235" lon="13.8179869738424"><ele>12.75</ele><time>2026-05-01T13:17:35.998Z</time></trkpt><trkpt lat="45.61659401332616" lon="13.817814294379495"><ele>12.5</ele><time>2026-05-01T13:17:36.998Z</time></trkpt><trkpt lat="45.6166176722583" lon="13.817648229577191"><ele>12.25</ele><time>2026-05-01T13:17:37.998Z</time></trkpt><trkpt lat="45.61664292295835" lon="13.817480805737963"><ele>12.0</ele><time>2026-05-01T13:17:38.998Z</time></trkpt><trkpt lat="45.616665449553096" lon="13.81731154366132"><ele>11.5</ele><time>2026-05-01T13:17:39.998Z</time></trkpt><trkpt lat="45.61668527688425" lon="13.817139155477278"><ele>11.0</ele><time>2026-05-01T13:17:40.998Z</time></trkpt><trkpt lat="45.61670928858994" lon="13.816963406340502"><ele>10.5</ele><time>2026-05-01T13:17:41.998Z</time></trkpt><trkpt lat="45.616731490775834" lon="13.816784738158175"><ele>10.0</ele><time>2026-05-01T13:17:42.998Z</time></trkpt><trkpt lat="45.61675658660183" lon="13.816608127707624"><ele>9.75</ele><time>2026-05-01T13:17:43.998Z</time></trkpt><trkpt lat="45.616777294073664" lon="13.816434234422557"><ele>9.5</ele><time>2026-05-01T13:17:44.998Z</time></trkpt><trkpt lat="45.61679819259377" lon="13.816253657572682"><ele>9.25</ele><time>2026-05-01T13:17:45.999Z</time></trkpt><trkpt lat="45.61681904355558" lon="13.816071162041663"><ele>9.0</ele><time>2026-05-01T13:17:46.999Z</time></trkpt><trkpt lat="45.61684529022515" lon="13.815890261336707"><ele>8.25</ele><time>2026-05-01T13:17:47.999Z</time></trkpt><trkpt lat="45.61687382620887" lon="13.815712439436327"><ele>7.5</ele><time>2026-05-01T13:17:48.999Z</time></trkpt><trkpt lat="45.61690113574317" lon="13.815542600893224"><ele>6.75</ele><time>2026-05-01T13:17:49.999Z</time></trkpt><trkpt lat="45.616927094319095" lon="13.815382554159477"><ele>6.0</ele><time>2026-05-01T13:17:50.999Z</time></trkpt><trkpt lat="45.61694743474974" lon="13.815235854444047"><ele>5.833333333333333</ele><time>2026-05-01T13:17:51.999Z</time></trkpt><trkpt lat="45.61696558590392" lon="13.815106838999649"><ele>5.666666666666667</ele><time>2026-05-01T13:17:52.999Z</time></trkpt><trkpt lat="45.616982425778886" lon="13.81498397107257"><ele>5.5</ele><time>2026-05-01T13:17:53.999Z</time></trkpt><trkpt lat="45.61699487384145" lon="13.814865854336485"><ele>5.333333333333334</ele><time>2026-05-01T13:17:54.999Z</time></trkpt><trkpt lat="45.61700730907387" lon="13.814754273258606"><ele>5.166666666666667</ele><time>2026-05-01T13:17:55.999Z</time></trkpt><trkpt lat="45.61701529363572" lon="13.814657320833897"><ele>5.0</ele><time>2026-05-01T13:17:56.999Z</time></trkpt><trkpt lat="45.61701599528748" lon="13.814557554951318"><ele>5.0</ele><time>2026-05-01T13:17:57.999Z</time></trkpt><trkpt lat="45.6170042153966" lon="13.8144603446386"><ele>5.0</ele><time>2026-05-01T13:17:58.999Z</time></trkpt><trkpt lat="45.61697436934245" lon="13.814378748409876"><ele>5.0</ele><time>2026-05-01T13:17:59.999Z</time></trkpt><trkpt lat="45.616879786637654" lon="13.814269541634172"><ele>5.0</ele><time>2026-05-01T13:18:01.999Z</time></trkpt><trkpt lat="45.616808135987405" lon="13.814299636437418"><ele>5.0</ele><time>2026-05-01T13:18:02.999Z</time></trkpt><trkpt lat="45.61669845235791" lon="13.814326176624597"><ele>5.0</ele><time>2026-05-01T13:18:04.999Z</time></trkpt><trkpt lat="45.6166605064902" lon="13.8145542142576"><ele>5.0</ele><time>2026-05-01T13:18:06.999Z</time></trkpt><trkpt lat="45.61664014216412" lon="13.814650312505183"><ele>5.0</ele><time>2026-05-01T13:18:07.999Z</time></trkpt><trkpt lat="45.61661588439578" lon="13.814743583931529"><ele>5.0</ele><time>2026-05-01T13:18:08.999Z</time></trkpt><trkpt lat="45.61659509386426" lon="13.814832292098608"><ele>5.0</ele><time>2026-05-01T13:18:09.999Z</time></trkpt><trkpt lat="45.61657066303545" lon="13.814918015083403"><ele>5.0</ele><time>2026-05-01T13:18:10.999Z</time></trkpt><trkpt lat="45.61654819026606" lon="13.815021561370898"><ele>5.0</ele><time>2026-05-01T13:18:11.999Z</time></trkpt><trkpt lat="45.61653086116537" lon="13.815143738512"><ele>5.0</ele><time>2026-05-01T13:18:12.999Z</time></trkpt><trkpt lat="45.61651191597201" lon="13.815279287077255"><ele>5.2</ele><time>2026-05-01T13:18:13.999Z</time></trkpt><trkpt lat="45.61648736960922" lon="13.815430205939135"><ele>5.4</ele><time>2026-05-01T13:18:15Z</time></trkpt><trkpt lat="45.616465460638445" lon="13.815590336673147"><ele>5.6</ele><time>2026-05-01T13:18:16Z</time></trkpt><trkpt lat="45.61644621476255" lon="13.815746130368119"><ele>5.8</ele><time>2026-05-01T13:18:17Z</time></trkpt><trkpt lat="45.6164278059869" lon="13.815895640311599"><ele>6.0</ele><time>2026-05-01T13:18:18Z</time></trkpt><trkpt lat="45.61640894394135" lon="13.816049700985463"><ele>6.75</ele><time>2026-05-01T13:18:19Z</time></trkpt><trkpt lat="45.61638714084262" lon="13.816209316224604"><ele>7.5</ele><time>2026-05-01T13:18:20Z</time></trkpt><trkpt lat="45.61636566632411" lon="13.816376369018712"><ele>8.25</ele><time>2026-05-01T13:18:21Z</time></trkpt><trkpt lat="45.61634859063147" lon="13.816549630048183"><ele>9.0</ele><time>2026-05-01T13:18:22Z</time></trkpt><trkpt lat="45.616317728328305" lon="13.816722593861885"><ele>9.2</ele><time>2026-05-01T13:18:23Z</time></trkpt><trkpt lat="45.616295183468765" lon="13.816890127945728"><ele>9.4</ele><time>2026-05-01T13:18:24Z</time></trkpt><trkpt lat="45.61627316126654" lon="13.817047762864037"><ele>9.6</ele><time>2026-05-01T13:18:25Z</time></trkpt><trkpt lat="45.616254119695206" lon="13.817197498891389"><ele>9.8</ele><time>2026-05-01T13:18:26Z</time></trkpt><trkpt lat="45.61624103129708" lon="13.817343138919165"><ele>10.0</ele><time>2026-05-01T13:18:27Z</time></trkpt><trkpt lat="45.61622835635863" lon="13.817487133665368"><ele>10.0</ele><time>2026-05-01T13:18:28Z</time></trkpt><trkpt lat="45.61622007482883" lon="13.817632403610052"><ele>10.0</ele><time>2026-05-01T13:18:29Z</time></trkpt><trkpt lat="45.616218606914856" lon="13.817779304713834"><ele>10.0</ele><time>2026-05-01T13:18:30Z</time></trkpt><trkpt lat="45.61620866188674" lon="13.817915609579249"><ele>10.0</ele><time>2026-05-01T13:18:31Z</time></trkpt><trkpt lat="45.61622160927847" lon="13.818048621106984"><ele>10.0</ele><time>2026-05-01T13:18:32Z</time></trkpt><trkpt lat="45.61623884017522" lon="13.818170160782735"><ele>10.333333333333334</ele><time>2026-05-01T13:18:33Z</time></trkpt><trkpt lat="45.61625885566361" lon="13.818284667633266"><ele>10.666666666666668</ele><time>2026-05-01T13:18:34Z</time></trkpt><trkpt lat="45.616278618515864" lon="13.818403573857644"><ele>11.0</ele><time>2026-05-01T13:18:35Z</time></trkpt><trkpt lat="45.61630514731783" lon="13.818512473678618"><ele>11.333333333333334</ele><time>2026-05-01T13:18:36Z</time></trkpt><trkpt lat="45.616339058859865" lon="13.818623475900939"><ele>11.666666666666666</ele><time>2026-05-01T13:18:37Z</time></trkpt><trkpt lat="45.616365182453904" lon="13.818729887374959"><ele>12.0</ele><time>2026-05-01T13:18:38Z</time></trkpt><trkpt lat="45.61639243420878" lon="13.818824812138242"><ele>12.2</ele><time>2026-05-01T13:18:39Z</time></trkpt><trkpt lat="45.61641650110049" lon="13.818956906024841"><ele>12.399999999999999</ele><time>2026-05-01T13:18:40Z</time></trkpt><trkpt lat="45.61636263801928" lon="13.819078257274025"><ele>12.600000000000001</ele><time>2026-05-01T13:18:41Z</time></trkpt><trkpt lat="45.61632918027967" lon="13.819172103671958"><ele>12.8</ele><time>2026-05-01T13:18:42Z</time></trkpt><trkpt lat="45.616310549574656" lon="13.819266466538258"><ele>13.0</ele><time>2026-05-01T13:18:43Z</time></trkpt><trkpt lat="45.6162940261537" lon="13.819425065706527"><ele>13.166666666666666</ele><time>2026-05-01T13:18:45Z</time></trkpt><trkpt lat="45.61627952101971" lon="13.819514853038756"><ele>13.333333333333332</ele><time>2026-05-01T13:18:46Z</time></trkpt><trkpt lat="45.61624891131248" lon="13.819618720970107"><ele>13.5</ele><time>2026-05-01T13:18:47Z</time></trkpt><trkpt lat="45.6162004091319" lon="13.819727746290674"><ele>13.666666666666668</ele><time>2026-05-01T13:18:48Z</time></trkpt><trkpt lat="45.61613975831486" lon="13.819838327370357"><ele>13.833333333333334</ele><time>2026-05-01T13:18:49Z</time></trkpt><trkpt lat="45.61607787457403" lon="13.819956899476454"><ele>14.0</ele><time>2026-05-01T13:18:50Z</time></trkpt><trkpt lat="45.61599595045012" lon="13.820086039968478"><ele>13.5</ele><time>2026-05-01T13:18:51Z</time></trkpt><trkpt lat="45.615918204593214" lon="13.82021165449492"><ele>13.0</ele><time>2026-05-01T13:18:52Z</time></trkpt><trkpt lat="45.61584289460603" lon="13.820328139381436"><ele>12.5</ele><time>2026-05-01T13:18:53Z</time></trkpt><trkpt lat="45.61576767414466" lon="13.820446235138517"><ele>12.0</ele><time>2026-05-01T13:18:54Z</time></trkpt><trkpt lat="45.61568915001289" lon="13.82057264755824"><ele>12.0</ele><time>2026-05-01T13:18:55Z</time></trkpt><trkpt lat="45.615613213489844" lon="13.820707252708665"><ele>12.0</ele><time>2026-05-01T13:18:56Z</time></trkpt><trkpt lat="45.61553427953142" lon="13.820844419843231"><ele>12.0</ele><time>2026-05-01T13:18:57Z</time></trkpt><trkpt lat="45.61545206429767" lon="13.820983987334698"><ele>12.0</ele><time>2026-05-01T13:18:58Z</time></trkpt><trkpt lat="45.615369213536" lon="13.821128278383128"><ele>12.25</ele><time>2026-05-01T13:18:59Z</time></trkpt><trkpt lat="45.615289761868546" lon="13.821284845159427"><ele>12.5</ele><time>2026-05-01T13:19:00Z</time></trkpt><trkpt lat="45.61520751494468" lon="13.821444214744764"><ele>12.75</ele><time>2026-05-01T13:19:01Z</time></trkpt><trkpt lat="45.61512605128687" lon="13.82159010687852"><ele>13.0</ele><time>2026-05-01T13:19:02Z</time></trkpt><trkpt lat="45.61504428116185" lon="13.821740141283803"><ele>13.0</ele><time>2026-05-01T13:19:03Z</time></trkpt><trkpt lat="45.61495896742242" lon="13.821892038040598"><ele>13.0</ele><time>2026-05-01T13:19:04Z</time></trkpt><trkpt lat="45.614872391277316" lon="13.822036006361458"><ele>13.0</ele><time>2026-05-01T13:19:05Z</time></trkpt><trkpt lat="45.61478974578041" lon="13.822174176704737"><ele>13.0</ele><time>2026-05-01T13:19:06Z</time></trkpt><trkpt lat="45.61471137280338" lon="13.822311857184543"><ele>13.0</ele><time>2026-05-01T13:19:07Z</time></trkpt><trkpt lat="45.61463632816306" lon="13.8224461729165"><ele>13.0</ele><time>2026-05-01T13:19:08Z</time></trkpt><trkpt lat="45.61456312797083" lon="13.822577366641266"><ele>13.0</ele><time>2026-05-01T13:19:09Z</time></trkpt><trkpt lat="45.61448807852588" lon="13.82270375494578"><ele>13.0</ele><time>2026-05-01T13:19:10Z</time></trkpt><trkpt lat="45.614414059724346" lon="13.822832659244966"><ele>12.5</ele><time>2026-05-01T13:19:11Z</time></trkpt><trkpt lat="45.614338136305406" lon="13.822964622143193"><ele>12.0</ele><time>2026-05-01T13:19:12Z</time></trkpt><trkpt lat="45.61426031625364" lon="13.823096913725127"><ele>11.5</ele><time>2026-05-01T13:19:13Z</time></trkpt><trkpt lat="45.614180468709456" lon="13.823228890214175"><ele>11.0</ele><time>2026-05-01T13:19:14Z</time></trkpt><trkpt lat="45.61410193566206" lon="13.823360978291971"><ele>11.0</ele><time>2026-05-01T13:19:15Z</time></trkpt><trkpt lat="45.614027874760914" lon="13.823490777499718"><ele>11.0</ele><time>2026-05-01T13:19:16Z</time></trkpt><trkpt lat="45.613951570080786" lon="13.823619734930322"><ele>11.0</ele><time>2026-05-01T13:19:17Z</time></trkpt><trkpt lat="45.61387490137037" lon="13.823749460079938"><ele>11.0</ele><time>2026-05-01T13:19:18Z</time></trkpt><trkpt lat="45.613800624163495" lon="13.823880336936496"><ele>11.0</ele><time>2026-05-01T13:19:19Z</time></trkpt><trkpt lat="45.613729155373846" lon="13.824010197709347"><ele>11.0</ele><time>2026-05-01T13:19:20Z</time></trkpt><trkpt lat="45.613652129604475" lon="13.82413707758978"><ele>11.0</ele><time>2026-05-01T13:19:21Z</time></trkpt><trkpt lat="45.61357966100191" lon="13.82426308539244"><ele>11.0</ele><time>2026-05-01T13:19:22Z</time></trkpt><trkpt lat="45.61350857749789" lon="13.824388598807893"><ele>10.8</ele><time>2026-05-01T13:19:23Z</time></trkpt><trkpt lat="45.61343759074286" lon="13.824512432476094"><ele>10.600000000000001</ele><time>2026-05-01T13:19:24Z</time></trkpt><trkpt lat="45.61336496736952" lon="13.824635194343074"><ele>10.4</ele><time>2026-05-01T13:19:25Z</time></trkpt><trkpt lat="45.61329171031263" lon="13.824753190447847"><ele>10.2</ele><time>2026-05-01T13:19:26Z</time></trkpt><trkpt lat="45.61322132620145" lon="13.824868385922276"><ele>10.0</ele><time>2026-05-01T13:19:27Z</time></trkpt><trkpt lat="45.61315587714364" lon="13.824980784621623"><ele>10.0</ele><time>2026-05-01T13:19:28Z</time></trkpt><trkpt lat="45.61308360267493" lon="13.825084827113905"><ele>10.0</ele><time>2026-05-01T13:19:29Z</time></trkpt><trkpt lat="45.613018255055934" lon="13.825189779312216"><ele>10.0</ele><time>2026-05-01T13:19:30Z</time></trkpt><trkpt lat="45.61295655180553" lon="13.825289867182148"><ele>10.0</ele><time>2026-05-01T13:19:31Z</time></trkpt><trkpt lat="45.61289814781298" lon="13.825384608890715"><ele>10.0</ele><time>2026-05-01T13:19:32Z</time></trkpt><trkpt lat="45.61284631768499" lon="13.825473050960033"><ele>10.0</ele><time>2026-05-01T13:19:33Z</time></trkpt><trkpt lat="45.612797861173306" lon="13.825557987005496"><ele>10.0</ele><time>2026-05-01T13:19:34Z</time></trkpt><trkpt lat="45.61275995499343" lon="13.825641869438835"><ele>10.0</ele><time>2026-05-01T13:19:35Z</time></trkpt><trkpt lat="45.612685302588304" lon="13.825713332503119"><ele>10.0</ele><time>2026-05-01T13:19:37Z</time></trkpt><trkpt lat="45.612733919018105" lon="13.825846808442458"><ele>10.0</ele><time>2026-05-01T13:19:40Z</time></trkpt><trkpt lat="45.612790367972444" lon="13.825898052169876"><ele>10.0</ele><time>2026-05-01T13:19:42.999Z</time></trkpt><trkpt lat="45.61283457714311" lon="13.825751890482119"><ele>10.166666666666668</ele><time>2026-05-01T13:19:46.999Z</time></trkpt><trkpt lat="45.61289240104086" lon="13.82569542596359"><ele>10.333333333333334</ele><time>2026-05-01T13:19:49.999Z</time></trkpt><trkpt lat="45.612958949790276" lon="13.825641684011082"><ele>10.5</ele><time>2026-05-01T13:33:35Z</time></trkpt><trkpt lat="45.61295504293395" lon="13.825546753210471"><ele>10.666666666666666</ele><time>2026-05-01T13:33:37Z</time></trkpt><trkpt lat="45.612941647446135" lon="13.825453441717219"><ele>10.833333333333332</ele><time>2026-05-01T13:33:39Z</time></trkpt><trkpt lat="45.61298237143542" lon="13.825358031001121"><ele>11.0</ele><time>2026-05-01T13:33:41Z</time></trkpt><trkpt lat="45.61304475392782" lon="13.825244886796312"><ele>11.0</ele><time>2026-05-01T13:33:43Z</time></trkpt><trkpt lat="45.61308685542484" lon="13.825174958540636"><ele>11.0</ele><time>2026-05-01T13:33:44Z</time></trkpt><trkpt lat="45.613167218660585" lon="13.82504963941295"><ele>11.0</ele><time>2026-05-01T13:33:46Z</time></trkpt><trkpt lat="45.61320964625133" lon="13.824982486160883"><ele>11.0</ele><time>2026-05-01T13:33:47Z</time></trkpt><trkpt lat="45.61325778468457" lon="13.824908543456264"><ele>11.0</ele><time>2026-05-01T13:33:48Z</time></trkpt><trkpt lat="45.61331520524274" lon="13.824822193217512"><ele>11.0</ele><time>2026-05-01T13:33:49Z</time></trkpt><trkpt lat="45.61337639125284" lon="13.82473051769051"><ele>11.0</ele><time>2026-05-01T13:33:50Z</time></trkpt><trkpt lat="45.61342962388081" lon="13.82464651943826"><ele>11.0</ele><time>2026-05-01T13:33:51Z</time></trkpt><trkpt lat="45.61348369706212" lon="13.824565073057876"><ele>11.0</ele><time>2026-05-01T13:33:52Z</time></trkpt><trkpt lat="45.613534358366564" lon="13.824487445751352"><ele>11.0</ele><time>2026-05-01T13:33:53Z</time></trkpt><trkpt lat="45.61358299398881" lon="13.82440835826137"><ele>11.0</ele><time>2026-05-01T13:33:54Z</time></trkpt><trkpt lat="45.61363358517592" lon="13.824322193302857"><ele>11.0</ele><time>2026-05-01T13:33:55Z</time></trkpt><trkpt lat="45.61368733126077" lon="13.824231946976882"><ele>11.0</ele><time>2026-05-01T13:33:56Z</time></trkpt><trkpt lat="45.61374416134472" lon="13.824139639411523"><ele>11.0</ele><time>2026-05-01T13:33:57Z</time></trkpt><trkpt lat="45.613805743428" lon="13.824044350946144"><ele>11.0</ele><time>2026-05-01T13:33:58Z</time></trkpt><trkpt lat="45.61387027728414" lon="13.823948547902111"><ele>11.0</ele><time>2026-05-01T13:33:59Z</time></trkpt><trkpt lat="45.61392956883074" lon="13.823843488404702"><ele>11.0</ele><time>2026-05-01T13:34:00Z</time></trkpt><trkpt lat="45.613987872601186" lon="13.823735273173574"><ele>11.0</ele><time>2026-05-01T13:34:01Z</time></trkpt><trkpt lat="45.61404837046517" lon="13.823625123330578"><ele>11.0</ele><time>2026-05-01T13:34:02Z</time></trkpt><trkpt lat="45.6141131013773" lon="13.823513519196883"><ele>11.0</ele><time>2026-05-01T13:34:03Z</time></trkpt><trkpt lat="45.61417867138061" lon="13.823395916573999"><ele>11.0</ele><time>2026-05-01T13:34:04Z</time></trkpt><trkpt lat="45.61424857156516" lon="13.823272917388772"><ele>11.0</ele><time>2026-05-01T13:34:05Z</time></trkpt><trkpt lat="45.61432184149946" lon="13.823140138217585"><ele>11.0</ele><time>2026-05-01T13:34:06Z</time></trkpt><trkpt lat="45.614394766942716" lon="13.823010905880924"><ele>11.0</ele><time>2026-05-01T13:34:07Z</time></trkpt><trkpt lat="45.61446755742673" lon="13.822876837347941"><ele>11.0</ele><time>2026-05-01T13:34:08Z</time></trkpt><trkpt lat="45.61454864946191" lon="13.822738928583698"><ele>11.0</ele><time>2026-05-01T13:34:09Z</time></trkpt><trkpt lat="45.6146335775211" lon="13.822596396925704"><ele>11.5</ele><time>2026-05-01T13:34:10Z</time></trkpt><trkpt lat="45.61471603675591" lon="13.82245060985759"><ele>12.0</ele><time>2026-05-01T13:34:11Z</time></trkpt><trkpt lat="45.614799576110684" lon="13.822303397237311"><ele>12.5</ele><time>2026-05-01T13:34:12Z</time></trkpt><trkpt lat="45.61488614752921" lon="13.822153026099995"><ele>13.0</ele><time>2026-05-01T13:34:13Z</time></trkpt><trkpt lat="45.61497583232778" lon="13.82199955713446"><ele>13.0</ele><time>2026-05-01T13:34:14Z</time></trkpt><trkpt lat="45.615066345909874" lon="13.821840908578"><ele>13.0</ele><time>2026-05-01T13:34:15Z</time></trkpt><trkpt lat="45.61515818141723" lon="13.821677306071884"><ele>13.0</ele><time>2026-05-01T13:34:16Z</time></trkpt><trkpt lat="45.615252269675224" lon="13.821514113852057"><ele>13.0</ele><time>2026-05-01T13:34:17Z</time></trkpt><trkpt lat="45.61534557559018" lon="13.821354716855769"><ele>13.25</ele><time>2026-05-01T13:34:18Z</time></trkpt><trkpt lat="45.61543666444471" lon="13.821198347995315"><ele>13.5</ele><time>2026-05-01T13:34:19Z</time></trkpt><trkpt lat="45.61552632706836" lon="13.821042181596"><ele>13.75</ele><time>2026-05-01T13:34:20Z</time></trkpt><trkpt lat="45.61561428949326" lon="13.820885996416104"><ele>14.0</ele><time>2026-05-01T13:34:21Z</time></trkpt><trkpt lat="45.61570164383689" lon="13.820727316540241"><ele>14.0</ele><time>2026-05-01T13:34:22Z</time></trkpt><trkpt lat="45.61579174606928" lon="13.820567360831388"><ele>14.0</ele><time>2026-05-01T13:34:23Z</time></trkpt><trkpt lat="45.61588334027249" lon="13.820412139504901"><ele>14.0</ele><time>2026-05-01T13:34:24Z</time></trkpt><trkpt lat="45.61597329214792" lon="13.820263857454766"><ele>14.0</ele><time>2026-05-01T13:34:25Z</time></trkpt><trkpt lat="45.61605687974509" lon="13.82011899501016"><ele>14.0</ele><time>2026-05-01T13:34:26Z</time></trkpt><trkpt lat="45.61613582535731" lon="13.819979202210911"><ele>13.999999999999998</ele><time>2026-05-01T13:34:27Z</time></trkpt><trkpt lat="45.61621570958481" lon="13.819862731538771"><ele>13.999999999999998</ele><time>2026-05-01T13:34:28Z</time></trkpt><trkpt lat="45.616280847281715" lon="13.819751699114336"><ele>14.0</ele><time>2026-05-01T13:34:29Z</time></trkpt><trkpt lat="45.616340568284336" lon="13.819651677887952"><ele>14.0</ele><time>2026-05-01T13:34:30Z</time></trkpt><trkpt lat="45.61640237157815" lon="13.819558196626696"><ele>13.833333333333334</ele><time>2026-05-01T13:34:31Z</time></trkpt><trkpt lat="45.616478096083355" lon="13.819492419550793"><ele>13.666666666666668</ele><time>2026-05-01T13:34:32Z</time></trkpt><trkpt lat="45.61656712646765" lon="13.81948421798763"><ele>13.5</ele><time>2026-05-01T13:34:33Z</time></trkpt><trkpt lat="45.61662319636065" lon="13.81942855917424"><ele>13.333333333333332</ele><time>2026-05-01T13:34:34Z</time></trkpt><trkpt lat="45.61663304977574" lon="13.819304861842303"><ele>13.166666666666666</ele><time>2026-05-01T13:34:35Z</time></trkpt><trkpt lat="45.61663395943387" lon="13.819212666751483"><ele>13.0</ele><time>2026-05-01T13:34:36Z</time></trkpt><trkpt lat="45.61661850185465" lon="13.819072624396284"><ele>13.0</ele><time>2026-05-01T13:34:38Z</time></trkpt><trkpt lat="45.61651510094877" lon="13.819044855966506"><ele>13.0</ele><time>2026-05-01T13:34:39Z</time></trkpt><trkpt lat="45.61640008308391" lon="13.819081726377133"><ele>13.0</ele><time>2026-05-01T13:34:41Z</time></trkpt><trkpt lat="45.61633697948175" lon="13.819065297896477"><ele>13.0</ele><time>2026-05-01T13:34:42Z</time></trkpt><trkpt lat="45.61625646217324" lon="13.819170969744366"><ele>13.0</ele><time>2026-05-01T13:34:43Z</time></trkpt><trkpt lat="45.616165580046456" lon="13.819199060149442"><ele>13.0</ele><time>2026-05-01T13:34:44Z</time></trkpt><trkpt lat="45.616060316067056" lon="13.819213853897498"><ele>13.0</ele><time>2026-05-01T13:34:45Z</time></trkpt><trkpt lat="45.61594944445411" lon="13.819223275279874"><ele>13.0</ele><time>2026-05-01T13:34:46Z</time></trkpt><trkpt lat="45.61583355734651" lon="13.819213039618353"><ele>13.0</ele><time>2026-05-01T13:34:47Z</time></trkpt><trkpt lat="45.61570697455985" lon="13.819212894319602"><ele>13.0</ele><time>2026-05-01T13:34:48Z</time></trkpt><trkpt lat="45.615568134211415" lon="13.819221661655735"><ele>13.0</ele><time>2026-05-01T13:34:49Z</time></trkpt><trkpt lat="45.615423636959896" lon="13.819229082295374"><ele>13.0</ele><time>2026-05-01T13:34:50Z</time></trkpt><trkpt lat="45.615275909849174" lon="13.819238818533261"><ele>13.0</ele><time>2026-05-01T13:34:51Z</time></trkpt><trkpt lat="45.615124206901385" lon="13.819249620465124"><ele>11.666666666666666</ele><time>2026-05-01T13:34:52Z</time></trkpt><trkpt lat="45.61496794280227" lon="13.819252077086826"><ele>10.333333333333332</ele><time>2026-05-01T13:34:53Z</time></trkpt><trkpt lat="45.61480900295855" lon="13.819255170627661"><ele>9.0</ele><time>2026-05-01T13:34:54Z</time></trkpt><trkpt lat="45.6146516178984" lon="13.819263337271192"><ele>9.0</ele><time>2026-05-01T13:34:55Z</time></trkpt><trkpt lat="45.614494257893" lon="13.819272252027853"><ele>9.0</ele><time>2026-05-01T13:34:56Z</time></trkpt><trkpt lat="45.6143319617339" lon="13.819284975859448"><ele>9.0</ele><time>2026-05-01T13:34:57Z</time></trkpt><trkpt lat="45.614166406090064" lon="13.819292495206689"><ele>7.0</ele><time>2026-05-01T13:34:58Z</time></trkpt><trkpt lat="45.61400097157464" lon="13.819296012426573"><ele>5.0</ele><time>2026-05-01T13:34:59Z</time></trkpt><trkpt lat="45.61384073800537" lon="13.81930130736607"><ele>3.0</ele><time>2026-05-01T13:35:00Z</time></trkpt><trkpt lat="45.613686088383616" lon="13.81931062089006"><ele>3.75</ele><time>2026-05-01T13:35:01Z</time></trkpt><trkpt lat="45.613534629264585" lon="13.819318100149461"><ele>4.5</ele><time>2026-05-01T13:35:02Z</time></trkpt><trkpt lat="45.61339051232696" lon="13.819329272191991"><ele>5.25</ele><time>2026-05-01T13:35:03Z</time></trkpt><trkpt lat="45.61325188230471" lon="13.819333912429585"><ele>6.0</ele><time>2026-05-01T13:35:04Z</time></trkpt><trkpt lat="45.61311637424351" lon="13.81932886571154"><ele>6.0</ele><time>2026-05-01T13:35:05Z</time></trkpt><trkpt lat="45.612986162648134" lon="13.81932369902231"><ele>6.0</ele><time>2026-05-01T13:35:06Z</time></trkpt><trkpt lat="45.61285889275438" lon="13.819327293984214"><ele>6.0</ele><time>2026-05-01T13:35:07Z</time></trkpt><trkpt lat="45.61273766736953" lon="13.819335386957558"><ele>6.0</ele><time>2026-05-01T13:35:08Z</time></trkpt><trkpt lat="45.61262132667729" lon="13.819342237584808"><ele>6.199999999999999</ele><time>2026-05-01T13:35:09Z</time></trkpt><trkpt lat="45.612508611507344" lon="13.819346084094851"><ele>6.3999999999999995</ele><time>2026-05-01T13:35:10Z</time></trkpt><trkpt lat="45.612402008798455" lon="13.819343952843697"><ele>6.6</ele><time>2026-05-01T13:35:11Z</time></trkpt><trkpt lat="45.612301444927176" lon="13.819338077332969"><ele>6.8</ele><time>2026-05-01T13:35:12Z</time></trkpt><trkpt lat="45.61220687286055" lon="13.81932710235305"><ele>7.0</ele><time>2026-05-01T13:35:13Z</time></trkpt><trkpt lat="45.61212706830001" lon="13.819306654130203"><ele>7.0</ele><time>2026-05-01T13:35:14Z</time></trkpt><trkpt lat="45.612059228990915" lon="13.819294299129849"><ele>6.999999999999999</ele><time>2026-05-01T13:35:15Z</time></trkpt><trkpt lat="45.611976272637925" lon="13.81927969112458"><ele>6.999999999999999</ele><time>2026-05-01T13:35:17Z</time></trkpt><trkpt lat="45.61195741121756" lon="13.819442311907098"><ele>7.0</ele><time>2026-05-01T13:35:18Z</time></trkpt><trkpt lat="45.612004937091214" lon="13.819609299143732"><ele>7.0</ele><time>2026-05-01T13:35:20Z</time></trkpt><trkpt lat="45.6120809436018" lon="13.819746685080455"><ele>7.0</ele><time>2026-05-01T13:35:22Z</time></trkpt><trkpt lat="45.612131490850864" lon="13.81986488952735"><ele>6.999999999999999</ele><time>2026-05-01T13:35:24Z</time></trkpt><trkpt lat="45.61220131275829" lon="13.81997170072484"><ele>6.999999999999999</ele><time>2026-05-01T13:35:41Z</time></trkpt><trkpt lat="45.612250689196" lon="13.820071212668521"><ele>7.0</ele><time>2026-05-01T13:35:43Z</time></trkpt><trkpt lat="45.61225853889171" lon="13.820225384211817"><ele>7.0</ele><time>2026-05-01T13:35:45Z</time></trkpt><trkpt lat="45.61225789231308" lon="13.820317221178808"><ele>7.0</ele><time>2026-05-01T13:35:46Z</time></trkpt><trkpt lat="45.61225906867891" lon="13.820437246841259"><ele>6.999999999999999</ele><time>2026-05-01T13:35:47Z</time></trkpt><trkpt lat="45.61226215238573" lon="13.82058651363692"><ele>6.999999999999999</ele><time>2026-05-01T13:35:48Z</time></trkpt><trkpt lat="45.61226495251444" lon="13.820728025369577"><ele>7.0</ele><time>2026-05-01T13:35:49Z</time></trkpt><trkpt lat="45.61226550520427" lon="13.820883522560518"><ele>7.0</ele><time>2026-05-01T13:35:50Z</time></trkpt><trkpt lat="45.612269789480415" lon="13.821054586217363"><ele>7.25</ele><time>2026-05-01T13:35:51Z</time></trkpt><trkpt lat="45.61227439106602" lon="13.821240134043457"><ele>7.5</ele><time>2026-05-01T13:35:52Z</time></trkpt><trkpt lat="45.61227752191991" lon="13.821429925542253"><ele>7.75</ele><time>2026-05-01T13:35:53Z</time></trkpt><trkpt lat="45.61228165100714" lon="13.82161157153896"><ele>8.0</ele><time>2026-05-01T13:35:54Z</time></trkpt><trkpt lat="45.612285841477615" lon="13.821794280282255"><ele>8.0</ele><time>2026-05-01T13:35:55Z</time></trkpt><trkpt lat="45.6122870799208" lon="13.821987210109324"><ele>8.0</ele><time>2026-05-01T13:35:56Z</time></trkpt><trkpt lat="45.61228681268312" lon="13.82219050255291"><ele>8.0</ele><time>2026-05-01T13:35:57Z</time></trkpt><trkpt lat="45.61228073249078" lon="13.822400594643204"><ele>8.0</ele><time>2026-05-01T13:35:58Z</time></trkpt><trkpt lat="45.61226807222353" lon="13.822614216752903"><ele>8.0</ele><time>2026-05-01T13:35:59Z</time></trkpt><trkpt lat="45.612297505318516" lon="13.822835336857024"><ele>8.0</ele><time>2026-05-01T13:36:00Z</time></trkpt><trkpt lat="45.612301013276834" lon="13.823051486706618"><ele>8.0</ele><time>2026-05-01T13:36:01Z</time></trkpt><trkpt lat="45.61231754015328" lon="13.823272957415877"><ele>8.333333333333332</ele><time>2026-05-01T13:36:02Z</time></trkpt><trkpt lat="45.612305927995855" lon="13.823501060066707"><ele>8.666666666666666</ele><time>2026-05-01T13:36:03Z</time></trkpt><trkpt lat="45.612340342952784" lon="13.823719373346789"><ele>9.0</ele><time>2026-05-01T13:36:04Z</time></trkpt><trkpt lat="45.6123716658006" lon="13.823937091723533"><ele>9.0</ele><time>2026-05-01T13:36:05Z</time></trkpt><trkpt lat="45.61240702203379" lon="13.824145694216831"><ele>9.0</ele><time>2026-05-01T13:36:06Z</time></trkpt><trkpt lat="45.61244456992509" lon="13.824344320260053"><ele>9.0</ele><time>2026-05-01T13:36:07Z</time></trkpt><trkpt lat="45.612478561786986" lon="13.82454406236575"><ele>9.0</ele><time>2026-05-01T13:36:08Z</time></trkpt><trkpt lat="45.61250025138469" lon="13.824747010332386"><ele>9.25</ele><time>2026-05-01T13:36:09Z</time></trkpt><trkpt lat="45.61250300382916" lon="13.824951486020026"><ele>9.5</ele><time>2026-05-01T13:36:10Z</time></trkpt><trkpt lat="45.61246164189176" lon="13.82514207723662"><ele>9.75</ele><time>2026-05-01T13:36:11Z</time></trkpt><trkpt lat="45.61241780256708" lon="13.825327171644947"><ele>10.0</ele><time>2026-05-01T13:36:12Z</time></trkpt><trkpt lat="45.61235408631694" lon="13.825498989803968"><ele>10.0</ele><time>2026-05-01T13:36:13Z</time></trkpt><trkpt lat="45.61227585252181" lon="13.825665219091187"><ele>10.0</ele><time>2026-05-01T13:36:14Z</time></trkpt><trkpt lat="45.612189821826334" lon="13.825842519717366"><ele>10.0</ele><time>2026-05-01T13:36:15Z</time></trkpt><trkpt lat="45.61209802478074" lon="13.826024678890889"><ele>10.0</ele><time>2026-05-01T13:36:16Z</time></trkpt><trkpt lat="45.61201063227884" lon="13.826222223074"><ele>10.666666666666668</ele><time>2026-05-01T13:36:17Z</time></trkpt><trkpt lat="45.61190208061637" lon="13.826404182380392"><ele>11.333333333333334</ele><time>2026-05-01T13:36:18Z</time></trkpt><trkpt lat="45.61178764218477" lon="13.826594952137638"><ele>12.0</ele><time>2026-05-01T13:36:19Z</time></trkpt><trkpt lat="45.61166725813257" lon="13.82678963203488"><ele>12.666666666666668</ele><time>2026-05-01T13:36:20Z</time></trkpt><trkpt lat="45.61154480744477" lon="13.826987756426451"><ele>13.333333333333334</ele><time>2026-05-01T13:36:21Z</time></trkpt><trkpt lat="45.61143491009139" lon="13.827167798080108"><ele>14.0</ele><time>2026-05-01T13:36:22Z</time></trkpt><trkpt lat="45.61133722046774" lon="13.827330079878347"><ele>14.0</ele><time>2026-05-01T13:36:23Z</time></trkpt><trkpt lat="45.611247032983236" lon="13.8274741447993"><ele>14.0</ele><time>2026-05-01T13:36:24Z</time></trkpt><trkpt lat="45.61116129270778" lon="13.827598432325363"><ele>14.0</ele><time>2026-05-01T13:36:25Z</time></trkpt><trkpt lat="45.61107383803704" lon="13.827718854793122"><ele>14.0</ele><time>2026-05-01T13:36:26Z</time></trkpt><trkpt lat="45.610978057610154" lon="13.827836787889257"><ele>13.75</ele><time>2026-05-01T13:36:27Z</time></trkpt><trkpt lat="45.610878059607174" lon="13.82796583124246"><ele>13.5</ele><time>2026-05-01T13:36:28Z</time></trkpt><trkpt lat="45.610773508398864" lon="13.828106669918947"><ele>13.25</ele><time>2026-05-01T13:36:29Z</time></trkpt><trkpt lat="45.61065713403543" lon="13.828249069615493"><ele>13.0</ele><time>2026-05-01T13:36:30Z</time></trkpt><trkpt lat="45.61053294094481" lon="13.828395589238141"><ele>13.333333333333332</ele><time>2026-05-01T13:36:31Z</time></trkpt><trkpt lat="45.61039752931435" lon="13.828542835228454"><ele>13.666666666666668</ele><time>2026-05-01T13:36:32Z</time></trkpt><trkpt lat="45.61025888640711" lon="13.828693759227725"><ele>14.0</ele><time>2026-05-01T13:36:33Z</time></trkpt><trkpt lat="45.610116204756274" lon="13.828840556434157"><ele>14.333333333333334</ele><time>2026-05-01T13:36:34Z</time></trkpt><trkpt lat="45.60997141275306" lon="13.828982112267877"><ele>14.666666666666668</ele><time>2026-05-01T13:36:35Z</time></trkpt><trkpt lat="45.609825383632575" lon="13.829123897628959"><ele>15.0</ele><time>2026-05-01T13:36:36Z</time></trkpt><trkpt lat="45.60968062189511" lon="13.829266007791851"><ele>15.0</ele><time>2026-05-01T13:36:37Z</time></trkpt><trkpt lat="45.60953795224353" lon="13.829409298939831"><ele>15.0</ele><time>2026-05-01T13:36:38Z</time></trkpt><trkpt lat="45.609400706312435" lon="13.829549196102153"><ele>15.0</ele><time>2026-05-01T13:36:39Z</time></trkpt><trkpt lat="45.60926598576353" lon="13.829684560550307"><ele>15.0</ele><time>2026-05-01T13:36:40Z</time></trkpt><trkpt lat="45.60912698064198" lon="13.829798356927997"><ele>15.0</ele><time>2026-05-01T13:36:41Z</time></trkpt><trkpt lat="45.60897556276408" lon="13.829892089638799"><ele>15.0</ele><time>2026-05-01T13:36:42Z</time></trkpt><trkpt lat="45.60882126135183" lon="13.82993587782826"><ele>15.0</ele><time>2026-05-01T13:36:43Z</time></trkpt><trkpt lat="45.60866673866878" lon="13.82993475099747"><ele>15.0</ele><time>2026-05-01T13:36:44Z</time></trkpt><trkpt lat="45.60851093812019" lon="13.829891217240371"><ele>15.0</ele><time>2026-05-01T13:36:45Z</time></trkpt><trkpt lat="45.60836256719389" lon="13.829812152655734"><ele>15.0</ele><time>2026-05-01T13:36:46Z</time></trkpt><trkpt lat="45.60822811059182" lon="13.829694359243929"><ele>15.0</ele><time>2026-05-01T13:36:47Z</time></trkpt><trkpt lat="45.6081000367016" lon="13.829553939968129"><ele>15.0</ele><time>2026-05-01T13:36:48Z</time></trkpt><trkpt lat="45.60797212782311" lon="13.8293992629805"><ele>14.666666666666668</ele><time>2026-05-01T13:36:49Z</time></trkpt><trkpt lat="45.607840206109735" lon="13.829238663797655"><ele>14.333333333333334</ele><time>2026-05-01T13:36:50Z</time></trkpt><trkpt lat="45.6077058346827" lon="13.8290728517714"><ele>14.0</ele><time>2026-05-01T13:36:51Z</time></trkpt><trkpt lat="45.60756547553244" lon="13.828902210167477"><ele>14.0</ele><time>2026-05-01T13:36:52Z</time></trkpt><trkpt lat="45.607420102659894" lon="13.828727936258188"><ele>14.0</ele><time>2026-05-01T13:36:53Z</time></trkpt><trkpt lat="45.60727086312765" lon="13.82854769516195"><ele>14.0</ele><time>2026-05-01T13:36:54Z</time></trkpt><trkpt lat="45.60712178135096" lon="13.828367168755552"><ele>15.333333333333334</ele><time>2026-05-01T13:36:55Z</time></trkpt><trkpt lat="45.60697626311019" lon="13.828181443466027"><ele>16.666666666666668</ele><time>2026-05-01T13:36:56Z</time></trkpt><trkpt lat="45.60683610370529" lon="13.827990787888817"><ele>18.0</ele><time>2026-05-01T13:36:57Z</time></trkpt><trkpt lat="45.60669291148195" lon="13.827795598968178"><ele>17.333333333333332</ele><time>2026-05-01T13:36:58Z</time></trkpt><trkpt lat="45.60655171276638" lon="13.827595111274139"><ele>16.666666666666664</ele><time>2026-05-01T13:36:59Z</time></trkpt><trkpt lat="45.6064085756046" lon="13.827393960691651"><ele>16.0</ele><time>2026-05-01T13:37:00Z</time></trkpt><trkpt lat="45.606266208955724" lon="13.827196876569714"><ele>16.666666666666664</ele><time>2026-05-01T13:37:01Z</time></trkpt><trkpt lat="45.606125244317695" lon="13.827000398983476"><ele>17.333333333333332</ele><time>2026-05-01T13:37:02Z</time></trkpt><trkpt lat="45.60598533358385" lon="13.82680236060571"><ele>18.0</ele><time>2026-05-01T13:37:03Z</time></trkpt><trkpt lat="45.60584841768887" lon="13.826605118727935"><ele>16.666666666666668</ele><time>2026-05-01T13:37:04Z</time></trkpt><trkpt lat="45.605712625254995" lon="13.826409792588324"><ele>15.333333333333334</ele><time>2026-05-01T13:37:05Z</time></trkpt><trkpt lat="45.60557756948256" lon="13.826210166877988"><ele>14.0</ele><time>2026-05-01T13:37:06Z</time></trkpt><trkpt lat="45.605443567534124" lon="13.826002675723458"><ele>15.333333333333334</ele><time>2026-05-01T13:37:07Z</time></trkpt><trkpt lat="45.60530978230326" lon="13.825789798571565"><ele>16.666666666666668</ele><time>2026-05-01T13:37:08Z</time></trkpt><trkpt lat="45.60517803821811" lon="13.825571279580213"><ele>18.0</ele><time>2026-05-01T13:37:09Z</time></trkpt><trkpt lat="45.60504806305088" lon="13.82534199141776"><ele>18.0</ele><time>2026-05-01T13:37:10Z</time></trkpt><trkpt lat="45.60492097322778" lon="13.825105073287292"><ele>18.0</ele><time>2026-05-01T13:37:11Z</time></trkpt><trkpt lat="45.60479850279693" lon="13.824856890317191"><ele>18.0</ele><time>2026-05-01T13:37:12Z</time></trkpt><trkpt lat="45.604678780566495" lon="13.824599593637847"><ele>18.0</ele><time>2026-05-01T13:37:13Z</time></trkpt><trkpt lat="45.604565103701184" lon="13.824337797836042"><ele>18.0</ele><time>2026-05-01T13:37:14Z</time></trkpt><trkpt lat="45.60445218886316" lon="13.824068899563986"><ele>18.0</ele><time>2026-05-01T13:37:15Z</time></trkpt><trkpt lat="45.60434145133686" lon="13.823803652003622"><ele>27.666666666666664</ele><time>2026-05-01T13:37:16Z</time></trkpt><trkpt lat="45.604229775974446" lon="13.823533262013894"><ele>37.33333333333333</ele><time>2026-05-01T13:37:17Z</time></trkpt><trkpt lat="45.60411493376899" lon="13.823252620268496"><ele>47.0</ele><time>2026-05-01T13:37:18.013Z</time></trkpt><trkpt lat="45.60400000537897" lon="13.822966106739457"><ele>47.5</ele><time>2026-05-01T13:37:19.015Z</time></trkpt><trkpt lat="45.60388533177788" lon="13.822674059773604"><ele>48.0</ele><time>2026-05-01T13:37:20.011Z</time></trkpt><trkpt lat="45.60376924036767" lon="13.822373999401231"><ele>61.0</ele><time>2026-05-01T13:37:21.013Z</time></trkpt><trkpt lat="45.60364696928224" lon="13.822069780510091"><ele>74.0</ele><time>2026-05-01T13:37:22.022Z</time></trkpt><trkpt lat="45.6035252908133" lon="13.821770189551161"><ele>99.0</ele><time>2026-05-01T13:37:23.012Z</time></trkpt><trkpt lat="45.60218266965529" lon="13.818365403837669"><ele>110.0</ele><time>2026-05-01T13:37:27.705Z</time></trkpt><trkpt lat="45.601821348538316" lon="13.817478455091315"><ele>103.0</ele><time>2026-05-01T13:37:28.705Z</time></trkpt><trkpt lat="45.6014588681712" lon="13.816598313722546"><ele>107.0</ele><time>2026-05-01T13:37:29.7Z</time></trkpt><trkpt lat="45.60108540002795" lon="13.815716012112928"><ele>103.0</ele><time>2026-05-01T13:37:30.705Z</time></trkpt><trkpt lat="45.60070932735996" lon="13.814841607259229"><ele>97.0</ele><time>2026-05-01T13:37:31.705Z</time></trkpt><trkpt lat="45.600329486585736" lon="13.813970623427378"><ele>95.0</ele><time>2026-05-01T13:37:32.705Z</time></trkpt><trkpt lat="45.599948000328894" lon="13.813101061572548"><ele>87.0</ele><time>2026-05-01T13:37:33.705Z</time></trkpt><trkpt lat="45.599562121938305" lon="13.812235552294153"><ele>72.0</ele><time>2026-05-01T13:37:34.705Z</time></trkpt><trkpt lat="45.59917547207977" lon="13.811370592226"><ele>61.0</ele><time>2026-05-01T13:37:35.705Z</time></trkpt><trkpt lat="45.59879038609476" lon="13.810509130641357"><ele>38.0</ele><time>2026-05-01T13:37:36.701Z</time></trkpt><trkpt lat="45.59840106118617" lon="13.809641864365387"><ele>31.0</ele><time>2026-05-01T13:37:37.705Z</time></trkpt><trkpt lat="45.597640176124" lon="13.80792629048209"><ele>26.5</ele><time>2026-05-01T13:38:00Z</time></trkpt><trkpt lat="45.59746069796446" lon="13.807557276303388"><ele>22.0</ele><time>2026-05-01T13:38:01Z</time></trkpt><trkpt lat="45.59729873616717" lon="13.807221571570778"><ele>22.0</ele><time>2026-05-01T13:38:02Z</time></trkpt><trkpt lat="45.597131686788956" lon="13.806898210560266"><ele>22.0</ele><time>2026-05-01T13:38:03Z</time></trkpt><trkpt lat="45.596958716921215" lon="13.806574175397714"><ele>21.0</ele><time>2026-05-01T13:38:04Z</time></trkpt><trkpt lat="45.59677888759829" lon="13.8062496090968"><ele>20.0</ele><time>2026-05-01T13:38:05Z</time></trkpt><trkpt lat="45.596591282988314" lon="13.805929695861298"><ele>15.5</ele><time>2026-05-01T13:38:06Z</time></trkpt><trkpt lat="45.59639461938788" lon="13.80561707513666"><ele>11.0</ele><time>2026-05-01T13:38:07Z</time></trkpt><trkpt lat="45.5961910162014" lon="13.805314043600834"><ele>10.5</ele><time>2026-05-01T13:38:08Z</time></trkpt><trkpt lat="45.59598252584971" lon="13.805014899773049"><ele>10.0</ele><time>2026-05-01T13:38:09Z</time></trkpt><trkpt lat="45.59576514892024" lon="13.80472583526582"><ele>10.0</ele><time>2026-05-01T13:38:10Z</time></trkpt><trkpt lat="45.59554025005799" lon="13.804448808204121"><ele>10.0</ele><time>2026-05-01T13:38:11Z</time></trkpt><trkpt lat="45.59530882398596" lon="13.804179579354342"><ele>9.5</ele><time>2026-05-01T13:38:12Z</time></trkpt><trkpt lat="45.59507179077839" lon="13.803921785150926"><ele>9.0</ele><time>2026-05-01T13:38:13Z</time></trkpt><trkpt lat="45.594828341341284" lon="13.803673944870685"><ele>8.0</ele><time>2026-05-01T13:38:14Z</time></trkpt><trkpt lat="45.594578253268836" lon="13.803429258251814"><ele>7.0</ele><time>2026-05-01T13:38:15Z</time></trkpt><trkpt lat="45.594322705854445" lon="13.80318622802802"><ele>4.5</ele><time>2026-05-01T13:38:16Z</time></trkpt><trkpt lat="45.59405850337167" lon="13.802941651312128"><ele>2.0</ele><time>2026-05-01T13:38:17Z</time></trkpt><trkpt lat="45.59379732800837" lon="13.802698040845758"><ele>2.5</ele><time>2026-05-01T13:38:18Z</time></trkpt><trkpt lat="45.59353859404911" lon="13.802458419350293"><ele>3.0</ele><time>2026-05-01T13:38:19Z</time></trkpt><trkpt lat="45.593282645024956" lon="13.80222077873714"><ele>3.0</ele><time>2026-05-01T13:38:20Z</time></trkpt><trkpt lat="45.59303011875464" lon="13.801990847617734"><ele>3.0</ele><time>2026-05-01T13:38:21Z</time></trkpt><trkpt lat="45.59278018784553" lon="13.801770611013804"><ele>2.5</ele><time>2026-05-01T13:38:22Z</time></trkpt><trkpt lat="45.59252948738117" lon="13.80155495244063"><ele>2.0</ele><time>2026-05-01T13:38:23Z</time></trkpt><trkpt lat="45.592274892289154" lon="13.801340576824474"><ele>2.0</ele><time>2026-05-01T13:38:24Z</time></trkpt><trkpt lat="45.59201693456259" lon="13.801126894996655"><ele>2.0</ele><time>2026-05-01T13:38:25Z</time></trkpt><trkpt lat="45.59175190134598" lon="13.800915695453936"><ele>1.0</ele><time>2026-05-01T13:38:26Z</time></trkpt><trkpt lat="45.59148280329551" lon="13.800714935281897"><ele>0.0</ele><time>2026-05-01T13:38:27Z</time></trkpt><trkpt lat="45.59121269301122" lon="13.80052044965977"><ele>0.0</ele><time>2026-05-01T13:38:28Z</time></trkpt><trkpt lat="45.5909438266576" lon="13.800332766101036"><ele>0.0</ele><time>2026-05-01T13:38:29Z</time></trkpt><trkpt lat="45.59067924725816" lon="13.80015059712669"><ele>0.0</ele><time>2026-05-01T13:38:30Z</time></trkpt><trkpt lat="45.590418610958885" lon="13.799975789867748"><ele>0.0</ele><time>2026-05-01T13:38:31Z</time></trkpt><trkpt lat="45.59016831460027" lon="13.799809055163117"><ele>-0.5</ele><time>2026-05-01T13:38:32Z</time></trkpt><trkpt lat="45.58992584398348" lon="13.799643630282532"><ele>-1.0</ele><time>2026-05-01T13:38:33Z</time></trkpt><trkpt lat="45.58968844717489" lon="13.799482131252002"><ele>0.0</ele><time>2026-05-01T13:38:34Z</time></trkpt><trkpt lat="45.589457462940565" lon="13.799320893875779"><ele>1.0</ele><time>2026-05-01T13:38:35Z</time></trkpt><trkpt lat="45.58922367721245" lon="13.799159923554743"><ele>1.0</ele><time>2026-05-01T13:38:36Z</time></trkpt><trkpt lat="45.58898661841991" lon="13.799003696583206"><ele>1.0</ele><time>2026-05-01T13:38:37Z</time></trkpt><trkpt lat="45.58874624817078" lon="13.798852913325822"><ele>2.0</ele><time>2026-05-01T13:38:38Z</time></trkpt><trkpt lat="45.58850032617268" lon="13.798708582517225"><ele>3.0</ele><time>2026-05-01T13:38:39Z</time></trkpt><trkpt lat="45.58824840701914" lon="13.798576113378102"><ele>3.0</ele><time>2026-05-01T13:38:40Z</time></trkpt><trkpt lat="45.58799067131315" lon="13.798452845010406"><ele>3.0</ele><time>2026-05-01T13:38:41Z</time></trkpt><trkpt lat="45.58772585982869" lon="13.79833968670315"><ele>5.0</ele><time>2026-05-01T13:38:42Z</time></trkpt><trkpt lat="45.58745544690736" lon="13.798237485879511"><ele>7.0</ele><time>2026-05-01T13:38:43Z</time></trkpt><trkpt lat="45.58718456528861" lon="13.798150528466927"><ele>7.5</ele><time>2026-05-01T13:38:44Z</time></trkpt><trkpt lat="45.58691220192612" lon="13.798083719219866"><ele>8.0</ele><time>2026-05-01T13:38:45Z</time></trkpt><trkpt lat="45.58664133449184" lon="13.798032162696684"><ele>8.0</ele><time>2026-05-01T13:38:46Z</time></trkpt><trkpt lat="45.586369061448956" lon="13.797992736865877"><ele>8.0</ele><time>2026-05-01T13:38:47Z</time></trkpt><trkpt lat="45.586091546830055" lon="13.797959790260863"><ele>8.5</ele><time>2026-05-01T13:38:48Z</time></trkpt><trkpt lat="45.58581353789886" lon="13.797931957196262"><ele>9.0</ele><time>2026-05-01T13:38:49Z</time></trkpt><trkpt lat="45.58553774282409" lon="13.797908454454792"><ele>11.0</ele><time>2026-05-01T13:38:50Z</time></trkpt><trkpt lat="45.585267362660204" lon="13.797888926146923"><ele>13.0</ele><time>2026-05-01T13:38:51Z</time></trkpt><trkpt lat="45.585001264560645" lon="13.797872022671834"><ele>13.0</ele><time>2026-05-01T13:38:52Z</time></trkpt><trkpt lat="45.58474201661962" lon="13.797854705809813"><ele>13.0</ele><time>2026-05-01T13:38:53Z</time></trkpt><trkpt lat="45.58449293597833" lon="13.797832459277258"><ele>14.0</ele><time>2026-05-01T13:38:54Z</time></trkpt><trkpt lat="45.584253655293715" lon="13.797802163865294"><ele>15.0</ele><time>2026-05-01T13:38:55Z</time></trkpt><trkpt lat="45.584025669698164" lon="13.797762784863982"><ele>15.0</ele><time>2026-05-01T13:38:56Z</time></trkpt><trkpt lat="45.58380569596222" lon="13.797723674370925"><ele>15.0</ele><time>2026-05-01T13:38:57Z</time></trkpt><trkpt lat="45.58359260186491" lon="13.797690731963792"><ele>15.0</ele><time>2026-05-01T13:38:58Z</time></trkpt><trkpt lat="45.58339008429166" lon="13.797658764658618"><ele>15.333333333333332</ele><time>2026-05-01T13:38:59Z</time></trkpt><trkpt lat="45.58320108886619" lon="13.797619911504384"><ele>15.666666666666666</ele><time>2026-05-01T13:39:00Z</time></trkpt><trkpt lat="45.58302775469041" lon="13.797570929108225"><ele>16.0</ele><time>2026-05-01T13:39:01Z</time></trkpt><trkpt lat="45.58287334655063" lon="13.797510870044245"><ele>16.5</ele><time>2026-05-01T13:39:02Z</time></trkpt><trkpt lat="45.58273505368209" lon="13.797446898980647"><ele>17.0</ele><time>2026-05-01T13:39:03Z</time></trkpt><trkpt lat="45.582601409006834" lon="13.797388818229054"><ele>17.5</ele><time>2026-05-01T13:39:04Z</time></trkpt><trkpt lat="45.58247187073584" lon="13.79733272304722"><ele>18.0</ele><time>2026-05-01T13:39:05Z</time></trkpt><trkpt lat="45.58234711927976" lon="13.797277562580748"><ele>18.0</ele><time>2026-05-01T13:39:06Z</time></trkpt><trkpt lat="45.582226378781435" lon="13.797219937376406"><ele>18.0</ele><time>2026-05-01T13:39:07Z</time></trkpt><trkpt lat="45.58210235847274" lon="13.797166928003586"><ele>18.0</ele><time>2026-05-01T13:39:08Z</time></trkpt><trkpt lat="45.58197293514449" lon="13.797123170427158"><ele>18.0</ele><time>2026-05-01T13:39:09Z</time></trkpt><trkpt lat="45.581836991846444" lon="13.797084917925561"><ele>19.0</ele><time>2026-05-01T13:39:10Z</time></trkpt><trkpt lat="45.581694349169275" lon="13.797051485602635"><ele>20.0</ele><time>2026-05-01T13:39:11Z</time></trkpt><trkpt lat="45.581547717255994" lon="13.797020050346509"><ele>21.0</ele><time>2026-05-01T13:39:12Z</time></trkpt><trkpt lat="45.58139782188444" lon="13.796999634836828"><ele>22.0</ele><time>2026-05-01T13:39:13Z</time></trkpt><trkpt lat="45.581246826294084" lon="13.796982439724838"><ele>22.333333333333332</ele><time>2026-05-01T13:39:14Z</time></trkpt><trkpt lat="45.581097024516275" lon="13.796958495283766"><ele>22.666666666666668</ele><time>2026-05-01T13:39:15Z</time></trkpt><trkpt lat="45.58094540571589" lon="13.796923824732323"><ele>23.0</ele><time>2026-05-01T13:39:16Z</time></trkpt><trkpt lat="45.58079183474517" lon="13.796882838824432"><ele>23.0</ele><time>2026-05-01T13:39:17Z</time></trkpt><trkpt lat="45.58063243375992" lon="13.796843687820065"><ele>23.0</ele><time>2026-05-01T13:39:18Z</time></trkpt><trkpt lat="45.580470924694495" lon="13.796799156056574"><ele>23.0</ele><time>2026-05-01T13:39:19Z</time></trkpt><trkpt lat="45.58030687961027" lon="13.796752259233012"><ele>23.666666666666668</ele><time>2026-05-01T13:39:20Z</time></trkpt><trkpt lat="45.580139965277084" lon="13.796703570666024"><ele>24.333333333333336</ele><time>2026-05-01T13:39:21Z</time></trkpt><trkpt lat="45.579970547845235" lon="13.796656697678584"><ele>25.0</ele><time>2026-05-01T13:39:22Z</time></trkpt><trkpt lat="45.57979473574107" lon="13.796610789171593"><ele>25.0</ele><time>2026-05-01T13:39:23Z</time></trkpt><trkpt lat="45.579615099391155" lon="13.796565024824151"><ele>25.0</ele><time>2026-05-01T13:39:24Z</time></trkpt><trkpt lat="45.579427937911085" lon="13.79652121537984"><ele>25.0</ele><time>2026-05-01T13:39:25Z</time></trkpt><trkpt lat="45.57923511951779" lon="13.796477785207518"><ele>25.666666666666668</ele><time>2026-05-01T13:39:26Z</time></trkpt><trkpt lat="45.579036848722986" lon="13.796430150901262"><ele>26.333333333333336</ele><time>2026-05-01T13:39:27Z</time></trkpt><trkpt lat="45.57883380749972" lon="13.79637678202629"><ele>27.0</ele><time>2026-05-01T13:39:28Z</time></trkpt><trkpt lat="45.57862563875518" lon="13.796323692316706"><ele>27.666666666666664</ele><time>2026-05-01T13:39:29Z</time></trkpt><trkpt lat="45.578410764595695" lon="13.796267439549512"><ele>28.333333333333332</ele><time>2026-05-01T13:39:30Z</time></trkpt><trkpt lat="45.57819013812432" lon="13.796207251088108"><ele>29.0</ele><time>2026-05-01T13:39:31Z</time></trkpt><trkpt lat="45.57796763242292" lon="13.796134336615054"><ele>30.5</ele><time>2026-05-01T13:39:32Z</time></trkpt><trkpt lat="45.577740393205026" lon="13.796052565738309"><ele>32.0</ele><time>2026-05-01T13:39:33Z</time></trkpt><trkpt lat="45.57751104672713" lon="13.795970809397815"><ele>35.0</ele><time>2026-05-01T13:39:34Z</time></trkpt><trkpt lat="45.5772809965433" lon="13.79588905443183"><ele>38.0</ele><time>2026-05-01T13:39:35Z</time></trkpt><trkpt lat="45.577054524914395" lon="13.795810426029371"><ele>37.5</ele><time>2026-05-01T13:39:36Z</time></trkpt><trkpt lat="45.57682258931724" lon="13.795721735730279"><ele>37.0</ele><time>2026-05-01T13:39:37Z</time></trkpt><trkpt lat="45.576586614569045" lon="13.795628053245856"><ele>37.0</ele><time>2026-05-01T13:39:38Z</time></trkpt><trkpt lat="45.576353071288" lon="13.795523630308784"><ele>37.0</ele><time>2026-05-01T13:39:39Z</time></trkpt><trkpt lat="45.57612292443442" lon="13.795407138769866"><ele>37.5</ele><time>2026-05-01T13:39:40Z</time></trkpt><trkpt lat="45.57589377277452" lon="13.795280835777953"><ele>38.0</ele><time>2026-05-01T13:39:41Z</time></trkpt><trkpt lat="45.57566936975906" lon="13.795146023887359"><ele>42.5</ele><time>2026-05-01T13:39:42Z</time></trkpt><trkpt lat="45.57544488227329" lon="13.795001491878637"><ele>47.0</ele><time>2026-05-01T13:39:43Z</time></trkpt><trkpt lat="45.57522241993565" lon="13.794842434479017"><ele>48.0</ele><time>2026-05-01T13:39:44Z</time></trkpt><trkpt lat="45.5750034198184" lon="13.794665832184895"><ele>49.0</ele><time>2026-05-01T13:39:45Z</time></trkpt><trkpt lat="45.57478612778912" lon="13.794474526771069"><ele>51.5</ele><time>2026-05-01T13:39:46Z</time></trkpt><trkpt lat="45.57456831786347" lon="13.794271525494596"><ele>54.0</ele><time>2026-05-01T13:39:47Z</time></trkpt><trkpt lat="45.574352961796734" lon="13.794055494459412"><ele>56.0</ele><time>2026-05-01T13:39:48Z</time></trkpt><trkpt lat="45.57413924231685" lon="13.793830646579885"><ele>58.0</ele><time>2026-05-01T13:39:49Z</time></trkpt><trkpt lat="45.57393523745022" lon="13.793597282348616"><ele>59.0</ele><time>2026-05-01T13:39:50Z</time></trkpt><trkpt lat="45.57374240158558" lon="13.793353792460714"><ele>60.0</ele><time>2026-05-01T13:39:51Z</time></trkpt><trkpt lat="45.57355803416694" lon="13.793102476702968"><ele>60.0</ele><time>2026-05-01T13:39:52Z</time></trkpt><trkpt lat="45.57338238028411" lon="13.792849272611793"><ele>60.0</ele><time>2026-05-01T13:39:53Z</time></trkpt><trkpt lat="45.573217868410836" lon="13.792594294324523"><ele>64.0</ele><time>2026-05-01T13:39:54Z</time></trkpt><trkpt lat="45.573062736825854" lon="13.792340626951814"><ele>68.0</ele><time>2026-05-01T13:39:55Z</time></trkpt><trkpt lat="45.572910838163665" lon="13.79208809944212"><ele>68.0</ele><time>2026-05-01T13:39:56Z</time></trkpt><trkpt lat="45.57276455681249" lon="13.791829124308656"><ele>68.0</ele><time>2026-05-01T13:39:57Z</time></trkpt><trkpt lat="45.57262206726629" lon="13.791565716164026"><ele>68.0</ele><time>2026-05-01T13:39:58Z</time></trkpt><trkpt lat="45.572481830324335" lon="13.791300670983935"><ele>68.0</ele><time>2026-05-01T13:39:59Z</time></trkpt><trkpt lat="45.572342470646554" lon="13.79103047883509"><ele>71.0</ele><time>2026-05-01T13:40:00Z</time></trkpt><trkpt lat="45.57220485770874" lon="13.790758197752604"><ele>74.0</ele><time>2026-05-01T13:40:01Z</time></trkpt><trkpt lat="45.57206437073804" lon="13.790480683648568"><ele>76.0</ele><time>2026-05-01T13:40:02Z</time></trkpt><trkpt lat="45.571917887765984" lon="13.790194627116868"><ele>78.0</ele><time>2026-05-01T13:40:03.013Z</time></trkpt><trkpt lat="45.57176605220294" lon="13.789904964447615"><ele>78.5</ele><time>2026-05-01T13:40:04.024Z</time></trkpt><trkpt lat="45.57161065472547" lon="13.78961362607093"><ele>79.0</ele><time>2026-05-01T13:40:05.026Z</time></trkpt><trkpt lat="45.57145586754525" lon="13.789327183839559"><ele>65.0</ele><time>2026-05-01T13:40:06.013Z</time></trkpt><trkpt lat="45.57004057806504" lon="13.78717920744213"><ele>65.0</ele><time>2026-05-01T13:40:14Z</time></trkpt><trkpt lat="45.56986185722176" lon="13.786939293793626"><ele>65.0</ele><time>2026-05-01T13:40:15Z</time></trkpt><trkpt lat="45.569675429647795" lon="13.78670514043655"><ele>61.5</ele><time>2026-05-01T13:40:16Z</time></trkpt><trkpt lat="45.56949130810431" lon="13.78648090516348"><ele>58.0</ele><time>2026-05-01T13:40:17Z</time></trkpt><trkpt lat="45.56930305756308" lon="13.78626528658286"><ele>58.0</ele><time>2026-05-01T13:40:18Z</time></trkpt><trkpt lat="45.5691123377756" lon="13.786055266295255"><ele>58.0</ele><time>2026-05-01T13:40:19Z</time></trkpt><trkpt lat="45.568915925181585" lon="13.78585158638626"><ele>58.5</ele><time>2026-05-01T13:40:20Z</time></trkpt><trkpt lat="45.56871354850114" lon="13.785644254963948"><ele>59.0</ele><time>2026-05-01T13:40:21Z</time></trkpt><trkpt lat="45.56850516266509" lon="13.78543702785252"><ele>55.0</ele><time>2026-05-01T13:40:22Z</time></trkpt><trkpt lat="45.5682898041985" lon="13.785233635406223"><ele>51.0</ele><time>2026-05-01T13:40:23Z</time></trkpt><trkpt lat="45.568069099615876" lon="13.785031602729934"><ele>44.0</ele><time>2026-05-01T13:40:24Z</time></trkpt><trkpt lat="45.56784699573226" lon="13.784840067281852"><ele>37.0</ele><time>2026-05-01T13:40:25Z</time></trkpt><trkpt lat="45.56762417119212" lon="13.784651800644781"><ele>37.0</ele><time>2026-05-01T13:40:26Z</time></trkpt><trkpt lat="45.56739810148104" lon="13.78447041263302"><ele>37.0</ele><time>2026-05-01T13:40:27Z</time></trkpt><trkpt lat="45.567167470544774" lon="13.784296004488459"><ele>33.5</ele><time>2026-05-01T13:40:28Z</time></trkpt><trkpt lat="45.5669331772335" lon="13.784131173800658"><ele>30.0</ele><time>2026-05-01T13:40:29Z</time></trkpt><trkpt lat="45.566697260799884" lon="13.783971859666527"><ele>30.0</ele><time>2026-05-01T13:40:30Z</time></trkpt><trkpt lat="45.566459026838174" lon="13.783818338463291"><ele>30.0</ele><time>2026-05-01T13:40:31Z</time></trkpt><trkpt lat="45.56621851764071" lon="13.783680083263247"><ele>27.5</ele><time>2026-05-01T13:40:32Z</time></trkpt><trkpt lat="45.56597340093773" lon="13.783557394584696"><ele>25.0</ele><time>2026-05-01T13:40:33Z</time></trkpt><trkpt lat="45.56572639982074" lon="13.783453015819074"><ele>24.0</ele><time>2026-05-01T13:40:34Z</time></trkpt><trkpt lat="45.565478635339545" lon="13.78336766471436"><ele>23.0</ele><time>2026-05-01T13:40:35Z</time></trkpt><trkpt lat="45.56522852535031" lon="13.78330203137695"><ele>23.0</ele><time>2026-05-01T13:40:36Z</time></trkpt><trkpt lat="45.56498054054264" lon="13.783257902174531"><ele>23.0</ele><time>2026-05-01T13:40:37Z</time></trkpt><trkpt lat="45.56473555345502" lon="13.783234674115423"><ele>26.0</ele><time>2026-05-01T13:40:38Z</time></trkpt><trkpt lat="45.56449685564256" lon="13.783230085962865"><ele>29.0</ele><time>2026-05-01T13:40:39Z</time></trkpt><trkpt lat="45.564264398233256" lon="13.783244792973578"><ele>29.0</ele><time>2026-05-01T13:40:40Z</time></trkpt><trkpt lat="45.564034415481274" lon="13.783274842977143"><ele>29.0</ele><time>2026-05-01T13:40:41Z</time></trkpt><trkpt lat="45.56381238394956" lon="13.78331895302914"><ele>21.5</ele><time>2026-05-01T13:40:42Z</time></trkpt><trkpt lat="45.56358835785256" lon="13.783382781163532"><ele>14.0</ele><time>2026-05-01T13:40:43Z</time></trkpt><trkpt lat="45.56336604878294" lon="13.783459715547414"><ele>18.0</ele><time>2026-05-01T13:40:44Z</time></trkpt><trkpt lat="45.563141493019764" lon="13.783554494556993"><ele>22.0</ele><time>2026-05-01T13:40:45Z</time></trkpt><trkpt lat="45.56291853770996" lon="13.783663618118627"><ele>15.0</ele><time>2026-05-01T13:40:46Z</time></trkpt><trkpt lat="45.56269786116854" lon="13.78378842945892"><ele>8.0</ele><time>2026-05-01T13:40:47Z</time></trkpt><trkpt lat="45.56248266858467" lon="13.783930771145487"><ele>8.0</ele><time>2026-05-01T13:40:48Z</time></trkpt><trkpt lat="45.56227366278353" lon="13.784089372133318"><ele>8.0</ele><time>2026-05-01T13:40:49Z</time></trkpt><trkpt lat="45.562072584054704" lon="13.784265017190107"><ele>8.0</ele><time>2026-05-01T13:40:50Z</time></trkpt><trkpt lat="45.5618790797837" lon="13.784454168219433"><ele>8.0</ele><time>2026-05-01T13:40:51Z</time></trkpt><trkpt lat="45.56169297553556" lon="13.78465451579135"><ele>8.0</ele><time>2026-05-01T13:40:52Z</time></trkpt><trkpt lat="45.56151564336514" lon="13.784864245864785"><ele>8.0</ele><time>2026-05-01T13:40:53Z</time></trkpt><trkpt lat="45.56133940159261" lon="13.785077674344745"><ele>7.5</ele><time>2026-05-01T13:40:54Z</time></trkpt><trkpt lat="45.56116122927818" lon="13.785282335827489"><ele>7.0</ele><time>2026-05-01T13:40:55Z</time></trkpt><trkpt lat="45.56097719097082" lon="13.7854727576869"><ele>7.0</ele><time>2026-05-01T13:40:56Z</time></trkpt><trkpt lat="45.56078211344868" lon="13.785633515703418"><ele>7.0</ele><time>2026-05-01T13:40:57Z</time></trkpt><trkpt lat="45.56057809560324" lon="13.785762298401796"><ele>7.0</ele><time>2026-05-01T13:40:58Z</time></trkpt><trkpt lat="45.56036762518631" lon="13.785866739312281"><ele>5.666666666666667</ele><time>2026-05-01T13:40:59Z</time></trkpt><trkpt lat="45.56015153163025" lon="13.785943797707692"><ele>4.333333333333334</ele><time>2026-05-01T13:41:00Z</time></trkpt><trkpt lat="45.55993102198153" lon="13.785987888807078"><ele>3.0</ele><time>2026-05-01T13:41:01Z</time></trkpt><trkpt lat="45.55970482060373" lon="13.786004365260611"><ele>4.0</ele><time>2026-05-01T13:41:02Z</time></trkpt><trkpt lat="45.55947535142202" lon="13.785991468199986"><ele>5.0</ele><time>2026-05-01T13:41:03Z</time></trkpt><trkpt lat="45.55924266932043" lon="13.785946174890352"><ele>5.0</ele><time>2026-05-01T13:41:04Z</time></trkpt><trkpt lat="45.55901717533217" lon="13.785867929794314"><ele>5.0</ele><time>2026-05-01T13:41:05Z</time></trkpt><trkpt lat="45.55880230230134" lon="13.785766689724849"><ele>6.0</ele><time>2026-05-01T13:41:06Z</time></trkpt><trkpt lat="45.55859515298713" lon="13.785636715725365"><ele>7.0</ele><time>2026-05-01T13:41:07Z</time></trkpt><trkpt lat="45.55839519473125" lon="13.785488651809745"><ele>7.0</ele><time>2026-05-01T13:41:08Z</time></trkpt><trkpt lat="45.55821351447033" lon="13.785311605048806"><ele>7.0</ele><time>2026-05-01T13:41:09Z</time></trkpt><trkpt lat="45.558054882155844" lon="13.785110302011729"><ele>7.0</ele><time>2026-05-01T13:41:10Z</time></trkpt><trkpt lat="45.55790553647322" lon="13.784898840489435"><ele>6.0</ele><time>2026-05-01T13:41:11Z</time></trkpt><trkpt lat="45.55776555502278" lon="13.784690823165135"><ele>5.0</ele><time>2026-05-01T13:41:12Z</time></trkpt><trkpt lat="45.5576308457811" lon="13.784485647628536"><ele>4.0</ele><time>2026-05-01T13:41:13Z</time></trkpt><trkpt lat="45.55750803473688" lon="13.784277437467017"><ele>4.0</ele><time>2026-05-01T13:41:14Z</time></trkpt><trkpt lat="45.55738716668756" lon="13.784063480395524"><ele>4.0</ele><time>2026-05-01T13:41:15Z</time></trkpt><trkpt lat="45.557267190787336" lon="13.783845523120421"><ele>4.0</ele><time>2026-05-01T13:41:16Z</time></trkpt><trkpt lat="45.55714431630913" lon="13.783621455567463"><ele>3.333333333333333</ele><time>2026-05-01T13:41:17Z</time></trkpt><trkpt lat="45.55701790809953" lon="13.78338721330267"><ele>2.6666666666666665</ele><time>2026-05-01T13:41:18Z</time></trkpt><trkpt lat="45.5568874600394" lon="13.783145841545405"><ele>2.0</ele><time>2026-05-01T13:41:19Z</time></trkpt><trkpt lat="45.556756247650036" lon="13.782894443498867"><ele>2.5</ele><time>2026-05-01T13:41:20Z</time></trkpt><trkpt lat="45.55662443060591" lon="13.782631312128041"><ele>3.0</ele><time>2026-05-01T13:41:21Z</time></trkpt><trkpt lat="45.55649127373469" lon="13.782360726856698"><ele>3.0</ele><time>2026-05-01T13:41:22Z</time></trkpt><trkpt lat="45.55636029834898" lon="13.782086331292247"><ele>3.0</ele><time>2026-05-01T13:41:23Z</time></trkpt><trkpt lat="45.55623542901897" lon="13.781803692222807"><ele>3.5</ele><time>2026-05-01T13:41:24Z</time></trkpt><trkpt lat="45.5561164766747" lon="13.781510079073533"><ele>4.0</ele><time>2026-05-01T13:41:25Z</time></trkpt><trkpt lat="45.55600932469636" lon="13.781204267747349"><ele>3.5</ele><time>2026-05-01T13:41:26Z</time></trkpt><trkpt lat="45.555920973325286" lon="13.780883673369035"><ele>3.0</ele><time>2026-05-01T13:41:27Z</time></trkpt><trkpt lat="45.55585685686009" lon="13.78056040185449"><ele>3.0</ele><time>2026-05-01T13:41:28Z</time></trkpt><trkpt lat="45.555822200988786" lon="13.780237028897028"><ele>3.0</ele><time>2026-05-01T13:41:29Z</time></trkpt><trkpt lat="45.55579712454264" lon="13.779923668205386"><ele>2.6666666666666665</ele><time>2026-05-01T13:41:30Z</time></trkpt><trkpt lat="45.5557691744396" lon="13.779624751538803"><ele>2.333333333333333</ele><time>2026-05-01T13:41:31Z</time></trkpt><trkpt lat="45.55572816491652" lon="13.779341162521332"><ele>2.0</ele><time>2026-05-01T13:41:32Z</time></trkpt><trkpt lat="45.55567123317821" lon="13.779061720379673"><ele>2.0</ele><time>2026-05-01T13:41:33Z</time></trkpt><trkpt lat="45.555598844961125" lon="13.778788204679888"><ele>2.0</ele><time>2026-05-01T13:41:34Z</time></trkpt><trkpt lat="45.55550710338035" lon="13.778532896198916"><ele>2.0</ele><time>2026-05-01T13:41:35Z</time></trkpt><trkpt lat="45.55539965600418" lon="13.778281119832059"><ele>2.0</ele><time>2026-05-01T13:41:36Z</time></trkpt><trkpt lat="45.55527882776356" lon="13.778037132982346"><ele>2.0</ele><time>2026-05-01T13:41:37Z</time></trkpt><trkpt lat="45.555141441359396" lon="13.777830066530077"><ele>2.0</ele><time>2026-05-01T13:41:38Z</time></trkpt><trkpt lat="45.554988455970005" lon="13.777637486452456"><ele>2.0</ele><time>2026-05-01T13:41:39Z</time></trkpt><trkpt lat="45.55482615919641" lon="13.777460665537683"><ele>2.0</ele><time>2026-05-01T13:41:40Z</time></trkpt><trkpt lat="45.55465588129142" lon="13.777307151854826"><ele>2.0</ele><time>2026-05-01T13:41:41Z</time></trkpt><trkpt lat="45.554487347404745" lon="13.777164966358162"><ele>2.0</ele><time>2026-05-01T13:41:42Z</time></trkpt><trkpt lat="45.55431851234299" lon="13.777042027046335"><ele>2.0</ele><time>2026-05-01T13:41:43Z</time></trkpt><trkpt lat="45.55414466202413" lon="13.776925867598663"><ele>2.0</ele><time>2026-05-01T13:41:44Z</time></trkpt><trkpt lat="45.55397104805114" lon="13.776814964572692"><ele>2.0</ele><time>2026-05-01T13:41:45Z</time></trkpt><trkpt lat="45.55379663643935" lon="13.776709908087778"><ele>2.0</ele><time>2026-05-01T13:41:46Z</time></trkpt><trkpt lat="45.55362129831497" lon="13.77660388454119"><ele>2.0</ele><time>2026-05-01T13:41:47Z</time></trkpt><trkpt lat="45.55344826786042" lon="13.776500596061931"><ele>2.6666666666666665</ele><time>2026-05-01T13:41:48Z</time></trkpt><trkpt lat="45.55327481096276" lon="13.77640358897808"><ele>3.333333333333333</ele><time>2026-05-01T13:41:49Z</time></trkpt><trkpt lat="45.55309927384262" lon="13.776302507019363"><ele>4.0</ele><time>2026-05-01T13:41:50Z</time></trkpt><trkpt lat="45.552922633562225" lon="13.776193694254431"><ele>4.333333333333333</ele><time>2026-05-01T13:41:51Z</time></trkpt><trkpt lat="45.55275086856407" lon="13.77607994024066"><ele>4.666666666666667</ele><time>2026-05-01T13:41:52Z</time></trkpt><trkpt lat="45.552580340982566" lon="13.775966126461876"><ele>5.0</ele><time>2026-05-01T13:41:53Z</time></trkpt><trkpt lat="45.552411619574265" lon="13.775849333060442"><ele>5.0</ele><time>2026-05-01T13:41:54Z</time></trkpt><trkpt lat="45.55224355405326" lon="13.775725779262675"><ele>5.0</ele><time>2026-05-01T13:41:55Z</time></trkpt><trkpt lat="45.55207512792737" lon="13.775594635631128"><ele>5.0</ele><time>2026-05-01T13:41:56Z</time></trkpt><trkpt lat="45.551910115684166" lon="13.775456608232572"><ele>4.666666666666667</ele><time>2026-05-01T13:41:57Z</time></trkpt><trkpt lat="45.5517513895337" lon="13.775302236576835"><ele>4.333333333333333</ele><time>2026-05-01T13:41:58Z</time></trkpt><trkpt lat="45.55159636366464" lon="13.7751352472656"><ele>4.0</ele><time>2026-05-01T13:41:59Z</time></trkpt><trkpt lat="45.55144169113494" lon="13.774958499001794"><ele>4.0</ele><time>2026-05-01T13:42:00Z</time></trkpt><trkpt lat="45.55128582632684" lon="13.774771621365801"><ele>4.0</ele><time>2026-05-01T13:42:01Z</time></trkpt><trkpt lat="45.551132544941765" lon="13.774572989250665"><ele>4.0</ele><time>2026-05-01T13:42:02Z</time></trkpt><trkpt lat="45.55098073440348" lon="13.774362676301031"><ele>4.666666666666666</ele><time>2026-05-01T13:42:03Z</time></trkpt><trkpt lat="45.55083083786386" lon="13.774145329554576"><ele>5.333333333333333</ele><time>2026-05-01T13:42:04Z</time></trkpt><trkpt lat="45.550678877564465" lon="13.773922408755919"><ele>6.0</ele><time>2026-05-01T13:42:05Z</time></trkpt><trkpt lat="45.55052923623594" lon="13.773684398641226"><ele>5.5</ele><time>2026-05-01T13:42:06Z</time></trkpt><trkpt lat="45.55038084405383" lon="13.773431026897297"><ele>5.0</ele><time>2026-05-01T13:42:07Z</time></trkpt><trkpt lat="45.55023250522381" lon="13.773173123694802"><ele>5.0</ele><time>2026-05-01T13:42:08Z</time></trkpt><trkpt lat="45.55008810793524" lon="13.772908403286827"><ele>5.0</ele><time>2026-05-01T13:42:09Z</time></trkpt><trkpt lat="45.54996054987707" lon="13.772647407141017"><ele>4.5</ele><time>2026-05-01T13:42:10Z</time></trkpt><trkpt lat="45.54983366660202" lon="13.772368250910604"><ele>4.0</ele><time>2026-05-01T13:42:11Z</time></trkpt><trkpt lat="45.54971779863749" lon="13.772068171222033"><ele>4.5</ele><time>2026-05-01T13:42:12Z</time></trkpt><trkpt lat="45.54960077256742" lon="13.771755822182318"><ele>5.0</ele><time>2026-05-01T13:42:13Z</time></trkpt><trkpt lat="45.549488718972746" lon="13.771431814625473"><ele>5.5</ele><time>2026-05-01T13:42:14Z</time></trkpt><trkpt lat="45.5493820185082" lon="13.77110349834185"><ele>6.0</ele><time>2026-05-01T13:42:15Z</time></trkpt><trkpt lat="45.549276749058066" lon="13.770770923377034"><ele>6.5</ele><time>2026-05-01T13:42:16Z</time></trkpt><trkpt lat="45.54916898666754" lon="13.770435006658317"><ele>7.0</ele><time>2026-05-01T13:42:17Z</time></trkpt><trkpt lat="45.54905774244983" lon="13.770092557760096"><ele>6.0</ele><time>2026-05-01T13:42:18Z</time></trkpt><trkpt lat="45.54894721671309" lon="13.769746589278942"><ele>5.0</ele><time>2026-05-01T13:42:19Z</time></trkpt><trkpt lat="45.54883397103703" lon="13.76939705798432"><ele>5.0</ele><time>2026-05-01T13:42:20Z</time></trkpt><trkpt lat="45.5487160593157" lon="13.769038031972046"><ele>5.0</ele><time>2026-05-01T13:42:21Z</time></trkpt><trkpt lat="45.548596109479824" lon="13.768675764835123"><ele>7.0</ele><time>2026-05-01T13:42:22Z</time></trkpt><trkpt lat="45.548478471914535" lon="13.768312702499022"><ele>9.0</ele><time>2026-05-01T13:42:23Z</time></trkpt><trkpt lat="45.54835761220787" lon="13.767944192692015"><ele>9.5</ele><time>2026-05-01T13:42:24Z</time></trkpt><trkpt lat="45.54823545992289" lon="13.767574504653837"><ele>10.0</ele><time>2026-05-01T13:42:25Z</time></trkpt><trkpt lat="45.54811208185849" lon="13.767203047880724"><ele>9.0</ele><time>2026-05-01T13:42:26Z</time></trkpt><trkpt lat="45.547988775921006" lon="13.766824282158211"><ele>8.0</ele><time>2026-05-01T13:42:27Z</time></trkpt><trkpt lat="45.547864449919615" lon="13.766443787707834"><ele>8.0</ele><time>2026-05-01T13:42:28Z</time></trkpt><trkpt lat="45.54773843407712" lon="13.766060222727821"><ele>8.0</ele><time>2026-05-01T13:42:29Z</time></trkpt><trkpt lat="45.54761335870725" lon="13.765681121967436"><ele>7.5</ele><time>2026-05-01T13:42:30Z</time></trkpt><trkpt lat="45.54748831640572" lon="13.765304620487793"><ele>7.0</ele><time>2026-05-01T13:42:31Z</time></trkpt><trkpt lat="45.54736613532371" lon="13.76493045674984"><ele>6.5</ele><time>2026-05-01T13:42:32Z</time></trkpt><trkpt lat="45.547247858449715" lon="13.764564260914451"><ele>6.0</ele><time>2026-05-01T13:42:33Z</time></trkpt><trkpt lat="45.54713118419714" lon="13.764205866759383"><ele>7.0</ele><time>2026-05-01T13:42:34Z</time></trkpt><trkpt lat="45.547016816131205" lon="13.763852952751016"><ele>8.0</ele><time>2026-05-01T13:42:35Z</time></trkpt><trkpt lat="45.54690279986192" lon="13.763507201562474"><ele>8.0</ele><time>2026-05-01T13:42:36Z</time></trkpt><trkpt lat="45.54679159853162" lon="13.763170940642635"><ele>8.0</ele><time>2026-05-01T13:42:37Z</time></trkpt><trkpt lat="45.54667778590081" lon="13.762839707082854"><ele>7.0</ele><time>2026-05-01T13:42:38Z</time></trkpt><trkpt lat="45.54656184133775" lon="13.762507956377993"><ele>6.0</ele><time>2026-05-01T13:42:39Z</time></trkpt><trkpt lat="45.546443818393705" lon="13.762173310537108"><ele>5.0</ele><time>2026-05-01T13:42:40Z</time></trkpt><trkpt lat="45.54632664362521" lon="13.761835404040044"><ele>4.0</ele><time>2026-05-01T13:42:41Z</time></trkpt><trkpt lat="45.54620627019899" lon="13.76150185241749"><ele>6.0</ele><time>2026-05-01T13:42:42Z</time></trkpt><trkpt lat="45.54608453879647" lon="13.76117278212147"><ele>8.0</ele><time>2026-05-01T13:42:43Z</time></trkpt><trkpt lat="45.54596565088285" lon="13.760847652321564"><ele>8.0</ele><time>2026-05-01T13:42:44Z</time></trkpt><trkpt lat="45.545847260892735" lon="13.760523076843137"><ele>8.0</ele><time>2026-05-01T13:42:45Z</time></trkpt><trkpt lat="45.545727503079256" lon="13.760201605549629"><ele>6.0</ele><time>2026-05-01T13:42:46Z</time></trkpt><trkpt lat="45.545602420569246" lon="13.759872765089634"><ele>4.0</ele><time>2026-05-01T13:42:47Z</time></trkpt><trkpt lat="45.54547380498388" lon="13.759533803242032"><ele>6.5</ele><time>2026-05-01T13:42:48Z</time></trkpt><trkpt lat="45.545342489812086" lon="13.759185759844835"><ele>9.0</ele><time>2026-05-01T13:42:49Z</time></trkpt><trkpt lat="45.54520458298603" lon="13.758831548847397"><ele>7.5</ele><time>2026-05-01T13:42:50Z</time></trkpt><trkpt lat="45.54506114120237" lon="13.75847756192201"><ele>6.0</ele><time>2026-05-01T13:42:51Z</time></trkpt><trkpt lat="45.54491490733743" lon="13.758122661490662"><ele>6.0</ele><time>2026-05-01T13:42:52Z</time></trkpt><trkpt lat="45.54476820356378" lon="13.757766811068125"><ele>6.0</ele><time>2026-05-01T13:42:53Z</time></trkpt><trkpt lat="45.54462534858473" lon="13.757419279983246"><ele>7.5</ele><time>2026-05-01T13:42:54Z</time></trkpt><trkpt lat="45.54448544200148" lon="13.757077152284111"><ele>9.0</ele><time>2026-05-01T13:42:55Z</time></trkpt><trkpt lat="45.54434989795768" lon="13.756747282311858"><ele>9.0</ele><time>2026-05-01T13:42:56Z</time></trkpt><trkpt lat="45.54421442218974" lon="13.756421860326089"><ele>9.0</ele><time>2026-05-01T13:42:57Z</time></trkpt><trkpt lat="45.54407832540823" lon="13.756097441913115"><ele>6.0</ele><time>2026-05-01T13:42:58Z</time></trkpt><trkpt lat="45.54393920713873" lon="13.755773514231796"><ele>3.0</ele><time>2026-05-01T13:42:59Z</time></trkpt><trkpt lat="45.54379698890725" lon="13.755440881041146"><ele>7.5</ele><time>2026-05-01T13:43:00Z</time></trkpt><trkpt lat="45.543651679870464" lon="13.755103661887627"><ele>12.0</ele><time>2026-05-01T13:43:01Z</time></trkpt><trkpt lat="45.5435062273409" lon="13.754761172810296"><ele>12.0</ele><time>2026-05-01T13:43:02Z</time></trkpt><trkpt lat="45.543357827730915" lon="13.754411088777125"><ele>12.0</ele><time>2026-05-01T13:43:03Z</time></trkpt><trkpt lat="45.54320756466226" lon="13.754060212640407"><ele>7.5</ele><time>2026-05-01T13:43:04Z</time></trkpt><trkpt lat="45.54306267793634" lon="13.75371746965897"><ele>3.0</ele><time>2026-05-01T13:43:05Z</time></trkpt><trkpt lat="45.542918853818755" lon="13.753375017466848"><ele>8.0</ele><time>2026-05-01T13:43:06Z</time></trkpt><trkpt lat="45.54277776929095" lon="13.753039972139288"><ele>13.0</ele><time>2026-05-01T13:43:07Z</time></trkpt><trkpt lat="45.542634421386815" lon="13.752709814832057"><ele>11.0</ele><time>2026-05-01T13:43:08Z</time></trkpt><trkpt lat="45.5424960734114" lon="13.752383519039382"><ele>9.0</ele><time>2026-05-01T13:43:09Z</time></trkpt><trkpt lat="45.5423603529793" lon="13.75206313847262"><ele>7.0</ele><time>2026-05-01T13:43:10Z</time></trkpt><trkpt lat="45.542227782299584" lon="13.751748771084031"><ele>5.0</ele><time>2026-05-01T13:43:11Z</time></trkpt><trkpt lat="45.54209666515345" lon="13.75143904823813"><ele>5.5</ele><time>2026-05-01T13:43:12Z</time></trkpt><trkpt lat="45.54196607583887" lon="13.751130778516991"><ele>6.0</ele><time>2026-05-01T13:43:13Z</time></trkpt><trkpt lat="45.541834920435086" lon="13.750822460295304"><ele>6.0</ele><time>2026-05-01T13:43:14Z</time></trkpt><trkpt lat="45.54170236550361" lon="13.75051629778627"><ele>6.0</ele><time>2026-05-01T13:43:15Z</time></trkpt><trkpt lat="45.541570623792374" lon="13.750209963308327"><ele>3.5</ele><time>2026-05-01T13:43:16Z</time></trkpt><trkpt lat="45.54144129798664" lon="13.74990252723967"><ele>1.0</ele><time>2026-05-01T13:43:17Z</time></trkpt><trkpt lat="45.541316083921025" lon="13.749595812181509"><ele>4.0</ele><time>2026-05-01T13:43:18Z</time></trkpt><trkpt lat="45.5411889306906" lon="13.749293962247345"><ele>7.0</ele><time>2026-05-01T13:43:19Z</time></trkpt><trkpt lat="45.54106219556446" lon="13.748993812991433"><ele>7.0</ele><time>2026-05-01T13:43:20Z</time></trkpt><trkpt lat="45.540937439779626" lon="13.748695531838552"><ele>7.0</ele><time>2026-05-01T13:43:21Z</time></trkpt><trkpt lat="45.540813073470424" lon="13.748400853601458"><ele>6.0</ele><time>2026-05-01T13:43:22Z</time></trkpt><trkpt lat="45.54069048205474" lon="13.748106699870139"><ele>5.0</ele><time>2026-05-01T13:43:23Z</time></trkpt><trkpt lat="45.540565587962966" lon="13.74781164799795"><ele>5.0</ele><time>2026-05-01T13:43:24Z</time></trkpt><trkpt lat="45.5404379351637" lon="13.747517220992032"><ele>5.0</ele><time>2026-05-01T13:43:25Z</time></trkpt><trkpt lat="45.54030573819151" lon="13.747220372331954"><ele>5.5</ele><time>2026-05-01T13:43:26Z</time></trkpt><trkpt lat="45.54017497508271" lon="13.746922698400486"><ele>6.0</ele><time>2026-05-01T13:43:27Z</time></trkpt><trkpt lat="45.54004567483691" lon="13.746624090755882"><ele>6.0</ele><time>2026-05-01T13:43:28Z</time></trkpt><trkpt lat="45.539916916650576" lon="13.746325824017122"><ele>6.0</ele><time>2026-05-01T13:43:29Z</time></trkpt><trkpt lat="45.539791481327526" lon="13.746030849755183"><ele>3.5</ele><time>2026-05-01T13:43:30Z</time></trkpt><trkpt lat="45.539666994229584" lon="13.74573815202847"><ele>1.0</ele><time>2026-05-01T13:43:31Z</time></trkpt><trkpt lat="45.53954542234841" lon="13.745449094309786"><ele>5.5</ele><time>2026-05-01T13:43:32Z</time></trkpt><trkpt lat="45.53942697286928" lon="13.745164353715793"><ele>10.0</ele><time>2026-05-01T13:43:33Z</time></trkpt><trkpt lat="45.53930899922663" lon="13.744882914527608"><ele>10.0</ele><time>2026-05-01T13:43:34Z</time></trkpt><trkpt lat="45.53919250140803" lon="13.744609733782239"><ele>10.0</ele><time>2026-05-01T13:43:35Z</time></trkpt><trkpt lat="45.539082711413194" lon="13.744347130650729"><ele>10.0</ele><time>2026-05-01T13:43:36Z</time></trkpt><trkpt lat="45.53897533067062" lon="13.744091282238358"><ele>10.0</ele><time>2026-05-01T13:43:37Z</time></trkpt><trkpt lat="45.53886778515372" lon="13.743837042648961"><ele>10.0</ele><time>2026-05-01T13:43:38Z</time></trkpt><trkpt lat="45.53876143355941" lon="13.743579933701042"><ele>10.0</ele><time>2026-05-01T13:43:39Z</time></trkpt><trkpt lat="45.53865625356201" lon="13.74332190871255"><ele>10.0</ele><time>2026-05-01T13:43:40Z</time></trkpt><trkpt lat="45.53855239419289" lon="13.743061964338882"><ele>10.0</ele><time>2026-05-01T13:43:41Z</time></trkpt><trkpt lat="45.53845250377585" lon="13.742801178672057"><ele>10.0</ele><time>2026-05-01T13:43:42Z</time></trkpt><trkpt lat="45.538357743169925" lon="13.742539562808782"><ele>8.666666666666668</ele><time>2026-05-01T13:43:43Z</time></trkpt><trkpt lat="45.53826612489981" lon="13.742283386524585"><ele>7.333333333333334</ele><time>2026-05-01T13:43:44Z</time></trkpt><trkpt lat="45.5381817168033" lon="13.742032889181791"><ele>6.0</ele><time>2026-05-01T13:43:45Z</time></trkpt><trkpt lat="45.538103572424745" lon="13.741790403411947"><ele>5.666666666666667</ele><time>2026-05-01T13:43:46Z</time></trkpt><trkpt lat="45.53803350342676" lon="13.74155323698181"><ele>5.333333333333334</ele><time>2026-05-01T13:43:47Z</time></trkpt><trkpt lat="45.53796839032067" lon="13.74132327406897"><ele>5.0</ele><time>2026-05-01T13:43:48Z</time></trkpt><trkpt lat="45.537902772267365" lon="13.741102070572635"><ele>5.333333333333334</ele><time>2026-05-01T13:43:49Z</time></trkpt><trkpt lat="45.53784644948676" lon="13.740880288808789"><ele>5.666666666666667</ele><time>2026-05-01T13:43:50Z</time></trkpt><trkpt lat="45.53779005888286" lon="13.74065153450455"><ele>6.0</ele><time>2026-05-01T13:43:51Z</time></trkpt><trkpt lat="45.53773618212065" lon="13.740411115957714"><ele>6.0</ele><time>2026-05-01T13:43:52Z</time></trkpt><trkpt lat="45.53768488742641" lon="13.740159250816655"><ele>6.0</ele><time>2026-05-01T13:43:53Z</time></trkpt><trkpt lat="45.53763454759277" lon="13.739899964208664"><ele>6.0</ele><time>2026-05-01T13:43:54Z</time></trkpt><trkpt lat="45.53758724896269" lon="13.739641150380995"><ele>4.666666666666667</ele><time>2026-05-01T13:43:55Z</time></trkpt><trkpt lat="45.5375485727014" lon="13.739382806423974"><ele>3.333333333333333</ele><time>2026-05-01T13:43:56Z</time></trkpt><trkpt lat="45.5375143176943" lon="13.739130030679064"><ele>2.0</ele><time>2026-05-01T13:43:57Z</time></trkpt><trkpt lat="45.537494244044886" lon="13.738887403618367"><ele>2.0</ele><time>2026-05-01T13:43:58Z</time></trkpt><trkpt lat="45.5374760080391" lon="13.738643535948896"><ele>2.0</ele><time>2026-05-01T13:43:59Z</time></trkpt><trkpt lat="45.537458033437304" lon="13.738385146718395"><ele>2.0</ele><time>2026-05-01T13:44:00Z</time></trkpt><trkpt lat="45.53743900254984" lon="13.738116039531976"><ele>2.333333333333333</ele><time>2026-05-01T13:44:01Z</time></trkpt><trkpt lat="45.537425828693294" lon="13.73783724511127"><ele>2.6666666666666665</ele><time>2026-05-01T13:44:02Z</time></trkpt><trkpt lat="45.53741455708525" lon="13.73755083543055"><ele>3.0</ele><time>2026-05-01T13:44:03Z</time></trkpt><trkpt lat="45.5374085350819" lon="13.737264315310002"><ele>3.0</ele><time>2026-05-01T13:44:04Z</time></trkpt><trkpt lat="45.53741354122189" lon="13.736980173597281"><ele>3.0</ele><time>2026-05-01T13:44:05Z</time></trkpt><trkpt lat="45.537420386708774" lon="13.736695405234771"><ele>3.0</ele><time>2026-05-01T13:44:06Z</time></trkpt><trkpt lat="45.53743514581968" lon="13.73641714805978"><ele>2.6666666666666665</ele><time>2026-05-01T13:44:07Z</time></trkpt><trkpt lat="45.537456860217596" lon="13.736147031069324"><ele>2.333333333333333</ele><time>2026-05-01T13:44:08Z</time></trkpt><trkpt lat="45.537480272660524" lon="13.735889402661794"><ele>2.0</ele><time>2026-05-01T13:44:09Z</time></trkpt><trkpt lat="45.53750638232371" lon="13.735640659563973"><ele>2.0</ele><time>2026-05-01T13:44:10Z</time></trkpt><trkpt lat="45.53753492995307" lon="13.73540320608093"><ele>2.0</ele><time>2026-05-01T13:44:11Z</time></trkpt><trkpt lat="45.53756351295642" lon="13.73517254723905"><ele>2.0</ele><time>2026-05-01T13:44:12Z</time></trkpt><trkpt lat="45.537593232369865" lon="13.734949011607473"><ele>2.0</ele><time>2026-05-01T13:44:13Z</time></trkpt><trkpt lat="45.53762878069419" lon="13.734728909302108"><ele>2.0</ele><time>2026-05-01T13:44:14Z</time></trkpt><trkpt lat="45.537674474138925" lon="13.734507255708033"><ele>2.0</ele><time>2026-05-01T13:44:15Z</time></trkpt><trkpt lat="45.53771456193787" lon="13.734291652835028"><ele>2.0</ele><time>2026-05-01T13:44:16Z</time></trkpt><trkpt lat="45.537753862062615" lon="13.73409825185895"><ele>2.0</ele><time>2026-05-01T13:44:17Z</time></trkpt><trkpt lat="45.53779399804347" lon="13.73392260460157"><ele>2.0</ele><time>2026-05-01T13:44:18Z</time></trkpt><trkpt lat="45.53783153990226" lon="13.73376420663266"><ele>2.0</ele><time>2026-05-01T13:44:19Z</time></trkpt><trkpt lat="45.53786851945362" lon="13.7336183771256"><ele>1.8</ele><time>2026-05-01T13:44:20Z</time></trkpt><trkpt lat="45.53791288986176" lon="13.733474454007434"><ele>1.6</ele><time>2026-05-01T13:44:21Z</time></trkpt><trkpt lat="45.53796793124536" lon="13.73334162217595"><ele>1.4000000000000001</ele><time>2026-05-01T13:44:22Z</time></trkpt><trkpt lat="45.538033191399485" lon="13.733227071549305"><ele>1.2000000000000002</ele><time>2026-05-01T13:44:23Z</time></trkpt><trkpt lat="45.538109523962305" lon="13.733139189793858"><ele>1.0</ele><time>2026-05-01T13:44:24Z</time></trkpt><trkpt lat="45.53819411712223" lon="13.73307713909534"><ele>1.0</ele><time>2026-05-01T13:44:25Z</time></trkpt><trkpt lat="45.53828323806437" lon="13.733039485232881"><ele>1.0</ele><time>2026-05-01T13:44:26Z</time></trkpt><trkpt lat="45.538377552085514" lon="13.733031714373181"><ele>1.0</ele><time>2026-05-01T13:44:27Z</time></trkpt><trkpt lat="45.538466159610934" lon="13.73306231104206"><ele>1.0</ele><time>2026-05-01T13:44:28Z</time></trkpt><trkpt lat="45.53854306020514" lon="13.73312238845213"><ele>1.0</ele><time>2026-05-01T13:44:29Z</time></trkpt><trkpt lat="45.538608179811014" lon="13.733198577131375"><ele>0.9999999999999999</ele><time>2026-05-01T13:44:30Z</time></trkpt><trkpt lat="45.538659062439876" lon="13.733286603853163"><ele>1.0</ele><time>2026-05-01T13:44:31Z</time></trkpt><trkpt lat="45.53869120747509" lon="13.733387119968231"><ele>1.0</ele><time>2026-05-01T13:44:32Z</time></trkpt><trkpt lat="45.53871106971699" lon="13.733492054581957"><ele>1.0</ele><time>2026-05-01T13:44:33Z</time></trkpt><trkpt lat="45.5387183269742" lon="13.733611269784832"><ele>0.9999999999999999</ele><time>2026-05-01T13:44:34Z</time></trkpt><trkpt lat="45.53871083127231" lon="13.73373410239463"><ele>1.0</ele><time>2026-05-01T13:44:35Z</time></trkpt><trkpt lat="45.53868168223851" lon="13.733848232064098"><ele>1.3333333333333333</ele><time>2026-05-01T13:44:36Z</time></trkpt><trkpt lat="45.5386329825288" lon="13.733947112539637"><ele>1.6666666666666665</ele><time>2026-05-01T13:44:37Z</time></trkpt><trkpt lat="45.538569442776826" lon="13.73402405563161"><ele>2.0</ele><time>2026-05-01T13:44:38Z</time></trkpt><trkpt lat="45.53849956937116" lon="13.734092467065443"><ele>2.3333333333333335</ele><time>2026-05-01T13:44:39Z</time></trkpt><trkpt lat="45.53844008175291" lon="13.734186494018724"><ele>2.6666666666666665</ele><time>2026-05-01T13:44:40Z</time></trkpt><trkpt lat="45.538342333956024" lon="13.73423150543071"><ele>3.0</ele><time>2026-05-01T13:44:41Z</time></trkpt><trkpt lat="45.53825427930804" lon="13.734298504849345"><ele>3.0</ele><time>2026-05-01T13:44:42Z</time></trkpt><trkpt lat="45.53815644978806" lon="13.734363558059382"><ele>3.0</ele><time>2026-05-01T13:44:43Z</time></trkpt><trkpt lat="45.53805424267225" lon="13.73443262373619"><ele>3.0</ele><time>2026-05-01T13:44:44Z</time></trkpt><trkpt lat="45.53794570589312" lon="13.734503848096578"><ele>3.0</ele><time>2026-05-01T13:44:45Z</time></trkpt><trkpt lat="45.53782634741293" lon="13.734575454395017"><ele>3.25</ele><time>2026-05-01T13:44:46Z</time></trkpt><trkpt lat="45.53769834126139" lon="13.734645658676028"><ele>3.5</ele><time>2026-05-01T13:44:47Z</time></trkpt><trkpt lat="45.537560979780636" lon="13.734720062151048"><ele>3.75</ele><time>2026-05-01T13:44:48Z</time></trkpt><trkpt lat="45.537413345261875" lon="13.734793555865862"><ele>4.0</ele><time>2026-05-01T13:44:49Z</time></trkpt><trkpt lat="45.53725683073748" lon="13.734861420771614"><ele>4.0</ele><time>2026-05-01T13:44:50Z</time></trkpt><trkpt lat="45.53710569665939" lon="13.734919238707702"><ele>4.0</ele><time>2026-05-01T13:44:51Z</time></trkpt><trkpt lat="45.53695378720492" lon="13.73497099173953"><ele>4.0</ele><time>2026-05-01T13:44:52Z</time></trkpt><trkpt lat="45.5368013397369" lon="13.735016014802104"><ele>3.6666666666666665</ele><time>2026-05-01T13:44:53Z</time></trkpt><trkpt lat="45.53665059322356" lon="13.735055144576446"><ele>3.333333333333333</ele><time>2026-05-01T13:44:54Z</time></trkpt><trkpt lat="45.536498864363026" lon="13.735058452412986"><ele>3.0</ele><time>2026-05-01T13:44:55Z</time></trkpt><trkpt lat="45.53635124308339" lon="13.735079115629295"><ele>2.75</ele><time>2026-05-01T13:44:56Z</time></trkpt><trkpt lat="45.53620722902009" lon="13.735098392695633"><ele>2.5</ele><time>2026-05-01T13:44:57Z</time></trkpt><trkpt lat="45.53606926012145" lon="13.735114930439002"><ele>2.25</ele><time>2026-05-01T13:44:58Z</time></trkpt><trkpt lat="45.53594160549158" lon="13.735127999937413"><ele>2.0</ele><time>2026-05-01T13:44:59Z</time></trkpt><trkpt lat="45.53582395284274" lon="13.735151094241102"><ele>1.9999999999999998</ele><time>2026-05-01T13:45:00Z</time></trkpt><trkpt lat="45.53571649171828" lon="13.73514992057681"><ele>2.0</ele><time>2026-05-01T13:45:01Z</time></trkpt><trkpt lat="45.53562209193605" lon="13.73514525609444"><ele>2.0</ele><time>2026-05-01T13:45:02Z</time></trkpt><trkpt lat="45.53553651992847" lon="13.735149944927288"><ele>2.0</ele><time>2026-05-01T13:45:03Z</time></trkpt><trkpt lat="45.53545724254089" lon="13.735152199516433"><ele>1.9999999999999998</ele><time>2026-05-01T13:45:04Z</time></trkpt><trkpt lat="45.535381736336056" lon="13.73515437998017"><ele>2.0</ele><time>2026-05-01T13:45:05Z</time></trkpt><trkpt lat="45.535308402051804" lon="13.735156703458788"><ele>1.8333333333333333</ele><time>2026-05-01T13:45:06Z</time></trkpt><trkpt lat="45.535242635903984" lon="13.735159341281998"><ele>1.6666666666666665</ele><time>2026-05-01T13:45:07Z</time></trkpt><trkpt lat="45.53513587639181" lon="13.735155033108384"><ele>1.5</ele><time>2026-05-01T13:45:09Z</time></trkpt><trkpt lat="45.53506128944812" lon="13.735153908075874"><ele>1.3333333333333333</ele><time>2026-05-01T13:45:11Z</time></trkpt><trkpt lat="45.53499153763265" lon="13.735151464209101"><ele>1.1666666666666665</ele><time>2026-05-01T13:45:14Z</time></trkpt><trkpt lat="45.534912687882375" lon="13.735158034995342"><ele>1.0</ele><time>2026-05-01T13:45:21Z</time></trkpt><trkpt lat="45.534820647414904" lon="13.735164376973692"><ele>0.9999999999999999</ele><time>2026-05-01T13:45:23Z</time></trkpt><trkpt lat="45.53471537509092" lon="13.735174785691052"><ele>1.0</ele><time>2026-05-01T13:45:25Z</time></trkpt><trkpt lat="45.53464657771028" lon="13.735152865576254"><ele>1.0</ele><time>2026-05-01T13:45:26Z</time></trkpt><trkpt lat="45.53456422504264" lon="13.735150104516107"><ele>1.0</ele><time>2026-05-01T13:45:27Z</time></trkpt><trkpt lat="45.534480382156914" lon="13.735173086961916"><ele>0.9999999999999999</ele><time>2026-05-01T13:45:28Z</time></trkpt><trkpt lat="45.53440194925444" lon="13.73516682577548"><ele>1.0</ele><time>2026-05-01T13:45:29Z</time></trkpt><trkpt lat="45.534318189691945" lon="13.735171444736565"><ele>1.0</ele><time>2026-05-01T13:45:30Z</time></trkpt><trkpt lat="45.53422153116297" lon="13.73517845217048"><ele>1.0</ele><time>2026-05-01T13:45:31Z</time></trkpt><trkpt lat="45.534113155264535" lon="13.735170865789163"><ele>1.0</ele><time>2026-05-01T13:45:32Z</time></trkpt><trkpt lat="45.53399234862648" lon="13.735170579033293"><ele>1.0</ele><time>2026-05-01T13:45:33Z</time></trkpt><trkpt lat="45.5338611611443" lon="13.735169812209376"><ele>1.0</ele><time>2026-05-01T13:45:34Z</time></trkpt><trkpt lat="45.53373062895304" lon="13.735164243745139"><ele>1.0</ele><time>2026-05-01T13:45:35Z</time></trkpt><trkpt lat="45.533592868954784" lon="13.735157854737711"><ele>1.0</ele><time>2026-05-01T13:45:36Z</time></trkpt><trkpt lat="45.533452759860786" lon="13.7351479470568"><ele>1.0</ele><time>2026-05-01T13:45:37Z</time></trkpt><trkpt lat="45.53331088148855" lon="13.735141492832755"><ele>1.5</ele><time>2026-05-01T13:45:38Z</time></trkpt><trkpt lat="45.53316877716871" lon="13.73514288974674"><ele>2.0</ele><time>2026-05-01T13:45:39Z</time></trkpt><trkpt lat="45.53302496391271" lon="13.735146920687349"><ele>2.5</ele><time>2026-05-01T13:45:40Z</time></trkpt><trkpt lat="45.53287779184011" lon="13.735128704506861"><ele>3.0</ele><time>2026-05-01T13:45:41Z</time></trkpt><trkpt lat="45.53273012550018" lon="13.735132639778312"><ele>3.25</ele><time>2026-05-01T13:45:42Z</time></trkpt><trkpt lat="45.53258338754421" lon="13.73513655030852"><ele>3.5</ele><time>2026-05-01T13:45:43Z</time></trkpt><trkpt lat="45.53244274999739" lon="13.735134769401057"><ele>3.75</ele><time>2026-05-01T13:45:44Z</time></trkpt><trkpt lat="45.53230664261475" lon="13.735137999525486"><ele>4.0</ele><time>2026-05-01T13:45:45Z</time></trkpt><trkpt lat="45.53217542215356" lon="13.735140396111568"><ele>3.75</ele><time>2026-05-01T13:45:46Z</time></trkpt><trkpt lat="45.53204608213886" lon="13.73514554162715"><ele>3.5</ele><time>2026-05-01T13:45:47Z</time></trkpt><trkpt lat="45.53191645058455" lon="13.735147360302395"><ele>3.25</ele><time>2026-05-01T13:45:48Z</time></trkpt><trkpt lat="45.53179044863799" lon="13.735150580815718"><ele>3.0</ele><time>2026-05-01T13:45:49Z</time></trkpt><trkpt lat="45.53166904427569" lon="13.73515507397829"><ele>3.0</ele><time>2026-05-01T13:45:50Z</time></trkpt><trkpt lat="45.53154777703927" lon="13.735157837977756"><ele>3.0</ele><time>2026-05-01T13:45:51Z</time></trkpt><trkpt lat="45.53142463567087" lon="13.735156303203544"><ele>3.0</ele><time>2026-05-01T13:45:52Z</time></trkpt><trkpt lat="45.53129894463595" lon="13.735153678169338"><ele>3.0</ele><time>2026-05-01T13:45:53Z</time></trkpt><trkpt lat="45.53116845333719" lon="13.735154735627853"><ele>3.0</ele><time>2026-05-01T13:45:54Z</time></trkpt><trkpt lat="45.531039039717925" lon="13.735156719786804"><ele>3.0</ele><time>2026-05-01T13:45:55Z</time></trkpt><trkpt lat="45.53091135880578" lon="13.735159070447029"><ele>3.0</ele><time>2026-05-01T13:45:56Z</time></trkpt><trkpt lat="45.53078777755431" lon="13.735162007891352"><ele>3.0</ele><time>2026-05-01T13:45:57Z</time></trkpt><trkpt lat="45.53066888098144" lon="13.735164818946549"><ele>3.0</ele><time>2026-05-01T13:45:58Z</time></trkpt><trkpt lat="45.530554716696265" lon="13.735167859208733"><ele>3.0</ele><time>2026-05-01T13:45:59Z</time></trkpt><trkpt lat="45.530444781829544" lon="13.735171172094432"><ele>3.0</ele><time>2026-05-01T13:46:00Z</time></trkpt><trkpt lat="45.53034314233517" lon="13.735172816782898"><ele>3.0</ele><time>2026-05-01T13:46:01Z</time></trkpt><trkpt lat="45.53025442875813" lon="13.735159542940398"><ele>3.0</ele><time>2026-05-01T13:46:02Z</time></trkpt><trkpt lat="45.5301780168253" lon="13.735156916858966"><ele>3.1666666666666665</ele><time>2026-05-01T13:46:03Z</time></trkpt><trkpt lat="45.530109790197145" lon="13.735157054358021"><ele>3.333333333333333</ele><time>2026-05-01T13:46:04Z</time></trkpt><trkpt lat="45.52999368524391" lon="13.735158036032496"><ele>3.5</ele><time>2026-05-01T13:46:06Z</time></trkpt><trkpt lat="45.52989192429211" lon="13.735123451538737"><ele>3.6666666666666665</ele><time>2026-05-01T13:46:08Z</time></trkpt><trkpt lat="45.52984573371213" lon="13.735058755021365"><ele>3.833333333333333</ele><time>2026-05-01T13:46:09Z</time></trkpt><trkpt lat="45.529770555036364" lon="13.735121468046838"><ele>4.0</ele><time>2026-05-01T13:46:10Z</time></trkpt><trkpt lat="45.52969202543146" lon="13.735137412897553"><ele>4.0</ele><time>2026-05-01T13:46:11Z</time></trkpt><trkpt lat="45.52959891358303" lon="13.735147904661218"><ele>4.0</ele><time>2026-05-01T13:46:12Z</time></trkpt><trkpt lat="45.52949029363979" lon="13.735150246611262"><ele>4.0</ele><time>2026-05-01T13:46:13Z</time></trkpt><trkpt lat="45.52936634273264" lon="13.735149788508116"><ele>4.0</ele><time>2026-05-01T13:46:14Z</time></trkpt><trkpt lat="45.52923374187026" lon="13.735152485785813"><ele>4.333333333333333</ele><time>2026-05-01T13:46:15Z</time></trkpt><trkpt lat="45.529097463001605" lon="13.735157245555857"><ele>4.666666666666667</ele><time>2026-05-01T13:46:16Z</time></trkpt><trkpt lat="45.528945693072494" lon="13.735165046109449"><ele>5.0</ele><time>2026-05-01T13:46:17Z</time></trkpt><trkpt lat="45.52878122884838" lon="13.735166886322535"><ele>6.666666666666667</ele><time>2026-05-01T13:46:18Z</time></trkpt><trkpt lat="45.528618568793505" lon="13.73515864230556"><ele>8.333333333333334</ele><time>2026-05-01T13:46:19Z</time></trkpt><trkpt lat="45.52845060668707" lon="13.735137760388335"><ele>10.0</ele><time>2026-05-01T13:46:20Z</time></trkpt><trkpt lat="45.52827274241265" lon="13.735097504314066"><ele>10.0</ele><time>2026-05-01T13:46:21Z</time></trkpt><trkpt lat="45.528089887839016" lon="13.735032240998656"><ele>10.0</ele><time>2026-05-01T13:46:22Z</time></trkpt><trkpt lat="45.527899575618605" lon="13.734951378239392"><ele>10.0</ele><time>2026-05-01T13:46:23Z</time></trkpt><trkpt lat="45.52770054470379" lon="13.734865382239219"><ele>10.0</ele><time>2026-05-01T13:46:24Z</time></trkpt><trkpt lat="45.52749791695788" lon="13.73478393135829"><ele>10.0</ele><time>2026-05-01T13:46:25Z</time></trkpt><trkpt lat="45.52730200235371" lon="13.734691123454374"><ele>10.0</ele><time>2026-05-01T13:46:26Z</time></trkpt><trkpt lat="45.527112057903004" lon="13.7345969868063"><ele>10.0</ele><time>2026-05-01T13:46:27Z</time></trkpt><trkpt lat="45.52692667585081" lon="13.734503700459827"><ele>10.0</ele><time>2026-05-01T13:46:28Z</time></trkpt><trkpt lat="45.52674396569066" lon="13.734405438232749"><ele>10.0</ele><time>2026-05-01T13:46:29Z</time></trkpt><trkpt lat="45.52656119895342" lon="13.734300125179775"><ele>10.0</ele><time>2026-05-01T13:46:30Z</time></trkpt><trkpt lat="45.52637782547994" lon="13.734184393283444"><ele>10.0</ele><time>2026-05-01T13:46:31Z</time></trkpt><trkpt lat="45.526190629528735" lon="13.734065579851643"><ele>10.0</ele><time>2026-05-01T13:46:32Z</time></trkpt><trkpt lat="45.52600336621481" lon="13.733934707789299"><ele>9.666666666666668</ele><time>2026-05-01T13:46:33Z</time></trkpt><trkpt lat="45.52581403037189" lon="13.733794243833541"><ele>9.333333333333334</ele><time>2026-05-01T13:46:34Z</time></trkpt><trkpt lat="45.52563036626762" lon="13.733639378011755"><ele>9.0</ele><time>2026-05-01T13:46:35Z</time></trkpt><trkpt lat="45.52545185009933" lon="13.733482414575631"><ele>10.0</ele><time>2026-05-01T13:46:36Z</time></trkpt><trkpt lat="45.52528057438457" lon="13.733327198070757"><ele>11.0</ele><time>2026-05-01T13:46:37Z</time></trkpt><trkpt lat="45.525125888893115" lon="13.733173577413522"><ele>12.0</ele><time>2026-05-01T13:46:38Z</time></trkpt><trkpt lat="45.52498200739408" lon="13.733023519575557"><ele>12.0</ele><time>2026-05-01T13:46:39Z</time></trkpt><trkpt lat="45.52484520370755" lon="13.732872750771719"><ele>12.0</ele><time>2026-05-01T13:46:40Z</time></trkpt><trkpt lat="45.52471274538195" lon="13.732718738697997"><ele>12.0</ele><time>2026-05-01T13:46:41Z</time></trkpt><trkpt lat="45.524581226082745" lon="13.732561208776623"><ele>11.333333333333334</ele><time>2026-05-01T13:46:42Z</time></trkpt><trkpt lat="45.524452561024525" lon="13.732399992813518"><ele>10.666666666666668</ele><time>2026-05-01T13:46:43Z</time></trkpt><trkpt lat="45.524325697720926" lon="13.732234503833343"><ele>10.0</ele><time>2026-05-01T13:46:44Z</time></trkpt><trkpt lat="45.5242011660869" lon="13.732061458778308"><ele>10.666666666666668</ele><time>2026-05-01T13:46:45Z</time></trkpt><trkpt lat="45.52408024830901" lon="13.731885116645676"><ele>11.333333333333334</ele><time>2026-05-01T13:46:46Z</time></trkpt><trkpt lat="45.52396020977673" lon="13.731704461590722"><ele>12.0</ele><time>2026-05-01T13:46:47Z</time></trkpt><trkpt lat="45.52384155966087" lon="13.731515913257944"><ele>12.333333333333332</ele><time>2026-05-01T13:46:48Z</time></trkpt><trkpt lat="45.523715676125796" lon="13.73132731320846"><ele>12.666666666666666</ele><time>2026-05-01T13:46:49Z</time></trkpt><trkpt lat="45.52357812668715" lon="13.731128822080617"><ele>13.0</ele><time>2026-05-01T13:46:50Z</time></trkpt><trkpt lat="45.52345920595314" lon="13.730895964457932"><ele>13.0</ele><time>2026-05-01T13:46:51Z</time></trkpt><trkpt lat="45.523317655851166" lon="13.730658846050742"><ele>13.0</ele><time>2026-05-01T13:46:52Z</time></trkpt><trkpt lat="45.523172033138074" lon="13.730414359749522"><ele>13.0</ele><time>2026-05-01T13:46:53Z</time></trkpt><trkpt lat="45.523023067252595" lon="13.730161776347996"><ele>14.0</ele><time>2026-05-01T13:46:54Z</time></trkpt><trkpt lat="45.52287071100876" lon="13.729909744272438"><ele>15.0</ele><time>2026-05-01T13:46:55Z</time></trkpt><trkpt lat="45.522706290463226" lon="13.729677160321826"><ele>15.0</ele><time>2026-05-01T13:46:56Z</time></trkpt><trkpt lat="45.5225561600501" lon="13.729430459173324"><ele>15.0</ele><time>2026-05-01T13:46:57Z</time></trkpt><trkpt lat="45.52240994578043" lon="13.729179692982099"><ele>18.0</ele><time>2026-05-01T13:46:58Z</time></trkpt><trkpt lat="45.52226295659252" lon="13.72892392662336"><ele>21.0</ele><time>2026-05-01T13:46:59Z</time></trkpt><trkpt lat="45.522113097533406" lon="13.728672721178269"><ele>19.0</ele><time>2026-05-01T13:47:00Z</time></trkpt><trkpt lat="45.52195873215246" lon="13.728421389512656"><ele>17.0</ele><time>2026-05-01T13:47:01Z</time></trkpt><trkpt lat="45.52180424753103" lon="13.728167464252625"><ele>17.0</ele><time>2026-05-01T13:47:02Z</time></trkpt><trkpt lat="45.521646835003104" lon="13.727916150075366"><ele>17.0</ele><time>2026-05-01T13:47:03Z</time></trkpt><trkpt lat="45.52148547742468" lon="13.727668985341081"><ele>18.0</ele><time>2026-05-01T13:47:04Z</time></trkpt><trkpt lat="45.52131786450364" lon="13.727431384519933"><ele>19.0</ele><time>2026-05-01T13:47:05Z</time></trkpt><trkpt lat="45.5211428539911" lon="13.727200032962852"><ele>19.0</ele><time>2026-05-01T13:47:06Z</time></trkpt><trkpt lat="45.52096166288454" lon="13.726979595273432"><ele>19.0</ele><time>2026-05-01T13:47:07Z</time></trkpt><trkpt lat="45.52077921953298" lon="13.726767958810923"><ele>22.5</ele><time>2026-05-01T13:47:08Z</time></trkpt><trkpt lat="45.52059879426969" lon="13.726566659290675"><ele>26.0</ele><time>2026-05-01T13:47:09Z</time></trkpt><trkpt lat="45.52041302947177" lon="13.726378066650287"><ele>26.5</ele><time>2026-05-01T13:47:10Z</time></trkpt><trkpt lat="45.52021948496037" lon="13.726194845522757"><ele>27.0</ele><time>2026-05-01T13:47:11Z</time></trkpt><trkpt lat="45.52001767228409" lon="13.726019977453088"><ele>27.0</ele><time>2026-05-01T13:47:12Z</time></trkpt><trkpt lat="45.51981311005118" lon="13.725851832539295"><ele>27.0</ele><time>2026-05-01T13:47:13Z</time></trkpt><trkpt lat="45.51960832699596" lon="13.725697958123254"><ele>25.0</ele><time>2026-05-01T13:47:14Z</time></trkpt><trkpt lat="45.51939994667051" lon="13.725550776894313"><ele>23.0</ele><time>2026-05-01T13:47:15Z</time></trkpt><trkpt lat="45.51918695686816" lon="13.725413643042916"><ele>23.0</ele><time>2026-05-01T13:47:16Z</time></trkpt><trkpt lat="45.518970445045795" lon="13.725284295961835"><ele>23.0</ele><time>2026-05-01T13:47:17Z</time></trkpt><trkpt lat="45.518748466460956" lon="13.725160850990639"><ele>23.5</ele><time>2026-05-01T13:47:18Z</time></trkpt><trkpt lat="45.51852811608377" lon="13.72501216109355"><ele>24.0</ele><time>2026-05-01T13:47:19Z</time></trkpt><trkpt lat="45.51829798003069" lon="13.72488316423197"><ele>24.0</ele><time>2026-05-01T13:47:20Z</time></trkpt><trkpt lat="45.518064327042204" lon="13.724752194752003"><ele>24.0</ele><time>2026-05-01T13:47:21Z</time></trkpt><trkpt lat="45.517830494973325" lon="13.724621151747789"><ele>25.5</ele><time>2026-05-01T13:47:22Z</time></trkpt><trkpt lat="45.51759535530869" lon="13.724491242430787"><ele>27.0</ele><time>2026-05-01T13:47:23Z</time></trkpt><trkpt lat="45.51735347273202" lon="13.724393097186631"><ele>27.0</ele><time>2026-05-01T13:47:24Z</time></trkpt><trkpt lat="45.517122710347145" lon="13.724262519229637"><ele>27.0</ele><time>2026-05-01T13:47:25Z</time></trkpt><trkpt lat="45.516892567782605" lon="13.724126267592588"><ele>28.5</ele><time>2026-05-01T13:47:26Z</time></trkpt><trkpt lat="45.51666196319585" lon="13.723986619029494"><ele>30.0</ele><time>2026-05-01T13:47:27Z</time></trkpt><trkpt lat="45.51643208786739" lon="13.723851568345493"><ele>31.5</ele><time>2026-05-01T13:47:28Z</time></trkpt><trkpt lat="45.51620361093773" lon="13.723723547548671"><ele>33.0</ele><time>2026-05-01T13:47:29Z</time></trkpt><trkpt lat="45.51597273529696" lon="13.723595436386907"><ele>37.5</ele><time>2026-05-01T13:47:30Z</time></trkpt><trkpt lat="45.51573834401982" lon="13.723468474187209"><ele>42.0</ele><time>2026-05-01T13:47:31Z</time></trkpt><trkpt lat="45.51550144488228" lon="13.723340157575661"><ele>41.0</ele><time>2026-05-01T13:47:32Z</time></trkpt><trkpt lat="45.515266053507176" lon="13.723201283056127"><ele>40.0</ele><time>2026-05-01T13:47:33Z</time></trkpt><trkpt lat="45.515032356454725" lon="13.72305286833538"><ele>40.0</ele><time>2026-05-01T13:47:34Z</time></trkpt><trkpt lat="45.51479893988451" lon="13.722897559330098"><ele>40.0</ele><time>2026-05-01T13:47:35Z</time></trkpt><trkpt lat="45.51456258247826" lon="13.722742650428133"><ele>45.0</ele><time>2026-05-01T13:47:36Z</time></trkpt><trkpt lat="45.514326772056144" lon="13.722580566435022"><ele>50.0</ele><time>2026-05-01T13:47:37Z</time></trkpt><trkpt lat="45.514088141392214" lon="13.722418823743185"><ele>50.0</ele><time>2026-05-01T13:47:38Z</time></trkpt><trkpt lat="45.513850045495765" lon="13.722255485303664"><ele>50.0</ele><time>2026-05-01T13:47:39Z</time></trkpt><trkpt lat="45.51361094094011" lon="13.722091006826188"><ele>49.0</ele><time>2026-05-01T13:47:40Z</time></trkpt><trkpt lat="45.51337818027371" lon="13.721929435570516"><ele>48.0</ele><time>2026-05-01T13:47:41Z</time></trkpt><trkpt lat="45.51315002103851" lon="13.721775024065526"><ele>54.0</ele><time>2026-05-01T13:47:42Z</time></trkpt><trkpt lat="45.512924795332815" lon="13.721630880575937"><ele>60.0</ele><time>2026-05-01T13:47:43Z</time></trkpt><trkpt lat="45.51270392871854" lon="13.721510656296136"><ele>60.0</ele><time>2026-05-01T13:47:44Z</time></trkpt><trkpt lat="45.51248155205326" lon="13.72142126955921"><ele>60.0</ele><time>2026-05-01T13:47:45Z</time></trkpt><trkpt lat="45.512257917297745" lon="13.721354430437739"><ele>60.66666666666667</ele><time>2026-05-01T13:47:46Z</time></trkpt><trkpt lat="45.51203473849522" lon="13.721302730925107"><ele>61.333333333333336</ele><time>2026-05-01T13:47:47Z</time></trkpt><trkpt lat="45.511821269660494" lon="13.721250299218248"><ele>62.0</ele><time>2026-05-01T13:47:48Z</time></trkpt><trkpt lat="45.511614162335746" lon="13.721182268604657"><ele>62.0</ele><time>2026-05-01T13:47:49Z</time></trkpt><trkpt lat="45.51141370350609" lon="13.721084634781697"><ele>62.0</ele><time>2026-05-01T13:47:50Z</time></trkpt><trkpt lat="45.51121640552425" lon="13.720967681366671"><ele>62.0</ele><time>2026-05-01T13:47:51Z</time></trkpt><trkpt lat="45.511033941687735" lon="13.720828395441018"><ele>68.33333333333334</ele><time>2026-05-01T13:47:52Z</time></trkpt><trkpt lat="45.51088489859781" lon="13.720665705521002"><ele>74.66666666666667</ele><time>2026-05-01T13:47:53Z</time></trkpt><trkpt lat="45.510752220598555" lon="13.720500785102566"><ele>81.0</ele><time>2026-05-01T13:47:54Z</time></trkpt><trkpt lat="45.51063183703281" lon="13.720323979345082"><ele>80.0</ele><time>2026-05-01T13:47:55Z</time></trkpt><trkpt lat="45.51052403166361" lon="13.720121889619051"><ele>79.0</ele><time>2026-05-01T13:47:56Z</time></trkpt><trkpt lat="45.51042116884012" lon="13.719907236042076"><ele>78.0</ele><time>2026-05-01T13:47:57Z</time></trkpt><trkpt lat="45.51031918845691" lon="13.719691568776566"><ele>78.0</ele><time>2026-05-01T13:47:58Z</time></trkpt><trkpt lat="45.51021352307702" lon="13.719485464927773"><ele>78.0</ele><time>2026-05-01T13:47:59Z</time></trkpt><trkpt lat="45.51009310776146" lon="13.719296419603241"><ele>78.0</ele><time>2026-05-01T13:48:00Z</time></trkpt><trkpt lat="45.509957356141264" lon="13.719124941678869"><ele>78.33333333333333</ele><time>2026-05-01T13:48:01Z</time></trkpt><trkpt lat="45.50980834577609" lon="13.71897854472748"><ele>78.66666666666666</ele><time>2026-05-01T13:48:02Z</time></trkpt><trkpt lat="45.50964459800283" lon="13.718862672367996"><ele>79.0</ele><time>2026-05-01T13:48:03Z</time></trkpt><trkpt lat="45.509472375413445" lon="13.718754454355768"><ele>79.0</ele><time>2026-05-01T13:48:04Z</time></trkpt><trkpt lat="45.5093023937821" lon="13.718629648559434"><ele>79.0</ele><time>2026-05-01T13:48:05Z</time></trkpt><trkpt lat="45.50915218613077" lon="13.718472073654732"><ele>79.0</ele><time>2026-05-01T13:48:06Z</time></trkpt><trkpt lat="45.509029431088585" lon="13.718275638377811"><ele>84.66666666666666</ele><time>2026-05-01T13:48:07Z</time></trkpt><trkpt lat="45.50892363621467" lon="13.718052487822352"><ele>90.33333333333333</ele><time>2026-05-01T13:48:08Z</time></trkpt><trkpt lat="45.50884642238703" lon="13.71780907322398"><ele>96.0</ele><time>2026-05-01T13:48:09Z</time></trkpt><trkpt lat="45.5087788125966" lon="13.717554610145466"><ele>96.0</ele><time>2026-05-01T13:48:10Z</time></trkpt><trkpt lat="45.50869470942391" lon="13.717308536972086"><ele>96.0</ele><time>2026-05-01T13:48:11Z</time></trkpt><trkpt lat="45.508587562894014" lon="13.717086226857441"><ele>96.0</ele><time>2026-05-01T13:48:12Z</time></trkpt><trkpt lat="45.5084728902552" lon="13.716897742882965"><ele>96.0</ele><time>2026-05-01T13:48:13Z</time></trkpt><trkpt lat="45.50837298297656" lon="13.716730035867752"><ele>96.0</ele><time>2026-05-01T13:48:14Z</time></trkpt><trkpt lat="45.508302939804096" lon="13.71654966729484"><ele>96.0</ele><time>2026-05-01T13:48:15Z</time></trkpt><trkpt lat="45.508267856128526" lon="13.716345379872779"><ele>96.0</ele><time>2026-05-01T13:48:16Z</time></trkpt><trkpt lat="45.50826429263521" lon="13.716129147258478"><ele>96.5</ele><time>2026-05-01T13:48:17Z</time></trkpt><trkpt lat="45.50830249505104" lon="13.71593204118444"><ele>97.0</ele><time>2026-05-01T13:48:18Z</time></trkpt><trkpt lat="45.50837537575698" lon="13.715771204598717"><ele>97.5</ele><time>2026-05-01T13:48:19Z</time></trkpt><trkpt lat="45.50847928974981" lon="13.715636568655125"><ele>98.0</ele><time>2026-05-01T13:48:20Z</time></trkpt><trkpt lat="45.50860675700043" lon="13.715538803554365"><ele>102.5</ele><time>2026-05-01T13:48:21Z</time></trkpt><trkpt lat="45.50874962435143" lon="13.715490827433273"><ele>107.0</ele><time>2026-05-01T13:48:22Z</time></trkpt><trkpt lat="45.50888998576063" lon="13.71549401697559"><ele>111.5</ele><time>2026-05-01T13:48:23Z</time></trkpt><trkpt lat="45.509021982996295" lon="13.715553754417947"><ele>116.0</ele><time>2026-05-01T13:48:24Z</time></trkpt><trkpt lat="45.50914347293921" lon="13.715672039250272"><ele>116.0</ele><time>2026-05-01T13:48:25Z</time></trkpt><trkpt lat="45.509243449516696" lon="13.715834351205888"><ele>116.0</ele><time>2026-05-01T13:48:26Z</time></trkpt><trkpt lat="45.50932401119782" lon="13.716032949872583"><ele>116.0</ele><time>2026-05-01T13:48:27Z</time></trkpt><trkpt lat="45.509388951906764" lon="13.716255366948793"><ele>117.33333333333333</ele><time>2026-05-01T13:48:28Z</time></trkpt><trkpt lat="45.509459089813724" lon="13.716471654766234"><ele>118.66666666666666</ele><time>2026-05-01T13:48:29Z</time></trkpt><trkpt lat="45.50954528390095" lon="13.716668075499559"><ele>120.0</ele><time>2026-05-01T13:48:30Z</time></trkpt><trkpt lat="45.509653355208734" lon="13.716840558489794"><ele>117.66666666666666</ele><time>2026-05-01T13:48:31Z</time></trkpt><trkpt lat="45.509786855540085" lon="13.716987673356018"><ele>115.33333333333333</ele><time>2026-05-01T13:48:32Z</time></trkpt><trkpt lat="45.5099318779538" lon="13.717099316590659"><ele>113.0</ele><time>2026-05-01T13:48:33Z</time></trkpt><trkpt lat="45.510084686696885" lon="13.717168952325066"><ele>113.0</ele><time>2026-05-01T13:48:34Z</time></trkpt><trkpt lat="45.510245081239056" lon="13.71720055421264"><ele>113.0</ele><time>2026-05-01T13:48:35Z</time></trkpt><trkpt lat="45.510417802090785" lon="13.71720460868368"><ele>113.0</ele><time>2026-05-01T13:48:36Z</time></trkpt><trkpt lat="45.51059367211208" lon="13.717202741300154"><ele>115.33333333333333</ele><time>2026-05-01T13:48:37Z</time></trkpt><trkpt lat="45.51077301162125" lon="13.71720414905816"><ele>117.66666666666666</ele><time>2026-05-01T13:48:38Z</time></trkpt><trkpt lat="45.51095636826047" lon="13.717226644839577"><ele>120.0</ele><time>2026-05-01T13:48:39Z</time></trkpt><trkpt lat="45.51114278378612" lon="13.717284163628333"><ele>123.66666666666666</ele><time>2026-05-01T13:48:40Z</time></trkpt><trkpt lat="45.51131686089265" lon="13.71737126014648"><ele>127.33333333333333</ele><time>2026-05-01T13:48:41Z</time></trkpt><trkpt lat="45.51148102918877" lon="13.717493716744949"><ele>131.0</ele><time>2026-05-01T13:48:42Z</time></trkpt><trkpt lat="45.51164495151686" lon="13.717635029970927"><ele>130.0</ele><time>2026-05-01T13:48:43Z</time></trkpt><trkpt lat="45.511809200143325" lon="13.71776830077776"><ele>129.0</ele><time>2026-05-01T13:48:44Z</time></trkpt><trkpt lat="45.51197778162069" lon="13.717871544243664"><ele>128.0</ele><time>2026-05-01T13:48:45Z</time></trkpt><trkpt lat="45.5121499577394" lon="13.71793988663147"><ele>128.0</ele><time>2026-05-01T13:48:46Z</time></trkpt><trkpt lat="45.512329573113135" lon="13.717976161643728"><ele>128.0</ele><time>2026-05-01T13:48:47Z</time></trkpt><trkpt lat="45.512512321969666" lon="13.717978037136689"><ele>128.0</ele><time>2026-05-01T13:48:48Z</time></trkpt><trkpt lat="45.512694927606375" lon="13.7179437157974"><ele>128.0</ele><time>2026-05-01T13:48:49Z</time></trkpt><trkpt lat="45.512871821247984" lon="13.717876044507488"><ele>128.0</ele><time>2026-05-01T13:48:50Z</time></trkpt><trkpt lat="45.5130447277212" lon="13.717790239169641"><ele>128.0</ele><time>2026-05-01T13:48:51Z</time></trkpt><trkpt lat="45.51321983366757" lon="13.717713580766974"><ele>134.0</ele><time>2026-05-01T13:48:52Z</time></trkpt><trkpt lat="45.51339915264662" lon="13.717659656690214"><ele>140.0</ele><time>2026-05-01T13:48:53Z</time></trkpt><trkpt lat="45.513577181813424" lon="13.717645912887646"><ele>146.0</ele><time>2026-05-01T13:48:54Z</time></trkpt><trkpt lat="45.513746159373994" lon="13.717688831667504"><ele>143.66666666666666</ele><time>2026-05-01T13:48:55Z</time></trkpt><trkpt lat="45.513904890459536" lon="13.717765048351152"><ele>141.33333333333334</ele><time>2026-05-01T13:48:56Z</time></trkpt><trkpt lat="45.51405370086649" lon="13.71785007514216"><ele>139.0</ele><time>2026-05-01T13:48:57Z</time></trkpt><trkpt lat="45.514191373156464" lon="13.7179270986236"><ele>139.0</ele><time>2026-05-01T13:48:58Z</time></trkpt><trkpt lat="45.514339990808494" lon="13.717973665904035"><ele>139.0</ele><time>2026-05-01T13:48:59Z</time></trkpt><trkpt lat="45.514498849771435" lon="13.717976922815128"><ele>139.0</ele><time>2026-05-01T13:49:00Z</time></trkpt><trkpt lat="45.51466218768586" lon="13.717937751684861"><ele>140.66666666666669</ele><time>2026-05-01T13:49:01Z</time></trkpt><trkpt lat="45.51482802836473" lon="13.717889215183444"><ele>142.33333333333334</ele><time>2026-05-01T13:49:02Z</time></trkpt><trkpt lat="45.51499474956362" lon="13.717861955327626"><ele>144.0</ele><time>2026-05-01T13:49:03Z</time></trkpt><trkpt lat="45.51516183624493" lon="13.717876048196565"><ele>144.0</ele><time>2026-05-01T13:49:04Z</time></trkpt><trkpt lat="45.51532779006535" lon="13.717923242240166"><ele>144.0</ele><time>2026-05-01T13:49:05Z</time></trkpt><trkpt lat="45.51548354824724" lon="13.717980896569983"><ele>144.0</ele><time>2026-05-01T13:49:06Z</time></trkpt><trkpt lat="45.51562928887065" lon="13.718007405774584"><ele>145.25</ele><time>2026-05-01T13:49:07Z</time></trkpt><trkpt lat="45.51575805228565" lon="13.717982726325806"><ele>146.5</ele><time>2026-05-01T13:49:08Z</time></trkpt><trkpt lat="45.51587440423259" lon="13.717913119601219"><ele>147.75</ele><time>2026-05-01T13:49:09Z</time></trkpt><trkpt lat="45.515979922690015" lon="13.71781444981199"><ele>149.0</ele><time>2026-05-01T13:49:10Z</time></trkpt><trkpt lat="45.51606981694797" lon="13.717688261845211"><ele>152.25</ele><time>2026-05-01T13:49:11Z</time></trkpt><trkpt lat="45.516131209398225" lon="13.717532294199902"><ele>155.5</ele><time>2026-05-01T13:49:12Z</time></trkpt><trkpt lat="45.516166145421586" lon="13.717352391574378"><ele>158.75</ele><time>2026-05-01T13:49:13Z</time></trkpt><trkpt lat="45.51616767334948" lon="13.717156465896466"><ele>162.0</ele><time>2026-05-01T13:49:14Z</time></trkpt><trkpt lat="45.516138775739506" lon="13.716964054660664"><ele>165.0</ele><time>2026-05-01T13:49:15Z</time></trkpt><trkpt lat="45.51607390726515" lon="13.716782334197367"><ele>168.0</ele><time>2026-05-01T13:49:16Z</time></trkpt><trkpt lat="45.51597898162417" lon="13.716632867811116"><ele>171.0</ele><time>2026-05-01T13:49:17Z</time></trkpt><trkpt lat="45.515854301429286" lon="13.71652771775198"><ele>174.0</ele><time>2026-05-01T13:49:18Z</time></trkpt><trkpt lat="45.51571496156481" lon="13.716468753382982"><ele>174.0</ele><time>2026-05-01T13:49:19Z</time></trkpt><trkpt lat="45.515562230337785" lon="13.7164572833913"><ele>174.0</ele><time>2026-05-01T13:49:20Z</time></trkpt><trkpt lat="45.51540229006031" lon="13.716448430937628"><ele>174.0</ele><time>2026-05-01T13:49:21Z</time></trkpt><trkpt lat="45.515237439028795" lon="13.716450793637193"><ele>174.33333333333334</ele><time>2026-05-01T13:49:22Z</time></trkpt><trkpt lat="45.51507927316745" lon="13.716457180162234"><ele>174.66666666666669</ele><time>2026-05-01T13:49:23Z</time></trkpt><trkpt lat="45.51492735183728" lon="13.716406354439812"><ele>175.0</ele><time>2026-05-01T13:49:24Z</time></trkpt><trkpt lat="45.514776484527935" lon="13.716321909644934"><ele>175.0</ele><time>2026-05-01T13:49:25Z</time></trkpt><trkpt lat="45.51463280372227" lon="13.716205168644192"><ele>175.0</ele><time>2026-05-01T13:49:26Z</time></trkpt><trkpt lat="45.51450087674724" lon="13.716068932479791"><ele>175.0</ele><time>2026-05-01T13:49:27Z</time></trkpt><trkpt lat="45.514405702231635" lon="13.715896925238528"><ele>175.33333333333334</ele><time>2026-05-01T13:49:28Z</time></trkpt><trkpt lat="45.514312989632614" lon="13.715725380531332"><ele>175.66666666666666</ele><time>2026-05-01T13:49:29Z</time></trkpt><trkpt lat="45.51424072584705" lon="13.715523096436801"><ele>176.0</ele><time>2026-05-01T13:49:30Z</time></trkpt><trkpt lat="45.51417263571434" lon="13.71529880022675"><ele>178.66666666666666</ele><time>2026-05-01T13:49:31Z</time></trkpt><trkpt lat="45.514110041085154" lon="13.715050434735028"><ele>181.33333333333334</ele><time>2026-05-01T13:49:32Z</time></trkpt><trkpt lat="45.51404122399209" lon="13.714791217856906"><ele>184.0</ele><time>2026-05-01T13:49:33Z</time></trkpt><trkpt lat="45.51396411158342" lon="13.71452379328534"><ele>184.0</ele><time>2026-05-01T13:49:34Z</time></trkpt><trkpt lat="45.51387471940416" lon="13.714261560703479"><ele>184.0</ele><time>2026-05-01T13:49:35Z</time></trkpt><trkpt lat="45.51376513207358" lon="13.714013745301067"><ele>184.0</ele><time>2026-05-01T13:49:36Z</time></trkpt><trkpt lat="45.51364961047299" lon="13.713787466626385"><ele>184.0</ele><time>2026-05-01T13:49:37Z</time></trkpt><trkpt lat="45.51352421805946" lon="13.713600927721002"><ele>184.0</ele><time>2026-05-01T13:49:38Z</time></trkpt><trkpt lat="45.51342783662937" lon="13.71341594712145"><ele>184.0</ele><time>2026-05-01T13:49:39Z</time></trkpt><trkpt lat="45.51332813179084" lon="13.713263359408659"><ele>187.0</ele><time>2026-05-01T13:49:40Z</time></trkpt><trkpt lat="45.513233299310194" lon="13.71312214912616"><ele>190.0</ele><time>2026-05-01T13:49:41Z</time></trkpt><trkpt lat="45.51314118253507" lon="13.712986016869017"><ele>193.0</ele><time>2026-05-01T13:49:42Z</time></trkpt><trkpt lat="45.51305301318258" lon="13.71283990032479"><ele>196.0</ele><time>2026-05-01T13:49:43Z</time></trkpt><trkpt lat="45.51295397359275" lon="13.712691988281112"><ele>195.8</ele><time>2026-05-01T13:49:44Z</time></trkpt><trkpt lat="45.51287713558511" lon="13.712528024247153"><ele>195.60000000000002</ele><time>2026-05-01T13:49:45Z</time></trkpt><trkpt lat="45.512813790564394" lon="13.712389842202121"><ele>195.4</ele><time>2026-05-01T13:49:46Z</time></trkpt><trkpt lat="45.51276883723413" lon="13.712275980743108"><ele>195.2</ele><time>2026-05-01T13:49:47Z</time></trkpt><trkpt lat="45.51273478184613" lon="13.712172998147718"><ele>195.0</ele><time>2026-05-01T13:49:48Z</time></trkpt><trkpt lat="45.5127088551272" lon="13.712066933582381"><ele>195.0</ele><time>2026-05-01T13:49:49Z</time></trkpt><trkpt lat="45.51267880688509" lon="13.71195396276659"><ele>195.0</ele><time>2026-05-01T13:49:50Z</time></trkpt><trkpt lat="45.5126442320042" lon="13.71182977706146"><ele>195.0</ele><time>2026-05-01T13:49:51Z</time></trkpt><trkpt lat="45.51261118169294" lon="13.71169722941451"><ele>195.0</ele><time>2026-05-01T13:49:52Z</time></trkpt><trkpt lat="45.51257876391387" lon="13.711558622914383"><ele>195.0</ele><time>2026-05-01T13:49:53Z</time></trkpt><trkpt lat="45.51254677006319" lon="13.711417463909472"><ele>196.8</ele><time>2026-05-01T13:49:54Z</time></trkpt><trkpt lat="45.51251409007051" lon="13.711272087901554"><ele>198.6</ele><time>2026-05-01T13:49:55Z</time></trkpt><trkpt lat="45.512475594318936" lon="13.711125564243913"><ele>200.39999999999998</ele><time>2026-05-01T13:49:56Z</time></trkpt><trkpt lat="45.512431433778794" lon="13.71098180664452"><ele>202.2</ele><time>2026-05-01T13:49:57Z</time></trkpt><trkpt lat="45.5123806971829" lon="13.710847567637217"><ele>204.0</ele><time>2026-05-01T13:49:58Z</time></trkpt><trkpt lat="45.512344593599" lon="13.710702214855472"><ele>204.0</ele><time>2026-05-01T13:49:59Z</time></trkpt><trkpt lat="45.512292037202954" lon="13.710568437246346"><ele>204.0</ele><time>2026-05-01T13:50:00Z</time></trkpt><trkpt lat="45.512233612006725" lon="13.710434929897994"><ele>204.0</ele><time>2026-05-01T13:50:01Z</time></trkpt><trkpt lat="45.512159090026735" lon="13.710320773684229"><ele>204.0</ele><time>2026-05-01T13:50:02Z</time></trkpt><trkpt lat="45.51209946358695" lon="13.710196191068484"><ele>204.0</ele><time>2026-05-01T13:50:03Z</time></trkpt><trkpt lat="45.51203296774315" lon="13.710076273825273"><ele>204.0</ele><time>2026-05-01T13:50:04Z</time></trkpt><trkpt lat="45.51196050028607" lon="13.709957734396195"><ele>204.0</ele><time>2026-05-01T13:50:05Z</time></trkpt><trkpt lat="45.51188907072825" lon="13.709837202577097"><ele>204.0</ele><time>2026-05-01T13:50:06Z</time></trkpt><trkpt lat="45.51181887689023" lon="13.709717013715569"><ele>204.0</ele><time>2026-05-01T13:50:07Z</time></trkpt><trkpt lat="45.51175068973905" lon="13.709594811135842"><ele>204.0</ele><time>2026-05-01T13:50:08Z</time></trkpt><trkpt lat="45.51168513360558" lon="13.709468778290807"><ele>206.6</ele><time>2026-05-01T13:50:09Z</time></trkpt><trkpt lat="45.511623942001954" lon="13.709337724357361"><ele>209.2</ele><time>2026-05-01T13:50:10Z</time></trkpt><trkpt lat="45.51156654273757" lon="13.709184139116616"><ele>211.79999999999998</ele><time>2026-05-01T13:50:11Z</time></trkpt><trkpt lat="45.51151666463867" lon="13.709035737623754"><ele>214.39999999999998</ele><time>2026-05-01T13:50:12Z</time></trkpt><trkpt lat="45.51148114358237" lon="13.708922141488285"><ele>217.0</ele><time>2026-05-01T13:50:13Z</time></trkpt><trkpt lat="45.51145329402428" lon="13.708824022228118"><ele>217.0</ele><time>2026-05-01T13:50:14Z</time></trkpt><trkpt lat="45.51142799950602" lon="13.708727157630175"><ele>217.0</ele><time>2026-05-01T13:50:15Z</time></trkpt><trkpt lat="45.51139958542759" lon="13.708615783576368"><ele>217.0</ele><time>2026-05-01T13:50:16Z</time></trkpt><trkpt lat="45.51136243107302" lon="13.708487647884475"><ele>217.0</ele><time>2026-05-01T13:50:17Z</time></trkpt><trkpt lat="45.511319543142335" lon="13.708343011610367"><ele>217.0</ele><time>2026-05-01T13:50:18Z</time></trkpt><trkpt lat="45.51127055835891" lon="13.708191788241118"><ele>216.5</ele><time>2026-05-01T13:50:19Z</time></trkpt><trkpt lat="45.51121010241309" lon="13.708034465120656"><ele>216.0</ele><time>2026-05-01T13:50:20Z</time></trkpt><trkpt lat="45.51113878051049" lon="13.707872716255174"><ele>215.5</ele><time>2026-05-01T13:50:21Z</time></trkpt><trkpt lat="45.51105717540486" lon="13.70771448817226"><ele>215.0</ele><time>2026-05-01T13:50:22Z</time></trkpt><trkpt lat="45.51097626980481" lon="13.707562721982292"><ele>215.0</ele><time>2026-05-01T13:50:23Z</time></trkpt><trkpt lat="45.51089248654539" lon="13.707406349792128"><ele>215.0</ele><time>2026-05-01T13:50:24Z</time></trkpt><trkpt lat="45.51080599586131" lon="13.707240737114514"><ele>215.0</ele><time>2026-05-01T13:50:25Z</time></trkpt><trkpt lat="45.51072105240437" lon="13.70707460322301"><ele>215.0</ele><time>2026-05-01T13:50:26Z</time></trkpt><trkpt lat="45.510636707334584" lon="13.706912610699693"><ele>216.5</ele><time>2026-05-01T13:50:27Z</time></trkpt><trkpt lat="45.51055684563519" lon="13.70675477997152"><ele>218.0</ele><time>2026-05-01T13:50:28Z</time></trkpt><trkpt lat="45.510477546171664" lon="13.706601536011798"><ele>219.5</ele><time>2026-05-01T13:50:29Z</time></trkpt><trkpt lat="45.51039445519292" lon="13.706447993027817"><ele>221.0</ele><time>2026-05-01T13:50:30Z</time></trkpt><trkpt lat="45.51031077585212" lon="13.706294732275769"><ele>219.0</ele><time>2026-05-01T13:50:31Z</time></trkpt><trkpt lat="45.51023393574522" lon="13.706144187172153"><ele>217.0</ele><time>2026-05-01T13:50:32Z</time></trkpt><trkpt lat="45.51016163520971" lon="13.70599664149966"><ele>215.0</ele><time>2026-05-01T13:50:33Z</time></trkpt><trkpt lat="45.510089958478304" lon="13.705853496351564"><ele>213.0</ele><time>2026-05-01T13:50:34Z</time></trkpt><trkpt lat="45.51001693715579" lon="13.705711316662333"><ele>213.0</ele><time>2026-05-01T13:50:35Z</time></trkpt><trkpt lat="45.50994293493715" lon="13.705575216825562"><ele>213.0</ele><time>2026-05-01T13:50:36Z</time></trkpt><trkpt lat="45.50987012873034" lon="13.705445073868129"><ele>213.0</ele><time>2026-05-01T13:50:37Z</time></trkpt><trkpt lat="45.509801029968926" lon="13.70531619675305"><ele>213.0</ele><time>2026-05-01T13:50:38Z</time></trkpt><trkpt lat="45.509733164043936" lon="13.705196441180492"><ele>212.66666666666666</ele><time>2026-05-01T13:50:39Z</time></trkpt><trkpt lat="45.509665396397345" lon="13.705101468568161"><ele>212.33333333333331</ele><time>2026-05-01T13:50:40Z</time></trkpt><trkpt lat="45.50960325506503" lon="13.705032886704387"><ele>212.0</ele><time>2026-05-01T13:50:41Z</time></trkpt><trkpt lat="45.50954894205186" lon="13.704974543035615"><ele>211.66666666666666</ele><time>2026-05-01T13:50:42Z</time></trkpt><trkpt lat="45.509497271003276" lon="13.704917849472654"><ele>211.33333333333331</ele><time>2026-05-01T13:50:43Z</time></trkpt><trkpt lat="45.509402748803424" lon="13.704802263162575"><ele>211.0</ele><time>2026-05-01T13:50:45Z</time></trkpt><trkpt lat="45.509340369957215" lon="13.704760465594868"><ele>210.99999999999997</ele><time>2026-05-01T13:50:46Z</time></trkpt><trkpt lat="45.50927087626995" lon="13.704747362104577"><ele>211.0</ele><time>2026-05-01T13:50:47Z</time></trkpt><trkpt lat="45.509196100032476" lon="13.704730402410814"><ele>211.0</ele><time>2026-05-01T13:50:48Z</time></trkpt><trkpt lat="45.50911148510842" lon="13.70470895321011"><ele>211.0</ele><time>2026-05-01T13:50:49Z</time></trkpt><trkpt lat="45.50902143367203" lon="13.704691766956765"><ele>210.99999999999997</ele><time>2026-05-01T13:50:50Z</time></trkpt><trkpt lat="45.50892470209526" lon="13.704688941180333"><ele>211.0</ele><time>2026-05-01T13:50:51Z</time></trkpt><trkpt lat="45.50882311970543" lon="13.704700076749134"><ele>210.25</ele><time>2026-05-01T13:50:52Z</time></trkpt><trkpt lat="45.50870644363289" lon="13.704730431494552"><ele>209.5</ele><time>2026-05-01T13:50:53Z</time></trkpt><trkpt lat="45.50857121472195" lon="13.704777907973602"><ele>208.75</ele><time>2026-05-01T13:50:54Z</time></trkpt><trkpt lat="45.50843254442352" lon="13.704827518072856"><ele>208.0</ele><time>2026-05-01T13:50:55Z</time></trkpt><trkpt lat="45.50828863193344" lon="13.704879883199487"><ele>208.0</ele><time>2026-05-01T13:50:56Z</time></trkpt><trkpt lat="45.50814762753926" lon="13.704929341176914"><ele>208.0</ele><time>2026-05-01T13:50:57Z</time></trkpt><trkpt lat="45.508007783719194" lon="13.70497962234597"><ele>208.0</ele><time>2026-05-01T13:50:58Z</time></trkpt><trkpt lat="45.50786867434319" lon="13.705025318120464"><ele>208.0</ele><time>2026-05-01T13:50:59Z</time></trkpt><trkpt lat="45.50772713055669" lon="13.705045536403905"><ele>206.66666666666666</ele><time>2026-05-01T13:51:00Z</time></trkpt><trkpt lat="45.50758183739593" lon="13.705036467268787"><ele>205.33333333333331</ele><time>2026-05-01T13:51:01Z</time></trkpt><trkpt lat="45.50742862497575" lon="13.704988820343278"><ele>204.0</ele><time>2026-05-01T13:51:02Z</time></trkpt><trkpt lat="45.50727916262348" lon="13.704919799016524"><ele>204.0</ele><time>2026-05-01T13:51:03Z</time></trkpt><trkpt lat="45.507135892367096" lon="13.704827442111394"><ele>204.0</ele><time>2026-05-01T13:51:04Z</time></trkpt><trkpt lat="45.50700702399527" lon="13.704707497823797"><ele>204.0</ele><time>2026-05-01T13:51:05Z</time></trkpt><trkpt lat="45.50689762197855" lon="13.704548404297737"><ele>203.33333333333331</ele><time>2026-05-01T13:51:06Z</time></trkpt><trkpt lat="45.50679281187455" lon="13.704374453193152"><ele>202.66666666666666</ele><time>2026-05-01T13:51:07Z</time></trkpt><trkpt lat="45.506702050041866" lon="13.704173258155771"><ele>202.0</ele><time>2026-05-01T13:51:08Z</time></trkpt><trkpt lat="45.50662869300333" lon="13.7039447378462"><ele>202.0</ele><time>2026-05-01T13:51:09Z</time></trkpt><trkpt lat="45.50657004097464" lon="13.703706092124921"><ele>202.0</ele><time>2026-05-01T13:51:10Z</time></trkpt><trkpt lat="45.50651917806421" lon="13.703420556139346"><ele>202.0</ele><time>2026-05-01T13:51:11Z</time></trkpt><trkpt lat="45.506467990277315" lon="13.70313834281"><ele>198.66666666666666</ele><time>2026-05-01T13:51:12Z</time></trkpt><trkpt lat="45.506411684856324" lon="13.702845067716591"><ele>195.33333333333331</ele><time>2026-05-01T13:51:13Z</time></trkpt><trkpt lat="45.506354733515145" lon="13.70254775861126"><ele>192.0</ele><time>2026-05-01T13:51:14Z</time></trkpt><trkpt lat="45.5062977632832" lon="13.70224417324427"><ele>194.0</ele><time>2026-05-01T13:51:15Z</time></trkpt><trkpt lat="45.50624503383758" lon="13.701945518710913"><ele>196.0</ele><time>2026-05-01T13:51:16Z</time></trkpt><trkpt lat="45.50619746096243" lon="13.701653607317981"><ele>198.0</ele><time>2026-05-01T13:51:17Z</time></trkpt><trkpt lat="45.50615632902002" lon="13.70136347964412"><ele>196.66666666666669</ele><time>2026-05-01T13:51:18Z</time></trkpt><trkpt lat="45.50612675731122" lon="13.701073478796193"><ele>195.33333333333334</ele><time>2026-05-01T13:51:19Z</time></trkpt><trkpt lat="45.50611620526618" lon="13.700782711044873"><ele>194.0</ele><time>2026-05-01T13:51:20Z</time></trkpt><trkpt lat="45.506113315963844" lon="13.700498638730375"><ele>192.66666666666669</ele><time>2026-05-01T13:51:21Z</time></trkpt><trkpt lat="45.50610349661948" lon="13.700220825312075"><ele>191.33333333333334</ele><time>2026-05-01T13:51:22Z</time></trkpt><trkpt lat="45.506082198957756" lon="13.699948738889123"><ele>190.0</ele><time>2026-05-01T13:51:23Z</time></trkpt><trkpt lat="45.50604984432988" lon="13.699680619344933"><ele>186.33333333333334</ele><time>2026-05-01T13:51:24Z</time></trkpt><trkpt lat="45.50600009260596" lon="13.699410716005664"><ele>182.66666666666666</ele><time>2026-05-01T13:51:25Z</time></trkpt><trkpt lat="45.50593749853234" lon="13.699146945358464"><ele>179.0</ele><time>2026-05-01T13:51:26Z</time></trkpt><trkpt lat="45.50586299209211" lon="13.698889726355223"><ele>179.0</ele><time>2026-05-01T13:51:27Z</time></trkpt><trkpt lat="45.50577105457837" lon="13.698649494507269"><ele>179.0</ele><time>2026-05-01T13:51:28Z</time></trkpt><trkpt lat="45.50566535985468" lon="13.698423487033955"><ele>179.0</ele><time>2026-05-01T13:51:29Z</time></trkpt><trkpt lat="45.505551765911946" lon="13.698209588542133"><ele>174.66666666666666</ele><time>2026-05-01T13:51:30Z</time></trkpt><trkpt lat="45.50543771575358" lon="13.697998065905335"><ele>170.33333333333334</ele><time>2026-05-01T13:51:31Z</time></trkpt><trkpt lat="45.50532510789664" lon="13.697784471779404"><ele>166.0</ele><time>2026-05-01T13:51:32Z</time></trkpt><trkpt lat="45.50521561099491" lon="13.697568739768274"><ele>166.0</ele><time>2026-05-01T13:51:33Z</time></trkpt><trkpt lat="45.505112035785864" lon="13.697345297198911"><ele>166.0</ele><time>2026-05-01T13:51:34Z</time></trkpt><trkpt lat="45.505021531255565" lon="13.697106238338527"><ele>166.0</ele><time>2026-05-01T13:51:35Z</time></trkpt><trkpt lat="45.50493646373754" lon="13.69685342929203"><ele>163.33333333333334</ele><time>2026-05-01T13:51:36Z</time></trkpt><trkpt lat="45.50485091945217" lon="13.696595869719822"><ele>160.66666666666666</ele><time>2026-05-01T13:51:37Z</time></trkpt><trkpt lat="45.50475951245924" lon="13.6963357670493"><ele>158.0</ele><time>2026-05-01T13:51:38Z</time></trkpt><trkpt lat="45.50466517712573" lon="13.696075118136402"><ele>165.0</ele><time>2026-05-01T13:51:39Z</time></trkpt><trkpt lat="45.504573386083905" lon="13.695815724616182"><ele>172.0</ele><time>2026-05-01T13:51:40Z</time></trkpt><trkpt lat="45.504485509727665" lon="13.695562561859639"><ele>179.0</ele><time>2026-05-01T13:51:41Z</time></trkpt><trkpt lat="45.50439836279806" lon="13.695308999410141"><ele>174.0</ele><time>2026-05-01T13:51:42Z</time></trkpt><trkpt lat="45.50431432871364" lon="13.695061626085144"><ele>169.0</ele><time>2026-05-01T13:51:43Z</time></trkpt><trkpt lat="45.50423131751221" lon="13.694814353244077"><ele>164.0</ele><time>2026-05-01T13:51:44Z</time></trkpt><trkpt lat="45.50414913891073" lon="13.694571531862499"><ele>158.0</ele><time>2026-05-01T13:51:45Z</time></trkpt><trkpt lat="45.50407119818901" lon="13.694324957979807"><ele>152.0</ele><time>2026-05-01T13:51:46Z</time></trkpt><trkpt lat="45.50400574345467" lon="13.694073502740482"><ele>146.0</ele><time>2026-05-01T13:51:47Z</time></trkpt><trkpt lat="45.5039561699884" lon="13.693812410810985"><ele>142.66666666666666</ele><time>2026-05-01T13:51:48Z</time></trkpt><trkpt lat="45.50392064177301" lon="13.693545029045115"><ele>139.33333333333334</ele><time>2026-05-01T13:51:49Z</time></trkpt><trkpt lat="45.503898654639315" lon="13.693276763959162"><ele>136.0</ele><time>2026-05-01T13:51:50Z</time></trkpt><trkpt lat="45.50388348435318" lon="13.693005553211561"><ele>133.33333333333334</ele><time>2026-05-01T13:51:51Z</time></trkpt><trkpt lat="45.50386918196047" lon="13.692738092716793"><ele>130.66666666666666</ele><time>2026-05-01T13:51:52Z</time></trkpt><trkpt lat="45.503846995625814" lon="13.692470939208656"><ele>128.0</ele><time>2026-05-01T13:51:53Z</time></trkpt><trkpt lat="45.503810371054" lon="13.69221273481234"><ele>128.0</ele><time>2026-05-01T13:51:54Z</time></trkpt><trkpt lat="45.50375952445568" lon="13.691957877590202"><ele>128.0</ele><time>2026-05-01T13:51:55Z</time></trkpt><trkpt lat="45.50369652186646" lon="13.691710313283018"><ele>128.0</ele><time>2026-05-01T13:51:56Z</time></trkpt><trkpt lat="45.503623136827684" lon="13.691467370222915"><ele>132.66666666666666</ele><time>2026-05-01T13:51:57Z</time></trkpt><trkpt lat="45.50354739283077" lon="13.69123269835678"><ele>137.33333333333334</ele><time>2026-05-01T13:51:58Z</time></trkpt><trkpt lat="45.50347727153347" lon="13.690995982292913"><ele>142.0</ele><time>2026-05-01T13:51:59Z</time></trkpt><trkpt lat="45.50341485411409" lon="13.690758868770503"><ele>142.0</ele><time>2026-05-01T13:52:00Z</time></trkpt><trkpt lat="45.50336394439372" lon="13.690518327372615"><ele>142.0</ele><time>2026-05-01T13:52:01Z</time></trkpt><trkpt lat="45.503323405894236" lon="13.690265829046679"><ele>142.0</ele><time>2026-05-01T13:52:02Z</time></trkpt><trkpt lat="45.50329701347251" lon="13.690007199636495"><ele>138.33333333333334</ele><time>2026-05-01T13:52:03Z</time></trkpt><trkpt lat="45.50328382387218" lon="13.68974463941691"><ele>134.66666666666666</ele><time>2026-05-01T13:52:04Z</time></trkpt><trkpt lat="45.50328213878905" lon="13.689476114593417"><ele>131.0</ele><time>2026-05-01T13:52:05Z</time></trkpt><trkpt lat="45.50328945653049" lon="13.68920791696599"><ele>128.33333333333331</ele><time>2026-05-01T13:52:06Z</time></trkpt><trkpt lat="45.50329323360579" lon="13.688938247882126"><ele>125.66666666666666</ele><time>2026-05-01T13:52:07Z</time></trkpt><trkpt lat="45.503283879683124" lon="13.688668516655028"><ele>123.0</ele><time>2026-05-01T13:52:08Z</time></trkpt><trkpt lat="45.503260557504106" lon="13.688397029319598"><ele>122.66666666666666</ele><time>2026-05-01T13:52:09Z</time></trkpt><trkpt lat="45.50322965322832" lon="13.688125989455036"><ele>122.33333333333333</ele><time>2026-05-01T13:52:10Z</time></trkpt><trkpt lat="45.50319504196497" lon="13.687855743799537"><ele>122.0</ele><time>2026-05-01T13:52:11Z</time></trkpt><trkpt lat="45.503158762959615" lon="13.68758943369822"><ele>118.66666666666666</ele><time>2026-05-01T13:52:12Z</time></trkpt><trkpt lat="45.50312174602812" lon="13.687326056028764"><ele>115.33333333333334</ele><time>2026-05-01T13:52:13Z</time></trkpt><trkpt lat="45.5030883460296" lon="13.687066849345245"><ele>112.0</ele><time>2026-05-01T13:52:14Z</time></trkpt><trkpt lat="45.50305958367484" lon="13.686809519388598"><ele>109.0</ele><time>2026-05-01T13:52:15Z</time></trkpt><trkpt lat="45.503031053928964" lon="13.686551980346387"><ele>106.0</ele><time>2026-05-01T13:52:16Z</time></trkpt><trkpt lat="45.503004444401206" lon="13.686288707542962"><ele>103.0</ele><time>2026-05-01T13:52:17Z</time></trkpt><trkpt lat="45.502979861629214" lon="13.686020114208866"><ele>102.0</ele><time>2026-05-01T13:52:18Z</time></trkpt><trkpt lat="45.50295672248404" lon="13.685746242082628"><ele>101.0</ele><time>2026-05-01T13:52:19Z</time></trkpt><trkpt lat="45.502936709274366" lon="13.68546942403679"><ele>100.0</ele><time>2026-05-01T13:52:20Z</time></trkpt><trkpt lat="45.50291803638095" lon="13.68519098548606"><ele>108.0</ele><time>2026-05-01T13:52:21Z</time></trkpt><trkpt lat="45.502903857436216" lon="13.684922407550848"><ele>116.0</ele><time>2026-05-01T13:52:22Z</time></trkpt><trkpt lat="45.5028861348631" lon="13.684657173419524"><ele>124.0</ele><time>2026-05-01T13:52:23Z</time></trkpt><trkpt lat="45.50286135895993" lon="13.684395373611627"><ele>124.0</ele><time>2026-05-01T13:52:24Z</time></trkpt><trkpt lat="45.50282627482631" lon="13.684128560372685"><ele>124.0</ele><time>2026-05-01T13:52:25Z</time></trkpt><trkpt lat="45.50278169911284" lon="13.683863927033569"><ele>124.0</ele><time>2026-05-01T13:52:26Z</time></trkpt><trkpt lat="45.50272509906815" lon="13.683600419959866"><ele>118.66666666666667</ele><time>2026-05-01T13:52:27Z</time></trkpt><trkpt lat="45.50265923474054" lon="13.683349188804824"><ele>113.33333333333334</ele><time>2026-05-01T13:52:28Z</time></trkpt><trkpt lat="45.502583579764774" lon="13.683109354964653"><ele>108.0</ele><time>2026-05-01T13:52:29Z</time></trkpt><trkpt lat="45.50249426013508" lon="13.682883881957597"><ele>102.66666666666667</ele><time>2026-05-01T13:52:30Z</time></trkpt><trkpt lat="45.50238380742465" lon="13.68268742228293"><ele>97.33333333333334</ele><time>2026-05-01T13:52:31Z</time></trkpt><trkpt lat="45.50225427523881" lon="13.682518811193065"><ele>92.0</ele><time>2026-05-01T13:52:32Z</time></trkpt><trkpt lat="45.50211093822442" lon="13.682370095587196"><ele>96.0</ele><time>2026-05-01T13:52:33Z</time></trkpt><trkpt lat="45.50194994241705" lon="13.682245243221915"><ele>100.0</ele><time>2026-05-01T13:52:34Z</time></trkpt><trkpt lat="45.501775487802476" lon="13.6821456072772"><ele>104.0</ele><time>2026-05-01T13:52:35Z</time></trkpt><trkpt lat="45.50158841197645" lon="13.682064491593138"><ele>104.0</ele><time>2026-05-01T13:52:36Z</time></trkpt><trkpt lat="45.501394527137215" lon="13.681987056878294"><ele>104.0</ele><time>2026-05-01T13:52:37Z</time></trkpt><trkpt lat="45.50120019837962" lon="13.68190162430138"><ele>104.0</ele><time>2026-05-01T13:52:38Z</time></trkpt><trkpt lat="45.50101258636129" lon="13.681806458347264"><ele>99.66666666666666</ele><time>2026-05-01T13:52:39Z</time></trkpt><trkpt lat="45.50083234511806" lon="13.681696995412132"><ele>95.33333333333333</ele><time>2026-05-01T13:52:40Z</time></trkpt><trkpt lat="45.50066455222299" lon="13.681564588341"><ele>91.0</ele><time>2026-05-01T13:52:41Z</time></trkpt><trkpt lat="45.50050628060665" lon="13.68141576448797"><ele>94.0</ele><time>2026-05-01T13:52:42Z</time></trkpt><trkpt lat="45.50035170864206" lon="13.68126567060924"><ele>97.0</ele><time>2026-05-01T13:52:43Z</time></trkpt><trkpt lat="45.50019525508341" lon="13.681133195681355"><ele>100.0</ele><time>2026-05-01T13:52:44Z</time></trkpt><trkpt lat="45.50003496208987" lon="13.681013377139646"><ele>93.66666666666667</ele><time>2026-05-01T13:52:45Z</time></trkpt><trkpt lat="45.499865331903614" lon="13.680914956117375"><ele>87.33333333333334</ele><time>2026-05-01T13:52:46Z</time></trkpt><trkpt lat="45.49968562173445" lon="13.680831147018027"><ele>81.0</ele><time>2026-05-01T13:52:47Z</time></trkpt><trkpt lat="45.49950070067613" lon="13.680743935621571"><ele>81.0</ele><time>2026-05-01T13:52:48Z</time></trkpt><trkpt lat="45.499313219372574" lon="13.68064700688893"><ele>81.0</ele><time>2026-05-01T13:52:49Z</time></trkpt><trkpt lat="45.49911876854223" lon="13.680547540489036"><ele>81.0</ele><time>2026-05-01T13:52:50Z</time></trkpt><trkpt lat="45.49892059758028" lon="13.680447735654571"><ele>81.66666666666667</ele><time>2026-05-01T13:52:51Z</time></trkpt><trkpt lat="45.498721629129996" lon="13.680351878961726"><ele>82.33333333333334</ele><time>2026-05-01T13:52:52Z</time></trkpt><trkpt lat="45.49852342997072" lon="13.680258789291074"><ele>83.0</ele><time>2026-05-01T13:52:53Z</time></trkpt><trkpt lat="45.49833066976152" lon="13.680165482748118"><ele>78.0</ele><time>2026-05-01T13:52:54Z</time></trkpt><trkpt lat="45.4981422458947" lon="13.680068856978318"><ele>73.0</ele><time>2026-05-01T13:52:55Z</time></trkpt><trkpt lat="45.49795536448605" lon="13.679974543443944"><ele>68.0</ele><time>2026-05-01T13:52:56Z</time></trkpt><trkpt lat="45.497770592893716" lon="13.679882433398243"><ele>67.0</ele><time>2026-05-01T13:52:57Z</time></trkpt><trkpt lat="45.497591200809566" lon="13.679780657901734"><ele>66.0</ele><time>2026-05-01T13:52:58Z</time></trkpt><trkpt lat="45.49741897888079" lon="13.679652607669663"><ele>65.0</ele><time>2026-05-01T13:52:59Z</time></trkpt><trkpt lat="45.49725220150293" lon="13.679495784556936"><ele>63.66666666666667</ele><time>2026-05-01T13:53:00Z</time></trkpt><trkpt lat="45.4970974004967" lon="13.679304926638048"><ele>62.33333333333333</ele><time>2026-05-01T13:53:01Z</time></trkpt><trkpt lat="45.49695955093652" lon="13.679087069131558"><ele>61.0</ele><time>2026-05-01T13:53:02Z</time></trkpt><trkpt lat="45.4968371107004" lon="13.678861674697528"><ele>61.0</ele><time>2026-05-01T13:53:03Z</time></trkpt><trkpt lat="45.49672013073285" lon="13.678635280708932"><ele>61.0</ele><time>2026-05-01T13:53:04Z</time></trkpt><trkpt lat="45.49659142727862" lon="13.678427581459164"><ele>61.0</ele><time>2026-05-01T13:53:05Z</time></trkpt><trkpt lat="45.496442000224015" lon="13.678265664790645"><ele>58.666666666666664</ele><time>2026-05-01T13:53:06Z</time></trkpt><trkpt lat="45.49629008761144" lon="13.678154288641657"><ele>56.33333333333333</ele><time>2026-05-01T13:53:07Z</time></trkpt><trkpt lat="45.4961227005174" lon="13.678066310767532"><ele>54.0</ele><time>2026-05-01T13:53:08Z</time></trkpt><trkpt lat="45.49595725938164" lon="13.67799799562536"><ele>54.0</ele><time>2026-05-01T13:53:09Z</time></trkpt><trkpt lat="45.49578648625236" lon="13.67794114513576"><ele>54.0</ele><time>2026-05-01T13:53:10Z</time></trkpt><trkpt lat="45.495608972239005" lon="13.67788299827686"><ele>54.0</ele><time>2026-05-01T13:53:11Z</time></trkpt><trkpt lat="45.49543291613882" lon="13.677797312216377"><ele>52.0</ele><time>2026-05-01T13:53:12Z</time></trkpt><trkpt lat="45.49525458077079" lon="13.677722872889582"><ele>50.0</ele><time>2026-05-01T13:53:13Z</time></trkpt><trkpt lat="45.495082951566154" lon="13.677638638046599"><ele>48.0</ele><time>2026-05-01T13:53:14Z</time></trkpt><trkpt lat="45.49491500250555" lon="13.677544189883744"><ele>48.0</ele><time>2026-05-01T13:53:15Z</time></trkpt><trkpt lat="45.49474884954314" lon="13.677438590848496"><ele>48.0</ele><time>2026-05-01T13:53:16Z</time></trkpt><trkpt lat="45.49458531045889" lon="13.677312572871399"><ele>48.0</ele><time>2026-05-01T13:53:17Z</time></trkpt><trkpt lat="45.49441966759735" lon="13.677173869733245"><ele>48.33333333333333</ele><time>2026-05-01T13:53:18Z</time></trkpt><trkpt lat="45.49425624404323" lon="13.677019738042638"><ele>48.666666666666664</ele><time>2026-05-01T13:53:19Z</time></trkpt><trkpt lat="45.49409005808689" lon="13.67685940080017"><ele>49.0</ele><time>2026-05-01T13:53:20Z</time></trkpt><trkpt lat="45.49392534082765" lon="13.676700935711388"><ele>49.0</ele><time>2026-05-01T13:53:21Z</time></trkpt><trkpt lat="45.49376156187416" lon="13.676554811853586"><ele>49.0</ele><time>2026-05-01T13:53:22Z</time></trkpt><trkpt lat="45.49359020926679" lon="13.676434346474501"><ele>49.0</ele><time>2026-05-01T13:53:23Z</time></trkpt><trkpt lat="45.49341052417036" lon="13.676339327362617"><ele>52.666666666666664</ele><time>2026-05-01T13:53:24Z</time></trkpt><trkpt lat="45.49322585738554" lon="13.676266447031754"><ele>56.33333333333333</ele><time>2026-05-01T13:53:25Z</time></trkpt><trkpt lat="45.493040721996884" lon="13.676224016935663"><ele>60.0</ele><time>2026-05-01T13:53:26Z</time></trkpt><trkpt lat="45.49284775071892" lon="13.676229948987464"><ele>61.66666666666667</ele><time>2026-05-01T13:53:27Z</time></trkpt><trkpt lat="45.49265108396881" lon="13.6762349088038"><ele>63.333333333333336</ele><time>2026-05-01T13:53:28Z</time></trkpt><trkpt lat="45.49245023613997" lon="13.676255919712736"><ele>65.0</ele><time>2026-05-01T13:53:29Z</time></trkpt><trkpt lat="45.49224548943287" lon="13.676288615016885"><ele>62.66666666666667</ele><time>2026-05-01T13:53:30Z</time></trkpt><trkpt lat="45.492036227626954" lon="13.676310491020217"><ele>60.33333333333333</ele><time>2026-05-01T13:53:31Z</time></trkpt><trkpt lat="45.491830859448555" lon="13.67635190572147"><ele>58.0</ele><time>2026-05-01T13:53:32Z</time></trkpt><trkpt lat="45.49162329569365" lon="13.676400263713553"><ele>58.0</ele><time>2026-05-01T13:53:33Z</time></trkpt><trkpt lat="45.49141930619876" lon="13.676478491590277"><ele>58.0</ele><time>2026-05-01T13:53:34Z</time></trkpt><trkpt lat="45.49121254133513" lon="13.67653072049581"><ele>58.0</ele><time>2026-05-01T13:53:35Z</time></trkpt><trkpt lat="45.491006530932786" lon="13.676591168755815"><ele>55.0</ele><time>2026-05-01T13:53:36Z</time></trkpt><trkpt lat="45.49080267331635" lon="13.676654789920931"><ele>52.0</ele><time>2026-05-01T13:53:37Z</time></trkpt><trkpt lat="45.490599649659394" lon="13.676728880612844"><ele>49.0</ele><time>2026-05-01T13:53:38Z</time></trkpt><trkpt lat="45.49039803865188" lon="13.676807457829794"><ele>45.666666666666664</ele><time>2026-05-01T13:53:39Z</time></trkpt><trkpt lat="45.49019411182543" lon="13.676883722742575"><ele>42.33333333333333</ele><time>2026-05-01T13:53:40Z</time></trkpt><trkpt lat="45.489993973967046" lon="13.67696512544412"><ele>39.0</ele><time>2026-05-01T13:53:41Z</time></trkpt><trkpt lat="45.48980180993167" lon="13.67704626766823"><ele>42.33333333333333</ele><time>2026-05-01T13:53:42Z</time></trkpt><trkpt lat="45.48961294161994" lon="13.677123278737426"><ele>45.666666666666664</ele><time>2026-05-01T13:53:43Z</time></trkpt><trkpt lat="45.48941910796605" lon="13.677197233631372"><ele>49.0</ele><time>2026-05-01T13:53:44Z</time></trkpt><trkpt lat="45.48922103680805" lon="13.677277848675773"><ele>49.0</ele><time>2026-05-01T13:53:45Z</time></trkpt><trkpt lat="45.489014342557056" lon="13.677326447534957"><ele>49.0</ele><time>2026-05-01T13:53:46Z</time></trkpt><trkpt lat="45.488804204051796" lon="13.677376488248425"><ele>49.0</ele><time>2026-05-01T13:53:47Z</time></trkpt><trkpt lat="45.48858908863646" lon="13.677429290069115"><ele>48.33333333333333</ele><time>2026-05-01T13:53:48Z</time></trkpt><trkpt lat="45.48836787994634" lon="13.67744083233452"><ele>47.666666666666664</ele><time>2026-05-01T13:53:49Z</time></trkpt><trkpt lat="45.488143303842676" lon="13.67744098683038"><ele>47.0</ele><time>2026-05-01T13:53:50Z</time></trkpt><trkpt lat="45.48791769450698" lon="13.677435219866398"><ele>46.0</ele><time>2026-05-01T13:53:51Z</time></trkpt><trkpt lat="45.4877017277474" lon="13.677433431662163"><ele>45.0</ele><time>2026-05-01T13:53:52Z</time></trkpt><trkpt lat="45.487494750768725" lon="13.677436443150228"><ele>44.0</ele><time>2026-05-01T13:53:53Z</time></trkpt><trkpt lat="45.4872944222562" lon="13.677435171407929"><ele>43.33333333333333</ele><time>2026-05-01T13:53:54Z</time></trkpt><trkpt lat="45.48709366254315" lon="13.677432018496377"><ele>42.666666666666664</ele><time>2026-05-01T13:53:55Z</time></trkpt><trkpt lat="45.48689319550053" lon="13.677408935579576"><ele>42.0</ele><time>2026-05-01T13:53:56Z</time></trkpt><trkpt lat="45.48669747143126" lon="13.67740893557832"><ele>42.0</ele><time>2026-05-01T13:53:57Z</time></trkpt><trkpt lat="45.48650316849498" lon="13.677411115014388"><ele>42.0</ele><time>2026-05-01T13:53:58Z</time></trkpt><trkpt lat="45.48631140911442" lon="13.677414947040997"><ele>42.0</ele><time>2026-05-01T13:53:59Z</time></trkpt><trkpt lat="45.486120455076055" lon="13.677422139155205"><ele>41.0</ele><time>2026-05-01T13:54:00Z</time></trkpt><trkpt lat="45.485931822426934" lon="13.67743685353381"><ele>40.0</ele><time>2026-05-01T13:54:01Z</time></trkpt><trkpt lat="45.485749742966604" lon="13.67745194506181"><ele>39.0</ele><time>2026-05-01T13:54:02Z</time></trkpt><trkpt lat="45.48557328187964" lon="13.677466570915406"><ele>38.0</ele><time>2026-05-01T13:54:03Z</time></trkpt><trkpt lat="45.48540242408383" lon="13.677480873247015"><ele>37.0</ele><time>2026-05-01T13:54:04Z</time></trkpt><trkpt lat="45.48523861143395" lon="13.677495429997405"><ele>36.0</ele><time>2026-05-01T13:54:05Z</time></trkpt><trkpt lat="45.48508904406495" lon="13.677508720851197"><ele>36.0</ele><time>2026-05-01T13:54:06Z</time></trkpt><trkpt lat="45.48494624937026" lon="13.677521409886282"><ele>36.0</ele><time>2026-05-01T13:54:07Z</time></trkpt><trkpt lat="45.484806787689976" lon="13.677535875676051"><ele>36.0</ele><time>2026-05-01T13:54:08Z</time></trkpt><trkpt lat="45.48466552180012" lon="13.67755158117512"><ele>36.0</ele><time>2026-05-01T13:54:09Z</time></trkpt><trkpt lat="45.484520249474556" lon="13.677570219703354"><ele>35.5</ele><time>2026-05-01T13:54:10Z</time></trkpt><trkpt lat="45.48437999501641" lon="13.677590431284825"><ele>35.0</ele><time>2026-05-01T13:54:11Z</time></trkpt><trkpt lat="45.484244682959094" lon="13.677612171961393"><ele>34.5</ele><time>2026-05-01T13:54:12Z</time></trkpt><trkpt lat="45.48411680330946" lon="13.677632718056628"><ele>34.0</ele><time>2026-05-01T13:54:13Z</time></trkpt><trkpt lat="45.4839956437998" lon="13.677652184440541"><ele>34.0</ele><time>2026-05-01T13:54:14Z</time></trkpt><trkpt lat="45.483878317618895" lon="13.677671034938458"><ele>34.0</ele><time>2026-05-01T13:54:15Z</time></trkpt><trkpt lat="45.48377180811464" lon="13.677761087912602"><ele>34.0</ele><time>2026-05-01T13:54:16Z</time></trkpt><trkpt lat="45.48366167921184" lon="13.677789270238012"><ele>34.0</ele><time>2026-05-01T13:54:17Z</time></trkpt><trkpt lat="45.48355064904756" lon="13.67782093436076"><ele>34.75</ele><time>2026-05-01T13:54:18Z</time></trkpt><trkpt lat="45.48343846622386" lon="13.677832028347972"><ele>35.5</ele><time>2026-05-01T13:54:19Z</time></trkpt><trkpt lat="45.48332805997838" lon="13.677821865847235"><ele>36.25</ele><time>2026-05-01T13:54:20Z</time></trkpt><trkpt lat="45.483221728361805" lon="13.677786208698059"><ele>37.0</ele><time>2026-05-01T13:54:21Z</time></trkpt><trkpt lat="45.4831091218552" lon="13.677731186285895"><ele>35.0</ele><time>2026-05-01T13:54:22Z</time></trkpt><trkpt lat="45.48299282086449" lon="13.677650085543789"><ele>33.0</ele><time>2026-05-01T13:54:23Z</time></trkpt><trkpt lat="45.482868083699636" lon="13.677566410648698"><ele>31.0</ele><time>2026-05-01T13:54:24Z</time></trkpt><trkpt lat="45.48273203990608" lon="13.67747353326606"><ele>29.0</ele><time>2026-05-01T13:54:25Z</time></trkpt><trkpt lat="45.48259780937076" lon="13.677386088805111"><ele>29.0</ele><time>2026-05-01T13:54:26Z</time></trkpt><trkpt lat="45.48248175276078" lon="13.67730699423634"><ele>29.0</ele><time>2026-05-01T13:54:27Z</time></trkpt><trkpt lat="45.482371382538844" lon="13.67722522873637"><ele>29.0</ele><time>2026-05-01T13:54:28Z</time></trkpt><trkpt lat="45.48225905764681" lon="13.67714204062089"><ele>29.0</ele><time>2026-05-01T13:54:29Z</time></trkpt><trkpt lat="45.48213850261016" lon="13.677058812999835"><ele>29.5</ele><time>2026-05-01T13:54:30Z</time></trkpt><trkpt lat="45.48200919478053" lon="13.676971857592772"><ele>30.0</ele><time>2026-05-01T13:54:31Z</time></trkpt><trkpt lat="45.481873444553926" lon="13.67687754437543"><ele>30.5</ele><time>2026-05-01T13:54:32Z</time></trkpt><trkpt lat="45.48173615626564" lon="13.676776704820629"><ele>31.0</ele><time>2026-05-01T13:54:33Z</time></trkpt><trkpt lat="45.48160085044797" lon="13.676677221261713"><ele>31.0</ele><time>2026-05-01T13:54:34Z</time></trkpt><trkpt lat="45.48146132471487" lon="13.676574872109308"><ele>31.0</ele><time>2026-05-01T13:54:35Z</time></trkpt><trkpt lat="45.481318031960384" lon="13.676470925236703"><ele>31.0</ele><time>2026-05-01T13:54:36Z</time></trkpt><trkpt lat="45.48117028669614" lon="13.676369358952455"><ele>30.333333333333336</ele><time>2026-05-01T13:54:37Z</time></trkpt><trkpt lat="45.481022124533304" lon="13.676265772771458"><ele>29.666666666666664</ele><time>2026-05-01T13:54:38Z</time></trkpt><trkpt lat="45.48085881572341" lon="13.676174335629566"><ele>29.0</ele><time>2026-05-01T13:54:39Z</time></trkpt><trkpt lat="45.48068773947718" lon="13.67610198058893"><ele>29.0</ele><time>2026-05-01T13:54:40Z</time></trkpt><trkpt lat="45.48051071178681" lon="13.67603894814422"><ele>29.0</ele><time>2026-05-01T13:54:41Z</time></trkpt><trkpt lat="45.480334516427575" lon="13.67597492811655"><ele>29.0</ele><time>2026-05-01T13:54:42Z</time></trkpt><trkpt lat="45.480153256981865" lon="13.675904187983306"><ele>31.0</ele><time>2026-05-01T13:54:43Z</time></trkpt><trkpt lat="45.47997033266833" lon="13.675833843205439"><ele>33.0</ele><time>2026-05-01T13:54:44Z</time></trkpt><trkpt lat="45.47979085385077" lon="13.67576015216665"><ele>35.0</ele><time>2026-05-01T13:54:45Z</time></trkpt><trkpt lat="45.4796165158191" lon="13.675689576256483"><ele>37.33333333333333</ele><time>2026-05-01T13:54:46Z</time></trkpt><trkpt lat="45.479445645386285" lon="13.675627316583368"><ele>39.666666666666664</ele><time>2026-05-01T13:54:47Z</time></trkpt><trkpt lat="45.47927293758034" lon="13.675579722829031"><ele>42.0</ele><time>2026-05-01T13:54:48Z</time></trkpt><trkpt lat="45.4790944001671" lon="13.675553647733866"><ele>42.0</ele><time>2026-05-01T13:54:49Z</time></trkpt><trkpt lat="45.47890937854821" lon="13.675550817456644"><ele>42.0</ele><time>2026-05-01T13:54:50Z</time></trkpt><trkpt lat="45.4787194094528" lon="13.67556274608822"><ele>42.0</ele><time>2026-05-01T13:54:51Z</time></trkpt><trkpt lat="45.47852875611693" lon="13.675580418526193"><ele>40.0</ele><time>2026-05-01T13:54:52Z</time></trkpt><trkpt lat="45.478345780586956" lon="13.675596027490709"><ele>38.0</ele><time>2026-05-01T13:54:53Z</time></trkpt><trkpt lat="45.478169289701974" lon="13.675604532530315"><ele>36.0</ele><time>2026-05-01T13:54:54Z</time></trkpt><trkpt lat="45.47799548696027" lon="13.675602180203441"><ele>36.666666666666664</ele><time>2026-05-01T13:54:55Z</time></trkpt><trkpt lat="45.47782474037322" lon="13.67557944587595"><ele>37.33333333333333</ele><time>2026-05-01T13:54:56Z</time></trkpt><trkpt lat="45.47766712218148" lon="13.675512484139478"><ele>38.0</ele><time>2026-05-01T13:54:57Z</time></trkpt><trkpt lat="45.47751580665" lon="13.675417302915681"><ele>38.0</ele><time>2026-05-01T13:54:58Z</time></trkpt><trkpt lat="45.47736544674781" lon="13.675310545200201"><ele>38.0</ele><time>2026-05-01T13:54:59Z</time></trkpt><trkpt lat="45.47720994351148" lon="13.675204094282424"><ele>38.0</ele><time>2026-05-01T13:55:00Z</time></trkpt><trkpt lat="45.477049663575684" lon="13.675103370267808"><ele>35.666666666666664</ele><time>2026-05-01T13:55:01Z</time></trkpt><trkpt lat="45.47689046980771" lon="13.67500131248952"><ele>33.333333333333336</ele><time>2026-05-01T13:55:02Z</time></trkpt><trkpt lat="45.476731561669375" lon="13.674911670990506"><ele>31.0</ele><time>2026-05-01T13:55:03Z</time></trkpt><trkpt lat="45.476561989633225" lon="13.674845548970184"><ele>31.0</ele><time>2026-05-01T13:55:04Z</time></trkpt><trkpt lat="45.4763815378273" lon="13.674800142201173"><ele>31.0</ele><time>2026-05-01T13:55:05Z</time></trkpt><trkpt lat="45.47619311735466" lon="13.674773617775434"><ele>31.0</ele><time>2026-05-01T13:55:06Z</time></trkpt><trkpt lat="45.47599745877976" lon="13.674754255837266"><ele>31.0</ele><time>2026-05-01T13:55:07Z</time></trkpt><trkpt lat="45.47580460228289" lon="13.674733586884471"><ele>31.0</ele><time>2026-05-01T13:55:08Z</time></trkpt><trkpt lat="45.475621630371045" lon="13.674704871825798"><ele>31.0</ele><time>2026-05-01T13:55:09Z</time></trkpt><trkpt lat="45.475447943927215" lon="13.674647934222847"><ele>31.0</ele><time>2026-05-01T13:55:10Z</time></trkpt><trkpt lat="45.475277160092645" lon="13.674603355748134"><ele>31.0</ele><time>2026-05-01T13:55:11Z</time></trkpt><trkpt lat="45.47511211060903" lon="13.674533274606762"><ele>31.0</ele><time>2026-05-01T13:55:12Z</time></trkpt><trkpt lat="45.47494479418301" lon="13.674446840612799"><ele>30.666666666666668</ele><time>2026-05-01T13:55:13Z</time></trkpt><trkpt lat="45.47477418825284" lon="13.674355695557407"><ele>30.333333333333336</ele><time>2026-05-01T13:55:14Z</time></trkpt><trkpt lat="45.4746054815932" lon="13.6742655651764"><ele>30.0</ele><time>2026-05-01T13:55:15Z</time></trkpt><trkpt lat="45.474439486753006" lon="13.674176883565213"><ele>30.0</ele><time>2026-05-01T13:55:16Z</time></trkpt><trkpt lat="45.474278448579035" lon="13.674090850017498"><ele>30.0</ele><time>2026-05-01T13:55:17Z</time></trkpt><trkpt lat="45.47412285153833" lon="13.674008423038176"><ele>30.0</ele><time>2026-05-01T13:55:18Z</time></trkpt><trkpt lat="45.473970480443285" lon="13.673927986592574"><ele>30.0</ele><time>2026-05-01T13:55:19Z</time></trkpt><trkpt lat="45.473825345831884" lon="13.673848804231026"><ele>30.0</ele><time>2026-05-01T13:55:20Z</time></trkpt><trkpt lat="45.47368329515275" lon="13.673769542333249"><ele>30.0</ele><time>2026-05-01T13:55:21Z</time></trkpt><trkpt lat="45.47354680291607" lon="13.673685135815544"><ele>28.0</ele><time>2026-05-01T13:55:22Z</time></trkpt><trkpt lat="45.473416500109565" lon="13.673584703660193"><ele>26.0</ele><time>2026-05-01T13:55:23Z</time></trkpt><trkpt lat="45.47328415406429" lon="13.673476077566818"><ele>24.0</ele><time>2026-05-01T13:55:24Z</time></trkpt><trkpt lat="45.47314316167805" lon="13.67339786429507"><ele>24.0</ele><time>2026-05-01T13:55:25Z</time></trkpt><trkpt lat="45.47301382733184" lon="13.673293209873204"><ele>24.0</ele><time>2026-05-01T13:55:26Z</time></trkpt><trkpt lat="45.472868624780006" lon="13.673223978496326"><ele>24.0</ele><time>2026-05-01T13:55:27Z</time></trkpt><trkpt lat="45.47272175610616" lon="13.67315408908621"><ele>26.0</ele><time>2026-05-01T13:55:28Z</time></trkpt><trkpt lat="45.47257178655415" lon="13.673085867254088"><ele>28.0</ele><time>2026-05-01T13:55:29Z</time></trkpt><trkpt lat="45.47242910025837" lon="13.67302088764702"><ele>30.0</ele><time>2026-05-01T13:55:30Z</time></trkpt><trkpt lat="45.47229008500227" lon="13.672955238563544"><ele>30.0</ele><time>2026-05-01T13:55:31Z</time></trkpt><trkpt lat="45.47215550984022" lon="13.672888384448848"><ele>30.0</ele><time>2026-05-01T13:55:32Z</time></trkpt><trkpt lat="45.47202822279914" lon="13.672811406388291"><ele>30.0</ele><time>2026-05-01T13:55:33Z</time></trkpt><trkpt lat="45.47190613516117" lon="13.672724544695175"><ele>30.0</ele><time>2026-05-01T13:55:34Z</time></trkpt><trkpt lat="45.4717830467317" lon="13.672641479457873"><ele>27.5</ele><time>2026-05-01T13:55:35Z</time></trkpt><trkpt lat="45.47165577596602" lon="13.672555591798973"><ele>25.0</ele><time>2026-05-01T13:55:36Z</time></trkpt><trkpt lat="45.471524046904925" lon="13.672466695497786"><ele>22.5</ele><time>2026-05-01T13:55:37Z</time></trkpt><trkpt lat="45.4713864643349" lon="13.672373849003312"><ele>20.0</ele><time>2026-05-01T13:55:38Z</time></trkpt><trkpt lat="45.4712421732218" lon="13.6722761287038"><ele>20.0</ele><time>2026-05-01T13:55:39Z</time></trkpt><trkpt lat="45.47109263239903" lon="13.672174431080705"><ele>20.0</ele><time>2026-05-01T13:55:40Z</time></trkpt><trkpt lat="45.47094215586207" lon="13.672069453140729"><ele>20.0</ele><time>2026-05-01T13:55:41Z</time></trkpt><trkpt lat="45.47078975412895" lon="13.671958177335128"><ele>19.666666666666668</ele><time>2026-05-01T13:55:42Z</time></trkpt><trkpt lat="45.47063547746186" lon="13.671840857326378"><ele>19.333333333333332</ele><time>2026-05-01T13:55:43Z</time></trkpt><trkpt lat="45.470480379584565" lon="13.671715861617715"><ele>19.0</ele><time>2026-05-01T13:55:44Z</time></trkpt><trkpt lat="45.47032062298254" lon="13.671604202465788"><ele>24.666666666666664</ele><time>2026-05-01T13:55:45Z</time></trkpt><trkpt lat="45.47017215578027" lon="13.671467277353464"><ele>30.333333333333332</ele><time>2026-05-01T13:55:46Z</time></trkpt><trkpt lat="45.470024415799216" lon="13.671323519726574"><ele>36.0</ele><time>2026-05-01T13:55:47Z</time></trkpt><trkpt lat="45.46987815245651" lon="13.671169898161512"><ele>36.333333333333336</ele><time>2026-05-01T13:55:48Z</time></trkpt><trkpt lat="45.4697321172517" lon="13.671006889451693"><ele>36.66666666666667</ele><time>2026-05-01T13:55:49Z</time></trkpt><trkpt lat="45.469582982161434" lon="13.67083558635275"><ele>37.0</ele><time>2026-05-01T13:55:50Z</time></trkpt><trkpt lat="45.46943533381375" lon="13.670655917747398"><ele>37.0</ele><time>2026-05-01T13:55:51Z</time></trkpt><trkpt lat="45.46929322130368" lon="13.670477540977705"><ele>37.0</ele><time>2026-05-01T13:55:52Z</time></trkpt><trkpt lat="45.469155370868734" lon="13.670306060690582"><ele>37.0</ele><time>2026-05-01T13:55:53Z</time></trkpt><trkpt lat="45.46901997866009" lon="13.67014001217508"><ele>37.66666666666667</ele><time>2026-05-01T13:55:54Z</time></trkpt><trkpt lat="45.46888235320401" lon="13.669972250048893"><ele>38.333333333333336</ele><time>2026-05-01T13:55:55Z</time></trkpt><trkpt lat="45.46874208574952" lon="13.669798996992593"><ele>39.0</ele><time>2026-05-01T13:55:56Z</time></trkpt><trkpt lat="45.468605384036316" lon="13.66962648220037"><ele>39.0</ele><time>2026-05-01T13:55:57Z</time></trkpt><trkpt lat="45.4684701257502" lon="13.669457636307632"><ele>39.0</ele><time>2026-05-01T13:55:58Z</time></trkpt><trkpt lat="45.46833176774982" lon="13.669294719181726"><ele>39.0</ele><time>2026-05-01T13:55:59Z</time></trkpt><trkpt lat="45.468188583326594" lon="13.669145269635917"><ele>35.333333333333336</ele><time>2026-05-01T13:56:00Z</time></trkpt><trkpt lat="45.46803969282684" lon="13.669015142662934"><ele>31.666666666666668</ele><time>2026-05-01T13:56:01Z</time></trkpt><trkpt lat="45.4678859974359" lon="13.66889892829888"><ele>28.0</ele><time>2026-05-01T13:56:02Z</time></trkpt><trkpt lat="45.46773443584699" lon="13.668784330003483"><ele>28.0</ele><time>2026-05-01T13:56:03Z</time></trkpt><trkpt lat="45.46758693118102" lon="13.668660565652345"><ele>28.0</ele><time>2026-05-01T13:56:04Z</time></trkpt><trkpt lat="45.46744702357456" lon="13.668519925671214"><ele>28.0</ele><time>2026-05-01T13:56:05Z</time></trkpt><trkpt lat="45.46733140106915" lon="13.6683387395411"><ele>29.333333333333336</ele><time>2026-05-01T13:56:06Z</time></trkpt><trkpt lat="45.467222814845535" lon="13.668155021115085"><ele>30.666666666666664</ele><time>2026-05-01T13:56:07Z</time></trkpt><trkpt lat="45.46713596864499" lon="13.667954539583029"><ele>32.0</ele><time>2026-05-01T13:56:08Z</time></trkpt><trkpt lat="45.46706904630443" lon="13.667741742945386"><ele>32.0</ele><time>2026-05-01T13:56:09Z</time></trkpt><trkpt lat="45.46701094635603" lon="13.667513353863898"><ele>32.0</ele><time>2026-05-01T13:56:10Z</time></trkpt><trkpt lat="45.466959115647796" lon="13.667273588375949"><ele>32.0</ele><time>2026-05-01T13:56:11Z</time></trkpt><trkpt lat="45.46691132582086" lon="13.667044324222616"><ele>30.0</ele><time>2026-05-01T13:56:12Z</time></trkpt><trkpt lat="45.466851000112335" lon="13.666829270237988"><ele>28.0</ele><time>2026-05-01T13:56:13Z</time></trkpt><trkpt lat="45.46679956918027" lon="13.666618962831537"><ele>26.0</ele><time>2026-05-01T13:56:14Z</time></trkpt><trkpt lat="45.46674271878174" lon="13.666409487780061"><ele>26.0</ele><time>2026-05-01T13:56:15Z</time></trkpt><trkpt lat="45.4666714210504" lon="13.666197562163157"><ele>26.0</ele><time>2026-05-01T13:56:16Z</time></trkpt><trkpt lat="45.46658379962019" lon="13.665988193842315"><ele>26.0</ele><time>2026-05-01T13:56:17Z</time></trkpt><trkpt lat="45.46650073682526" lon="13.66576935599792"><ele>26.333333333333332</ele><time>2026-05-01T13:56:18Z</time></trkpt><trkpt lat="45.4663975264201" lon="13.665560637812774"><ele>26.666666666666664</ele><time>2026-05-01T13:56:19Z</time></trkpt><trkpt lat="45.46627721892252" lon="13.665362484243328"><ele>27.0</ele><time>2026-05-01T13:56:20Z</time></trkpt><trkpt lat="45.4661662038255" lon="13.665151780130165"><ele>27.0</ele><time>2026-05-01T13:56:21Z</time></trkpt><trkpt lat="45.46604989860521" lon="13.664944136514151"><ele>27.0</ele><time>2026-05-01T13:56:22Z</time></trkpt><trkpt lat="45.465937486737765" lon="13.664732515570128"><ele>27.0</ele><time>2026-05-01T13:56:23Z</time></trkpt><trkpt lat="45.46584726822002" lon="13.664503101858326"><ele>24.333333333333332</ele><time>2026-05-01T13:56:24Z</time></trkpt><trkpt lat="45.465753652085695" lon="13.664280167164126"><ele>21.666666666666664</ele><time>2026-05-01T13:56:25Z</time></trkpt><trkpt lat="45.465658599665524" lon="13.66405946630341"><ele>19.0</ele><time>2026-05-01T13:56:26Z</time></trkpt><trkpt lat="45.46558976443805" lon="13.66382649639131"><ele>17.666666666666664</ele><time>2026-05-01T13:56:27Z</time></trkpt><trkpt lat="45.46554726797956" lon="13.663594926988758"><ele>16.333333333333332</ele><time>2026-05-01T13:56:28Z</time></trkpt><trkpt lat="45.46549419555226" lon="13.66337537950343"><ele>15.0</ele><time>2026-05-01T13:56:29Z</time></trkpt><trkpt lat="45.46544446246706" lon="13.663160682294793"><ele>18.25</ele><time>2026-05-01T13:56:30Z</time></trkpt><trkpt lat="45.465396253005515" lon="13.662952562461514"><ele>21.5</ele><time>2026-05-01T13:56:31Z</time></trkpt><trkpt lat="45.465350331876365" lon="13.662754321466076"><ele>24.75</ele><time>2026-05-01T13:56:32Z</time></trkpt><trkpt lat="45.46530719612368" lon="13.662568104826807"><ele>28.0</ele><time>2026-05-01T13:56:33Z</time></trkpt><trkpt lat="45.46525114730381" lon="13.662390115189153"><ele>28.0</ele><time>2026-05-01T13:56:34Z</time></trkpt><trkpt lat="45.46521120353" lon="13.662208558142037"><ele>28.0</ele><time>2026-05-01T13:56:35Z</time></trkpt><trkpt lat="45.4651681289585" lon="13.662029183415255"><ele>28.0</ele><time>2026-05-01T13:56:36Z</time></trkpt><trkpt lat="45.46512468775837" lon="13.661847425363073"><ele>28.0</ele><time>2026-05-01T13:56:37Z</time></trkpt><trkpt lat="45.46508485096332" lon="13.661661234208568"><ele>26.5</ele><time>2026-05-01T13:56:38Z</time></trkpt><trkpt lat="45.46504425987425" lon="13.661474385799917"><ele>25.0</ele><time>2026-05-01T13:56:39Z</time></trkpt><trkpt lat="45.46499956243278" lon="13.66127678724221"><ele>23.5</ele><time>2026-05-01T13:56:40Z</time></trkpt><trkpt lat="45.464945228106025" lon="13.66107852598245"><ele>22.0</ele><time>2026-05-01T13:56:41Z</time></trkpt><trkpt lat="45.464893404457406" lon="13.660885092204348"><ele>22.0</ele><time>2026-05-01T13:56:42Z</time></trkpt><trkpt lat="45.46482825831644" lon="13.660706430229377"><ele>22.0</ele><time>2026-05-01T13:56:43Z</time></trkpt><trkpt lat="45.464753457073435" lon="13.660535369353529"><ele>22.0</ele><time>2026-05-01T13:56:44Z</time></trkpt><trkpt lat="45.464663682909155" lon="13.660371396139796"><ele>22.0</ele><time>2026-05-01T13:56:45Z</time></trkpt><trkpt lat="45.464557600584186" lon="13.660221436395739"><ele>22.0</ele><time>2026-05-01T13:56:46Z</time></trkpt><trkpt lat="45.46444074828503" lon="13.660087059545015"><ele>22.0</ele><time>2026-05-01T13:56:47Z</time></trkpt><trkpt lat="45.464313535781855" lon="13.65997139001028"><ele>22.0</ele><time>2026-05-01T13:56:48Z</time></trkpt><trkpt lat="45.46417877196041" lon="13.659874202271576"><ele>22.0</ele><time>2026-05-01T13:56:49Z</time></trkpt><trkpt lat="45.464035942172536" lon="13.65979462817762"><ele>22.0</ele><time>2026-05-01T13:56:50Z</time></trkpt><trkpt lat="45.46389026438888" lon="13.659722842908073"><ele>22.0</ele><time>2026-05-01T13:56:51Z</time></trkpt><trkpt lat="45.46374180752957" lon="13.659653151968753"><ele>20.333333333333332</ele><time>2026-05-01T13:56:52Z</time></trkpt><trkpt lat="45.46359449314694" lon="13.659587959336664"><ele>18.666666666666668</ele><time>2026-05-01T13:56:53Z</time></trkpt><trkpt lat="45.46344548678398" lon="13.659522722725123"><ele>17.0</ele><time>2026-05-01T13:56:54Z</time></trkpt><trkpt lat="45.46329482186322" lon="13.659450217724032"><ele>17.0</ele><time>2026-05-01T13:56:55Z</time></trkpt><trkpt lat="45.463144876633926" lon="13.659372468752343"><ele>17.0</ele><time>2026-05-01T13:56:56Z</time></trkpt><trkpt lat="45.462991049956074" lon="13.659293539067642"><ele>17.0</ele><time>2026-05-01T13:56:57Z</time></trkpt><trkpt lat="45.46283795482295" lon="13.659212077080927"><ele>21.0</ele><time>2026-05-01T13:56:58Z</time></trkpt><trkpt lat="45.46268931930831" lon="13.65912813750788"><ele>25.0</ele><time>2026-05-01T13:56:59Z</time></trkpt><trkpt lat="45.46254023329765" lon="13.659041458504365"><ele>29.0</ele><time>2026-05-01T13:57:00Z</time></trkpt><trkpt lat="45.462389382212265" lon="13.658949907720434"><ele>29.0</ele><time>2026-05-01T13:57:01Z</time></trkpt><trkpt lat="45.46223922148651" lon="13.658853333957287"><ele>29.0</ele><time>2026-05-01T13:57:02Z</time></trkpt><trkpt lat="45.46208629819795" lon="13.658749255164272"><ele>29.0</ele><time>2026-05-01T13:57:03Z</time></trkpt><trkpt lat="45.46193354613067" lon="13.65863664612427"><ele>26.666666666666664</ele><time>2026-05-01T13:57:04Z</time></trkpt><trkpt lat="45.4617896026322" lon="13.658510964651425"><ele>24.333333333333332</ele><time>2026-05-01T13:57:05Z</time></trkpt><trkpt lat="45.461656105376576" lon="13.658371489234742"><ele>22.0</ele><time>2026-05-01T13:57:06Z</time></trkpt><trkpt lat="45.461532181991196" lon="13.658219036140851"><ele>22.0</ele><time>2026-05-01T13:57:07Z</time></trkpt><trkpt lat="45.46142172414175" lon="13.658052255184204"><ele>22.0</ele><time>2026-05-01T13:57:08Z</time></trkpt><trkpt lat="45.46132637813326" lon="13.657877416737554"><ele>22.0</ele><time>2026-05-01T13:57:09Z</time></trkpt><trkpt lat="45.46125233783983" lon="13.657688203452564"><ele>20.0</ele><time>2026-05-01T13:57:10Z</time></trkpt><trkpt lat="45.46115163210079" lon="13.657533441048898"><ele>18.0</ele><time>2026-05-01T13:57:11Z</time></trkpt><trkpt lat="45.46104709385474" lon="13.657390758028017"><ele>16.0</ele><time>2026-05-01T13:57:12Z</time></trkpt><trkpt lat="45.46092349430353" lon="13.657264401795555"><ele>14.0</ele><time>2026-05-01T13:57:13Z</time></trkpt><trkpt lat="45.46079176249205" lon="13.657135921330163"><ele>14.0</ele><time>2026-05-01T13:57:14Z</time></trkpt><trkpt lat="45.460631857917" lon="13.657083395819155"><ele>14.0</ele><time>2026-05-01T13:57:15Z</time></trkpt><trkpt lat="45.46047924839428" lon="13.657034964314319"><ele>14.0</ele><time>2026-05-01T13:57:16Z</time></trkpt><trkpt lat="45.460328388437205" lon="13.65701404779643"><ele>14.333333333333334</ele><time>2026-05-01T13:57:17Z</time></trkpt><trkpt lat="45.46017502696547" lon="13.657028761184867"><ele>14.666666666666668</ele><time>2026-05-01T13:57:18Z</time></trkpt><trkpt lat="45.46001200203518" lon="13.657054848641016"><ele>15.0</ele><time>2026-05-01T13:57:19Z</time></trkpt><trkpt lat="45.459841513783275" lon="13.657087340805637"><ele>15.0</ele><time>2026-05-01T13:57:20Z</time></trkpt><trkpt lat="45.459665097689566" lon="13.657129341416958"><ele>15.0</ele><time>2026-05-01T13:57:21Z</time></trkpt><trkpt lat="45.45948519409557" lon="13.65718418018915"><ele>15.0</ele><time>2026-05-01T13:57:22Z</time></trkpt><trkpt lat="45.45930280020401" lon="13.657258484814518"><ele>14.0</ele><time>2026-05-01T13:57:23Z</time></trkpt><trkpt lat="45.45912070193357" lon="13.657347746962897"><ele>13.0</ele><time>2026-05-01T13:57:24Z</time></trkpt><trkpt lat="45.458939442427" lon="13.657449392468079"><ele>12.0</ele><time>2026-05-01T13:57:25Z</time></trkpt><trkpt lat="45.458763464216524" lon="13.65755824528178"><ele>11.333333333333334</ele><time>2026-05-01T13:57:26Z</time></trkpt><trkpt lat="45.45858402343696" lon="13.65767543183082"><ele>10.666666666666668</ele><time>2026-05-01T13:57:27Z</time></trkpt><trkpt lat="45.458397393098586" lon="13.6578050649129"><ele>10.0</ele><time>2026-05-01T13:57:28Z</time></trkpt><trkpt lat="45.458194660848676" lon="13.657917250487639"><ele>9.666666666666668</ele><time>2026-05-01T13:57:29Z</time></trkpt><trkpt lat="45.45799080219821" lon="13.658027332717268"><ele>9.333333333333334</ele><time>2026-05-01T13:57:30Z</time></trkpt><trkpt lat="45.457795295485305" lon="13.658120146454005"><ele>9.0</ele><time>2026-05-01T13:57:31Z</time></trkpt><trkpt lat="45.45759799997453" lon="13.658190685040449"><ele>9.0</ele><time>2026-05-01T13:57:32Z</time></trkpt><trkpt lat="45.45739063350142" lon="13.658225487717614"><ele>9.0</ele><time>2026-05-01T13:57:33Z</time></trkpt><trkpt lat="45.45718193707487" lon="13.658245050617712"><ele>9.0</ele><time>2026-05-01T13:57:34Z</time></trkpt><trkpt lat="45.456981277928236" lon="13.65822842448817"><ele>9.333333333333334</ele><time>2026-05-01T13:57:35Z</time></trkpt><trkpt lat="45.456786652766176" lon="13.658205140051948"><ele>9.666666666666668</ele><time>2026-05-01T13:57:36Z</time></trkpt><trkpt lat="45.45660343540332" lon="13.658169313339462"><ele>10.0</ele><time>2026-05-01T13:57:37Z</time></trkpt><trkpt lat="45.45643342531436" lon="13.658097003728638"><ele>10.5</ele><time>2026-05-01T13:57:38Z</time></trkpt><trkpt lat="45.45627935137944" lon="13.658023396951956"><ele>11.0</ele><time>2026-05-01T13:57:39Z</time></trkpt><trkpt lat="45.45614233580309" lon="13.657966985636305"><ele>11.5</ele><time>2026-05-01T13:57:40Z</time></trkpt><trkpt lat="45.45603084215755" lon="13.65787727838897"><ele>12.0</ele><time>2026-05-01T13:57:41Z</time></trkpt><trkpt lat="45.45593767566116" lon="13.657789508272035"><ele>11.8</ele><time>2026-05-01T13:57:42Z</time></trkpt><trkpt lat="45.45585802586552" lon="13.657708195519087"><ele>11.6</ele><time>2026-05-01T13:57:43Z</time></trkpt><trkpt lat="45.45578705347619" lon="13.657639091954819"><ele>11.4</ele><time>2026-05-01T13:57:44Z</time></trkpt><trkpt lat="45.45572732062653" lon="13.657578629101016"><ele>11.200000000000001</ele><time>2026-05-01T13:57:45Z</time></trkpt><trkpt lat="45.45563495768335" lon="13.657487584613"><ele>11.0</ele><time>2026-05-01T13:57:47Z</time></trkpt><trkpt lat="45.45555720980935" lon="13.65741684731475"><ele>11.0</ele><time>2026-05-01T13:57:49Z</time></trkpt><trkpt lat="45.45549777182244" lon="13.657350249800418"><ele>11.0</ele><time>2026-05-01T13:57:51Z</time></trkpt><trkpt lat="45.45543531282139" lon="13.657288834974361"><ele>11.0</ele><time>2026-05-01T13:57:53Z</time></trkpt><trkpt lat="45.45537234737221" lon="13.657234387907641"><ele>11.0</ele><time>2026-05-01T13:57:55Z</time></trkpt><trkpt lat="45.45531377069729" lon="13.6571691295387"><ele>11.0</ele><time>2026-05-01T13:57:57Z</time></trkpt><trkpt lat="45.455249775845914" lon="13.657115487148005"><ele>11.0</ele><time>2026-05-01T13:57:59Z</time></trkpt><trkpt lat="45.45519033809564" lon="13.657061225448818"><ele>11.0</ele><time>2026-05-01T13:58:01Z</time></trkpt><trkpt lat="45.45512308599901" lon="13.656985937576822"><ele>11.0</ele><time>2026-05-01T13:58:03Z</time></trkpt><trkpt lat="45.455029201638546" lon="13.656898368989244"><ele>11.0</ele><time>2026-05-01T13:58:05Z</time></trkpt><trkpt lat="45.454941900994676" lon="13.656810970578933"><ele>11.0</ele><time>2026-05-01T13:58:07Z</time></trkpt><trkpt lat="45.454845512909884" lon="13.656718934369929"><ele>11.0</ele><time>2026-05-01T13:58:09Z</time></trkpt><trkpt lat="45.4547884914574" lon="13.656663925925537"><ele>11.0</ele><time>2026-05-01T13:58:10Z</time></trkpt><trkpt lat="45.45472539168127" lon="13.656602861582222"><ele>11.0</ele><time>2026-05-01T13:58:11Z</time></trkpt><trkpt lat="45.45465052725336" lon="13.656538507206715"><ele>11.0</ele><time>2026-05-01T13:58:12Z</time></trkpt><trkpt lat="45.45457271177148" lon="13.656468655375512"><ele>11.0</ele><time>2026-05-01T13:58:13Z</time></trkpt><trkpt lat="45.45449658055748" lon="13.656399492134694"><ele>11.0</ele><time>2026-05-01T13:58:14Z</time></trkpt><trkpt lat="45.45441965928032" lon="13.656330964394511"><ele>11.0</ele><time>2026-05-01T13:58:15Z</time></trkpt><trkpt lat="45.4543366958134" lon="13.656257104058355"><ele>11.0</ele><time>2026-05-01T13:58:16Z</time></trkpt><trkpt lat="45.45424784569265" lon="13.656169343732316"><ele>11.0</ele><time>2026-05-01T13:58:17Z</time></trkpt><trkpt lat="45.45415168990693" lon="13.656072556011743"><ele>11.0</ele><time>2026-05-01T13:58:18Z</time></trkpt><trkpt lat="45.45404860762453" lon="13.655972618526945"><ele>11.0</ele><time>2026-05-01T13:58:19Z</time></trkpt><trkpt lat="45.45393912029695" lon="13.655866646158167"><ele>11.0</ele><time>2026-05-01T13:58:20Z</time></trkpt><trkpt lat="45.453825226801456" lon="13.65575630354503"><ele>11.0</ele><time>2026-05-01T13:58:21Z</time></trkpt><trkpt lat="45.4537098538111" lon="13.655645863145606"><ele>11.0</ele><time>2026-05-01T13:58:22Z</time></trkpt><trkpt lat="45.45358781229692" lon="13.655528209832752"><ele>11.0</ele><time>2026-05-01T13:58:23Z</time></trkpt><trkpt lat="45.453468056198574" lon="13.65540150478962"><ele>11.333333333333332</ele><time>2026-05-01T13:58:24Z</time></trkpt><trkpt lat="45.45334355507657" lon="13.655279934010663"><ele>11.666666666666666</ele><time>2026-05-01T13:58:25Z</time></trkpt><trkpt lat="45.45321725305832" lon="13.655157085708392"><ele>12.0</ele><time>2026-05-01T13:58:26Z</time></trkpt><trkpt lat="45.45309276985807" lon="13.655034179759777"><ele>12.0</ele><time>2026-05-01T13:58:27Z</time></trkpt><trkpt lat="45.452969369101226" lon="13.654920274446425"><ele>12.0</ele><time>2026-05-01T13:58:28Z</time></trkpt><trkpt lat="45.4528594858184" lon="13.654793182944248"><ele>12.0</ele><time>2026-05-01T13:58:29Z</time></trkpt><trkpt lat="45.45274749896873" lon="13.654684133058671"><ele>12.0</ele><time>2026-05-01T13:58:30Z</time></trkpt><trkpt lat="45.45264478408333" lon="13.654594134361849"><ele>12.6</ele><time>2026-05-01T13:58:31Z</time></trkpt><trkpt lat="45.45258079348696" lon="13.654472901453582"><ele>13.2</ele><time>2026-05-01T13:58:32Z</time></trkpt><trkpt lat="45.45254037650688" lon="13.654353224092786"><ele>13.8</ele><time>2026-05-01T13:58:33Z</time></trkpt><trkpt lat="45.45252355025863" lon="13.654232338174154"><ele>14.4</ele><time>2026-05-01T13:58:34Z</time></trkpt><trkpt lat="45.45254368323714" lon="13.654115229206155"><ele>15.0</ele><time>2026-05-01T13:58:35Z</time></trkpt><trkpt lat="45.452587213548675" lon="13.653997280266173"><ele>15.5</ele><time>2026-05-01T13:58:36Z</time></trkpt><trkpt lat="45.452635765758146" lon="13.653866864050427"><ele>16.0</ele><time>2026-05-01T13:58:37Z</time></trkpt><trkpt lat="45.452689273892226" lon="13.653722489839097"><ele>16.5</ele><time>2026-05-01T13:58:38Z</time></trkpt><trkpt lat="45.45274623256527" lon="13.653560820966561"><ele>17.0</ele><time>2026-05-01T13:58:39Z</time></trkpt><trkpt lat="45.45281040427805" lon="13.653388109533314"><ele>15.333333333333334</ele><time>2026-05-01T13:58:40Z</time></trkpt><trkpt lat="45.452878299459385" lon="13.65320611709301"><ele>13.666666666666668</ele><time>2026-05-01T13:58:41Z</time></trkpt><trkpt lat="45.45294925926392" lon="13.653013475725219"><ele>12.0</ele><time>2026-05-01T13:58:42Z</time></trkpt><trkpt lat="45.45302501006054" lon="13.652806179962637"><ele>14.666666666666668</ele><time>2026-05-01T13:58:43Z</time></trkpt><trkpt lat="45.45310510340134" lon="13.652587735334398"><ele>17.333333333333336</ele><time>2026-05-01T13:58:44Z</time></trkpt><trkpt lat="45.45318762721308" lon="13.652356399484404"><ele>20.0</ele><time>2026-05-01T13:58:45Z</time></trkpt><trkpt lat="45.45326935620553" lon="13.652120609669552"><ele>23.0</ele><time>2026-05-01T13:58:46Z</time></trkpt><trkpt lat="45.45334905147045" lon="13.651896330555266"><ele>26.0</ele><time>2026-05-01T13:58:47Z</time></trkpt><trkpt lat="45.45342756921892" lon="13.651661862381598"><ele>29.0</ele><time>2026-05-01T13:58:48Z</time></trkpt><trkpt lat="45.4534921885058" lon="13.651435008503167"><ele>29.0</ele><time>2026-05-01T13:58:49Z</time></trkpt><trkpt lat="45.45354470293726" lon="13.651237083932651"><ele>29.0</ele><time>2026-05-01T13:58:50Z</time></trkpt><trkpt lat="45.453590757085756" lon="13.651050508541562"><ele>29.0</ele><time>2026-05-01T13:58:51Z</time></trkpt><trkpt lat="45.45362035811503" lon="13.650871959739911"><ele>29.0</ele><time>2026-05-01T13:58:52Z</time></trkpt><trkpt lat="45.453634680312575" lon="13.650692444871511"><ele>30.75</ele><time>2026-05-01T13:58:53Z</time></trkpt><trkpt lat="45.45363643058917" lon="13.650507953468656"><ele>32.5</ele><time>2026-05-01T13:58:54Z</time></trkpt><trkpt lat="45.45363130076544" lon="13.650324513862405"><ele>34.25</ele><time>2026-05-01T13:58:55Z</time></trkpt><trkpt lat="45.45361755911158" lon="13.650149853381683"><ele>36.0</ele><time>2026-05-01T13:58:56Z</time></trkpt><trkpt lat="45.45359980206705" lon="13.649979113582898"><ele>36.0</ele><time>2026-05-01T13:58:57Z</time></trkpt><trkpt lat="45.45356675508632" lon="13.649825914132393"><ele>36.0</ele><time>2026-05-01T13:58:58Z</time></trkpt><trkpt lat="45.453518434880074" lon="13.64965675890355"><ele>36.0</ele><time>2026-05-01T13:58:59Z</time></trkpt><trkpt lat="45.45344844002194" lon="13.64951048034501"><ele>36.0</ele><time>2026-05-01T13:59:00Z</time></trkpt><trkpt lat="45.45336740458717" lon="13.649388551057315"><ele>37.0</ele><time>2026-05-01T13:59:01Z</time></trkpt><trkpt lat="45.453291758515554" lon="13.649307226954807"><ele>38.0</ele><time>2026-05-01T13:59:02Z</time></trkpt><trkpt lat="45.45323676610582" lon="13.649254832349472"><ele>39.0</ele><time>2026-05-01T13:59:03Z</time></trkpt><trkpt lat="45.45315034476089" lon="13.649174343520786"><ele>40.0</ele><time>2026-05-01T13:59:05Z</time></trkpt><trkpt lat="45.45306271213465" lon="13.649136827051917"><ele>41.0</ele><time>2026-05-01T13:59:07Z</time></trkpt><trkpt lat="45.45294353596463" lon="13.649090204851035"><ele>41.0</ele><time>2026-05-01T13:59:09Z</time></trkpt><trkpt lat="45.452876918624455" lon="13.649063788434106"><ele>41.0</ele><time>2026-05-01T13:59:10Z</time></trkpt><trkpt lat="45.45280537668441" lon="13.649040174569581"><ele>41.0</ele><time>2026-05-01T13:59:11Z</time></trkpt><trkpt lat="45.45272660154489" lon="13.64902273182955"><ele>41.0</ele><time>2026-05-01T13:59:12Z</time></trkpt><trkpt lat="45.45264168178813" lon="13.64901923541297"><ele>41.0</ele><time>2026-05-01T13:59:13Z</time></trkpt><trkpt lat="45.45255443968228" lon="13.649019063416933"><ele>41.0</ele><time>2026-05-01T13:59:14Z</time></trkpt><trkpt lat="45.45246412115707" lon="13.649024067422559"><ele>41.0</ele><time>2026-05-01T13:59:15Z</time></trkpt><trkpt lat="45.45237409400032" lon="13.649040200455312"><ele>41.0</ele><time>2026-05-01T13:59:16Z</time></trkpt><trkpt lat="45.45229704909882" lon="13.64907047266685"><ele>41.0</ele><time>2026-05-01T13:59:17Z</time></trkpt><trkpt lat="45.45223038099042" lon="13.649115277745246"><ele>41.0</ele><time>2026-05-01T13:59:18Z</time></trkpt><trkpt lat="45.45216685645103" lon="13.649171534005406"><ele>41.0</ele><time>2026-05-01T13:59:19Z</time></trkpt><trkpt lat="45.45210918948982" lon="13.649237245763596"><ele>41.0</ele><time>2026-05-01T13:59:20Z</time></trkpt><trkpt lat="45.452057114870094" lon="13.649308775679012"><ele>43.166666666666664</ele><time>2026-05-01T13:59:21Z</time></trkpt><trkpt lat="45.452011035359924" lon="13.649381477919421"><ele>45.33333333333333</ele><time>2026-05-01T13:59:22Z</time></trkpt><trkpt lat="45.45196592613754" lon="13.64945097768259"><ele>47.5</ele><time>2026-05-01T13:59:23Z</time></trkpt><trkpt lat="45.45191017772399" lon="13.649499524934129"><ele>49.666666666666664</ele><time>2026-05-01T13:59:24Z</time></trkpt><trkpt lat="45.451796596693896" lon="13.649509548998633"><ele>51.833333333333336</ele><time>2026-05-01T13:59:26Z</time></trkpt><trkpt lat="45.451717595798044" lon="13.649395540789545"><ele>54.0</ele><time>2026-05-01T13:59:28Z</time></trkpt><trkpt lat="45.4517037030931" lon="13.649306289276561"><ele>54.0</ele><time>2026-05-01T13:59:29Z</time></trkpt><trkpt lat="45.45171298581064" lon="13.649208640702206"><ele>54.00000000000001</ele><time>2026-05-01T13:59:30Z</time></trkpt><trkpt lat="45.451754929483165" lon="13.649100945843223"><ele>54.00000000000001</ele><time>2026-05-01T13:59:31Z</time></trkpt><trkpt lat="45.451811432302314" lon="13.648978723000448"><ele>54.0</ele><time>2026-05-01T13:59:32Z</time></trkpt><trkpt lat="45.45187060145555" lon="13.64885959840051"><ele>54.0</ele><time>2026-05-01T13:59:33Z</time></trkpt><trkpt lat="45.45193332669071" lon="13.648716668160171"><ele>57.66666666666667</ele><time>2026-05-01T13:59:34Z</time></trkpt><trkpt lat="45.45199412580635" lon="13.648544635552406"><ele>61.333333333333336</ele><time>2026-05-01T13:59:35Z</time></trkpt><trkpt lat="45.452062122715255" lon="13.648349073927777"><ele>65.0</ele><time>2026-05-01T13:59:36Z</time></trkpt><trkpt lat="45.45213506124684" lon="13.648137141835294"><ele>61.0</ele><time>2026-05-01T13:59:37Z</time></trkpt><trkpt lat="45.45221346285031" lon="13.647919753468186"><ele>57.0</ele><time>2026-05-01T13:59:38Z</time></trkpt><trkpt lat="45.45230015492073" lon="13.647716573769555"><ele>53.0</ele><time>2026-05-01T13:59:39Z</time></trkpt><trkpt lat="45.4524027780857" lon="13.647508977226936"><ele>53.0</ele><time>2026-05-01T13:59:40Z</time></trkpt><trkpt lat="45.45252680119605" lon="13.647309095994546"><ele>53.0</ele><time>2026-05-01T13:59:41Z</time></trkpt><trkpt lat="45.45266375810029" lon="13.647112029320475"><ele>53.0</ele><time>2026-05-01T13:59:42Z</time></trkpt><trkpt lat="45.45280837460327" lon="13.646920611595375"><ele>52.333333333333336</ele><time>2026-05-01T13:59:43Z</time></trkpt><trkpt lat="45.45295128736619" lon="13.646739577018185"><ele>51.66666666666667</ele><time>2026-05-01T13:59:44Z</time></trkpt><trkpt lat="45.45310431678503" lon="13.646561759276338"><ele>51.0</ele><time>2026-05-01T13:59:45Z</time></trkpt><trkpt lat="45.453259818424776" lon="13.646406645379436"><ele>51.0</ele><time>2026-05-01T13:59:46Z</time></trkpt><trkpt lat="45.45340826449181" lon="13.646278567136983"><ele>51.0</ele><time>2026-05-01T13:59:47Z</time></trkpt><trkpt lat="45.453543601062" lon="13.646155655829407"><ele>51.0</ele><time>2026-05-01T13:59:48Z</time></trkpt><trkpt lat="45.45364992603669" lon="13.646030797274278"><ele>51.25</ele><time>2026-05-01T13:59:49Z</time></trkpt><trkpt lat="45.453738758137405" lon="13.645894959168022"><ele>51.5</ele><time>2026-05-01T13:59:50Z</time></trkpt><trkpt lat="45.453815605045605" lon="13.645760035442347"><ele>51.75</ele><time>2026-05-01T13:59:51Z</time></trkpt><trkpt lat="45.453881051200206" lon="13.6456188586902"><ele>52.0</ele><time>2026-05-01T13:59:52Z</time></trkpt><trkpt lat="45.453936569569485" lon="13.645457191289136"><ele>53.75</ele><time>2026-05-01T13:59:53Z</time></trkpt><trkpt lat="45.45398692845854" lon="13.645281187293547"><ele>55.5</ele><time>2026-05-01T13:59:54Z</time></trkpt><trkpt lat="45.45403988338842" lon="13.645096381869159"><ele>57.25</ele><time>2026-05-01T13:59:55Z</time></trkpt><trkpt lat="45.4540938383331" lon="13.644906669485552"><ele>59.0</ele><time>2026-05-01T13:59:56Z</time></trkpt><trkpt lat="45.454143473507955" lon="13.644705492316444"><ele>59.0</ele><time>2026-05-01T13:59:57Z</time></trkpt><trkpt lat="45.45418310123266" lon="13.644495124321612"><ele>59.0</ele><time>2026-05-01T13:59:58Z</time></trkpt><trkpt lat="45.45421011866674" lon="13.644268887804104"><ele>59.0</ele><time>2026-05-01T13:59:59Z</time></trkpt><trkpt lat="45.45422970706509" lon="13.644022580054521"><ele>61.66666666666667</ele><time>2026-05-01T14:00:00Z</time></trkpt><trkpt lat="45.45425357278704" lon="13.643762161117396"><ele>64.33333333333333</ele><time>2026-05-01T14:00:01Z</time></trkpt><trkpt lat="45.45428030917357" lon="13.643482435960806"><ele>67.0</ele><time>2026-05-01T14:00:02Z</time></trkpt><trkpt lat="45.454312226041566" lon="13.643193458996542"><ele>70.0</ele><time>2026-05-01T14:00:03Z</time></trkpt><trkpt lat="45.45434464914478" lon="13.642919129212768"><ele>73.0</ele><time>2026-05-01T14:00:04Z</time></trkpt><trkpt lat="45.454377627829075" lon="13.64263189974515"><ele>76.0</ele><time>2026-05-01T14:00:05Z</time></trkpt><trkpt lat="45.45440305704754" lon="13.642341981406052"><ele>78.0</ele><time>2026-05-01T14:00:06Z</time></trkpt><trkpt lat="45.454414502341415" lon="13.642056438106573"><ele>80.0</ele><time>2026-05-01T14:00:07Z</time></trkpt><trkpt lat="45.454408456237786" lon="13.64177566448738"><ele>82.0</ele><time>2026-05-01T14:00:08Z</time></trkpt><trkpt lat="45.45438976994521" lon="13.641495913878734"><ele>82.33333333333333</ele><time>2026-05-01T14:00:09Z</time></trkpt><trkpt lat="45.454364221104655" lon="13.64121337089687"><ele>82.66666666666667</ele><time>2026-05-01T14:00:10Z</time></trkpt><trkpt lat="45.45434301706859" lon="13.64092917997296"><ele>83.0</ele><time>2026-05-01T14:00:11Z</time></trkpt><trkpt lat="45.45433640968668" lon="13.640643875740183"><ele>83.0</ele><time>2026-05-01T14:00:12Z</time></trkpt><trkpt lat="45.45434635665917" lon="13.640355850543479"><ele>83.0</ele><time>2026-05-01T14:00:13Z</time></trkpt><trkpt lat="45.454376091800675" lon="13.640076766152033"><ele>83.0</ele><time>2026-05-01T14:00:14Z</time></trkpt><trkpt lat="45.45443045508626" lon="13.639812470506454"><ele>83.33333333333334</ele><time>2026-05-01T14:00:15Z</time></trkpt><trkpt lat="45.45450729094591" lon="13.639549029159054"><ele>83.66666666666667</ele><time>2026-05-01T14:00:16Z</time></trkpt><trkpt lat="45.45460374431579" lon="13.639286735399086"><ele>84.0</ele><time>2026-05-01T14:00:17Z</time></trkpt><trkpt lat="45.454720266385436" lon="13.639028902308445"><ele>84.0</ele><time>2026-05-01T14:00:18Z</time></trkpt><trkpt lat="45.45484357608522" lon="13.638778381073553"><ele>84.0</ele><time>2026-05-01T14:00:19Z</time></trkpt><trkpt lat="45.45496233861001" lon="13.638544004238135"><ele>84.0</ele><time>2026-05-01T14:00:20Z</time></trkpt><trkpt lat="45.45507180863823" lon="13.63832415202613"><ele>85.33333333333333</ele><time>2026-05-01T14:00:21Z</time></trkpt><trkpt lat="45.4551732329431" lon="13.638117738212065"><ele>86.66666666666666</ele><time>2026-05-01T14:00:22Z</time></trkpt><trkpt lat="45.455258889761716" lon="13.637941019388531"><ele>88.0</ele><time>2026-05-01T14:00:23Z</time></trkpt><trkpt lat="45.455313714758795" lon="13.637772175911493"><ele>89.4</ele><time>2026-05-01T14:00:24Z</time></trkpt><trkpt lat="45.45533750819011" lon="13.637595494363739"><ele>90.80000000000001</ele><time>2026-05-01T14:00:25Z</time></trkpt><trkpt lat="45.45532997833346" lon="13.637442811079014"><ele>92.2</ele><time>2026-05-01T14:00:26Z</time></trkpt><trkpt lat="45.45528258767993" lon="13.637329027015317"><ele>93.6</ele><time>2026-05-01T14:00:27Z</time></trkpt><trkpt lat="45.45527892275322" lon="13.637220860968752"><ele>95.0</ele><time>2026-05-01T14:00:28Z</time></trkpt><trkpt lat="45.45524828824005" lon="13.637126723471177"><ele>95.0</ele><time>2026-05-01T14:00:29Z</time></trkpt><trkpt lat="45.45522757526658" lon="13.637026307401946"><ele>95.0</ele><time>2026-05-01T14:00:30Z</time></trkpt><trkpt lat="45.45521891290016" lon="13.636908080705462"><ele>95.0</ele><time>2026-05-01T14:00:31Z</time></trkpt><trkpt lat="45.45520446863546" lon="13.636781501478767"><ele>95.0</ele><time>2026-05-01T14:00:32Z</time></trkpt><trkpt lat="45.45516324733444" lon="13.636675468463046"><ele>95.0</ele><time>2026-05-01T14:00:33Z</time></trkpt><trkpt lat="45.455099790098735" lon="13.636586090585537"><ele>95.0</ele><time>2026-05-01T14:00:34Z</time></trkpt><trkpt lat="45.45503334319835" lon="13.636490142986275"><ele>96.25</ele><time>2026-05-01T14:00:35Z</time></trkpt><trkpt lat="45.45497304780177" lon="13.63636999828603"><ele>97.5</ele><time>2026-05-01T14:00:36Z</time></trkpt><trkpt lat="45.45493032717607" lon="13.636213608763587"><ele>98.75</ele><time>2026-05-01T14:00:37Z</time></trkpt><trkpt lat="45.45489876700989" lon="13.636034911311809"><ele>100.0</ele><time>2026-05-01T14:00:38Z</time></trkpt><trkpt lat="45.454877223709985" lon="13.635860208205393"><ele>100.75</ele><time>2026-05-01T14:00:39Z</time></trkpt><trkpt lat="45.45485566624877" lon="13.635666103051282"><ele>101.5</ele><time>2026-05-01T14:00:40Z</time></trkpt><trkpt lat="45.45483763302377" lon="13.635457315519485"><ele>102.25</ele><time>2026-05-01T14:00:41Z</time></trkpt><trkpt lat="45.45482519072302" lon="13.635233433006393"><ele>103.0</ele><time>2026-05-01T14:00:42Z</time></trkpt><trkpt lat="45.454839588489094" lon="13.634997522668533"><ele>104.0</ele><time>2026-05-01T14:00:43Z</time></trkpt><trkpt lat="45.454827683430636" lon="13.634749208721072"><ele>105.0</ele><time>2026-05-01T14:00:44Z</time></trkpt><trkpt lat="45.45483982139152" lon="13.634503217479805"><ele>106.0</ele><time>2026-05-01T14:00:45Z</time></trkpt><trkpt lat="45.45485466904815" lon="13.634275428699551"><ele>106.0</ele><time>2026-05-01T14:00:46Z</time></trkpt><trkpt lat="45.45489459431438" lon="13.634052672442326"><ele>106.0</ele><time>2026-05-01T14:00:47Z</time></trkpt><trkpt lat="45.454908369770415" lon="13.633820204688776"><ele>106.0</ele><time>2026-05-01T14:00:48Z</time></trkpt><trkpt lat="45.454939889098526" lon="13.633586521625814"><ele>105.66666666666667</ele><time>2026-05-01T14:00:49Z</time></trkpt><trkpt lat="45.45497102644127" lon="13.633346512210132"><ele>105.33333333333334</ele><time>2026-05-01T14:00:50Z</time></trkpt><trkpt lat="45.45500310304207" lon="13.633106297282755"><ele>105.0</ele><time>2026-05-01T14:00:51Z</time></trkpt><trkpt lat="45.45503620423584" lon="13.632862944341651"><ele>104.66666666666666</ele><time>2026-05-01T14:00:52Z</time></trkpt><trkpt lat="45.45506951076435" lon="13.632619613067131"><ele>104.33333333333333</ele><time>2026-05-01T14:00:53Z</time></trkpt><trkpt lat="45.455103287600366" lon="13.632367247410416"><ele>104.0</ele><time>2026-05-01T14:00:54Z</time></trkpt><trkpt lat="45.45513845187761" lon="13.632106498385651"><ele>102.66666666666666</ele><time>2026-05-01T14:00:55Z</time></trkpt><trkpt lat="45.45517573133739" lon="13.63183990972925"><ele>101.33333333333334</ele><time>2026-05-01T14:00:56Z</time></trkpt><trkpt lat="45.45521406088575" lon="13.631571908763313"><ele>100.0</ele><time>2026-05-01T14:00:57Z</time></trkpt><trkpt lat="45.45525224009939" lon="13.631297999205326"><ele>100.33333333333334</ele><time>2026-05-01T14:00:58Z</time></trkpt><trkpt lat="45.455292256245556" lon="13.631026877986478"><ele>100.66666666666666</ele><time>2026-05-01T14:00:59Z</time></trkpt><trkpt lat="45.45533241066635" lon="13.630763350911154"><ele>101.0</ele><time>2026-05-01T14:01:00Z</time></trkpt><trkpt lat="45.455371291581066" lon="13.630509055341244"><ele>101.33333333333333</ele><time>2026-05-01T14:01:01Z</time></trkpt><trkpt lat="45.45540635535086" lon="13.630260698101297"><ele>101.66666666666666</ele><time>2026-05-01T14:01:02Z</time></trkpt><trkpt lat="45.455437589004006" lon="13.630005920531987"><ele>102.0</ele><time>2026-05-01T14:01:03Z</time></trkpt><trkpt lat="45.455465109749575" lon="13.629739825390065"><ele>98.66666666666667</ele><time>2026-05-01T14:01:04Z</time></trkpt><trkpt lat="45.45548557215681" lon="13.629465708810391"><ele>95.33333333333334</ele><time>2026-05-01T14:01:05Z</time></trkpt><trkpt lat="45.455499694681805" lon="13.629187610766403"><ele>92.0</ele><time>2026-05-01T14:01:06Z</time></trkpt><trkpt lat="45.45550769267377" lon="13.628909777318778"><ele>94.0</ele><time>2026-05-01T14:01:07Z</time></trkpt><trkpt lat="45.45550672469703" lon="13.62863501855006"><ele>96.0</ele><time>2026-05-01T14:01:08Z</time></trkpt><trkpt lat="45.45549650599054" lon="13.628359146549855"><ele>98.0</ele><time>2026-05-01T14:01:09Z</time></trkpt><trkpt lat="45.4554816748639" lon="13.628084747252416"><ele>100.66666666666666</ele><time>2026-05-01T14:01:10Z</time></trkpt><trkpt lat="45.4554605795552" lon="13.627809147793906"><ele>103.33333333333334</ele><time>2026-05-01T14:01:11Z</time></trkpt><trkpt lat="45.45542918038116" lon="13.62753753092193"><ele>106.0</ele><time>2026-05-01T14:01:12Z</time></trkpt><trkpt lat="45.455392147529736" lon="13.627272971055273"><ele>110.33333333333334</ele><time>2026-05-01T14:01:13Z</time></trkpt><trkpt lat="45.455352084063335" lon="13.6270260887252"><ele>114.66666666666666</ele><time>2026-05-01T14:01:14Z</time></trkpt><trkpt lat="45.455307137039235" lon="13.626785488522284"><ele>119.0</ele><time>2026-05-01T14:01:15Z</time></trkpt><trkpt lat="45.455255246365105" lon="13.626537490667257"><ele>119.0</ele><time>2026-05-01T14:01:16Z</time></trkpt><trkpt lat="45.45519686588111" lon="13.626279235440272"><ele>119.0</ele><time>2026-05-01T14:01:17Z</time></trkpt><trkpt lat="45.45513427312349" lon="13.626013437130686"><ele>119.0</ele><time>2026-05-01T14:01:18Z</time></trkpt><trkpt lat="45.45506749761233" lon="13.625738753364693"><ele>118.33333333333333</ele><time>2026-05-01T14:01:19Z</time></trkpt><trkpt lat="45.45500323365908" lon="13.625459657614726"><ele>117.66666666666666</ele><time>2026-05-01T14:01:20Z</time></trkpt><trkpt lat="45.45494070381041" lon="13.625180783908705"><ele>117.0</ele><time>2026-05-01T14:01:21Z</time></trkpt><trkpt lat="45.45488277478187" lon="13.624910259037842"><ele>117.0</ele><time>2026-05-01T14:01:22Z</time></trkpt><trkpt lat="45.45482359177214" lon="13.624650892298542"><ele>117.0</ele><time>2026-05-01T14:01:23Z</time></trkpt><trkpt lat="45.45476237171877" lon="13.624388626743238"><ele>117.0</ele><time>2026-05-01T14:01:24Z</time></trkpt><trkpt lat="45.454702644225144" lon="13.624124353676773"><ele>117.0</ele><time>2026-05-01T14:01:25Z</time></trkpt><trkpt lat="45.4546438813702" lon="13.62386091583638"><ele>117.0</ele><time>2026-05-01T14:01:26Z</time></trkpt><trkpt lat="45.454583654675375" lon="13.623598063542254"><ele>117.0</ele><time>2026-05-01T14:01:27Z</time></trkpt><trkpt lat="45.454522002327856" lon="13.62333581954614"><ele>114.66666666666666</ele><time>2026-05-01T14:01:28Z</time></trkpt><trkpt lat="45.454456318144686" lon="13.623078614367326"><ele>112.33333333333333</ele><time>2026-05-01T14:01:29Z</time></trkpt><trkpt lat="45.45438309643516" lon="13.622833683969969"><ele>110.0</ele><time>2026-05-01T14:01:30Z</time></trkpt><trkpt lat="45.454302494393986" lon="13.622603085466848"><ele>110.0</ele><time>2026-05-01T14:01:31Z</time></trkpt><trkpt lat="45.454217065316044" lon="13.622384919966684"><ele>110.0</ele><time>2026-05-01T14:01:32Z</time></trkpt><trkpt lat="45.454123778313274" lon="13.622171854845773"><ele>110.0</ele><time>2026-05-01T14:01:33Z</time></trkpt><trkpt lat="45.45401653250279" lon="13.62196067235374"><ele>109.66666666666666</ele><time>2026-05-01T14:01:34Z</time></trkpt><trkpt lat="45.45390730303464" lon="13.621751099087017"><ele>109.33333333333334</ele><time>2026-05-01T14:01:35Z</time></trkpt><trkpt lat="45.453794799589204" lon="13.62154021163277"><ele>109.0</ele><time>2026-05-01T14:01:36Z</time></trkpt><trkpt lat="45.45368210526251" lon="13.621329697936346"><ele>110.0</ele><time>2026-05-01T14:01:37Z</time></trkpt><trkpt lat="45.453573453258095" lon="13.6211182426263"><ele>111.0</ele><time>2026-05-01T14:01:38Z</time></trkpt><trkpt lat="45.45346945500262" lon="13.62090837507279"><ele>112.0</ele><time>2026-05-01T14:01:39Z</time></trkpt><trkpt lat="45.453369638499716" lon="13.620702315398267"><ele>112.0</ele><time>2026-05-01T14:01:40Z</time></trkpt><trkpt lat="45.45326754934223" lon="13.620504919596263"><ele>112.0</ele><time>2026-05-01T14:01:41Z</time></trkpt><trkpt lat="45.45315004126811" lon="13.620308502221155"><ele>112.0</ele><time>2026-05-01T14:01:42Z</time></trkpt><trkpt lat="45.45301352954739" lon="13.620116513917473"><ele>111.0</ele><time>2026-05-01T14:01:43Z</time></trkpt><trkpt lat="45.45285698462237" lon="13.619928065386135"><ele>110.0</ele><time>2026-05-01T14:01:44Z</time></trkpt><trkpt lat="45.45268083788065" lon="13.619738112252307"><ele>109.0</ele><time>2026-05-01T14:01:45Z</time></trkpt><trkpt lat="45.45249256898431" lon="13.619538700947599"><ele>109.5</ele><time>2026-05-01T14:01:46Z</time></trkpt><trkpt lat="45.45229754899887" lon="13.619337665561273"><ele>110.0</ele><time>2026-05-01T14:01:47Z</time></trkpt><trkpt lat="45.452091870493" lon="13.619136302103056"><ele>110.0</ele><time>2026-05-01T14:01:48Z</time></trkpt><trkpt lat="45.45187664994791" lon="13.618936939370638"><ele>110.0</ele><time>2026-05-01T14:01:49Z</time></trkpt><trkpt lat="45.45163839071361" lon="13.61874627849873"><ele>109.0</ele><time>2026-05-01T14:01:50Z</time></trkpt><trkpt lat="45.451399781010586" lon="13.61856720179487"><ele>108.0</ele><time>2026-05-01T14:01:51Z</time></trkpt><trkpt lat="45.451141710228924" lon="13.618399549921772"><ele>108.0</ele><time>2026-05-01T14:01:52Z</time></trkpt><trkpt lat="45.45088465208355" lon="13.618247596198986"><ele>108.0</ele><time>2026-05-01T14:01:53Z</time></trkpt><trkpt lat="45.45062577656802" lon="13.618111176280824"><ele>105.0</ele><time>2026-05-01T14:01:54Z</time></trkpt><trkpt lat="45.450359548772624" lon="13.617987456723908"><ele>102.0</ele><time>2026-05-01T14:01:55Z</time></trkpt><trkpt lat="45.45008861580621" lon="13.617875598277811"><ele>103.0</ele><time>2026-05-01T14:01:56Z</time></trkpt><trkpt lat="45.44981306022503" lon="13.617776117875708"><ele>104.0</ele><time>2026-05-01T14:01:57Z</time></trkpt><trkpt lat="45.44953023963383" lon="13.617694883722324"><ele>104.0</ele><time>2026-05-01T14:01:58Z</time></trkpt><trkpt lat="45.449242058788506" lon="13.617629028934582"><ele>104.0</ele><time>2026-05-01T14:01:59Z</time></trkpt><trkpt lat="45.44894733204624" lon="13.6175804343681"><ele>104.0</ele><time>2026-05-01T14:02:00Z</time></trkpt><trkpt lat="45.44864516661486" lon="13.617552213012129"><ele>104.0</ele><time>2026-05-01T14:02:01Z</time></trkpt><trkpt lat="45.448340557182505" lon="13.617542396647433"><ele>104.0</ele><time>2026-05-01T14:02:02Z</time></trkpt><trkpt lat="45.44803024145981" lon="13.617551473504921"><ele>104.0</ele><time>2026-05-01T14:02:03Z</time></trkpt><trkpt lat="45.44772494674094" lon="13.617585621125281"><ele>102.5</ele><time>2026-05-01T14:02:04Z</time></trkpt><trkpt lat="45.44742673388198" lon="13.617651756575212"><ele>101.0</ele><time>2026-05-01T14:02:05Z</time></trkpt><trkpt lat="45.44712835118815" lon="13.617744329554613"><ele>100.0</ele><time>2026-05-01T14:02:06Z</time></trkpt><trkpt lat="45.44682861567694" lon="13.61785168032538"><ele>99.0</ele><time>2026-05-01T14:02:07Z</time></trkpt><trkpt lat="45.44652836154889" lon="13.617967798611371"><ele>98.0</ele><time>2026-05-01T14:02:08Z</time></trkpt><trkpt lat="45.4462295511642" lon="13.618095789405176"><ele>97.0</ele><time>2026-05-01T14:02:09Z</time></trkpt><trkpt lat="45.445934101139194" lon="13.618237071006698"><ele>97.0</ele><time>2026-05-01T14:02:10Z</time></trkpt><trkpt lat="45.44563797449094" lon="13.618379658390507"><ele>97.0</ele><time>2026-05-01T14:02:11Z</time></trkpt><trkpt lat="45.44534173915508" lon="13.618514568290388"><ele>97.5</ele><time>2026-05-01T14:02:12Z</time></trkpt><trkpt lat="45.44504163168024" lon="13.618644536415749"><ele>98.0</ele><time>2026-05-01T14:02:13Z</time></trkpt><trkpt lat="45.444740955116515" lon="13.618764842143088"><ele>99.0</ele><time>2026-05-01T14:02:14Z</time></trkpt><trkpt lat="45.44444037912265" lon="13.61887030646324"><ele>100.0</ele><time>2026-05-01T14:02:15Z</time></trkpt><trkpt lat="45.44413688371831" lon="13.61895158945547"><ele>100.0</ele><time>2026-05-01T14:02:16Z</time></trkpt><trkpt lat="45.44382609904379" lon="13.61900497079669"><ele>100.0</ele><time>2026-05-01T14:02:17Z</time></trkpt><trkpt lat="45.4435099171233" lon="13.61903444080609"><ele>101.0</ele><time>2026-05-01T14:02:18Z</time></trkpt><trkpt lat="45.44319581823828" lon="13.619037089558217"><ele>102.0</ele><time>2026-05-01T14:02:19Z</time></trkpt><trkpt lat="45.442884468688305" lon="13.619013531404514"><ele>102.5</ele><time>2026-05-01T14:02:20Z</time></trkpt><trkpt lat="45.44257754515861" lon="13.618966168521442"><ele>103.0</ele><time>2026-05-01T14:02:21Z</time></trkpt><trkpt lat="45.44227459811167" lon="13.618894236956564"><ele>102.5</ele><time>2026-05-01T14:02:22Z</time></trkpt><trkpt lat="45.44197116093903" lon="13.618794138927123"><ele>102.0</ele><time>2026-05-01T14:02:23Z</time></trkpt><trkpt lat="45.44167232583619" lon="13.61866864134922"><ele>101.5</ele><time>2026-05-01T14:02:24Z</time></trkpt><trkpt lat="45.44138458709529" lon="13.618526211902743"><ele>101.0</ele><time>2026-05-01T14:02:25Z</time></trkpt><trkpt lat="45.44110672760809" lon="13.618370142293877"><ele>101.0</ele><time>2026-05-01T14:02:26Z</time></trkpt><trkpt lat="45.440839615908835" lon="13.618193559939407"><ele>101.0</ele><time>2026-05-01T14:02:27Z</time></trkpt><trkpt lat="45.44057649325621" lon="13.61799994525349"><ele>101.0</ele><time>2026-05-01T14:02:28Z</time></trkpt><trkpt lat="45.44031654633469" lon="13.617802432168073"><ele>101.0</ele><time>2026-05-01T14:02:29Z</time></trkpt><trkpt lat="45.440058422198604" lon="13.617601769593064"><ele>101.0</ele><time>2026-05-01T14:02:30Z</time></trkpt><trkpt lat="45.43980066472355" lon="13.617402974236724"><ele>101.0</ele><time>2026-05-01T14:02:31Z</time></trkpt><trkpt lat="45.43953647647284" lon="13.617215269635947"><ele>101.0</ele><time>2026-05-01T14:02:32Z</time></trkpt><trkpt lat="45.43926918855945" lon="13.617040569141079"><ele>101.0</ele><time>2026-05-01T14:02:33Z</time></trkpt><trkpt lat="45.43899727267977" lon="13.616880309373459"><ele>98.5</ele><time>2026-05-01T14:02:34Z</time></trkpt><trkpt lat="45.438720950541025" lon="13.61673756991606"><ele>96.0</ele><time>2026-05-01T14:02:35Z</time></trkpt><trkpt lat="45.43844192362757" lon="13.616619395909058"><ele>96.0</ele><time>2026-05-01T14:02:36Z</time></trkpt><trkpt lat="45.43815852338972" lon="13.616520807707396"><ele>96.0</ele><time>2026-05-01T14:02:37Z</time></trkpt><trkpt lat="45.4378687508718" lon="13.616439542581302"><ele>97.0</ele><time>2026-05-01T14:02:38Z</time></trkpt><trkpt lat="45.43757246075111" lon="13.616370919075587"><ele>98.0</ele><time>2026-05-01T14:02:39Z</time></trkpt><trkpt lat="45.43727197669217" lon="13.616307372746537"><ele>98.0</ele><time>2026-05-01T14:02:40Z</time></trkpt><trkpt lat="45.43696797324003" lon="13.616243441380057"><ele>98.0</ele><time>2026-05-01T14:02:41Z</time></trkpt><trkpt lat="45.43666251338553" lon="13.61617699640573"><ele>99.0</ele><time>2026-05-01T14:02:42Z</time></trkpt><trkpt lat="45.43635572007028" lon="13.616107448895802"><ele>100.0</ele><time>2026-05-01T14:02:43Z</time></trkpt><trkpt lat="45.436049521032736" lon="13.61602546812702"><ele>100.0</ele><time>2026-05-01T14:02:44Z</time></trkpt><trkpt lat="45.435742251195826" lon="13.615928643617908"><ele>100.0</ele><time>2026-05-01T14:02:45Z</time></trkpt><trkpt lat="45.43543445700458" lon="13.61580496862543"><ele>98.0</ele><time>2026-05-01T14:02:46Z</time></trkpt><trkpt lat="45.43513008521251" lon="13.61565862105584"><ele>96.0</ele><time>2026-05-01T14:02:47Z</time></trkpt><trkpt lat="45.434831629444794" lon="13.61548917491298"><ele>98.5</ele><time>2026-05-01T14:02:48Z</time></trkpt><trkpt lat="45.4345424669066" lon="13.615299380755985"><ele>101.0</ele><time>2026-05-01T14:02:49Z</time></trkpt><trkpt lat="45.43426328051506" lon="13.615097506125347"><ele>101.0</ele><time>2026-05-01T14:02:50Z</time></trkpt><trkpt lat="45.43400011413259" lon="13.614888123535016"><ele>101.0</ele><time>2026-05-01T14:02:51Z</time></trkpt><trkpt lat="45.43375742339838" lon="13.61467525369034"><ele>102.5</ele><time>2026-05-01T14:02:52Z</time></trkpt><trkpt lat="45.43353115352297" lon="13.614450732925425"><ele>104.0</ele><time>2026-05-01T14:02:53Z</time></trkpt><trkpt lat="45.4333150348513" lon="13.614218309510044"><ele>104.0</ele><time>2026-05-01T14:02:54Z</time></trkpt><trkpt lat="45.43310438737301" lon="13.613982449743933"><ele>104.0</ele><time>2026-05-01T14:02:55Z</time></trkpt><trkpt lat="45.432900280376785" lon="13.613743869258087"><ele>102.5</ele><time>2026-05-01T14:02:56Z</time></trkpt><trkpt lat="45.432697056779716" lon="13.613508735296724"><ele>101.0</ele><time>2026-05-01T14:02:57Z</time></trkpt><trkpt lat="45.43249557263637" lon="13.613281738856482"><ele>101.0</ele><time>2026-05-01T14:02:58Z</time></trkpt><trkpt lat="45.432291496454376" lon="13.613066091647664"><ele>101.0</ele><time>2026-05-01T14:02:59Z</time></trkpt><trkpt lat="45.432095927714386" lon="13.612861473630993"><ele>100.5</ele><time>2026-05-01T14:03:00Z</time></trkpt><trkpt lat="45.431889975717496" lon="13.612672486864252"><ele>100.0</ele><time>2026-05-01T14:03:01Z</time></trkpt><trkpt lat="45.43168454595329" lon="13.61249659878915"><ele>100.0</ele><time>2026-05-01T14:03:02Z</time></trkpt><trkpt lat="45.43147742830906" lon="13.612344062643363"><ele>100.0</ele><time>2026-05-01T14:03:03Z</time></trkpt><trkpt lat="45.43126898491597" lon="13.612208663729138"><ele>100.0</ele><time>2026-05-01T14:03:04Z</time></trkpt><trkpt lat="45.43106007745748" lon="13.612088128069928"><ele>100.0</ele><time>2026-05-01T14:03:05Z</time></trkpt><trkpt lat="45.43085016091249" lon="13.611984130572374"><ele>100.0</ele><time>2026-05-01T14:03:06Z</time></trkpt><trkpt lat="45.43064074054571" lon="13.611895173641326"><ele>101.33333333333334</ele><time>2026-05-01T14:03:07Z</time></trkpt><trkpt lat="45.430430951212" lon="13.611824246830531"><ele>102.66666666666666</ele><time>2026-05-01T14:03:08Z</time></trkpt><trkpt lat="45.43022170883647" lon="13.611767990004134"><ele>104.0</ele><time>2026-05-01T14:03:09Z</time></trkpt><trkpt lat="45.430019728255694" lon="13.611722312788345"><ele>104.0</ele><time>2026-05-01T14:03:10Z</time></trkpt><trkpt lat="45.4298231106114" lon="13.611689784297033"><ele>104.0</ele><time>2026-05-01T14:03:11Z</time></trkpt><trkpt lat="45.42963200579717" lon="13.611676228676897"><ele>104.0</ele><time>2026-05-01T14:03:12Z</time></trkpt><trkpt lat="45.42944045011345" lon="13.611671370916415"><ele>103.33333333333333</ele><time>2026-05-01T14:03:13Z</time></trkpt><trkpt lat="45.42924855246108" lon="13.611678534757205"><ele>102.66666666666666</ele><time>2026-05-01T14:03:14Z</time></trkpt><trkpt lat="45.42906016335525" lon="13.611693544857674"><ele>102.0</ele><time>2026-05-01T14:03:15Z</time></trkpt><trkpt lat="45.42887507564094" lon="13.611727526634004"><ele>99.66666666666667</ele><time>2026-05-01T14:03:16Z</time></trkpt><trkpt lat="45.42868834601266" lon="13.611767904891835"><ele>97.33333333333334</ele><time>2026-05-01T14:03:17Z</time></trkpt><trkpt lat="45.42850329324006" lon="13.611816128271215"><ele>95.0</ele><time>2026-05-01T14:03:18Z</time></trkpt><trkpt lat="45.428320660617125" lon="13.611874904142455"><ele>95.0</ele><time>2026-05-01T14:03:19Z</time></trkpt><trkpt lat="45.42814077766767" lon="13.611945629864229"><ele>95.0</ele><time>2026-05-01T14:03:20Z</time></trkpt><trkpt lat="45.42796884227333" lon="13.61202568340297"><ele>95.0</ele><time>2026-05-01T14:03:21Z</time></trkpt><trkpt lat="45.42780290951294" lon="13.612116085197261"><ele>97.33333333333334</ele><time>2026-05-01T14:03:22Z</time></trkpt><trkpt lat="45.427642570203936" lon="13.612208941754915"><ele>99.66666666666667</ele><time>2026-05-01T14:03:23Z</time></trkpt><trkpt lat="45.42748675909557" lon="13.612306285510561"><ele>102.0</ele><time>2026-05-01T14:03:24Z</time></trkpt><trkpt lat="45.427338847639305" lon="13.612411717081333"><ele>102.0</ele><time>2026-05-01T14:03:25Z</time></trkpt><trkpt lat="45.42719663297421" lon="13.612525067407207"><ele>102.0</ele><time>2026-05-01T14:03:26Z</time></trkpt><trkpt lat="45.42705883945892" lon="13.61264375632517"><ele>102.0</ele><time>2026-05-01T14:03:27Z</time></trkpt><trkpt lat="45.42692202545413" lon="13.612770642928925"><ele>100.33333333333334</ele><time>2026-05-01T14:03:28Z</time></trkpt><trkpt lat="45.426785641570795" lon="13.612904454702258"><ele>98.66666666666667</ele><time>2026-05-01T14:03:29Z</time></trkpt><trkpt lat="45.42665002712683" lon="13.613046320533309"><ele>97.0</ele><time>2026-05-01T14:03:30Z</time></trkpt><trkpt lat="45.42651655573024" lon="13.613198089664618"><ele>97.0</ele><time>2026-05-01T14:03:31Z</time></trkpt><trkpt lat="45.42638870887669" lon="13.613359577547593"><ele>97.0</ele><time>2026-05-01T14:03:32Z</time></trkpt><trkpt lat="45.42626599830499" lon="13.61352808580656"><ele>97.0</ele><time>2026-05-01T14:03:33Z</time></trkpt><trkpt lat="45.42614803699057" lon="13.61370250760021"><ele>94.0</ele><time>2026-05-01T14:03:34Z</time></trkpt><trkpt lat="45.42603435712165" lon="13.613877846050928"><ele>91.0</ele><time>2026-05-01T14:03:35Z</time></trkpt><trkpt lat="45.425927753834195" lon="13.614057027314432"><ele>88.0</ele><time>2026-05-01T14:03:36Z</time></trkpt><trkpt lat="45.425827584006555" lon="13.614237493593507"><ele>88.0</ele><time>2026-05-01T14:03:37Z</time></trkpt><trkpt lat="45.42573273098942" lon="13.614417660963584"><ele>88.0</ele><time>2026-05-01T14:03:38Z</time></trkpt><trkpt lat="45.42564192830858" lon="13.614595567294947"><ele>88.0</ele><time>2026-05-01T14:03:39Z</time></trkpt><trkpt lat="45.425554992334924" lon="13.614774277586232"><ele>86.25</ele><time>2026-05-01T14:03:40Z</time></trkpt><trkpt lat="45.42547421058604" lon="13.614954957577183"><ele>84.5</ele><time>2026-05-01T14:03:41Z</time></trkpt><trkpt lat="45.42539687381861" lon="13.615128713114022"><ele>82.75</ele><time>2026-05-01T14:03:42Z</time></trkpt><trkpt lat="45.42532033553" lon="13.615301029408004"><ele>81.0</ele><time>2026-05-01T14:03:43Z</time></trkpt><trkpt lat="45.42524524111603" lon="13.615470451199178"><ele>81.0</ele><time>2026-05-01T14:03:44Z</time></trkpt><trkpt lat="45.42516899457425" lon="13.615636986647957"><ele>81.0</ele><time>2026-05-01T14:03:45Z</time></trkpt><trkpt lat="45.42509574752814" lon="13.615800269174454"><ele>81.0</ele><time>2026-05-01T14:03:46Z</time></trkpt><trkpt lat="45.4250215150677" lon="13.61595980752543"><ele>81.0</ele><time>2026-05-01T14:03:47Z</time></trkpt><trkpt lat="45.42494541603586" lon="13.616114224636702"><ele>81.75</ele><time>2026-05-01T14:03:48Z</time></trkpt><trkpt lat="45.42487336573558" lon="13.616264414727995"><ele>82.5</ele><time>2026-05-01T14:03:49Z</time></trkpt><trkpt lat="45.424802337904275" lon="13.616407190060624"><ele>83.25</ele><time>2026-05-01T14:03:50Z</time></trkpt><trkpt lat="45.42473856977213" lon="13.616543259113902"><ele>84.0</ele><time>2026-05-01T14:03:51Z</time></trkpt><trkpt lat="45.424680225688235" lon="13.616669476291078"><ele>83.16666666666667</ele><time>2026-05-01T14:03:52Z</time></trkpt><trkpt lat="45.42462519538131" lon="13.61678820153713"><ele>82.33333333333333</ele><time>2026-05-01T14:03:53Z</time></trkpt><trkpt lat="45.42457631809786" lon="13.616899968632248"><ele>81.5</ele><time>2026-05-01T14:03:54Z</time></trkpt><trkpt lat="45.42452887534359" lon="13.617000776267092"><ele>80.66666666666666</ele><time>2026-05-01T14:03:55Z</time></trkpt><trkpt lat="45.424483716032306" lon="13.617090450625987"><ele>79.83333333333333</ele><time>2026-05-01T14:03:56Z</time></trkpt><trkpt lat="45.42444304759462" lon="13.61716793284341"><ele>79.0</ele><time>2026-05-01T14:03:57Z</time></trkpt><trkpt lat="45.424374828510544" lon="13.61729839381219"><ele>79.0</ele><time>2026-05-01T14:03:59Z</time></trkpt><trkpt lat="45.424319827418614" lon="13.617398333661344"><ele>79.0</ele><time>2026-05-01T14:04:01Z</time></trkpt><trkpt lat="45.424276302383085" lon="13.61747309714592"><ele>79.0</ele><time>2026-05-01T14:04:04Z</time></trkpt><trkpt lat="45.42419989272427" lon="13.617578328389833"><ele>79.0</ele><time>2026-05-01T14:04:12Z</time></trkpt><trkpt lat="45.42411771875072" lon="13.617693618450712"><ele>79.0</ele><time>2026-05-01T14:04:14Z</time></trkpt><trkpt lat="45.42406950597641" lon="13.617752088661625"><ele>79.0</ele><time>2026-05-01T14:04:15Z</time></trkpt><trkpt lat="45.42400823703371" lon="13.617822594347135"><ele>79.4</ele><time>2026-05-01T14:04:16Z</time></trkpt><trkpt lat="45.423931207553665" lon="13.617906738743384"><ele>79.80000000000001</ele><time>2026-05-01T14:04:17Z</time></trkpt><trkpt lat="45.42384696349513" lon="13.617996129349283"><ele>80.19999999999999</ele><time>2026-05-01T14:04:18Z</time></trkpt><trkpt lat="45.423761292831415" lon="13.618078883783099"><ele>80.6</ele><time>2026-05-01T14:04:19Z</time></trkpt><trkpt lat="45.42366705528137" lon="13.618170054062478"><ele>81.0</ele><time>2026-05-01T14:04:20Z</time></trkpt><trkpt lat="45.423561870916956" lon="13.61827246855158"><ele>80.25</ele><time>2026-05-01T14:04:21Z</time></trkpt><trkpt lat="45.42344609608086" lon="13.618389069066001"><ele>79.5</ele><time>2026-05-01T14:04:22Z</time></trkpt><trkpt lat="45.42331969829458" lon="13.618512807957186"><ele>78.75</ele><time>2026-05-01T14:04:23Z</time></trkpt><trkpt lat="45.42319148242421" lon="13.618629328967838"><ele>78.0</ele><time>2026-05-01T14:04:24Z</time></trkpt><trkpt lat="45.42306066666575" lon="13.618740918209813"><ele>75.66666666666667</ele><time>2026-05-01T14:04:25Z</time></trkpt><trkpt lat="45.42292386942558" lon="13.618855689159318"><ele>73.33333333333334</ele><time>2026-05-01T14:04:26Z</time></trkpt><trkpt lat="45.42278256009052" lon="13.618975624806644"><ele>71.0</ele><time>2026-05-01T14:04:27Z</time></trkpt><trkpt lat="45.42263240294874" lon="13.619094290941879"><ele>71.0</ele><time>2026-05-01T14:04:28Z</time></trkpt><trkpt lat="45.42247635656941" lon="13.619210507808775"><ele>71.0</ele><time>2026-05-01T14:04:29Z</time></trkpt><trkpt lat="45.42231081598497" lon="13.619323957783868"><ele>71.0</ele><time>2026-05-01T14:04:30Z</time></trkpt><trkpt lat="45.422138251685624" lon="13.619431811508838"><ele>71.66666666666667</ele><time>2026-05-01T14:04:31Z</time></trkpt><trkpt lat="45.4219553842885" lon="13.619528853462052"><ele>72.33333333333333</ele><time>2026-05-01T14:04:32Z</time></trkpt><trkpt lat="45.4217661066894" lon="13.619622891615137"><ele>73.0</ele><time>2026-05-01T14:04:33Z</time></trkpt><trkpt lat="45.421572285444036" lon="13.619712158305399"><ele>73.0</ele><time>2026-05-01T14:04:34Z</time></trkpt><trkpt lat="45.421367586351835" lon="13.619791386611087"><ele>73.0</ele><time>2026-05-01T14:04:35Z</time></trkpt><trkpt lat="45.42115526451256" lon="13.619868955000268"><ele>73.0</ele><time>2026-05-01T14:04:36Z</time></trkpt><trkpt lat="45.42093504601596" lon="13.61993516012449"><ele>75.5</ele><time>2026-05-01T14:04:37Z</time></trkpt><trkpt lat="45.42070901292778" lon="13.619991086221376"><ele>78.0</ele><time>2026-05-01T14:04:38Z</time></trkpt><trkpt lat="45.42047634879864" lon="13.620041122157808"><ele>79.0</ele><time>2026-05-01T14:04:39Z</time></trkpt><trkpt lat="45.42024000166426" lon="13.620078898386524"><ele>80.0</ele><time>2026-05-01T14:04:40Z</time></trkpt><trkpt lat="45.41999628568918" lon="13.620106701895292"><ele>80.0</ele><time>2026-05-01T14:04:41Z</time></trkpt><trkpt lat="45.41974576870077" lon="13.620123931042079"><ele>80.0</ele><time>2026-05-01T14:04:42Z</time></trkpt><trkpt lat="45.419489128105035" lon="13.620122558421658"><ele>80.0</ele><time>2026-05-01T14:04:43Z</time></trkpt><trkpt lat="45.41922708740903" lon="13.620104753836243"><ele>80.0</ele><time>2026-05-01T14:04:44Z</time></trkpt><trkpt lat="45.418961226368424" lon="13.62007732024111"><ele>80.5</ele><time>2026-05-01T14:04:45Z</time></trkpt><trkpt lat="45.41869095787888" lon="13.620050208224571"><ele>81.0</ele><time>2026-05-01T14:04:46Z</time></trkpt><trkpt lat="45.41841928973012" lon="13.620024631271308"><ele>81.0</ele><time>2026-05-01T14:04:47Z</time></trkpt><trkpt lat="45.418144659022396" lon="13.620008924969275"><ele>81.0</ele><time>2026-05-01T14:04:48Z</time></trkpt><trkpt lat="45.41786690023865" lon="13.620005964097423"><ele>80.5</ele><time>2026-05-01T14:04:49Z</time></trkpt><trkpt lat="45.417585130011794" lon="13.620008079951571"><ele>80.0</ele><time>2026-05-01T14:04:50Z</time></trkpt><trkpt lat="45.41730073803493" lon="13.620023807948481"><ele>80.0</ele><time>2026-05-01T14:04:51Z</time></trkpt><trkpt lat="45.41701562392289" lon="13.620060401267878"><ele>80.0</ele><time>2026-05-01T14:04:52Z</time></trkpt><trkpt lat="45.416728409455295" lon="13.62011562014459"><ele>80.0</ele><time>2026-05-01T14:04:53Z</time></trkpt><trkpt lat="45.416442494519025" lon="13.620193416222527"><ele>80.0</ele><time>2026-05-01T14:04:54Z</time></trkpt><trkpt lat="45.416159222880395" lon="13.620296803724226"><ele>80.0</ele><time>2026-05-01T14:04:55Z</time></trkpt><trkpt lat="45.41587676448602" lon="13.620418865985425"><ele>80.0</ele><time>2026-05-01T14:04:56Z</time></trkpt><trkpt lat="45.41559402080078" lon="13.620563080077766"><ele>84.5</ele><time>2026-05-01T14:04:57Z</time></trkpt><trkpt lat="45.41531009416855" lon="13.620722644975325"><ele>89.0</ele><time>2026-05-01T14:04:58Z</time></trkpt><trkpt lat="45.41502538843458" lon="13.620888638865502"><ele>89.0</ele><time>2026-05-01T14:04:59Z</time></trkpt><trkpt lat="45.41474165422672" lon="13.621057040298053"><ele>89.0</ele><time>2026-05-01T14:05:00Z</time></trkpt><trkpt lat="45.41446312902765" lon="13.62122656022954"><ele>88.0</ele><time>2026-05-01T14:05:01Z</time></trkpt><trkpt lat="45.41418403590704" lon="13.621394259659029"><ele>87.0</ele><time>2026-05-01T14:05:02Z</time></trkpt><trkpt lat="45.41389757074846" lon="13.62154154008495"><ele>89.0</ele><time>2026-05-01T14:05:03Z</time></trkpt><trkpt lat="45.41360567906281" lon="13.621678717973987"><ele>91.0</ele><time>2026-05-01T14:05:04Z</time></trkpt><trkpt lat="45.4133052833939" lon="13.621799486568978"><ele>91.0</ele><time>2026-05-01T14:05:05Z</time></trkpt><trkpt lat="45.41300202908221" lon="13.621904147568047"><ele>91.0</ele><time>2026-05-01T14:05:06Z</time></trkpt><trkpt lat="45.412700043878814" lon="13.621985056549049"><ele>89.0</ele><time>2026-05-01T14:05:07Z</time></trkpt><trkpt lat="45.4123986071844" lon="13.622047601473717"><ele>87.0</ele><time>2026-05-01T14:05:08Z</time></trkpt><trkpt lat="45.4120987869077" lon="13.622095811917902"><ele>87.0</ele><time>2026-05-01T14:05:09Z</time></trkpt><trkpt lat="45.41180345731911" lon="13.622124457115195"><ele>87.0</ele><time>2026-05-01T14:05:10Z</time></trkpt><trkpt lat="45.4115150256678" lon="13.622128109559082"><ele>89.0</ele><time>2026-05-01T14:05:11Z</time></trkpt><trkpt lat="45.41122880041501" lon="13.622121250730046"><ele>91.0</ele><time>2026-05-01T14:05:12Z</time></trkpt><trkpt lat="45.41094130700797" lon="13.622095188867814"><ele>91.0</ele><time>2026-05-01T14:05:13Z</time></trkpt><trkpt lat="45.41065207125954" lon="13.622049684565223"><ele>91.0</ele><time>2026-05-01T14:05:14Z</time></trkpt><trkpt lat="45.410359433014904" lon="13.621992313338536"><ele>93.5</ele><time>2026-05-01T14:05:15Z</time></trkpt><trkpt lat="45.410062272539406" lon="13.621923272156364"><ele>96.0</ele><time>2026-05-01T14:05:16Z</time></trkpt><trkpt lat="45.40976254690432" lon="13.621836981650931"><ele>95.0</ele><time>2026-05-01T14:05:17Z</time></trkpt><trkpt lat="45.40946012014455" lon="13.621730372096748"><ele>94.0</ele><time>2026-05-01T14:05:18Z</time></trkpt><trkpt lat="45.40915619210683" lon="13.62160229133895"><ele>94.0</ele><time>2026-05-01T14:05:19Z</time></trkpt><trkpt lat="45.408851263828694" lon="13.621453995285796"><ele>94.0</ele><time>2026-05-01T14:05:20Z</time></trkpt><trkpt lat="45.4085450484658" lon="13.621292299058009"><ele>94.5</ele><time>2026-05-01T14:05:21Z</time></trkpt><trkpt lat="45.4082380385825" lon="13.621126747757932"><ele>95.0</ele><time>2026-05-01T14:05:22Z</time></trkpt><trkpt lat="45.40792880491679" lon="13.620963070043285"><ele>96.5</ele><time>2026-05-01T14:05:23Z</time></trkpt><trkpt lat="45.407613984927906" lon="13.620813213434296"><ele>98.0</ele><time>2026-05-01T14:05:24Z</time></trkpt><trkpt lat="45.407294160153704" lon="13.620679886386176"><ele>100.5</ele><time>2026-05-01T14:05:25Z</time></trkpt><trkpt lat="45.40697115478398" lon="13.620570107176523"><ele>103.0</ele><time>2026-05-01T14:05:26Z</time></trkpt><trkpt lat="45.40664719141554" lon="13.62048983452818"><ele>105.0</ele><time>2026-05-01T14:05:27Z</time></trkpt><trkpt lat="45.4063243831702" lon="13.620440050786739"><ele>107.0</ele><time>2026-05-01T14:05:28Z</time></trkpt><trkpt lat="45.40599929951164" lon="13.620420585989027"><ele>107.0</ele><time>2026-05-01T14:05:29Z</time></trkpt><trkpt lat="45.40567326226227" lon="13.620431691716739"><ele>107.0</ele><time>2026-05-01T14:05:30Z</time></trkpt><trkpt lat="45.40534957056088" lon="13.620473726058568"><ele>104.5</ele><time>2026-05-01T14:05:31Z</time></trkpt><trkpt lat="45.405028879962266" lon="13.620549590043675"><ele>102.0</ele><time>2026-05-01T14:05:32Z</time></trkpt><trkpt lat="45.40471185069342" lon="13.62065553142404"><ele>99.5</ele><time>2026-05-01T14:05:33Z</time></trkpt><trkpt lat="45.40439767888385" lon="13.620788490788618"><ele>97.0</ele><time>2026-05-01T14:05:34Z</time></trkpt><trkpt lat="45.40408210945169" lon="13.620943909686494"><ele>97.0</ele><time>2026-05-01T14:05:35Z</time></trkpt><trkpt lat="45.40376697300215" lon="13.621114697273232"><ele>97.0</ele><time>2026-05-01T14:05:36Z</time></trkpt><trkpt lat="45.4034495206268" lon="13.621289204776184"><ele>97.0</ele><time>2026-05-01T14:05:37Z</time></trkpt><trkpt lat="45.40313317751432" lon="13.621461260287887"><ele>97.0</ele><time>2026-05-01T14:05:38Z</time></trkpt><trkpt lat="45.402820563026424" lon="13.621631432115663"><ele>96.5</ele><time>2026-05-01T14:05:39Z</time></trkpt><trkpt lat="45.40251658799409" lon="13.621800266988549"><ele>96.0</ele><time>2026-05-01T14:05:40Z</time></trkpt><trkpt lat="45.40221649429946" lon="13.621966160886329"><ele>96.5</ele><time>2026-05-01T14:05:41Z</time></trkpt><trkpt lat="45.40192040102952" lon="13.622129100080114"><ele>97.0</ele><time>2026-05-01T14:05:42Z</time></trkpt><trkpt lat="45.40162926631771" lon="13.62229170214723"><ele>97.0</ele><time>2026-05-01T14:05:43Z</time></trkpt><trkpt lat="45.4013420729863" lon="13.622451360884096"><ele>97.0</ele><time>2026-05-01T14:05:44Z</time></trkpt><trkpt lat="45.40105563538019" lon="13.622611095542998"><ele>96.0</ele><time>2026-05-01T14:05:45Z</time></trkpt><trkpt lat="45.40077045399833" lon="13.622768074151402"><ele>95.0</ele><time>2026-05-01T14:05:46Z</time></trkpt><trkpt lat="45.40048287024583" lon="13.622917805180059"><ele>97.5</ele><time>2026-05-01T14:05:47Z</time></trkpt><trkpt lat="45.40019193559643" lon="13.623054949838021"><ele>100.0</ele><time>2026-05-01T14:05:48Z</time></trkpt><trkpt lat="45.399896614795644" lon="13.623178308252973"><ele>98.0</ele><time>2026-05-01T14:05:49Z</time></trkpt><trkpt lat="45.39959901529616" lon="13.62329203933517"><ele>96.0</ele><time>2026-05-01T14:05:50Z</time></trkpt><trkpt lat="45.39929828306182" lon="13.623394687336988"><ele>96.0</ele><time>2026-05-01T14:05:51Z</time></trkpt><trkpt lat="45.39899525405787" lon="13.623474853365773"><ele>96.0</ele><time>2026-05-01T14:05:52Z</time></trkpt><trkpt lat="45.39869151589279" lon="13.623526886306903"><ele>95.0</ele><time>2026-05-01T14:05:53Z</time></trkpt><trkpt lat="45.39838410260974" lon="13.623554006967321"><ele>94.0</ele><time>2026-05-01T14:05:54Z</time></trkpt><trkpt lat="45.398074996327885" lon="13.623557883160203"><ele>95.5</ele><time>2026-05-01T14:05:55Z</time></trkpt><trkpt lat="45.39776967930922" lon="13.623534318870448"><ele>97.0</ele><time>2026-05-01T14:05:56Z</time></trkpt><trkpt lat="45.39746916676613" lon="13.62348648911901"><ele>97.0</ele><time>2026-05-01T14:05:57Z</time></trkpt><trkpt lat="45.39717437721198" lon="13.623412844687758"><ele>97.0</ele><time>2026-05-01T14:05:58Z</time></trkpt><trkpt lat="45.39688508901469" lon="13.623323611520545"><ele>99.5</ele><time>2026-05-01T14:05:59Z</time></trkpt><trkpt lat="45.39660188747262" lon="13.623211383489133"><ele>102.0</ele><time>2026-05-01T14:06:00Z</time></trkpt><trkpt lat="45.3963231455732" lon="13.623072482533809"><ele>102.0</ele><time>2026-05-01T14:06:01Z</time></trkpt><trkpt lat="45.39604599873663" lon="13.622912874854647"><ele>102.0</ele><time>2026-05-01T14:06:02Z</time></trkpt><trkpt lat="45.39577188658115" lon="13.622731863452831"><ele>106.5</ele><time>2026-05-01T14:06:03Z</time></trkpt><trkpt lat="45.39550035732349" lon="13.622526509040407"><ele>111.0</ele><time>2026-05-01T14:06:04Z</time></trkpt><trkpt lat="45.39523553226162" lon="13.622298503744004"><ele>111.0</ele><time>2026-05-01T14:06:05Z</time></trkpt><trkpt lat="45.39497530418081" lon="13.62205559548616"><ele>111.0</ele><time>2026-05-01T14:06:06Z</time></trkpt><trkpt lat="45.394717011765785" lon="13.62180626867234"><ele>111.5</ele><time>2026-05-01T14:06:07Z</time></trkpt><trkpt lat="45.39446200222184" lon="13.621551476135208"><ele>112.0</ele><time>2026-05-01T14:06:08Z</time></trkpt><trkpt lat="45.394210666504186" lon="13.621286197506732"><ele>111.0</ele><time>2026-05-01T14:06:09Z</time></trkpt><trkpt lat="45.3939622162209" lon="13.621015781722319"><ele>110.0</ele><time>2026-05-01T14:06:10Z</time></trkpt><trkpt lat="45.39371344542098" lon="13.620745419324015"><ele>109.5</ele><time>2026-05-01T14:06:11Z</time></trkpt><trkpt lat="45.39346278256918" lon="13.620477388996571"><ele>109.0</ele><time>2026-05-01T14:06:12Z</time></trkpt><trkpt lat="45.393210175765816" lon="13.620212103295835"><ele>107.0</ele><time>2026-05-01T14:06:13Z</time></trkpt><trkpt lat="45.39295885258216" lon="13.619951566570201"><ele>105.0</ele><time>2026-05-01T14:06:14Z</time></trkpt><trkpt lat="45.39270216179897" lon="13.619697643553845"><ele>106.5</ele><time>2026-05-01T14:06:15Z</time></trkpt><trkpt lat="45.392439498427365" lon="13.619448818202354"><ele>108.0</ele><time>2026-05-01T14:06:16Z</time></trkpt><trkpt lat="45.39217119997294" lon="13.619203425734733"><ele>110.5</ele><time>2026-05-01T14:06:17Z</time></trkpt><trkpt lat="45.391899095483865" lon="13.618962241275057"><ele>113.0</ele><time>2026-05-01T14:06:18Z</time></trkpt><trkpt lat="45.391620838953656" lon="13.618728327214885"><ele>113.5</ele><time>2026-05-01T14:06:19Z</time></trkpt><trkpt lat="45.391338622488" lon="13.61851301024391"><ele>114.0</ele><time>2026-05-01T14:06:20Z</time></trkpt><trkpt lat="45.39105418721767" lon="13.618307806451226"><ele>114.0</ele><time>2026-05-01T14:06:21Z</time></trkpt><trkpt lat="45.39076685916961" lon="13.618114834780801"><ele>114.0</ele><time>2026-05-01T14:06:22Z</time></trkpt><trkpt lat="45.390477665833686" lon="13.617930105450979"><ele>111.5</ele><time>2026-05-01T14:06:23Z</time></trkpt><trkpt lat="45.39018220290618" lon="13.617752852149986"><ele>109.0</ele><time>2026-05-01T14:06:24Z</time></trkpt><trkpt lat="45.38988006901818" lon="13.617587468570632"><ele>109.5</ele><time>2026-05-01T14:06:25Z</time></trkpt><trkpt lat="45.38957149637849" lon="13.617434212746044"><ele>110.0</ele><time>2026-05-01T14:06:26Z</time></trkpt><trkpt lat="45.38925686600512" lon="13.617289904320796"><ele>110.0</ele><time>2026-05-01T14:06:27Z</time></trkpt><trkpt lat="45.38893624000615" lon="13.617156214182959"><ele>110.0</ele><time>2026-05-01T14:06:28Z</time></trkpt><trkpt lat="45.38860929890255" lon="13.617028366054283"><ele>112.0</ele><time>2026-05-01T14:06:29Z</time></trkpt><trkpt lat="45.38827677348153" lon="13.616910766163242"><ele>114.0</ele><time>2026-05-01T14:06:30Z</time></trkpt><trkpt lat="45.38793967869654" lon="13.61680532520119"><ele>115.5</ele><time>2026-05-01T14:06:31Z</time></trkpt><trkpt lat="45.38760012604652" lon="13.616712799137714"><ele>117.0</ele><time>2026-05-01T14:06:32Z</time></trkpt><trkpt lat="45.387261892836634" lon="13.616630668574064"><ele>115.0</ele><time>2026-05-01T14:06:33Z</time></trkpt><trkpt lat="45.38692274095581" lon="13.6165612605033"><ele>113.0</ele><time>2026-05-01T14:06:34Z</time></trkpt><trkpt lat="45.38658495473506" lon="13.61651017591978"><ele>111.5</ele><time>2026-05-01T14:06:35Z</time></trkpt><trkpt lat="45.38624913481114" lon="13.616477621687984"><ele>110.0</ele><time>2026-05-01T14:06:36Z</time></trkpt><trkpt lat="45.38590851189463" lon="13.616456556321465"><ele>110.0</ele><time>2026-05-01T14:06:37Z</time></trkpt><trkpt lat="45.38556757313445" lon="13.61644846389898"><ele>110.0</ele><time>2026-05-01T14:06:38Z</time></trkpt><trkpt lat="45.38522541221447" lon="13.616454457578566"><ele>108.5</ele><time>2026-05-01T14:06:39Z</time></trkpt><trkpt lat="45.38488254779915" lon="13.61647082907057"><ele>107.0</ele><time>2026-05-01T14:06:40Z</time></trkpt><trkpt lat="45.38454101995471" lon="13.616499998179751"><ele>105.0</ele><time>2026-05-01T14:06:41Z</time></trkpt><trkpt lat="45.38420047428183" lon="13.61654152177747"><ele>103.0</ele><time>2026-05-01T14:06:42Z</time></trkpt><trkpt lat="45.383860347521406" lon="13.616595805917076"><ele>100.0</ele><time>2026-05-01T14:06:43Z</time></trkpt><trkpt lat="45.38352207619207" lon="13.616665300672135"><ele>97.0</ele><time>2026-05-01T14:06:44Z</time></trkpt><trkpt lat="45.38318554300474" lon="13.616748136960197"><ele>97.5</ele><time>2026-05-01T14:06:45Z</time></trkpt><trkpt lat="45.38284880314004" lon="13.616843535991896"><ele>98.0</ele><time>2026-05-01T14:06:46Z</time></trkpt><trkpt lat="45.382515449469444" lon="13.616951689466381"><ele>101.0</ele><time>2026-05-01T14:06:47Z</time></trkpt><trkpt lat="45.38218493240535" lon="13.61707231127483"><ele>104.0</ele><time>2026-05-01T14:06:48Z</time></trkpt><trkpt lat="45.38185610803374" lon="13.617202097949058"><ele>104.0</ele><time>2026-05-01T14:06:49Z</time></trkpt><trkpt lat="45.381527541993044" lon="13.617343645555513"><ele>104.0</ele><time>2026-05-01T14:06:50Z</time></trkpt><trkpt lat="45.3812019405557" lon="13.61749971898313"><ele>103.0</ele><time>2026-05-01T14:06:51Z</time></trkpt><trkpt lat="45.380879898324324" lon="13.617669102008275"><ele>102.0</ele><time>2026-05-01T14:06:52Z</time></trkpt><trkpt lat="45.38056231517269" lon="13.6178502076897"><ele>100.0</ele><time>2026-05-01T14:06:53Z</time></trkpt><trkpt lat="45.38024788996709" lon="13.618040837947005"><ele>98.0</ele><time>2026-05-01T14:06:54Z</time></trkpt><trkpt lat="45.37993603687731" lon="13.618240017958243"><ele>99.0</ele><time>2026-05-01T14:06:55Z</time></trkpt><trkpt lat="45.37962603999133" lon="13.618440991784993"><ele>100.0</ele><time>2026-05-01T14:06:56Z</time></trkpt><trkpt lat="45.37931637395012" lon="13.618643862798487"><ele>100.5</ele><time>2026-05-01T14:06:57Z</time></trkpt><trkpt lat="45.37900687362593" lon="13.61884746341668"><ele>101.0</ele><time>2026-05-01T14:06:58Z</time></trkpt><trkpt lat="45.37869708249402" lon="13.619050606015236"><ele>102.0</ele><time>2026-05-01T14:06:59Z</time></trkpt><trkpt lat="45.378385588175775" lon="13.619253769501455"><ele>103.0</ele><time>2026-05-01T14:07:00Z</time></trkpt><trkpt lat="45.37807380660792" lon="13.619455263802621"><ele>104.5</ele><time>2026-05-01T14:07:01Z</time></trkpt><trkpt lat="45.37776483293426" lon="13.619657879892028"><ele>106.0</ele><time>2026-05-01T14:07:02Z</time></trkpt><trkpt lat="45.37745644098681" lon="13.619860517945067"><ele>104.5</ele><time>2026-05-01T14:07:03Z</time></trkpt><trkpt lat="45.377147902878136" lon="13.620067294732202"><ele>103.0</ele><time>2026-05-01T14:07:04Z</time></trkpt><trkpt lat="45.37683934743526" lon="13.620275571514467"><ele>104.5</ele><time>2026-05-01T14:07:05Z</time></trkpt><trkpt lat="45.376530324562005" lon="13.620483386026399"><ele>106.0</ele><time>2026-05-01T14:07:06Z</time></trkpt><trkpt lat="45.37622154803721" lon="13.62068896524632"><ele>103.0</ele><time>2026-05-01T14:07:07Z</time></trkpt><trkpt lat="45.37591168904598" lon="13.620895241297792"><ele>100.0</ele><time>2026-05-01T14:07:08Z</time></trkpt><trkpt lat="45.37560218473207" lon="13.621100284856722"><ele>100.5</ele><time>2026-05-01T14:07:09Z</time></trkpt><trkpt lat="45.37529167853649" lon="13.621304019828145"><ele>101.0</ele><time>2026-05-01T14:07:10Z</time></trkpt><trkpt lat="45.37498097637135" lon="13.621508774392556"><ele>101.0</ele><time>2026-05-01T14:07:11Z</time></trkpt><trkpt lat="45.374671166611456" lon="13.621714753612183"><ele>101.0</ele><time>2026-05-01T14:07:12Z</time></trkpt><trkpt lat="45.37436234336693" lon="13.621919289552112"><ele>100.5</ele><time>2026-05-01T14:07:13Z</time></trkpt><trkpt lat="45.37405292373632" lon="13.62212484461055"><ele>100.0</ele><time>2026-05-01T14:07:14Z</time></trkpt><trkpt lat="45.373742595781934" lon="13.622328801010688"><ele>99.0</ele><time>2026-05-01T14:07:15Z</time></trkpt><trkpt lat="45.37343206526841" lon="13.622532446831988"><ele>98.0</ele><time>2026-05-01T14:07:16Z</time></trkpt><trkpt lat="45.37312232948241" lon="13.6227353437645"><ele>97.0</ele><time>2026-05-01T14:07:17Z</time></trkpt><trkpt lat="45.3728126882769" lon="13.622938649900064"><ele>96.0</ele><time>2026-05-01T14:07:18Z</time></trkpt><trkpt lat="45.37250118140855" lon="13.62313604549456"><ele>98.0</ele><time>2026-05-01T14:07:19Z</time></trkpt><trkpt lat="45.37218827483793" lon="13.62332575919618"><ele>100.0</ele><time>2026-05-01T14:07:20Z</time></trkpt><trkpt lat="45.37187227599307" lon="13.623507432648866"><ele>101.0</ele><time>2026-05-01T14:07:21Z</time></trkpt><trkpt lat="45.37155303484614" lon="13.623675196063642"><ele>102.0</ele><time>2026-05-01T14:07:22Z</time></trkpt><trkpt lat="45.371230299993194" lon="13.623830719932311"><ele>105.0</ele><time>2026-05-01T14:07:23Z</time></trkpt><trkpt lat="45.370903287054546" lon="13.623966681858773"><ele>108.0</ele><time>2026-05-01T14:07:24Z</time></trkpt><trkpt lat="45.37057363902197" lon="13.624092977499837"><ele>110.0</ele><time>2026-05-01T14:07:25Z</time></trkpt><trkpt lat="45.370240707869144" lon="13.624201575711275"><ele>112.0</ele><time>2026-05-01T14:07:26Z</time></trkpt><trkpt lat="45.36990542286188" lon="13.624292769715662"><ele>114.0</ele><time>2026-05-01T14:07:27Z</time></trkpt><trkpt lat="45.36956756425691" lon="13.624368687783338"><ele>116.0</ele><time>2026-05-01T14:07:28Z</time></trkpt><trkpt lat="45.369227805552995" lon="13.62442628238239"><ele>116.0</ele><time>2026-05-01T14:07:29Z</time></trkpt><trkpt lat="45.368887039213135" lon="13.62446898475086"><ele>116.0</ele><time>2026-05-01T14:07:30Z</time></trkpt><trkpt lat="45.3685455846301" lon="13.624496017494856"><ele>118.0</ele><time>2026-05-01T14:07:31Z</time></trkpt><trkpt lat="45.36820444766623" lon="13.624507453164853"><ele>120.0</ele><time>2026-05-01T14:07:32Z</time></trkpt><trkpt lat="45.36786403487346" lon="13.624498939544214"><ele>117.0</ele><time>2026-05-01T14:07:33Z</time></trkpt><trkpt lat="45.36752290133144" lon="13.62447519782121"><ele>114.0</ele><time>2026-05-01T14:07:34Z</time></trkpt><trkpt lat="45.36718249276053" lon="13.624438213924023"><ele>114.0</ele><time>2026-05-01T14:07:35Z</time></trkpt><trkpt lat="45.36684244626123" lon="13.624381167443769"><ele>114.0</ele><time>2026-05-01T14:07:36Z</time></trkpt><trkpt lat="45.36650200193675" lon="13.62431322131237"><ele>115.0</ele><time>2026-05-01T14:07:37Z</time></trkpt><trkpt lat="45.36616434024898" lon="13.624225935390244"><ele>116.0</ele><time>2026-05-01T14:07:38Z</time></trkpt><trkpt lat="45.36582964532885" lon="13.6241168524677"><ele>114.5</ele><time>2026-05-01T14:07:39Z</time></trkpt><trkpt lat="45.3654962178361" lon="13.623996531303009"><ele>113.0</ele><time>2026-05-01T14:07:40Z</time></trkpt><trkpt lat="45.365168321991646" lon="13.623855836154588"><ele>113.0</ele><time>2026-05-01T14:07:41Z</time></trkpt><trkpt lat="45.3648445195347" lon="13.623700949469265"><ele>113.0</ele><time>2026-05-01T14:07:42Z</time></trkpt><trkpt lat="45.36452260443923" lon="13.623530043496636"><ele>111.5</ele><time>2026-05-01T14:07:43Z</time></trkpt><trkpt lat="45.36420494080899" lon="13.623345689230407"><ele>110.0</ele><time>2026-05-01T14:07:44Z</time></trkpt><trkpt lat="45.36389142534413" lon="13.623149449698094"><ele>109.0</ele><time>2026-05-01T14:07:45Z</time></trkpt><trkpt lat="45.3635797520332" lon="13.62294292796295"><ele>108.0</ele><time>2026-05-01T14:07:46Z</time></trkpt><trkpt lat="45.36327163889577" lon="13.622727138805828"><ele>105.5</ele><time>2026-05-01T14:07:47Z</time></trkpt><trkpt lat="45.36296280967411" lon="13.622515045251728"><ele>103.0</ele><time>2026-05-01T14:07:48Z</time></trkpt><trkpt lat="45.3626555629614" lon="13.622296764866892"><ele>103.0</ele><time>2026-05-01T14:07:49Z</time></trkpt><trkpt lat="45.36234974440846" lon="13.622076078966105"><ele>103.0</ele><time>2026-05-01T14:07:50Z</time></trkpt><trkpt lat="45.36204333592676" lon="13.621857499103209"><ele>101.0</ele><time>2026-05-01T14:07:51Z</time></trkpt><trkpt lat="45.361732983796415" lon="13.621652302135239"><ele>99.0</ele><time>2026-05-01T14:07:52Z</time></trkpt><trkpt lat="45.36141849471886" lon="13.621460920908671"><ele>97.5</ele><time>2026-05-01T14:07:53Z</time></trkpt><trkpt lat="45.361101057482436" lon="13.62128122905703"><ele>96.0</ele><time>2026-05-01T14:07:54Z</time></trkpt><trkpt lat="45.36078046685354" lon="13.621119906283125"><ele>95.0</ele><time>2026-05-01T14:07:55Z</time></trkpt><trkpt lat="45.36045458239387" lon="13.620982523835634"><ele>94.0</ele><time>2026-05-01T14:07:56Z</time></trkpt><trkpt lat="45.3601242436903" lon="13.620867173918217"><ele>94.0</ele><time>2026-05-01T14:07:57Z</time></trkpt><trkpt lat="45.35979127446222" lon="13.620767851892968"><ele>94.0</ele><time>2026-05-01T14:07:58Z</time></trkpt><trkpt lat="45.35945690515035" lon="13.620672198670201"><ele>95.5</ele><time>2026-05-01T14:07:59Z</time></trkpt><trkpt lat="45.35912065428277" lon="13.620583866188362"><ele>97.0</ele><time>2026-05-01T14:08:00Z</time></trkpt><trkpt lat="45.35878229932555" lon="13.620499482110118"><ele>97.5</ele><time>2026-05-01T14:08:01Z</time></trkpt><trkpt lat="45.358447562487456" lon="13.620404156431098"><ele>98.0</ele><time>2026-05-01T14:08:02Z</time></trkpt><trkpt lat="45.35811726007887" lon="13.620286706275355"><ele>98.0</ele><time>2026-05-01T14:08:03Z</time></trkpt><trkpt lat="45.357792049368136" lon="13.620143984425729"><ele>98.0</ele><time>2026-05-01T14:08:04Z</time></trkpt><trkpt lat="45.35747364848055" lon="13.619972336901688"><ele>99.0</ele><time>2026-05-01T14:08:05Z</time></trkpt><trkpt lat="45.35716520949696" lon="13.619769800907877"><ele>100.0</ele><time>2026-05-01T14:08:06Z</time></trkpt><trkpt lat="45.35686739888893" lon="13.619536975190124"><ele>99.0</ele><time>2026-05-01T14:08:07Z</time></trkpt><trkpt lat="45.3565811550222" lon="13.61927741474919"><ele>98.0</ele><time>2026-05-01T14:08:08Z</time></trkpt><trkpt lat="45.35629993747601" lon="13.619003178360604"><ele>97.5</ele><time>2026-05-01T14:08:09Z</time></trkpt><trkpt lat="45.3560119967268" lon="13.618741633856681"><ele>97.0</ele><time>2026-05-01T14:08:10Z</time></trkpt><trkpt lat="45.35571850579666" lon="13.618495304334036"><ele>95.5</ele><time>2026-05-01T14:08:11Z</time></trkpt><trkpt lat="45.3554162949428" lon="13.618266433452698"><ele>94.0</ele><time>2026-05-01T14:08:12Z</time></trkpt><trkpt lat="45.35510543154272" lon="13.618062585809929"><ele>94.0</ele><time>2026-05-01T14:08:13Z</time></trkpt><trkpt lat="45.35478798139654" lon="13.617895778889743"><ele>94.0</ele><time>2026-05-01T14:08:14Z</time></trkpt><trkpt lat="45.35446273189537" lon="13.617762831939336"><ele>93.5</ele><time>2026-05-01T14:08:15Z</time></trkpt><trkpt lat="45.354131993511224" lon="13.617668342282007"><ele>93.0</ele><time>2026-05-01T14:08:16Z</time></trkpt><trkpt lat="45.3537977168497" lon="13.61760658643019"><ele>92.0</ele><time>2026-05-01T14:08:17Z</time></trkpt><trkpt lat="45.35345915953577" lon="13.61757992597569"><ele>91.0</ele><time>2026-05-01T14:08:18Z</time></trkpt><trkpt lat="45.353120320503855" lon="13.61759144303122"><ele>91.5</ele><time>2026-05-01T14:08:19Z</time></trkpt><trkpt lat="45.352783136868055" lon="13.617642180981466"><ele>92.0</ele><time>2026-05-01T14:08:20Z</time></trkpt><trkpt lat="45.35244970881402" lon="13.61772347228074"><ele>91.0</ele><time>2026-05-01T14:08:21Z</time></trkpt><trkpt lat="45.352120005102705" lon="13.61783669983858"><ele>90.0</ele><time>2026-05-01T14:08:22Z</time></trkpt><trkpt lat="45.35179684004092" lon="13.617988917488523"><ele>90.0</ele><time>2026-05-01T14:08:23Z</time></trkpt><trkpt lat="45.35148178919656" lon="13.618168577254938"><ele>90.0</ele><time>2026-05-01T14:08:24Z</time></trkpt><trkpt lat="45.35117244903186" lon="13.618369613518619"><ele>89.0</ele><time>2026-05-01T14:08:25Z</time></trkpt><trkpt lat="45.35087623800296" lon="13.618593771820327"><ele>88.0</ele><time>2026-05-01T14:08:26Z</time></trkpt><trkpt lat="45.35059315253705" lon="13.618830478775592"><ele>85.0</ele><time>2026-05-01T14:08:27Z</time></trkpt><trkpt lat="45.350320793998556" lon="13.619073008976295"><ele>82.0</ele><time>2026-05-01T14:08:28Z</time></trkpt><trkpt lat="45.35005791062031" lon="13.61932542883752"><ele>82.5</ele><time>2026-05-01T14:08:29Z</time></trkpt><trkpt lat="45.34980421443084" lon="13.619580974205691"><ele>83.0</ele><time>2026-05-01T14:08:30Z</time></trkpt><trkpt lat="45.349554308437405" lon="13.619833238211394"><ele>81.0</ele><time>2026-05-01T14:08:31Z</time></trkpt><trkpt lat="45.34930377921257" lon="13.62007855124524"><ele>79.0</ele><time>2026-05-01T14:08:32Z</time></trkpt><trkpt lat="45.34905624198477" lon="13.620312235979606"><ele>78.5</ele><time>2026-05-01T14:08:33Z</time></trkpt><trkpt lat="45.34881514283614" lon="13.620532509210644"><ele>78.0</ele><time>2026-05-01T14:08:34Z</time></trkpt><trkpt lat="45.348578741194615" lon="13.620740818152708"><ele>78.0</ele><time>2026-05-01T14:08:35Z</time></trkpt><trkpt lat="45.34835129394965" lon="13.620926486997753"><ele>78.0</ele><time>2026-05-01T14:08:36Z</time></trkpt><trkpt lat="45.34814107875566" lon="13.621086615697227"><ele>76.33333333333333</ele><time>2026-05-01T14:08:37Z</time></trkpt><trkpt lat="45.34794279627303" lon="13.621228783217056"><ele>74.66666666666666</ele><time>2026-05-01T14:08:38Z</time></trkpt><trkpt lat="45.347747328972574" lon="13.621359785003206"><ele>73.0</ele><time>2026-05-01T14:08:39Z</time></trkpt><trkpt lat="45.34755495001406" lon="13.621483552564904"><ele>73.0</ele><time>2026-05-01T14:08:40Z</time></trkpt><trkpt lat="45.347367243260976" lon="13.62160161144618"><ele>73.0</ele><time>2026-05-01T14:08:41Z</time></trkpt><trkpt lat="45.347180842964676" lon="13.621716381066532"><ele>73.0</ele><time>2026-05-01T14:08:42Z</time></trkpt><trkpt lat="45.34699311837765" lon="13.621827421614736"><ele>74.33333333333333</ele><time>2026-05-01T14:08:43Z</time></trkpt><trkpt lat="45.34680652597939" lon="13.621937361889312"><ele>75.66666666666667</ele><time>2026-05-01T14:08:44Z</time></trkpt><trkpt lat="45.346620579857046" lon="13.622043510763623"><ele>77.0</ele><time>2026-05-01T14:08:45Z</time></trkpt><trkpt lat="45.346435188562104" lon="13.622147133344656"><ele>73.33333333333334</ele><time>2026-05-01T14:08:46Z</time></trkpt><trkpt lat="45.34625434216993" lon="13.622241521750912"><ele>69.66666666666667</ele><time>2026-05-01T14:08:47Z</time></trkpt><trkpt lat="45.34607669242146" lon="13.622327858693152"><ele>66.0</ele><time>2026-05-01T14:08:48Z</time></trkpt><trkpt lat="45.34590245122585" lon="13.622413065877012"><ele>66.0</ele><time>2026-05-01T14:08:49Z</time></trkpt><trkpt lat="45.34573173310317" lon="13.62249433777283"><ele>66.0</ele><time>2026-05-01T14:08:50Z</time></trkpt><trkpt lat="45.34556397168627" lon="13.622569930407805"><ele>66.0</ele><time>2026-05-01T14:08:51Z</time></trkpt><trkpt lat="45.34539923435589" lon="13.622639404140592"><ele>67.0</ele><time>2026-05-01T14:08:52Z</time></trkpt><trkpt lat="45.345236806771986" lon="13.622709466563597"><ele>68.0</ele><time>2026-05-01T14:08:53Z</time></trkpt><trkpt lat="45.34507624282307" lon="13.622778595020211"><ele>69.0</ele><time>2026-05-01T14:08:54Z</time></trkpt><trkpt lat="45.34491436908566" lon="13.622850272015514"><ele>67.0</ele><time>2026-05-01T14:08:55Z</time></trkpt><trkpt lat="45.3447506975845" lon="13.622917905251597"><ele>65.0</ele><time>2026-05-01T14:08:56Z</time></trkpt><trkpt lat="45.34458293218151" lon="13.622983036504769"><ele>63.0</ele><time>2026-05-01T14:08:57Z</time></trkpt><trkpt lat="45.344415529854224" lon="13.623044783443293"><ele>63.0</ele><time>2026-05-01T14:08:58Z</time></trkpt><trkpt lat="45.344252474804094" lon="13.623103583816"><ele>63.0</ele><time>2026-05-01T14:08:59Z</time></trkpt><trkpt lat="45.344093101254394" lon="13.623159450469362"><ele>63.0</ele><time>2026-05-01T14:09:00Z</time></trkpt><trkpt lat="45.34393552326575" lon="13.623214930868407"><ele>63.33333333333333</ele><time>2026-05-01T14:09:01Z</time></trkpt><trkpt lat="45.343780974670466" lon="13.623264695901666"><ele>63.666666666666664</ele><time>2026-05-01T14:09:02Z</time></trkpt><trkpt lat="45.34362919519718" lon="13.62331178599927"><ele>64.0</ele><time>2026-05-01T14:09:03Z</time></trkpt><trkpt lat="45.34347898647671" lon="13.623353348648576"><ele>64.0</ele><time>2026-05-01T14:09:04Z</time></trkpt><trkpt lat="45.34332762449885" lon="13.62339301649792"><ele>64.0</ele><time>2026-05-01T14:09:05Z</time></trkpt><trkpt lat="45.34317462656527" lon="13.623437005470711"><ele>64.0</ele><time>2026-05-01T14:09:06Z</time></trkpt><trkpt lat="45.343020764776185" lon="13.623481380929704"><ele>63.33333333333333</ele><time>2026-05-01T14:09:07Z</time></trkpt><trkpt lat="45.3428646191736" lon="13.623522391637197"><ele>62.66666666666667</ele><time>2026-05-01T14:09:08Z</time></trkpt><trkpt lat="45.342707117588404" lon="13.623561124510593"><ele>62.0</ele><time>2026-05-01T14:09:09Z</time></trkpt><trkpt lat="45.34254991132924" lon="13.623593269904962"><ele>62.0</ele><time>2026-05-01T14:09:10Z</time></trkpt><trkpt lat="45.342397082524826" lon="13.62362125594392"><ele>62.0</ele><time>2026-05-01T14:09:11Z</time></trkpt><trkpt lat="45.3422451252327" lon="13.623651037818984"><ele>62.0</ele><time>2026-05-01T14:09:12Z</time></trkpt><trkpt lat="45.342094154863744" lon="13.623676535528524"><ele>54.66666666666667</ele><time>2026-05-01T14:09:13Z</time></trkpt><trkpt lat="45.34194032828037" lon="13.623709332696638"><ele>47.333333333333336</ele><time>2026-05-01T14:09:14Z</time></trkpt><trkpt lat="45.34178456877342" lon="13.623739481137864"><ele>40.0</ele><time>2026-05-01T14:09:15Z</time></trkpt><trkpt lat="45.3416258390417" lon="13.6237662765337"><ele>40.0</ele><time>2026-05-01T14:09:16Z</time></trkpt><trkpt lat="45.34146433068928" lon="13.623789966639391"><ele>40.0</ele><time>2026-05-01T14:09:17Z</time></trkpt><trkpt lat="45.341300136810865" lon="13.62381436361864"><ele>40.0</ele><time>2026-05-01T14:09:18Z</time></trkpt><trkpt lat="45.34113199630591" lon="13.6238343370514"><ele>42.0</ele><time>2026-05-01T14:09:19Z</time></trkpt><trkpt lat="45.340960101792476" lon="13.623849195247079"><ele>44.0</ele><time>2026-05-01T14:09:20Z</time></trkpt><trkpt lat="45.34078390706939" lon="13.623866607980853"><ele>46.0</ele><time>2026-05-01T14:09:21Z</time></trkpt><trkpt lat="45.340604370185666" lon="13.623885565822325"><ele>46.0</ele><time>2026-05-01T14:09:22Z</time></trkpt><trkpt lat="45.340421708522086" lon="13.623904632319173"><ele>46.0</ele><time>2026-05-01T14:09:23Z</time></trkpt><trkpt lat="45.34023825142484" lon="13.62391989213354"><ele>46.0</ele><time>2026-05-01T14:09:24Z</time></trkpt><trkpt lat="45.34005170683599" lon="13.623936866424119"><ele>46.0</ele><time>2026-05-01T14:09:25Z</time></trkpt><trkpt lat="45.33986512164078" lon="13.623953144933646"><ele>46.0</ele><time>2026-05-01T14:09:26Z</time></trkpt><trkpt lat="45.33967648754223" lon="13.623972310819951"><ele>46.0</ele><time>2026-05-01T14:09:27Z</time></trkpt><trkpt lat="45.33948474257221" lon="13.623930992194767"><ele>43.0</ele><time>2026-05-01T14:09:28Z</time></trkpt><trkpt lat="45.33929680265169" lon="13.62395421688917"><ele>40.0</ele><time>2026-05-01T14:09:29Z</time></trkpt><trkpt lat="45.33911251629906" lon="13.623982121694054"><ele>37.0</ele><time>2026-05-01T14:09:30Z</time></trkpt><trkpt lat="45.338933146552996" lon="13.624006769169508"><ele>30.333333333333336</ele><time>2026-05-01T14:09:31Z</time></trkpt><trkpt lat="45.338757133191486" lon="13.624027996950204"><ele>23.666666666666668</ele><time>2026-05-01T14:09:32Z</time></trkpt><trkpt lat="45.33858392633318" lon="13.62404915659966"><ele>17.0</ele><time>2026-05-01T14:09:33Z</time></trkpt><trkpt lat="45.3384097606682" lon="13.624070420769684"><ele>17.0</ele><time>2026-05-01T14:09:34Z</time></trkpt><trkpt lat="45.338233521215905" lon="13.62409254979149"><ele>17.0</ele><time>2026-05-01T14:09:35Z</time></trkpt><trkpt lat="45.33805312099752" lon="13.624117030402047"><ele>17.0</ele><time>2026-05-01T14:09:36Z</time></trkpt><trkpt lat="45.33786769363256" lon="13.624144257547973"><ele>11.0</ele><time>2026-05-01T14:09:37Z</time></trkpt><trkpt lat="45.33767696324616" lon="13.624173960776213"><ele>5.0</ele><time>2026-05-01T14:09:38Z</time></trkpt><trkpt lat="45.33748453346414" lon="13.624204341103432"><ele>-1.0</ele><time>2026-05-01T14:09:39Z</time></trkpt><trkpt lat="45.33729992865252" lon="13.624235243509697"><ele>-1.3333333333333333</ele><time>2026-05-01T14:09:40Z</time></trkpt><trkpt lat="45.337101275070125" lon="13.624270882343147"><ele>-1.6666666666666665</ele><time>2026-05-01T14:09:41Z</time></trkpt><trkpt lat="45.3369145164343" lon="13.624306423414284"><ele>-2.0</ele><time>2026-05-01T14:09:42Z</time></trkpt><trkpt lat="45.33673463422416" lon="13.624340655860307"><ele>-2.0</ele><time>2026-05-01T14:09:43Z</time></trkpt><trkpt lat="45.33655980281974" lon="13.624374440248788"><ele>-2.0</ele><time>2026-05-01T14:09:44Z</time></trkpt><trkpt lat="45.336388406197536" lon="13.624410539933974"><ele>-2.0</ele><time>2026-05-01T14:09:45Z</time></trkpt><trkpt lat="45.336214166541005" lon="13.624447763390485"><ele>-3.0</ele><time>2026-05-01T14:09:46Z</time></trkpt><trkpt lat="45.33603884733581" lon="13.624487478459375"><ele>-4.0</ele><time>2026-05-01T14:09:47Z</time></trkpt><trkpt lat="45.33586305007761" lon="13.624527307880006"><ele>-5.0</ele><time>2026-05-01T14:09:48Z</time></trkpt><trkpt lat="45.335688041705" lon="13.624568150773934"><ele>-4.333333333333334</ele><time>2026-05-01T14:09:49Z</time></trkpt><trkpt lat="45.33551402873792" lon="13.624610541560807"><ele>-3.666666666666667</ele><time>2026-05-01T14:09:50Z</time></trkpt><trkpt lat="45.335343246329295" lon="13.624676843330969"><ele>-3.0</ele><time>2026-05-01T14:09:51Z</time></trkpt><trkpt lat="45.33516801013133" lon="13.624718780429752"><ele>-3.0</ele><time>2026-05-01T14:09:52Z</time></trkpt><trkpt lat="45.3349943523674" lon="13.624765241819285"><ele>-3.0</ele><time>2026-05-01T14:09:53Z</time></trkpt><trkpt lat="45.33482192968649" lon="13.624813314384214"><ele>-3.0</ele><time>2026-05-01T14:09:54Z</time></trkpt><trkpt lat="45.33464794228449" lon="13.624863023282415"><ele>-3.0</ele><time>2026-05-01T14:09:55Z</time></trkpt><trkpt lat="45.33447351726982" lon="13.624912123206661"><ele>-3.0</ele><time>2026-05-01T14:09:56Z</time></trkpt><trkpt lat="45.3342936778218" lon="13.624941224783338"><ele>-3.0</ele><time>2026-05-01T14:09:57Z</time></trkpt><trkpt lat="45.33411439849335" lon="13.624994728038013"><ele>-3.0</ele><time>2026-05-01T14:09:58Z</time></trkpt><trkpt lat="45.33393058655557" lon="13.6250506930071"><ele>-3.0</ele><time>2026-05-01T14:09:59Z</time></trkpt><trkpt lat="45.33374424422523" lon="13.625108672160238"><ele>-3.0</ele><time>2026-05-01T14:10:00Z</time></trkpt><trkpt lat="45.33356079135708" lon="13.625168696364193"><ele>-3.0</ele><time>2026-05-01T14:10:01Z</time></trkpt><trkpt lat="45.3333817549343" lon="13.625227627284321"><ele>-3.0</ele><time>2026-05-01T14:10:02Z</time></trkpt><trkpt lat="45.333211339876144" lon="13.625287283909897"><ele>-3.0</ele><time>2026-05-01T14:10:03Z</time></trkpt><trkpt lat="45.33304695707309" lon="13.625368844352694"><ele>-3.0</ele><time>2026-05-01T14:10:04Z</time></trkpt><trkpt lat="45.33288098824488" lon="13.625426676333257"><ele>-3.0</ele><time>2026-05-01T14:10:05Z</time></trkpt><trkpt lat="45.33271484567866" lon="13.625485592331888"><ele>-3.0</ele><time>2026-05-01T14:10:06Z</time></trkpt><trkpt lat="45.33254533404277" lon="13.625546545124903"><ele>-3.0</ele><time>2026-05-01T14:10:07Z</time></trkpt><trkpt lat="45.3323732272556" lon="13.625611209471922"><ele>-3.0</ele><time>2026-05-01T14:10:08Z</time></trkpt><trkpt lat="45.33219545850559" lon="13.625656736216538"><ele>-3.0</ele><time>2026-05-01T14:10:09Z</time></trkpt><trkpt lat="45.3320222079548" lon="13.625724198936538"><ele>-3.333333333333333</ele><time>2026-05-01T14:10:10Z</time></trkpt><trkpt lat="45.331853188815764" lon="13.625791520717778"><ele>-3.6666666666666665</ele><time>2026-05-01T14:10:11Z</time></trkpt><trkpt lat="45.331688293903525" lon="13.625858293246997"><ele>-4.0</ele><time>2026-05-01T14:10:12Z</time></trkpt><trkpt lat="45.331526457290536" lon="13.625924334680459"><ele>-4.0</ele><time>2026-05-01T14:10:13Z</time></trkpt><trkpt lat="45.33136459278712" lon="13.625993504269498"><ele>-4.0</ele><time>2026-05-01T14:10:14Z</time></trkpt><trkpt lat="45.33120534276954" lon="13.626083659154538"><ele>-4.0</ele><time>2026-05-01T14:10:15Z</time></trkpt><trkpt lat="45.3310407940004" lon="13.626150765528871"><ele>-4.0</ele><time>2026-05-01T14:10:16Z</time></trkpt><trkpt lat="45.330875733545035" lon="13.62622384645635"><ele>-4.0</ele><time>2026-05-01T14:10:17Z</time></trkpt><trkpt lat="45.33071065671968" lon="13.626300195158512"><ele>-4.0</ele><time>2026-05-01T14:10:18Z</time></trkpt><trkpt lat="45.33054673744989" lon="13.626378206841364"><ele>-3.6666666666666665</ele><time>2026-05-01T14:10:19Z</time></trkpt><trkpt lat="45.33037787482696" lon="13.626432830137029"><ele>-3.333333333333333</ele><time>2026-05-01T14:10:20Z</time></trkpt><trkpt lat="45.33021399572777" lon="13.626510082692649"><ele>-3.0</ele><time>2026-05-01T14:10:21Z</time></trkpt><trkpt lat="45.33005008534134" lon="13.626588913627645"><ele>-3.0</ele><time>2026-05-01T14:10:22Z</time></trkpt><trkpt lat="45.32988397093553" lon="13.626668804568977"><ele>-3.0</ele><time>2026-05-01T14:10:23Z</time></trkpt><trkpt lat="45.329714555769996" lon="13.626753159705887"><ele>-3.0</ele><time>2026-05-01T14:10:24Z</time></trkpt><trkpt lat="45.3295423967725" lon="13.626839755009577"><ele>-3.0</ele><time>2026-05-01T14:10:25Z</time></trkpt><trkpt lat="45.32936659762855" lon="13.6269300776147"><ele>-3.0</ele><time>2026-05-01T14:10:26Z</time></trkpt><trkpt lat="45.329190067745216" lon="13.627023101471886"><ele>-3.0</ele><time>2026-05-01T14:10:27Z</time></trkpt><trkpt lat="45.329018395615726" lon="13.627114229527253"><ele>-2.6666666666666665</ele><time>2026-05-01T14:10:28Z</time></trkpt><trkpt lat="45.32885116686395" lon="13.62720365947023"><ele>-2.333333333333333</ele><time>2026-05-01T14:10:29Z</time></trkpt><trkpt lat="45.32868985111411" lon="13.627290165840794"><ele>-2.0</ele><time>2026-05-01T14:10:30Z</time></trkpt><trkpt lat="45.32853401748276" lon="13.627377196282783"><ele>-2.0</ele><time>2026-05-01T14:10:31Z</time></trkpt><trkpt lat="45.32838184849942" lon="13.627462903828507"><ele>-2.0</ele><time>2026-05-01T14:10:32Z</time></trkpt><trkpt lat="45.328230221030545" lon="13.627548306637344"><ele>-2.0</ele><time>2026-05-01T14:10:33Z</time></trkpt><trkpt lat="45.32808410871311" lon="13.627656308440383"><ele>7.000000000000001</ele><time>2026-05-01T14:10:34Z</time></trkpt><trkpt lat="45.327928112248074" lon="13.627747667334523"><ele>16.0</ele><time>2026-05-01T14:10:35Z</time></trkpt><trkpt lat="45.32776205898807" lon="13.627819878449895"><ele>25.0</ele><time>2026-05-01T14:10:36Z</time></trkpt><trkpt lat="45.32760763847739" lon="13.627938479382534"><ele>25.0</ele><time>2026-05-01T14:10:37Z</time></trkpt><trkpt lat="45.32744532006043" lon="13.628038062942"><ele>25.0</ele><time>2026-05-01T14:10:38Z</time></trkpt><trkpt lat="45.327278626423585" lon="13.628114173229285"><ele>25.0</ele><time>2026-05-01T14:10:39Z</time></trkpt><trkpt lat="45.327121149568036" lon="13.628208721125512"><ele>36.333333333333336</ele><time>2026-05-01T14:10:40Z</time></trkpt><trkpt lat="45.326972615812885" lon="13.6283267560769"><ele>47.66666666666667</ele><time>2026-05-01T14:10:41Z</time></trkpt><trkpt lat="45.32681472432023" lon="13.628423761078427"><ele>59.0</ele><time>2026-05-01T14:10:42Z</time></trkpt><trkpt lat="45.32665397517863" lon="13.62852975472871"><ele>61.0</ele><time>2026-05-01T14:10:43Z</time></trkpt><trkpt lat="45.326490530088" lon="13.628643283540985"><ele>63.0</ele><time>2026-05-01T14:10:44Z</time></trkpt><trkpt lat="45.32632404269215" lon="13.628766580170874"><ele>65.0</ele><time>2026-05-01T14:10:45Z</time></trkpt><trkpt lat="45.32615588965569" lon="13.628900016040951"><ele>65.0</ele><time>2026-05-01T14:10:46Z</time></trkpt><trkpt lat="45.32597968510116" lon="13.629014549455169"><ele>65.0</ele><time>2026-05-01T14:10:47Z</time></trkpt><trkpt lat="45.32582838255995" lon="13.629168765525272"><ele>65.0</ele><time>2026-05-01T14:10:48Z</time></trkpt><trkpt lat="45.32567204234362" lon="13.629306670243269"><ele>67.66666666666667</ele><time>2026-05-01T14:10:49Z</time></trkpt><trkpt lat="45.32551845541695" lon="13.629454303562468"><ele>70.33333333333333</ele><time>2026-05-01T14:10:50Z</time></trkpt><trkpt lat="45.32536809828042" lon="13.629609149478476"><ele>73.0</ele><time>2026-05-01T14:10:51Z</time></trkpt><trkpt lat="45.32522125509934" lon="13.629765834127248"><ele>73.0</ele><time>2026-05-01T14:10:52Z</time></trkpt><trkpt lat="45.32507676091004" lon="13.629923757815353"><ele>73.0</ele><time>2026-05-01T14:10:53Z</time></trkpt><trkpt lat="45.32493524781903" lon="13.63008670499948"><ele>73.0</ele><time>2026-05-01T14:10:54Z</time></trkpt><trkpt lat="45.32479817229402" lon="13.630258541348523"><ele>76.0</ele><time>2026-05-01T14:10:55Z</time></trkpt><trkpt lat="45.32466706095401" lon="13.630437620879416"><ele>79.0</ele><time>2026-05-01T14:10:56Z</time></trkpt><trkpt lat="45.32453963420351" lon="13.630620965977954"><ele>82.0</ele><time>2026-05-01T14:10:57Z</time></trkpt><trkpt lat="45.324413253797196" lon="13.630808327303672"><ele>82.0</ele><time>2026-05-01T14:10:58Z</time></trkpt><trkpt lat="45.324290036873286" lon="13.631003281045516"><ele>82.0</ele><time>2026-05-01T14:10:59Z</time></trkpt><trkpt lat="45.324169387622874" lon="13.63120038067153"><ele>82.0</ele><time>2026-05-01T14:11:00Z</time></trkpt><trkpt lat="45.324053375750196" lon="13.631402468491341"><ele>82.33333333333333</ele><time>2026-05-01T14:11:01Z</time></trkpt><trkpt lat="45.3239424296056" lon="13.631613682098134"><ele>82.66666666666667</ele><time>2026-05-01T14:11:02Z</time></trkpt><trkpt lat="45.323832693371024" lon="13.631839114877069"><ele>83.0</ele><time>2026-05-01T14:11:03Z</time></trkpt><trkpt lat="45.32372532030195" lon="13.63208145022126"><ele>83.0</ele><time>2026-05-01T14:11:04Z</time></trkpt><trkpt lat="45.32361781545379" lon="13.632339207158324"><ele>83.0</ele><time>2026-05-01T14:11:05Z</time></trkpt><trkpt lat="45.32351043529118" lon="13.632611094332336"><ele>83.0</ele><time>2026-05-01T14:11:06Z</time></trkpt><trkpt lat="45.32340356206536" lon="13.632897213757555"><ele>80.5</ele><time>2026-05-01T14:11:07Z</time></trkpt><trkpt lat="45.32329759755143" lon="13.633201530128112"><ele>78.0</ele><time>2026-05-01T14:11:08Z</time></trkpt><trkpt lat="45.32319382459312" lon="13.633519467995727"><ele>74.5</ele><time>2026-05-01T14:11:09Z</time></trkpt><trkpt lat="45.323095363711865" lon="13.633855825056598"><ele>71.0</ele><time>2026-05-01T14:11:10Z</time></trkpt><trkpt lat="45.32300286934068" lon="13.634205454790727"><ele>78.0</ele><time>2026-05-01T14:11:11Z</time></trkpt><trkpt lat="45.32292142617423" lon="13.634573133582428"><ele>85.0</ele><time>2026-05-01T14:11:12Z</time></trkpt><trkpt lat="45.3228493691766" lon="13.634953916849362"><ele>85.0</ele><time>2026-05-01T14:11:13Z</time></trkpt><trkpt lat="45.32278495494433" lon="13.635344768922117"><ele>85.0</ele><time>2026-05-01T14:11:14Z</time></trkpt><trkpt lat="45.322726632508484" lon="13.63574616857502"><ele>86.5</ele><time>2026-05-01T14:11:15Z</time></trkpt><trkpt lat="45.32268067811395" lon="13.636156425041767"><ele>88.0</ele><time>2026-05-01T14:11:16Z</time></trkpt><trkpt lat="45.32264860693805" lon="13.636573990887648"><ele>89.0</ele><time>2026-05-01T14:11:17Z</time></trkpt><trkpt lat="45.32263066828195" lon="13.636998359039792"><ele>90.0</ele><time>2026-05-01T14:11:18Z</time></trkpt><trkpt lat="45.32262751652074" lon="13.63742568803684"><ele>92.5</ele><time>2026-05-01T14:11:19Z</time></trkpt><trkpt lat="45.322639032731225" lon="13.637855876860254"><ele>95.0</ele><time>2026-05-01T14:11:20Z</time></trkpt><trkpt lat="45.322662019264804" lon="13.638288309915428"><ele>98.5</ele><time>2026-05-01T14:11:21Z</time></trkpt><trkpt lat="45.32269837253314" lon="13.638725030768699"><ele>102.0</ele><time>2026-05-01T14:11:22Z</time></trkpt><trkpt lat="45.3227468252616" lon="13.639164401580397"><ele>104.5</ele><time>2026-05-01T14:11:23Z</time></trkpt><trkpt lat="45.32281108452478" lon="13.639604718338356"><ele>107.0</ele><time>2026-05-01T14:11:24Z</time></trkpt><trkpt lat="45.32288768176271" lon="13.640044406232484"><ele>110.0</ele><time>2026-05-01T14:11:25Z</time></trkpt><trkpt lat="45.32296679663319" lon="13.64048124921409"><ele>113.0</ele><time>2026-05-01T14:11:26Z</time></trkpt><trkpt lat="45.323052457848604" lon="13.640929918301435"><ele>111.5</ele><time>2026-05-01T14:11:27Z</time></trkpt><trkpt lat="45.323135506110795" lon="13.6413771313152"><ele>110.0</ele><time>2026-05-01T14:11:28Z</time></trkpt><trkpt lat="45.32321497321081" lon="13.641827823787027"><ele>112.5</ele><time>2026-05-01T14:11:29Z</time></trkpt><trkpt lat="45.323284994173335" lon="13.642285029842409"><ele>115.0</ele><time>2026-05-01T14:11:30Z</time></trkpt><trkpt lat="45.32334371138364" lon="13.64274880530511"><ele>117.5</ele><time>2026-05-01T14:11:31Z</time></trkpt><trkpt lat="45.3233902160406" lon="13.643219101240783"><ele>120.0</ele><time>2026-05-01T14:11:32Z</time></trkpt><trkpt lat="45.323424552013215" lon="13.643696107164901"><ele>121.5</ele><time>2026-05-01T14:11:33Z</time></trkpt><trkpt lat="45.323448158916776" lon="13.644177028945363"><ele>123.0</ele><time>2026-05-01T14:11:34Z</time></trkpt><trkpt lat="45.32345645127214" lon="13.64466118495954"><ele>122.5</ele><time>2026-05-01T14:11:35Z</time></trkpt><trkpt lat="45.32345553984775" lon="13.645141160088777"><ele>122.0</ele><time>2026-05-01T14:11:36Z</time></trkpt><trkpt lat="45.3234413111577" lon="13.645620083138551"><ele>122.0</ele><time>2026-05-01T14:11:37Z</time></trkpt><trkpt lat="45.32341226209189" lon="13.646097595813897"><ele>122.0</ele><time>2026-05-01T14:11:38Z</time></trkpt><trkpt lat="45.323371055381436" lon="13.646574171493825"><ele>121.0</ele><time>2026-05-01T14:11:39Z</time></trkpt><trkpt lat="45.32332203679488" lon="13.647049221065226"><ele>120.0</ele><time>2026-05-01T14:11:40Z</time></trkpt><trkpt lat="45.32326329782483" lon="13.647523833229586"><ele>121.0</ele><time>2026-05-01T14:11:41Z</time></trkpt><trkpt lat="45.32320124867801" lon="13.647998204753835"><ele>122.0</ele><time>2026-05-01T14:11:42Z</time></trkpt><trkpt lat="45.32313973293677" lon="13.648474453099155"><ele>122.0</ele><time>2026-05-01T14:11:43Z</time></trkpt><trkpt lat="45.32308758588269" lon="13.648951874615848"><ele>122.0</ele><time>2026-05-01T14:11:44Z</time></trkpt><trkpt lat="45.32304439668882" lon="13.649432570189767"><ele>132.0</ele><time>2026-05-01T14:11:45Z</time></trkpt><trkpt lat="45.32301436141514" lon="13.649914359546337"><ele>142.0</ele><time>2026-05-01T14:11:46Z</time></trkpt><trkpt lat="45.32299699905796" lon="13.650397958979545"><ele>143.5</ele><time>2026-05-01T14:11:47Z</time></trkpt><trkpt lat="45.32299500853655" lon="13.650879744550137"><ele>145.0</ele><time>2026-05-01T14:11:48Z</time></trkpt><trkpt lat="45.323003472686075" lon="13.651364109921962"><ele>148.5</ele><time>2026-05-01T14:11:49Z</time></trkpt><trkpt lat="45.32302394857542" lon="13.65184683618158"><ele>152.0</ele><time>2026-05-01T14:11:50Z</time></trkpt><trkpt lat="45.32305572144264" lon="13.652325966371603"><ele>150.0</ele><time>2026-05-01T14:11:51Z</time></trkpt><trkpt lat="45.32310151918448" lon="13.652805787375243"><ele>148.0</ele><time>2026-05-01T14:11:52Z</time></trkpt><trkpt lat="45.32316138580625" lon="13.653282424560802"><ele>150.5</ele><time>2026-05-01T14:11:53Z</time></trkpt><trkpt lat="45.32323246933264" lon="13.653756604353315"><ele>153.0</ele><time>2026-05-01T14:11:54Z</time></trkpt><trkpt lat="45.32330921843644" lon="13.654224580384343"><ele>156.5</ele><time>2026-05-01T14:11:55Z</time></trkpt><trkpt lat="45.32339178850737" lon="13.654695042567132"><ele>160.0</ele><time>2026-05-01T14:11:56Z</time></trkpt><trkpt lat="45.32347382036759" lon="13.655165563979525"><ele>162.5</ele><time>2026-05-01T14:11:57Z</time></trkpt><trkpt lat="45.32355209231534" lon="13.655637056909677"><ele>165.0</ele><time>2026-05-01T14:11:58Z</time></trkpt><trkpt lat="45.3236150277275" lon="13.656111455072498"><ele>164.5</ele><time>2026-05-01T14:11:59Z</time></trkpt><trkpt lat="45.32366152985809" lon="13.656590398034137"><ele>164.0</ele><time>2026-05-01T14:12:00Z</time></trkpt><trkpt lat="45.32369554342094" lon="13.657073119456816"><ele>162.5</ele><time>2026-05-01T14:12:01Z</time></trkpt><trkpt lat="45.323719675861895" lon="13.657559176541236"><ele>161.0</ele><time>2026-05-01T14:12:02Z</time></trkpt><trkpt lat="45.323735004459415" lon="13.658045373363091"><ele>159.5</ele><time>2026-05-01T14:12:03Z</time></trkpt><trkpt lat="45.323735160176035" lon="13.658531025541153"><ele>158.0</ele><time>2026-05-01T14:12:04Z</time></trkpt><trkpt lat="45.323714928103335" lon="13.659018009482596"><ele>156.5</ele><time>2026-05-01T14:12:05Z</time></trkpt><trkpt lat="45.32368243813907" lon="13.659504023422087"><ele>155.0</ele><time>2026-05-01T14:12:06Z</time></trkpt><trkpt lat="45.32363702521332" lon="13.659988058642918"><ele>155.5</ele><time>2026-05-01T14:12:07Z</time></trkpt><trkpt lat="45.32357926010301" lon="13.660467923110055"><ele>156.0</ele><time>2026-05-01T14:12:08Z</time></trkpt><trkpt lat="45.32351615532265" lon="13.660946400228033"><ele>156.5</ele><time>2026-05-01T14:12:09Z</time></trkpt><trkpt lat="45.323443939766726" lon="13.661423610876087"><ele>157.0</ele><time>2026-05-01T14:12:10Z</time></trkpt><trkpt lat="45.323370554398764" lon="13.661897437281713"><ele>157.0</ele><time>2026-05-01T14:12:11Z</time></trkpt><trkpt lat="45.323306918136765" lon="13.662372626533593"><ele>157.0</ele><time>2026-05-01T14:12:12Z</time></trkpt><trkpt lat="45.32325584795112" lon="13.662850555761874"><ele>157.5</ele><time>2026-05-01T14:12:13Z</time></trkpt><trkpt lat="45.32322251378636" lon="13.66333054521776"><ele>158.0</ele><time>2026-05-01T14:12:14Z</time></trkpt><trkpt lat="45.3232020649763" lon="13.663811297808014"><ele>158.5</ele><time>2026-05-01T14:12:15Z</time></trkpt><trkpt lat="45.32319177501944" lon="13.664293522587942"><ele>159.0</ele><time>2026-05-01T14:12:16Z</time></trkpt><trkpt lat="45.323186443827055" lon="13.664775285927021"><ele>159.5</ele><time>2026-05-01T14:12:17Z</time></trkpt><trkpt lat="45.323182874415295" lon="13.665257389226511"><ele>160.0</ele><time>2026-05-01T14:12:18Z</time></trkpt><trkpt lat="45.3231803760097" lon="13.66573972909194"><ele>161.0</ele><time>2026-05-01T14:12:19Z</time></trkpt><trkpt lat="45.32317292775962" lon="13.666221132653586"><ele>162.0</ele><time>2026-05-01T14:12:20Z</time></trkpt><trkpt lat="45.323153865826356" lon="13.666703852108574"><ele>163.0</ele><time>2026-05-01T14:12:21Z</time></trkpt><trkpt lat="45.32311976125581" lon="13.667184375046276"><ele>164.0</ele><time>2026-05-01T14:12:22Z</time></trkpt><trkpt lat="45.32307426811369" lon="13.667661864822556"><ele>169.5</ele><time>2026-05-01T14:12:23Z</time></trkpt><trkpt lat="45.32301793840454" lon="13.66813743820874"><ele>175.0</ele><time>2026-05-01T14:12:24Z</time></trkpt><trkpt lat="45.32294349448524" lon="13.66860895303743"><ele>176.0</ele><time>2026-05-01T14:12:25Z</time></trkpt><trkpt lat="45.32285821457878" lon="13.669077025145802"><ele>177.0</ele><time>2026-05-01T14:12:26Z</time></trkpt><trkpt lat="45.32275638814022" lon="13.669539211143606"><ele>177.0</ele><time>2026-05-01T14:12:27Z</time></trkpt><trkpt lat="45.32264401862994" lon="13.669995727983354"><ele>177.0</ele><time>2026-05-01T14:12:28Z</time></trkpt><trkpt lat="45.322519748066924" lon="13.670448380437861"><ele>177.0</ele><time>2026-05-01T14:12:29Z</time></trkpt><trkpt lat="45.32238351495603" lon="13.670894426085361"><ele>177.0</ele><time>2026-05-01T14:12:30Z</time></trkpt><trkpt lat="45.322236341132175" lon="13.671331906596054"><ele>178.5</ele><time>2026-05-01T14:12:31Z</time></trkpt><trkpt lat="45.32207915129539" lon="13.671762745217247"><ele>180.0</ele><time>2026-05-01T14:12:32Z</time></trkpt><trkpt lat="45.32191150787551" lon="13.672187064731446"><ele>180.0</ele><time>2026-05-01T14:12:33Z</time></trkpt><trkpt lat="45.32173542458097" lon="13.672601209298065"><ele>180.0</ele><time>2026-05-01T14:12:34Z</time></trkpt><trkpt lat="45.321555112736284" lon="13.67301159750405"><ele>181.0</ele><time>2026-05-01T14:12:35Z</time></trkpt><trkpt lat="45.32137594253287" lon="13.673421640082799"><ele>182.0</ele><time>2026-05-01T14:12:36Z</time></trkpt><trkpt lat="45.32120018151251" lon="13.673835242468128"><ele>182.5</ele><time>2026-05-01T14:12:37Z</time></trkpt><trkpt lat="45.32103162156127" lon="13.674258282670317"><ele>183.0</ele><time>2026-05-01T14:12:38Z</time></trkpt><trkpt lat="45.32087134559939" lon="13.674686488886614"><ele>183.0</ele><time>2026-05-01T14:12:39Z</time></trkpt><trkpt lat="45.32071777473856" lon="13.675119122843682"><ele>183.0</ele><time>2026-05-01T14:12:40Z</time></trkpt><trkpt lat="45.32057124886052" lon="13.675555713595177"><ele>185.0</ele><time>2026-05-01T14:12:41Z</time></trkpt><trkpt lat="45.32043272253913" lon="13.67599908640206"><ele>187.0</ele><time>2026-05-01T14:12:42Z</time></trkpt><trkpt lat="45.320307056162" lon="13.676448905281445"><ele>187.5</ele><time>2026-05-01T14:12:43Z</time></trkpt><trkpt lat="45.32019471169486" lon="13.676905970619249"><ele>188.0</ele><time>2026-05-01T14:12:44Z</time></trkpt><trkpt lat="45.32008948068929" lon="13.67736627948258"><ele>188.5</ele><time>2026-05-01T14:12:45Z</time></trkpt><trkpt lat="45.31999452512325" lon="13.677830302711905"><ele>189.0</ele><time>2026-05-01T14:12:46Z</time></trkpt><trkpt lat="45.319910910666216" lon="13.678299906440639"><ele>189.5</ele><time>2026-05-01T14:12:47Z</time></trkpt><trkpt lat="45.319839424961565" lon="13.678771888015099"><ele>190.0</ele><time>2026-05-01T14:12:48Z</time></trkpt><trkpt lat="45.31977662266507" lon="13.679247142587563"><ele>192.5</ele><time>2026-05-01T14:12:49Z</time></trkpt><trkpt lat="45.31972420821778" lon="13.679724663428738"><ele>195.0</ele><time>2026-05-01T14:12:50Z</time></trkpt><trkpt lat="45.31968202215104" lon="13.680204018030677"><ele>196.0</ele><time>2026-05-01T14:12:51Z</time></trkpt><trkpt lat="45.319649212839565" lon="13.680685247058058"><ele>197.0</ele><time>2026-05-01T14:12:52Z</time></trkpt><trkpt lat="45.31962689352438" lon="13.681168434494149"><ele>197.5</ele><time>2026-05-01T14:12:53Z</time></trkpt><trkpt lat="45.31961739211912" lon="13.681652487168723"><ele>198.0</ele><time>2026-05-01T14:12:54Z</time></trkpt><trkpt lat="45.31962044803584" lon="13.68213434950713"><ele>199.5</ele><time>2026-05-01T14:12:55Z</time></trkpt><trkpt lat="45.31963472221744" lon="13.682616543367596"><ele>201.0</ele><time>2026-05-01T14:12:56Z</time></trkpt><trkpt lat="45.31965708573566" lon="13.68309956803457"><ele>202.5</ele><time>2026-05-01T14:12:57Z</time></trkpt><trkpt lat="45.31969071577291" lon="13.683580581863383"><ele>204.0</ele><time>2026-05-01T14:12:58Z</time></trkpt><trkpt lat="45.31973548851384" lon="13.684059960937663"><ele>208.0</ele><time>2026-05-01T14:12:59Z</time></trkpt><trkpt lat="45.31979030203228" lon="13.684537485498723"><ele>212.0</ele><time>2026-05-01T14:13:00Z</time></trkpt><trkpt lat="45.31985322079572" lon="13.685014211604011"><ele>211.5</ele><time>2026-05-01T14:13:01Z</time></trkpt><trkpt lat="45.31991906335138" lon="13.685490560367471"><ele>211.0</ele><time>2026-05-01T14:13:02Z</time></trkpt><trkpt lat="45.319984297367014" lon="13.685969466239202"><ele>212.0</ele><time>2026-05-01T14:13:03Z</time></trkpt><trkpt lat="45.32004419614926" lon="13.68644853704042"><ele>213.0</ele><time>2026-05-01T14:13:04Z</time></trkpt><trkpt lat="45.32009225861653" lon="13.686927725030696"><ele>215.5</ele><time>2026-05-01T14:13:05Z</time></trkpt><trkpt lat="45.320131137243386" lon="13.687407791165763"><ele>218.0</ele><time>2026-05-01T14:13:06Z</time></trkpt><trkpt lat="45.32015792160708" lon="13.687889195225502"><ele>220.0</ele><time>2026-05-01T14:13:07Z</time></trkpt><trkpt lat="45.32017180785749" lon="13.688371082666443"><ele>222.0</ele><time>2026-05-01T14:13:08Z</time></trkpt><trkpt lat="45.3201744448824" lon="13.688853596745385"><ele>222.5</ele><time>2026-05-01T14:13:09Z</time></trkpt><trkpt lat="45.32016016485822" lon="13.689336574904562"><ele>223.0</ele><time>2026-05-01T14:13:10Z</time></trkpt><trkpt lat="45.32013480895503" lon="13.689816835725392"><ele>222.5</ele><time>2026-05-01T14:13:11Z</time></trkpt><trkpt lat="45.32010328739016" lon="13.69029834533153"><ele>222.0</ele><time>2026-05-01T14:13:12Z</time></trkpt><trkpt lat="45.32006605280725" lon="13.6907790589294"><ele>222.5</ele><time>2026-05-01T14:13:13Z</time></trkpt><trkpt lat="45.32000946216693" lon="13.691256099609745"><ele>223.0</ele><time>2026-05-01T14:13:14Z</time></trkpt><trkpt lat="45.31993558393073" lon="13.691727802843488"><ele>223.0</ele><time>2026-05-01T14:13:15Z</time></trkpt><trkpt lat="45.319846120116274" lon="13.692194284457791"><ele>223.0</ele><time>2026-05-01T14:13:16Z</time></trkpt><trkpt lat="45.319742522897215" lon="13.692656138100975"><ele>225.0</ele><time>2026-05-01T14:13:17Z</time></trkpt><trkpt lat="45.3196267887719" lon="13.693114924518566"><ele>227.0</ele><time>2026-05-01T14:13:18Z</time></trkpt><trkpt lat="45.31950066385675" lon="13.69356709133941"><ele>226.5</ele><time>2026-05-01T14:13:19Z</time></trkpt><trkpt lat="45.3193633892748" lon="13.694011283924757"><ele>226.0</ele><time>2026-05-01T14:13:20Z</time></trkpt><trkpt lat="45.319213131126226" lon="13.694446658352806"><ele>224.5</ele><time>2026-05-01T14:13:21Z</time></trkpt><trkpt lat="45.31904974772986" lon="13.694871939106413"><ele>223.0</ele><time>2026-05-01T14:13:22Z</time></trkpt><trkpt lat="45.31887488215947" lon="13.695287742382153"><ele>222.5</ele><time>2026-05-01T14:13:23Z</time></trkpt><trkpt lat="45.31868923412529" lon="13.695695722075886"><ele>222.0</ele><time>2026-05-01T14:13:24Z</time></trkpt><trkpt lat="45.318493010603035" lon="13.69609320272905"><ele>223.0</ele><time>2026-05-01T14:13:25Z</time></trkpt><trkpt lat="45.31828496220129" lon="13.696479259661796"><ele>224.0</ele><time>2026-05-01T14:13:26Z</time></trkpt><trkpt lat="45.31806607850043" lon="13.696853513302736"><ele>226.5</ele><time>2026-05-01T14:13:27Z</time></trkpt><trkpt lat="45.31783921000709" lon="13.697217644493287"><ele>229.0</ele><time>2026-05-01T14:13:28Z</time></trkpt><trkpt lat="45.31760568591882" lon="13.697571875442465"><ele>231.0</ele><time>2026-05-01T14:13:29Z</time></trkpt><trkpt lat="45.31736400550592" lon="13.69791642945066"><ele>233.0</ele><time>2026-05-01T14:13:30Z</time></trkpt><trkpt lat="45.317113033640545" lon="13.698246727042651"><ele>234.5</ele><time>2026-05-01T14:13:31Z</time></trkpt><trkpt lat="45.31684928622227" lon="13.698561640474532"><ele>236.0</ele><time>2026-05-01T14:13:32Z</time></trkpt><trkpt lat="45.3165810736905" lon="13.698859336423768"><ele>240.5</ele><time>2026-05-01T14:13:33Z</time></trkpt><trkpt lat="45.31630174314795" lon="13.69914002875173"><ele>245.0</ele><time>2026-05-01T14:13:34Z</time></trkpt><trkpt lat="45.31601453555477" lon="13.699406096891963"><ele>245.0</ele><time>2026-05-01T14:13:35Z</time></trkpt><trkpt lat="45.31572004023466" lon="13.699659466874126"><ele>245.0</ele><time>2026-05-01T14:13:36Z</time></trkpt><trkpt lat="45.31541931973533" lon="13.699893995842945"><ele>245.0</ele><time>2026-05-01T14:13:37Z</time></trkpt><trkpt lat="45.31511246134773" lon="13.700111266274538"><ele>245.0</ele><time>2026-05-01T14:13:38Z</time></trkpt><trkpt lat="45.314802380910685" lon="13.700314650534589"><ele>244.0</ele><time>2026-05-01T14:13:39Z</time></trkpt><trkpt lat="45.31448802203068" lon="13.700503007494305"><ele>243.0</ele><time>2026-05-01T14:13:40Z</time></trkpt><trkpt lat="45.314170489491566" lon="13.700676678651854"><ele>243.0</ele><time>2026-05-01T14:13:41Z</time></trkpt><trkpt lat="45.313847471197256" lon="13.700842797645407"><ele>243.0</ele><time>2026-05-01T14:13:42Z</time></trkpt><trkpt lat="45.313525184658474" lon="13.701005236734186"><ele>241.5</ele><time>2026-05-01T14:13:43Z</time></trkpt><trkpt lat="45.31320329760716" lon="13.701174337610434"><ele>240.0</ele><time>2026-05-01T14:13:44Z</time></trkpt><trkpt lat="45.312885398399196" lon="13.701354105508582"><ele>239.5</ele><time>2026-05-01T14:13:45Z</time></trkpt><trkpt lat="45.3125720868845" lon="13.701549064166885"><ele>239.0</ele><time>2026-05-01T14:13:46Z</time></trkpt><trkpt lat="45.31226484629654" lon="13.701759012318174"><ele>239.5</ele><time>2026-05-01T14:13:47Z</time></trkpt><trkpt lat="45.311966685103705" lon="13.701991353024326"><ele>240.0</ele><time>2026-05-01T14:13:48Z</time></trkpt><trkpt lat="45.311676459926616" lon="13.702241262609109"><ele>241.5</ele><time>2026-05-01T14:13:49Z</time></trkpt><trkpt lat="45.311393474665365" lon="13.702507503519861"><ele>243.0</ele><time>2026-05-01T14:13:50Z</time></trkpt><trkpt lat="45.311115551243795" lon="13.702788163890562"><ele>243.0</ele><time>2026-05-01T14:13:51Z</time></trkpt><trkpt lat="45.310842691144344" lon="13.703081149246692"><ele>243.0</ele><time>2026-05-01T14:13:52Z</time></trkpt><trkpt lat="45.310573981479415" lon="13.703382148168672"><ele>246.5</ele><time>2026-05-01T14:13:53Z</time></trkpt><trkpt lat="45.310313679875335" lon="13.703698712297127"><ele>250.0</ele><time>2026-05-01T14:13:54Z</time></trkpt><trkpt lat="45.31006245992954" lon="13.704027785925812"><ele>250.0</ele><time>2026-05-01T14:13:55Z</time></trkpt><trkpt lat="45.30982124429414" lon="13.70437055458737"><ele>250.0</ele><time>2026-05-01T14:13:56Z</time></trkpt><trkpt lat="45.30958751418565" lon="13.704724627196413"><ele>251.0</ele><time>2026-05-01T14:13:57Z</time></trkpt><trkpt lat="45.30936276933143" lon="13.705090640371127"><ele>252.0</ele><time>2026-05-01T14:13:58Z</time></trkpt><trkpt lat="45.3091448071797" lon="13.705464836960674"><ele>252.0</ele><time>2026-05-01T14:13:59Z</time></trkpt><trkpt lat="45.30892789294444" lon="13.70584330111356"><ele>252.0</ele><time>2026-05-01T14:14:00Z</time></trkpt><trkpt lat="45.308708111532425" lon="13.706219968170583"><ele>252.0</ele><time>2026-05-01T14:14:01Z</time></trkpt><trkpt lat="45.308485185637764" lon="13.706584163804829"><ele>252.0</ele><time>2026-05-01T14:14:02Z</time></trkpt><trkpt lat="45.30825043489293" lon="13.706937687180451"><ele>250.5</ele><time>2026-05-01T14:14:03Z</time></trkpt><trkpt lat="45.308006344374085" lon="13.707278493786394"><ele>249.0</ele><time>2026-05-01T14:14:04Z</time></trkpt><trkpt lat="45.30775429749288" lon="13.707608102331104"><ele>250.0</ele><time>2026-05-01T14:14:05Z</time></trkpt><trkpt lat="45.3074939164572" lon="13.707922514495788"><ele>251.0</ele><time>2026-05-01T14:14:06Z</time></trkpt><trkpt lat="45.307224603749084" lon="13.708219944109134"><ele>248.5</ele><time>2026-05-01T14:14:07Z</time></trkpt><trkpt lat="45.30694674680029" lon="13.708501537093804"><ele>246.0</ele><time>2026-05-01T14:14:08Z</time></trkpt><trkpt lat="45.3066607067338" lon="13.7087679678994"><ele>242.5</ele><time>2026-05-01T14:14:09Z</time></trkpt><trkpt lat="45.30636647106246" lon="13.709015721346804"><ele>239.0</ele><time>2026-05-01T14:14:10Z</time></trkpt><trkpt lat="45.30606767646051" lon="13.70925035826839"><ele>239.5</ele><time>2026-05-01T14:14:11Z</time></trkpt><trkpt lat="45.305764184316025" lon="13.70946836613967"><ele>240.0</ele><time>2026-05-01T14:14:12Z</time></trkpt><trkpt lat="45.30545470619461" lon="13.709667758850316"><ele>240.0</ele><time>2026-05-01T14:14:13Z</time></trkpt><trkpt lat="45.305139935131756" lon="13.7098531102214"><ele>240.0</ele><time>2026-05-01T14:14:14Z</time></trkpt><trkpt lat="45.304819190391065" lon="13.710019912889885"><ele>240.0</ele><time>2026-05-01T14:14:15Z</time></trkpt><trkpt lat="45.30449667052848" lon="13.710173424708664"><ele>240.0</ele><time>2026-05-01T14:14:16Z</time></trkpt><trkpt lat="45.30416893013943" lon="13.710313495425286"><ele>240.5</ele><time>2026-05-01T14:14:17Z</time></trkpt><trkpt lat="45.30383779281183" lon="13.710435227832967"><ele>241.0</ele><time>2026-05-01T14:14:18Z</time></trkpt><trkpt lat="45.303504906066394" lon="13.710537218240347"><ele>241.0</ele><time>2026-05-01T14:14:19Z</time></trkpt><trkpt lat="45.30317003698243" lon="13.710622694225165"><ele>241.0</ele><time>2026-05-01T14:14:20Z</time></trkpt><trkpt lat="45.302832987190605" lon="13.710694946320068"><ele>245.0</ele><time>2026-05-01T14:14:21Z</time></trkpt><trkpt lat="45.3024939854531" lon="13.710745747174261"><ele>249.0</ele><time>2026-05-01T14:14:22Z</time></trkpt><trkpt lat="45.302154936051316" lon="13.710780499185358"><ele>251.0</ele><time>2026-05-01T14:14:23Z</time></trkpt><trkpt lat="45.30181383821539" lon="13.71080556937456"><ele>253.0</ele><time>2026-05-01T14:14:24Z</time></trkpt><trkpt lat="45.30147263417125" lon="13.71083562256704"><ele>254.5</ele><time>2026-05-01T14:14:25Z</time></trkpt><trkpt lat="45.30113272918971" lon="13.710880304953767"><ele>256.0</ele><time>2026-05-01T14:14:26Z</time></trkpt><trkpt lat="45.30079471410601" lon="13.710936144599586"><ele>255.5</ele><time>2026-05-01T14:14:27Z</time></trkpt><trkpt lat="45.30045785831901" lon="13.711008018509482"><ele>255.0</ele><time>2026-05-01T14:14:28Z</time></trkpt><trkpt lat="45.30012304378889" lon="13.711096169347268"><ele>257.0</ele><time>2026-05-01T14:14:29Z</time></trkpt><trkpt lat="45.299791656715605" lon="13.711205113646082"><ele>259.0</ele><time>2026-05-01T14:14:30Z</time></trkpt><trkpt lat="45.299461680538535" lon="13.71133240254925"><ele>259.0</ele><time>2026-05-01T14:14:31Z</time></trkpt><trkpt lat="45.299135369411545" lon="13.711476994742345"><ele>259.0</ele><time>2026-05-01T14:14:32Z</time></trkpt><trkpt lat="45.29881196225889" lon="13.71163645841996"><ele>260.0</ele><time>2026-05-01T14:14:33Z</time></trkpt><trkpt lat="45.298493346893395" lon="13.711813405201157"><ele>261.0</ele><time>2026-05-01T14:14:34Z</time></trkpt><trkpt lat="45.298180309160685" lon="13.712008268207228"><ele>258.5</ele><time>2026-05-01T14:14:35Z</time></trkpt><trkpt lat="45.29787266737101" lon="13.712220214555533"><ele>256.0</ele><time>2026-05-01T14:14:36Z</time></trkpt><trkpt lat="45.297569985084884" lon="13.712445102872296"><ele>256.0</ele><time>2026-05-01T14:14:37Z</time></trkpt><trkpt lat="45.297273650388355" lon="13.712687666901324"><ele>256.0</ele><time>2026-05-01T14:14:38Z</time></trkpt><trkpt lat="45.29698407631401" lon="13.71294748403148"><ele>256.0</ele><time>2026-05-01T14:14:39Z</time></trkpt><trkpt lat="45.29670133730846" lon="13.713222778292742"><ele>256.0</ele><time>2026-05-01T14:14:40Z</time></trkpt><trkpt lat="45.29642547004635" lon="13.713513134993125"><ele>257.5</ele><time>2026-05-01T14:14:41Z</time></trkpt><trkpt lat="45.29615626899223" lon="13.713816823870436"><ele>259.0</ele><time>2026-05-01T14:14:42Z</time></trkpt><trkpt lat="45.295895743515146" lon="13.714133721320222"><ele>259.5</ele><time>2026-05-01T14:14:43Z</time></trkpt><trkpt lat="45.29564339416662" lon="13.714463546587025"><ele>260.0</ele><time>2026-05-01T14:14:44Z</time></trkpt><trkpt lat="45.29539145110652" lon="13.714799091987276"><ele>260.0</ele><time>2026-05-01T14:14:45Z</time></trkpt><trkpt lat="45.29513881409064" lon="13.715130100230969"><ele>260.0</ele><time>2026-05-01T14:14:46Z</time></trkpt><trkpt lat="45.29488037627379" lon="13.715453156459562"><ele>257.0</ele><time>2026-05-01T14:14:47Z</time></trkpt><trkpt lat="45.29461270370328" lon="13.71576150688231"><ele>254.0</ele><time>2026-05-01T14:14:48Z</time></trkpt><trkpt lat="45.294336214296756" lon="13.716048283901783"><ele>253.5</ele><time>2026-05-01T14:14:49Z</time></trkpt><trkpt lat="45.29404754430938" lon="13.716315937431359"><ele>253.0</ele><time>2026-05-01T14:14:50Z</time></trkpt><trkpt lat="45.293752445294146" lon="13.71655589783551"><ele>252.0</ele><time>2026-05-01T14:14:51Z</time></trkpt><trkpt lat="45.2934461484016" lon="13.71677087813046"><ele>251.0</ele><time>2026-05-01T14:14:52Z</time></trkpt><trkpt lat="45.29313363733128" lon="13.716963568612382"><ele>250.0</ele><time>2026-05-01T14:14:53Z</time></trkpt><trkpt lat="45.29281507272626" lon="13.717130703456075"><ele>249.0</ele><time>2026-05-01T14:14:54Z</time></trkpt><trkpt lat="45.292490954537215" lon="13.717274628198055"><ele>247.5</ele><time>2026-05-01T14:14:55Z</time></trkpt><trkpt lat="45.2921619326653" lon="13.71739752786952"><ele>246.0</ele><time>2026-05-01T14:14:56Z</time></trkpt><trkpt lat="45.291828099350745" lon="13.717494880310651"><ele>246.0</ele><time>2026-05-01T14:14:57Z</time></trkpt><trkpt lat="45.291489983941304" lon="13.717569453448654"><ele>246.0</ele><time>2026-05-01T14:14:58Z</time></trkpt><trkpt lat="45.29115089794397" lon="13.717615971042019"><ele>243.0</ele><time>2026-05-01T14:14:59Z</time></trkpt><trkpt lat="45.29081136947693" lon="13.717633193408014"><ele>240.0</ele><time>2026-05-01T14:15:00Z</time></trkpt><trkpt lat="45.2904708437681" lon="13.717622538653087"><ele>238.5</ele><time>2026-05-01T14:15:01Z</time></trkpt><trkpt lat="45.29013119598096" lon="13.71758093294148"><ele>237.0</ele><time>2026-05-01T14:15:02Z</time></trkpt><trkpt lat="45.289794718239875" lon="13.717511177398372"><ele>235.0</ele><time>2026-05-01T14:15:03Z</time></trkpt><trkpt lat="45.28946089056727" lon="13.7174142317928"><ele>233.0</ele><time>2026-05-01T14:15:04Z</time></trkpt><trkpt lat="45.289129246227596" lon="13.717296892548918"><ele>231.0</ele><time>2026-05-01T14:15:05Z</time></trkpt><trkpt lat="45.28880223927731" lon="13.717152918654522"><ele>229.0</ele><time>2026-05-01T14:15:06Z</time></trkpt><trkpt lat="45.28848125180939" lon="13.716984250516006"><ele>228.0</ele><time>2026-05-01T14:15:07Z</time></trkpt><trkpt lat="45.28816468904848" lon="13.716795573847492"><ele>227.0</ele><time>2026-05-01T14:15:08Z</time></trkpt><trkpt lat="45.28785455390616" lon="13.716584987032505"><ele>225.5</ele><time>2026-05-01T14:15:09Z</time></trkpt><trkpt lat="45.28755505764319" lon="13.716350941038298"><ele>224.0</ele><time>2026-05-01T14:15:10Z</time></trkpt><trkpt lat="45.28726756570915" lon="13.716091176709435"><ele>224.0</ele><time>2026-05-01T14:15:11Z</time></trkpt><trkpt lat="45.28699157053236" lon="13.715807808158006"><ele>224.0</ele><time>2026-05-01T14:15:12Z</time></trkpt><trkpt lat="45.286727493439784" lon="13.715504773484952"><ele>222.5</ele><time>2026-05-01T14:15:13Z</time></trkpt><trkpt lat="45.28647613570494" lon="13.715180739646339"><ele>221.0</ele><time>2026-05-01T14:15:14Z</time></trkpt><trkpt lat="45.28623844331535" lon="13.714836179868858"><ele>220.5</ele><time>2026-05-01T14:15:15Z</time></trkpt><trkpt lat="45.28601031187002" lon="13.714476425150197"><ele>220.0</ele><time>2026-05-01T14:15:16Z</time></trkpt><trkpt lat="45.285790197416134" lon="13.714106814051043"><ele>220.0</ele><time>2026-05-01T14:15:17Z</time></trkpt><trkpt lat="45.285576350130555" lon="13.713728821959524"><ele>220.0</ele><time>2026-05-01T14:15:18Z</time></trkpt><trkpt lat="45.285364484764905" lon="13.713347816772018"><ele>218.5</ele><time>2026-05-01T14:15:19Z</time></trkpt><trkpt lat="45.28514749057596" lon="13.712973146132956"><ele>217.0</ele><time>2026-05-01T14:15:20Z</time></trkpt><trkpt lat="45.28492052164623" lon="13.712610987508846"><ele>216.0</ele><time>2026-05-01T14:15:21Z</time></trkpt><trkpt lat="45.28468554155279" lon="13.712256675080642"><ele>215.0</ele><time>2026-05-01T14:15:22Z</time></trkpt><trkpt lat="45.28444294351321" lon="13.71191289632812"><ele>215.0</ele><time>2026-05-01T14:15:23Z</time></trkpt><trkpt lat="45.28418938986432" lon="13.711585394202404"><ele>215.0</ele><time>2026-05-01T14:15:24Z</time></trkpt><trkpt lat="45.28392764003888" lon="13.711272648430082"><ele>214.0</ele><time>2026-05-01T14:15:25Z</time></trkpt><trkpt lat="45.28365812141914" lon="13.710971778794963"><ele>213.0</ele><time>2026-05-01T14:15:26Z</time></trkpt><trkpt lat="45.28338256151946" lon="13.710682631621621"><ele>213.0</ele><time>2026-05-01T14:15:27Z</time></trkpt><trkpt lat="45.28309972889763" lon="13.710407065509258"><ele>213.0</ele><time>2026-05-01T14:15:28Z</time></trkpt><trkpt lat="45.28281192515224" lon="13.710145961027484"><ele>213.5</ele><time>2026-05-01T14:15:29Z</time></trkpt><trkpt lat="45.2825154957305" lon="13.709906359329933"><ele>214.0</ele><time>2026-05-01T14:15:30Z</time></trkpt><trkpt lat="45.28221363802952" lon="13.709681477322382"><ele>215.0</ele><time>2026-05-01T14:15:31Z</time></trkpt><trkpt lat="45.28190550266539" lon="13.709468619370229"><ele>216.0</ele><time>2026-05-01T14:15:32Z</time></trkpt><trkpt lat="45.28159353067167" lon="13.70927056931544"><ele>211.0</ele><time>2026-05-01T14:15:33Z</time></trkpt><trkpt lat="45.28127632072127" lon="13.709091881758207"><ele>206.0</ele><time>2026-05-01T14:15:34Z</time></trkpt><trkpt lat="45.2809538455734" lon="13.708932399879899"><ele>206.0</ele><time>2026-05-01T14:15:35Z</time></trkpt><trkpt lat="45.28062704687772" lon="13.70879061448997"><ele>206.0</ele><time>2026-05-01T14:15:36Z</time></trkpt><trkpt lat="45.280297196854306" lon="13.708665452500252"><ele>199.5</ele><time>2026-05-01T14:15:37Z</time></trkpt><trkpt lat="45.27996498375729" lon="13.708560200687407"><ele>193.0</ele><time>2026-05-01T14:15:38Z</time></trkpt><trkpt lat="45.27963233639778" lon="13.7084712111002"><ele>192.5</ele><time>2026-05-01T14:15:39Z</time></trkpt><trkpt lat="45.27929655710988" lon="13.708401149240402"><ele>192.0</ele><time>2026-05-01T14:15:40Z</time></trkpt><trkpt lat="45.27895746207289" lon="13.708350338984783"><ele>194.5</ele><time>2026-05-01T14:15:41Z</time></trkpt><trkpt lat="45.27861737150503" lon="13.708314388726535"><ele>197.0</ele><time>2026-05-01T14:15:42Z</time></trkpt><trkpt lat="45.278275688540496" lon="13.708297452021487"><ele>194.0</ele><time>2026-05-01T14:15:43Z</time></trkpt><trkpt lat="45.27793360567109" lon="13.70829713305594"><ele>191.0</ele><time>2026-05-01T14:15:44Z</time></trkpt><trkpt lat="45.277591893369674" lon="13.708316537360108"><ele>187.5</ele><time>2026-05-01T14:15:45Z</time></trkpt><trkpt lat="45.277251648998174" lon="13.708355590105686"><ele>184.0</ele><time>2026-05-01T14:15:46Z</time></trkpt><trkpt lat="45.2769126688773" lon="13.708411430589837"><ele>184.0</ele><time>2026-05-01T14:15:47Z</time></trkpt><trkpt lat="45.27657623708155" lon="13.708484778967305"><ele>184.0</ele><time>2026-05-01T14:15:48Z</time></trkpt><trkpt lat="45.27624238061164" lon="13.708576762695236"><ele>183.0</ele><time>2026-05-01T14:15:49Z</time></trkpt><trkpt lat="45.27591105796926" lon="13.708688694379811"><ele>182.0</ele><time>2026-05-01T14:15:50Z</time></trkpt><trkpt lat="45.275581921806875" lon="13.70881829396683"><ele>181.5</ele><time>2026-05-01T14:15:51Z</time></trkpt><trkpt lat="45.275258204596135" lon="13.70896390217304"><ele>181.0</ele><time>2026-05-01T14:15:52Z</time></trkpt><trkpt lat="45.27493956417003" lon="13.709132531151166"><ele>180.0</ele><time>2026-05-01T14:15:53Z</time></trkpt><trkpt lat="45.27462416313191" lon="13.709313452046333"><ele>179.0</ele><time>2026-05-01T14:15:54Z</time></trkpt><trkpt lat="45.274312934353105" lon="13.709512462094713"><ele>180.0</ele><time>2026-05-01T14:15:55Z</time></trkpt><trkpt lat="45.2740071957785" lon="13.70972644720234"><ele>181.0</ele><time>2026-05-01T14:15:56Z</time></trkpt><trkpt lat="45.27370667086048" lon="13.709953483668462"><ele>181.0</ele><time>2026-05-01T14:15:57Z</time></trkpt><trkpt lat="45.27341289794104" lon="13.710197759783895"><ele>181.0</ele><time>2026-05-01T14:15:58Z</time></trkpt><trkpt lat="45.273126180972476" lon="13.710457416088522"><ele>185.5</ele><time>2026-05-01T14:15:59Z</time></trkpt><trkpt lat="45.27284444359508" lon="13.710730241154108"><ele>190.0</ele><time>2026-05-01T14:16:00Z</time></trkpt><trkpt lat="45.272566266036456" lon="13.711011782922446"><ele>191.5</ele><time>2026-05-01T14:16:01Z</time></trkpt><trkpt lat="45.27229124401671" lon="13.71129674676409"><ele>193.0</ele><time>2026-05-01T14:16:02Z</time></trkpt><trkpt lat="45.27201628013905" lon="13.711585993711157"><ele>196.0</ele><time>2026-05-01T14:16:03Z</time></trkpt><trkpt lat="45.271739861402956" lon="13.711872489693894"><ele>199.0</ele><time>2026-05-01T14:16:04Z</time></trkpt><trkpt lat="45.27145974918286" lon="13.712149354938317"><ele>199.0</ele><time>2026-05-01T14:16:05Z</time></trkpt><trkpt lat="45.271174255278005" lon="13.712414011196355"><ele>199.0</ele><time>2026-05-01T14:16:06Z</time></trkpt><trkpt lat="45.27088353406425" lon="13.712668336018794"><ele>197.0</ele><time>2026-05-01T14:16:07Z</time></trkpt><trkpt lat="45.270589045960435" lon="13.712912685516647"><ele>195.0</ele><time>2026-05-01T14:16:08Z</time></trkpt><trkpt lat="45.2702882460516" lon="13.713142835890155"><ele>195.0</ele><time>2026-05-01T14:16:09Z</time></trkpt><trkpt lat="45.26998396310974" lon="13.713361488425976"><ele>195.0</ele><time>2026-05-01T14:16:10Z</time></trkpt><trkpt lat="45.269677221306814" lon="13.71357349257686"><ele>193.0</ele><time>2026-05-01T14:16:11Z</time></trkpt><trkpt lat="45.2693666493551" lon="13.713773861625361"><ele>191.0</ele><time>2026-05-01T14:16:12Z</time></trkpt><trkpt lat="45.269053650533905" lon="13.713963969545702"><ele>188.5</ele><time>2026-05-01T14:16:13Z</time></trkpt><trkpt lat="45.26873674386728" lon="13.714140587444941"><ele>186.0</ele><time>2026-05-01T14:16:14Z</time></trkpt><trkpt lat="45.26841559915406" lon="13.714303565804832"><ele>187.0</ele><time>2026-05-01T14:16:15Z</time></trkpt><trkpt lat="45.26809105780047" lon="13.71445536879466"><ele>188.0</ele><time>2026-05-01T14:16:16Z</time></trkpt><trkpt lat="45.26776319421454" lon="13.714592225707312"><ele>188.0</ele><time>2026-05-01T14:16:17Z</time></trkpt><trkpt lat="45.26743224757534" lon="13.714717486803462"><ele>188.0</ele><time>2026-05-01T14:16:18Z</time></trkpt><trkpt lat="45.26710079779983" lon="13.714835603002395"><ele>190.0</ele><time>2026-05-01T14:16:19Z</time></trkpt><trkpt lat="45.266766954892816" lon="13.7149415504611"><ele>192.0</ele><time>2026-05-01T14:16:20Z</time></trkpt><trkpt lat="45.26643058371205" lon="13.71503408889941"><ele>194.5</ele><time>2026-05-01T14:16:21Z</time></trkpt><trkpt lat="45.2660928921267" lon="13.71511259171886"><ele>197.0</ele><time>2026-05-01T14:16:22Z</time></trkpt><trkpt lat="45.26575402061347" lon="13.715179344942351"><ele>195.5</ele><time>2026-05-01T14:16:23Z</time></trkpt><trkpt lat="45.265413698151875" lon="13.715232032903442"><ele>194.0</ele><time>2026-05-01T14:16:24Z</time></trkpt><trkpt lat="45.26507262548784" lon="13.715270975372965"><ele>194.0</ele><time>2026-05-01T14:16:25Z</time></trkpt><trkpt lat="45.26473050980895" lon="13.715300640399706"><ele>194.0</ele><time>2026-05-01T14:16:26Z</time></trkpt><trkpt lat="45.264388805593796" lon="13.71531764516594"><ele>194.0</ele><time>2026-05-01T14:16:27Z</time></trkpt><trkpt lat="45.26404567279003" lon="13.715323694774906"><ele>194.0</ele><time>2026-05-01T14:16:28Z</time></trkpt><trkpt lat="45.26370213867522" lon="13.715313233268855"><ele>195.0</ele><time>2026-05-01T14:16:29Z</time></trkpt><trkpt lat="45.26335870953227" lon="13.715288756977829"><ele>196.0</ele><time>2026-05-01T14:16:30Z</time></trkpt><trkpt lat="45.26301656719461" lon="13.715249364688246"><ele>197.0</ele><time>2026-05-01T14:16:31Z</time></trkpt><trkpt lat="45.26267533778853" lon="13.715203889197024"><ele>198.0</ele><time>2026-05-01T14:16:32Z</time></trkpt><trkpt lat="45.262335344152234" lon="13.715142919928546"><ele>197.0</ele><time>2026-05-01T14:16:33Z</time></trkpt><trkpt lat="45.26199670294218" lon="13.715068592358097"><ele>196.0</ele><time>2026-05-01T14:16:34Z</time></trkpt><trkpt lat="45.261660316106514" lon="13.714981257717275"><ele>195.5</ele><time>2026-05-01T14:16:35Z</time></trkpt><trkpt lat="45.261325689091834" lon="13.714881961084389"><ele>195.0</ele><time>2026-05-01T14:16:36Z</time></trkpt><trkpt lat="45.260991570765256" lon="13.714769501922916"><ele>195.0</ele><time>2026-05-01T14:16:37Z</time></trkpt><trkpt lat="45.26066229822576" lon="13.714644989915652"><ele>195.0</ele><time>2026-05-01T14:16:38Z</time></trkpt><trkpt lat="45.26033372513125" lon="13.71450935565939"><ele>194.0</ele><time>2026-05-01T14:16:39Z</time></trkpt><trkpt lat="45.26000751793491" lon="13.714359519441972"><ele>193.0</ele><time>2026-05-01T14:16:40Z</time></trkpt><trkpt lat="45.25968495165713" lon="13.714196379535565"><ele>193.0</ele><time>2026-05-01T14:16:41Z</time></trkpt><trkpt lat="45.259363593393715" lon="13.714022739943495"><ele>193.0</ele><time>2026-05-01T14:16:42Z</time></trkpt><trkpt lat="45.25904573363885" lon="13.713839705593594"><ele>191.5</ele><time>2026-05-01T14:16:43Z</time></trkpt><trkpt lat="45.25873017846722" lon="13.713647258201371"><ele>190.0</ele><time>2026-05-01T14:16:44Z</time></trkpt><trkpt lat="45.258419207631455" lon="13.713444075985905"><ele>187.5</ele><time>2026-05-01T14:16:45Z</time></trkpt><trkpt lat="45.258111725890814" lon="13.71322898175725"><ele>185.0</ele><time>2026-05-01T14:16:46Z</time></trkpt><trkpt lat="45.257808040422695" lon="13.71300476228398"><ele>185.0</ele><time>2026-05-01T14:16:47Z</time></trkpt><trkpt lat="45.257506950942776" lon="13.712773415568131"><ele>185.0</ele><time>2026-05-01T14:16:48Z</time></trkpt><trkpt lat="45.2572081391323" lon="13.712537125643534"><ele>183.5</ele><time>2026-05-01T14:16:49Z</time></trkpt><trkpt lat="45.25691049187767" lon="13.712299297348292"><ele>182.0</ele><time>2026-05-01T14:16:50Z</time></trkpt><trkpt lat="45.25661177682087" lon="13.712062424681015"><ele>183.5</ele><time>2026-05-01T14:16:51Z</time></trkpt><trkpt lat="45.25631431389753" lon="13.711824539160993"><ele>185.0</ele><time>2026-05-01T14:16:52Z</time></trkpt><trkpt lat="45.25601519442333" lon="13.711587521464681"><ele>185.0</ele><time>2026-05-01T14:16:53Z</time></trkpt><trkpt lat="45.25571760127586" lon="13.711348458355447"><ele>185.0</ele><time>2026-05-01T14:16:54Z</time></trkpt><trkpt lat="45.255420705361324" lon="13.711107964324402"><ele>184.5</ele><time>2026-05-01T14:16:55Z</time></trkpt><trkpt lat="45.255122898324196" lon="13.710870385550491"><ele>184.0</ele><time>2026-05-01T14:16:56Z</time></trkpt><trkpt lat="45.254823472660014" lon="13.710632424519538"><ele>183.5</ele><time>2026-05-01T14:16:57Z</time></trkpt><trkpt lat="45.2545244844539" lon="13.710396629223984"><ele>183.0</ele><time>2026-05-01T14:16:58Z</time></trkpt><trkpt lat="45.25422538377559" lon="13.710161034671247"><ele>186.0</ele><time>2026-05-01T14:16:59Z</time></trkpt><trkpt lat="45.25392693815" lon="13.709928054497375"><ele>189.0</ele><time>2026-05-01T14:17:00Z</time></trkpt><trkpt lat="45.25362577090187" lon="13.70969815906508"><ele>189.0</ele><time>2026-05-01T14:17:01Z</time></trkpt><trkpt lat="45.25332822764613" lon="13.709460127079703"><ele>189.0</ele><time>2026-05-01T14:17:02Z</time></trkpt><trkpt lat="45.25303151111188" lon="13.709219779315802"><ele>187.5</ele><time>2026-05-01T14:17:03Z</time></trkpt><trkpt lat="45.2527324722208" lon="13.70898424059301"><ele>186.0</ele><time>2026-05-01T14:17:04Z</time></trkpt><trkpt lat="45.252430799107856" lon="13.7087560066066"><ele>183.0</ele><time>2026-05-01T14:17:05Z</time></trkpt><trkpt lat="45.252123737432626" lon="13.708543132586902"><ele>180.0</ele><time>2026-05-01T14:17:06Z</time></trkpt><trkpt lat="45.25181332369989" lon="13.70834514491828"><ele>180.0</ele><time>2026-05-01T14:17:07Z</time></trkpt><trkpt lat="45.251498001283444" lon="13.708162486517223"><ele>180.0</ele><time>2026-05-01T14:17:08Z</time></trkpt><trkpt lat="45.25117960794373" lon="13.707993381494974"><ele>179.5</ele><time>2026-05-01T14:17:09Z</time></trkpt><trkpt lat="45.25085532015183" lon="13.707842867320435"><ele>179.0</ele><time>2026-05-01T14:17:10Z</time></trkpt><trkpt lat="45.25052787209175" lon="13.707709595533311"><ele>178.5</ele><time>2026-05-01T14:17:11Z</time></trkpt><trkpt lat="45.250196370692784" lon="13.707597381589409"><ele>178.0</ele><time>2026-05-01T14:17:12Z</time></trkpt><trkpt lat="45.249861765258224" lon="13.707500633259556"><ele>179.0</ele><time>2026-05-01T14:17:13Z</time></trkpt><trkpt lat="45.24952654570301" lon="13.707418376557625"><ele>180.0</ele><time>2026-05-01T14:17:14Z</time></trkpt><trkpt lat="45.249187794905836" lon="13.707350159700319"><ele>181.5</ele><time>2026-05-01T14:17:15Z</time></trkpt><trkpt lat="45.248848291764624" lon="13.70730020307417"><ele>183.0</ele><time>2026-05-01T14:17:16Z</time></trkpt><trkpt lat="45.2485075739037" lon="13.707269805179811"><ele>183.0</ele><time>2026-05-01T14:17:17Z</time></trkpt><trkpt lat="45.2481685566446" lon="13.707257095155388"><ele>183.0</ele><time>2026-05-01T14:17:18Z</time></trkpt><trkpt lat="45.2478278368825" lon="13.70726876016025"><ele>184.0</ele><time>2026-05-01T14:17:19Z</time></trkpt><trkpt lat="45.24748641783141" lon="13.70729726848938"><ele>185.0</ele><time>2026-05-01T14:17:20Z</time></trkpt><trkpt lat="45.24714513714435" lon="13.70734171871668"><ele>186.0</ele><time>2026-05-01T14:17:21Z</time></trkpt><trkpt lat="45.246806019921884" lon="13.707405150148187"><ele>187.0</ele><time>2026-05-01T14:17:22Z</time></trkpt><trkpt lat="45.24646991730524" lon="13.707488631325631"><ele>187.5</ele><time>2026-05-01T14:17:23Z</time></trkpt><trkpt lat="45.24613154708006" lon="13.707585303034616"><ele>188.0</ele><time>2026-05-01T14:17:24Z</time></trkpt><trkpt lat="45.24579539258181" lon="13.70770325984108"><ele>189.5</ele><time>2026-05-01T14:17:25Z</time></trkpt><trkpt lat="45.24546945944573" lon="13.707832206808567"><ele>191.0</ele><time>2026-05-01T14:17:26Z</time></trkpt><trkpt lat="45.24514539027263" lon="13.707983757574564"><ele>191.0</ele><time>2026-05-01T14:17:27Z</time></trkpt><trkpt lat="45.244827415743586" lon="13.708155617755418"><ele>191.0</ele><time>2026-05-01T14:17:28Z</time></trkpt><trkpt lat="45.24451217417914" lon="13.70833998458423"><ele>190.0</ele><time>2026-05-01T14:17:29Z</time></trkpt><trkpt lat="45.24420162197989" lon="13.70854042913753"><ele>189.0</ele><time>2026-05-01T14:17:30Z</time></trkpt><trkpt lat="45.243896809471174" lon="13.708757774548669"><ele>187.5</ele><time>2026-05-01T14:17:31Z</time></trkpt><trkpt lat="45.24359825588206" lon="13.708992367075961"><ele>186.0</ele><time>2026-05-01T14:17:32Z</time></trkpt><trkpt lat="45.24330671851557" lon="13.709241700484947"><ele>185.5</ele><time>2026-05-01T14:17:33Z</time></trkpt><trkpt lat="45.24302177675606" lon="13.709507632844316"><ele>185.0</ele><time>2026-05-01T14:17:34Z</time></trkpt><trkpt lat="45.24274347350228" lon="13.709787562808527"><ele>185.0</ele><time>2026-05-01T14:17:35Z</time></trkpt><trkpt lat="45.24247245852904" lon="13.710081277859985"><ele>185.0</ele><time>2026-05-01T14:17:36Z</time></trkpt><trkpt lat="45.242209283023264" lon="13.710390390097087"><ele>184.5</ele><time>2026-05-01T14:17:37Z</time></trkpt><trkpt lat="45.241953447349815" lon="13.710713142420575"><ele>184.0</ele><time>2026-05-01T14:17:38Z</time></trkpt><trkpt lat="45.24170703132659" lon="13.711049029760364"><ele>183.5</ele><time>2026-05-01T14:17:39Z</time></trkpt><trkpt lat="45.24147307305003" lon="13.71140108009757"><ele>183.0</ele><time>2026-05-01T14:17:40Z</time></trkpt><trkpt lat="45.241244761331586" lon="13.71176113049961"><ele>184.5</ele><time>2026-05-01T14:17:41Z</time></trkpt><trkpt lat="45.24102679687128" lon="13.712135133351309"><ele>186.0</ele><time>2026-05-01T14:17:42Z</time></trkpt><trkpt lat="45.24081966265713" lon="13.712520121832615"><ele>184.0</ele><time>2026-05-01T14:17:43Z</time></trkpt><trkpt lat="45.24062212836359" lon="13.712913948716617"><ele>182.0</ele><time>2026-05-01T14:17:44Z</time></trkpt><trkpt lat="45.24042677111284" lon="13.713312853735586"><ele>182.5</ele><time>2026-05-01T14:17:45Z</time></trkpt><trkpt lat="45.24023103772368" lon="13.713711645871134"><ele>183.0</ele><time>2026-05-01T14:17:46Z</time></trkpt><trkpt lat="45.240033238767246" lon="13.714107894108706"><ele>182.0</ele><time>2026-05-01T14:17:47Z</time></trkpt><trkpt lat="45.23983081900548" lon="13.714497463811865"><ele>181.0</ele><time>2026-05-01T14:17:48Z</time></trkpt><trkpt lat="45.23962180262834" lon="13.714882054740938"><ele>182.5</ele><time>2026-05-01T14:17:49Z</time></trkpt><trkpt lat="45.239406544266316" lon="13.71526122242106"><ele>184.0</ele><time>2026-05-01T14:17:50Z</time></trkpt><trkpt lat="45.2391840503695" lon="13.715630752500216"><ele>183.5</ele><time>2026-05-01T14:17:51Z</time></trkpt><trkpt lat="45.23895339718655" lon="13.715992440249018"><ele>183.0</ele><time>2026-05-01T14:17:52Z</time></trkpt><trkpt lat="45.238717527974224" lon="13.716343848320692"><ele>183.0</ele><time>2026-05-01T14:17:53Z</time></trkpt><trkpt lat="45.238477611577615" lon="13.716689082799878"><ele>183.0</ele><time>2026-05-01T14:17:54Z</time></trkpt><trkpt lat="45.23823241336891" lon="13.717028239420403"><ele>182.0</ele><time>2026-05-01T14:17:55Z</time></trkpt><trkpt lat="45.23798205473698" lon="13.717360935712179"><ele>181.0</ele><time>2026-05-01T14:17:56Z</time></trkpt><trkpt lat="45.23772612244908" lon="13.717680942535454"><ele>182.0</ele><time>2026-05-01T14:17:57Z</time></trkpt><trkpt lat="45.2374647745662" lon="13.717991860601206"><ele>183.0</ele><time>2026-05-01T14:17:58Z</time></trkpt><trkpt lat="45.23719906959759" lon="13.718296532455879"><ele>182.5</ele><time>2026-05-01T14:17:59Z</time></trkpt><trkpt lat="45.236928234686445" lon="13.718591578146977"><ele>182.0</ele><time>2026-05-01T14:18:00Z</time></trkpt><trkpt lat="45.23665370082227" lon="13.718878939641867"><ele>181.0</ele><time>2026-05-01T14:18:01Z</time></trkpt><trkpt lat="45.23637502908377" lon="13.71915669816509"><ele>180.0</ele><time>2026-05-01T14:18:02Z</time></trkpt><trkpt lat="45.236090291626326" lon="13.719427215090155"><ele>180.0</ele><time>2026-05-01T14:18:03Z</time></trkpt><trkpt lat="45.23580248151988" lon="13.719688344255319"><ele>180.0</ele><time>2026-05-01T14:18:04Z</time></trkpt><trkpt lat="45.235511816172306" lon="13.719940473664673"><ele>181.5</ele><time>2026-05-01T14:18:05Z</time></trkpt><trkpt lat="45.23521588129657" lon="13.720181940425151"><ele>183.0</ele><time>2026-05-01T14:18:06Z</time></trkpt><trkpt lat="45.23491612002154" lon="13.720407412505537"><ele>184.0</ele><time>2026-05-01T14:18:07Z</time></trkpt><trkpt lat="45.2346106160585" lon="13.720620491985406"><ele>185.0</ele><time>2026-05-01T14:18:08Z</time></trkpt><trkpt lat="45.234302160050675" lon="13.72082642815015"><ele>185.0</ele><time>2026-05-01T14:18:09Z</time></trkpt><trkpt lat="45.233989232533695" lon="13.721024662600755"><ele>185.0</ele><time>2026-05-01T14:18:10Z</time></trkpt><trkpt lat="45.23367315415557" lon="13.721212358718997"><ele>185.0</ele><time>2026-05-01T14:18:11Z</time></trkpt><trkpt lat="45.23335472053887" lon="13.721386917616188"><ele>185.0</ele><time>2026-05-01T14:18:12Z</time></trkpt><trkpt lat="45.233033854665685" lon="13.721553811696841"><ele>185.0</ele><time>2026-05-01T14:18:13Z</time></trkpt><trkpt lat="45.232710166718256" lon="13.72171271802688"><ele>185.0</ele><time>2026-05-01T14:18:14Z</time></trkpt><trkpt lat="45.232383503884336" lon="13.721858781833195"><ele>187.0</ele><time>2026-05-01T14:18:15Z</time></trkpt><trkpt lat="45.23205307586598" lon="13.721992442382247"><ele>189.0</ele><time>2026-05-01T14:18:16Z</time></trkpt><trkpt lat="45.23172144942234" lon="13.72211495705685"><ele>189.5</ele><time>2026-05-01T14:18:17Z</time></trkpt><trkpt lat="45.23138745596505" lon="13.722227229857175"><ele>190.0</ele><time>2026-05-01T14:18:18Z</time></trkpt><trkpt lat="45.231051906286915" lon="13.72232433709806"><ele>190.0</ele><time>2026-05-01T14:18:19Z</time></trkpt><trkpt lat="45.23071273001614" lon="13.722412034084726"><ele>190.0</ele><time>2026-05-01T14:18:20Z</time></trkpt><trkpt lat="45.23037392006117" lon="13.722487610176067"><ele>190.0</ele><time>2026-05-01T14:18:21Z</time></trkpt><trkpt lat="45.230032964383206" lon="13.722556459281092"><ele>190.0</ele><time>2026-05-01T14:18:22Z</time></trkpt><trkpt lat="45.22969236914473" lon="13.722613316046127"><ele>190.0</ele><time>2026-05-01T14:18:23Z</time></trkpt><trkpt lat="45.229351122334506" lon="13.722655234392983"><ele>190.0</ele><time>2026-05-01T14:18:24Z</time></trkpt><trkpt lat="45.2290092187339" lon="13.72268960824569"><ele>191.5</ele><time>2026-05-01T14:18:25Z</time></trkpt><trkpt lat="45.228665859280454" lon="13.72271333041787"><ele>193.0</ele><time>2026-05-01T14:18:26Z</time></trkpt><trkpt lat="45.22832317054215" lon="13.722723305578478"><ele>192.5</ele><time>2026-05-01T14:18:27Z</time></trkpt><trkpt lat="45.22798080416333" lon="13.722720552924134"><ele>192.0</ele><time>2026-05-01T14:18:28Z</time></trkpt><trkpt lat="45.22763817130373" lon="13.722706619535524"><ele>189.5</ele><time>2026-05-01T14:18:29Z</time></trkpt><trkpt lat="45.22729616935257" lon="13.722684119525857"><ele>187.0</ele><time>2026-05-01T14:18:30Z</time></trkpt><trkpt lat="45.2269543279544" lon="13.722651378178295"><ele>187.0</ele><time>2026-05-01T14:18:31Z</time></trkpt><trkpt lat="45.22661403272574" lon="13.72261450418614"><ele>187.0</ele><time>2026-05-01T14:18:32Z</time></trkpt><trkpt lat="45.2262728547128" lon="13.722575097401274"><ele>186.0</ele><time>2026-05-01T14:18:33Z</time></trkpt><trkpt lat="45.2259321622951" lon="13.722533753742988"><ele>185.0</ele><time>2026-05-01T14:18:34Z</time></trkpt><trkpt lat="45.22559226608234" lon="13.722493858665974"><ele>184.0</ele><time>2026-05-01T14:18:35Z</time></trkpt><trkpt lat="45.22525104530299" lon="13.72245629133273"><ele>183.0</ele><time>2026-05-01T14:18:36Z</time></trkpt><trkpt lat="45.224910312219784" lon="13.722421148228388"><ele>183.0</ele><time>2026-05-01T14:18:37Z</time></trkpt><trkpt lat="45.22456827432042" lon="13.722389476696984"><ele>183.0</ele><time>2026-05-01T14:18:38Z</time></trkpt><trkpt lat="45.22422626287834" lon="13.722359419898975"><ele>182.5</ele><time>2026-05-01T14:18:39Z</time></trkpt><trkpt lat="45.223884180582175" lon="13.7223349152125"><ele>182.0</ele><time>2026-05-01T14:18:40Z</time></trkpt><trkpt lat="45.22354209376642" lon="13.72231299580526"><ele>182.0</ele><time>2026-05-01T14:18:41Z</time></trkpt><trkpt lat="45.22320003693548" lon="13.722300709680765"><ele>182.0</ele><time>2026-05-01T14:18:42Z</time></trkpt><trkpt lat="45.22286021901804" lon="13.722295387742134"><ele>181.0</ele><time>2026-05-01T14:18:43Z</time></trkpt><trkpt lat="45.22251900313922" lon="13.72229406489603"><ele>180.0</ele><time>2026-05-01T14:18:44Z</time></trkpt><trkpt lat="45.22217795261956" lon="13.722297372090159"><ele>179.5</ele><time>2026-05-01T14:18:45Z</time></trkpt><trkpt lat="45.221836140085" lon="13.722311123537217"><ele>179.0</ele><time>2026-05-01T14:18:46Z</time></trkpt><trkpt lat="45.22149473426702" lon="13.722328063819527"><ele>178.0</ele><time>2026-05-01T14:18:47Z</time></trkpt><trkpt lat="45.221152717872485" lon="13.722350728664406"><ele>177.0</ele><time>2026-05-01T14:18:48Z</time></trkpt><trkpt lat="45.22081135852751" lon="13.722381016179066"><ele>175.5</ele><time>2026-05-01T14:18:49Z</time></trkpt><trkpt lat="45.22047132670477" lon="13.72241479136058"><ele>174.0</ele><time>2026-05-01T14:18:50Z</time></trkpt><trkpt lat="45.22013169613362" lon="13.72245804051063"><ele>173.0</ele><time>2026-05-01T14:18:51Z</time></trkpt><trkpt lat="45.219792910051424" lon="13.722509123442428"><ele>172.0</ele><time>2026-05-01T14:18:52Z</time></trkpt><trkpt lat="45.21945346160541" lon="13.722565572948318"><ele>172.0</ele><time>2026-05-01T14:18:53Z</time></trkpt><trkpt lat="45.21911363920986" lon="13.722627568662059"><ele>172.0</ele><time>2026-05-01T14:18:54Z</time></trkpt><trkpt lat="45.218775005731295" lon="13.722693211841218"><ele>172.0</ele><time>2026-05-01T14:18:55Z</time></trkpt><trkpt lat="45.21843621556131" lon="13.722764477660673"><ele>172.0</ele><time>2026-05-01T14:18:56Z</time></trkpt><trkpt lat="45.218099925137395" lon="13.722844078022595"><ele>171.0</ele><time>2026-05-01T14:18:57Z</time></trkpt><trkpt lat="45.217763401094444" lon="13.72293327117284"><ele>170.0</ele><time>2026-05-01T14:18:58Z</time></trkpt><trkpt lat="45.21742934546927" lon="13.723028485577561"><ele>170.0</ele><time>2026-05-01T14:18:59Z</time></trkpt><trkpt lat="45.217096351140746" lon="13.72312995462984"><ele>170.0</ele><time>2026-05-01T14:19:00Z</time></trkpt><trkpt lat="45.216764415545526" lon="13.72324024117006"><ele>171.0</ele><time>2026-05-01T14:19:01Z</time></trkpt><trkpt lat="45.216433818296856" lon="13.723360262714031"><ele>172.0</ele><time>2026-05-01T14:19:02Z</time></trkpt><trkpt lat="45.21610368496476" lon="13.72347915703566"><ele>173.0</ele><time>2026-05-01T14:19:03Z</time></trkpt><trkpt lat="45.21577406511962" lon="13.723604825043921"><ele>174.0</ele><time>2026-05-01T14:19:04Z</time></trkpt><trkpt lat="45.21544437900402" lon="13.723735940100095"><ele>174.0</ele><time>2026-05-01T14:19:05Z</time></trkpt><trkpt lat="45.21511689625226" lon="13.72387601832844"><ele>174.0</ele><time>2026-05-01T14:19:06Z</time></trkpt><trkpt lat="45.21479117525611" lon="13.724022033734588"><ele>173.0</ele><time>2026-05-01T14:19:07Z</time></trkpt><trkpt lat="45.2144654905229" lon="13.724172041049858"><ele>172.0</ele><time>2026-05-01T14:19:08Z</time></trkpt><trkpt lat="45.21414205956755" lon="13.724329232850964"><ele>171.0</ele><time>2026-05-01T14:19:09Z</time></trkpt><trkpt lat="45.21381971031622" lon="13.724492262539394"><ele>170.0</ele><time>2026-05-01T14:19:10Z</time></trkpt><trkpt lat="45.21349637787904" lon="13.72465648137067"><ele>170.0</ele><time>2026-05-01T14:19:11Z</time></trkpt><trkpt lat="45.21317549148154" lon="13.724822691859163"><ele>170.0</ele><time>2026-05-01T14:19:12Z</time></trkpt><trkpt lat="45.212855186930895" lon="13.72499136177641"><ele>169.5</ele><time>2026-05-01T14:19:13Z</time></trkpt><trkpt lat="45.212535271421785" lon="13.725157865807937"><ele>169.0</ele><time>2026-05-01T14:19:14Z</time></trkpt><trkpt lat="45.21221466914808" lon="13.72532621405716"><ele>171.5</ele><time>2026-05-01T14:19:15Z</time></trkpt><trkpt lat="45.21189367313525" lon="13.725490964207745"><ele>174.0</ele><time>2026-05-01T14:19:16Z</time></trkpt><trkpt lat="45.21157256386493" lon="13.72565707153889"><ele>175.5</ele><time>2026-05-01T14:19:17Z</time></trkpt><trkpt lat="45.2112522341842" lon="13.725825814288687"><ele>177.0</ele><time>2026-05-01T14:19:18Z</time></trkpt><trkpt lat="45.21093210860853" lon="13.725994946977643"><ele>177.5</ele><time>2026-05-01T14:19:19Z</time></trkpt><trkpt lat="45.210610379579535" lon="13.726162313993122"><ele>178.0</ele><time>2026-05-01T14:19:20Z</time></trkpt><trkpt lat="45.210287947935015" lon="13.726327938824486"><ele>178.0</ele><time>2026-05-01T14:19:21Z</time></trkpt><trkpt lat="45.20996635463051" lon="13.726492428315263"><ele>178.0</ele><time>2026-05-01T14:19:22Z</time></trkpt><trkpt lat="45.20964540622078" lon="13.726660332462309"><ele>179.0</ele><time>2026-05-01T14:19:23Z</time></trkpt><trkpt lat="45.20932512132874" lon="13.726828496820579"><ele>180.0</ele><time>2026-05-01T14:19:24Z</time></trkpt><trkpt lat="45.209003874992874" lon="13.726994359217148"><ele>178.5</ele><time>2026-05-01T14:19:25Z</time></trkpt><trkpt lat="45.20868178197875" lon="13.7271598204733"><ele>177.0</ele><time>2026-05-01T14:19:26Z</time></trkpt><trkpt lat="45.20836080845357" lon="13.727324758483551"><ele>176.5</ele><time>2026-05-01T14:19:27Z</time></trkpt><trkpt lat="45.208039638857876" lon="13.727491441084409"><ele>176.0</ele><time>2026-05-01T14:19:28Z</time></trkpt><trkpt lat="45.20771865797836" lon="13.727659751385584"><ele>176.0</ele><time>2026-05-01T14:19:29Z</time></trkpt><trkpt lat="45.20739988113657" lon="13.727825792162216"><ele>176.0</ele><time>2026-05-01T14:19:30Z</time></trkpt><trkpt lat="45.20708041733685" lon="13.727992977724528"><ele>176.0</ele><time>2026-05-01T14:19:31Z</time></trkpt><trkpt lat="45.206759685376035" lon="13.728160773747552"><ele>176.0</ele><time>2026-05-01T14:19:32Z</time></trkpt><trkpt lat="45.2064395136713" lon="13.728326094735124"><ele>176.0</ele><time>2026-05-01T14:19:33Z</time></trkpt><trkpt lat="45.20611684103585" lon="13.728486980627236"><ele>176.0</ele><time>2026-05-01T14:19:34Z</time></trkpt><trkpt lat="45.20579276607339" lon="13.728644198851063"><ele>177.5</ele><time>2026-05-01T14:19:35Z</time></trkpt><trkpt lat="45.20546700043794" lon="13.728795025959299"><ele>179.0</ele><time>2026-05-01T14:19:36Z</time></trkpt><trkpt lat="45.205138349347784" lon="13.728938478163718"><ele>176.5</ele><time>2026-05-01T14:19:37Z</time></trkpt><trkpt lat="45.204809030181735" lon="13.729073979276233"><ele>174.0</ele><time>2026-05-01T14:19:38Z</time></trkpt><trkpt lat="45.20447900286258" lon="13.729202949160516"><ele>174.0</ele><time>2026-05-01T14:19:39Z</time></trkpt><trkpt lat="45.20414817247934" lon="13.729325440680041"><ele>174.0</ele><time>2026-05-01T14:19:40Z</time></trkpt><trkpt lat="45.2038163693772" lon="13.729445033531626"><ele>174.0</ele><time>2026-05-01T14:19:41Z</time></trkpt><trkpt lat="45.2034831518781" lon="13.7295585262629"><ele>174.0</ele><time>2026-05-01T14:19:42Z</time></trkpt><trkpt lat="45.20314872731343" lon="13.72966284823706"><ele>174.0</ele><time>2026-05-01T14:19:43Z</time></trkpt><trkpt lat="45.20281407229202" lon="13.729763180387236"><ele>174.0</ele><time>2026-05-01T14:19:44Z</time></trkpt><trkpt lat="45.20247866856473" lon="13.729855035059483"><ele>174.5</ele><time>2026-05-01T14:19:45Z</time></trkpt><trkpt lat="45.202141726303644" lon="13.729937554757218"><ele>175.0</ele><time>2026-05-01T14:19:46Z</time></trkpt><trkpt lat="45.20180419540213" lon="13.730013682927487"><ele>176.0</ele><time>2026-05-01T14:19:47Z</time></trkpt><trkpt lat="45.201464644880886" lon="13.730082948015536"><ele>177.0</ele><time>2026-05-01T14:19:48Z</time></trkpt><trkpt lat="45.2011235302165" lon="13.730142402914597"><ele>177.0</ele><time>2026-05-01T14:19:49Z</time></trkpt><trkpt lat="45.20078319911138" lon="13.730194874930717"><ele>177.0</ele><time>2026-05-01T14:19:50Z</time></trkpt><trkpt lat="45.200441766551066" lon="13.730245878819323"><ele>177.5</ele><time>2026-05-01T14:19:51Z</time></trkpt><trkpt lat="45.20010173397159" lon="13.730290955828275"><ele>178.0</ele><time>2026-05-01T14:19:52Z</time></trkpt><trkpt lat="45.199761562821806" lon="13.73033327488536"><ele>179.0</ele><time>2026-05-01T14:19:53Z</time></trkpt><trkpt lat="45.199419875960814" lon="13.730369209799045"><ele>180.0</ele><time>2026-05-01T14:19:54Z</time></trkpt><trkpt lat="45.19907831684229" lon="13.730400583396618"><ele>182.0</ele><time>2026-05-01T14:19:55Z</time></trkpt><trkpt lat="45.198736748003206" lon="13.730430891524106"><ele>184.0</ele><time>2026-05-01T14:19:56Z</time></trkpt><trkpt lat="45.1983941747633" lon="13.730460906510443"><ele>185.0</ele><time>2026-05-01T14:19:57Z</time></trkpt><trkpt lat="45.198053749885155" lon="13.730489939416389"><ele>186.0</ele><time>2026-05-01T14:19:58Z</time></trkpt><trkpt lat="45.19771148886524" lon="13.73051569132242"><ele>186.0</ele><time>2026-05-01T14:19:59Z</time></trkpt><trkpt lat="45.19737348836736" lon="13.73053675223245"><ele>186.0</ele><time>2026-05-01T14:20:00Z</time></trkpt><trkpt lat="45.1970292419535" lon="13.730554746130162"><ele>184.5</ele><time>2026-05-01T14:20:01Z</time></trkpt><trkpt lat="45.19668864431711" lon="13.730579519064607"><ele>183.0</ele><time>2026-05-01T14:20:02Z</time></trkpt><trkpt lat="45.19634686547357" lon="13.730604397932096"><ele>183.0</ele><time>2026-05-01T14:20:03Z</time></trkpt><trkpt lat="45.19600490443356" lon="13.730625227348385"><ele>183.0</ele><time>2026-05-01T14:20:04Z</time></trkpt><trkpt lat="45.19566188982115" lon="13.730644074797297"><ele>184.5</ele><time>2026-05-01T14:20:05Z</time></trkpt><trkpt lat="45.19531909629406" lon="13.73066488239348"><ele>186.0</ele><time>2026-05-01T14:20:06Z</time></trkpt><trkpt lat="45.19497651014532" lon="13.730688911835735"><ele>186.0</ele><time>2026-05-01T14:20:07Z</time></trkpt><trkpt lat="45.1946342424224" lon="13.73071610844208"><ele>186.0</ele><time>2026-05-01T14:20:08Z</time></trkpt><trkpt lat="45.194292069038745" lon="13.73074371832538"><ele>184.0</ele><time>2026-05-01T14:20:09Z</time></trkpt><trkpt lat="45.19395071247834" lon="13.730770531838"><ele>182.0</ele><time>2026-05-01T14:20:10Z</time></trkpt><trkpt lat="45.193608646067815" lon="13.730795721988802"><ele>182.0</ele><time>2026-05-01T14:20:11Z</time></trkpt><trkpt lat="45.193272302501384" lon="13.730820057772588"><ele>182.0</ele><time>2026-05-01T14:20:12Z</time></trkpt><trkpt lat="45.192945429862185" lon="13.730844110493795"><ele>180.5</ele><time>2026-05-01T14:20:13Z</time></trkpt><trkpt lat="45.192624695509046" lon="13.730867025498688"><ele>179.0</ele><time>2026-05-01T14:20:14Z</time></trkpt><trkpt lat="45.19230653158159" lon="13.730887476255388"><ele>178.5</ele><time>2026-05-01T14:20:15Z</time></trkpt><trkpt lat="45.191988689485434" lon="13.73091043400377"><ele>178.0</ele><time>2026-05-01T14:20:16Z</time></trkpt><trkpt lat="45.191669868164546" lon="13.730934617454496"><ele>179.0</ele><time>2026-05-01T14:20:17Z</time></trkpt><trkpt lat="45.19135003071522" lon="13.730962949290433"><ele>180.0</ele><time>2026-05-01T14:20:18Z</time></trkpt><trkpt lat="45.19102847999245" lon="13.7309937220263"><ele>180.0</ele><time>2026-05-01T14:20:19Z</time></trkpt><trkpt lat="45.1907094711433" lon="13.731029936663429"><ele>180.0</ele><time>2026-05-01T14:20:20Z</time></trkpt><trkpt lat="45.19039156649583" lon="13.731068193481534"><ele>180.0</ele><time>2026-05-01T14:20:21Z</time></trkpt><trkpt lat="45.19007074160256" lon="13.73110468584787"><ele>180.0</ele><time>2026-05-01T14:20:22Z</time></trkpt><trkpt lat="45.18974870334476" lon="13.731147880242725"><ele>178.0</ele><time>2026-05-01T14:20:23Z</time></trkpt><trkpt lat="45.18942645691752" lon="13.731190615192276"><ele>176.0</ele><time>2026-05-01T14:20:24Z</time></trkpt><trkpt lat="45.189104963808354" lon="13.731235660684794"><ele>175.0</ele><time>2026-05-01T14:20:25Z</time></trkpt><trkpt lat="45.18878231472657" lon="13.731284917138142"><ele>174.0</ele><time>2026-05-01T14:20:26Z</time></trkpt><trkpt lat="45.18845675004265" lon="13.731338760574234"><ele>174.5</ele><time>2026-05-01T14:20:27Z</time></trkpt><trkpt lat="45.18812994981259" lon="13.731393954544583"><ele>175.0</ele><time>2026-05-01T14:20:28Z</time></trkpt><trkpt lat="45.18779921022107" lon="13.731452089674992"><ele>175.0</ele><time>2026-05-01T14:20:29Z</time></trkpt><trkpt lat="45.187466628438926" lon="13.731514847094864"><ele>175.0</ele><time>2026-05-01T14:20:30Z</time></trkpt><trkpt lat="45.1871359785933" lon="13.731583061588351"><ele>174.5</ele><time>2026-05-01T14:20:31Z</time></trkpt><trkpt lat="45.186805673788186" lon="13.731656200255802"><ele>174.0</ele><time>2026-05-01T14:20:32Z</time></trkpt><trkpt lat="45.18647542287703" lon="13.731733556107876"><ele>174.0</ele><time>2026-05-01T14:20:33Z</time></trkpt><trkpt lat="45.18614170525983" lon="13.731812212086986"><ele>174.0</ele><time>2026-05-01T14:20:34Z</time></trkpt><trkpt lat="45.18580549247644" lon="13.731889334941016"><ele>175.0</ele><time>2026-05-01T14:20:35Z</time></trkpt><trkpt lat="45.1854682440418" lon="13.731969831933464"><ele>176.0</ele><time>2026-05-01T14:20:36Z</time></trkpt><trkpt lat="45.185129249663284" lon="13.73205453868422"><ele>176.0</ele><time>2026-05-01T14:20:37Z</time></trkpt><trkpt lat="45.184790985751924" lon="13.732137686264172"><ele>176.0</ele><time>2026-05-01T14:20:38Z</time></trkpt><trkpt lat="45.18445240357316" lon="13.732220374762557"><ele>176.0</ele><time>2026-05-01T14:20:39Z</time></trkpt><trkpt lat="45.18411388753254" lon="13.73230632314119"><ele>176.0</ele><time>2026-05-01T14:20:40Z</time></trkpt><trkpt lat="45.183775986813465" lon="13.732390542684197"><ele>173.5</ele><time>2026-05-01T14:20:41Z</time></trkpt><trkpt lat="45.18343879210188" lon="13.732472696093128"><ele>171.0</ele><time>2026-05-01T14:20:42Z</time></trkpt><trkpt lat="45.18310190974704" lon="13.732556807091724"><ele>169.5</ele><time>2026-05-01T14:20:43Z</time></trkpt><trkpt lat="45.18276498532335" lon="13.732642319811456"><ele>168.0</ele><time>2026-05-01T14:20:44Z</time></trkpt><trkpt lat="45.18242772884092" lon="13.732730880217686"><ele>168.0</ele><time>2026-05-01T14:20:45Z</time></trkpt><trkpt lat="45.18209046735977" lon="13.73281957387298"><ele>168.0</ele><time>2026-05-01T14:20:46Z</time></trkpt><trkpt lat="45.18175347302712" lon="13.732905831895211"><ele>167.0</ele><time>2026-05-01T14:20:47Z</time></trkpt><trkpt lat="45.18141769318698" lon="13.732990994390109"><ele>166.0</ele><time>2026-05-01T14:20:48Z</time></trkpt><trkpt lat="45.18107810467351" lon="13.733072326281675"><ele>166.0</ele><time>2026-05-01T14:20:49Z</time></trkpt><trkpt lat="45.18073975261829" lon="13.733154196460207"><ele>166.0</ele><time>2026-05-01T14:20:50Z</time></trkpt><trkpt lat="45.18040215700463" lon="13.733235957075301"><ele>166.0</ele><time>2026-05-01T14:20:51Z</time></trkpt><trkpt lat="45.180065692363485" lon="13.73331816695521"><ele>166.0</ele><time>2026-05-01T14:20:52Z</time></trkpt><trkpt lat="45.17972892078495" lon="13.733399936843735"><ele>164.5</ele><time>2026-05-01T14:20:53Z</time></trkpt><trkpt lat="45.179389952379104" lon="13.733480034848705"><ele>163.0</ele><time>2026-05-01T14:20:54Z</time></trkpt><trkpt lat="45.179052384270726" lon="13.733559836226085"><ele>162.5</ele><time>2026-05-01T14:20:55Z</time></trkpt><trkpt lat="45.17871363560365" lon="13.733636542469016"><ele>162.0</ele><time>2026-05-01T14:20:56Z</time></trkpt><trkpt lat="45.17837428090064" lon="13.733708200151112"><ele>162.5</ele><time>2026-05-01T14:20:57Z</time></trkpt><trkpt lat="45.17803443538098" lon="13.733769286232375"><ele>163.0</ele><time>2026-05-01T14:20:58Z</time></trkpt><trkpt lat="45.17769377133394" lon="13.733820359433533"><ele>163.0</ele><time>2026-05-01T14:20:59Z</time></trkpt><trkpt lat="45.177353007990554" lon="13.73385490448542"><ele>163.0</ele><time>2026-05-01T14:21:00Z</time></trkpt><trkpt lat="45.177012309955806" lon="13.733873296064258"><ele>161.5</ele><time>2026-05-01T14:21:01Z</time></trkpt><trkpt lat="45.17667157025567" lon="13.733887160017861"><ele>160.0</ele><time>2026-05-01T14:21:02Z</time></trkpt><trkpt lat="45.17633072877329" lon="13.733890437432997"><ele>159.0</ele><time>2026-05-01T14:21:03Z</time></trkpt><trkpt lat="45.17599021825274" lon="13.733879192559174"><ele>158.0</ele><time>2026-05-01T14:21:04Z</time></trkpt><trkpt lat="45.17564883590407" lon="13.733857290386993"><ele>157.0</ele><time>2026-05-01T14:21:05Z</time></trkpt><trkpt lat="45.17530770715357" lon="13.733821188051644"><ele>156.0</ele><time>2026-05-01T14:21:06Z</time></trkpt><trkpt lat="45.174968591002475" lon="13.733773142125521"><ele>154.5</ele><time>2026-05-01T14:21:07Z</time></trkpt><trkpt lat="45.17462980459054" lon="13.733707812106555"><ele>153.0</ele><time>2026-05-01T14:21:08Z</time></trkpt><trkpt lat="45.17429268572109" lon="13.733628647290972"><ele>152.0</ele><time>2026-05-01T14:21:09Z</time></trkpt><trkpt lat="45.1739574445782" lon="13.73353616100843"><ele>151.0</ele><time>2026-05-01T14:21:10Z</time></trkpt><trkpt lat="45.1736233617622" lon="13.733435897448254"><ele>151.0</ele><time>2026-05-01T14:21:11Z</time></trkpt><trkpt lat="45.17329024616705" lon="13.73332778993327"><ele>151.0</ele><time>2026-05-01T14:21:12Z</time></trkpt><trkpt lat="45.172958814807345" lon="13.733210366757916"><ele>150.5</ele><time>2026-05-01T14:21:13Z</time></trkpt><trkpt lat="45.17262940382506" lon="13.733078032894438"><ele>150.0</ele><time>2026-05-01T14:21:14Z</time></trkpt><trkpt lat="45.17230062142811" lon="13.732938447178535"><ele>149.5</ele><time>2026-05-01T14:21:15Z</time></trkpt><trkpt lat="45.1719742291996" lon="13.73279630218888"><ele>149.0</ele><time>2026-05-01T14:21:16Z</time></trkpt><trkpt lat="45.17164657812349" lon="13.732654616234548"><ele>149.5</ele><time>2026-05-01T14:21:17Z</time></trkpt><trkpt lat="45.17131979387803" lon="13.732511856935991"><ele>150.0</ele><time>2026-05-01T14:21:18Z</time></trkpt><trkpt lat="45.170991789490365" lon="13.73236899275061"><ele>149.0</ele><time>2026-05-01T14:21:19Z</time></trkpt><trkpt lat="45.17066337095507" lon="13.732225404261065"><ele>148.0</ele><time>2026-05-01T14:21:20Z</time></trkpt><trkpt lat="45.1703351356878" lon="13.732083537991103"><ele>148.0</ele><time>2026-05-01T14:21:21Z</time></trkpt><trkpt lat="45.17000725628612" lon="13.731940169903682"><ele>148.0</ele><time>2026-05-01T14:21:22Z</time></trkpt><trkpt lat="45.16968051501864" lon="13.731792260180361"><ele>147.5</ele><time>2026-05-01T14:21:23Z</time></trkpt><trkpt lat="45.16935328779838" lon="13.731645750931408"><ele>147.0</ele><time>2026-05-01T14:21:24Z</time></trkpt><trkpt lat="45.169025826083704" lon="13.731502167112609"><ele>146.0</ele><time>2026-05-01T14:21:25Z</time></trkpt><trkpt lat="45.16869956277884" lon="13.731359903806835"><ele>145.0</ele><time>2026-05-01T14:21:26Z</time></trkpt><trkpt lat="45.16837428238643" lon="13.731216770227356"><ele>145.0</ele><time>2026-05-01T14:21:27Z</time></trkpt><trkpt lat="45.168047627608956" lon="13.731072300552709"><ele>145.0</ele><time>2026-05-01T14:21:28Z</time></trkpt><trkpt lat="45.16772056344823" lon="13.73092558708922"><ele>145.5</ele><time>2026-05-01T14:21:29Z</time></trkpt><trkpt lat="45.16739472664649" lon="13.73077898160733"><ele>146.0</ele><time>2026-05-01T14:21:30Z</time></trkpt><trkpt lat="45.16706885759442" lon="13.730633002619898"><ele>146.0</ele><time>2026-05-01T14:21:31Z</time></trkpt><trkpt lat="45.16674194315119" lon="13.730488459278599"><ele>146.0</ele><time>2026-05-01T14:21:32Z</time></trkpt><trkpt lat="45.16641488705757" lon="13.730345918113002"><ele>146.0</ele><time>2026-05-01T14:21:33Z</time></trkpt><trkpt lat="45.16608780986817" lon="13.730203797989924"><ele>146.0</ele><time>2026-05-01T14:21:34Z</time></trkpt><trkpt lat="45.16576094982029" lon="13.730061966232842"><ele>144.0</ele><time>2026-05-01T14:21:35Z</time></trkpt><trkpt lat="45.165434708679406" lon="13.729918593015258"><ele>142.0</ele><time>2026-05-01T14:21:36Z</time></trkpt><trkpt lat="45.1651086507114" lon="13.72977654458673"><ele>140.0</ele><time>2026-05-01T14:21:37Z</time></trkpt><trkpt lat="45.16478143739751" lon="13.72963963138787"><ele>138.0</ele><time>2026-05-01T14:21:38Z</time></trkpt><trkpt lat="45.16445375804937" lon="13.729508273856522"><ele>138.0</ele><time>2026-05-01T14:21:39Z</time></trkpt><trkpt lat="45.16412319344448" lon="13.729392433719081"><ele>138.0</ele><time>2026-05-01T14:21:40Z</time></trkpt><trkpt lat="45.16378920895986" lon="13.72929216674939"><ele>136.0</ele><time>2026-05-01T14:21:41Z</time></trkpt><trkpt lat="45.16345181931583" lon="13.729203634509384"><ele>134.0</ele><time>2026-05-01T14:21:42Z</time></trkpt><trkpt lat="45.16311299687671" lon="13.72913324074743"><ele>131.5</ele><time>2026-05-01T14:21:43Z</time></trkpt><trkpt lat="45.162773462912014" lon="13.72908244427373"><ele>129.0</ele><time>2026-05-01T14:21:44Z</time></trkpt><trkpt lat="45.162432805584125" lon="13.729049208540614"><ele>130.5</ele><time>2026-05-01T14:21:45Z</time></trkpt><trkpt lat="45.16209071213852" lon="13.729032896407105"><ele>132.0</ele><time>2026-05-01T14:21:46Z</time></trkpt><trkpt lat="45.16174909611694" lon="13.729031641935528"><ele>134.0</ele><time>2026-05-01T14:21:47Z</time></trkpt><trkpt lat="45.16140699559247" lon="13.729048773931002"><ele>136.0</ele><time>2026-05-01T14:21:48Z</time></trkpt><trkpt lat="45.161065627261074" lon="13.729082420605316"><ele>136.0</ele><time>2026-05-01T14:21:49Z</time></trkpt><trkpt lat="45.16072475095254" lon="13.729133466038155"><ele>136.0</ele><time>2026-05-01T14:21:50Z</time></trkpt><trkpt lat="45.160384227059765" lon="13.729198062201698"><ele>136.5</ele><time>2026-05-01T14:21:51Z</time></trkpt><trkpt lat="45.160046405286" lon="13.729277761213245"><ele>137.0</ele><time>2026-05-01T14:21:52Z</time></trkpt><trkpt lat="45.15971085903206" lon="13.729373814934847"><ele>138.0</ele><time>2026-05-01T14:21:53Z</time></trkpt><trkpt lat="45.15937828402672" lon="13.729489361385596"><ele>139.0</ele><time>2026-05-01T14:21:54Z</time></trkpt><trkpt lat="45.15904963136445" lon="13.729620795658896"><ele>137.5</ele><time>2026-05-01T14:21:55Z</time></trkpt><trkpt lat="45.158723621234614" lon="13.729766147812523"><ele>136.0</ele><time>2026-05-01T14:21:56Z</time></trkpt><trkpt lat="45.15839878299802" lon="13.729927661711864"><ele>135.5</ele><time>2026-05-01T14:21:57Z</time></trkpt><trkpt lat="45.15808183602154" lon="13.730108337492021"><ele>135.0</ele><time>2026-05-01T14:21:58Z</time></trkpt><trkpt lat="45.15777061003774" lon="13.730306904863346"><ele>135.0</ele><time>2026-05-01T14:21:59Z</time></trkpt><trkpt lat="45.157464880387195" lon="13.730519700875721"><ele>135.0</ele><time>2026-05-01T14:22:00Z</time></trkpt><trkpt lat="45.157161790010086" lon="13.730743970745317"><ele>135.5</ele><time>2026-05-01T14:22:01Z</time></trkpt><trkpt lat="45.15686248845712" lon="13.730979247594306"><ele>136.0</ele><time>2026-05-01T14:22:02Z</time></trkpt><trkpt lat="45.15656939860601" lon="13.731230042301055"><ele>135.5</ele><time>2026-05-01T14:22:03Z</time></trkpt><trkpt lat="45.15628385016732" lon="13.731496212940787"><ele>135.0</ele><time>2026-05-01T14:22:04Z</time></trkpt><trkpt lat="45.1560060633248" lon="13.731777982175695"><ele>134.5</ele><time>2026-05-01T14:22:05Z</time></trkpt><trkpt lat="45.15573554511327" lon="13.732072712323406"><ele>134.0</ele><time>2026-05-01T14:22:06Z</time></trkpt><trkpt lat="45.155473096559184" lon="13.7323828764584"><ele>131.5</ele><time>2026-05-01T14:22:07Z</time></trkpt><trkpt lat="45.15521798604699" lon="13.732704151242208"><ele>129.0</ele><time>2026-05-01T14:22:08Z</time></trkpt><trkpt lat="45.15497247657735" lon="13.733038007516853"><ele>125.5</ele><time>2026-05-01T14:22:09Z</time></trkpt><trkpt lat="45.15473369820675" lon="13.733381673675803"><ele>122.0</ele><time>2026-05-01T14:22:10Z</time></trkpt><trkpt lat="45.154500745331646" lon="13.733735082029687"><ele>121.0</ele><time>2026-05-01T14:22:11Z</time></trkpt><trkpt lat="45.154278688789084" lon="13.734103084126406"><ele>120.0</ele><time>2026-05-01T14:22:12Z</time></trkpt><trkpt lat="45.1540618569738" lon="13.734479634770311"><ele>124.5</ele><time>2026-05-01T14:22:13Z</time></trkpt><trkpt lat="45.153850748787086" lon="13.734863107927463"><ele>129.0</ele><time>2026-05-01T14:22:14Z</time></trkpt><trkpt lat="45.153646790610814" lon="13.735254503498512"><ele>130.0</ele><time>2026-05-01T14:22:15Z</time></trkpt><trkpt lat="45.1534458756214" lon="13.735645437104951"><ele>131.0</ele><time>2026-05-01T14:22:16Z</time></trkpt><trkpt lat="45.15324737235951" lon="13.73603832635854"><ele>133.0</ele><time>2026-05-01T14:22:17Z</time></trkpt><trkpt lat="45.153048826081815" lon="13.73643268067135"><ele>135.0</ele><time>2026-05-01T14:22:18Z</time></trkpt><trkpt lat="45.15285075246197" lon="13.736822936617177"><ele>136.0</ele><time>2026-05-01T14:22:19Z</time></trkpt><trkpt lat="45.15265371531593" lon="13.73721365880558"><ele>137.0</ele><time>2026-05-01T14:22:20Z</time></trkpt><trkpt lat="45.152458313099686" lon="13.73760586070075"><ele>137.5</ele><time>2026-05-01T14:22:21Z</time></trkpt><trkpt lat="45.15226185466212" lon="13.737993995823047"><ele>138.0</ele><time>2026-05-01T14:22:22Z</time></trkpt><trkpt lat="45.15206393211015" lon="13.738383885230014"><ele>138.0</ele><time>2026-05-01T14:22:23Z</time></trkpt><trkpt lat="45.151864176207305" lon="13.738773257395707"><ele>138.0</ele><time>2026-05-01T14:22:24Z</time></trkpt><trkpt lat="45.15166638762761" lon="13.739164263841385"><ele>140.0</ele><time>2026-05-01T14:22:25Z</time></trkpt><trkpt lat="45.15146604507928" lon="13.73955517267788"><ele>142.0</ele><time>2026-05-01T14:22:26Z</time></trkpt><trkpt lat="45.15126632814854" lon="13.73994513819806"><ele>141.5</ele><time>2026-05-01T14:22:27Z</time></trkpt><trkpt lat="45.15106508924122" lon="13.740337189704247"><ele>141.0</ele><time>2026-05-01T14:22:28Z</time></trkpt><trkpt lat="45.150868494308476" lon="13.740727642663247"><ele>143.0</ele><time>2026-05-01T14:22:29Z</time></trkpt><trkpt lat="45.15066844551112" lon="13.741116926172749"><ele>145.0</ele><time>2026-05-01T14:22:30Z</time></trkpt><trkpt lat="45.150466869434936" lon="13.741507799451693"><ele>145.0</ele><time>2026-05-01T14:22:31Z</time></trkpt><trkpt lat="45.15026073022084" lon="13.741895976831751"><ele>145.0</ele><time>2026-05-01T14:22:32Z</time></trkpt><trkpt lat="45.15005240880786" lon="13.742279537080657"><ele>145.5</ele><time>2026-05-01T14:22:33Z</time></trkpt><trkpt lat="45.14984031263935" lon="13.742659353153146"><ele>146.0</ele><time>2026-05-01T14:22:34Z</time></trkpt><trkpt lat="45.149622970213514" lon="13.743031423218326"><ele>146.0</ele><time>2026-05-01T14:22:35Z</time></trkpt><trkpt lat="45.149398398798596" lon="13.74339561327328"><ele>146.0</ele><time>2026-05-01T14:22:36Z</time></trkpt><trkpt lat="45.149167947637615" lon="13.74375092689622"><ele>146.5</ele><time>2026-05-01T14:22:37Z</time></trkpt><trkpt lat="45.148931567564176" lon="13.744099958906538"><ele>147.0</ele><time>2026-05-01T14:22:38Z</time></trkpt><trkpt lat="45.14868678022216" lon="13.744434159199862"><ele>149.5</ele><time>2026-05-01T14:22:39Z</time></trkpt><trkpt lat="45.14843691278173" lon="13.744762107904073"><ele>152.0</ele><time>2026-05-01T14:22:40Z</time></trkpt><trkpt lat="45.14818023458525" lon="13.745078240784313"><ele>153.0</ele><time>2026-05-01T14:22:41Z</time></trkpt><trkpt lat="45.147917480552316" lon="13.745385616827935"><ele>154.0</ele><time>2026-05-01T14:22:42Z</time></trkpt><trkpt lat="45.14764942826874" lon="13.74568490274663"><ele>154.0</ele><time>2026-05-01T14:22:43Z</time></trkpt><trkpt lat="45.1473795213857" lon="13.745981073701792"><ele>154.0</ele><time>2026-05-01T14:22:44Z</time></trkpt><trkpt lat="45.147108997930864" lon="13.746276505993285"><ele>156.0</ele><time>2026-05-01T14:22:45Z</time></trkpt><trkpt lat="45.146839126380065" lon="13.746573355044255"><ele>158.0</ele><time>2026-05-01T14:22:46Z</time></trkpt><trkpt lat="45.1465708507636" lon="13.746871728718375"><ele>158.5</ele><time>2026-05-01T14:22:47Z</time></trkpt><trkpt lat="45.146300805387604" lon="13.747167680996927"><ele>159.0</ele><time>2026-05-01T14:22:48Z</time></trkpt><trkpt lat="45.14602868622228" lon="13.747464028034868"><ele>160.0</ele><time>2026-05-01T14:22:49Z</time></trkpt><trkpt lat="45.1457584426419" lon="13.747762394427019"><ele>161.0</ele><time>2026-05-01T14:22:50Z</time></trkpt><trkpt lat="45.14549170295465" lon="13.74806667728919"><ele>158.5</ele><time>2026-05-01T14:22:51Z</time></trkpt><trkpt lat="45.14522809093958" lon="13.748375376793833"><ele>156.0</ele><time>2026-05-01T14:22:52Z</time></trkpt><trkpt lat="45.14496563535894" lon="13.74868793495834"><ele>155.5</ele><time>2026-05-01T14:22:53Z</time></trkpt><trkpt lat="45.14470708318447" lon="13.749007400661414"><ele>155.0</ele><time>2026-05-01T14:22:54Z</time></trkpt><trkpt lat="45.14445641994153" lon="13.749334682235693"><ele>156.0</ele><time>2026-05-01T14:22:55Z</time></trkpt><trkpt lat="45.14421020031803" lon="13.749669927314832"><ele>157.0</ele><time>2026-05-01T14:22:56Z</time></trkpt><trkpt lat="45.14396979166412" lon="13.7500137465644"><ele>160.0</ele><time>2026-05-01T14:22:57Z</time></trkpt><trkpt lat="45.143736906473215" lon="13.750368396459434"><ele>163.0</ele><time>2026-05-01T14:22:58Z</time></trkpt><trkpt lat="45.1435115807771" lon="13.750731277352887"><ele>163.5</ele><time>2026-05-01T14:22:59Z</time></trkpt><trkpt lat="45.14329510037261" lon="13.75110160777568"><ele>164.0</ele><time>2026-05-01T14:23:00Z</time></trkpt><trkpt lat="45.143085832008055" lon="13.751481260267928"><ele>164.0</ele><time>2026-05-01T14:23:01Z</time></trkpt><trkpt lat="45.142881905933784" lon="13.75187035531912"><ele>164.0</ele><time>2026-05-01T14:23:02Z</time></trkpt><trkpt lat="45.14268300851936" lon="13.752263363272254"><ele>163.5</ele><time>2026-05-01T14:23:03Z</time></trkpt><trkpt lat="45.1424907318413" lon="13.752662357830403"><ele>163.0</ele><time>2026-05-01T14:23:04Z</time></trkpt><trkpt lat="45.142304836176386" lon="13.753067511169387"><ele>163.0</ele><time>2026-05-01T14:23:05Z</time></trkpt><trkpt lat="45.14212437847712" lon="13.753478684179534"><ele>163.0</ele><time>2026-05-01T14:23:06Z</time></trkpt><trkpt lat="45.14195206539003" lon="13.753898314378143"><ele>164.5</ele><time>2026-05-01T14:23:07Z</time></trkpt><trkpt lat="45.14178836558626" lon="13.754322355976077"><ele>166.0</ele><time>2026-05-01T14:23:08Z</time></trkpt><trkpt lat="45.1416340845637" lon="13.754751187063622"><ele>165.5</ele><time>2026-05-01T14:23:09Z</time></trkpt><trkpt lat="45.141487824310175" lon="13.75518649766972"><ele>165.0</ele><time>2026-05-01T14:23:10Z</time></trkpt><trkpt lat="45.14134530473836" lon="13.755625084115959"><ele>167.5</ele><time>2026-05-01T14:23:11Z</time></trkpt><trkpt lat="45.14120686591868" lon="13.756066740567123"><ele>170.0</ele><time>2026-05-01T14:23:12Z</time></trkpt><trkpt lat="45.14107187907579" lon="13.756508606475165"><ele>171.0</ele><time>2026-05-01T14:23:13Z</time></trkpt><trkpt lat="45.140937395126535" lon="13.756952741791933"><ele>172.0</ele><time>2026-05-01T14:23:14Z</time></trkpt><trkpt lat="45.14080332541816" lon="13.757397450819303"><ele>173.5</ele><time>2026-05-01T14:23:15Z</time></trkpt><trkpt lat="45.14067187435749" lon="13.757844100488303"><ele>175.0</ele><time>2026-05-01T14:23:16Z</time></trkpt><trkpt lat="45.14053990985031" lon="13.758288864155395"><ele>175.5</ele><time>2026-05-01T14:23:17Z</time></trkpt><trkpt lat="45.14040469927818" lon="13.758730908404369"><ele>176.0</ele><time>2026-05-01T14:23:18Z</time></trkpt><trkpt lat="45.14026418489682" lon="13.759171145898291"><ele>177.0</ele><time>2026-05-01T14:23:19Z</time></trkpt><trkpt lat="45.140122088304516" lon="13.759608658180765"><ele>178.0</ele><time>2026-05-01T14:23:20Z</time></trkpt><trkpt lat="45.13997580012958" lon="13.760044838364115"><ele>177.0</ele><time>2026-05-01T14:23:21Z</time></trkpt><trkpt lat="45.13982284325335" lon="13.7604759243497"><ele>176.0</ele><time>2026-05-01T14:23:22Z</time></trkpt><trkpt lat="45.1396604500369" lon="13.760902150854356"><ele>177.0</ele><time>2026-05-01T14:23:23Z</time></trkpt><trkpt lat="45.13949023852684" lon="13.761321282783685"><ele>178.0</ele><time>2026-05-01T14:23:24Z</time></trkpt><trkpt lat="45.139310913040454" lon="13.761732394878695"><ele>178.5</ele><time>2026-05-01T14:23:25Z</time></trkpt><trkpt lat="45.1391211585983" lon="13.762134873369915"><ele>179.0</ele><time>2026-05-01T14:23:26Z</time></trkpt><trkpt lat="45.138922415375816" lon="13.762528655078425"><ele>180.0</ele><time>2026-05-01T14:23:27Z</time></trkpt><trkpt lat="45.13871524781871" lon="13.76291301195956"><ele>181.0</ele><time>2026-05-01T14:23:28Z</time></trkpt><trkpt lat="45.13850173367075" lon="13.763288826804404"><ele>182.5</ele><time>2026-05-01T14:23:29Z</time></trkpt><trkpt lat="45.138282198803886" lon="13.763659505621652"><ele>184.0</ele><time>2026-05-01T14:23:30Z</time></trkpt><trkpt lat="45.13805455083882" lon="13.764020304201681"><ele>186.0</ele><time>2026-05-01T14:23:31Z</time></trkpt><trkpt lat="45.137818857195796" lon="13.764369753855119"><ele>188.0</ele><time>2026-05-01T14:23:32Z</time></trkpt><trkpt lat="45.137574364190314" lon="13.764706674607583"><ele>188.5</ele><time>2026-05-01T14:23:33Z</time></trkpt><trkpt lat="45.137320313253795" lon="13.765033659878894"><ele>189.0</ele><time>2026-05-01T14:23:34Z</time></trkpt><trkpt lat="45.13706197621238" lon="13.765347739081212"><ele>188.0</ele><time>2026-05-01T14:23:35Z</time></trkpt><trkpt lat="45.13679808412719" lon="13.765656674594949"><ele>187.0</ele><time>2026-05-01T14:23:36Z</time></trkpt><trkpt lat="45.136526102741456" lon="13.76595426590953"><ele>186.5</ele><time>2026-05-01T14:23:37Z</time></trkpt><trkpt lat="45.13624745859472" lon="13.766236377894575"><ele>186.0</ele><time>2026-05-01T14:23:38Z</time></trkpt><trkpt lat="45.13596283395521" lon="13.766505678945656"><ele>186.5</ele><time>2026-05-01T14:23:39Z</time></trkpt><trkpt lat="45.13567414819356" lon="13.766765228098725"><ele>187.0</ele><time>2026-05-01T14:23:40Z</time></trkpt><trkpt lat="45.135378899047716" lon="13.76701277476707"><ele>187.0</ele><time>2026-05-01T14:23:41Z</time></trkpt><trkpt lat="45.13507826936701" lon="13.767248729502342"><ele>187.0</ele><time>2026-05-01T14:23:42Z</time></trkpt><trkpt lat="45.134774581563875" lon="13.767472132078158"><ele>187.5</ele><time>2026-05-01T14:23:43Z</time></trkpt><trkpt lat="45.134465701803585" lon="13.76768256185705"><ele>188.0</ele><time>2026-05-01T14:23:44Z</time></trkpt><trkpt lat="45.134153004935264" lon="13.767880948437046"><ele>189.5</ele><time>2026-05-01T14:23:45Z</time></trkpt><trkpt lat="45.13383930095695" lon="13.768077107733475"><ele>191.0</ele><time>2026-05-01T14:23:46Z</time></trkpt><trkpt lat="45.133524678148234" lon="13.768272878819799"><ele>191.0</ele><time>2026-05-01T14:23:47Z</time></trkpt><trkpt lat="45.133208793953955" lon="13.76846459260537"><ele>191.0</ele><time>2026-05-01T14:23:48Z</time></trkpt><trkpt lat="45.132891426524324" lon="13.768653106540386"><ele>190.5</ele><time>2026-05-01T14:23:49Z</time></trkpt><trkpt lat="45.132576714645424" lon="13.768841003275819"><ele>190.0</ele><time>2026-05-01T14:23:50Z</time></trkpt><trkpt lat="45.13226261692624" lon="13.769036354687213"><ele>190.0</ele><time>2026-05-01T14:23:51Z</time></trkpt><trkpt lat="45.13195111690832" lon="13.769237792398004"><ele>190.0</ele><time>2026-05-01T14:23:52Z</time></trkpt><trkpt lat="45.13164079613555" lon="13.769442196021028"><ele>191.0</ele><time>2026-05-01T14:23:53Z</time></trkpt><trkpt lat="45.13133237594174" lon="13.769653654567275"><ele>192.0</ele><time>2026-05-01T14:23:54Z</time></trkpt><trkpt lat="45.131027377261866" lon="13.769874123556091"><ele>192.0</ele><time>2026-05-01T14:23:55Z</time></trkpt><trkpt lat="45.13072761829774" lon="13.77010674736416"><ele>192.0</ele><time>2026-05-01T14:23:56Z</time></trkpt><trkpt lat="45.13043026277197" lon="13.770344751404489"><ele>192.0</ele><time>2026-05-01T14:23:57Z</time></trkpt><trkpt lat="45.13013920379587" lon="13.770595496390648"><ele>192.0</ele><time>2026-05-01T14:23:58Z</time></trkpt><trkpt lat="45.129852248903376" lon="13.770857142997219"><ele>192.5</ele><time>2026-05-01T14:23:59Z</time></trkpt><trkpt lat="45.12957196253344" lon="13.771129932340608"><ele>193.0</ele><time>2026-05-01T14:24:00Z</time></trkpt><trkpt lat="45.12929682969327" lon="13.771416006743094"><ele>193.0</ele><time>2026-05-01T14:24:01Z</time></trkpt><trkpt lat="45.129027166626386" lon="13.771710921908825"><ele>193.0</ele><time>2026-05-01T14:24:02Z</time></trkpt><trkpt lat="45.12876199582083" lon="13.772016575482404"><ele>193.0</ele><time>2026-05-01T14:24:03Z</time></trkpt><trkpt lat="45.12850155604308" lon="13.772332224909116"><ele>193.0</ele><time>2026-05-01T14:24:04Z</time></trkpt><trkpt lat="45.12824602712108" lon="13.772653832355099"><ele>192.5</ele><time>2026-05-01T14:24:05Z</time></trkpt><trkpt lat="45.127993562157116" lon="13.772983121374958"><ele>192.0</ele><time>2026-05-01T14:24:06Z</time></trkpt><trkpt lat="45.12774675529207" lon="13.773320154762088"><ele>193.0</ele><time>2026-05-01T14:24:07Z</time></trkpt><trkpt lat="45.12750855897547" lon="13.77366639927347"><ele>194.0</ele><time>2026-05-01T14:24:08Z</time></trkpt><trkpt lat="45.1272766864234" lon="13.77402188627751"><ele>193.0</ele><time>2026-05-01T14:24:09Z</time></trkpt><trkpt lat="45.1270585590623" lon="13.774392607522202"><ele>192.0</ele><time>2026-05-01T14:24:10Z</time></trkpt><trkpt lat="45.126855990433015" lon="13.774766052039025"><ele>192.0</ele><time>2026-05-01T14:24:11Z</time></trkpt><trkpt lat="45.126669596154656" lon="13.775140149136694"><ele>192.0</ele><time>2026-05-01T14:24:12Z</time></trkpt><trkpt lat="45.126497275832364" lon="13.775518298446395"><ele>191.0</ele><time>2026-05-01T14:24:13Z</time></trkpt><trkpt lat="45.12633502956978" lon="13.775900349244298"><ele>190.0</ele><time>2026-05-01T14:24:14Z</time></trkpt><trkpt lat="45.12618266436701" lon="13.776283655420762"><ele>190.0</ele><time>2026-05-01T14:24:15Z</time></trkpt><trkpt lat="45.12604161428316" lon="13.776671535112913"><ele>190.0</ele><time>2026-05-01T14:24:16Z</time></trkpt><trkpt lat="45.12591134545501" lon="13.777062327986078"><ele>190.0</ele><time>2026-05-01T14:24:17Z</time></trkpt><trkpt lat="45.12578967326901" lon="13.777454998264826"><ele>190.0</ele><time>2026-05-01T14:24:18Z</time></trkpt><trkpt lat="45.125678962223326" lon="13.777847391121167"><ele>187.5</ele><time>2026-05-01T14:24:19Z</time></trkpt><trkpt lat="45.12557819269568" lon="13.778237191797798"><ele>185.0</ele><time>2026-05-01T14:24:20Z</time></trkpt><trkpt lat="45.1254867224183" lon="13.778628591703965"><ele>185.0</ele><time>2026-05-01T14:24:21Z</time></trkpt><trkpt lat="45.125405254109445" lon="13.779025803225831"><ele>185.0</ele><time>2026-05-01T14:24:22Z</time></trkpt><trkpt lat="45.12533346382999" lon="13.779428773061333"><ele>186.5</ele><time>2026-05-01T14:24:23Z</time></trkpt><trkpt lat="45.12526886460656" lon="13.779837693018743"><ele>188.0</ele><time>2026-05-01T14:24:24Z</time></trkpt><trkpt lat="45.125210036524265" lon="13.780248474693163"><ele>188.5</ele><time>2026-05-01T14:24:25Z</time></trkpt><trkpt lat="45.12515540870284" lon="13.780657475647226"><ele>189.0</ele><time>2026-05-01T14:24:26Z</time></trkpt><trkpt lat="45.12510425249411" lon="13.781059339795984"><ele>189.0</ele><time>2026-05-01T14:24:27Z</time></trkpt><trkpt lat="45.12505355295901" lon="13.781456096419841"><ele>189.0</ele><time>2026-05-01T14:24:28Z</time></trkpt><trkpt lat="45.12500383261186" lon="13.781844491659996"><ele>190.0</ele><time>2026-05-01T14:24:29Z</time></trkpt><trkpt lat="45.124956159423064" lon="13.782223971535972"><ele>191.0</ele><time>2026-05-01T14:24:30Z</time></trkpt><trkpt lat="45.1249092837301" lon="13.782596263757583"><ele>191.0</ele><time>2026-05-01T14:24:31Z</time></trkpt><trkpt lat="45.124862324303606" lon="13.78296191903357"><ele>191.0</ele><time>2026-05-01T14:24:32Z</time></trkpt><trkpt lat="45.12481643602723" lon="13.783318519945144"><ele>192.0</ele><time>2026-05-01T14:24:33Z</time></trkpt><trkpt lat="45.12477008869415" lon="13.783671993925886"><ele>193.0</ele><time>2026-05-01T14:24:34Z</time></trkpt><trkpt lat="45.124721580751" lon="13.784023920534969"><ele>192.5</ele><time>2026-05-01T14:24:35Z</time></trkpt><trkpt lat="45.12467070520872" lon="13.78437129696161"><ele>192.0</ele><time>2026-05-01T14:24:36Z</time></trkpt><trkpt lat="45.124618709092935" lon="13.784717213616748"><ele>192.0</ele><time>2026-05-01T14:24:37Z</time></trkpt><trkpt lat="45.124568521013444" lon="13.785057656613365"><ele>192.0</ele><time>2026-05-01T14:24:38Z</time></trkpt><trkpt lat="45.124516466608455" lon="13.7853881179475"><ele>192.5</ele><time>2026-05-01T14:24:39Z</time></trkpt><trkpt lat="45.1244641385623" lon="13.785714706889378"><ele>193.0</ele><time>2026-05-01T14:24:40Z</time></trkpt><trkpt lat="45.12440898554634" lon="13.786035021081435"><ele>194.0</ele><time>2026-05-01T14:24:41Z</time></trkpt><trkpt lat="45.12435490893703" lon="13.78634700183896"><ele>195.0</ele><time>2026-05-01T14:24:42Z</time></trkpt><trkpt lat="45.1243027158655" lon="13.786648973100784"><ele>196.0</ele><time>2026-05-01T14:24:43Z</time></trkpt><trkpt lat="45.12424995392669" lon="13.78694667265279"><ele>196.0</ele><time>2026-05-01T14:24:44Z</time></trkpt><trkpt lat="45.12419756556405" lon="13.787236490441037"><ele>196.0</ele><time>2026-05-01T14:24:45Z</time></trkpt><trkpt lat="45.12414378313201" lon="13.787520856891764"><ele>196.0</ele><time>2026-05-01T14:24:46Z</time></trkpt><trkpt lat="45.12408998359851" lon="13.787795549937071"><ele>195.66666666666666</ele><time>2026-05-01T14:24:47Z</time></trkpt><trkpt lat="45.124037214914836" lon="13.788063791069215"><ele>195.33333333333331</ele><time>2026-05-01T14:24:48Z</time></trkpt><trkpt lat="45.1239851720472" lon="13.788328640056644"><ele>195.0</ele><time>2026-05-01T14:24:49Z</time></trkpt><trkpt lat="45.1239361772663" lon="13.788590346854388"><ele>195.0</ele><time>2026-05-01T14:24:50Z</time></trkpt><trkpt lat="45.12388630699305" lon="13.788853398049797"><ele>195.0</ele><time>2026-05-01T14:24:51Z</time></trkpt><trkpt lat="45.123832796949756" lon="13.789118770422483"><ele>195.0</ele><time>2026-05-01T14:24:52Z</time></trkpt><trkpt lat="45.123779179972544" lon="13.789384671033192"><ele>195.66666666666669</ele><time>2026-05-01T14:24:53Z</time></trkpt><trkpt lat="45.12372325795061" lon="13.78964711243885"><ele>196.33333333333334</ele><time>2026-05-01T14:24:54Z</time></trkpt><trkpt lat="45.12366583952256" lon="13.789904798188152"><ele>197.0</ele><time>2026-05-01T14:24:55Z</time></trkpt><trkpt lat="45.123611005338574" lon="13.790158708735886"><ele>197.66666666666669</ele><time>2026-05-01T14:24:56Z</time></trkpt><trkpt lat="45.123556212768115" lon="13.790412643090203"><ele>198.33333333333331</ele><time>2026-05-01T14:24:57Z</time></trkpt><trkpt lat="45.123499153273244" lon="13.790659096643834"><ele>199.0</ele><time>2026-05-01T14:24:58Z</time></trkpt><trkpt lat="45.12344313519097" lon="13.790903083829779"><ele>199.66666666666666</ele><time>2026-05-01T14:24:59Z</time></trkpt><trkpt lat="45.12339016687452" lon="13.791144111124032"><ele>200.33333333333331</ele><time>2026-05-01T14:25:00Z</time></trkpt><trkpt lat="45.12333443340916" lon="13.791384234864712"><ele>201.0</ele><time>2026-05-01T14:25:01Z</time></trkpt><trkpt lat="45.1232767304573" lon="13.791633454994503"><ele>199.0</ele><time>2026-05-01T14:25:02Z</time></trkpt><trkpt lat="45.12321713738061" lon="13.791889428733965"><ele>197.0</ele><time>2026-05-01T14:25:03Z</time></trkpt><trkpt lat="45.12315624907115" lon="13.792154138475265"><ele>195.0</ele><time>2026-05-01T14:25:04Z</time></trkpt><trkpt lat="45.123090721710604" lon="13.792424861367296"><ele>195.33333333333331</ele><time>2026-05-01T14:25:05Z</time></trkpt><trkpt lat="45.123023152133754" lon="13.792699789157746"><ele>195.66666666666666</ele><time>2026-05-01T14:25:06Z</time></trkpt><trkpt lat="45.12295396960685" lon="13.79297738506193"><ele>196.0</ele><time>2026-05-01T14:25:07Z</time></trkpt><trkpt lat="45.12287955689271" lon="13.793259457342634"><ele>196.33333333333331</ele><time>2026-05-01T14:25:08Z</time></trkpt><trkpt lat="45.12280098726874" lon="13.793545258489333"><ele>196.66666666666669</ele><time>2026-05-01T14:25:09Z</time></trkpt><trkpt lat="45.12272189746866" lon="13.793837895425208"><ele>197.0</ele><time>2026-05-01T14:25:10Z</time></trkpt><trkpt lat="45.12264196932858" lon="13.794137095105624"><ele>198.0</ele><time>2026-05-01T14:25:11Z</time></trkpt><trkpt lat="45.12256122107879" lon="13.794439934742918"><ele>199.0</ele><time>2026-05-01T14:25:12Z</time></trkpt><trkpt lat="45.122481200103174" lon="13.794739688684938"><ele>199.0</ele><time>2026-05-01T14:25:13Z</time></trkpt><trkpt lat="45.12240360591993" lon="13.795029589365896"><ele>199.0</ele><time>2026-05-01T14:25:14Z</time></trkpt><trkpt lat="45.12232724278119" lon="13.795305683176164"><ele>199.0</ele><time>2026-05-01T14:25:15Z</time></trkpt><trkpt lat="45.12225541128571" lon="13.795573247321009"><ele>197.66666666666666</ele><time>2026-05-01T14:25:16Z</time></trkpt><trkpt lat="45.12218538589383" lon="13.795835555295728"><ele>196.33333333333331</ele><time>2026-05-01T14:25:17Z</time></trkpt><trkpt lat="45.12211590436045" lon="13.796099624999831"><ele>195.0</ele><time>2026-05-01T14:25:18Z</time></trkpt><trkpt lat="45.12204668468586" lon="13.796362571616383"><ele>195.0</ele><time>2026-05-01T14:25:19Z</time></trkpt><trkpt lat="45.12197680180575" lon="13.796627398731955"><ele>195.0</ele><time>2026-05-01T14:25:20Z</time></trkpt><trkpt lat="45.12190414714496" lon="13.796889286952995"><ele>195.0</ele><time>2026-05-01T14:25:21Z</time></trkpt><trkpt lat="45.121835004314505" lon="13.797153238094882"><ele>193.0</ele><time>2026-05-01T14:25:22Z</time></trkpt><trkpt lat="45.121765946558085" lon="13.797417227770138"><ele>191.0</ele><time>2026-05-01T14:25:23Z</time></trkpt><trkpt lat="45.121696851692164" lon="13.797679194209591"><ele>189.0</ele><time>2026-05-01T14:25:24Z</time></trkpt><trkpt lat="45.121627839089356" lon="13.797942675172976"><ele>177.0</ele><time>2026-05-01T14:25:25Z</time></trkpt><trkpt lat="45.12155631626411" lon="13.79821076917929"><ele>165.0</ele><time>2026-05-01T14:25:26Z</time></trkpt><trkpt lat="45.12148247846563" lon="13.79848400754722"><ele>153.0</ele><time>2026-05-01T14:25:27Z</time></trkpt><trkpt lat="45.12140872050896" lon="13.798763113453187"><ele>147.0</ele><time>2026-05-01T14:25:28Z</time></trkpt><trkpt lat="45.1213335086382" lon="13.79904931834504"><ele>141.0</ele><time>2026-05-01T14:25:29Z</time></trkpt><trkpt lat="45.121257289478216" lon="13.799340025312308"><ele>135.0</ele><time>2026-05-01T14:25:30Z</time></trkpt><trkpt lat="45.12117977968675" lon="13.799632898781043"><ele>121.5</ele><time>2026-05-01T14:25:31Z</time></trkpt><trkpt lat="45.121100604055265" lon="13.799931330855165"><ele>108.0</ele><time>2026-05-01T14:25:32Z</time></trkpt><trkpt lat="45.12102103058802" lon="13.800235348053448"><ele>103.5</ele><time>2026-05-01T14:25:33Z</time></trkpt><trkpt lat="45.12093913257137" lon="13.800542847787915"><ele>99.0</ele><time>2026-05-01T14:25:34Z</time></trkpt><trkpt lat="45.12085679783631" lon="13.800853369304017"><ele>103.5</ele><time>2026-05-01T14:25:35Z</time></trkpt><trkpt lat="45.12077620924229" lon="13.801161060681734"><ele>108.0</ele><time>2026-05-01T14:25:36Z</time></trkpt><trkpt lat="45.12069743897457" lon="13.801462287230786"><ele>112.0</ele><time>2026-05-01T14:25:37Z</time></trkpt><trkpt lat="45.120617814473725" lon="13.801759520504893"><ele>116.0</ele><time>2026-05-01T14:25:38Z</time></trkpt><trkpt lat="45.12054193239495" lon="13.802052146195871"><ele>120.0</ele><time>2026-05-01T14:25:39Z</time></trkpt><trkpt lat="45.12046469313344" lon="13.802342620490208"><ele>130.66666666666666</ele><time>2026-05-01T14:25:40Z</time></trkpt><trkpt lat="45.120387526790836" lon="13.802631205769224"><ele>141.33333333333331</ele><time>2026-05-01T14:25:41Z</time></trkpt><trkpt lat="45.12031183127508" lon="13.802916505533146"><ele>152.0</ele><time>2026-05-01T14:25:42Z</time></trkpt><trkpt lat="45.12023783306484" lon="13.803198386940924"><ele>161.0</ele><time>2026-05-01T14:25:43Z</time></trkpt><trkpt lat="45.12016653468001" lon="13.803469773832338"><ele>170.0</ele><time>2026-05-01T14:25:44Z</time></trkpt><trkpt lat="45.12009931385968" lon="13.803734922430651"><ele>179.0</ele><time>2026-05-01T14:25:45Z</time></trkpt><trkpt lat="45.12003140684894" lon="13.80399031204844"><ele>186.66666666666666</ele><time>2026-05-01T14:25:46Z</time></trkpt><trkpt lat="45.11996585130444" lon="13.804235359422714"><ele>194.33333333333331</ele><time>2026-05-01T14:25:47Z</time></trkpt><trkpt lat="45.119900212242015" lon="13.80447698018342"><ele>202.0</ele><time>2026-05-01T14:25:48Z</time></trkpt><trkpt lat="45.11983391507591" lon="13.804719027315427"><ele>205.33333333333331</ele><time>2026-05-01T14:25:49Z</time></trkpt><trkpt lat="45.1197682937074" lon="13.804957864781738"><ele>208.66666666666669</ele><time>2026-05-01T14:25:50Z</time></trkpt><trkpt lat="45.11969700071517" lon="13.805194276217696"><ele>212.0</ele><time>2026-05-01T14:25:51Z</time></trkpt><trkpt lat="45.11961935122804" lon="13.805425289255146"><ele>212.33333333333334</ele><time>2026-05-01T14:25:52Z</time></trkpt><trkpt lat="45.11953709646594" lon="13.805653504751515"><ele>212.66666666666669</ele><time>2026-05-01T14:25:53Z</time></trkpt><trkpt lat="45.119456062335885" lon="13.805882978148846"><ele>213.0</ele><time>2026-05-01T14:25:54Z</time></trkpt><trkpt lat="45.1193739887401" lon="13.806117084069967"><ele>212.33333333333331</ele><time>2026-05-01T14:25:55Z</time></trkpt><trkpt lat="45.1192856627661" lon="13.806355212373234"><ele>211.66666666666666</ele><time>2026-05-01T14:25:56Z</time></trkpt><trkpt lat="45.11918852412523" lon="13.80659226527489"><ele>211.0</ele><time>2026-05-01T14:25:57Z</time></trkpt><trkpt lat="45.11908804657011" lon="13.806827397497024"><ele>210.66666666666666</ele><time>2026-05-01T14:25:58Z</time></trkpt><trkpt lat="45.11898657236189" lon="13.807057196766914"><ele>210.33333333333331</ele><time>2026-05-01T14:25:59Z</time></trkpt><trkpt lat="45.1188843033987" lon="13.807286621882755"><ele>210.0</ele><time>2026-05-01T14:26:00Z</time></trkpt><trkpt lat="45.118777810798505" lon="13.80751478588207"><ele>209.33333333333331</ele><time>2026-05-01T14:26:01Z</time></trkpt><trkpt lat="45.118666773022824" lon="13.807745627032595"><ele>208.66666666666666</ele><time>2026-05-01T14:26:02Z</time></trkpt><trkpt lat="45.11854509851343" lon="13.807971379974289"><ele>208.0</ele><time>2026-05-01T14:26:03Z</time></trkpt><trkpt lat="45.1184133968761" lon="13.808186188376423"><ele>208.0</ele><time>2026-05-01T14:26:04Z</time></trkpt><trkpt lat="45.11827563365749" lon="13.808395341717699"><ele>208.0</ele><time>2026-05-01T14:26:05Z</time></trkpt><trkpt lat="45.11813421276454" lon="13.808600097840507"><ele>208.0</ele><time>2026-05-01T14:26:06Z</time></trkpt><trkpt lat="45.11799376828637" lon="13.808798439989962"><ele>208.0</ele><time>2026-05-01T14:26:07Z</time></trkpt><trkpt lat="45.11785373352187" lon="13.808992247360349"><ele>208.0</ele><time>2026-05-01T14:26:08Z</time></trkpt><trkpt lat="45.11771354225191" lon="13.809184974853144"><ele>208.0</ele><time>2026-05-01T14:26:09Z</time></trkpt><trkpt lat="45.117573591360184" lon="13.809373734791981"><ele>208.0</ele><time>2026-05-01T14:26:10Z</time></trkpt><trkpt lat="45.11743419572723" lon="13.809558876346106"><ele>208.0</ele><time>2026-05-01T14:26:11Z</time></trkpt><trkpt lat="45.11729397947542" lon="13.809739732244346"><ele>208.0</ele><time>2026-05-01T14:26:12Z</time></trkpt><trkpt lat="45.117155597555275" lon="13.809916723858777"><ele>208.0</ele><time>2026-05-01T14:26:13Z</time></trkpt><trkpt lat="45.1170158589739" lon="13.810088650300585"><ele>208.0</ele><time>2026-05-01T14:26:14Z</time></trkpt><trkpt lat="45.11687458280649" lon="13.810253290994892"><ele>208.0</ele><time>2026-05-01T14:26:15Z</time></trkpt><trkpt lat="45.1167316418643" lon="13.810413286843257"><ele>208.33333333333331</ele><time>2026-05-01T14:26:16Z</time></trkpt><trkpt lat="45.116589649521664" lon="13.810568955133549"><ele>208.66666666666669</ele><time>2026-05-01T14:26:17Z</time></trkpt><trkpt lat="45.11644924959613" lon="13.810723409905464"><ele>209.0</ele><time>2026-05-01T14:26:18Z</time></trkpt><trkpt lat="45.11631158498011" lon="13.810876820941214"><ele>209.33333333333334</ele><time>2026-05-01T14:26:19Z</time></trkpt><trkpt lat="45.11617771815771" lon="13.811027770263774"><ele>209.66666666666669</ele><time>2026-05-01T14:26:20Z</time></trkpt><trkpt lat="45.11604795264599" lon="13.811172908880426"><ele>210.0</ele><time>2026-05-01T14:26:21Z</time></trkpt><trkpt lat="45.115919577336406" lon="13.811314004450212"><ele>210.0</ele><time>2026-05-01T14:26:22Z</time></trkpt><trkpt lat="45.11579077411814" lon="13.811451848851446"><ele>210.0</ele><time>2026-05-01T14:26:23Z</time></trkpt><trkpt lat="45.11566714008308" lon="13.811581141521115"><ele>210.0</ele><time>2026-05-01T14:26:24Z</time></trkpt><trkpt lat="45.11554645080451" lon="13.811705931719775"><ele>209.5</ele><time>2026-05-01T14:26:25Z</time></trkpt><trkpt lat="45.115426956248434" lon="13.811819835439962"><ele>209.0</ele><time>2026-05-01T14:26:26Z</time></trkpt><trkpt lat="45.1153069053449" lon="13.811921119298816"><ele>208.5</ele><time>2026-05-01T14:26:27Z</time></trkpt><trkpt lat="45.11518128145948" lon="13.81199896939674"><ele>208.0</ele><time>2026-05-01T14:26:28Z</time></trkpt><trkpt lat="45.11504991280012" lon="13.812056958556584"><ele>208.0</ele><time>2026-05-01T14:26:29Z</time></trkpt><trkpt lat="45.114918833181044" lon="13.812084790594177"><ele>208.0</ele><time>2026-05-01T14:26:30Z</time></trkpt><trkpt lat="45.11479071297238" lon="13.812077281658935"><ele>208.0</ele><time>2026-05-01T14:26:31Z</time></trkpt><trkpt lat="45.11466835025889" lon="13.812034416437294"><ele>208.0</ele><time>2026-05-01T14:26:32Z</time></trkpt><trkpt lat="45.114551009021305" lon="13.811960066287753"><ele>207.5</ele><time>2026-05-01T14:26:33Z</time></trkpt><trkpt lat="45.1144346313979" lon="13.811855966667181"><ele>207.0</ele><time>2026-05-01T14:26:34Z</time></trkpt><trkpt lat="45.11432611739032" lon="13.81172164102739"><ele>206.5</ele><time>2026-05-01T14:26:35Z</time></trkpt><trkpt lat="45.114223148617334" lon="13.811567773138078"><ele>206.0</ele><time>2026-05-01T14:26:36Z</time></trkpt><trkpt lat="45.114121757533404" lon="13.811400867295015"><ele>204.0</ele><time>2026-05-01T14:26:37Z</time></trkpt><trkpt lat="45.114014270926255" lon="13.811239078526178"><ele>202.0</ele><time>2026-05-01T14:26:38Z</time></trkpt><trkpt lat="45.11389255537086" lon="13.811085447779885"><ele>200.0</ele><time>2026-05-01T14:26:39Z</time></trkpt><trkpt lat="45.11375895698936" lon="13.810941078752014"><ele>200.0</ele><time>2026-05-01T14:26:40Z</time></trkpt><trkpt lat="45.11361435899853" lon="13.810813888799071"><ele>200.0</ele><time>2026-05-01T14:26:41Z</time></trkpt><trkpt lat="45.113459185670614" lon="13.81070491136394"><ele>200.0</ele><time>2026-05-01T14:26:42Z</time></trkpt><trkpt lat="45.11329577523408" lon="13.810612754003413"><ele>199.0</ele><time>2026-05-01T14:26:43Z</time></trkpt><trkpt lat="45.11312626739705" lon="13.810541316622443"><ele>198.0</ele><time>2026-05-01T14:26:44Z</time></trkpt><trkpt lat="45.11295318452069" lon="13.810494691356887"><ele>197.0</ele><time>2026-05-01T14:26:45Z</time></trkpt><trkpt lat="45.11278080758741" lon="13.810474487070865"><ele>197.0</ele><time>2026-05-01T14:26:46Z</time></trkpt><trkpt lat="45.11261049757343" lon="13.810474814507366"><ele>197.0</ele><time>2026-05-01T14:26:47Z</time></trkpt><trkpt lat="45.11244521659188" lon="13.81049650316139"><ele>197.0</ele><time>2026-05-01T14:26:48Z</time></trkpt><trkpt lat="45.11228745808381" lon="13.810535407057916"><ele>198.75</ele><time>2026-05-01T14:26:49Z</time></trkpt><trkpt lat="45.112139604389746" lon="13.810574773666131"><ele>200.5</ele><time>2026-05-01T14:26:50Z</time></trkpt><trkpt lat="45.1119967478908" lon="13.810589990359828"><ele>202.25</ele><time>2026-05-01T14:26:51Z</time></trkpt><trkpt lat="45.11186167960006" lon="13.810573408772228"><ele>204.0</ele><time>2026-05-01T14:26:52Z</time></trkpt><trkpt lat="45.11173405469111" lon="13.810525171021236"><ele>204.0</ele><time>2026-05-01T14:26:53Z</time></trkpt><trkpt lat="45.11161658458894" lon="13.810445061979502"><ele>204.0</ele><time>2026-05-01T14:26:54Z</time></trkpt><trkpt lat="45.11151439525217" lon="13.810338305145468"><ele>204.0</ele><time>2026-05-01T14:26:55Z</time></trkpt><trkpt lat="45.11142851001627" lon="13.810205990874437"><ele>204.0</ele><time>2026-05-01T14:26:56Z</time></trkpt><trkpt lat="45.11135763899293" lon="13.81005452070089"><ele>204.0</ele><time>2026-05-01T14:26:57Z</time></trkpt><trkpt lat="45.111306703216464" lon="13.80988234922243"><ele>204.0</ele><time>2026-05-01T14:26:58Z</time></trkpt><trkpt lat="45.11127774338157" lon="13.809698269627384"><ele>204.0</ele><time>2026-05-01T14:26:59Z</time></trkpt><trkpt lat="45.11128122192825" lon="13.809508968716957"><ele>204.0</ele><time>2026-05-01T14:27:00Z</time></trkpt><trkpt lat="45.111310813227284" lon="13.809318643070483"><ele>204.0</ele><time>2026-05-01T14:27:01Z</time></trkpt><trkpt lat="45.11134729364419" lon="13.80913286137027"><ele>204.0</ele><time>2026-05-01T14:27:02Z</time></trkpt><trkpt lat="45.111383305398334" lon="13.808957190687677"><ele>204.0</ele><time>2026-05-01T14:27:03Z</time></trkpt><trkpt lat="45.11142531043951" lon="13.80879205967398"><ele>204.0</ele><time>2026-05-01T14:27:04Z</time></trkpt><trkpt lat="45.11146769529305" lon="13.808632566263022"><ele>204.2</ele><time>2026-05-01T14:27:05Z</time></trkpt><trkpt lat="45.11151120930718" lon="13.80847987419331"><ele>204.39999999999998</ele><time>2026-05-01T14:27:06Z</time></trkpt><trkpt lat="45.11155432788815" lon="13.80833144447598"><ele>204.6</ele><time>2026-05-01T14:27:07Z</time></trkpt><trkpt lat="45.111598113870386" lon="13.808189291824549"><ele>204.8</ele><time>2026-05-01T14:27:08Z</time></trkpt><trkpt lat="45.11164448959398" lon="13.808054202936626"><ele>205.0</ele><time>2026-05-01T14:27:09Z</time></trkpt><trkpt lat="45.11169426184483" lon="13.80792451848746"><ele>205.2</ele><time>2026-05-01T14:27:10Z</time></trkpt><trkpt lat="45.11175371911995" lon="13.807808355842148"><ele>205.4</ele><time>2026-05-01T14:27:11Z</time></trkpt><trkpt lat="45.111815282952804" lon="13.807701273477264"><ele>205.60000000000002</ele><time>2026-05-01T14:27:12Z</time></trkpt><trkpt lat="45.11187496908191" lon="13.807601159831789"><ele>205.8</ele><time>2026-05-01T14:27:13Z</time></trkpt><trkpt lat="45.1119306672059" lon="13.807505217428075"><ele>206.0</ele><time>2026-05-01T14:27:14Z</time></trkpt><trkpt lat="45.11198325933452" lon="13.807422896624624"><ele>206.14285714285714</ele><time>2026-05-01T14:27:15Z</time></trkpt><trkpt lat="45.11203267292012" lon="13.807351234243642"><ele>206.28571428571428</ele><time>2026-05-01T14:27:16Z</time></trkpt><trkpt lat="45.11209622003999" lon="13.807268504344298"><ele>206.42857142857144</ele><time>2026-05-01T14:27:18Z</time></trkpt><trkpt lat="45.112143668904196" lon="13.807206091993658"><ele>206.57142857142856</ele><time>2026-05-01T14:27:20Z</time></trkpt><trkpt lat="45.11219693746465" lon="13.807125822613306"><ele>206.71428571428572</ele><time>2026-05-01T14:27:23Z</time></trkpt><trkpt lat="45.11225737127594" lon="13.807065896438687"><ele>206.85714285714286</ele><time>2026-05-01T14:29:55Z</time></trkpt><trkpt lat="45.11230383641101" lon="13.806995607106783"><ele>207.0</ele><time>2026-05-01T14:29:57Z</time></trkpt><trkpt lat="45.11237841360048" lon="13.806906949558515"><ele>206.5</ele><time>2026-05-01T14:29:59Z</time></trkpt><trkpt lat="45.11246225687332" lon="13.80677989806475"><ele>206.0</ele><time>2026-05-01T14:30:01Z</time></trkpt><trkpt lat="45.11252126569494" lon="13.806699056078998"><ele>205.5</ele><time>2026-05-01T14:30:02Z</time></trkpt><trkpt lat="45.112583294048555" lon="13.80661689682851"><ele>205.0</ele><time>2026-05-01T14:30:03Z</time></trkpt><trkpt lat="45.11265066808096" lon="13.80656322449841"><ele>204.5</ele><time>2026-05-01T14:30:04Z</time></trkpt><trkpt lat="45.11270554416469" lon="13.806479830009241"><ele>204.0</ele><time>2026-05-01T14:30:05Z</time></trkpt><trkpt lat="45.112780341192966" lon="13.806430721621423"><ele>204.0</ele><time>2026-05-01T14:30:06Z</time></trkpt><trkpt lat="45.11284964256564" lon="13.80635990805898"><ele>204.0</ele><time>2026-05-01T14:30:07Z</time></trkpt><trkpt lat="45.11292300962811" lon="13.806283656050855"><ele>204.0</ele><time>2026-05-01T14:30:08Z</time></trkpt><trkpt lat="45.11300228248023" lon="13.806203043561082"><ele>204.0</ele><time>2026-05-01T14:30:09Z</time></trkpt><trkpt lat="45.11308582849439" lon="13.806117075923929"><ele>204.0</ele><time>2026-05-01T14:30:10Z</time></trkpt><trkpt lat="45.11316853061884" lon="13.806030611431714"><ele>203.83333333333334</ele><time>2026-05-01T14:30:11Z</time></trkpt><trkpt lat="45.11325358396886" lon="13.805965852964887"><ele>203.66666666666669</ele><time>2026-05-01T14:30:12Z</time></trkpt><trkpt lat="45.113330186082784" lon="13.805892145384904"><ele>203.5</ele><time>2026-05-01T14:30:13Z</time></trkpt><trkpt lat="45.11341675195474" lon="13.80588071021725"><ele>203.33333333333334</ele><time>2026-05-01T14:30:14Z</time></trkpt><trkpt lat="45.11348951805432" lon="13.805895493662508"><ele>203.16666666666669</ele><time>2026-05-01T14:30:15Z</time></trkpt><trkpt lat="45.11356225448205" lon="13.80586752898999"><ele>203.0</ele><time>2026-05-01T14:30:16Z</time></trkpt><trkpt lat="45.11361945314698" lon="13.805773394555262"><ele>203.00000000000003</ele><time>2026-05-01T14:30:17Z</time></trkpt><trkpt lat="45.11363986986595" lon="13.80567251470615"><ele>203.0</ele><time>2026-05-01T14:30:18Z</time></trkpt><trkpt lat="45.11359054299491" lon="13.805564922615414"><ele>203.0</ele><time>2026-05-01T14:30:19Z</time></trkpt><trkpt lat="45.113575285018996" lon="13.805472589845962"><ele>203.0</ele><time>2026-05-01T14:30:20Z</time></trkpt><trkpt lat="45.11347941557972" lon="13.805434209207986"><ele>203.00000000000003</ele><time>2026-05-01T14:30:21Z</time></trkpt><trkpt lat="45.113410829790716" lon="13.805368819655676"><ele>203.0</ele><time>2026-05-01T14:30:22Z</time></trkpt><trkpt lat="45.113355461698745" lon="13.805265697048311"><ele>202.5</ele><time>2026-05-01T14:30:23Z</time></trkpt><trkpt lat="45.113303976657555" lon="13.805136229505033"><ele>202.0</ele><time>2026-05-01T14:30:24Z</time></trkpt><trkpt lat="45.11324650410284" lon="13.8049907041709"><ele>201.5</ele><time>2026-05-01T14:30:25Z</time></trkpt><trkpt lat="45.113200888544476" lon="13.804818452487801"><ele>201.0</ele><time>2026-05-01T14:30:26Z</time></trkpt><trkpt lat="45.11314395511999" lon="13.804651614779182"><ele>201.0</ele><time>2026-05-01T14:30:27Z</time></trkpt><trkpt lat="45.11308708651222" lon="13.8044844206572"><ele>201.0</ele><time>2026-05-01T14:30:28Z</time></trkpt><trkpt lat="45.11302497717542" lon="13.804300749709947"><ele>201.0</ele><time>2026-05-01T14:30:29Z</time></trkpt><trkpt lat="45.11295911986246" lon="13.80410764419975"><ele>201.0</ele><time>2026-05-01T14:30:30Z</time></trkpt><trkpt lat="45.11287586047134" lon="13.803915834930754"><ele>201.0</ele><time>2026-05-01T14:30:31Z</time></trkpt><trkpt lat="45.112812052826214" lon="13.803710359407512"><ele>201.0</ele><time>2026-05-01T14:30:32Z</time></trkpt><trkpt lat="45.112749109926725" lon="13.80350127113187"><ele>201.0</ele><time>2026-05-01T14:30:33Z</time></trkpt><trkpt lat="45.11268177909276" lon="13.80328936052892"><ele>200.66666666666669</ele><time>2026-05-01T14:30:34Z</time></trkpt><trkpt lat="45.11261195759316" lon="13.80307412749599"><ele>200.33333333333334</ele><time>2026-05-01T14:30:35Z</time></trkpt><trkpt lat="45.11254124193208" lon="13.802853903261205"><ele>200.0</ele><time>2026-05-01T14:30:36Z</time></trkpt><trkpt lat="45.11246728549983" lon="13.80263151913141"><ele>201.0</ele><time>2026-05-01T14:30:37Z</time></trkpt><trkpt lat="45.11239224404514" lon="13.802407837581733"><ele>202.0</ele><time>2026-05-01T14:30:38Z</time></trkpt><trkpt lat="45.11231421200601" lon="13.802185321527315"><ele>203.0</ele><time>2026-05-01T14:30:39Z</time></trkpt><trkpt lat="45.112236691455" lon="13.801963267101579"><ele>202.66666666666669</ele><time>2026-05-01T14:30:40Z</time></trkpt><trkpt lat="45.11216174427423" lon="13.801740625197727"><ele>202.33333333333331</ele><time>2026-05-01T14:30:41Z</time></trkpt><trkpt lat="45.11208858299783" lon="13.801524988917036"><ele>202.0</ele><time>2026-05-01T14:30:42Z</time></trkpt><trkpt lat="45.1120138010829" lon="13.801315764145562"><ele>202.0</ele><time>2026-05-01T14:30:43Z</time></trkpt><trkpt lat="45.11193480329585" lon="13.801112092787799"><ele>202.0</ele><time>2026-05-01T14:30:44Z</time></trkpt><trkpt lat="45.11185462054517" lon="13.800908375661397"><ele>202.0</ele><time>2026-05-01T14:30:45Z</time></trkpt><trkpt lat="45.111775065101845" lon="13.80069680311789"><ele>202.0</ele><time>2026-05-01T14:30:46Z</time></trkpt><trkpt lat="45.11169502377954" lon="13.800476261205523"><ele>202.0</ele><time>2026-05-01T14:30:47Z</time></trkpt><trkpt lat="45.111632340382634" lon="13.800239303157896"><ele>202.0</ele><time>2026-05-01T14:30:48Z</time></trkpt><trkpt lat="45.1115518042577" lon="13.800005725362372"><ele>200.33333333333331</ele><time>2026-05-01T14:30:49Z</time></trkpt><trkpt lat="45.111468849094074" lon="13.799765219117848"><ele>198.66666666666669</ele><time>2026-05-01T14:30:50Z</time></trkpt><trkpt lat="45.11138417550693" lon="13.799519158094615"><ele>197.0</ele><time>2026-05-01T14:30:51Z</time></trkpt><trkpt lat="45.11129954946205" lon="13.799272665638854"><ele>197.0</ele><time>2026-05-01T14:30:52Z</time></trkpt><trkpt lat="45.11121398122749" lon="13.799022262229396"><ele>197.0</ele><time>2026-05-01T14:30:53Z</time></trkpt><trkpt lat="45.111126866908776" lon="13.798768049347947"><ele>197.0</ele><time>2026-05-01T14:30:54Z</time></trkpt><trkpt lat="45.11102759128213" lon="13.79852693850013"><ele>197.66666666666669</ele><time>2026-05-01T14:30:55Z</time></trkpt><trkpt lat="45.1109552395503" lon="13.79826629595891"><ele>198.33333333333331</ele><time>2026-05-01T14:30:56Z</time></trkpt><trkpt lat="45.11086716698608" lon="13.798020977841265"><ele>199.0</ele><time>2026-05-01T14:30:57Z</time></trkpt><trkpt lat="45.11075565464933" lon="13.797799693693635"><ele>197.0</ele><time>2026-05-01T14:30:58Z</time></trkpt><trkpt lat="45.11064264060944" lon="13.797595748162944"><ele>195.0</ele><time>2026-05-01T14:30:59Z</time></trkpt><trkpt lat="45.11051412221765" lon="13.797411904661717"><ele>193.0</ele><time>2026-05-01T14:31:00Z</time></trkpt><trkpt lat="45.110378685061654" lon="13.797240494390627"><ele>193.0</ele><time>2026-05-01T14:31:01Z</time></trkpt><trkpt lat="45.11025824045544" lon="13.797044723083"><ele>193.0</ele><time>2026-05-01T14:31:02Z</time></trkpt><trkpt lat="45.11013458564945" lon="13.79685449013523"><ele>193.0</ele><time>2026-05-01T14:31:03Z</time></trkpt><trkpt lat="45.110018204311935" lon="13.796667483663569"><ele>193.0</ele><time>2026-05-01T14:31:04Z</time></trkpt><trkpt lat="45.10994517496789" lon="13.796448299644455"><ele>193.0</ele><time>2026-05-01T14:31:05Z</time></trkpt><trkpt lat="45.10989389016272" lon="13.79621900444201"><ele>193.0</ele><time>2026-05-01T14:31:06Z</time></trkpt><trkpt lat="45.10987163619696" lon="13.795978703903318"><ele>192.66666666666666</ele><time>2026-05-01T14:31:07Z</time></trkpt><trkpt lat="45.109877176157426" lon="13.79573480443818"><ele>192.33333333333331</ele><time>2026-05-01T14:31:08Z</time></trkpt><trkpt lat="45.10991249971708" lon="13.795488485008176"><ele>192.0</ele><time>2026-05-01T14:31:09Z</time></trkpt><trkpt lat="45.10996755716425" lon="13.795239377192452"><ele>191.33333333333334</ele><time>2026-05-01T14:31:10Z</time></trkpt><trkpt lat="45.110035850534906" lon="13.794988618412232"><ele>190.66666666666669</ele><time>2026-05-01T14:31:11Z</time></trkpt><trkpt lat="45.110123665171045" lon="13.794741105473246"><ele>190.0</ele><time>2026-05-01T14:31:12Z</time></trkpt><trkpt lat="45.110196771659574" lon="13.79448038211281"><ele>188.66666666666669</ele><time>2026-05-01T14:31:13Z</time></trkpt><trkpt lat="45.11027040328668" lon="13.7942144994543"><ele>187.33333333333334</ele><time>2026-05-01T14:31:14Z</time></trkpt><trkpt lat="45.110330044422454" lon="13.793944261614774"><ele>186.0</ele><time>2026-05-01T14:31:15Z</time></trkpt><trkpt lat="45.11039155559327" lon="13.793679567703178"><ele>184.0</ele><time>2026-05-01T14:31:16Z</time></trkpt><trkpt lat="45.110433510392554" lon="13.793414729071396"><ele>182.0</ele><time>2026-05-01T14:31:17Z</time></trkpt><trkpt lat="45.11048162735148" lon="13.793161126953347"><ele>180.0</ele><time>2026-05-01T14:31:18Z</time></trkpt><trkpt lat="45.11050218988974" lon="13.792904552831219"><ele>179.0</ele><time>2026-05-01T14:31:19Z</time></trkpt><trkpt lat="45.1105083335213" lon="13.792654685618126"><ele>178.0</ele><time>2026-05-01T14:31:20Z</time></trkpt><trkpt lat="45.11048943631091" lon="13.792413529247643"><ele>177.0</ele><time>2026-05-01T14:31:21Z</time></trkpt><trkpt lat="45.11049177961683" lon="13.792171260119003"><ele>177.0</ele><time>2026-05-01T14:31:22Z</time></trkpt><trkpt lat="45.110469473056014" lon="13.791919808912121"><ele>177.0</ele><time>2026-05-01T14:31:23Z</time></trkpt><trkpt lat="45.11041601844225" lon="13.79167985558391"><ele>177.0</ele><time>2026-05-01T14:31:24Z</time></trkpt><trkpt lat="45.11037066136801" lon="13.791431817690821"><ele>178.0</ele><time>2026-05-01T14:31:25Z</time></trkpt><trkpt lat="45.11032013384356" lon="13.791177032963054"><ele>179.0</ele><time>2026-05-01T14:31:26Z</time></trkpt><trkpt lat="45.11027116142633" lon="13.790921484131784"><ele>180.0</ele><time>2026-05-01T14:31:27Z</time></trkpt><trkpt lat="45.11021622111502" lon="13.790668862908673"><ele>181.0</ele><time>2026-05-01T14:31:28Z</time></trkpt><trkpt lat="45.11016236335938" lon="13.790419394625623"><ele>182.0</ele><time>2026-05-01T14:31:29Z</time></trkpt><trkpt lat="45.11010364538811" lon="13.79017335291973"><ele>183.0</ele><time>2026-05-01T14:31:30Z</time></trkpt><trkpt lat="45.11004753436701" lon="13.789918573450635"><ele>183.0</ele><time>2026-05-01T14:31:31Z</time></trkpt><trkpt lat="45.10999328142429" lon="13.789655669719709"><ele>183.0</ele><time>2026-05-01T14:31:32Z</time></trkpt><trkpt lat="45.10993639073755" lon="13.789385571346813"><ele>183.0</ele><time>2026-05-01T14:31:33Z</time></trkpt><trkpt lat="45.109876421659735" lon="13.789111548901309"><ele>183.0</ele><time>2026-05-01T14:31:34Z</time></trkpt><trkpt lat="45.10981443208353" lon="13.788832317909169"><ele>183.0</ele><time>2026-05-01T14:31:35Z</time></trkpt><trkpt lat="45.10977011832949" lon="13.788551877504412"><ele>183.0</ele><time>2026-05-01T14:31:36Z</time></trkpt><trkpt lat="45.10971256516664" lon="13.788278414235428"><ele>183.0</ele><time>2026-05-01T14:31:37Z</time></trkpt><trkpt lat="45.109651867376236" lon="13.787994148589142"><ele>183.0</ele><time>2026-05-01T14:31:38Z</time></trkpt><trkpt lat="45.109589076621184" lon="13.787699486569299"><ele>183.0</ele><time>2026-05-01T14:31:39Z</time></trkpt><trkpt lat="45.109522973345946" lon="13.787390289126773"><ele>183.0</ele><time>2026-05-01T14:31:40Z</time></trkpt><trkpt lat="45.10945295647385" lon="13.78706074583989"><ele>183.0</ele><time>2026-05-01T14:31:41Z</time></trkpt><trkpt lat="45.109380935342315" lon="13.786725373444758"><ele>184.0</ele><time>2026-05-01T14:31:42Z</time></trkpt><trkpt lat="45.109307832995846" lon="13.786394607363151"><ele>185.0</ele><time>2026-05-01T14:31:43Z</time></trkpt><trkpt lat="45.10923421600597" lon="13.786069901946004"><ele>185.0</ele><time>2026-05-01T14:31:44Z</time></trkpt><trkpt lat="45.10915709238771" lon="13.785759059829902"><ele>185.0</ele><time>2026-05-01T14:31:45Z</time></trkpt><trkpt lat="45.10909848388777" lon="13.785445911560291"><ele>183.33333333333331</ele><time>2026-05-01T14:31:46Z</time></trkpt><trkpt lat="45.1090369900429" lon="13.785140950698423"><ele>181.66666666666666</ele><time>2026-05-01T14:31:47Z</time></trkpt><trkpt lat="45.10897591588443" lon="13.784842946461769"><ele>180.0</ele><time>2026-05-01T14:31:48Z</time></trkpt><trkpt lat="45.108917850353095" lon="13.78454862730469"><ele>181.33333333333334</ele><time>2026-05-01T14:31:49Z</time></trkpt><trkpt lat="45.10886298918018" lon="13.784260683431507"><ele>182.66666666666669</ele><time>2026-05-01T14:31:50Z</time></trkpt><trkpt lat="45.10881445964945" lon="13.783972115756011"><ele>184.0</ele><time>2026-05-01T14:31:51Z</time></trkpt><trkpt lat="45.10877359671571" lon="13.783682002667172"><ele>184.66666666666669</ele><time>2026-05-01T14:31:52Z</time></trkpt><trkpt lat="45.108737960671796" lon="13.78339130206496"><ele>185.33333333333334</ele><time>2026-05-01T14:31:53Z</time></trkpt><trkpt lat="45.10870508943339" lon="13.783103548946901"><ele>186.0</ele><time>2026-05-01T14:31:54Z</time></trkpt><trkpt lat="45.1086778266689" lon="13.78281470002568"><ele>186.33333333333334</ele><time>2026-05-01T14:31:55Z</time></trkpt><trkpt lat="45.10865487228596" lon="13.78252175873126"><ele>186.66666666666669</ele><time>2026-05-01T14:31:56Z</time></trkpt><trkpt lat="45.10863303788171" lon="13.782234094488086"><ele>187.0</ele><time>2026-05-01T14:31:57Z</time></trkpt><trkpt lat="45.10861334922805" lon="13.781954504855419"><ele>187.0</ele><time>2026-05-01T14:31:58Z</time></trkpt><trkpt lat="45.10858961045996" lon="13.78168077491511"><ele>187.0</ele><time>2026-05-01T14:31:59Z</time></trkpt><trkpt lat="45.10856705709779" lon="13.781416339453877"><ele>187.0</ele><time>2026-05-01T14:32:00Z</time></trkpt><trkpt lat="45.108544604818015" lon="13.781158692473724"><ele>186.66666666666669</ele><time>2026-05-01T14:32:01Z</time></trkpt><trkpt lat="45.10854151739284" lon="13.780899610069742"><ele>186.33333333333334</ele><time>2026-05-01T14:32:02Z</time></trkpt><trkpt lat="45.10850537367453" lon="13.78064006538752"><ele>186.0</ele><time>2026-05-01T14:32:03Z</time></trkpt><trkpt lat="45.10848578411667" lon="13.780369957813926"><ele>186.0</ele><time>2026-05-01T14:32:04Z</time></trkpt><trkpt lat="45.1084662476858" lon="13.780101540034039"><ele>186.0</ele><time>2026-05-01T14:32:05Z</time></trkpt><trkpt lat="45.10846352811451" lon="13.779831312722337"><ele>186.0</ele><time>2026-05-01T14:32:06Z</time></trkpt><trkpt lat="45.10843420219332" lon="13.779562233344118"><ele>185.0</ele><time>2026-05-01T14:32:07Z</time></trkpt><trkpt lat="45.10843603016721" lon="13.779290458184178"><ele>184.0</ele><time>2026-05-01T14:32:08Z</time></trkpt><trkpt lat="45.10844890383367" lon="13.77901506210297"><ele>183.0</ele><time>2026-05-01T14:32:09Z</time></trkpt><trkpt lat="45.10844906259303" lon="13.778750601983333"><ele>182.66666666666666</ele><time>2026-05-01T14:32:10Z</time></trkpt><trkpt lat="45.10850690182502" lon="13.778488462144653"><ele>182.33333333333331</ele><time>2026-05-01T14:32:11Z</time></trkpt><trkpt lat="45.10855032649608" lon="13.77824221690603"><ele>182.0</ele><time>2026-05-01T14:32:12Z</time></trkpt><trkpt lat="45.108598020069415" lon="13.77800744323508"><ele>182.0</ele><time>2026-05-01T14:32:13Z</time></trkpt><trkpt lat="45.10864385456066" lon="13.77777503794148"><ele>182.0</ele><time>2026-05-01T14:32:14Z</time></trkpt><trkpt lat="45.10869219124538" lon="13.77754034606087"><ele>182.0</ele><time>2026-05-01T14:32:15Z</time></trkpt><trkpt lat="45.108741060803226" lon="13.777305226959486"><ele>182.33333333333331</ele><time>2026-05-01T14:32:16Z</time></trkpt><trkpt lat="45.108788574050685" lon="13.777072324271636"><ele>182.66666666666666</ele><time>2026-05-01T14:32:17Z</time></trkpt><trkpt lat="45.10883664055551" lon="13.776842658149906"><ele>183.0</ele><time>2026-05-01T14:32:18Z</time></trkpt><trkpt lat="45.10888523162825" lon="13.77661509219239"><ele>183.0</ele><time>2026-05-01T14:32:19Z</time></trkpt><trkpt lat="45.10893013068255" lon="13.776390227906667"><ele>183.0</ele><time>2026-05-01T14:32:20Z</time></trkpt><trkpt lat="45.10897041313014" lon="13.776173494335914"><ele>183.0</ele><time>2026-05-01T14:32:21Z</time></trkpt><trkpt lat="45.10900660678803" lon="13.775961811183874"><ele>183.33333333333334</ele><time>2026-05-01T14:32:22Z</time></trkpt><trkpt lat="45.10903620481972" lon="13.775745879828841"><ele>183.66666666666669</ele><time>2026-05-01T14:32:23Z</time></trkpt><trkpt lat="45.10905730804566" lon="13.775523082682803"><ele>184.0</ele><time>2026-05-01T14:32:24Z</time></trkpt><trkpt lat="45.10906969406052" lon="13.775293889181501"><ele>183.0</ele><time>2026-05-01T14:32:25Z</time></trkpt><trkpt lat="45.10906947922014" lon="13.77505546486396"><ele>182.0</ele><time>2026-05-01T14:32:26Z</time></trkpt><trkpt lat="45.10905603295618" lon="13.774810954434011"><ele>181.0</ele><time>2026-05-01T14:32:27Z</time></trkpt><trkpt lat="45.109029939140534" lon="13.774566479220875"><ele>181.0</ele><time>2026-05-01T14:32:28Z</time></trkpt><trkpt lat="45.10899328849282" lon="13.774320862266256"><ele>181.0</ele><time>2026-05-01T14:32:29Z</time></trkpt><trkpt lat="45.10894310800366" lon="13.774075781854064"><ele>181.0</ele><time>2026-05-01T14:32:30Z</time></trkpt><trkpt lat="45.10888325235663" lon="13.773829975986411"><ele>181.0</ele><time>2026-05-01T14:32:31Z</time></trkpt><trkpt lat="45.10881622498354" lon="13.7735827185284"><ele>181.0</ele><time>2026-05-01T14:32:32Z</time></trkpt><trkpt lat="45.108745718231184" lon="13.773333012466944"><ele>181.0</ele><time>2026-05-01T14:32:33Z</time></trkpt><trkpt lat="45.10867834356806" lon="13.773089637586684"><ele>181.33333333333334</ele><time>2026-05-01T14:32:34Z</time></trkpt><trkpt lat="45.10861664463698" lon="13.772865013034973"><ele>181.66666666666666</ele><time>2026-05-01T14:32:35Z</time></trkpt><trkpt lat="45.10855710470933" lon="13.772650939850225"><ele>182.0</ele><time>2026-05-01T14:32:36Z</time></trkpt><trkpt lat="45.108501425959886" lon="13.772440129204348"><ele>182.0</ele><time>2026-05-01T14:32:37Z</time></trkpt><trkpt lat="45.10845166788557" lon="13.772235095267387"><ele>182.0</ele><time>2026-05-01T14:32:38Z</time></trkpt><trkpt lat="45.10840963915011" lon="13.772035435052427"><ele>182.0</ele><time>2026-05-01T14:32:39Z</time></trkpt><trkpt lat="45.10837490900644" lon="13.771834659633148"><ele>182.0</ele><time>2026-05-01T14:32:40Z</time></trkpt><trkpt lat="45.10834540309018" lon="13.77162768413799"><ele>182.0</ele><time>2026-05-01T14:32:41Z</time></trkpt><trkpt lat="45.10832492027391" lon="13.771412886452753"><ele>182.0</ele><time>2026-05-01T14:32:42Z</time></trkpt><trkpt lat="45.108313937172326" lon="13.771197012802036"><ele>182.0</ele><time>2026-05-01T14:32:43Z</time></trkpt><trkpt lat="45.10830780960797" lon="13.770988130445557"><ele>181.5</ele><time>2026-05-01T14:32:44Z</time></trkpt><trkpt lat="45.10830548818392" lon="13.770779293618137"><ele>181.0</ele><time>2026-05-01T14:32:45Z</time></trkpt><trkpt lat="45.10830322391812" lon="13.770568118230326"><ele>180.5</ele><time>2026-05-01T14:32:46Z</time></trkpt><trkpt lat="45.108303280323966" lon="13.770356274797475"><ele>180.0</ele><time>2026-05-01T14:32:47Z</time></trkpt><trkpt lat="45.10830673066779" lon="13.770141815250955"><ele>179.66666666666666</ele><time>2026-05-01T14:32:48Z</time></trkpt><trkpt lat="45.108307921110274" lon="13.769926130115989"><ele>179.33333333333331</ele><time>2026-05-01T14:32:49Z</time></trkpt><trkpt lat="45.10830972558926" lon="13.769708036592945"><ele>179.0</ele><time>2026-05-01T14:32:50Z</time></trkpt><trkpt lat="45.10831209495031" lon="13.769484873452363"><ele>178.33333333333331</ele><time>2026-05-01T14:32:51Z</time></trkpt><trkpt lat="45.10831293938966" lon="13.769258697723293"><ele>177.66666666666666</ele><time>2026-05-01T14:32:52Z</time></trkpt><trkpt lat="45.10831362501093" lon="13.769031989108257"><ele>177.0</ele><time>2026-05-01T14:32:53Z</time></trkpt><trkpt lat="45.10831470285869" lon="13.768801404002932"><ele>177.0</ele><time>2026-05-01T14:32:54Z</time></trkpt><trkpt lat="45.108314603338705" lon="13.768564794449151"><ele>177.0</ele><time>2026-05-01T14:32:55Z</time></trkpt><trkpt lat="45.108315083499" lon="13.768325774526595"><ele>177.0</ele><time>2026-05-01T14:32:56Z</time></trkpt><trkpt lat="45.1083164122285" lon="13.768085603176775"><ele>176.66666666666666</ele><time>2026-05-01T14:32:57Z</time></trkpt><trkpt lat="45.108318867324485" lon="13.767850046634747"><ele>176.33333333333331</ele><time>2026-05-01T14:32:58Z</time></trkpt><trkpt lat="45.10831625563578" lon="13.767614141100369"><ele>176.0</ele><time>2026-05-01T14:32:59Z</time></trkpt><trkpt lat="45.10831826373295" lon="13.767376815985797"><ele>175.0</ele><time>2026-05-01T14:33:00Z</time></trkpt><trkpt lat="45.10832026483906" lon="13.767140747397917"><ele>174.0</ele><time>2026-05-01T14:33:01Z</time></trkpt><trkpt lat="45.108320308849905" lon="13.766899217979887"><ele>173.0</ele><time>2026-05-01T14:33:02Z</time></trkpt><trkpt lat="45.10832073586464" lon="13.76665579133328"><ele>172.66666666666666</ele><time>2026-05-01T14:33:03Z</time></trkpt><trkpt lat="45.10832493649581" lon="13.766407932253575"><ele>172.33333333333334</ele><time>2026-05-01T14:33:04Z</time></trkpt><trkpt lat="45.10832908264151" lon="13.766158532942653"><ele>172.0</ele><time>2026-05-01T14:33:05Z</time></trkpt><trkpt lat="45.10833137174479" lon="13.765907242454002"><ele>171.33333333333334</ele><time>2026-05-01T14:33:06Z</time></trkpt><trkpt lat="45.10833245589744" lon="13.76565882264409"><ele>170.66666666666666</ele><time>2026-05-01T14:33:07Z</time></trkpt><trkpt lat="45.108334836429535" lon="13.765414671083752"><ele>170.0</ele><time>2026-05-01T14:33:08Z</time></trkpt><trkpt lat="45.108335811799634" lon="13.765177715050958"><ele>170.0</ele><time>2026-05-01T14:33:09Z</time></trkpt><trkpt lat="45.10833702744178" lon="13.764945600397947"><ele>170.0</ele><time>2026-05-01T14:33:10Z</time></trkpt><trkpt lat="45.1083351943209" lon="13.764708680323478"><ele>170.0</ele><time>2026-05-01T14:33:11Z</time></trkpt><trkpt lat="45.10832929499451" lon="13.76446323681576"><ele>169.33333333333331</ele><time>2026-05-01T14:33:12Z</time></trkpt><trkpt lat="45.108316555407264" lon="13.764203946557785"><ele>168.66666666666666</ele><time>2026-05-01T14:33:13Z</time></trkpt><trkpt lat="45.10830696436155" lon="13.763932623468657"><ele>168.0</ele><time>2026-05-01T14:33:14Z</time></trkpt><trkpt lat="45.10835054613986" lon="13.763635341786298"><ele>166.5</ele><time>2026-05-01T14:33:15Z</time></trkpt><trkpt lat="45.10835144614152" lon="13.763322756047561"><ele>165.0</ele><time>2026-05-01T14:33:16Z</time></trkpt><trkpt lat="45.10835144614271" lon="13.762997304025236"><ele>162.5</ele><time>2026-05-01T14:33:17Z</time></trkpt><trkpt lat="45.10835213493033" lon="13.762666923114644"><ele>160.0</ele><time>2026-05-01T14:33:18Z</time></trkpt><trkpt lat="45.10835395608619" lon="13.762336502729191"><ele>160.0</ele><time>2026-05-01T14:33:19Z</time></trkpt><trkpt lat="45.108355246145685" lon="13.762011661404816"><ele>160.0</ele><time>2026-05-01T14:33:20Z</time></trkpt><trkpt lat="45.10835624614637" lon="13.761692851214725"><ele>160.0</ele><time>2026-05-01T14:33:21Z</time></trkpt><trkpt lat="45.10834141583914" lon="13.761378017916732"><ele>160.0</ele><time>2026-05-01T14:33:22Z</time></trkpt><trkpt lat="45.10834225627841" lon="13.761070321401235"><ele>160.0</ele><time>2026-05-01T14:33:23Z</time></trkpt><trkpt lat="45.10833917824384" lon="13.760764375003086"><ele>160.66666666666669</ele><time>2026-05-01T14:33:24Z</time></trkpt><trkpt lat="45.10833242757384" lon="13.760455563480743"><ele>161.33333333333334</ele><time>2026-05-01T14:33:25Z</time></trkpt><trkpt lat="45.108314881417094" lon="13.760150998106596"><ele>162.0</ele><time>2026-05-01T14:33:26Z</time></trkpt><trkpt lat="45.108284269416494" lon="13.75984884587639"><ele>160.33333333333334</ele><time>2026-05-01T14:33:27Z</time></trkpt><trkpt lat="45.1082427492048" lon="13.759543324342864"><ele>158.66666666666669</ele><time>2026-05-01T14:33:28Z</time></trkpt><trkpt lat="45.10818856800531" lon="13.75923646549346"><ele>157.0</ele><time>2026-05-01T14:33:29Z</time></trkpt><trkpt lat="45.108125156702016" lon="13.758930238202081"><ele>157.0</ele><time>2026-05-01T14:33:30Z</time></trkpt><trkpt lat="45.10805335325964" lon="13.75863401628563"><ele>157.0</ele><time>2026-05-01T14:33:31Z</time></trkpt><trkpt lat="45.107974172436215" lon="13.758348760740159"><ele>157.0</ele><time>2026-05-01T14:33:32Z</time></trkpt><trkpt lat="45.10789052207305" lon="13.758072553011516"><ele>157.0</ele><time>2026-05-01T14:33:33Z</time></trkpt><trkpt lat="45.107804769467265" lon="13.757800906983118"><ele>157.0</ele><time>2026-05-01T14:33:34Z</time></trkpt><trkpt lat="45.107722927128236" lon="13.757535475564874"><ele>157.0</ele><time>2026-05-01T14:33:35Z</time></trkpt><trkpt lat="45.107642664718675" lon="13.757272919742244"><ele>158.66666666666669</ele><time>2026-05-01T14:33:36Z</time></trkpt><trkpt lat="45.10756536866888" lon="13.757015724676508"><ele>160.33333333333334</ele><time>2026-05-01T14:33:37Z</time></trkpt><trkpt lat="45.10749035787569" lon="13.756765244946443"><ele>162.0</ele><time>2026-05-01T14:33:38Z</time></trkpt><trkpt lat="45.1074188301387" lon="13.756527814153495"><ele>162.66666666666666</ele><time>2026-05-01T14:33:39Z</time></trkpt><trkpt lat="45.10734785226617" lon="13.756312691185185"><ele>163.33333333333331</ele><time>2026-05-01T14:33:40Z</time></trkpt><trkpt lat="45.10727654511222" lon="13.756107049312911"><ele>164.0</ele><time>2026-05-01T14:33:41Z</time></trkpt><trkpt lat="45.107215239627756" lon="13.755917933200823"><ele>165.5</ele><time>2026-05-01T14:33:42Z</time></trkpt><trkpt lat="45.107155811795906" lon="13.755730235357232"><ele>167.0</ele><time>2026-05-01T14:33:43Z</time></trkpt><trkpt lat="45.107096473525246" lon="13.755539670190778"><ele>168.5</ele><time>2026-05-01T14:33:44Z</time></trkpt><trkpt lat="45.107051475014615" lon="13.755337669361518"><ele>170.0</ele><time>2026-05-01T14:33:45Z</time></trkpt><trkpt lat="45.10698894647882" lon="13.755140013496607"><ele>170.33333333333331</ele><time>2026-05-01T14:33:46Z</time></trkpt><trkpt lat="45.10691407077841" lon="13.754952037786364"><ele>170.66666666666666</ele><time>2026-05-01T14:33:47Z</time></trkpt><trkpt lat="45.106856340992735" lon="13.754750595987339"><ele>171.0</ele><time>2026-05-01T14:33:48Z</time></trkpt><trkpt lat="45.10680296194706" lon="13.754544848427347"><ele>172.33333333333334</ele><time>2026-05-01T14:33:49Z</time></trkpt><trkpt lat="45.10675666250139" lon="13.754332334764387"><ele>173.66666666666669</ele><time>2026-05-01T14:33:50Z</time></trkpt><trkpt lat="45.106719131790165" lon="13.754116242159023"><ele>175.0</ele><time>2026-05-01T14:33:51Z</time></trkpt><trkpt lat="45.10668781385793" lon="13.753895353654297"><ele>175.0</ele><time>2026-05-01T14:33:52Z</time></trkpt><trkpt lat="45.10666133610622" lon="13.753667316054047"><ele>175.0</ele><time>2026-05-01T14:33:53Z</time></trkpt><trkpt lat="45.10664043940956" lon="13.753428619446206"><ele>175.0</ele><time>2026-05-01T14:33:54Z</time></trkpt><trkpt lat="45.1066228351303" lon="13.753182966637242"><ele>174.66666666666669</ele><time>2026-05-01T14:33:55Z</time></trkpt><trkpt lat="45.10660619251237" lon="13.752931859465775"><ele>174.33333333333334</ele><time>2026-05-01T14:33:56Z</time></trkpt><trkpt lat="45.10658981345425" lon="13.752677804754168"><ele>174.0</ele><time>2026-05-01T14:33:57Z</time></trkpt><trkpt lat="45.106573359032836" lon="13.752423857080306"><ele>174.0</ele><time>2026-05-01T14:33:58Z</time></trkpt><trkpt lat="45.10655616538741" lon="13.752171373259905"><ele>174.0</ele><time>2026-05-01T14:33:59Z</time></trkpt><trkpt lat="45.106540071162456" lon="13.751927200111426"><ele>174.0</ele><time>2026-05-01T14:34:00Z</time></trkpt><trkpt lat="45.10652816448417" lon="13.751687189708193"><ele>174.0</ele><time>2026-05-01T14:34:01Z</time></trkpt><trkpt lat="45.106516301116685" lon="13.75145157537252"><ele>174.0</ele><time>2026-05-01T14:34:02Z</time></trkpt><trkpt lat="45.10650533571887" lon="13.751219642325749"><ele>174.0</ele><time>2026-05-01T14:34:03Z</time></trkpt><trkpt lat="45.106497738447835" lon="13.750989914525647"><ele>175.0</ele><time>2026-05-01T14:34:04Z</time></trkpt><trkpt lat="45.10649417917776" lon="13.750758135936756"><ele>176.0</ele><time>2026-05-01T14:34:05Z</time></trkpt><trkpt lat="45.10649265277259" lon="13.750522150918416"><ele>177.0</ele><time>2026-05-01T14:34:06Z</time></trkpt><trkpt lat="45.106495857856956" lon="13.75027943627756"><ele>177.0</ele><time>2026-05-01T14:34:07Z</time></trkpt><trkpt lat="45.10650343689235" lon="13.750026590163921"><ele>177.0</ele><time>2026-05-01T14:34:08Z</time></trkpt><trkpt lat="45.10651563140137" lon="13.749766478907828"><ele>177.0</ele><time>2026-05-01T14:34:09Z</time></trkpt><trkpt lat="45.10652877688195" lon="13.749514700352494"><ele>175.33333333333334</ele><time>2026-05-01T14:34:10Z</time></trkpt><trkpt lat="45.10654153913686" lon="13.749276732436668"><ele>173.66666666666669</ele><time>2026-05-01T14:34:11Z</time></trkpt><trkpt lat="45.10655912033149" lon="13.749045520819882"><ele>172.0</ele><time>2026-05-01T14:34:12Z</time></trkpt><trkpt lat="45.1065798389381" lon="13.748818861787889"><ele>168.33333333333334</ele><time>2026-05-01T14:34:13Z</time></trkpt><trkpt lat="45.10659936263819" lon="13.748595361460902"><ele>164.66666666666666</ele><time>2026-05-01T14:34:14Z</time></trkpt><trkpt lat="45.106635669803936" lon="13.748378930684824"><ele>161.0</ele><time>2026-05-01T14:34:15Z</time></trkpt><trkpt lat="45.10665642031152" lon="13.748157214483852"><ele>160.66666666666666</ele><time>2026-05-01T14:34:16Z</time></trkpt><trkpt lat="45.10667700148752" lon="13.74794020158316"><ele>160.33333333333334</ele><time>2026-05-01T14:34:17Z</time></trkpt><trkpt lat="45.10669695321443" lon="13.747730206888143"><ele>160.0</ele><time>2026-05-01T14:34:18Z</time></trkpt><trkpt lat="45.10671453413456" lon="13.74752536405863"><ele>158.75</ele><time>2026-05-01T14:34:19Z</time></trkpt><trkpt lat="45.10671515996794" lon="13.747322662556902"><ele>157.5</ele><time>2026-05-01T14:34:20Z</time></trkpt><trkpt lat="45.10673794185415" lon="13.747130741172107"><ele>156.25</ele><time>2026-05-01T14:34:21Z</time></trkpt><trkpt lat="45.10675447812666" lon="13.746937755240706"><ele>155.0</ele><time>2026-05-01T14:34:22Z</time></trkpt><trkpt lat="45.106770273388584" lon="13.746747821290054"><ele>154.75</ele><time>2026-05-01T14:34:23Z</time></trkpt><trkpt lat="45.106782509726806" lon="13.746555330942536"><ele>154.5</ele><time>2026-05-01T14:34:24Z</time></trkpt><trkpt lat="45.10679412113978" lon="13.746361972357999"><ele>154.25</ele><time>2026-05-01T14:34:25Z</time></trkpt><trkpt lat="45.10680688693039" lon="13.746165903802972"><ele>154.0</ele><time>2026-05-01T14:34:26Z</time></trkpt><trkpt lat="45.106815582914834" lon="13.74596630324929"><ele>153.5</ele><time>2026-05-01T14:34:27Z</time></trkpt><trkpt lat="45.10681866343834" lon="13.74575913850799"><ele>153.0</ele><time>2026-05-01T14:34:28Z</time></trkpt><trkpt lat="45.10681727928039" lon="13.74555133144326"><ele>152.5</ele><time>2026-05-01T14:34:29Z</time></trkpt><trkpt lat="45.10683070061365" lon="13.745340739193896"><ele>152.0</ele><time>2026-05-01T14:34:30Z</time></trkpt><trkpt lat="45.106819264885125" lon="13.745130910964471"><ele>151.75</ele><time>2026-05-01T14:34:31Z</time></trkpt><trkpt lat="45.106788457142216" lon="13.744928581243299"><ele>151.5</ele><time>2026-05-01T14:34:32Z</time></trkpt><trkpt lat="45.106770474087" lon="13.744729352598709"><ele>151.25</ele><time>2026-05-01T14:34:33Z</time></trkpt><trkpt lat="45.10675227229922" lon="13.744539332565775"><ele>151.0</ele><time>2026-05-01T14:34:34Z</time></trkpt><trkpt lat="45.10673483840041" lon="13.744356708027212"><ele>151.75</ele><time>2026-05-01T14:34:35Z</time></trkpt><trkpt lat="45.10671287934542" lon="13.744180020303052"><ele>152.5</ele><time>2026-05-01T14:34:36Z</time></trkpt><trkpt lat="45.10669004775106" lon="13.744011053909437"><ele>153.25</ele><time>2026-05-01T14:34:37Z</time></trkpt><trkpt lat="45.106665548645545" lon="13.743841442301637"><ele>154.0</ele><time>2026-05-01T14:34:38Z</time></trkpt><trkpt lat="45.106642636576254" lon="13.74366893885366"><ele>153.5</ele><time>2026-05-01T14:34:39Z</time></trkpt><trkpt lat="45.10661987924681" lon="13.743495339590432"><ele>153.0</ele><time>2026-05-01T14:34:40Z</time></trkpt><trkpt lat="45.106599345988954" lon="13.743325316995872"><ele>152.5</ele><time>2026-05-01T14:34:41Z</time></trkpt><trkpt lat="45.1065748075863" lon="13.743153731510546"><ele>152.0</ele><time>2026-05-01T14:34:42Z</time></trkpt><trkpt lat="45.10654901021708" lon="13.7429833216254"><ele>152.0</ele><time>2026-05-01T14:34:43Z</time></trkpt><trkpt lat="45.10652596425941" lon="13.742823263803922"><ele>152.0</ele><time>2026-05-01T14:34:44Z</time></trkpt><trkpt lat="45.106502723825585" lon="13.742654787795821"><ele>152.0</ele><time>2026-05-01T14:34:45Z</time></trkpt><trkpt lat="45.10648307418037" lon="13.74247450972127"><ele>152.0</ele><time>2026-05-01T14:34:46Z</time></trkpt><trkpt lat="45.10645697119959" lon="13.742282605168326"><ele>151.75</ele><time>2026-05-01T14:34:47Z</time></trkpt><trkpt lat="45.10643112798157" lon="13.742082623629724"><ele>151.5</ele><time>2026-05-01T14:34:48Z</time></trkpt><trkpt lat="45.106405589323366" lon="13.74187755227132"><ele>151.25</ele><time>2026-05-01T14:34:49Z</time></trkpt><trkpt lat="45.106379457159875" lon="13.741676047727553"><ele>151.0</ele><time>2026-05-01T14:34:50Z</time></trkpt><trkpt lat="45.106353495764445" lon="13.74146687505472"><ele>151.0</ele><time>2026-05-01T14:34:51Z</time></trkpt><trkpt lat="45.106331178338806" lon="13.741240185402695"><ele>151.0</ele><time>2026-05-01T14:34:52Z</time></trkpt><trkpt lat="45.10631203933442" lon="13.740997565420574"><ele>151.0</ele><time>2026-05-01T14:34:53Z</time></trkpt><trkpt lat="45.10629818005228" lon="13.740740825053459"><ele>150.66666666666669</ele><time>2026-05-01T14:34:54Z</time></trkpt><trkpt lat="45.106286023169204" lon="13.740472281110538"><ele>150.33333333333334</ele><time>2026-05-01T14:34:55Z</time></trkpt><trkpt lat="45.106271499661396" lon="13.740193390748384"><ele>150.0</ele><time>2026-05-01T14:34:56Z</time></trkpt><trkpt lat="45.10626199056625" lon="13.739909416479906"><ele>150.0</ele><time>2026-05-01T14:34:57Z</time></trkpt><trkpt lat="45.10625172997669" lon="13.73962128111634"><ele>150.0</ele><time>2026-05-01T14:34:58Z</time></trkpt><trkpt lat="45.106235804970886" lon="13.739312597231162"><ele>150.0</ele><time>2026-05-01T14:34:59Z</time></trkpt><trkpt lat="45.1062412619916" lon="13.738991634658973"><ele>150.0</ele><time>2026-05-01T14:35:00Z</time></trkpt><trkpt lat="45.10622825769195" lon="13.73865671805427"><ele>150.0</ele><time>2026-05-01T14:35:01Z</time></trkpt><trkpt lat="45.106215240140294" lon="13.738319735206575"><ele>149.5</ele><time>2026-05-01T14:35:02Z</time></trkpt><trkpt lat="45.106204319041964" lon="13.737991036747806"><ele>149.0</ele><time>2026-05-01T14:35:03Z</time></trkpt><trkpt lat="45.10618378136562" lon="13.73767010623555"><ele>148.66666666666666</ele><time>2026-05-01T14:35:04Z</time></trkpt><trkpt lat="45.10617694526739" lon="13.737357956302345"><ele>148.33333333333334</ele><time>2026-05-01T14:35:05Z</time></trkpt><trkpt lat="45.10616989143281" lon="13.737055855939776"><ele>148.0</ele><time>2026-05-01T14:35:06Z</time></trkpt><trkpt lat="45.106163419461836" lon="13.73675536195276"><ele>149.0</ele><time>2026-05-01T14:35:07Z</time></trkpt><trkpt lat="45.106166849854134" lon="13.736459410797364"><ele>150.0</ele><time>2026-05-01T14:35:08Z</time></trkpt><trkpt lat="45.106178941925975" lon="13.73616740096435"><ele>151.0</ele><time>2026-05-01T14:35:09Z</time></trkpt><trkpt lat="45.106201186418275" lon="13.735876931753097"><ele>151.0</ele><time>2026-05-01T14:35:10Z</time></trkpt><trkpt lat="45.106228206168105" lon="13.735589572455723"><ele>151.0</ele><time>2026-05-01T14:35:11Z</time></trkpt><trkpt lat="45.10625679771643" lon="13.735299303461256"><ele>151.0</ele><time>2026-05-01T14:35:12Z</time></trkpt><trkpt lat="45.10628937874543" lon="13.735005214104755"><ele>150.33333333333334</ele><time>2026-05-01T14:35:13Z</time></trkpt><trkpt lat="45.10632688990369" lon="13.734705199024944"><ele>149.66666666666666</ele><time>2026-05-01T14:35:14Z</time></trkpt><trkpt lat="45.106358465782975" lon="13.734402092363501"><ele>149.0</ele><time>2026-05-01T14:35:15Z</time></trkpt><trkpt lat="45.106391042017" lon="13.734097878199083"><ele>148.33333333333331</ele><time>2026-05-01T14:35:16Z</time></trkpt><trkpt lat="45.10642646001526" lon="13.733794519377726"><ele>147.66666666666666</ele><time>2026-05-01T14:35:17Z</time></trkpt><trkpt lat="45.10646146035635" lon="13.73349368013293"><ele>147.0</ele><time>2026-05-01T14:35:18Z</time></trkpt><trkpt lat="45.10649027075662" lon="13.733194011998572"><ele>145.33333333333334</ele><time>2026-05-01T14:35:19Z</time></trkpt><trkpt lat="45.10651520877685" lon="13.732889771556856"><ele>143.66666666666669</ele><time>2026-05-01T14:35:20Z</time></trkpt><trkpt lat="45.106533605673725" lon="13.7325871619364"><ele>142.0</ele><time>2026-05-01T14:35:21Z</time></trkpt><trkpt lat="45.10653637568438" lon="13.732288476245776"><ele>140.66666666666669</ele><time>2026-05-01T14:35:22Z</time></trkpt><trkpt lat="45.106524560549225" lon="13.731987323923564"><ele>139.33333333333334</ele><time>2026-05-01T14:35:23Z</time></trkpt><trkpt lat="45.10650323387313" lon="13.73168809423907"><ele>138.0</ele><time>2026-05-01T14:35:24Z</time></trkpt><trkpt lat="45.10647452400284" lon="13.731394868470574"><ele>137.0</ele><time>2026-05-01T14:35:25Z</time></trkpt><trkpt lat="45.106439194290715" lon="13.731105695060203"><ele>136.0</ele><time>2026-05-01T14:35:26Z</time></trkpt><trkpt lat="45.106405177863785" lon="13.730821851055733"><ele>135.0</ele><time>2026-05-01T14:35:27Z</time></trkpt><trkpt lat="45.106374367299935" lon="13.73054933909373"><ele>134.66666666666666</ele><time>2026-05-01T14:35:28Z</time></trkpt><trkpt lat="45.106345643647614" lon="13.730287080258357"><ele>134.33333333333331</ele><time>2026-05-01T14:35:29Z</time></trkpt><trkpt lat="45.10631776085289" lon="13.730025891438277"><ele>134.0</ele><time>2026-05-01T14:35:30Z</time></trkpt><trkpt lat="45.106289789223396" lon="13.729759561277197"><ele>134.0</ele><time>2026-05-01T14:35:31Z</time></trkpt><trkpt lat="45.10626524861329" lon="13.729486882405032"><ele>134.0</ele><time>2026-05-01T14:35:32Z</time></trkpt><trkpt lat="45.1062501766411" lon="13.729204315725402"><ele>134.0</ele><time>2026-05-01T14:35:33Z</time></trkpt><trkpt lat="45.106250779851244" lon="13.728921201452417"><ele>134.0</ele><time>2026-05-01T14:35:34Z</time></trkpt><trkpt lat="45.106265107734174" lon="13.728638745536454"><ele>134.0</ele><time>2026-05-01T14:35:35Z</time></trkpt><trkpt lat="45.106290348084144" lon="13.728357276570105"><ele>134.0</ele><time>2026-05-01T14:35:36Z</time></trkpt><trkpt lat="45.10632647245087" lon="13.728076891939178"><ele>134.0</ele><time>2026-05-01T14:35:37Z</time></trkpt><trkpt lat="45.10637674814187" lon="13.727806669035612"><ele>134.0</ele><time>2026-05-01T14:35:38Z</time></trkpt><trkpt lat="45.106436418619836" lon="13.727542848222653"><ele>134.0</ele><time>2026-05-01T14:35:39Z</time></trkpt><trkpt lat="45.10650674504856" lon="13.727291819424535"><ele>134.33333333333331</ele><time>2026-05-01T14:35:40Z</time></trkpt><trkpt lat="45.10658634404663" lon="13.727050864283296"><ele>134.66666666666666</ele><time>2026-05-01T14:35:41Z</time></trkpt><trkpt lat="45.106675925027766" lon="13.726825156729845"><ele>135.0</ele><time>2026-05-01T14:35:42Z</time></trkpt><trkpt lat="45.106771525353665" lon="13.726611287685804"><ele>134.33333333333334</ele><time>2026-05-01T14:35:43Z</time></trkpt><trkpt lat="45.106870542310574" lon="13.726404849248338"><ele>133.66666666666669</ele><time>2026-05-01T14:35:44Z</time></trkpt><trkpt lat="45.10697367230376" lon="13.72620258339029"><ele>133.0</ele><time>2026-05-01T14:35:45Z</time></trkpt><trkpt lat="45.10707843788288" lon="13.725998368590346"><ele>133.0</ele><time>2026-05-01T14:35:46Z</time></trkpt><trkpt lat="45.107184504999935" lon="13.72579488487959"><ele>133.0</ele><time>2026-05-01T14:35:47Z</time></trkpt><trkpt lat="45.10728953664648" lon="13.72558674117791"><ele>133.0</ele><time>2026-05-01T14:35:48Z</time></trkpt><trkpt lat="45.10740591696338" lon="13.725394879019172"><ele>133.0</ele><time>2026-05-01T14:35:49Z</time></trkpt><trkpt lat="45.107511983370465" lon="13.725194971251906"><ele>133.0</ele><time>2026-05-01T14:35:50Z</time></trkpt><trkpt lat="45.10761629334317" lon="13.725000021209116"><ele>133.0</ele><time>2026-05-01T14:35:51Z</time></trkpt><trkpt lat="45.10772378971782" lon="13.724799906835326"><ele>133.0</ele><time>2026-05-01T14:35:52Z</time></trkpt><trkpt lat="45.1078317033587" lon="13.724594985375324"><ele>133.0</ele><time>2026-05-01T14:35:53Z</time></trkpt><trkpt lat="45.10794453674238" lon="13.724389126992941"><ele>133.0</ele><time>2026-05-01T14:35:54Z</time></trkpt><trkpt lat="45.10805565213905" lon="13.724176825128557"><ele>132.33333333333334</ele><time>2026-05-01T14:35:55Z</time></trkpt><trkpt lat="45.10816632409262" lon="13.723962790325109"><ele>131.66666666666666</ele><time>2026-05-01T14:35:56Z</time></trkpt><trkpt lat="45.10827435989827" lon="13.723748381114506"><ele>131.0</ele><time>2026-05-01T14:35:57Z</time></trkpt><trkpt lat="45.10838325712123" lon="13.723519576587105"><ele>131.0</ele><time>2026-05-01T14:35:58Z</time></trkpt><trkpt lat="45.10849062798981" lon="13.723271631303547"><ele>131.0</ele><time>2026-05-01T14:35:59Z</time></trkpt><trkpt lat="45.10859832246121" lon="13.723009689063755"><ele>131.0</ele><time>2026-05-01T14:36:00Z</time></trkpt><trkpt lat="45.10870912768451" lon="13.722733120340644"><ele>131.33333333333331</ele><time>2026-05-01T14:36:01Z</time></trkpt><trkpt lat="45.10881694031095" lon="13.722455593103716"><ele>131.66666666666666</ele><time>2026-05-01T14:36:02Z</time></trkpt><trkpt lat="45.10892515453287" lon="13.722179202834646"><ele>132.0</ele><time>2026-05-01T14:36:03Z</time></trkpt><trkpt lat="45.109028649205264" lon="13.721916680005371"><ele>130.66666666666666</ele><time>2026-05-01T14:36:04Z</time></trkpt><trkpt lat="45.10912567286108" lon="13.721666814661411"><ele>129.33333333333331</ele><time>2026-05-01T14:36:05Z</time></trkpt><trkpt lat="45.10921754434123" lon="13.721428192496965"><ele>128.0</ele><time>2026-05-01T14:36:06Z</time></trkpt><trkpt lat="45.10930617710123" lon="13.721200527391403"><ele>129.0</ele><time>2026-05-01T14:36:07Z</time></trkpt><trkpt lat="45.1093915970996" lon="13.720980523249292"><ele>130.0</ele><time>2026-05-01T14:36:08Z</time></trkpt><trkpt lat="45.1094580305251" lon="13.72075976674801"><ele>131.0</ele><time>2026-05-01T14:36:09Z</time></trkpt><trkpt lat="45.109535220255815" lon="13.720561236810967"><ele>131.0</ele><time>2026-05-01T14:36:10Z</time></trkpt><trkpt lat="45.10962349626368" lon="13.720377959533895"><ele>131.0</ele><time>2026-05-01T14:36:11Z</time></trkpt><trkpt lat="45.109689793391865" lon="13.720180371900767"><ele>131.0</ele><time>2026-05-01T14:36:12Z</time></trkpt><trkpt lat="45.10975148623605" lon="13.71997522513794"><ele>131.0</ele><time>2026-05-01T14:36:13Z</time></trkpt><trkpt lat="45.109810150587165" lon="13.719757923645279"><ele>131.0</ele><time>2026-05-01T14:36:14Z</time></trkpt><trkpt lat="45.109846074933586" lon="13.71952570932489"><ele>131.0</ele><time>2026-05-01T14:36:15Z</time></trkpt><trkpt lat="45.10990936758576" lon="13.719305847982284"><ele>130.33333333333331</ele><time>2026-05-01T14:36:16Z</time></trkpt><trkpt lat="45.10993281345966" lon="13.7190777335139"><ele>129.66666666666666</ele><time>2026-05-01T14:36:17Z</time></trkpt><trkpt lat="45.10996726894009" lon="13.718855671654346"><ele>129.0</ele><time>2026-05-01T14:36:18Z</time></trkpt><trkpt lat="45.1099919344396" lon="13.718631509788986"><ele>128.33333333333334</ele><time>2026-05-01T14:36:19Z</time></trkpt><trkpt lat="45.11000783479524" lon="13.718402732644277"><ele>127.66666666666667</ele><time>2026-05-01T14:36:20Z</time></trkpt><trkpt lat="45.11001511563033" lon="13.71816444813696"><ele>127.0</ele><time>2026-05-01T14:36:21Z</time></trkpt><trkpt lat="45.11001629513166" lon="13.717927603128736"><ele>127.66666666666667</ele><time>2026-05-01T14:36:22Z</time></trkpt><trkpt lat="45.11001199479402" lon="13.717691503213539"><ele>128.33333333333334</ele><time>2026-05-01T14:36:23Z</time></trkpt><trkpt lat="45.11000473793287" lon="13.717454371006504"><ele>129.0</ele><time>2026-05-01T14:36:24Z</time></trkpt><trkpt lat="45.10999723029873" lon="13.71721250051282"><ele>129.0</ele><time>2026-05-01T14:36:25Z</time></trkpt><trkpt lat="45.10999197279075" lon="13.716971860583056"><ele>129.0</ele><time>2026-05-01T14:36:26Z</time></trkpt><trkpt lat="45.10998052811706" lon="13.716734328790462"><ele>129.0</ele><time>2026-05-01T14:36:27Z</time></trkpt><trkpt lat="45.109966974848305" lon="13.716502434520338"><ele>129.66666666666666</ele><time>2026-05-01T14:36:28Z</time></trkpt><trkpt lat="45.10994820523096" lon="13.71626985428661"><ele>130.33333333333331</ele><time>2026-05-01T14:36:29Z</time></trkpt><trkpt lat="45.10992325050328" lon="13.716039515185749"><ele>131.0</ele><time>2026-05-01T14:36:30Z</time></trkpt><trkpt lat="45.10989246293388" lon="13.715815123758164"><ele>132.66666666666666</ele><time>2026-05-01T14:36:31Z</time></trkpt><trkpt lat="45.1098509132561" lon="13.715605613570085"><ele>134.33333333333334</ele><time>2026-05-01T14:36:32Z</time></trkpt><trkpt lat="45.109804696293686" lon="13.715403078004417"><ele>136.0</ele><time>2026-05-01T14:36:33Z</time></trkpt><trkpt lat="45.1097493944125" lon="13.715205489139992"><ele>136.0</ele><time>2026-05-01T14:36:34Z</time></trkpt><trkpt lat="45.109689775052786" lon="13.715007688027024"><ele>136.0</ele><time>2026-05-01T14:36:35Z</time></trkpt><trkpt lat="45.109627701885024" lon="13.714813473173532"><ele>136.0</ele><time>2026-05-01T14:36:36Z</time></trkpt><trkpt lat="45.10956231526117" lon="13.714624481394962"><ele>136.0</ele><time>2026-05-01T14:36:37Z</time></trkpt><trkpt lat="45.10950108231238" lon="13.71444590383504"><ele>136.0</ele><time>2026-05-01T14:36:38Z</time></trkpt><trkpt lat="45.10944286821383" lon="13.714272217123003"><ele>136.0</ele><time>2026-05-01T14:36:39Z</time></trkpt><trkpt lat="45.10938621080614" lon="13.714109357691179"><ele>136.0</ele><time>2026-05-01T14:36:40Z</time></trkpt><trkpt lat="45.109342984167974" lon="13.713955299054842"><ele>136.0</ele><time>2026-05-01T14:36:41Z</time></trkpt><trkpt lat="45.10929235195374" lon="13.71381091086734"><ele>136.0</ele><time>2026-05-01T14:36:42Z</time></trkpt><trkpt lat="45.10925497186188" lon="13.713682854389898"><ele>136.0</ele><time>2026-05-01T14:36:43Z</time></trkpt><trkpt lat="45.109217513578145" lon="13.713570166568141"><ele>136.0</ele><time>2026-05-01T14:36:44Z</time></trkpt><trkpt lat="45.10918541780256" lon="13.71346856116247"><ele>136.0</ele><time>2026-05-01T14:36:45Z</time></trkpt><trkpt lat="45.10915838408348" lon="13.713378459337807"><ele>136.0</ele><time>2026-05-01T14:36:46Z</time></trkpt><trkpt lat="45.10910741914944" lon="13.713222361185801"><ele>136.33333333333334</ele><time>2026-05-01T14:36:48Z</time></trkpt><trkpt lat="45.10907097774043" lon="13.713102695367247"><ele>136.66666666666669</ele><time>2026-05-01T14:36:50Z</time></trkpt><trkpt lat="45.10904056959081" lon="13.713013095213762"><ele>137.0</ele><time>2026-05-01T14:36:52Z</time></trkpt><trkpt lat="45.10900987595559" lon="13.712914273600811"><ele>137.33333333333334</ele><time>2026-05-01T14:36:55Z</time></trkpt><trkpt lat="45.108991470430404" lon="13.712827672560694"><ele>137.66666666666666</ele><time>2026-05-01T14:37:07Z</time></trkpt><trkpt lat="45.10896491056337" lon="13.712745953238297"><ele>138.0</ele><time>2026-05-01T14:37:09Z</time></trkpt><trkpt lat="45.10891917266191" lon="13.712606270116648"><ele>138.0</ele><time>2026-05-01T14:37:11Z</time></trkpt><trkpt lat="45.108880818217195" lon="13.712489135869665"><ele>138.0</ele><time>2026-05-01T14:37:13Z</time></trkpt><trkpt lat="45.10875938039339" lon="13.712513474232503"><ele>138.0</ele><time>2026-05-01T14:37:14Z</time></trkpt><trkpt lat="45.1086883286138" lon="13.712517150478353"><ele>138.0</ele><time>2026-05-01T14:37:15Z</time></trkpt><trkpt lat="45.108615528082765" lon="13.71254072189832"><ele>138.0</ele><time>2026-05-01T14:37:16Z</time></trkpt><trkpt lat="45.108542584409655" lon="13.712572710909816"><ele>138.0</ele><time>2026-05-01T14:37:17Z</time></trkpt><trkpt lat="45.10846069924753" lon="13.712608689045076"><ele>138.0</ele><time>2026-05-01T14:37:18Z</time></trkpt><trkpt lat="45.10839094094175" lon="13.712638461492936"><ele>138.0</ele><time>2026-05-01T14:37:19Z</time></trkpt><trkpt lat="45.108325213887944" lon="13.712661736610503"><ele>138.0</ele><time>2026-05-01T14:37:20Z</time></trkpt><trkpt lat="45.10825840724431" lon="13.712686387572793"><ele>138.0</ele><time>2026-05-01T14:37:21Z</time></trkpt><trkpt lat="45.108186292274134" lon="13.712719043639753"><ele>138.0</ele><time>2026-05-01T14:37:22Z</time></trkpt><trkpt lat="45.10810820221489" lon="13.712749631632196"><ele>138.0</ele><time>2026-05-01T14:37:23Z</time></trkpt><trkpt lat="45.108036886225264" lon="13.71281189289253"><ele>139.66666666666666</ele><time>2026-05-01T14:37:24Z</time></trkpt><trkpt lat="45.10796595436098" lon="13.71288591787481"><ele>141.33333333333334</ele><time>2026-05-01T14:37:25Z</time></trkpt><trkpt lat="45.107907447104246" lon="13.71297932496374"><ele>143.0</ele><time>2026-05-01T14:37:26Z</time></trkpt><trkpt lat="45.107835757166626" lon="13.713040098388195"><ele>144.66666666666669</ele><time>2026-05-01T14:37:27Z</time></trkpt><trkpt lat="45.107766854853466" lon="13.713119664376507"><ele>146.33333333333334</ele><time>2026-05-01T14:37:28Z</time></trkpt><trkpt lat="45.10770083711041" lon="13.71319632278056"><ele>148.0</ele><time>2026-05-01T14:37:29Z</time></trkpt><trkpt lat="45.10762836910574" lon="13.713269022320429"><ele>148.0</ele><time>2026-05-01T14:37:30Z</time></trkpt><trkpt lat="45.107560360233386" lon="13.713341960503444"><ele>148.0</ele><time>2026-05-01T14:37:31Z</time></trkpt><trkpt lat="45.10749492210068" lon="13.713424583609052"><ele>148.0</ele><time>2026-05-01T14:37:32Z</time></trkpt><trkpt lat="45.107434993135136" lon="13.713499292093685"><ele>148.0</ele><time>2026-05-01T14:37:33Z</time></trkpt><trkpt lat="45.10737533574182" lon="13.713576953394396"><ele>148.0</ele><time>2026-05-01T14:37:34Z</time></trkpt><trkpt lat="45.107315781886335" lon="13.713654089645843"><ele>148.0</ele><time>2026-05-01T14:37:35Z</time></trkpt><trkpt lat="45.10724677954775" lon="13.713706832665023"><ele>149.0</ele><time>2026-05-01T14:37:36Z</time></trkpt><trkpt lat="45.1071883681051" lon="13.713773779145717"><ele>150.0</ele><time>2026-05-01T14:37:37Z</time></trkpt><trkpt lat="45.10713005367163" lon="13.713840210396274"><ele>151.0</ele><time>2026-05-01T14:37:38Z</time></trkpt><trkpt lat="45.10707375101964" lon="13.713902537015255"><ele>152.0</ele><time>2026-05-01T14:37:39Z</time></trkpt><trkpt lat="45.10698046697625" lon="13.714019569346608"><ele>153.0</ele><time>2026-05-01T14:37:41Z</time></trkpt><trkpt lat="45.10692774345711" lon="13.71406942155396"><ele>154.0</ele><time>2026-05-01T14:37:42Z</time></trkpt><trkpt lat="45.10688063638196" lon="13.71412909906833"><ele>154.0</ele><time>2026-05-01T14:37:43Z</time></trkpt><trkpt lat="45.106811141889686" lon="13.71422332906438"><ele>154.0</ele><time>2026-05-01T14:37:45Z</time></trkpt><trkpt lat="45.10674290721146" lon="13.714357801885095"><ele>154.0</ele><time>2026-05-01T14:37:47Z</time></trkpt><trkpt lat="45.106682674375875" lon="13.714476233376525"><ele>154.0</ele><time>2026-05-01T14:37:49Z</time></trkpt><trkpt lat="45.10660470760539" lon="13.714583461787466"><ele>154.0</ele><time>2026-05-01T14:37:51Z</time></trkpt><trkpt lat="45.10653570003375" lon="13.714714527810923"><ele>154.6</ele><time>2026-05-01T14:37:53Z</time></trkpt><trkpt lat="45.106486430634995" lon="13.714810125157916"><ele>155.2</ele><time>2026-05-01T14:37:55Z</time></trkpt><trkpt lat="45.10637826857139" lon="13.714752962992891"><ele>155.79999999999998</ele><time>2026-05-01T14:38:00Z</time></trkpt><trkpt lat="45.10631465759339" lon="13.714686991014194"><ele>156.4</ele><time>2026-05-01T14:38:02Z</time></trkpt><trkpt lat="45.10622755242747" lon="13.714633464564496"><ele>157.0</ele><time>2026-05-01T14:38:04Z</time></trkpt><trkpt lat="45.10613700606687" lon="13.714566507679145"><ele>157.0</ele><time>2026-05-01T14:38:06Z</time></trkpt><trkpt lat="45.106066725455975" lon="13.71449594553018"><ele>157.0</ele><time>2026-05-01T14:38:08Z</time></trkpt><trkpt lat="45.10598803511646" lon="13.71439152187604"><ele>157.0</ele><time>2026-05-01T14:38:10Z</time></trkpt><trkpt lat="45.10591487413942" lon="13.714280816668557"><ele>157.0</ele><time>2026-05-01T14:38:12Z</time></trkpt><trkpt lat="45.10585381597405" lon="13.714157685707784"><ele>157.0</ele><time>2026-05-01T14:38:14Z</time></trkpt><trkpt lat="45.10575840394336" lon="13.714091718117029"><ele>157.0</ele><time>2026-05-01T14:38:16Z</time></trkpt><trkpt lat="45.105672690390215" lon="13.714025110799827"><ele>157.0</ele><time>2026-05-01T14:38:18Z</time></trkpt><trkpt lat="45.10558377154423" lon="13.713935725337409"><ele>157.0</ele><time>2026-05-01T14:38:20Z</time></trkpt><trkpt lat="45.10548848770936" lon="13.713881561037716"><ele>157.0</ele><time>2026-05-01T14:38:22Z</time></trkpt><trkpt lat="45.105412627759684" lon="13.71379790699672"><ele>157.0</ele><time>2026-05-01T14:38:24Z</time></trkpt><trkpt lat="45.10534071782328" lon="13.713709510825474"><ele>157.0</ele><time>2026-05-01T14:38:26Z</time></trkpt><trkpt lat="45.10528119847235" lon="13.713598427857534"><ele>157.0</ele><time>2026-05-01T14:38:28Z</time></trkpt><trkpt lat="45.10520824040654" lon="13.713480251742315"><ele>157.0</ele><time>2026-05-01T14:38:30Z</time></trkpt><trkpt lat="45.1051290034235" lon="13.713370915661109"><ele>157.0</ele><time>2026-05-01T14:38:32Z</time></trkpt><trkpt lat="45.10505906194259" lon="13.713268105842966"><ele>157.0</ele><time>2026-05-01T14:38:34Z</time></trkpt><trkpt lat="45.104997553240246" lon="13.713166412572203"><ele>156.83333333333334</ele><time>2026-05-01T14:38:36Z</time></trkpt><trkpt lat="45.1049361944038" lon="13.713056965542128"><ele>156.66666666666669</ele><time>2026-05-01T14:38:38Z</time></trkpt><trkpt lat="45.10488407241686" lon="13.712960119182346"><ele>156.5</ele><time>2026-05-01T14:38:40Z</time></trkpt><trkpt lat="45.104869276373684" lon="13.712864150513902"><ele>156.33333333333334</ele><time>2026-05-01T14:38:44Z</time></trkpt><trkpt lat="45.10496605317922" lon="13.7128269498377"><ele>156.16666666666666</ele><time>2026-05-01T14:38:46Z</time></trkpt><trkpt lat="45.10503462549898" lon="13.712742799129119"><ele>156.0</ele><time>2026-05-01T14:38:48Z</time></trkpt><trkpt lat="45.105114369195576" lon="13.71264530709823"><ele>155.5</ele><time>2026-05-01T14:38:50Z</time></trkpt><trkpt lat="45.1051804882845" lon="13.712538526657013"><ele>155.0</ele><time>2026-05-01T14:38:52Z</time></trkpt><trkpt lat="45.105251744398515" lon="13.712446871537406"><ele>154.5</ele><time>2026-05-01T14:38:54Z</time></trkpt><trkpt lat="45.1053283108142" lon="13.712378342035834"><ele>154.0</ele><time>2026-05-01T14:38:56Z</time></trkpt><trkpt lat="45.10538791341505" lon="13.712299872623477"><ele>153.5</ele><time>2026-05-01T14:38:58Z</time></trkpt><trkpt lat="45.10543347757313" lon="13.712215415940449"><ele>153.0</ele><time>2026-05-01T14:39:00Z</time></trkpt><trkpt lat="45.10548801495492" lon="13.712145457306423"><ele>153.0</ele><time>2026-05-01T14:39:02Z</time></trkpt><trkpt lat="45.10553246174852" lon="13.712081862422954"><ele>153.0</ele><time>2026-05-01T14:39:04Z</time></trkpt><trkpt lat="45.105461041275184" lon="13.712006892728127"><ele>153.0</ele><time>2026-05-01T14:39:10Z</time></trkpt></trkseg></trk></gpx>